<?xml version='1.0' encoding='UTF-8'?><gpx version="1.1" creator="JPX - https://github.com/jenetics/jpx" xmlns="http://www.topografix.com/GPX/1/1"><trk><trkseg><trkpt lat="42.3537476" lon="13.4023849"><ele>735.0</ele><time>2026-05-03T07:05:45.008Z</time></trkpt><trkpt lat="42.3537382" lon="13.4022948"><ele>735.0</ele><time>2026-05-03T07:06:19.008Z</time></trkpt><trkpt lat="42.3537283" lon="13.4022012"><ele>735.0</ele><time>2026-05-03T07:06:56.008Z</time></trkpt><trkpt lat="42.3537303" lon="13.4021033"><ele>735.0</ele><time>2026-05-03T07:07:24.008Z</time></trkpt><trkpt lat="42.353725" lon="13.4019939"><ele>735.0</ele><time>2026-05-03T07:07:26.008Z</time></trkpt><trkpt lat="42.353738" lon="13.4018595"><ele>735.0</ele><time>2026-05-03T07:07:28.008Z</time></trkpt><trkpt lat="42.3537759" lon="13.4017412"><ele>734.8333333333334</ele><time>2026-05-03T07:07:30.008Z</time></trkpt><trkpt lat="42.3538473" lon="13.4016557"><ele>734.6666666666666</ele><time>2026-05-03T07:07:32.008Z</time></trkpt><trkpt lat="42.35395" lon="13.4016546"><ele>734.5</ele><time>2026-05-03T07:07:34.008Z</time></trkpt><trkpt lat="42.3540064" lon="13.4017022"><ele>734.3333333333333</ele><time>2026-05-03T07:07:35.007Z</time></trkpt><trkpt lat="42.354062" lon="13.401783"><ele>734.1666666666666</ele><time>2026-05-03T07:07:36.008Z</time></trkpt><trkpt lat="42.3541202" lon="13.4018635"><ele>734.0</ele><time>2026-05-03T07:07:37.008Z</time></trkpt><trkpt lat="42.3541878" lon="13.4019467"><ele>733.4000000000001</ele><time>2026-05-03T07:07:38.008Z</time></trkpt><trkpt lat="42.3542646" lon="13.4020368"><ele>732.8</ele><time>2026-05-03T07:07:39.008Z</time></trkpt><trkpt lat="42.3543515" lon="13.4021323"><ele>732.2</ele><time>2026-05-03T07:07:40.008Z</time></trkpt><trkpt lat="42.3544375" lon="13.4022387"><ele>731.5999999999999</ele><time>2026-05-03T07:07:41.008Z</time></trkpt><trkpt lat="42.3545201" lon="13.402341"><ele>731.0</ele><time>2026-05-03T07:07:42.008Z</time></trkpt><trkpt lat="42.3546009" lon="13.4024353"><ele>731.0</ele><time>2026-05-03T07:07:43.008Z</time></trkpt><trkpt lat="42.3546828" lon="13.4025312"><ele>731.0</ele><time>2026-05-03T07:07:44.008Z</time></trkpt><trkpt lat="42.3547615" lon="13.4026307"><ele>731.0</ele><time>2026-05-03T07:07:45.008Z</time></trkpt><trkpt lat="42.3548405" lon="13.4027251"><ele>731.0</ele><time>2026-05-03T07:07:46.008Z</time></trkpt><trkpt lat="42.3549201" lon="13.4028189"><ele>731.0</ele><time>2026-05-03T07:07:47.007Z</time></trkpt><trkpt lat="42.3549954" lon="13.402914"><ele>729.4</ele><time>2026-05-03T07:07:48.007Z</time></trkpt><trkpt lat="42.3550651" lon="13.4030187"><ele>727.8</ele><time>2026-05-03T07:07:49.008Z</time></trkpt><trkpt lat="42.3551184" lon="13.4031285"><ele>726.1999999999999</ele><time>2026-05-03T07:07:50.008Z</time></trkpt><trkpt lat="42.3551738" lon="13.4032357"><ele>724.5999999999999</ele><time>2026-05-03T07:07:51.008Z</time></trkpt><trkpt lat="42.3552205" lon="13.4033502"><ele>723.0</ele><time>2026-05-03T07:07:52.008Z</time></trkpt><trkpt lat="42.3552624" lon="13.4034766"><ele>723.0</ele><time>2026-05-03T07:07:53.007Z</time></trkpt><trkpt lat="42.3552974" lon="13.4036043"><ele>723.0</ele><time>2026-05-03T07:07:54.007Z</time></trkpt><trkpt lat="42.3553263" lon="13.4037305"><ele>723.0</ele><time>2026-05-03T07:07:55.008Z</time></trkpt><trkpt lat="42.3553577" lon="13.4038522"><ele>723.0</ele><time>2026-05-03T07:07:56.008Z</time></trkpt><trkpt lat="42.3553844" lon="13.4039797"><ele>723.0</ele><time>2026-05-03T07:07:57.008Z</time></trkpt><trkpt lat="42.3554113" lon="13.4041043"><ele>724.4</ele><time>2026-05-03T07:07:58.008Z</time></trkpt><trkpt lat="42.3554421" lon="13.4042323"><ele>725.8</ele><time>2026-05-03T07:07:59.008Z</time></trkpt><trkpt lat="42.3554752" lon="13.4043658"><ele>727.2</ele><time>2026-05-03T07:08:00.007Z</time></trkpt><trkpt lat="42.355504" lon="13.4044906"><ele>728.6</ele><time>2026-05-03T07:08:01.007Z</time></trkpt><trkpt lat="42.3555305" lon="13.4046176"><ele>730.0</ele><time>2026-05-03T07:08:02.008Z</time></trkpt><trkpt lat="42.355547" lon="13.4047283"><ele>726.8333333333334</ele><time>2026-05-03T07:08:03.008Z</time></trkpt><trkpt lat="42.3555602" lon="13.4048175"><ele>723.6666666666667</ele><time>2026-05-03T07:08:04.008Z</time></trkpt><trkpt lat="42.3555577" lon="13.4049352"><ele>720.5</ele><time>2026-05-03T07:08:06.008Z</time></trkpt><trkpt lat="42.3555536" lon="13.4050241"><ele>717.3333333333334</ele><time>2026-05-03T07:08:08.008Z</time></trkpt><trkpt lat="42.3555738" lon="13.4051058"><ele>714.1666666666666</ele><time>2026-05-03T07:08:11.008Z</time></trkpt><trkpt lat="42.3556365" lon="13.4050023"><ele>711.0</ele><time>2026-05-03T07:15:01.005Z</time></trkpt><trkpt lat="42.3556238" lon="13.4051412"><ele>711.0</ele><time>2026-05-03T07:15:04.005Z</time></trkpt><trkpt lat="42.3556451" lon="13.405271"><ele>711.0</ele><time>2026-05-03T07:15:06.006Z</time></trkpt><trkpt lat="42.3556618" lon="13.4053729"><ele>711.0</ele><time>2026-05-03T07:15:08.005Z</time></trkpt><trkpt lat="42.3556851" lon="13.4054751"><ele>711.0</ele><time>2026-05-03T07:15:10.005Z</time></trkpt><trkpt lat="42.3557184" lon="13.4056065"><ele>711.0</ele><time>2026-05-03T07:15:12.005Z</time></trkpt><trkpt lat="42.3557286" lon="13.4057521"><ele>711.1666666666666</ele><time>2026-05-03T07:15:14.005Z</time></trkpt><trkpt lat="42.3557381" lon="13.4059034"><ele>711.3333333333334</ele><time>2026-05-03T07:15:16.006Z</time></trkpt><trkpt lat="42.3557685" lon="13.4060649"><ele>711.5</ele><time>2026-05-03T07:15:18.005Z</time></trkpt><trkpt lat="42.3557818" lon="13.406156"><ele>711.6666666666667</ele><time>2026-05-03T07:15:19.006Z</time></trkpt><trkpt lat="42.3557836" lon="13.4062479"><ele>711.8333333333334</ele><time>2026-05-03T07:15:20.006Z</time></trkpt><trkpt lat="42.3557751" lon="13.4063365"><ele>712.0</ele><time>2026-05-03T07:15:21.005Z</time></trkpt><trkpt lat="42.3557511" lon="13.4064316"><ele>712.0</ele><time>2026-05-03T07:15:22.005Z</time></trkpt><trkpt lat="42.3557151" lon="13.4065214"><ele>712.0</ele><time>2026-05-03T07:15:23.006Z</time></trkpt><trkpt lat="42.3556726" lon="13.4066068"><ele>712.0</ele><time>2026-05-03T07:15:24.005Z</time></trkpt><trkpt lat="42.3556258" lon="13.4066759"><ele>712.0</ele><time>2026-05-03T07:15:25.005Z</time></trkpt><trkpt lat="42.3555374" lon="13.4068032"><ele>712.0</ele><time>2026-05-03T07:15:27.005Z</time></trkpt><trkpt lat="42.3554752" lon="13.4068498"><ele>712.0</ele><time>2026-05-03T07:15:28.005Z</time></trkpt><trkpt lat="42.3554104" lon="13.4069052"><ele>712.0</ele><time>2026-05-03T07:15:29.005Z</time></trkpt><trkpt lat="42.3553446" lon="13.4069706"><ele>712.0</ele><time>2026-05-03T07:15:30.005Z</time></trkpt><trkpt lat="42.3552845" lon="13.407068"><ele>712.0</ele><time>2026-05-03T07:15:31.006Z</time></trkpt><trkpt lat="42.3552242" lon="13.4071729"><ele>712.0</ele><time>2026-05-03T07:15:32.006Z</time></trkpt><trkpt lat="42.3551625" lon="13.4072788"><ele>712.0</ele><time>2026-05-03T07:15:33.006Z</time></trkpt><trkpt lat="42.355103" lon="13.4073814"><ele>712.0</ele><time>2026-05-03T07:15:34.006Z</time></trkpt><trkpt lat="42.3550448" lon="13.4074885"><ele>712.0</ele><time>2026-05-03T07:15:35.005Z</time></trkpt><trkpt lat="42.3549854" lon="13.407602"><ele>712.0</ele><time>2026-05-03T07:15:36.005Z</time></trkpt><trkpt lat="42.3549246" lon="13.4077211"><ele>712.0</ele><time>2026-05-03T07:15:37.005Z</time></trkpt><trkpt lat="42.3548641" lon="13.4078492"><ele>712.0</ele><time>2026-05-03T07:15:38.006Z</time></trkpt><trkpt lat="42.3548017" lon="13.4079749"><ele>711.8</ele><time>2026-05-03T07:15:39.006Z</time></trkpt><trkpt lat="42.3547416" lon="13.4081038"><ele>711.6</ele><time>2026-05-03T07:15:40.006Z</time></trkpt><trkpt lat="42.354686" lon="13.4082298"><ele>711.4</ele><time>2026-05-03T07:15:41.006Z</time></trkpt><trkpt lat="42.3546255" lon="13.4083594"><ele>711.1999999999999</ele><time>2026-05-03T07:15:42.005Z</time></trkpt><trkpt lat="42.3545665" lon="13.4084806"><ele>711.0</ele><time>2026-05-03T07:15:43.005Z</time></trkpt><trkpt lat="42.3544992" lon="13.4086059"><ele>711.75</ele><time>2026-05-03T07:15:44.006Z</time></trkpt><trkpt lat="42.3544298" lon="13.4087327"><ele>712.5</ele><time>2026-05-03T07:15:45.005Z</time></trkpt><trkpt lat="42.3543614" lon="13.4088588"><ele>713.25</ele><time>2026-05-03T07:15:46.005Z</time></trkpt><trkpt lat="42.3542789" lon="13.4089837"><ele>714.0</ele><time>2026-05-03T07:15:47.006Z</time></trkpt><trkpt lat="42.3541944" lon="13.4091101"><ele>714.0</ele><time>2026-05-03T07:15:48.006Z</time></trkpt><trkpt lat="42.3541107" lon="13.4092379"><ele>714.0</ele><time>2026-05-03T07:15:49.005Z</time></trkpt><trkpt lat="42.3540228" lon="13.4093688"><ele>714.0</ele><time>2026-05-03T07:15:50.006Z</time></trkpt><trkpt lat="42.3539365" lon="13.4094984"><ele>714.0</ele><time>2026-05-03T07:15:51.006Z</time></trkpt><trkpt lat="42.3538447" lon="13.4096261"><ele>713.75</ele><time>2026-05-03T07:15:52.006Z</time></trkpt><trkpt lat="42.3537536" lon="13.4097533"><ele>713.5</ele><time>2026-05-03T07:15:53.006Z</time></trkpt><trkpt lat="42.3536634" lon="13.4098818"><ele>713.25</ele><time>2026-05-03T07:15:54.006Z</time></trkpt><trkpt lat="42.3535778" lon="13.4100128"><ele>713.0</ele><time>2026-05-03T07:15:55.005Z</time></trkpt><trkpt lat="42.3534887" lon="13.4101436"><ele>713.0</ele><time>2026-05-03T07:15:56.006Z</time></trkpt><trkpt lat="42.353395" lon="13.4102753"><ele>713.0</ele><time>2026-05-03T07:15:57.005Z</time></trkpt><trkpt lat="42.3533047" lon="13.4104049"><ele>713.0</ele><time>2026-05-03T07:15:58.005Z</time></trkpt><trkpt lat="42.3532161" lon="13.4105282"><ele>713.0</ele><time>2026-05-03T07:15:59.006Z</time></trkpt><trkpt lat="42.3531309" lon="13.4106503"><ele>713.25</ele><time>2026-05-03T07:16:00.006Z</time></trkpt><trkpt lat="42.3530438" lon="13.4107771"><ele>713.5</ele><time>2026-05-03T07:16:01.005Z</time></trkpt><trkpt lat="42.3529578" lon="13.4109023"><ele>713.75</ele><time>2026-05-03T07:16:02.006Z</time></trkpt><trkpt lat="42.3528706" lon="13.4110333"><ele>714.0</ele><time>2026-05-03T07:16:03.006Z</time></trkpt><trkpt lat="42.3527892" lon="13.4111582"><ele>714.0</ele><time>2026-05-03T07:16:04.006Z</time></trkpt><trkpt lat="42.3527068" lon="13.4112751"><ele>714.0</ele><time>2026-05-03T07:16:05.006Z</time></trkpt><trkpt lat="42.3526267" lon="13.411393"><ele>714.0</ele><time>2026-05-03T07:16:06.006Z</time></trkpt><trkpt lat="42.3525497" lon="13.4115081"><ele>714.0</ele><time>2026-05-03T07:16:07.006Z</time></trkpt><trkpt lat="42.3524779" lon="13.411628"><ele>714.4000000000001</ele><time>2026-05-03T07:16:08.006Z</time></trkpt><trkpt lat="42.3524097" lon="13.4117348"><ele>714.8</ele><time>2026-05-03T07:16:09.006Z</time></trkpt><trkpt lat="42.3523352" lon="13.4118377"><ele>715.2</ele><time>2026-05-03T07:16:10.005Z</time></trkpt><trkpt lat="42.3522655" lon="13.4119461"><ele>715.5999999999999</ele><time>2026-05-03T07:16:11.005Z</time></trkpt><trkpt lat="42.3521943" lon="13.4120415"><ele>716.0</ele><time>2026-05-03T07:16:12.005Z</time></trkpt><trkpt lat="42.3521211" lon="13.4121402"><ele>715.8</ele><time>2026-05-03T07:16:13.005Z</time></trkpt><trkpt lat="42.3520578" lon="13.4122452"><ele>715.5999999999999</ele><time>2026-05-03T07:16:14.005Z</time></trkpt><trkpt lat="42.3520042" lon="13.4123553"><ele>715.4</ele><time>2026-05-03T07:16:15.006Z</time></trkpt><trkpt lat="42.3519725" lon="13.4124728"><ele>715.2</ele><time>2026-05-03T07:16:16.005Z</time></trkpt><trkpt lat="42.3519647" lon="13.4126083"><ele>715.0</ele><time>2026-05-03T07:16:17.006Z</time></trkpt><trkpt lat="42.3519693" lon="13.4127453"><ele>715.0</ele><time>2026-05-03T07:16:18.006Z</time></trkpt><trkpt lat="42.3519977" lon="13.4128774"><ele>715.0</ele><time>2026-05-03T07:16:19.005Z</time></trkpt><trkpt lat="42.3520339" lon="13.4130114"><ele>715.0</ele><time>2026-05-03T07:16:20.006Z</time></trkpt><trkpt lat="42.3520803" lon="13.4131411"><ele>715.0</ele><time>2026-05-03T07:16:21.006Z</time></trkpt><trkpt lat="42.3521331" lon="13.4132712"><ele>715.0</ele><time>2026-05-03T07:16:22.005Z</time></trkpt><trkpt lat="42.3521953" lon="13.4134001"><ele>716.0</ele><time>2026-05-03T07:16:23.006Z</time></trkpt><trkpt lat="42.352246" lon="13.4135216"><ele>717.0</ele><time>2026-05-03T07:16:24.005Z</time></trkpt><trkpt lat="42.3522917" lon="13.4136366"><ele>718.0</ele><time>2026-05-03T07:16:25.006Z</time></trkpt><trkpt lat="42.3523417" lon="13.4137477"><ele>719.0</ele><time>2026-05-03T07:16:26.005Z</time></trkpt><trkpt lat="42.3523851" lon="13.413863"><ele>720.0</ele><time>2026-05-03T07:16:27.006Z</time></trkpt><trkpt lat="42.3524243" lon="13.4140002"><ele>720.0</ele><time>2026-05-03T07:16:28.006Z</time></trkpt><trkpt lat="42.352451" lon="13.4141486"><ele>720.0</ele><time>2026-05-03T07:16:29.006Z</time></trkpt><trkpt lat="42.3524598" lon="13.4143143"><ele>720.0</ele><time>2026-05-03T07:16:30.006Z</time></trkpt><trkpt lat="42.3524518" lon="13.4144919"><ele>720.0</ele><time>2026-05-03T07:16:31.006Z</time></trkpt><trkpt lat="42.3524337" lon="13.4146675"><ele>720.25</ele><time>2026-05-03T07:16:32.006Z</time></trkpt><trkpt lat="42.3523989" lon="13.4148468"><ele>720.5</ele><time>2026-05-03T07:16:33.006Z</time></trkpt><trkpt lat="42.3523494" lon="13.4150311"><ele>720.75</ele><time>2026-05-03T07:16:34.006Z</time></trkpt><trkpt lat="42.3522852" lon="13.4152165"><ele>721.0</ele><time>2026-05-03T07:16:35.005Z</time></trkpt><trkpt lat="42.3522018" lon="13.4154089"><ele>722.0</ele><time>2026-05-03T07:16:36.006Z</time></trkpt><trkpt lat="42.3520971" lon="13.4155983"><ele>723.0</ele><time>2026-05-03T07:16:37.005Z</time></trkpt><trkpt lat="42.3519896" lon="13.4157776"><ele>724.0</ele><time>2026-05-03T07:16:38.005Z</time></trkpt><trkpt lat="42.351891" lon="13.4159517"><ele>724.0</ele><time>2026-05-03T07:16:39.005Z</time></trkpt><trkpt lat="42.3518088" lon="13.4161495"><ele>724.0</ele><time>2026-05-03T07:16:40.005Z</time></trkpt><trkpt lat="42.3517478" lon="13.4163573"><ele>724.0</ele><time>2026-05-03T07:16:41.006Z</time></trkpt><trkpt lat="42.3517052" lon="13.4165652"><ele>725.0</ele><time>2026-05-03T07:16:42.006Z</time></trkpt><trkpt lat="42.3516762" lon="13.416777"><ele>726.0</ele><time>2026-05-03T07:16:43.005Z</time></trkpt><trkpt lat="42.3516638" lon="13.4169815"><ele>727.0</ele><time>2026-05-03T07:16:44.005Z</time></trkpt><trkpt lat="42.3516545" lon="13.4171814"><ele>727.75</ele><time>2026-05-03T07:16:45.006Z</time></trkpt><trkpt lat="42.3516439" lon="13.4173757"><ele>728.5</ele><time>2026-05-03T07:16:46.006Z</time></trkpt><trkpt lat="42.351639" lon="13.4175648"><ele>729.25</ele><time>2026-05-03T07:16:47.006Z</time></trkpt><trkpt lat="42.3516323" lon="13.4177496"><ele>730.0</ele><time>2026-05-03T07:16:48.005Z</time></trkpt><trkpt lat="42.3516321" lon="13.4179337"><ele>730.0</ele><time>2026-05-03T07:16:49.006Z</time></trkpt><trkpt lat="42.3516571" lon="13.4181171"><ele>730.0</ele><time>2026-05-03T07:16:50.006Z</time></trkpt><trkpt lat="42.3517033" lon="13.4182915"><ele>730.0</ele><time>2026-05-03T07:16:51.006Z</time></trkpt><trkpt lat="42.3517768" lon="13.4184605"><ele>730.0</ele><time>2026-05-03T07:16:52.005Z</time></trkpt><trkpt lat="42.3518552" lon="13.4185946"><ele>730.0</ele><time>2026-05-03T07:16:53.006Z</time></trkpt><trkpt lat="42.3519243" lon="13.4187275"><ele>730.0</ele><time>2026-05-03T07:16:54.005Z</time></trkpt><trkpt lat="42.3519645" lon="13.418859"><ele>730.0</ele><time>2026-05-03T07:16:55.006Z</time></trkpt><trkpt lat="42.3520114" lon="13.418984"><ele>730.0</ele><time>2026-05-03T07:16:56.005Z</time></trkpt><trkpt lat="42.3520689" lon="13.4190859"><ele>730.0</ele><time>2026-05-03T07:16:57.006Z</time></trkpt><trkpt lat="42.3521313" lon="13.419173"><ele>730.2</ele><time>2026-05-03T07:16:58.005Z</time></trkpt><trkpt lat="42.3521737" lon="13.4192536"><ele>730.4</ele><time>2026-05-03T07:16:59.005Z</time></trkpt><trkpt lat="42.3522269" lon="13.4193939"><ele>730.5999999999999</ele><time>2026-05-03T07:17:01.006Z</time></trkpt><trkpt lat="42.3522901" lon="13.4195354"><ele>730.8</ele><time>2026-05-03T07:17:03.005Z</time></trkpt><trkpt lat="42.352327" lon="13.4196115"><ele>731.0</ele><time>2026-05-03T07:17:04.006Z</time></trkpt><trkpt lat="42.3523702" lon="13.419689"><ele>732.5</ele><time>2026-05-03T07:17:05.006Z</time></trkpt><trkpt lat="42.3524163" lon="13.4197572"><ele>734.0</ele><time>2026-05-03T07:17:06.006Z</time></trkpt><trkpt lat="42.3524861" lon="13.4197893"><ele>735.5</ele><time>2026-05-03T07:17:08.005Z</time></trkpt><trkpt lat="42.3524826" lon="13.4196964"><ele>737.0</ele><time>2026-05-03T07:17:11.005Z</time></trkpt><trkpt lat="42.3523977" lon="13.4196164"><ele>738.5</ele><time>2026-05-03T07:17:13.006Z</time></trkpt><trkpt lat="42.3523559" lon="13.4195454"><ele>740.0</ele><time>2026-05-03T07:17:14.006Z</time></trkpt><trkpt lat="42.3523168" lon="13.4194655"><ele>740.1666666666666</ele><time>2026-05-03T07:17:15.005Z</time></trkpt><trkpt lat="42.3522942" lon="13.4193659"><ele>740.3333333333333</ele><time>2026-05-03T07:17:16.006Z</time></trkpt><trkpt lat="42.3522817" lon="13.4192598"><ele>740.5</ele><time>2026-05-03T07:17:17.005Z</time></trkpt><trkpt lat="42.3522733" lon="13.4191517"><ele>740.6666666666666</ele><time>2026-05-03T07:17:18.006Z</time></trkpt><trkpt lat="42.3522645" lon="13.4190423"><ele>740.8333333333334</ele><time>2026-05-03T07:17:19.006Z</time></trkpt><trkpt lat="42.3522454" lon="13.4189407"><ele>741.0</ele><time>2026-05-03T07:17:20.005Z</time></trkpt><trkpt lat="42.3522042" lon="13.4188559"><ele>739.3333333333334</ele><time>2026-05-03T07:17:21.006Z</time></trkpt><trkpt lat="42.3521487" lon="13.4188121"><ele>737.6666666666666</ele><time>2026-05-03T07:17:22.006Z</time></trkpt><trkpt lat="42.3520852" lon="13.4188138"><ele>736.0</ele><time>2026-05-03T07:17:23.005Z</time></trkpt><trkpt lat="42.3519781" lon="13.4189148"><ele>734.3333333333333</ele><time>2026-05-03T07:17:25.005Z</time></trkpt><trkpt lat="42.3519321" lon="13.4189909"><ele>732.6666666666666</ele><time>2026-05-03T07:17:26.005Z</time></trkpt><trkpt lat="42.351894" lon="13.4190781"><ele>731.0</ele><time>2026-05-03T07:17:27.006Z</time></trkpt><trkpt lat="42.3518706" lon="13.4191708"><ele>731.0</ele><time>2026-05-03T07:17:28.006Z</time></trkpt><trkpt lat="42.3518754" lon="13.4192712"><ele>731.0</ele><time>2026-05-03T07:17:29.005Z</time></trkpt><trkpt lat="42.3519053" lon="13.4193686"><ele>731.0</ele><time>2026-05-03T07:17:30.006Z</time></trkpt><trkpt lat="42.3519554" lon="13.4194683"><ele>731.0</ele><time>2026-05-03T07:17:31.005Z</time></trkpt><trkpt lat="42.3520175" lon="13.4195581"><ele>731.0</ele><time>2026-05-03T07:17:32.005Z</time></trkpt><trkpt lat="42.3520768" lon="13.4196586"><ele>731.0</ele><time>2026-05-03T07:17:33.005Z</time></trkpt><trkpt lat="42.3521343" lon="13.4197706"><ele>731.4</ele><time>2026-05-03T07:17:34.006Z</time></trkpt><trkpt lat="42.3521688" lon="13.419886"><ele>731.8</ele><time>2026-05-03T07:17:35.005Z</time></trkpt><trkpt lat="42.3521805" lon="13.4200138"><ele>732.1999999999999</ele><time>2026-05-03T07:17:36.006Z</time></trkpt><trkpt lat="42.3521749" lon="13.4201382"><ele>732.5999999999999</ele><time>2026-05-03T07:17:37.006Z</time></trkpt><trkpt lat="42.3521698" lon="13.4202635"><ele>733.0</ele><time>2026-05-03T07:17:38.006Z</time></trkpt><trkpt lat="42.3521697" lon="13.4203902"><ele>733.8</ele><time>2026-05-03T07:17:39.005Z</time></trkpt><trkpt lat="42.3521778" lon="13.4205191"><ele>734.5999999999999</ele><time>2026-05-03T07:17:40.006Z</time></trkpt><trkpt lat="42.3521999" lon="13.4206448"><ele>735.4000000000001</ele><time>2026-05-03T07:17:41.006Z</time></trkpt><trkpt lat="42.3522274" lon="13.4207707"><ele>736.2</ele><time>2026-05-03T07:17:42.006Z</time></trkpt><trkpt lat="42.352256" lon="13.4208971"><ele>737.0</ele><time>2026-05-03T07:17:43.005Z</time></trkpt><trkpt lat="42.3522899" lon="13.4210322"><ele>737.8</ele><time>2026-05-03T07:17:44.006Z</time></trkpt><trkpt lat="42.3523254" lon="13.4211691"><ele>738.6</ele><time>2026-05-03T07:17:45.006Z</time></trkpt><trkpt lat="42.3523606" lon="13.4213063"><ele>739.4</ele><time>2026-05-03T07:17:46.006Z</time></trkpt><trkpt lat="42.3523937" lon="13.421442"><ele>740.1999999999999</ele><time>2026-05-03T07:17:47.005Z</time></trkpt><trkpt lat="42.3524061" lon="13.4215826"><ele>741.0</ele><time>2026-05-03T07:17:48.006Z</time></trkpt><trkpt lat="42.3523963" lon="13.4217095"><ele>741.5999999999999</ele><time>2026-05-03T07:17:49.006Z</time></trkpt><trkpt lat="42.3523743" lon="13.4218269"><ele>742.2</ele><time>2026-05-03T07:17:50.006Z</time></trkpt><trkpt lat="42.3523561" lon="13.4219395"><ele>742.8</ele><time>2026-05-03T07:17:51.005Z</time></trkpt><trkpt lat="42.3523388" lon="13.4220586"><ele>743.4000000000001</ele><time>2026-05-03T07:17:52.006Z</time></trkpt><trkpt lat="42.3523409" lon="13.4222007"><ele>744.0</ele><time>2026-05-03T07:17:53.006Z</time></trkpt><trkpt lat="42.3523469" lon="13.4223606"><ele>742.25</ele><time>2026-05-03T07:17:54.005Z</time></trkpt><trkpt lat="42.3523542" lon="13.4225344"><ele>740.5</ele><time>2026-05-03T07:17:55.006Z</time></trkpt><trkpt lat="42.3523699" lon="13.4227112"><ele>738.75</ele><time>2026-05-03T07:17:56.006Z</time></trkpt><trkpt lat="42.3523831" lon="13.4228899"><ele>737.0</ele><time>2026-05-03T07:17:57.005Z</time></trkpt><trkpt lat="42.3524005" lon="13.4230729"><ele>734.5</ele><time>2026-05-03T07:17:58.006Z</time></trkpt><trkpt lat="42.3524172" lon="13.4232558"><ele>732.0</ele><time>2026-05-03T07:17:59.006Z</time></trkpt><trkpt lat="42.3524289" lon="13.4234429"><ele>729.5</ele><time>2026-05-03T07:18:00.005Z</time></trkpt><trkpt lat="42.3524197" lon="13.4236315"><ele>727.0</ele><time>2026-05-03T07:18:01.005Z</time></trkpt><trkpt lat="42.3523995" lon="13.4238114"><ele>725.5</ele><time>2026-05-03T07:18:02.006Z</time></trkpt><trkpt lat="42.3523658" lon="13.4239857"><ele>724.0</ele><time>2026-05-03T07:18:03.006Z</time></trkpt><trkpt lat="42.3523312" lon="13.424159"><ele>722.5</ele><time>2026-05-03T07:18:04.006Z</time></trkpt><trkpt lat="42.3522911" lon="13.4243243"><ele>721.0</ele><time>2026-05-03T07:18:05.006Z</time></trkpt><trkpt lat="42.3522537" lon="13.4244876"><ele>720.5</ele><time>2026-05-03T07:18:06.005Z</time></trkpt><trkpt lat="42.3522206" lon="13.4246503"><ele>720.0</ele><time>2026-05-03T07:18:07.005Z</time></trkpt><trkpt lat="42.3521893" lon="13.4248116"><ele>719.5</ele><time>2026-05-03T07:18:08.006Z</time></trkpt><trkpt lat="42.3521504" lon="13.4249652"><ele>719.0</ele><time>2026-05-03T07:18:09.005Z</time></trkpt><trkpt lat="42.3520961" lon="13.4251089"><ele>718.75</ele><time>2026-05-03T07:18:10.006Z</time></trkpt><trkpt lat="42.3520231" lon="13.4252477"><ele>718.5</ele><time>2026-05-03T07:18:11.006Z</time></trkpt><trkpt lat="42.3519519" lon="13.4253849"><ele>718.25</ele><time>2026-05-03T07:18:12.006Z</time></trkpt><trkpt lat="42.3518796" lon="13.4255251"><ele>718.0</ele><time>2026-05-03T07:18:13.005Z</time></trkpt><trkpt lat="42.3518034" lon="13.4256738"><ele>718.0</ele><time>2026-05-03T07:18:14.006Z</time></trkpt><trkpt lat="42.3517331" lon="13.4258366"><ele>718.0</ele><time>2026-05-03T07:18:15.006Z</time></trkpt><trkpt lat="42.3516614" lon="13.4260024"><ele>718.0</ele><time>2026-05-03T07:18:16.006Z</time></trkpt><trkpt lat="42.3515886" lon="13.4261698"><ele>718.0</ele><time>2026-05-03T07:18:17.006Z</time></trkpt><trkpt lat="42.3515249" lon="13.4263394"><ele>720.75</ele><time>2026-05-03T07:18:18.005Z</time></trkpt><trkpt lat="42.3514727" lon="13.4265181"><ele>723.5</ele><time>2026-05-03T07:18:19.005Z</time></trkpt><trkpt lat="42.35143" lon="13.4266962"><ele>726.25</ele><time>2026-05-03T07:18:20.006Z</time></trkpt><trkpt lat="42.3513939" lon="13.4268755"><ele>729.0</ele><time>2026-05-03T07:18:21.006Z</time></trkpt><trkpt lat="42.351367" lon="13.4270517"><ele>730.2</ele><time>2026-05-03T07:18:22.005Z</time></trkpt><trkpt lat="42.3513465" lon="13.4272072"><ele>731.4000000000001</ele><time>2026-05-03T07:18:23.006Z</time></trkpt><trkpt lat="42.351331" lon="13.4273439"><ele>732.6</ele><time>2026-05-03T07:18:24.005Z</time></trkpt><trkpt lat="42.3513049" lon="13.4274553"><ele>733.8</ele><time>2026-05-03T07:18:25.006Z</time></trkpt><trkpt lat="42.3512647" lon="13.4275588"><ele>735.0</ele><time>2026-05-03T07:18:26.006Z</time></trkpt><trkpt lat="42.351218" lon="13.4276629"><ele>735.0</ele><time>2026-05-03T07:18:27.006Z</time></trkpt><trkpt lat="42.3511795" lon="13.4277443"><ele>735.0</ele><time>2026-05-03T07:18:28.005Z</time></trkpt><trkpt lat="42.3511052" lon="13.4278342"><ele>735.0</ele><time>2026-05-03T07:18:30.006Z</time></trkpt><trkpt lat="42.3510374" lon="13.4279146"><ele>735.0</ele><time>2026-05-03T07:18:32.006Z</time></trkpt><trkpt lat="42.3510058" lon="13.4280683"><ele>735.0</ele><time>2026-05-03T07:18:34.005Z</time></trkpt><trkpt lat="42.3510345" lon="13.4281606"><ele>734.2</ele><time>2026-05-03T07:18:36.005Z</time></trkpt><trkpt lat="42.3511197" lon="13.4282069"><ele>733.4</ele><time>2026-05-03T07:18:38.005Z</time></trkpt><trkpt lat="42.3512155" lon="13.4282907"><ele>732.5999999999999</ele><time>2026-05-03T07:18:40.005Z</time></trkpt><trkpt lat="42.3512801" lon="13.428331"><ele>731.8</ele><time>2026-05-03T07:18:41.006Z</time></trkpt><trkpt lat="42.3513688" lon="13.4283673"><ele>731.0</ele><time>2026-05-03T07:18:42.006Z</time></trkpt><trkpt lat="42.3514544" lon="13.4283884"><ele>732.6666666666666</ele><time>2026-05-03T07:18:43.005Z</time></trkpt><trkpt lat="42.3515312" lon="13.4284223"><ele>734.3333333333333</ele><time>2026-05-03T07:18:44.005Z</time></trkpt><trkpt lat="42.3516053" lon="13.4284804"><ele>736.0</ele><time>2026-05-03T07:18:45.005Z</time></trkpt><trkpt lat="42.3516641" lon="13.4285663"><ele>737.6666666666666</ele><time>2026-05-03T07:18:46.005Z</time></trkpt><trkpt lat="42.3517162" lon="13.4286588"><ele>739.3333333333334</ele><time>2026-05-03T07:18:47.005Z</time></trkpt><trkpt lat="42.3517685" lon="13.4287609"><ele>741.0</ele><time>2026-05-03T07:18:48.006Z</time></trkpt><trkpt lat="42.3518226" lon="13.4288526"><ele>741.1999999999999</ele><time>2026-05-03T07:18:49.006Z</time></trkpt><trkpt lat="42.3518768" lon="13.428998"><ele>741.4</ele><time>2026-05-03T07:18:51.005Z</time></trkpt><trkpt lat="42.3518665" lon="13.4291619"><ele>741.6</ele><time>2026-05-03T07:18:53.005Z</time></trkpt><trkpt lat="42.3518332" lon="13.4292646"><ele>741.8</ele><time>2026-05-03T07:18:54.006Z</time></trkpt><trkpt lat="42.3517898" lon="13.4293665"><ele>742.0</ele><time>2026-05-03T07:18:55.006Z</time></trkpt><trkpt lat="42.3517388" lon="13.4294854"><ele>742.0</ele><time>2026-05-03T07:18:56.006Z</time></trkpt><trkpt lat="42.3516848" lon="13.4296108"><ele>742.0</ele><time>2026-05-03T07:18:57.006Z</time></trkpt><trkpt lat="42.3516253" lon="13.4297339"><ele>742.0</ele><time>2026-05-03T07:18:58.005Z</time></trkpt><trkpt lat="42.3515678" lon="13.4298526"><ele>742.0</ele><time>2026-05-03T07:18:59.006Z</time></trkpt><trkpt lat="42.3515091" lon="13.4299557"><ele>742.0</ele><time>2026-05-03T07:19:00.006Z</time></trkpt><trkpt lat="42.3514504" lon="13.4300336"><ele>742.2857142857143</ele><time>2026-05-03T07:19:01.006Z</time></trkpt><trkpt lat="42.3513899" lon="13.4300769"><ele>742.5714285714286</ele><time>2026-05-03T07:19:02.006Z</time></trkpt><trkpt lat="42.3513198" lon="13.4300845"><ele>742.8571428571429</ele><time>2026-05-03T07:19:03.006Z</time></trkpt><trkpt lat="42.3512505" lon="13.4300689"><ele>743.1428571428571</ele><time>2026-05-03T07:19:04.005Z</time></trkpt><trkpt lat="42.3511757" lon="13.4300409"><ele>743.4285714285714</ele><time>2026-05-03T07:19:05.006Z</time></trkpt><trkpt lat="42.3511067" lon="13.430014"><ele>743.7142857142858</ele><time>2026-05-03T07:19:06.006Z</time></trkpt><trkpt lat="42.3510308" lon="13.4299904"><ele>744.0</ele><time>2026-05-03T07:19:07.006Z</time></trkpt><trkpt lat="42.3509514" lon="13.4299704"><ele>742.0</ele><time>2026-05-03T07:19:08.006Z</time></trkpt><trkpt lat="42.3508665" lon="13.4299618"><ele>740.0</ele><time>2026-05-03T07:19:09.005Z</time></trkpt><trkpt lat="42.3507837" lon="13.4299739"><ele>738.0</ele><time>2026-05-03T07:19:10.005Z</time></trkpt><trkpt lat="42.3507145" lon="13.4299976"><ele>736.0</ele><time>2026-05-03T07:19:11.005Z</time></trkpt><trkpt lat="42.35062" lon="13.4300665"><ele>734.0</ele><time>2026-05-03T07:19:13.005Z</time></trkpt><trkpt lat="42.3505549" lon="13.4301125"><ele>732.0</ele><time>2026-05-03T07:19:14.005Z</time></trkpt><trkpt lat="42.3504903" lon="13.4301874"><ele>731.2</ele><time>2026-05-03T07:19:15.006Z</time></trkpt><trkpt lat="42.3504347" lon="13.4302805"><ele>730.4000000000001</ele><time>2026-05-03T07:19:16.006Z</time></trkpt><trkpt lat="42.3503751" lon="13.4303811"><ele>729.5999999999999</ele><time>2026-05-03T07:19:17.005Z</time></trkpt><trkpt lat="42.3503101" lon="13.4305008"><ele>728.8</ele><time>2026-05-03T07:19:18.005Z</time></trkpt><trkpt lat="42.3502366" lon="13.4306175"><ele>728.0</ele><time>2026-05-03T07:19:19.006Z</time></trkpt><trkpt lat="42.3501639" lon="13.4307207"><ele>728.0</ele><time>2026-05-03T07:19:20.005Z</time></trkpt><trkpt lat="42.3500961" lon="13.4308192"><ele>728.0</ele><time>2026-05-03T07:19:21.006Z</time></trkpt><trkpt lat="42.3500172" lon="13.4309036"><ele>728.0</ele><time>2026-05-03T07:19:22.006Z</time></trkpt><trkpt lat="42.3499266" lon="13.4309725"><ele>728.0</ele><time>2026-05-03T07:19:23.006Z</time></trkpt><trkpt lat="42.349829" lon="13.4310207"><ele>728.0</ele><time>2026-05-03T07:19:24.005Z</time></trkpt><trkpt lat="42.3497279" lon="13.4310536"><ele>726.5999999999999</ele><time>2026-05-03T07:19:25.005Z</time></trkpt><trkpt lat="42.3496212" lon="13.431056"><ele>725.1999999999999</ele><time>2026-05-03T07:19:26.006Z</time></trkpt><trkpt lat="42.3495125" lon="13.4310521"><ele>723.8</ele><time>2026-05-03T07:19:27.005Z</time></trkpt><trkpt lat="42.3494181" lon="13.4310279"><ele>722.4</ele><time>2026-05-03T07:19:28.005Z</time></trkpt><trkpt lat="42.3493241" lon="13.4310135"><ele>721.0</ele><time>2026-05-03T07:19:29.005Z</time></trkpt><trkpt lat="42.3492363" lon="13.4310362"><ele>721.0</ele><time>2026-05-03T07:19:30.006Z</time></trkpt><trkpt lat="42.349147" lon="13.4310694"><ele>721.0</ele><time>2026-05-03T07:19:31.005Z</time></trkpt><trkpt lat="42.3490507" lon="13.4311092"><ele>721.0</ele><time>2026-05-03T07:19:32.005Z</time></trkpt><trkpt lat="42.3489555" lon="13.431156"><ele>721.0</ele><time>2026-05-03T07:19:33.006Z</time></trkpt><trkpt lat="42.3488609" lon="13.4312036"><ele>721.0</ele><time>2026-05-03T07:19:34.005Z</time></trkpt><trkpt lat="42.3487616" lon="13.4312642"><ele>721.0</ele><time>2026-05-03T07:19:35.006Z</time></trkpt><trkpt lat="42.3486678" lon="13.4313351"><ele>721.0</ele><time>2026-05-03T07:19:36.006Z</time></trkpt><trkpt lat="42.3485697" lon="13.4314111"><ele>721.0</ele><time>2026-05-03T07:19:37.006Z</time></trkpt><trkpt lat="42.3484662" lon="13.4314734"><ele>721.0</ele><time>2026-05-03T07:19:38.005Z</time></trkpt><trkpt lat="42.3483618" lon="13.4315299"><ele>721.0</ele><time>2026-05-03T07:19:39.005Z</time></trkpt><trkpt lat="42.3482562" lon="13.4315793"><ele>721.0</ele><time>2026-05-03T07:19:40.005Z</time></trkpt><trkpt lat="42.3481518" lon="13.4316154"><ele>721.0</ele><time>2026-05-03T07:19:41.005Z</time></trkpt><trkpt lat="42.3480518" lon="13.4316516"><ele>721.0</ele><time>2026-05-03T07:19:42.005Z</time></trkpt><trkpt lat="42.3479572" lon="13.4317002"><ele>721.0</ele><time>2026-05-03T07:19:43.006Z</time></trkpt><trkpt lat="42.3478619" lon="13.4317527"><ele>721.0</ele><time>2026-05-03T07:19:44.006Z</time></trkpt><trkpt lat="42.3477649" lon="13.4318118"><ele>719.0</ele><time>2026-05-03T07:19:45.006Z</time></trkpt><trkpt lat="42.3476733" lon="13.4318676"><ele>717.0</ele><time>2026-05-03T07:19:46.005Z</time></trkpt><trkpt lat="42.3475752" lon="13.4319235"><ele>715.0</ele><time>2026-05-03T07:19:47.006Z</time></trkpt><trkpt lat="42.3474781" lon="13.4319824"><ele>713.0</ele><time>2026-05-03T07:19:48.007Z</time></trkpt><trkpt lat="42.3473763" lon="13.4320422"><ele>711.0</ele><time>2026-05-03T07:19:49.007Z</time></trkpt><trkpt lat="42.3472679" lon="13.4321049"><ele>711.5</ele><time>2026-05-03T07:19:50.007Z</time></trkpt><trkpt lat="42.3471594" lon="13.432158"><ele>712.0</ele><time>2026-05-03T07:19:51.007Z</time></trkpt><trkpt lat="42.3470477" lon="13.432214"><ele>712.5</ele><time>2026-05-03T07:19:52.006Z</time></trkpt><trkpt lat="42.3469391" lon="13.4322756"><ele>713.0</ele><time>2026-05-03T07:19:53.006Z</time></trkpt><trkpt lat="42.3468382" lon="13.4323463"><ele>713.0</ele><time>2026-05-03T07:19:54.006Z</time></trkpt><trkpt lat="42.3467385" lon="13.4324229"><ele>713.0</ele><time>2026-05-03T07:19:55.007Z</time></trkpt><trkpt lat="42.3466454" lon="13.4325067"><ele>713.0</ele><time>2026-05-03T07:19:56.007Z</time></trkpt><trkpt lat="42.3465518" lon="13.4326008"><ele>713.0</ele><time>2026-05-03T07:19:57.006Z</time></trkpt><trkpt lat="42.3464559" lon="13.4326988"><ele>713.25</ele><time>2026-05-03T07:19:58.006Z</time></trkpt><trkpt lat="42.3463602" lon="13.4327947"><ele>713.5</ele><time>2026-05-03T07:19:59.006Z</time></trkpt><trkpt lat="42.3462605" lon="13.4328772"><ele>713.75</ele><time>2026-05-03T07:20:00.006Z</time></trkpt><trkpt lat="42.3461559" lon="13.4329492"><ele>714.0</ele><time>2026-05-03T07:20:01.007Z</time></trkpt><trkpt lat="42.3460526" lon="13.4330182"><ele>714.0</ele><time>2026-05-03T07:20:02.006Z</time></trkpt><trkpt lat="42.3459618" lon="13.4330795"><ele>714.0</ele><time>2026-05-03T07:20:03.007Z</time></trkpt><trkpt lat="42.3458775" lon="13.4331307"><ele>714.0</ele><time>2026-05-03T07:20:04.006Z</time></trkpt><trkpt lat="42.345801" lon="13.4331851"><ele>714.0</ele><time>2026-05-03T07:20:05.006Z</time></trkpt><trkpt lat="42.345735" lon="13.4332432"><ele>714.0</ele><time>2026-05-03T07:20:06.007Z</time></trkpt><trkpt lat="42.3456733" lon="13.4333002"><ele>714.0</ele><time>2026-05-03T07:20:07.007Z</time></trkpt><trkpt lat="42.3456109" lon="13.433358"><ele>714.0</ele><time>2026-05-03T07:20:08.007Z</time></trkpt><trkpt lat="42.3455482" lon="13.4334042"><ele>714.0</ele><time>2026-05-03T07:20:09.007Z</time></trkpt><trkpt lat="42.3454785" lon="13.4334515"><ele>714.0</ele><time>2026-05-03T07:20:10.006Z</time></trkpt><trkpt lat="42.3454094" lon="13.4335072"><ele>714.0</ele><time>2026-05-03T07:20:11.007Z</time></trkpt><trkpt lat="42.3453383" lon="13.4335721"><ele>714.0</ele><time>2026-05-03T07:20:12.006Z</time></trkpt><trkpt lat="42.345272" lon="13.4336505"><ele>714.0</ele><time>2026-05-03T07:20:13.006Z</time></trkpt><trkpt lat="42.3452133" lon="13.4337366"><ele>712.6</ele><time>2026-05-03T07:20:14.006Z</time></trkpt><trkpt lat="42.3451551" lon="13.4338338"><ele>711.2</ele><time>2026-05-03T07:20:15.007Z</time></trkpt><trkpt lat="42.3451019" lon="13.4339364"><ele>709.8000000000001</ele><time>2026-05-03T07:20:16.006Z</time></trkpt><trkpt lat="42.3450482" lon="13.4340381"><ele>708.4000000000001</ele><time>2026-05-03T07:20:17.007Z</time></trkpt><trkpt lat="42.3449976" lon="13.434147"><ele>707.0</ele><time>2026-05-03T07:20:18.006Z</time></trkpt><trkpt lat="42.3449456" lon="13.4342605"><ele>707.0</ele><time>2026-05-03T07:20:19.006Z</time></trkpt><trkpt lat="42.3448922" lon="13.4343795"><ele>707.0</ele><time>2026-05-03T07:20:20.006Z</time></trkpt><trkpt lat="42.3448409" lon="13.4344947"><ele>707.0</ele><time>2026-05-03T07:20:21.006Z</time></trkpt><trkpt lat="42.344788" lon="13.4346142"><ele>707.0</ele><time>2026-05-03T07:20:22.007Z</time></trkpt><trkpt lat="42.344736" lon="13.4347341"><ele>707.0</ele><time>2026-05-03T07:20:23.006Z</time></trkpt><trkpt lat="42.34469" lon="13.4348506"><ele>705.3333333333333</ele><time>2026-05-03T07:20:24.006Z</time></trkpt><trkpt lat="42.3446526" lon="13.4349577"><ele>703.6666666666666</ele><time>2026-05-03T07:20:25.007Z</time></trkpt><trkpt lat="42.3446116" lon="13.4350627"><ele>702.0</ele><time>2026-05-03T07:20:26.007Z</time></trkpt><trkpt lat="42.3445731" lon="13.4351643"><ele>700.3333333333334</ele><time>2026-05-03T07:20:27.006Z</time></trkpt><trkpt lat="42.3445332" lon="13.4352654"><ele>698.6666666666667</ele><time>2026-05-03T07:20:28.007Z</time></trkpt><trkpt lat="42.344492" lon="13.4353734"><ele>697.0</ele><time>2026-05-03T07:20:29.007Z</time></trkpt><trkpt lat="42.3444516" lon="13.4354792"><ele>697.0</ele><time>2026-05-03T07:20:30.007Z</time></trkpt><trkpt lat="42.3444135" lon="13.4355805"><ele>697.0</ele><time>2026-05-03T07:20:31.006Z</time></trkpt><trkpt lat="42.3443679" lon="13.4356738"><ele>697.0</ele><time>2026-05-03T07:20:32.007Z</time></trkpt><trkpt lat="42.3443121" lon="13.435766"><ele>697.0</ele><time>2026-05-03T07:20:33.006Z</time></trkpt><trkpt lat="42.3442811" lon="13.4358591"><ele>697.0</ele><time>2026-05-03T07:20:34.006Z</time></trkpt><trkpt lat="42.3442695" lon="13.4359489"><ele>697.0</ele><time>2026-05-03T07:20:35.007Z</time></trkpt><trkpt lat="42.3442701" lon="13.4360528"><ele>697.0</ele><time>2026-05-03T07:20:36.006Z</time></trkpt><trkpt lat="42.3442647" lon="13.4361627"><ele>697.0</ele><time>2026-05-03T07:20:37.007Z</time></trkpt><trkpt lat="42.3442534" lon="13.4362855"><ele>697.0</ele><time>2026-05-03T07:20:38.006Z</time></trkpt><trkpt lat="42.3442418" lon="13.4364194"><ele>697.0</ele><time>2026-05-03T07:20:39.007Z</time></trkpt><trkpt lat="42.344231" lon="13.4365468"><ele>697.0</ele><time>2026-05-03T07:20:40.006Z</time></trkpt><trkpt lat="42.3442261" lon="13.4366745"><ele>696.8333333333334</ele><time>2026-05-03T07:20:41.006Z</time></trkpt><trkpt lat="42.3442164" lon="13.4367889"><ele>696.6666666666667</ele><time>2026-05-03T07:20:42.007Z</time></trkpt><trkpt lat="42.3441967" lon="13.4368966"><ele>696.5</ele><time>2026-05-03T07:20:43.007Z</time></trkpt><trkpt lat="42.3441648" lon="13.4369948"><ele>696.3333333333334</ele><time>2026-05-03T07:20:44.006Z</time></trkpt><trkpt lat="42.3441341" lon="13.4370799"><ele>696.1666666666666</ele><time>2026-05-03T07:20:45.007Z</time></trkpt><trkpt lat="42.3440932" lon="13.437213"><ele>696.0</ele><time>2026-05-03T07:20:47.006Z</time></trkpt><trkpt lat="42.3440694" lon="13.4373358"><ele>697.4</ele><time>2026-05-03T07:20:49.006Z</time></trkpt><trkpt lat="42.3440652" lon="13.4374694"><ele>698.8</ele><time>2026-05-03T07:20:51.006Z</time></trkpt><trkpt lat="42.3440497" lon="13.4376077"><ele>700.1999999999999</ele><time>2026-05-03T07:20:53.006Z</time></trkpt><trkpt lat="42.3440185" lon="13.4377603"><ele>701.5999999999999</ele><time>2026-05-03T07:20:55.007Z</time></trkpt><trkpt lat="42.3440063" lon="13.4378513"><ele>703.0</ele><time>2026-05-03T07:20:56.007Z</time></trkpt><trkpt lat="42.3439929" lon="13.4379492"><ele>704.3333333333334</ele><time>2026-05-03T07:20:57.006Z</time></trkpt><trkpt lat="42.343984" lon="13.4380508"><ele>705.6666666666667</ele><time>2026-05-03T07:20:58.006Z</time></trkpt><trkpt lat="42.3439701" lon="13.4381518"><ele>707.0</ele><time>2026-05-03T07:20:59.007Z</time></trkpt><trkpt lat="42.3439506" lon="13.4382572"><ele>708.3333333333334</ele><time>2026-05-03T07:21:00.007Z</time></trkpt><trkpt lat="42.3439365" lon="13.4383718"><ele>709.6666666666666</ele><time>2026-05-03T07:21:01.006Z</time></trkpt><trkpt lat="42.3439187" lon="13.4384803"><ele>711.0</ele><time>2026-05-03T07:21:02.007Z</time></trkpt><trkpt lat="42.3438964" lon="13.4385868"><ele>708.5</ele><time>2026-05-03T07:21:03.006Z</time></trkpt><trkpt lat="42.3438664" lon="13.4386824"><ele>706.0</ele><time>2026-05-03T07:21:04.006Z</time></trkpt><trkpt lat="42.3438246" lon="13.4387764"><ele>703.5</ele><time>2026-05-03T07:21:05.007Z</time></trkpt><trkpt lat="42.3437726" lon="13.4388705"><ele>701.0</ele><time>2026-05-03T07:21:06.007Z</time></trkpt><trkpt lat="42.343717" lon="13.4389489"><ele>698.5</ele><time>2026-05-03T07:21:07.006Z</time></trkpt><trkpt lat="42.3436502" lon="13.4390017"><ele>696.0</ele><time>2026-05-03T07:21:08.007Z</time></trkpt><trkpt lat="42.3435793" lon="13.4390507"><ele>696.0</ele><time>2026-05-03T07:21:09.007Z</time></trkpt><trkpt lat="42.3435102" lon="13.43911"><ele>696.0</ele><time>2026-05-03T07:21:10.007Z</time></trkpt><trkpt lat="42.3434443" lon="13.4391839"><ele>696.0</ele><time>2026-05-03T07:21:11.006Z</time></trkpt><trkpt lat="42.3433826" lon="13.4392737"><ele>696.0</ele><time>2026-05-03T07:21:12.007Z</time></trkpt><trkpt lat="42.3433197" lon="13.4393651"><ele>696.0</ele><time>2026-05-03T07:21:13.007Z</time></trkpt><trkpt lat="42.3432545" lon="13.4394366"><ele>696.0</ele><time>2026-05-03T07:21:14.007Z</time></trkpt><trkpt lat="42.3431967" lon="13.439503"><ele>696.0</ele><time>2026-05-03T07:21:15.007Z</time></trkpt><trkpt lat="42.3431473" lon="13.4395804"><ele>696.0</ele><time>2026-05-03T07:21:16.006Z</time></trkpt><trkpt lat="42.3431019" lon="13.4396531"><ele>696.0</ele><time>2026-05-03T07:21:17.007Z</time></trkpt><trkpt lat="42.3430561" lon="13.4397171"><ele>696.0</ele><time>2026-05-03T07:21:18.007Z</time></trkpt><trkpt lat="42.3430022" lon="13.4397766"><ele>696.0</ele><time>2026-05-03T07:21:19.007Z</time></trkpt><trkpt lat="42.3429457" lon="13.4398231"><ele>696.0</ele><time>2026-05-03T07:21:20.007Z</time></trkpt><trkpt lat="42.3428212" lon="13.4398806"><ele>695.7142857142857</ele><time>2026-05-03T07:21:22.007Z</time></trkpt><trkpt lat="42.3427572" lon="13.4398937"><ele>695.4285714285714</ele><time>2026-05-03T07:21:23.006Z</time></trkpt><trkpt lat="42.342692" lon="13.4399069"><ele>695.1428571428571</ele><time>2026-05-03T07:21:24.007Z</time></trkpt><trkpt lat="42.3426211" lon="13.4398995"><ele>694.8571428571429</ele><time>2026-05-03T07:21:25.007Z</time></trkpt><trkpt lat="42.3425483" lon="13.4398863"><ele>694.5714285714286</ele><time>2026-05-03T07:21:26.006Z</time></trkpt><trkpt lat="42.3424725" lon="13.4398806"><ele>694.2857142857143</ele><time>2026-05-03T07:21:27.007Z</time></trkpt><trkpt lat="42.3424008" lon="13.439886"><ele>694.0</ele><time>2026-05-03T07:21:28.007Z</time></trkpt><trkpt lat="42.342332" lon="13.4399072"><ele>694.0</ele><time>2026-05-03T07:21:29.006Z</time></trkpt><trkpt lat="42.342268" lon="13.4399465"><ele>694.0</ele><time>2026-05-03T07:21:30.007Z</time></trkpt><trkpt lat="42.3421985" lon="13.4399934"><ele>694.0</ele><time>2026-05-03T07:21:31.007Z</time></trkpt><trkpt lat="42.3421353" lon="13.440035"><ele>694.0</ele><time>2026-05-03T07:21:32.007Z</time></trkpt><trkpt lat="42.3420728" lon="13.4400615"><ele>694.0</ele><time>2026-05-03T07:21:33.007Z</time></trkpt><trkpt lat="42.3420061" lon="13.4400824"><ele>694.0</ele><time>2026-05-03T07:21:34.006Z</time></trkpt><trkpt lat="42.3419369" lon="13.4401035"><ele>694.0</ele><time>2026-05-03T07:21:35.006Z</time></trkpt><trkpt lat="42.3418684" lon="13.4401289"><ele>692.3333333333334</ele><time>2026-05-03T07:21:36.007Z</time></trkpt><trkpt lat="42.341804" lon="13.4401558"><ele>690.6666666666667</ele><time>2026-05-03T07:21:37.007Z</time></trkpt><trkpt lat="42.3417419" lon="13.440184"><ele>689.0</ele><time>2026-05-03T07:21:38.007Z</time></trkpt><trkpt lat="42.3416451" lon="13.4402144"><ele>687.3333333333334</ele><time>2026-05-03T07:21:40.006Z</time></trkpt><trkpt lat="42.3415342" lon="13.4402211"><ele>685.6666666666666</ele><time>2026-05-03T07:21:42.006Z</time></trkpt><trkpt lat="42.3414696" lon="13.4402237"><ele>684.0</ele><time>2026-05-03T07:21:43.007Z</time></trkpt><trkpt lat="42.3413454" lon="13.4402098"><ele>682.1666666666666</ele><time>2026-05-03T07:21:45.006Z</time></trkpt><trkpt lat="42.3412821" lon="13.4401936"><ele>680.3333333333334</ele><time>2026-05-03T07:21:46.006Z</time></trkpt><trkpt lat="42.3411791" lon="13.4402078"><ele>678.5</ele><time>2026-05-03T07:21:48.006Z</time></trkpt><trkpt lat="42.3411004" lon="13.4402467"><ele>676.6666666666667</ele><time>2026-05-03T07:21:50.007Z</time></trkpt><trkpt lat="42.3410271" lon="13.4402688"><ele>674.8333333333334</ele><time>2026-05-03T07:21:52.006Z</time></trkpt><trkpt lat="42.3409352" lon="13.4403123"><ele>673.0</ele><time>2026-05-03T07:21:54.007Z</time></trkpt><trkpt lat="42.3408454" lon="13.4403569"><ele>673.0</ele><time>2026-05-03T07:21:56.006Z</time></trkpt><trkpt lat="42.3407463" lon="13.4404128"><ele>673.0</ele><time>2026-05-03T07:21:58.007Z</time></trkpt><trkpt lat="42.3406421" lon="13.4404667"><ele>673.0</ele><time>2026-05-03T07:22:00.006Z</time></trkpt><trkpt lat="42.3405311" lon="13.4405211"><ele>673.0</ele><time>2026-05-03T07:22:02.007Z</time></trkpt><trkpt lat="42.3404317" lon="13.4405992"><ele>671.0</ele><time>2026-05-03T07:22:04.007Z</time></trkpt><trkpt lat="42.3403656" lon="13.4406892"><ele>669.0</ele><time>2026-05-03T07:22:06.006Z</time></trkpt><trkpt lat="42.340328" lon="13.4408292"><ele>667.0</ele><time>2026-05-03T07:22:08.006Z</time></trkpt><trkpt lat="42.3402994" lon="13.4409153"><ele>665.0</ele><time>2026-05-03T07:22:09.007Z</time></trkpt><trkpt lat="42.3402764" lon="13.4410064"><ele>663.0</ele><time>2026-05-03T07:22:10.007Z</time></trkpt><trkpt lat="42.3402594" lon="13.4410995"><ele>661.0</ele><time>2026-05-03T07:22:11.007Z</time></trkpt><trkpt lat="42.3402467" lon="13.4411975"><ele>660.1666666666667</ele><time>2026-05-03T07:22:12.007Z</time></trkpt><trkpt lat="42.3402393" lon="13.4413011"><ele>659.3333333333334</ele><time>2026-05-03T07:22:13.006Z</time></trkpt><trkpt lat="42.3402199" lon="13.4414056"><ele>658.5</ele><time>2026-05-03T07:22:14.006Z</time></trkpt><trkpt lat="42.3401933" lon="13.4415081"><ele>657.6666666666666</ele><time>2026-05-03T07:22:15.007Z</time></trkpt><trkpt lat="42.3401744" lon="13.441605"><ele>656.8333333333333</ele><time>2026-05-03T07:22:16.006Z</time></trkpt><trkpt lat="42.3401517" lon="13.4417073"><ele>656.0</ele><time>2026-05-03T07:22:17.006Z</time></trkpt><trkpt lat="42.3401216" lon="13.4418138"><ele>656.0</ele><time>2026-05-03T07:22:18.006Z</time></trkpt><trkpt lat="42.3400891" lon="13.4419243"><ele>656.0</ele><time>2026-05-03T07:22:19.006Z</time></trkpt><trkpt lat="42.3400578" lon="13.4420366"><ele>656.0</ele><time>2026-05-03T07:22:20.007Z</time></trkpt><trkpt lat="42.3400193" lon="13.4421529"><ele>656.0</ele><time>2026-05-03T07:22:21.007Z</time></trkpt><trkpt lat="42.339988" lon="13.4422683"><ele>656.0</ele><time>2026-05-03T07:22:22.006Z</time></trkpt><trkpt lat="42.3399607" lon="13.4423801"><ele>656.0</ele><time>2026-05-03T07:22:23.006Z</time></trkpt><trkpt lat="42.3399359" lon="13.4424954"><ele>655.5</ele><time>2026-05-03T07:22:24.007Z</time></trkpt><trkpt lat="42.3399079" lon="13.4426202"><ele>655.0</ele><time>2026-05-03T07:22:25.006Z</time></trkpt><trkpt lat="42.3398841" lon="13.442734"><ele>654.5</ele><time>2026-05-03T07:22:26.007Z</time></trkpt><trkpt lat="42.339863" lon="13.4428433"><ele>654.0</ele><time>2026-05-03T07:22:27.007Z</time></trkpt><trkpt lat="42.3398388" lon="13.4429439"><ele>653.5</ele><time>2026-05-03T07:22:28.006Z</time></trkpt><trkpt lat="42.339808" lon="13.4430442"><ele>653.0</ele><time>2026-05-03T07:22:29.007Z</time></trkpt><trkpt lat="42.3397774" lon="13.4431388"><ele>653.0</ele><time>2026-05-03T07:22:30.007Z</time></trkpt><trkpt lat="42.3397403" lon="13.4432341"><ele>653.0</ele><time>2026-05-03T07:22:31.007Z</time></trkpt><trkpt lat="42.3396937" lon="13.443323"><ele>653.0</ele><time>2026-05-03T07:22:32.007Z</time></trkpt><trkpt lat="42.3396352" lon="13.4433954"><ele>653.0</ele><time>2026-05-03T07:22:33.007Z</time></trkpt><trkpt lat="42.3395709" lon="13.4434742"><ele>653.0</ele><time>2026-05-03T07:22:34.006Z</time></trkpt><trkpt lat="42.3394927" lon="13.4435503"><ele>653.0</ele><time>2026-05-03T07:22:35.007Z</time></trkpt><trkpt lat="42.3394129" lon="13.4436363"><ele>653.0</ele><time>2026-05-03T07:22:36.007Z</time></trkpt><trkpt lat="42.339328" lon="13.4437317"><ele>653.0</ele><time>2026-05-03T07:22:37.006Z</time></trkpt><trkpt lat="42.3392464" lon="13.4438285"><ele>653.0</ele><time>2026-05-03T07:22:38.007Z</time></trkpt><trkpt lat="42.3391707" lon="13.4439125"><ele>653.0</ele><time>2026-05-03T07:22:39.006Z</time></trkpt><trkpt lat="42.339117" lon="13.4439983"><ele>653.0</ele><time>2026-05-03T07:22:40.006Z</time></trkpt><trkpt lat="42.3390708" lon="13.4440933"><ele>653.0</ele><time>2026-05-03T07:22:41.007Z</time></trkpt><trkpt lat="42.3390287" lon="13.444182"><ele>653.0</ele><time>2026-05-03T07:22:42.006Z</time></trkpt><trkpt lat="42.3390033" lon="13.4442643"><ele>653.0</ele><time>2026-05-03T07:22:43.006Z</time></trkpt><trkpt lat="42.3389972" lon="13.4443532"><ele>653.0</ele><time>2026-05-03T07:22:44.006Z</time></trkpt><trkpt lat="42.3389946" lon="13.4444622"><ele>653.0</ele><time>2026-05-03T07:22:45.006Z</time></trkpt><trkpt lat="42.3390049" lon="13.4445838"><ele>653.0</ele><time>2026-05-03T07:22:46.006Z</time></trkpt><trkpt lat="42.3390123" lon="13.4447091"><ele>652.75</ele><time>2026-05-03T07:22:47.007Z</time></trkpt><trkpt lat="42.3390069" lon="13.4448521"><ele>652.5</ele><time>2026-05-03T07:22:48.007Z</time></trkpt><trkpt lat="42.3389836" lon="13.4450083"><ele>652.25</ele><time>2026-05-03T07:22:49.006Z</time></trkpt><trkpt lat="42.3389557" lon="13.4451712"><ele>652.0</ele><time>2026-05-03T07:22:50.006Z</time></trkpt><trkpt lat="42.3389301" lon="13.4453219"><ele>652.0</ele><time>2026-05-03T07:22:51.006Z</time></trkpt><trkpt lat="42.3389122" lon="13.4454563"><ele>652.0</ele><time>2026-05-03T07:22:52.006Z</time></trkpt><trkpt lat="42.3388869" lon="13.445577"><ele>652.0</ele><time>2026-05-03T07:22:53.006Z</time></trkpt><trkpt lat="42.3388669" lon="13.4456918"><ele>652.0</ele><time>2026-05-03T07:22:54.007Z</time></trkpt><trkpt lat="42.3388334" lon="13.4458056"><ele>652.0</ele><time>2026-05-03T07:22:55.007Z</time></trkpt><trkpt lat="42.338789" lon="13.445922"><ele>649.6</ele><time>2026-05-03T07:22:56.006Z</time></trkpt><trkpt lat="42.3387383" lon="13.4460404"><ele>647.2</ele><time>2026-05-03T07:22:57.006Z</time></trkpt><trkpt lat="42.3386831" lon="13.4461673"><ele>644.8</ele><time>2026-05-03T07:22:58.006Z</time></trkpt><trkpt lat="42.338629" lon="13.4462942"><ele>642.4</ele><time>2026-05-03T07:22:59.006Z</time></trkpt><trkpt lat="42.3385775" lon="13.4464427"><ele>640.0</ele><time>2026-05-03T07:23:00.007Z</time></trkpt><trkpt lat="42.3385259" lon="13.4466012"><ele>640.0</ele><time>2026-05-03T07:23:01.007Z</time></trkpt><trkpt lat="42.3384759" lon="13.4467688"><ele>640.0</ele><time>2026-05-03T07:23:02.006Z</time></trkpt><trkpt lat="42.3384291" lon="13.4469401"><ele>640.0</ele><time>2026-05-03T07:23:03.006Z</time></trkpt><trkpt lat="42.3383773" lon="13.4471168"><ele>640.0</ele><time>2026-05-03T07:23:04.006Z</time></trkpt><trkpt lat="42.3383277" lon="13.4473011"><ele>640.25</ele><time>2026-05-03T07:23:05.007Z</time></trkpt><trkpt lat="42.3382812" lon="13.4474809"><ele>640.5</ele><time>2026-05-03T07:23:06.006Z</time></trkpt><trkpt lat="42.3382316" lon="13.4476535"><ele>640.75</ele><time>2026-05-03T07:23:07.007Z</time></trkpt><trkpt lat="42.3381808" lon="13.4478214"><ele>641.0</ele><time>2026-05-03T07:23:08.007Z</time></trkpt><trkpt lat="42.3381352" lon="13.4479887"><ele>641.0</ele><time>2026-05-03T07:23:09.006Z</time></trkpt><trkpt lat="42.338088" lon="13.4481553"><ele>641.0</ele><time>2026-05-03T07:23:10.006Z</time></trkpt><trkpt lat="42.3380428" lon="13.4483122"><ele>641.0</ele><time>2026-05-03T07:23:11.007Z</time></trkpt><trkpt lat="42.3379942" lon="13.4484657"><ele>641.0</ele><time>2026-05-03T07:23:12.007Z</time></trkpt><trkpt lat="42.3379501" lon="13.4486271"><ele>637.0</ele><time>2026-05-03T07:23:13.006Z</time></trkpt><trkpt lat="42.3379086" lon="13.4487864"><ele>633.0</ele><time>2026-05-03T07:23:14.006Z</time></trkpt><trkpt lat="42.3378649" lon="13.4489407"><ele>629.0</ele><time>2026-05-03T07:23:15.007Z</time></trkpt><trkpt lat="42.3378251" lon="13.4490868"><ele>625.0</ele><time>2026-05-03T07:23:16.007Z</time></trkpt><trkpt lat="42.3377934" lon="13.4492336"><ele>625.0</ele><time>2026-05-03T07:23:17.006Z</time></trkpt><trkpt lat="42.3377685" lon="13.4493807"><ele>625.0</ele><time>2026-05-03T07:23:18.007Z</time></trkpt><trkpt lat="42.3377559" lon="13.449524"><ele>625.0</ele><time>2026-05-03T07:23:19.007Z</time></trkpt><trkpt lat="42.3377534" lon="13.4496687"><ele>625.0</ele><time>2026-05-03T07:23:20.007Z</time></trkpt><trkpt lat="42.3377662" lon="13.4498157"><ele>625.0</ele><time>2026-05-03T07:23:21.007Z</time></trkpt><trkpt lat="42.3377878" lon="13.4499629"><ele>624.8</ele><time>2026-05-03T07:23:22.007Z</time></trkpt><trkpt lat="42.3378105" lon="13.4501135"><ele>624.6</ele><time>2026-05-03T07:23:23.007Z</time></trkpt><trkpt lat="42.3378227" lon="13.4502701"><ele>624.4</ele><time>2026-05-03T07:23:24.007Z</time></trkpt><trkpt lat="42.3378353" lon="13.4504202"><ele>624.2</ele><time>2026-05-03T07:23:25.006Z</time></trkpt><trkpt lat="42.3378427" lon="13.4505623"><ele>624.0</ele><time>2026-05-03T07:23:26.007Z</time></trkpt><trkpt lat="42.3378524" lon="13.4507134"><ele>623.5</ele><time>2026-05-03T07:23:27.006Z</time></trkpt><trkpt lat="42.3378563" lon="13.4508642"><ele>623.0</ele><time>2026-05-03T07:23:28.006Z</time></trkpt><trkpt lat="42.3378602" lon="13.4510231"><ele>622.5</ele><time>2026-05-03T07:23:29.006Z</time></trkpt><trkpt lat="42.3378641" lon="13.4511734"><ele>622.0</ele><time>2026-05-03T07:23:30.006Z</time></trkpt><trkpt lat="42.3378754" lon="13.4513232"><ele>621.6</ele><time>2026-05-03T07:23:31.006Z</time></trkpt><trkpt lat="42.3378854" lon="13.4514708"><ele>621.2</ele><time>2026-05-03T07:23:32.006Z</time></trkpt><trkpt lat="42.3378973" lon="13.451612"><ele>620.8</ele><time>2026-05-03T07:23:33.006Z</time></trkpt><trkpt lat="42.3379072" lon="13.4517489"><ele>620.4</ele><time>2026-05-03T07:23:34.007Z</time></trkpt><trkpt lat="42.3379129" lon="13.4518807"><ele>620.0</ele><time>2026-05-03T07:23:35.006Z</time></trkpt><trkpt lat="42.3379174" lon="13.4520114"><ele>619.2</ele><time>2026-05-03T07:23:36.006Z</time></trkpt><trkpt lat="42.3379222" lon="13.4521407"><ele>618.4</ele><time>2026-05-03T07:23:37.007Z</time></trkpt><trkpt lat="42.3379265" lon="13.4522682"><ele>617.6</ele><time>2026-05-03T07:23:38.007Z</time></trkpt><trkpt lat="42.3379341" lon="13.4523983"><ele>616.8</ele><time>2026-05-03T07:23:39.006Z</time></trkpt><trkpt lat="42.3379439" lon="13.4525204"><ele>616.0</ele><time>2026-05-03T07:23:40.007Z</time></trkpt><trkpt lat="42.3379526" lon="13.4526246"><ele>616.0</ele><time>2026-05-03T07:23:41.007Z</time></trkpt><trkpt lat="42.3379599" lon="13.4527183"><ele>616.0</ele><time>2026-05-03T07:23:42.126Z</time></trkpt><trkpt lat="42.3379549" lon="13.4528094"><ele>616.0</ele><time>2026-05-03T07:23:43.517Z</time></trkpt><trkpt lat="42.3380057" lon="13.4529145"><ele>616.0</ele><time>2026-05-03T07:23:46.007Z</time></trkpt><trkpt lat="42.3380628" lon="13.4530092"><ele>616.0</ele><time>2026-05-03T07:23:48.007Z</time></trkpt><trkpt lat="42.3381094" lon="13.4531456"><ele>616.0</ele><time>2026-05-03T07:23:50.007Z</time></trkpt><trkpt lat="42.3381361" lon="13.4532815"><ele>618.2</ele><time>2026-05-03T07:23:52.007Z</time></trkpt><trkpt lat="42.3381618" lon="13.4534122"><ele>620.4000000000001</ele><time>2026-05-03T07:23:54.007Z</time></trkpt><trkpt lat="42.3381761" lon="13.4535539"><ele>622.6</ele><time>2026-05-03T07:23:56.007Z</time></trkpt><trkpt lat="42.3381926" lon="13.4536402"><ele>624.8000000000001</ele><time>2026-05-03T07:23:58.035Z</time></trkpt><trkpt lat="42.3382485" lon="13.4537765"><ele>627.0</ele><time>2026-05-03T07:24:00.006Z</time></trkpt><trkpt lat="42.3382854" lon="13.4538986"><ele>627.0</ele><time>2026-05-03T07:24:02.007Z</time></trkpt><trkpt lat="42.3382939" lon="13.4540093"><ele>627.0</ele><time>2026-05-03T07:24:04.007Z</time></trkpt><trkpt lat="42.3383108" lon="13.4541217"><ele>627.0</ele><time>2026-05-03T07:24:08.006Z</time></trkpt><trkpt lat="42.3383264" lon="13.4542108"><ele>627.0</ele><time>2026-05-03T07:24:13.007Z</time></trkpt><trkpt lat="42.3383265" lon="13.4543836"><ele>627.0</ele><time>2026-05-03T07:24:16.007Z</time></trkpt><trkpt lat="42.3383134" lon="13.4545029"><ele>627.0</ele><time>2026-05-03T07:24:18.007Z</time></trkpt><trkpt lat="42.3382891" lon="13.4545917"><ele>627.0</ele><time>2026-05-03T07:24:20.975Z</time></trkpt><trkpt lat="42.3382072" lon="13.4546682"><ele>627.0</ele><time>2026-05-03T07:24:23.006Z</time></trkpt><trkpt lat="42.3381433" lon="13.4546507"><ele>627.0</ele><time>2026-05-03T07:24:25.006Z</time></trkpt><trkpt lat="42.3381095" lon="13.4547782"><ele>627.0</ele><time>2026-05-03T07:24:31.006Z</time></trkpt><trkpt lat="42.3381186" lon="13.4548722"><ele>627.0</ele><time>2026-05-03T07:24:32.007Z</time></trkpt><trkpt lat="42.3381352" lon="13.4549744"><ele>625.8000000000001</ele><time>2026-05-03T07:24:33.007Z</time></trkpt><trkpt lat="42.3381545" lon="13.4550851"><ele>624.6</ele><time>2026-05-03T07:24:34.006Z</time></trkpt><trkpt lat="42.3381827" lon="13.4551895"><ele>623.4000000000001</ele><time>2026-05-03T07:24:35.007Z</time></trkpt><trkpt lat="42.3382056" lon="13.4552713"><ele>622.2</ele><time>2026-05-03T07:24:36.006Z</time></trkpt><trkpt lat="42.3382298" lon="13.4554156"><ele>621.0</ele><time>2026-05-03T07:24:38.006Z</time></trkpt><trkpt lat="42.3381627" lon="13.4555341"><ele>617.8</ele><time>2026-05-03T07:24:40.006Z</time></trkpt><trkpt lat="42.3380646" lon="13.4555005"><ele>614.6</ele><time>2026-05-03T07:24:42.007Z</time></trkpt><trkpt lat="42.3380009" lon="13.4555081"><ele>611.4</ele><time>2026-05-03T07:24:45.006Z</time></trkpt><trkpt lat="42.3380367" lon="13.4555894"><ele>608.2</ele><time>2026-05-03T07:24:49.007Z</time></trkpt><trkpt lat="42.3381706" lon="13.4555941"><ele>605.0</ele><time>2026-05-03T07:24:51.006Z</time></trkpt><trkpt lat="42.3382618" lon="13.4556285"><ele>605.0</ele><time>2026-05-03T07:24:52.006Z</time></trkpt><trkpt lat="42.3383531" lon="13.4556685"><ele>605.0</ele><time>2026-05-03T07:24:53.007Z</time></trkpt><trkpt lat="42.3384499" lon="13.4557023"><ele>605.0</ele><time>2026-05-03T07:24:54.006Z</time></trkpt><trkpt lat="42.3385587" lon="13.4557319"><ele>605.0</ele><time>2026-05-03T07:24:55.007Z</time></trkpt><trkpt lat="42.3386666" lon="13.4557692"><ele>605.0</ele><time>2026-05-03T07:24:56.006Z</time></trkpt><trkpt lat="42.3387635" lon="13.455812"><ele>605.0</ele><time>2026-05-03T07:24:57.006Z</time></trkpt><trkpt lat="42.3388493" lon="13.455852"><ele>605.0</ele><time>2026-05-03T07:24:58.007Z</time></trkpt><trkpt lat="42.3389341" lon="13.4558903"><ele>605.0</ele><time>2026-05-03T07:24:59.006Z</time></trkpt><trkpt lat="42.3390174" lon="13.4559229"><ele>605.0</ele><time>2026-05-03T07:25:00.006Z</time></trkpt><trkpt lat="42.3391028" lon="13.4559572"><ele>605.0</ele><time>2026-05-03T07:25:01.007Z</time></trkpt><trkpt lat="42.3391916" lon="13.4559778"><ele>605.0</ele><time>2026-05-03T07:25:02.006Z</time></trkpt><trkpt lat="42.3392814" lon="13.455991"><ele>605.8333333333333</ele><time>2026-05-03T07:25:03.006Z</time></trkpt><trkpt lat="42.3393667" lon="13.455992"><ele>606.6666666666666</ele><time>2026-05-03T07:25:04.007Z</time></trkpt><trkpt lat="42.3394462" lon="13.4559902"><ele>607.5</ele><time>2026-05-03T07:25:05.007Z</time></trkpt><trkpt lat="42.3395231" lon="13.4559982"><ele>608.3333333333334</ele><time>2026-05-03T07:25:06.007Z</time></trkpt><trkpt lat="42.3395877" lon="13.4560304"><ele>609.1666666666667</ele><time>2026-05-03T07:25:07.007Z</time></trkpt><trkpt lat="42.3396394" lon="13.4560909"><ele>610.0</ele><time>2026-05-03T07:25:08.007Z</time></trkpt><trkpt lat="42.3396807" lon="13.4561708"><ele>608.2</ele><time>2026-05-03T07:25:09.007Z</time></trkpt><trkpt lat="42.3397123" lon="13.4562889"><ele>606.4</ele><time>2026-05-03T07:25:11.006Z</time></trkpt><trkpt lat="42.3397337" lon="13.4564159"><ele>604.6</ele><time>2026-05-03T07:27:11.007Z</time></trkpt><trkpt lat="42.3397397" lon="13.4565236"><ele>602.8</ele><time>2026-05-03T07:27:13.006Z</time></trkpt><trkpt lat="42.3397737" lon="13.4566393"><ele>601.0</ele><time>2026-05-03T07:27:45.007Z</time></trkpt><trkpt lat="42.3398853" lon="13.4567068"><ele>601.0</ele><time>2026-05-03T07:27:47.006Z</time></trkpt><trkpt lat="42.3399638" lon="13.4567234"><ele>601.0</ele><time>2026-05-03T07:27:48.007Z</time></trkpt><trkpt lat="42.3400444" lon="13.4567444"><ele>601.0</ele><time>2026-05-03T07:27:49.007Z</time></trkpt><trkpt lat="42.3401291" lon="13.4567714"><ele>601.0</ele><time>2026-05-03T07:27:50.007Z</time></trkpt><trkpt lat="42.3402141" lon="13.4568022"><ele>601.0</ele><time>2026-05-03T07:27:51.006Z</time></trkpt><trkpt lat="42.3403063" lon="13.4568385"><ele>601.0</ele><time>2026-05-03T07:27:52.007Z</time></trkpt><trkpt lat="42.3403984" lon="13.4568689"><ele>601.0</ele><time>2026-05-03T07:27:53.007Z</time></trkpt><trkpt lat="42.3404906" lon="13.4568983"><ele>601.0</ele><time>2026-05-03T07:27:54.007Z</time></trkpt><trkpt lat="42.3405857" lon="13.4569345"><ele>601.0</ele><time>2026-05-03T07:27:55.006Z</time></trkpt><trkpt lat="42.3406805" lon="13.4569714"><ele>601.0</ele><time>2026-05-03T07:27:56.006Z</time></trkpt><trkpt lat="42.3407743" lon="13.4570119"><ele>601.0</ele><time>2026-05-03T07:27:57.007Z</time></trkpt><trkpt lat="42.3408683" lon="13.4570486"><ele>600.8</ele><time>2026-05-03T07:27:58.006Z</time></trkpt><trkpt lat="42.3409626" lon="13.4570952"><ele>600.6</ele><time>2026-05-03T07:27:59.007Z</time></trkpt><trkpt lat="42.3410544" lon="13.4571427"><ele>600.4</ele><time>2026-05-03T07:28:00.006Z</time></trkpt><trkpt lat="42.3411516" lon="13.4571981"><ele>600.2</ele><time>2026-05-03T07:28:01.007Z</time></trkpt><trkpt lat="42.3412473" lon="13.4572702"><ele>600.0</ele><time>2026-05-03T07:28:02.007Z</time></trkpt><trkpt lat="42.3413483" lon="13.457363"><ele>600.25</ele><time>2026-05-03T07:28:03.006Z</time></trkpt><trkpt lat="42.3414425" lon="13.4574697"><ele>600.5</ele><time>2026-05-03T07:28:04.007Z</time></trkpt><trkpt lat="42.3415334" lon="13.4575875"><ele>600.75</ele><time>2026-05-03T07:28:05.006Z</time></trkpt><trkpt lat="42.3416264" lon="13.4577133"><ele>601.0</ele><time>2026-05-03T07:28:06.006Z</time></trkpt><trkpt lat="42.3417229" lon="13.457845"><ele>601.0</ele><time>2026-05-03T07:28:07.006Z</time></trkpt><trkpt lat="42.3418227" lon="13.4579759"><ele>601.0</ele><time>2026-05-03T07:28:08.007Z</time></trkpt><trkpt lat="42.3419249" lon="13.4581127"><ele>601.0</ele><time>2026-05-03T07:28:09.006Z</time></trkpt><trkpt lat="42.3420276" lon="13.458249"><ele>601.0</ele><time>2026-05-03T07:28:10.007Z</time></trkpt><trkpt lat="42.3421317" lon="13.4583785"><ele>601.0</ele><time>2026-05-03T07:28:11.006Z</time></trkpt><trkpt lat="42.342235" lon="13.4585095"><ele>601.0</ele><time>2026-05-03T07:28:12.007Z</time></trkpt><trkpt lat="42.3423335" lon="13.4586441"><ele>601.0</ele><time>2026-05-03T07:28:13.006Z</time></trkpt><trkpt lat="42.342435" lon="13.4587763"><ele>601.0</ele><time>2026-05-03T07:28:14.007Z</time></trkpt><trkpt lat="42.3425294" lon="13.458899"><ele>601.0</ele><time>2026-05-03T07:28:15.007Z</time></trkpt><trkpt lat="42.3426263" lon="13.4590261"><ele>601.0</ele><time>2026-05-03T07:28:16.007Z</time></trkpt><trkpt lat="42.342727" lon="13.4591536"><ele>601.0</ele><time>2026-05-03T07:28:17.006Z</time></trkpt><trkpt lat="42.3428319" lon="13.4592843"><ele>601.0</ele><time>2026-05-03T07:28:18.006Z</time></trkpt><trkpt lat="42.3429332" lon="13.4594267"><ele>601.0</ele><time>2026-05-03T07:28:19.007Z</time></trkpt><trkpt lat="42.3430382" lon="13.4595732"><ele>601.0</ele><time>2026-05-03T07:28:20.007Z</time></trkpt><trkpt lat="42.3431487" lon="13.4597216"><ele>601.0</ele><time>2026-05-03T07:28:21.007Z</time></trkpt><trkpt lat="42.343257" lon="13.4598667"><ele>602.6666666666667</ele><time>2026-05-03T07:28:22.006Z</time></trkpt><trkpt lat="42.3433625" lon="13.4600047"><ele>604.3333333333334</ele><time>2026-05-03T07:28:23.007Z</time></trkpt><trkpt lat="42.3434702" lon="13.4601484"><ele>606.0</ele><time>2026-05-03T07:28:24.006Z</time></trkpt><trkpt lat="42.3435767" lon="13.4602945"><ele>606.0</ele><time>2026-05-03T07:28:25.006Z</time></trkpt><trkpt lat="42.3436917" lon="13.4604472"><ele>606.0</ele><time>2026-05-03T07:28:26.007Z</time></trkpt><trkpt lat="42.343809" lon="13.4606017"><ele>606.0</ele><time>2026-05-03T07:28:27.007Z</time></trkpt><trkpt lat="42.3439293" lon="13.4607534"><ele>607.3333333333334</ele><time>2026-05-03T07:28:28.006Z</time></trkpt><trkpt lat="42.3440582" lon="13.4609105"><ele>608.6666666666667</ele><time>2026-05-03T07:28:29.007Z</time></trkpt><trkpt lat="42.3441861" lon="13.4610672"><ele>610.0</ele><time>2026-05-03T07:28:30.006Z</time></trkpt><trkpt lat="42.3443123" lon="13.4612165"><ele>609.6666666666667</ele><time>2026-05-03T07:28:31.007Z</time></trkpt><trkpt lat="42.3444312" lon="13.4613585"><ele>609.3333333333334</ele><time>2026-05-03T07:28:32.007Z</time></trkpt><trkpt lat="42.344545" lon="13.4614958"><ele>609.0</ele><time>2026-05-03T07:28:33.006Z</time></trkpt><trkpt lat="42.3446548" lon="13.4616235"><ele>609.75</ele><time>2026-05-03T07:28:34.006Z</time></trkpt><trkpt lat="42.3447645" lon="13.4617496"><ele>610.5</ele><time>2026-05-03T07:28:35.007Z</time></trkpt><trkpt lat="42.3448709" lon="13.4618691"><ele>611.25</ele><time>2026-05-03T07:28:36.006Z</time></trkpt><trkpt lat="42.3449833" lon="13.4619777"><ele>612.0</ele><time>2026-05-03T07:28:37.006Z</time></trkpt><trkpt lat="42.3450985" lon="13.4620767"><ele>612.0</ele><time>2026-05-03T07:28:38.006Z</time></trkpt><trkpt lat="42.3452051" lon="13.4621771"><ele>612.0</ele><time>2026-05-03T07:28:39.007Z</time></trkpt><trkpt lat="42.3453069" lon="13.4622738"><ele>612.0</ele><time>2026-05-03T07:28:40.007Z</time></trkpt><trkpt lat="42.345396" lon="13.4623546"><ele>612.0</ele><time>2026-05-03T07:28:41.007Z</time></trkpt><trkpt lat="42.3454559" lon="13.4624087"><ele>612.0</ele><time>2026-05-03T07:28:42.007Z</time></trkpt><trkpt lat="42.3455447" lon="13.4624769"><ele>612.0</ele><time>2026-05-03T07:28:44.007Z</time></trkpt><trkpt lat="42.345605" lon="13.4625328"><ele>612.0</ele><time>2026-05-03T07:28:46.007Z</time></trkpt><trkpt lat="42.3456114" lon="13.4626468"><ele>612.0</ele><time>2026-05-03T07:28:49.007Z</time></trkpt><trkpt lat="42.3455386" lon="13.4627234"><ele>612.0</ele><time>2026-05-03T07:28:51.006Z</time></trkpt><trkpt lat="42.3454475" lon="13.4628421"><ele>612.0</ele><time>2026-05-03T07:28:53.006Z</time></trkpt><trkpt lat="42.3453945" lon="13.4629093"><ele>612.0</ele><time>2026-05-03T07:28:54.007Z</time></trkpt><trkpt lat="42.3453418" lon="13.4629798"><ele>612.4</ele><time>2026-05-03T07:28:55.007Z</time></trkpt><trkpt lat="42.3452906" lon="13.4630672"><ele>612.8000000000001</ele><time>2026-05-03T07:28:56.007Z</time></trkpt><trkpt lat="42.3452374" lon="13.4631614"><ele>613.2</ele><time>2026-05-03T07:28:57.006Z</time></trkpt><trkpt lat="42.3451852" lon="13.4632539"><ele>613.6</ele><time>2026-05-03T07:28:58.007Z</time></trkpt><trkpt lat="42.3451306" lon="13.4633539"><ele>614.0</ele><time>2026-05-03T07:28:59.007Z</time></trkpt><trkpt lat="42.3450709" lon="13.4634678"><ele>614.0</ele><time>2026-05-03T07:29:00.006Z</time></trkpt><trkpt lat="42.3450238" lon="13.4635822"><ele>614.0</ele><time>2026-05-03T07:29:01.006Z</time></trkpt><trkpt lat="42.3449832" lon="13.4636952"><ele>614.0</ele><time>2026-05-03T07:29:02.007Z</time></trkpt><trkpt lat="42.344949" lon="13.463823"><ele>614.0</ele><time>2026-05-03T07:29:03.007Z</time></trkpt><trkpt lat="42.3449185" lon="13.4639563"><ele>614.0</ele><time>2026-05-03T07:29:04.007Z</time></trkpt><trkpt lat="42.3448907" lon="13.4640885"><ele>614.2</ele><time>2026-05-03T07:29:05.006Z</time></trkpt><trkpt lat="42.3448678" lon="13.464218"><ele>614.4</ele><time>2026-05-03T07:29:06.007Z</time></trkpt><trkpt lat="42.3448425" lon="13.4643458"><ele>614.6</ele><time>2026-05-03T07:29:07.007Z</time></trkpt><trkpt lat="42.3448074" lon="13.4644725"><ele>614.8</ele><time>2026-05-03T07:29:08.007Z</time></trkpt><trkpt lat="42.3447726" lon="13.4646"><ele>615.0</ele><time>2026-05-03T07:29:09.007Z</time></trkpt><trkpt lat="42.3447479" lon="13.4647366"><ele>615.0</ele><time>2026-05-03T07:29:10.007Z</time></trkpt><trkpt lat="42.3447135" lon="13.4648716"><ele>615.0</ele><time>2026-05-03T07:29:11.007Z</time></trkpt><trkpt lat="42.3446798" lon="13.4650182"><ele>615.0</ele><time>2026-05-03T07:29:12.006Z</time></trkpt><trkpt lat="42.3446454" lon="13.4651594"><ele>615.0</ele><time>2026-05-03T07:29:13.007Z</time></trkpt><trkpt lat="42.344616" lon="13.4652949"><ele>615.0</ele><time>2026-05-03T07:29:14.006Z</time></trkpt><trkpt lat="42.3445732" lon="13.4654404"><ele>614.8</ele><time>2026-05-03T07:29:15.006Z</time></trkpt><trkpt lat="42.3445187" lon="13.4655834"><ele>614.6</ele><time>2026-05-03T07:29:16.006Z</time></trkpt><trkpt lat="42.3444689" lon="13.4657204"><ele>614.4</ele><time>2026-05-03T07:29:17.006Z</time></trkpt><trkpt lat="42.3444394" lon="13.4658266"><ele>614.2</ele><time>2026-05-03T07:29:18.007Z</time></trkpt><trkpt lat="42.3444061" lon="13.4659167"><ele>614.0</ele><time>2026-05-03T07:29:19.006Z</time></trkpt><trkpt lat="42.3443966" lon="13.4660336"><ele>614.0</ele><time>2026-05-03T07:29:21.006Z</time></trkpt><trkpt lat="42.3444395" lon="13.4661049"><ele>614.0</ele><time>2026-05-03T07:29:23.007Z</time></trkpt><trkpt lat="42.3445565" lon="13.4661677"><ele>614.0</ele><time>2026-05-03T07:29:25.007Z</time></trkpt><trkpt lat="42.3446499" lon="13.4661858"><ele>614.0</ele><time>2026-05-03T07:29:26.006Z</time></trkpt><trkpt lat="42.3447443" lon="13.466214"><ele>614.0</ele><time>2026-05-03T07:29:27.007Z</time></trkpt><trkpt lat="42.3448529" lon="13.4662495"><ele>614.25</ele><time>2026-05-03T07:29:28.006Z</time></trkpt><trkpt lat="42.3449807" lon="13.4662785"><ele>614.5</ele><time>2026-05-03T07:29:29.007Z</time></trkpt><trkpt lat="42.3451078" lon="13.4662877"><ele>614.75</ele><time>2026-05-03T07:29:30.006Z</time></trkpt><trkpt lat="42.3452353" lon="13.4662764"><ele>615.0</ele><time>2026-05-03T07:29:31.006Z</time></trkpt><trkpt lat="42.3453467" lon="13.4662736"><ele>615.0</ele><time>2026-05-03T07:29:32.007Z</time></trkpt><trkpt lat="42.3454487" lon="13.4662866"><ele>615.0</ele><time>2026-05-03T07:29:33.007Z</time></trkpt><trkpt lat="42.3455503" lon="13.4663421"><ele>615.0</ele><time>2026-05-03T07:29:34.007Z</time></trkpt><trkpt lat="42.3456653" lon="13.4663901"><ele>615.0</ele><time>2026-05-03T07:29:35.006Z</time></trkpt><trkpt lat="42.3457845" lon="13.4664557"><ele>616.0</ele><time>2026-05-03T07:29:36.007Z</time></trkpt><trkpt lat="42.3458993" lon="13.4665243"><ele>617.0</ele><time>2026-05-03T07:29:37.006Z</time></trkpt><trkpt lat="42.3460121" lon="13.4665979"><ele>618.0</ele><time>2026-05-03T07:29:38.007Z</time></trkpt><trkpt lat="42.3461237" lon="13.4666717"><ele>619.0</ele><time>2026-05-03T07:29:39.007Z</time></trkpt><trkpt lat="42.3462219" lon="13.4667446"><ele>619.0</ele><time>2026-05-03T07:29:40.006Z</time></trkpt><trkpt lat="42.3463123" lon="13.4668204"><ele>619.0</ele><time>2026-05-03T07:29:41.007Z</time></trkpt><trkpt lat="42.3463926" lon="13.4669126"><ele>619.0</ele><time>2026-05-03T07:29:42.006Z</time></trkpt><trkpt lat="42.3464742" lon="13.4670271"><ele>619.0</ele><time>2026-05-03T07:29:43.007Z</time></trkpt><trkpt lat="42.3465515" lon="13.4671565"><ele>619.4</ele><time>2026-05-03T07:29:44.006Z</time></trkpt><trkpt lat="42.3466288" lon="13.4672838"><ele>619.8</ele><time>2026-05-03T07:29:45.007Z</time></trkpt><trkpt lat="42.3467012" lon="13.4674062"><ele>620.2</ele><time>2026-05-03T07:29:46.006Z</time></trkpt><trkpt lat="42.3467737" lon="13.4675179"><ele>620.6</ele><time>2026-05-03T07:29:47.006Z</time></trkpt><trkpt lat="42.3468392" lon="13.4676179"><ele>621.0</ele><time>2026-05-03T07:29:48.007Z</time></trkpt><trkpt lat="42.3468978" lon="13.467713"><ele>621.0</ele><time>2026-05-03T07:29:49.007Z</time></trkpt><trkpt lat="42.3469564" lon="13.4677942"><ele>621.0</ele><time>2026-05-03T07:29:50.006Z</time></trkpt><trkpt lat="42.3470211" lon="13.4678455"><ele>621.0</ele><time>2026-05-03T07:29:51.007Z</time></trkpt><trkpt lat="42.3470999" lon="13.467861"><ele>621.0</ele><time>2026-05-03T07:29:52.008Z</time></trkpt><trkpt lat="42.3471876" lon="13.4678542"><ele>621.0</ele><time>2026-05-03T07:29:53.008Z</time></trkpt><trkpt lat="42.3472764" lon="13.4678319"><ele>621.0</ele><time>2026-05-03T07:29:54.008Z</time></trkpt><trkpt lat="42.3473716" lon="13.4678175"><ele>621.4</ele><time>2026-05-03T07:29:55.008Z</time></trkpt><trkpt lat="42.3474597" lon="13.4678156"><ele>621.8</ele><time>2026-05-03T07:29:56.007Z</time></trkpt><trkpt lat="42.3475408" lon="13.4678357"><ele>622.1999999999999</ele><time>2026-05-03T07:29:57.007Z</time></trkpt><trkpt lat="42.3476215" lon="13.4678635"><ele>622.6</ele><time>2026-05-03T07:29:58.007Z</time></trkpt><trkpt lat="42.3477146" lon="13.4679046"><ele>623.0</ele><time>2026-05-03T07:29:59.007Z</time></trkpt><trkpt lat="42.3478212" lon="13.4679511"><ele>623.25</ele><time>2026-05-03T07:30:00.008Z</time></trkpt><trkpt lat="42.3479308" lon="13.4679979"><ele>623.5</ele><time>2026-05-03T07:30:01.008Z</time></trkpt><trkpt lat="42.3480442" lon="13.4680313"><ele>623.75</ele><time>2026-05-03T07:30:02.008Z</time></trkpt><trkpt lat="42.3481644" lon="13.4680672"><ele>624.0</ele><time>2026-05-03T07:30:03.008Z</time></trkpt><trkpt lat="42.3482905" lon="13.4681117"><ele>624.25</ele><time>2026-05-03T07:30:04.007Z</time></trkpt><trkpt lat="42.3484222" lon="13.4681691"><ele>624.5</ele><time>2026-05-03T07:30:05.007Z</time></trkpt><trkpt lat="42.3485503" lon="13.4682314"><ele>624.75</ele><time>2026-05-03T07:30:06.008Z</time></trkpt><trkpt lat="42.3486795" lon="13.4682916"><ele>625.0</ele><time>2026-05-03T07:30:07.007Z</time></trkpt><trkpt lat="42.3488136" lon="13.4683478"><ele>625.75</ele><time>2026-05-03T07:30:08.008Z</time></trkpt><trkpt lat="42.3489542" lon="13.4683941"><ele>626.5</ele><time>2026-05-03T07:30:09.007Z</time></trkpt><trkpt lat="42.3491004" lon="13.4684264"><ele>627.25</ele><time>2026-05-03T07:30:10.007Z</time></trkpt><trkpt lat="42.3492388" lon="13.468438"><ele>628.0</ele><time>2026-05-03T07:30:11.007Z</time></trkpt><trkpt lat="42.3493697" lon="13.4684503"><ele>628.0</ele><time>2026-05-03T07:30:12.008Z</time></trkpt><trkpt lat="42.3494948" lon="13.4684623"><ele>628.0</ele><time>2026-05-03T07:30:13.008Z</time></trkpt><trkpt lat="42.3496237" lon="13.468467"><ele>628.0</ele><time>2026-05-03T07:30:14.007Z</time></trkpt><trkpt lat="42.3497463" lon="13.4684699"><ele>628.0</ele><time>2026-05-03T07:30:15.008Z</time></trkpt><trkpt lat="42.349866" lon="13.4684779"><ele>628.25</ele><time>2026-05-03T07:30:16.008Z</time></trkpt><trkpt lat="42.3499749" lon="13.4684941"><ele>628.5</ele><time>2026-05-03T07:30:17.007Z</time></trkpt><trkpt lat="42.3500849" lon="13.4685438"><ele>628.75</ele><time>2026-05-03T07:30:18.008Z</time></trkpt><trkpt lat="42.3501868" lon="13.4686193"><ele>629.0</ele><time>2026-05-03T07:30:19.008Z</time></trkpt><trkpt lat="42.3502844" lon="13.4687086"><ele>629.0</ele><time>2026-05-03T07:30:20.007Z</time></trkpt><trkpt lat="42.3503812" lon="13.4687908"><ele>629.0</ele><time>2026-05-03T07:30:21.007Z</time></trkpt><trkpt lat="42.3504811" lon="13.4688801"><ele>629.0</ele><time>2026-05-03T07:30:22.008Z</time></trkpt><trkpt lat="42.3505908" lon="13.4689584"><ele>629.0</ele><time>2026-05-03T07:30:23.007Z</time></trkpt><trkpt lat="42.3507058" lon="13.4690121"><ele>629.4</ele><time>2026-05-03T07:30:24.008Z</time></trkpt><trkpt lat="42.3508294" lon="13.4690367"><ele>629.8</ele><time>2026-05-03T07:30:25.007Z</time></trkpt><trkpt lat="42.350945" lon="13.4690437"><ele>630.2</ele><time>2026-05-03T07:30:26.007Z</time></trkpt><trkpt lat="42.3510469" lon="13.4690357"><ele>630.6</ele><time>2026-05-03T07:30:27.008Z</time></trkpt><trkpt lat="42.3511418" lon="13.4689989"><ele>631.0</ele><time>2026-05-03T07:30:28.008Z</time></trkpt><trkpt lat="42.3512316" lon="13.4689548"><ele>631.0</ele><time>2026-05-03T07:30:29.008Z</time></trkpt><trkpt lat="42.3513073" lon="13.4689069"><ele>631.0</ele><time>2026-05-03T07:30:30.008Z</time></trkpt><trkpt lat="42.3513747" lon="13.4688549"><ele>631.0</ele><time>2026-05-03T07:30:31.008Z</time></trkpt><trkpt lat="42.3514494" lon="13.4687785"><ele>631.0</ele><time>2026-05-03T07:30:33.008Z</time></trkpt><trkpt lat="42.3515005" lon="13.4687038"><ele>631.0</ele><time>2026-05-03T07:30:35.008Z</time></trkpt><trkpt lat="42.3515861" lon="13.4686734"><ele>631.0</ele><time>2026-05-03T07:30:37.008Z</time></trkpt><trkpt lat="42.3517011" lon="13.468722"><ele>632.0</ele><time>2026-05-03T07:30:39.007Z</time></trkpt><trkpt lat="42.3517615" lon="13.4687917"><ele>633.0</ele><time>2026-05-03T07:30:40.008Z</time></trkpt><trkpt lat="42.3518263" lon="13.4688749"><ele>634.0</ele><time>2026-05-03T07:30:41.007Z</time></trkpt><trkpt lat="42.3518894" lon="13.468954"><ele>635.0</ele><time>2026-05-03T07:30:42.007Z</time></trkpt><trkpt lat="42.3519589" lon="13.4690383"><ele>636.0</ele><time>2026-05-03T07:30:43.008Z</time></trkpt><trkpt lat="42.3520394" lon="13.4691291"><ele>636.0</ele><time>2026-05-03T07:30:44.007Z</time></trkpt><trkpt lat="42.352125" lon="13.4692325"><ele>636.0</ele><time>2026-05-03T07:30:45.008Z</time></trkpt><trkpt lat="42.3522111" lon="13.4693332"><ele>636.0</ele><time>2026-05-03T07:30:46.007Z</time></trkpt><trkpt lat="42.3522928" lon="13.469428"><ele>636.0</ele><time>2026-05-03T07:30:47.008Z</time></trkpt><trkpt lat="42.3523752" lon="13.4695177"><ele>636.0</ele><time>2026-05-03T07:30:48.007Z</time></trkpt><trkpt lat="42.3524592" lon="13.4696047"><ele>636.6</ele><time>2026-05-03T07:30:49.007Z</time></trkpt><trkpt lat="42.352537" lon="13.4696894"><ele>637.2</ele><time>2026-05-03T07:30:50.007Z</time></trkpt><trkpt lat="42.3526152" lon="13.4697781"><ele>637.8</ele><time>2026-05-03T07:30:51.007Z</time></trkpt><trkpt lat="42.3526928" lon="13.4698737"><ele>638.4</ele><time>2026-05-03T07:30:52.007Z</time></trkpt><trkpt lat="42.3527751" lon="13.4699656"><ele>639.0</ele><time>2026-05-03T07:30:53.007Z</time></trkpt><trkpt lat="42.3528528" lon="13.4700616"><ele>639.0</ele><time>2026-05-03T07:30:54.007Z</time></trkpt><trkpt lat="42.3529363" lon="13.4701698"><ele>639.0</ele><time>2026-05-03T07:30:55.007Z</time></trkpt><trkpt lat="42.3530127" lon="13.4702879"><ele>639.0</ele><time>2026-05-03T07:30:56.008Z</time></trkpt><trkpt lat="42.3530844" lon="13.4704155"><ele>639.0</ele><time>2026-05-03T07:30:57.008Z</time></trkpt><trkpt lat="42.353156" lon="13.4705399"><ele>639.6</ele><time>2026-05-03T07:30:58.008Z</time></trkpt><trkpt lat="42.3532241" lon="13.4706604"><ele>640.2</ele><time>2026-05-03T07:30:59.007Z</time></trkpt><trkpt lat="42.3532923" lon="13.4707849"><ele>640.8000000000001</ele><time>2026-05-03T07:31:00.008Z</time></trkpt><trkpt lat="42.353341" lon="13.4708992"><ele>641.4</ele><time>2026-05-03T07:31:01.007Z</time></trkpt><trkpt lat="42.353384" lon="13.4710154"><ele>642.0</ele><time>2026-05-03T07:31:02.008Z</time></trkpt><trkpt lat="42.3534299" lon="13.4711237"><ele>642.0</ele><time>2026-05-03T07:31:03.008Z</time></trkpt><trkpt lat="42.3534865" lon="13.471228"><ele>642.0</ele><time>2026-05-03T07:31:04.008Z</time></trkpt><trkpt lat="42.3535562" lon="13.4713297"><ele>642.0</ele><time>2026-05-03T07:31:05.008Z</time></trkpt><trkpt lat="42.3536055" lon="13.4713831"><ele>642.0</ele><time>2026-05-03T07:31:06.008Z</time></trkpt><trkpt lat="42.3536613" lon="13.4714503"><ele>642.0</ele><time>2026-05-03T07:31:08.008Z</time></trkpt><trkpt lat="42.3537405" lon="13.4715233"><ele>642.0</ele><time>2026-05-03T07:31:11.008Z</time></trkpt><trkpt lat="42.3538513" lon="13.471547"><ele>642.4000000000001</ele><time>2026-05-03T07:31:13.008Z</time></trkpt><trkpt lat="42.3539208" lon="13.4715367"><ele>642.8000000000001</ele><time>2026-05-03T07:31:14.007Z</time></trkpt><trkpt lat="42.3540104" lon="13.4715088"><ele>643.2</ele><time>2026-05-03T07:31:15.008Z</time></trkpt><trkpt lat="42.3541074" lon="13.471477"><ele>643.6</ele><time>2026-05-03T07:31:16.007Z</time></trkpt><trkpt lat="42.354219" lon="13.4714495"><ele>644.0</ele><time>2026-05-03T07:31:17.008Z</time></trkpt><trkpt lat="42.3543327" lon="13.4714201"><ele>644.0</ele><time>2026-05-03T07:31:18.008Z</time></trkpt><trkpt lat="42.3544309" lon="13.471398"><ele>644.0</ele><time>2026-05-03T07:31:19.008Z</time></trkpt><trkpt lat="42.3544937" lon="13.4713752"><ele>644.0</ele><time>2026-05-03T07:31:20.008Z</time></trkpt><trkpt lat="42.3545882" lon="13.4713365"><ele>644.0</ele><time>2026-05-03T07:31:22.007Z</time></trkpt><trkpt lat="42.3546965" lon="13.4713224"><ele>644.0</ele><time>2026-05-03T07:31:24.008Z</time></trkpt><trkpt lat="42.3547992" lon="13.4713061"><ele>644.0</ele><time>2026-05-03T07:31:26.008Z</time></trkpt><trkpt lat="42.3548812" lon="13.4712916"><ele>644.0</ele><time>2026-05-03T07:31:28.007Z</time></trkpt><trkpt lat="42.354849" lon="13.4712172"><ele>644.0</ele><time>2026-05-03T07:31:33.008Z</time></trkpt><trkpt lat="42.3547838" lon="13.4712533"><ele>644.0</ele><time>2026-05-03T07:31:35.008Z</time></trkpt><trkpt lat="42.3546986" lon="13.4712981"><ele>644.0</ele><time>2026-05-03T07:31:37.008Z</time></trkpt><trkpt lat="42.3546225" lon="13.4713619"><ele>644.0</ele><time>2026-05-03T07:31:39.008Z</time></trkpt><trkpt lat="42.3546118" lon="13.4714637"><ele>644.0</ele><time>2026-05-03T07:31:41.008Z</time></trkpt><trkpt lat="42.3546678" lon="13.4715911"><ele>644.0</ele><time>2026-05-03T07:31:43.008Z</time></trkpt><trkpt lat="42.3547195" lon="13.4716662"><ele>644.0</ele><time>2026-05-03T07:31:44.007Z</time></trkpt><trkpt lat="42.3547839" lon="13.4717376"><ele>644.0</ele><time>2026-05-03T07:31:45.007Z</time></trkpt><trkpt lat="42.3548435" lon="13.4718085"><ele>644.0</ele><time>2026-05-03T07:31:46.007Z</time></trkpt><trkpt lat="42.3549096" lon="13.4718881"><ele>644.0</ele><time>2026-05-03T07:31:47.007Z</time></trkpt><trkpt lat="42.3549724" lon="13.4719819"><ele>644.75</ele><time>2026-05-03T07:31:48.008Z</time></trkpt><trkpt lat="42.3550464" lon="13.4720856"><ele>645.5</ele><time>2026-05-03T07:31:49.008Z</time></trkpt><trkpt lat="42.3551311" lon="13.4721931"><ele>646.25</ele><time>2026-05-03T07:31:50.008Z</time></trkpt><trkpt lat="42.3552214" lon="13.4722979"><ele>647.0</ele><time>2026-05-03T07:31:51.008Z</time></trkpt><trkpt lat="42.35531" lon="13.4724046"><ele>647.0</ele><time>2026-05-03T07:31:52.007Z</time></trkpt><trkpt lat="42.3553899" lon="13.4725118"><ele>647.0</ele><time>2026-05-03T07:31:53.007Z</time></trkpt><trkpt lat="42.3554747" lon="13.4726116"><ele>647.0</ele><time>2026-05-03T07:31:54.008Z</time></trkpt><trkpt lat="42.3555555" lon="13.4727007"><ele>647.0</ele><time>2026-05-03T07:31:55.007Z</time></trkpt><trkpt lat="42.355638" lon="13.472789"><ele>647.0</ele><time>2026-05-03T07:31:56.008Z</time></trkpt><trkpt lat="42.3557219" lon="13.47288"><ele>647.6</ele><time>2026-05-03T07:31:57.007Z</time></trkpt><trkpt lat="42.3558099" lon="13.4729733"><ele>648.2</ele><time>2026-05-03T07:31:58.007Z</time></trkpt><trkpt lat="42.3559" lon="13.4730619"><ele>648.8</ele><time>2026-05-03T07:31:59.008Z</time></trkpt><trkpt lat="42.3559875" lon="13.4731591"><ele>649.4</ele><time>2026-05-03T07:32:00.008Z</time></trkpt><trkpt lat="42.3560747" lon="13.4732542"><ele>650.0</ele><time>2026-05-03T07:32:01.007Z</time></trkpt><trkpt lat="42.35615" lon="13.4733424"><ele>650.0</ele><time>2026-05-03T07:32:02.007Z</time></trkpt><trkpt lat="42.3562245" lon="13.47341"><ele>650.0</ele><time>2026-05-03T07:32:03.008Z</time></trkpt><trkpt lat="42.3562926" lon="13.4734633"><ele>650.0</ele><time>2026-05-03T07:32:04.008Z</time></trkpt><trkpt lat="42.3563775" lon="13.473495"><ele>650.0</ele><time>2026-05-03T07:32:05.008Z</time></trkpt><trkpt lat="42.3564572" lon="13.4735278"><ele>650.0</ele><time>2026-05-03T07:32:06.008Z</time></trkpt><trkpt lat="42.3565222" lon="13.4735695"><ele>650.0</ele><time>2026-05-03T07:32:07.008Z</time></trkpt><trkpt lat="42.3565752" lon="13.4736333"><ele>650.6</ele><time>2026-05-03T07:32:08.007Z</time></trkpt><trkpt lat="42.3566166" lon="13.4737183"><ele>651.2</ele><time>2026-05-03T07:32:09.008Z</time></trkpt><trkpt lat="42.3566577" lon="13.4738293"><ele>651.8</ele><time>2026-05-03T07:32:10.007Z</time></trkpt><trkpt lat="42.3566966" lon="13.4739481"><ele>652.4</ele><time>2026-05-03T07:32:11.007Z</time></trkpt><trkpt lat="42.3567357" lon="13.4740715"><ele>653.0</ele><time>2026-05-03T07:32:12.008Z</time></trkpt><trkpt lat="42.3567776" lon="13.4742021"><ele>653.5999999999999</ele><time>2026-05-03T07:32:13.008Z</time></trkpt><trkpt lat="42.3568216" lon="13.4743362"><ele>654.1999999999999</ele><time>2026-05-03T07:32:14.007Z</time></trkpt><trkpt lat="42.3568692" lon="13.4744735"><ele>654.8</ele><time>2026-05-03T07:32:15.008Z</time></trkpt><trkpt lat="42.3569178" lon="13.4746133"><ele>655.4</ele><time>2026-05-03T07:32:16.007Z</time></trkpt><trkpt lat="42.3569704" lon="13.4747498"><ele>656.0</ele><time>2026-05-03T07:32:17.007Z</time></trkpt><trkpt lat="42.3570203" lon="13.4748831"><ele>657.8</ele><time>2026-05-03T07:32:18.007Z</time></trkpt><trkpt lat="42.357066" lon="13.4750128"><ele>659.5999999999999</ele><time>2026-05-03T07:32:19.007Z</time></trkpt><trkpt lat="42.3571049" lon="13.4751461"><ele>661.4</ele><time>2026-05-03T07:32:20.007Z</time></trkpt><trkpt lat="42.3571328" lon="13.4752775"><ele>663.2</ele><time>2026-05-03T07:32:21.008Z</time></trkpt><trkpt lat="42.3571628" lon="13.4754113"><ele>665.0</ele><time>2026-05-03T07:32:22.007Z</time></trkpt><trkpt lat="42.3571924" lon="13.4755477"><ele>667.2</ele><time>2026-05-03T07:32:23.007Z</time></trkpt><trkpt lat="42.3572227" lon="13.4756809"><ele>669.4</ele><time>2026-05-03T07:32:24.007Z</time></trkpt><trkpt lat="42.3572496" lon="13.4757968"><ele>671.5999999999999</ele><time>2026-05-03T07:32:25.008Z</time></trkpt><trkpt lat="42.3572614" lon="13.4759102"><ele>673.8</ele><time>2026-05-03T07:32:26.008Z</time></trkpt><trkpt lat="42.3572558" lon="13.4760312"><ele>676.0</ele><time>2026-05-03T07:32:27.007Z</time></trkpt><trkpt lat="42.3572484" lon="13.4761611"><ele>677.4</ele><time>2026-05-03T07:32:28.007Z</time></trkpt><trkpt lat="42.3572379" lon="13.4762868"><ele>678.8</ele><time>2026-05-03T07:32:29.008Z</time></trkpt><trkpt lat="42.3572384" lon="13.4764201"><ele>680.1999999999999</ele><time>2026-05-03T07:32:30.008Z</time></trkpt><trkpt lat="42.3572441" lon="13.4765634"><ele>681.5999999999999</ele><time>2026-05-03T07:32:31.008Z</time></trkpt><trkpt lat="42.3572534" lon="13.4767077"><ele>683.0</ele><time>2026-05-03T07:32:32.007Z</time></trkpt><trkpt lat="42.3572621" lon="13.4768586"><ele>683.0</ele><time>2026-05-03T07:32:33.008Z</time></trkpt><trkpt lat="42.3572761" lon="13.4770054"><ele>683.0</ele><time>2026-05-03T07:32:34.008Z</time></trkpt><trkpt lat="42.35729" lon="13.4771364"><ele>683.0</ele><time>2026-05-03T07:32:35.007Z</time></trkpt><trkpt lat="42.3573049" lon="13.477252"><ele>683.0</ele><time>2026-05-03T07:32:36.008Z</time></trkpt><trkpt lat="42.3573167" lon="13.4773394"><ele>683.0</ele><time>2026-05-03T07:32:37.008Z</time></trkpt><trkpt lat="42.3573347" lon="13.4774744"><ele>684.2</ele><time>2026-05-03T07:32:39.007Z</time></trkpt><trkpt lat="42.3573451" lon="13.4776447"><ele>685.4</ele><time>2026-05-03T07:32:41.008Z</time></trkpt><trkpt lat="42.3573537" lon="13.4777554"><ele>686.6</ele><time>2026-05-03T07:32:42.008Z</time></trkpt><trkpt lat="42.3573644" lon="13.4778824"><ele>687.8000000000001</ele><time>2026-05-03T07:32:43.007Z</time></trkpt><trkpt lat="42.3573905" lon="13.4780093"><ele>689.0</ele><time>2026-05-03T07:32:44.008Z</time></trkpt><trkpt lat="42.3574218" lon="13.4781389"><ele>690.6</ele><time>2026-05-03T07:32:45.008Z</time></trkpt><trkpt lat="42.3574573" lon="13.4782694"><ele>692.2</ele><time>2026-05-03T07:32:46.008Z</time></trkpt><trkpt lat="42.3574989" lon="13.478392"><ele>693.8000000000001</ele><time>2026-05-03T07:32:47.007Z</time></trkpt><trkpt lat="42.3575336" lon="13.4785138"><ele>695.4000000000001</ele><time>2026-05-03T07:32:48.008Z</time></trkpt><trkpt lat="42.357556" lon="13.4786388"><ele>697.0</ele><time>2026-05-03T07:32:49.008Z</time></trkpt><trkpt lat="42.3575714" lon="13.478772"><ele>698.8</ele><time>2026-05-03T07:32:50.008Z</time></trkpt><trkpt lat="42.357587" lon="13.4789041"><ele>700.6</ele><time>2026-05-03T07:32:51.008Z</time></trkpt><trkpt lat="42.3576035" lon="13.4790377"><ele>702.4</ele><time>2026-05-03T07:32:52.008Z</time></trkpt><trkpt lat="42.3576205" lon="13.4791773"><ele>704.1999999999999</ele><time>2026-05-03T07:32:53.008Z</time></trkpt><trkpt lat="42.3576396" lon="13.4793258"><ele>706.0</ele><time>2026-05-03T07:32:54.007Z</time></trkpt><trkpt lat="42.3576617" lon="13.4794747"><ele>707.8</ele><time>2026-05-03T07:32:55.007Z</time></trkpt><trkpt lat="42.3576809" lon="13.4796228"><ele>709.5999999999999</ele><time>2026-05-03T07:32:56.007Z</time></trkpt><trkpt lat="42.3577019" lon="13.4797671"><ele>711.4</ele><time>2026-05-03T07:32:57.008Z</time></trkpt><trkpt lat="42.3577237" lon="13.4799102"><ele>713.2</ele><time>2026-05-03T07:32:58.007Z</time></trkpt><trkpt lat="42.3577455" lon="13.4800514"><ele>715.0</ele><time>2026-05-03T07:32:59.008Z</time></trkpt><trkpt lat="42.3577562" lon="13.4801888"><ele>715.0</ele><time>2026-05-03T07:33:00.007Z</time></trkpt><trkpt lat="42.3577503" lon="13.4803272"><ele>715.0</ele><time>2026-05-03T07:33:01.007Z</time></trkpt><trkpt lat="42.3577232" lon="13.48046"><ele>715.0</ele><time>2026-05-03T07:33:02.008Z</time></trkpt><trkpt lat="42.3576884" lon="13.480593"><ele>715.0</ele><time>2026-05-03T07:33:03.008Z</time></trkpt><trkpt lat="42.3576803" lon="13.4807264"><ele>715.0</ele><time>2026-05-03T07:33:04.008Z</time></trkpt><trkpt lat="42.357696" lon="13.480847"><ele>716.3333333333334</ele><time>2026-05-03T07:33:05.007Z</time></trkpt><trkpt lat="42.3577209" lon="13.480945"><ele>717.6666666666667</ele><time>2026-05-03T07:33:06.007Z</time></trkpt><trkpt lat="42.3577389" lon="13.4810309"><ele>719.0</ele><time>2026-05-03T07:33:07.007Z</time></trkpt><trkpt lat="42.3577433" lon="13.4812045"><ele>720.3333333333334</ele><time>2026-05-03T07:33:09.008Z</time></trkpt><trkpt lat="42.3577331" lon="13.4813045"><ele>721.6666666666666</ele><time>2026-05-03T07:33:10.007Z</time></trkpt><trkpt lat="42.3577234" lon="13.4814074"><ele>723.0</ele><time>2026-05-03T07:33:11.007Z</time></trkpt><trkpt lat="42.3577129" lon="13.4815075"><ele>724.6666666666666</ele><time>2026-05-03T07:33:12.007Z</time></trkpt><trkpt lat="42.3577005" lon="13.481612"><ele>726.3333333333334</ele><time>2026-05-03T07:33:13.008Z</time></trkpt><trkpt lat="42.357685" lon="13.4817227"><ele>728.0</ele><time>2026-05-03T07:33:14.008Z</time></trkpt><trkpt lat="42.3576629" lon="13.4818305"><ele>729.6666666666667</ele><time>2026-05-03T07:33:15.008Z</time></trkpt><trkpt lat="42.35764" lon="13.481943"><ele>731.3333333333334</ele><time>2026-05-03T07:33:16.007Z</time></trkpt><trkpt lat="42.357621" lon="13.482056"><ele>733.0</ele><time>2026-05-03T07:33:17.008Z</time></trkpt><trkpt lat="42.3575948" lon="13.4821683"><ele>734.4285714285713</ele><time>2026-05-03T07:33:18.008Z</time></trkpt><trkpt lat="42.3575714" lon="13.4822705"><ele>735.8571428571429</ele><time>2026-05-03T07:33:19.008Z</time></trkpt><trkpt lat="42.3575582" lon="13.4823659"><ele>737.2857142857142</ele><time>2026-05-03T07:33:20.007Z</time></trkpt><trkpt lat="42.3575549" lon="13.4824606"><ele>738.7142857142857</ele><time>2026-05-03T07:33:21.008Z</time></trkpt><trkpt lat="42.3575556" lon="13.4825562"><ele>740.1428571428571</ele><time>2026-05-03T07:33:22.008Z</time></trkpt><trkpt lat="42.3575588" lon="13.4826524"><ele>741.5714285714286</ele><time>2026-05-03T07:33:23.008Z</time></trkpt><trkpt lat="42.3575728" lon="13.4827608"><ele>743.0</ele><time>2026-05-03T07:33:24.008Z</time></trkpt><trkpt lat="42.3575874" lon="13.4828766"><ele>744.4</ele><time>2026-05-03T07:33:25.007Z</time></trkpt><trkpt lat="42.3576015" lon="13.4829983"><ele>745.8</ele><time>2026-05-03T07:33:26.008Z</time></trkpt><trkpt lat="42.3576129" lon="13.4831332"><ele>747.2</ele><time>2026-05-03T07:33:27.008Z</time></trkpt><trkpt lat="42.3576215" lon="13.4832651"><ele>748.6</ele><time>2026-05-03T07:33:28.008Z</time></trkpt><trkpt lat="42.3576303" lon="13.4833994"><ele>750.0</ele><time>2026-05-03T07:33:29.008Z</time></trkpt><trkpt lat="42.3576414" lon="13.4835359"><ele>750.0</ele><time>2026-05-03T07:33:30.007Z</time></trkpt><trkpt lat="42.3576531" lon="13.4836624"><ele>750.0</ele><time>2026-05-03T07:33:31.008Z</time></trkpt><trkpt lat="42.3576683" lon="13.4837718"><ele>750.0</ele><time>2026-05-03T07:33:32.008Z</time></trkpt><trkpt lat="42.3576914" lon="13.4838893"><ele>750.0</ele><time>2026-05-03T07:33:33.007Z</time></trkpt><trkpt lat="42.3577121" lon="13.4840112"><ele>750.0</ele><time>2026-05-03T07:33:34.007Z</time></trkpt><trkpt lat="42.3577323" lon="13.484126"><ele>750.0</ele><time>2026-05-03T07:33:35.007Z</time></trkpt><trkpt lat="42.357751" lon="13.4842397"><ele>750.6666666666666</ele><time>2026-05-03T07:33:36.008Z</time></trkpt><trkpt lat="42.3577599" lon="13.4843529"><ele>751.3333333333334</ele><time>2026-05-03T07:33:37.008Z</time></trkpt><trkpt lat="42.3577618" lon="13.4844693"><ele>752.0</ele><time>2026-05-03T07:33:38.008Z</time></trkpt><trkpt lat="42.3577611" lon="13.4845829"><ele>752.6666666666667</ele><time>2026-05-03T07:33:39.007Z</time></trkpt><trkpt lat="42.3577575" lon="13.4846882"><ele>753.3333333333334</ele><time>2026-05-03T07:33:40.007Z</time></trkpt><trkpt lat="42.357748" lon="13.4847942"><ele>754.0</ele><time>2026-05-03T07:33:41.007Z</time></trkpt><trkpt lat="42.3577349" lon="13.4848955"><ele>754.5</ele><time>2026-05-03T07:33:42.008Z</time></trkpt><trkpt lat="42.3577218" lon="13.4850024"><ele>755.0</ele><time>2026-05-03T07:33:43.008Z</time></trkpt><trkpt lat="42.3577101" lon="13.485104"><ele>755.5</ele><time>2026-05-03T07:33:44.008Z</time></trkpt><trkpt lat="42.3577043" lon="13.4852052"><ele>756.0</ele><time>2026-05-03T07:33:45.008Z</time></trkpt><trkpt lat="42.3576979" lon="13.4853097"><ele>756.5</ele><time>2026-05-03T07:33:46.008Z</time></trkpt><trkpt lat="42.3576901" lon="13.4854071"><ele>757.0</ele><time>2026-05-03T07:33:47.007Z</time></trkpt><trkpt lat="42.3576856" lon="13.4855017"><ele>757.0</ele><time>2026-05-03T07:33:48.007Z</time></trkpt><trkpt lat="42.3576822" lon="13.4855993"><ele>757.0</ele><time>2026-05-03T07:33:49.007Z</time></trkpt><trkpt lat="42.3576796" lon="13.4856927"><ele>757.0</ele><time>2026-05-03T07:33:50.008Z</time></trkpt><trkpt lat="42.3576816" lon="13.4857832"><ele>757.0</ele><time>2026-05-03T07:33:51.007Z</time></trkpt><trkpt lat="42.3576914" lon="13.4858769"><ele>757.0</ele><time>2026-05-03T07:33:52.007Z</time></trkpt><trkpt lat="42.3577105" lon="13.4859657"><ele>757.0</ele><time>2026-05-03T07:33:53.008Z</time></trkpt><trkpt lat="42.3577329" lon="13.4860572"><ele>757.0</ele><time>2026-05-03T07:33:54.007Z</time></trkpt><trkpt lat="42.3577639" lon="13.4861442"><ele>757.0</ele><time>2026-05-03T07:33:55.008Z</time></trkpt><trkpt lat="42.3578" lon="13.4862291"><ele>757.0</ele><time>2026-05-03T07:33:56.008Z</time></trkpt><trkpt lat="42.357834" lon="13.4863173"><ele>757.0</ele><time>2026-05-03T07:33:57.007Z</time></trkpt><trkpt lat="42.3578667" lon="13.4863974"><ele>757.0</ele><time>2026-05-03T07:33:58.007Z</time></trkpt><trkpt lat="42.357908" lon="13.4864726"><ele>757.0</ele><time>2026-05-03T07:33:59.008Z</time></trkpt><trkpt lat="42.3579535" lon="13.4865426"><ele>757.0</ele><time>2026-05-03T07:34:00.008Z</time></trkpt><trkpt lat="42.3580022" lon="13.4866056"><ele>757.0</ele><time>2026-05-03T07:34:01.007Z</time></trkpt><trkpt lat="42.358056" lon="13.4866707"><ele>758.0</ele><time>2026-05-03T07:34:02.007Z</time></trkpt><trkpt lat="42.3581109" lon="13.4867361"><ele>759.0</ele><time>2026-05-03T07:34:03.007Z</time></trkpt><trkpt lat="42.3581688" lon="13.4868039"><ele>760.0</ele><time>2026-05-03T07:34:04.007Z</time></trkpt><trkpt lat="42.3582261" lon="13.4868736"><ele>761.0</ele><time>2026-05-03T07:34:05.007Z</time></trkpt><trkpt lat="42.3582836" lon="13.4869461"><ele>762.0</ele><time>2026-05-03T07:34:06.008Z</time></trkpt><trkpt lat="42.3583446" lon="13.4870234"><ele>763.0</ele><time>2026-05-03T07:34:07.008Z</time></trkpt><trkpt lat="42.3584085" lon="13.487111"><ele>763.0</ele><time>2026-05-03T07:34:08.008Z</time></trkpt><trkpt lat="42.3584736" lon="13.4871926"><ele>763.0</ele><time>2026-05-03T07:34:09.007Z</time></trkpt><trkpt lat="42.3585421" lon="13.487275"><ele>763.0</ele><time>2026-05-03T07:34:10.007Z</time></trkpt><trkpt lat="42.3586113" lon="13.4873561"><ele>763.0</ele><time>2026-05-03T07:34:11.007Z</time></trkpt><trkpt lat="42.358671" lon="13.4874369"><ele>763.0</ele><time>2026-05-03T07:34:12.008Z</time></trkpt><trkpt lat="42.3587227" lon="13.4875224"><ele>763.0</ele><time>2026-05-03T07:34:13.008Z</time></trkpt><trkpt lat="42.3587667" lon="13.4876197"><ele>763.0</ele><time>2026-05-03T07:34:14.007Z</time></trkpt><trkpt lat="42.3588138" lon="13.487733"><ele>763.0</ele><time>2026-05-03T07:34:15.008Z</time></trkpt><trkpt lat="42.3588691" lon="13.4878473"><ele>763.0</ele><time>2026-05-03T07:34:16.007Z</time></trkpt><trkpt lat="42.3589268" lon="13.487954"><ele>763.0</ele><time>2026-05-03T07:34:17.008Z</time></trkpt><trkpt lat="42.358984" lon="13.4880421"><ele>763.0</ele><time>2026-05-03T07:34:18.008Z</time></trkpt><trkpt lat="42.3590389" lon="13.4881063"><ele>765.8333333333334</ele><time>2026-05-03T07:34:19.008Z</time></trkpt><trkpt lat="42.3590934" lon="13.4881575"><ele>768.6666666666667</ele><time>2026-05-03T07:34:20.008Z</time></trkpt><trkpt lat="42.3591438" lon="13.4882248"><ele>771.5</ele><time>2026-05-03T07:34:21.007Z</time></trkpt><trkpt lat="42.3591956" lon="13.4882909"><ele>774.3333333333334</ele><time>2026-05-03T07:34:22.008Z</time></trkpt><trkpt lat="42.359254" lon="13.4883627"><ele>777.1666666666666</ele><time>2026-05-03T07:34:23.007Z</time></trkpt><trkpt lat="42.3593177" lon="13.4884448"><ele>780.0</ele><time>2026-05-03T07:34:24.007Z</time></trkpt><trkpt lat="42.3593791" lon="13.4885325"><ele>780.0</ele><time>2026-05-03T07:34:25.008Z</time></trkpt><trkpt lat="42.3594366" lon="13.4886228"><ele>780.0</ele><time>2026-05-03T07:34:26.007Z</time></trkpt><trkpt lat="42.359487" lon="13.4887166"><ele>780.0</ele><time>2026-05-03T07:34:27.008Z</time></trkpt><trkpt lat="42.3595319" lon="13.4888197"><ele>780.0</ele><time>2026-05-03T07:34:28.008Z</time></trkpt><trkpt lat="42.3595719" lon="13.4889175"><ele>780.0</ele><time>2026-05-03T07:34:29.007Z</time></trkpt><trkpt lat="42.359614" lon="13.489002"><ele>780.0</ele><time>2026-05-03T07:34:30.008Z</time></trkpt><trkpt lat="42.3596938" lon="13.4891316"><ele>782.0</ele><time>2026-05-03T07:34:32.008Z</time></trkpt><trkpt lat="42.3597468" lon="13.4891982"><ele>784.0</ele><time>2026-05-03T07:34:33.007Z</time></trkpt><trkpt lat="42.3598136" lon="13.4892675"><ele>786.0</ele><time>2026-05-03T07:34:34.008Z</time></trkpt><trkpt lat="42.3598876" lon="13.4893347"><ele>788.0</ele><time>2026-05-03T07:34:35.008Z</time></trkpt><trkpt lat="42.359966" lon="13.4893894"><ele>790.0</ele><time>2026-05-03T07:34:36.008Z</time></trkpt><trkpt lat="42.3600465" lon="13.4894285"><ele>792.0</ele><time>2026-05-03T07:34:37.007Z</time></trkpt><trkpt lat="42.3601244" lon="13.4894692"><ele>792.0</ele><time>2026-05-03T07:34:38.007Z</time></trkpt><trkpt lat="42.3601981" lon="13.4895303"><ele>792.0</ele><time>2026-05-03T07:34:39.007Z</time></trkpt><trkpt lat="42.3602682" lon="13.4896046"><ele>792.0</ele><time>2026-05-03T07:34:40.008Z</time></trkpt><trkpt lat="42.3603337" lon="13.4896807"><ele>792.0</ele><time>2026-05-03T07:34:41.008Z</time></trkpt><trkpt lat="42.3604031" lon="13.4897516"><ele>792.0</ele><time>2026-05-03T07:34:42.007Z</time></trkpt><trkpt lat="42.3604842" lon="13.4898138"><ele>792.0</ele><time>2026-05-03T07:34:43.008Z</time></trkpt><trkpt lat="42.360574" lon="13.4898723"><ele>793.3333333333334</ele><time>2026-05-03T07:34:44.008Z</time></trkpt><trkpt lat="42.360653" lon="13.489934"><ele>794.6666666666667</ele><time>2026-05-03T07:34:45.008Z</time></trkpt><trkpt lat="42.3607226" lon="13.4899978"><ele>796.0</ele><time>2026-05-03T07:34:46.007Z</time></trkpt><trkpt lat="42.3607843" lon="13.4900647"><ele>797.3333333333334</ele><time>2026-05-03T07:34:47.008Z</time></trkpt><trkpt lat="42.360841" lon="13.4901363"><ele>798.6666666666667</ele><time>2026-05-03T07:34:48.008Z</time></trkpt><trkpt lat="42.3609078" lon="13.4901942"><ele>800.0</ele><time>2026-05-03T07:34:49.007Z</time></trkpt><trkpt lat="42.3609722" lon="13.4902363"><ele>800.0</ele><time>2026-05-03T07:34:50.008Z</time></trkpt><trkpt lat="42.3610727" lon="13.4902871"><ele>800.0</ele><time>2026-05-03T07:34:52.007Z</time></trkpt><trkpt lat="42.3611859" lon="13.4903478"><ele>800.0</ele><time>2026-05-03T07:34:54.008Z</time></trkpt><trkpt lat="42.361263" lon="13.4904034"><ele>800.0</ele><time>2026-05-03T07:34:55.008Z</time></trkpt><trkpt lat="42.3613434" lon="13.4904701"><ele>800.0</ele><time>2026-05-03T07:34:56.008Z</time></trkpt><trkpt lat="42.3614178" lon="13.4905488"><ele>802.0000000000001</ele><time>2026-05-03T07:34:57.009Z</time></trkpt><trkpt lat="42.3614854" lon="13.4906268"><ele>804.0</ele><time>2026-05-03T07:34:58.008Z</time></trkpt><trkpt lat="42.3615531" lon="13.4906888"><ele>806.0</ele><time>2026-05-03T07:34:59.009Z</time></trkpt><trkpt lat="42.3616306" lon="13.4907557"><ele>808.0</ele><time>2026-05-03T07:35:00.008Z</time></trkpt><trkpt lat="42.3617088" lon="13.4908257"><ele>810.0000000000001</ele><time>2026-05-03T07:35:01.009Z</time></trkpt><trkpt lat="42.3617799" lon="13.4908785"><ele>812.0</ele><time>2026-05-03T07:35:02.009Z</time></trkpt><trkpt lat="42.3618531" lon="13.4909206"><ele>812.0000000000001</ele><time>2026-05-03T07:35:03.008Z</time></trkpt><trkpt lat="42.3619205" lon="13.4909786"><ele>812.0</ele><time>2026-05-03T07:35:04.009Z</time></trkpt><trkpt lat="42.36198" lon="13.4910528"><ele>812.0</ele><time>2026-05-03T07:35:05.009Z</time></trkpt><trkpt lat="42.3620337" lon="13.4911415"><ele>812.0</ele><time>2026-05-03T07:35:06.009Z</time></trkpt><trkpt lat="42.3620947" lon="13.4912376"><ele>812.0000000000001</ele><time>2026-05-03T07:35:07.009Z</time></trkpt><trkpt lat="42.362166" lon="13.4913379"><ele>812.0</ele><time>2026-05-03T07:35:08.008Z</time></trkpt><trkpt lat="42.3622456" lon="13.4914462"><ele>813.4000000000001</ele><time>2026-05-03T07:35:09.009Z</time></trkpt><trkpt lat="42.3623244" lon="13.4915553"><ele>814.8000000000001</ele><time>2026-05-03T07:35:10.009Z</time></trkpt><trkpt lat="42.3623965" lon="13.4916354"><ele>816.2</ele><time>2026-05-03T07:35:11.009Z</time></trkpt><trkpt lat="42.3624598" lon="13.4917321"><ele>817.6</ele><time>2026-05-03T07:35:12.009Z</time></trkpt><trkpt lat="42.3625132" lon="13.4918258"><ele>819.0</ele><time>2026-05-03T07:35:13.009Z</time></trkpt><trkpt lat="42.3625605" lon="13.4919353"><ele>819.0</ele><time>2026-05-03T07:35:14.009Z</time></trkpt><trkpt lat="42.3626034" lon="13.4920539"><ele>819.0</ele><time>2026-05-03T07:35:15.008Z</time></trkpt><trkpt lat="42.3626402" lon="13.4921762"><ele>819.0</ele><time>2026-05-03T07:35:16.008Z</time></trkpt><trkpt lat="42.3626743" lon="13.4922918"><ele>819.0</ele><time>2026-05-03T07:35:17.009Z</time></trkpt><trkpt lat="42.3627" lon="13.4924025"><ele>819.0</ele><time>2026-05-03T07:35:18.008Z</time></trkpt><trkpt lat="42.3627293" lon="13.4925183"><ele>820.5</ele><time>2026-05-03T07:35:19.008Z</time></trkpt><trkpt lat="42.3627611" lon="13.492636"><ele>822.0</ele><time>2026-05-03T07:35:20.008Z</time></trkpt><trkpt lat="42.3627916" lon="13.4927462"><ele>823.5</ele><time>2026-05-03T07:35:21.008Z</time></trkpt><trkpt lat="42.3628125" lon="13.4928445"><ele>825.0</ele><time>2026-05-03T07:35:22.008Z</time></trkpt><trkpt lat="42.362816" lon="13.4929425"><ele>826.5</ele><time>2026-05-03T07:35:23.009Z</time></trkpt><trkpt lat="42.3628097" lon="13.49304"><ele>828.0</ele><time>2026-05-03T07:35:24.009Z</time></trkpt><trkpt lat="42.3628031" lon="13.4931371"><ele>830.2857142857143</ele><time>2026-05-03T07:35:25.008Z</time></trkpt><trkpt lat="42.3628009" lon="13.4932483"><ele>832.5714285714286</ele><time>2026-05-03T07:35:26.008Z</time></trkpt><trkpt lat="42.3628043" lon="13.4933451"><ele>834.8571428571429</ele><time>2026-05-03T07:35:27.009Z</time></trkpt><trkpt lat="42.3628234" lon="13.4934338"><ele>837.1428571428571</ele><time>2026-05-03T07:35:28.009Z</time></trkpt><trkpt lat="42.3628548" lon="13.4935112"><ele>839.4285714285714</ele><time>2026-05-03T07:35:29.009Z</time></trkpt><trkpt lat="42.3628939" lon="13.4935947"><ele>841.7142857142858</ele><time>2026-05-03T07:35:30.009Z</time></trkpt><trkpt lat="42.3629309" lon="13.4936751"><ele>844.0</ele><time>2026-05-03T07:35:31.008Z</time></trkpt><trkpt lat="42.3629476" lon="13.4937604"><ele>846.1666666666666</ele><time>2026-05-03T07:35:32.008Z</time></trkpt><trkpt lat="42.362952" lon="13.4938543"><ele>848.3333333333333</ele><time>2026-05-03T07:35:33.008Z</time></trkpt><trkpt lat="42.3629519" lon="13.4939618"><ele>850.5</ele><time>2026-05-03T07:35:34.008Z</time></trkpt><trkpt lat="42.3629559" lon="13.4940812"><ele>852.6666666666667</ele><time>2026-05-03T07:35:35.009Z</time></trkpt><trkpt lat="42.3629628" lon="13.4942035"><ele>854.8333333333334</ele><time>2026-05-03T07:35:36.008Z</time></trkpt><trkpt lat="42.3629713" lon="13.4943182"><ele>857.0</ele><time>2026-05-03T07:35:37.009Z</time></trkpt><trkpt lat="42.3629799" lon="13.4944324"><ele>857.0000000000001</ele><time>2026-05-03T07:35:38.009Z</time></trkpt><trkpt lat="42.362988" lon="13.4945415"><ele>857.0</ele><time>2026-05-03T07:35:39.008Z</time></trkpt><trkpt lat="42.3629849" lon="13.4946335"><ele>857.0</ele><time>2026-05-03T07:35:40.008Z</time></trkpt><trkpt lat="42.3629723" lon="13.4947298"><ele>857.0</ele><time>2026-05-03T07:35:41.008Z</time></trkpt><trkpt lat="42.3629662" lon="13.4948359"><ele>857.0000000000001</ele><time>2026-05-03T07:35:42.009Z</time></trkpt><trkpt lat="42.3629526" lon="13.4949498"><ele>857.0</ele><time>2026-05-03T07:35:43.008Z</time></trkpt><trkpt lat="42.3629365" lon="13.4950669"><ele>858.2</ele><time>2026-05-03T07:35:44.008Z</time></trkpt><trkpt lat="42.3629225" lon="13.4951882"><ele>859.4000000000001</ele><time>2026-05-03T07:35:45.009Z</time></trkpt><trkpt lat="42.3629112" lon="13.4953099"><ele>860.5999999999999</ele><time>2026-05-03T07:35:46.009Z</time></trkpt><trkpt lat="42.3629012" lon="13.4954324"><ele>861.8</ele><time>2026-05-03T07:35:47.009Z</time></trkpt><trkpt lat="42.3628941" lon="13.4955637"><ele>863.0</ele><time>2026-05-03T07:35:48.008Z</time></trkpt><trkpt lat="42.362887" lon="13.4957028"><ele>863.4</ele><time>2026-05-03T07:35:49.008Z</time></trkpt><trkpt lat="42.3628788" lon="13.4958336"><ele>863.8</ele><time>2026-05-03T07:35:50.009Z</time></trkpt><trkpt lat="42.3628693" lon="13.4959683"><ele>864.2</ele><time>2026-05-03T07:35:51.009Z</time></trkpt><trkpt lat="42.3628639" lon="13.496105"><ele>864.6</ele><time>2026-05-03T07:35:52.008Z</time></trkpt><trkpt lat="42.3628501" lon="13.4962422"><ele>865.0</ele><time>2026-05-03T07:35:53.009Z</time></trkpt><trkpt lat="42.3628393" lon="13.4963701"><ele>865.9999999999999</ele><time>2026-05-03T07:35:54.008Z</time></trkpt><trkpt lat="42.3628307" lon="13.4964827"><ele>867.0</ele><time>2026-05-03T07:35:55.009Z</time></trkpt><trkpt lat="42.3628352" lon="13.4965868"><ele>868.0</ele><time>2026-05-03T07:35:56.009Z</time></trkpt><trkpt lat="42.3628484" lon="13.496688"><ele>869.0</ele><time>2026-05-03T07:35:57.009Z</time></trkpt><trkpt lat="42.3628654" lon="13.4967888"><ele>869.9999999999999</ele><time>2026-05-03T07:35:58.009Z</time></trkpt><trkpt lat="42.3628883" lon="13.4968924"><ele>871.0</ele><time>2026-05-03T07:35:59.009Z</time></trkpt><trkpt lat="42.3629099" lon="13.4969859"><ele>870.9999999999999</ele><time>2026-05-03T07:36:00.009Z</time></trkpt><trkpt lat="42.3629194" lon="13.4970759"><ele>871.0</ele><time>2026-05-03T07:36:01.009Z</time></trkpt><trkpt lat="42.3629137" lon="13.4971677"><ele>871.0</ele><time>2026-05-03T07:36:02.008Z</time></trkpt><trkpt lat="42.3629014" lon="13.4972545"><ele>871.0</ele><time>2026-05-03T07:36:03.009Z</time></trkpt><trkpt lat="42.3628926" lon="13.4974206"><ele>870.9999999999999</ele><time>2026-05-03T07:36:05.009Z</time></trkpt><trkpt lat="42.3629056" lon="13.4975657"><ele>871.0</ele><time>2026-05-03T07:36:07.008Z</time></trkpt><trkpt lat="42.3629499" lon="13.4976956"><ele>871.6666666666666</ele><time>2026-05-03T07:36:09.008Z</time></trkpt><trkpt lat="42.3630138" lon="13.4978396"><ele>872.3333333333333</ele><time>2026-05-03T07:36:11.009Z</time></trkpt><trkpt lat="42.3630551" lon="13.4979095"><ele>873.0</ele><time>2026-05-03T07:36:12.009Z</time></trkpt><trkpt lat="42.3631168" lon="13.4979942"><ele>873.6666666666667</ele><time>2026-05-03T07:36:14.009Z</time></trkpt><trkpt lat="42.3631797" lon="13.4980759"><ele>874.3333333333334</ele><time>2026-05-03T07:36:22.008Z</time></trkpt><trkpt lat="42.3632339" lon="13.498122"><ele>875.0</ele><time>2026-05-03T07:36:24.008Z</time></trkpt><trkpt lat="42.363316" lon="13.4981987"><ele>878.6</ele><time>2026-05-03T07:36:27.009Z</time></trkpt><trkpt lat="42.3633956" lon="13.4982655"><ele>882.2</ele><time>2026-05-03T07:36:29.009Z</time></trkpt><trkpt lat="42.3634728" lon="13.498333"><ele>885.8</ele><time>2026-05-03T07:36:31.009Z</time></trkpt><trkpt lat="42.3635598" lon="13.4984154"><ele>889.4</ele><time>2026-05-03T07:36:33.008Z</time></trkpt><trkpt lat="42.3636181" lon="13.4985126"><ele>893.0</ele><time>2026-05-03T07:36:35.009Z</time></trkpt><trkpt lat="42.3636491" lon="13.4986228"><ele>893.0</ele><time>2026-05-03T07:36:37.009Z</time></trkpt><trkpt lat="42.3636795" lon="13.4987194"><ele>893.0</ele><time>2026-05-03T07:36:39.009Z</time></trkpt><trkpt lat="42.3637137" lon="13.4988448"><ele>893.0</ele><time>2026-05-03T07:36:41.008Z</time></trkpt><trkpt lat="42.3637585" lon="13.4989693"><ele>893.0</ele><time>2026-05-03T07:36:43.009Z</time></trkpt><trkpt lat="42.363819" lon="13.4990317"><ele>893.0</ele><time>2026-05-03T07:36:45.009Z</time></trkpt><trkpt lat="42.3638999" lon="13.4991158"><ele>895.5999999999999</ele><time>2026-05-03T07:36:47.009Z</time></trkpt><trkpt lat="42.3639566" lon="13.4992269"><ele>898.1999999999999</ele><time>2026-05-03T07:36:49.009Z</time></trkpt><trkpt lat="42.3640009" lon="13.4993501"><ele>900.8</ele><time>2026-05-03T07:36:51.008Z</time></trkpt><trkpt lat="42.3640749" lon="13.4994605"><ele>903.4</ele><time>2026-05-03T07:36:53.008Z</time></trkpt><trkpt lat="42.3641591" lon="13.4995637"><ele>906.0</ele><time>2026-05-03T07:36:55.008Z</time></trkpt><trkpt lat="42.3642015" lon="13.4996292"><ele>906.3333333333334</ele><time>2026-05-03T07:36:56.008Z</time></trkpt><trkpt lat="42.3642413" lon="13.4997024"><ele>906.6666666666667</ele><time>2026-05-03T07:36:57.009Z</time></trkpt><trkpt lat="42.3642806" lon="13.4997803"><ele>907.0</ele><time>2026-05-03T07:36:58.009Z</time></trkpt><trkpt lat="42.3643242" lon="13.4998623"><ele>907.3333333333334</ele><time>2026-05-03T07:36:59.009Z</time></trkpt><trkpt lat="42.3643693" lon="13.499958"><ele>907.6666666666667</ele><time>2026-05-03T07:37:00.009Z</time></trkpt><trkpt lat="42.3644137" lon="13.5000533"><ele>908.0</ele><time>2026-05-03T07:37:01.009Z</time></trkpt><trkpt lat="42.3644532" lon="13.5001394"><ele>908.0000000000001</ele><time>2026-05-03T07:37:02.009Z</time></trkpt><trkpt lat="42.3644908" lon="13.5002239"><ele>908.0</ele><time>2026-05-03T07:37:03.008Z</time></trkpt><trkpt lat="42.3645338" lon="13.5003032"><ele>908.0</ele><time>2026-05-03T07:37:04.008Z</time></trkpt><trkpt lat="42.3645737" lon="13.5003939"><ele>908.0</ele><time>2026-05-03T07:37:05.009Z</time></trkpt><trkpt lat="42.3646058" lon="13.5004786"><ele>908.0000000000001</ele><time>2026-05-03T07:37:06.008Z</time></trkpt><trkpt lat="42.3646664" lon="13.5006249"><ele>908.0</ele><time>2026-05-03T07:37:08.009Z</time></trkpt><trkpt lat="42.3646952" lon="13.500704"><ele>909.7142857142858</ele><time>2026-05-03T07:37:09.008Z</time></trkpt><trkpt lat="42.3647258" lon="13.5007795"><ele>911.4285714285716</ele><time>2026-05-03T07:37:10.009Z</time></trkpt><trkpt lat="42.3647584" lon="13.5008562"><ele>913.1428571428571</ele><time>2026-05-03T07:37:11.009Z</time></trkpt><trkpt lat="42.3647892" lon="13.5009357"><ele>914.8571428571429</ele><time>2026-05-03T07:37:12.008Z</time></trkpt><trkpt lat="42.3648204" lon="13.5010175"><ele>916.5714285714286</ele><time>2026-05-03T07:37:13.009Z</time></trkpt><trkpt lat="42.3648484" lon="13.5010961"><ele>918.2857142857142</ele><time>2026-05-03T07:37:14.008Z</time></trkpt><trkpt lat="42.3648734" lon="13.5011763"><ele>919.9999999999999</ele><time>2026-05-03T07:37:15.008Z</time></trkpt><trkpt lat="42.364909" lon="13.501309"><ele>921.1666666666667</ele><time>2026-05-03T07:37:17.008Z</time></trkpt><trkpt lat="42.3649275" lon="13.501437"><ele>922.3333333333334</ele><time>2026-05-03T07:37:19.009Z</time></trkpt><trkpt lat="42.3649555" lon="13.5015856"><ele>923.5</ele><time>2026-05-03T07:37:21.009Z</time></trkpt><trkpt lat="42.3649766" lon="13.501672"><ele>924.6666666666667</ele><time>2026-05-03T07:37:22.008Z</time></trkpt><trkpt lat="42.3649963" lon="13.5017595"><ele>925.8333333333334</ele><time>2026-05-03T07:37:23.009Z</time></trkpt><trkpt lat="42.3650213" lon="13.5018491"><ele>927.0</ele><time>2026-05-03T07:37:24.008Z</time></trkpt><trkpt lat="42.3650715" lon="13.5020108"><ele>927.8571428571427</ele><time>2026-05-03T07:37:26.009Z</time></trkpt><trkpt lat="42.3650989" lon="13.5020991"><ele>928.7142857142857</ele><time>2026-05-03T07:37:27.009Z</time></trkpt><trkpt lat="42.3651226" lon="13.5021911"><ele>929.5714285714284</ele><time>2026-05-03T07:37:28.009Z</time></trkpt><trkpt lat="42.365145" lon="13.5022814"><ele>930.4285714285713</ele><time>2026-05-03T07:37:29.008Z</time></trkpt><trkpt lat="42.3651636" lon="13.5023751"><ele>931.2857142857142</ele><time>2026-05-03T07:37:30.008Z</time></trkpt><trkpt lat="42.3651769" lon="13.5024628"><ele>932.1428571428571</ele><time>2026-05-03T07:37:31.009Z</time></trkpt><trkpt lat="42.3651893" lon="13.5025488"><ele>933.0</ele><time>2026-05-03T07:37:32.008Z</time></trkpt><trkpt lat="42.3652102" lon="13.5026361"><ele>933.0</ele><time>2026-05-03T07:37:33.008Z</time></trkpt><trkpt lat="42.3652367" lon="13.5027216"><ele>932.9999999999999</ele><time>2026-05-03T07:37:34.008Z</time></trkpt><trkpt lat="42.3652619" lon="13.5028062"><ele>933.0</ele><time>2026-05-03T07:37:35.008Z</time></trkpt><trkpt lat="42.3652888" lon="13.502895"><ele>933.0</ele><time>2026-05-03T07:37:36.008Z</time></trkpt><trkpt lat="42.3653194" lon="13.502977"><ele>932.9999999999999</ele><time>2026-05-03T07:37:37.008Z</time></trkpt><trkpt lat="42.3653548" lon="13.503052"><ele>933.0</ele><time>2026-05-03T07:37:38.008Z</time></trkpt><trkpt lat="42.3653987" lon="13.5031313"><ele>933.0</ele><time>2026-05-03T07:37:39.009Z</time></trkpt><trkpt lat="42.3654455" lon="13.503218"><ele>934.3333333333334</ele><time>2026-05-03T07:37:40.009Z</time></trkpt><trkpt lat="42.3654895" lon="13.5033134"><ele>935.6666666666667</ele><time>2026-05-03T07:37:41.009Z</time></trkpt><trkpt lat="42.3655312" lon="13.5034026"><ele>937.0</ele><time>2026-05-03T07:37:42.009Z</time></trkpt><trkpt lat="42.3655769" lon="13.5034801"><ele>938.3333333333334</ele><time>2026-05-03T07:37:43.008Z</time></trkpt><trkpt lat="42.3656221" lon="13.5035591"><ele>939.6666666666667</ele><time>2026-05-03T07:37:44.009Z</time></trkpt><trkpt lat="42.3656623" lon="13.5036432"><ele>941.0</ele><time>2026-05-03T07:37:45.008Z</time></trkpt><trkpt lat="42.3656972" lon="13.5037322"><ele>941.6666666666667</ele><time>2026-05-03T07:37:46.008Z</time></trkpt><trkpt lat="42.3657236" lon="13.5038215"><ele>942.3333333333334</ele><time>2026-05-03T07:37:47.009Z</time></trkpt><trkpt lat="42.3657454" lon="13.5039062"><ele>943.0</ele><time>2026-05-03T07:37:48.008Z</time></trkpt><trkpt lat="42.3657737" lon="13.503998"><ele>943.6666666666667</ele><time>2026-05-03T07:37:49.008Z</time></trkpt><trkpt lat="42.3658032" lon="13.5040861"><ele>944.3333333333334</ele><time>2026-05-03T07:37:50.008Z</time></trkpt><trkpt lat="42.3658236" lon="13.5041733"><ele>945.0</ele><time>2026-05-03T07:37:51.009Z</time></trkpt><trkpt lat="42.3658495" lon="13.5043116"><ele>945.0</ele><time>2026-05-03T07:37:53.009Z</time></trkpt><trkpt lat="42.3658543" lon="13.5044003"><ele>945.0</ele><time>2026-05-03T07:37:55.009Z</time></trkpt><trkpt lat="42.3658475" lon="13.5044888"><ele>945.0</ele><time>2026-05-03T07:37:58.009Z</time></trkpt><trkpt lat="42.3658336" lon="13.5046129"><ele>945.0</ele><time>2026-05-03T07:38:01.008Z</time></trkpt><trkpt lat="42.3658185" lon="13.5047463"><ele>945.0</ele><time>2026-05-03T07:38:03.008Z</time></trkpt><trkpt lat="42.3658296" lon="13.504905"><ele>945.0</ele><time>2026-05-03T07:38:05.009Z</time></trkpt><trkpt lat="42.3658439" lon="13.504997"><ele>945.1428571428571</ele><time>2026-05-03T07:38:06.009Z</time></trkpt><trkpt lat="42.3658593" lon="13.5050838"><ele>945.2857142857142</ele><time>2026-05-03T07:38:07.008Z</time></trkpt><trkpt lat="42.3658791" lon="13.5051723"><ele>945.4285714285714</ele><time>2026-05-03T07:38:08.009Z</time></trkpt><trkpt lat="42.3658981" lon="13.5052618"><ele>945.5714285714286</ele><time>2026-05-03T07:38:09.008Z</time></trkpt><trkpt lat="42.3659216" lon="13.5053612"><ele>945.7142857142857</ele><time>2026-05-03T07:38:10.009Z</time></trkpt><trkpt lat="42.3659395" lon="13.5054616"><ele>945.8571428571429</ele><time>2026-05-03T07:38:11.009Z</time></trkpt><trkpt lat="42.3659587" lon="13.5055654"><ele>946.0</ele><time>2026-05-03T07:38:12.008Z</time></trkpt><trkpt lat="42.3659731" lon="13.5056766"><ele>946.1999999999999</ele><time>2026-05-03T07:38:13.008Z</time></trkpt><trkpt lat="42.3659835" lon="13.5057915"><ele>946.3999999999999</ele><time>2026-05-03T07:38:14.008Z</time></trkpt><trkpt lat="42.3659994" lon="13.5058943"><ele>946.6</ele><time>2026-05-03T07:38:15.008Z</time></trkpt><trkpt lat="42.3660171" lon="13.5060544"><ele>946.8</ele><time>2026-05-03T07:38:17.009Z</time></trkpt><trkpt lat="42.3660299" lon="13.5062297"><ele>947.0</ele><time>2026-05-03T07:38:19.009Z</time></trkpt><trkpt lat="42.3660384" lon="13.5063335"><ele>947.4000000000001</ele><time>2026-05-03T07:38:20.009Z</time></trkpt><trkpt lat="42.3660558" lon="13.5064202"><ele>947.8000000000001</ele><time>2026-05-03T07:38:21.009Z</time></trkpt><trkpt lat="42.3661219" lon="13.5065612"><ele>948.2</ele><time>2026-05-03T07:38:23.009Z</time></trkpt><trkpt lat="42.3661887" lon="13.5066928"><ele>948.6</ele><time>2026-05-03T07:38:25.008Z</time></trkpt><trkpt lat="42.3662576" lon="13.5068449"><ele>949.0</ele><time>2026-05-03T07:38:27.009Z</time></trkpt><trkpt lat="42.3663096" lon="13.5069189"><ele>948.9999999999999</ele><time>2026-05-03T07:38:28.008Z</time></trkpt><trkpt lat="42.3663613" lon="13.5069814"><ele>949.0</ele><time>2026-05-03T07:38:29.009Z</time></trkpt><trkpt lat="42.3664183" lon="13.5070478"><ele>949.0</ele><time>2026-05-03T07:38:30.009Z</time></trkpt><trkpt lat="42.3664667" lon="13.507117"><ele>949.0</ele><time>2026-05-03T07:38:31.008Z</time></trkpt><trkpt lat="42.3665152" lon="13.5071854"><ele>948.9999999999999</ele><time>2026-05-03T07:38:32.009Z</time></trkpt><trkpt lat="42.3665769" lon="13.5072902"><ele>949.0</ele><time>2026-05-03T07:38:34.009Z</time></trkpt><trkpt lat="42.3666168" lon="13.507379"><ele>950.8333333333333</ele><time>2026-05-03T07:38:37.008Z</time></trkpt><trkpt lat="42.3666884" lon="13.5074572"><ele>952.6666666666666</ele><time>2026-05-03T07:38:45.009Z</time></trkpt><trkpt lat="42.3667318" lon="13.5075226"><ele>954.5</ele><time>2026-05-03T07:38:48.009Z</time></trkpt><trkpt lat="42.366778" lon="13.5076018"><ele>956.3333333333333</ele><time>2026-05-03T07:38:51.008Z</time></trkpt><trkpt lat="42.3668121" lon="13.5076998"><ele>958.1666666666666</ele><time>2026-05-03T07:38:53.008Z</time></trkpt><trkpt lat="42.366827" lon="13.5077851"><ele>960.0</ele><time>2026-05-03T07:38:56.008Z</time></trkpt><trkpt lat="42.366734" lon="13.5078007"><ele>960.0</ele><time>2026-05-03T07:38:59.009Z</time></trkpt><trkpt lat="42.3666644" lon="13.5077378"><ele>960.0</ele><time>2026-05-03T07:39:01.008Z</time></trkpt><trkpt lat="42.3665972" lon="13.5076979"><ele>960.0</ele><time>2026-05-03T07:39:03.008Z</time></trkpt><trkpt lat="42.3665271" lon="13.5077507"><ele>960.0</ele><time>2026-05-03T07:39:05.008Z</time></trkpt><trkpt lat="42.3664236" lon="13.5078453"><ele>960.0</ele><time>2026-05-03T07:39:07.008Z</time></trkpt><trkpt lat="42.3663627" lon="13.5078894"><ele>960.0</ele><time>2026-05-03T07:39:08.008Z</time></trkpt><trkpt lat="42.3662981" lon="13.5079345"><ele>958.8333333333334</ele><time>2026-05-03T07:39:09.009Z</time></trkpt><trkpt lat="42.3662277" lon="13.5079807"><ele>957.6666666666667</ele><time>2026-05-03T07:39:10.008Z</time></trkpt><trkpt lat="42.3661652" lon="13.5080238"><ele>956.5</ele><time>2026-05-03T07:39:11.009Z</time></trkpt><trkpt lat="42.3661107" lon="13.5080669"><ele>955.3333333333334</ele><time>2026-05-03T07:39:12.009Z</time></trkpt><trkpt lat="42.3660312" lon="13.5081974"><ele>954.1666666666667</ele><time>2026-05-03T07:39:14.008Z</time></trkpt><trkpt lat="42.3659902" lon="13.5082793"><ele>953.0</ele><time>2026-05-03T07:39:15.008Z</time></trkpt><trkpt lat="42.3659544" lon="13.5083596"><ele>953.0</ele><time>2026-05-03T07:39:16.008Z</time></trkpt><trkpt lat="42.3658848" lon="13.5084787"><ele>953.0</ele><time>2026-05-03T07:39:18.009Z</time></trkpt><trkpt lat="42.3658157" lon="13.5085564"><ele>953.0</ele><time>2026-05-03T07:39:20.008Z</time></trkpt><trkpt lat="42.3657768" lon="13.508659"><ele>953.0</ele><time>2026-05-03T07:39:23.009Z</time></trkpt><trkpt lat="42.3657641" lon="13.5088268"><ele>953.0</ele><time>2026-05-03T07:39:25.008Z</time></trkpt><trkpt lat="42.3657378" lon="13.5089222"><ele>954.2</ele><time>2026-05-03T07:39:26.008Z</time></trkpt><trkpt lat="42.3657102" lon="13.5090055"><ele>955.4</ele><time>2026-05-03T07:39:27.009Z</time></trkpt><trkpt lat="42.3656391" lon="13.5091276"><ele>956.6000000000001</ele><time>2026-05-03T07:39:29.008Z</time></trkpt><trkpt lat="42.3656076" lon="13.509272"><ele>957.8000000000001</ele><time>2026-05-03T07:39:31.008Z</time></trkpt><trkpt lat="42.3656028" lon="13.5094258"><ele>959.0</ele><time>2026-05-03T07:39:33.009Z</time></trkpt><trkpt lat="42.365616" lon="13.5095421"><ele>958.6666666666667</ele><time>2026-05-03T07:39:35.009Z</time></trkpt><trkpt lat="42.3656406" lon="13.5096326"><ele>958.3333333333334</ele><time>2026-05-03T07:39:37.009Z</time></trkpt><trkpt lat="42.3657007" lon="13.5097117"><ele>958.0</ele><time>2026-05-03T07:39:39.008Z</time></trkpt><trkpt lat="42.3658139" lon="13.509802"><ele>957.6666666666667</ele><time>2026-05-03T07:39:41.009Z</time></trkpt><trkpt lat="42.3658677" lon="13.5098477"><ele>957.3333333333334</ele><time>2026-05-03T07:39:42.008Z</time></trkpt><trkpt lat="42.3659289" lon="13.5098824"><ele>957.0</ele><time>2026-05-03T07:39:43.009Z</time></trkpt><trkpt lat="42.3659922" lon="13.5098958"><ele>957.0</ele><time>2026-05-03T07:39:44.008Z</time></trkpt><trkpt lat="42.3660825" lon="13.509972"><ele>957.0</ele><time>2026-05-03T07:39:46.008Z</time></trkpt><trkpt lat="42.3660627" lon="13.5101086"><ele>957.0</ele><time>2026-05-03T07:39:48.008Z</time></trkpt><trkpt lat="42.3660108" lon="13.5102688"><ele>957.0</ele><time>2026-05-03T07:39:50.009Z</time></trkpt><trkpt lat="42.365988" lon="13.5103644"><ele>957.0</ele><time>2026-05-03T07:39:51.009Z</time></trkpt><trkpt lat="42.3659595" lon="13.5104572"><ele>956.8571428571429</ele><time>2026-05-03T07:39:52.009Z</time></trkpt><trkpt lat="42.3659214" lon="13.5105354"><ele>956.7142857142858</ele><time>2026-05-03T07:39:53.008Z</time></trkpt><trkpt lat="42.3658681" lon="13.5106049"><ele>956.5714285714287</ele><time>2026-05-03T07:39:54.009Z</time></trkpt><trkpt lat="42.3658026" lon="13.5106572"><ele>956.4285714285716</ele><time>2026-05-03T07:39:55.008Z</time></trkpt><trkpt lat="42.3657461" lon="13.5107077"><ele>956.2857142857143</ele><time>2026-05-03T07:39:56.009Z</time></trkpt><trkpt lat="42.3657001" lon="13.5107735"><ele>956.1428571428573</ele><time>2026-05-03T07:39:57.009Z</time></trkpt><trkpt lat="42.3656622" lon="13.5108467"><ele>956.0000000000001</ele><time>2026-05-03T07:39:58.008Z</time></trkpt><trkpt lat="42.3656256" lon="13.5109331"><ele>956.0000000000001</ele><time>2026-05-03T07:39:59.009Z</time></trkpt><trkpt lat="42.3655961" lon="13.5110297"><ele>956.0</ele><time>2026-05-03T07:40:00.008Z</time></trkpt><trkpt lat="42.3655694" lon="13.5111923"><ele>956.0</ele><time>2026-05-03T07:40:02.009Z</time></trkpt><trkpt lat="42.3655689" lon="13.5112829"><ele>956.0</ele><time>2026-05-03T07:40:03.009Z</time></trkpt><trkpt lat="42.3655595" lon="13.5113732"><ele>956.0000000000001</ele><time>2026-05-03T07:40:04.008Z</time></trkpt><trkpt lat="42.3655307" lon="13.5114723"><ele>956.0</ele><time>2026-05-03T07:40:05.008Z</time></trkpt><trkpt lat="42.3654897" lon="13.5115795"><ele>956.1666666666667</ele><time>2026-05-03T07:40:06.008Z</time></trkpt><trkpt lat="42.3654533" lon="13.5116795"><ele>956.3333333333334</ele><time>2026-05-03T07:40:07.009Z</time></trkpt><trkpt lat="42.3654225" lon="13.5117784"><ele>956.5</ele><time>2026-05-03T07:40:08.009Z</time></trkpt><trkpt lat="42.3653965" lon="13.5118769"><ele>956.6666666666667</ele><time>2026-05-03T07:40:09.008Z</time></trkpt><trkpt lat="42.3653709" lon="13.5120244"><ele>956.8333333333334</ele><time>2026-05-03T07:40:11.009Z</time></trkpt><trkpt lat="42.3653655" lon="13.5121412"><ele>957.0</ele><time>2026-05-03T07:40:13.008Z</time></trkpt><trkpt lat="42.3653655" lon="13.5122289"><ele>957.0</ele><time>2026-05-03T07:40:15.009Z</time></trkpt><trkpt lat="42.3653766" lon="13.5123411"><ele>957.0</ele><time>2026-05-03T07:40:17.008Z</time></trkpt><trkpt lat="42.3654089" lon="13.5124531"><ele>957.0</ele><time>2026-05-03T07:40:19.008Z</time></trkpt><trkpt lat="42.365447" lon="13.5125857"><ele>957.0</ele><time>2026-05-03T07:40:21.009Z</time></trkpt><trkpt lat="42.3654772" lon="13.5127554"><ele>957.0</ele><time>2026-05-03T07:40:23.008Z</time></trkpt><trkpt lat="42.3654952" lon="13.5128679"><ele>959.1666666666666</ele><time>2026-05-03T07:40:24.009Z</time></trkpt><trkpt lat="42.3655092" lon="13.5129906"><ele>961.3333333333333</ele><time>2026-05-03T07:40:25.008Z</time></trkpt><trkpt lat="42.3655241" lon="13.5130968"><ele>963.5</ele><time>2026-05-03T07:40:26.008Z</time></trkpt><trkpt lat="42.3655347" lon="13.5132025"><ele>965.6666666666666</ele><time>2026-05-03T07:40:28.009Z</time></trkpt><trkpt lat="42.3654692" lon="13.5132281"><ele>967.8333333333333</ele><time>2026-05-03T07:40:35.009Z</time></trkpt><trkpt lat="42.3653682" lon="13.5131578"><ele>970.0</ele><time>2026-05-03T07:40:37.009Z</time></trkpt><trkpt lat="42.3652867" lon="13.5130217"><ele>969.9999999999999</ele><time>2026-05-03T07:40:39.009Z</time></trkpt><trkpt lat="42.3652386" lon="13.5129284"><ele>970.0</ele><time>2026-05-03T07:40:40.009Z</time></trkpt><trkpt lat="42.3651897" lon="13.5128358"><ele>970.0</ele><time>2026-05-03T07:40:41.009Z</time></trkpt><trkpt lat="42.3651388" lon="13.5127609"><ele>970.0</ele><time>2026-05-03T07:40:42.009Z</time></trkpt><trkpt lat="42.365082" lon="13.5126921"><ele>969.9999999999999</ele><time>2026-05-03T07:40:43.009Z</time></trkpt><trkpt lat="42.3650321" lon="13.5126173"><ele>970.0</ele><time>2026-05-03T07:40:44.009Z</time></trkpt><trkpt lat="42.364987" lon="13.5125443"><ele>968.1428571428573</ele><time>2026-05-03T07:40:45.009Z</time></trkpt><trkpt lat="42.3649435" lon="13.5124641"><ele>966.2857142857143</ele><time>2026-05-03T07:40:46.009Z</time></trkpt><trkpt lat="42.3649013" lon="13.5123864"><ele>964.4285714285716</ele><time>2026-05-03T07:40:47.009Z</time></trkpt><trkpt lat="42.3648572" lon="13.5123176"><ele>962.5714285714287</ele><time>2026-05-03T07:40:48.008Z</time></trkpt><trkpt lat="42.3648117" lon="13.5122528"><ele>960.7142857142858</ele><time>2026-05-03T07:40:49.009Z</time></trkpt><trkpt lat="42.3647662" lon="13.5121839"><ele>958.8571428571429</ele><time>2026-05-03T07:40:50.008Z</time></trkpt><trkpt lat="42.3647192" lon="13.5121144"><ele>957.0</ele><time>2026-05-03T07:40:51.008Z</time></trkpt><trkpt lat="42.3646643" lon="13.5120557"><ele>955.4285714285714</ele><time>2026-05-03T07:40:52.009Z</time></trkpt><trkpt lat="42.3646043" lon="13.5120006"><ele>953.8571428571429</ele><time>2026-05-03T07:40:53.008Z</time></trkpt><trkpt lat="42.3645402" lon="13.5119458"><ele>952.2857142857143</ele><time>2026-05-03T07:40:54.008Z</time></trkpt><trkpt lat="42.3644818" lon="13.5118811"><ele>950.7142857142858</ele><time>2026-05-03T07:40:55.008Z</time></trkpt><trkpt lat="42.3644264" lon="13.511809"><ele>949.1428571428571</ele><time>2026-05-03T07:40:56.009Z</time></trkpt><trkpt lat="42.3643749" lon="13.5117421"><ele>947.5714285714287</ele><time>2026-05-03T07:40:57.008Z</time></trkpt><trkpt lat="42.3643229" lon="13.5116845"><ele>946.0</ele><time>2026-05-03T07:40:58.009Z</time></trkpt><trkpt lat="42.3642363" lon="13.5115702"><ele>946.0</ele><time>2026-05-03T07:41:00.008Z</time></trkpt><trkpt lat="42.3641489" lon="13.5114792"><ele>945.9999999999999</ele><time>2026-05-03T07:41:02.008Z</time></trkpt><trkpt lat="42.3640342" lon="13.5114306"><ele>945.9999999999999</ele><time>2026-05-03T07:41:04.009Z</time></trkpt><trkpt lat="42.3639738" lon="13.5114017"><ele>946.0</ele><time>2026-05-03T07:41:05.009Z</time></trkpt><trkpt lat="42.3638547" lon="13.5113671"><ele>946.0</ele><time>2026-05-03T07:41:07.008Z</time></trkpt><trkpt lat="42.3637303" lon="13.5113405"><ele>946.1666666666666</ele><time>2026-05-03T07:41:09.009Z</time></trkpt><trkpt lat="42.3636681" lon="13.5113242"><ele>946.3333333333333</ele><time>2026-05-03T07:41:10.008Z</time></trkpt><trkpt lat="42.3635521" lon="13.5112862"><ele>946.5</ele><time>2026-05-03T07:41:12.008Z</time></trkpt><trkpt lat="42.3634368" lon="13.5112721"><ele>946.6666666666667</ele><time>2026-05-03T07:41:14.008Z</time></trkpt><trkpt lat="42.3633716" lon="13.5112734"><ele>946.8333333333334</ele><time>2026-05-03T07:41:15.008Z</time></trkpt><trkpt lat="42.3633069" lon="13.5112636"><ele>947.0</ele><time>2026-05-03T07:41:16.009Z</time></trkpt><trkpt lat="42.3632441" lon="13.5112419"><ele>946.0000000000001</ele><time>2026-05-03T07:41:17.008Z</time></trkpt><trkpt lat="42.3631443" lon="13.5111605"><ele>945.0</ele><time>2026-05-03T07:41:19.009Z</time></trkpt><trkpt lat="42.3630983" lon="13.5110887"><ele>944.0</ele><time>2026-05-03T07:41:20.008Z</time></trkpt><trkpt lat="42.3630497" lon="13.5110092"><ele>943.0</ele><time>2026-05-03T07:41:21.009Z</time></trkpt><trkpt lat="42.3629926" lon="13.5109468"><ele>942.0000000000001</ele><time>2026-05-03T07:41:22.009Z</time></trkpt><trkpt lat="42.3629307" lon="13.5108903"><ele>941.0</ele><time>2026-05-03T07:41:23.009Z</time></trkpt><trkpt lat="42.3628751" lon="13.5108235"><ele>939.5000000000001</ele><time>2026-05-03T07:41:24.008Z</time></trkpt><trkpt lat="42.3628258" lon="13.5107459"><ele>938.0</ele><time>2026-05-03T07:41:25.008Z</time></trkpt><trkpt lat="42.3627711" lon="13.5106702"><ele>936.5</ele><time>2026-05-03T07:41:26.008Z</time></trkpt><trkpt lat="42.362708" lon="13.5105995"><ele>935.0</ele><time>2026-05-03T07:41:27.008Z</time></trkpt><trkpt lat="42.3626481" lon="13.5105414"><ele>933.5000000000001</ele><time>2026-05-03T07:41:28.009Z</time></trkpt><trkpt lat="42.3625881" lon="13.5105126"><ele>932.0</ele><time>2026-05-03T07:41:29.008Z</time></trkpt><trkpt lat="42.3624649" lon="13.5105263"><ele>932.0000000000001</ele><time>2026-05-03T07:41:31.008Z</time></trkpt><trkpt lat="42.3624026" lon="13.5105419"><ele>932.0</ele><time>2026-05-03T07:41:32.008Z</time></trkpt><trkpt lat="42.3623336" lon="13.5105504"><ele>932.0</ele><time>2026-05-03T07:41:33.009Z</time></trkpt><trkpt lat="42.3622649" lon="13.5105594"><ele>932.0</ele><time>2026-05-03T07:41:34.008Z</time></trkpt><trkpt lat="42.3621976" lon="13.510576"><ele>932.0000000000001</ele><time>2026-05-03T07:41:35.009Z</time></trkpt><trkpt lat="42.3621349" lon="13.5106018"><ele>932.0</ele><time>2026-05-03T07:41:36.008Z</time></trkpt><trkpt lat="42.3620191" lon="13.5106424"><ele>930.8571428571429</ele><time>2026-05-03T07:41:38.009Z</time></trkpt><trkpt lat="42.3619516" lon="13.5106453"><ele>929.7142857142857</ele><time>2026-05-03T07:41:39.009Z</time></trkpt><trkpt lat="42.3618777" lon="13.5106546"><ele>928.5714285714286</ele><time>2026-05-03T07:41:40.008Z</time></trkpt><trkpt lat="42.3618104" lon="13.5106794"><ele>927.4285714285714</ele><time>2026-05-03T07:41:41.008Z</time></trkpt><trkpt lat="42.3617432" lon="13.5107142"><ele>926.2857142857142</ele><time>2026-05-03T07:41:42.009Z</time></trkpt><trkpt lat="42.3616724" lon="13.5107336"><ele>925.1428571428571</ele><time>2026-05-03T07:41:43.009Z</time></trkpt><trkpt lat="42.3616047" lon="13.5107351"><ele>924.0</ele><time>2026-05-03T07:41:44.009Z</time></trkpt><trkpt lat="42.3615382" lon="13.510731"><ele>924.0</ele><time>2026-05-03T07:41:45.009Z</time></trkpt><trkpt lat="42.3614713" lon="13.5107311"><ele>924.0</ele><time>2026-05-03T07:41:46.009Z</time></trkpt><trkpt lat="42.3614032" lon="13.5107258"><ele>924.0</ele><time>2026-05-03T07:41:47.008Z</time></trkpt><trkpt lat="42.3613402" lon="13.5107154"><ele>924.0</ele><time>2026-05-03T07:41:48.009Z</time></trkpt><trkpt lat="42.3612767" lon="13.5106915"><ele>924.0</ele><time>2026-05-03T07:41:49.009Z</time></trkpt><trkpt lat="42.3612093" lon="13.5106534"><ele>924.0</ele><time>2026-05-03T07:41:50.008Z</time></trkpt><trkpt lat="42.3611413" lon="13.5106151"><ele>924.0</ele><time>2026-05-03T07:41:51.008Z</time></trkpt><trkpt lat="42.3610678" lon="13.5105939"><ele>923.1666666666666</ele><time>2026-05-03T07:41:52.008Z</time></trkpt><trkpt lat="42.3609916" lon="13.5105858"><ele>922.3333333333333</ele><time>2026-05-03T07:41:53.008Z</time></trkpt><trkpt lat="42.3609204" lon="13.5105776"><ele>921.5</ele><time>2026-05-03T07:41:54.009Z</time></trkpt><trkpt lat="42.3608553" lon="13.5105565"><ele>920.6666666666666</ele><time>2026-05-03T07:41:55.008Z</time></trkpt><trkpt lat="42.3607518" lon="13.5105099"><ele>919.8333333333333</ele><time>2026-05-03T07:41:57.009Z</time></trkpt><trkpt lat="42.3606889" lon="13.5104789"><ele>919.0</ele><time>2026-05-03T07:41:59.009Z</time></trkpt><trkpt lat="42.3606444" lon="13.5104073"><ele>918.8571428571428</ele><time>2026-05-03T07:42:03.008Z</time></trkpt><trkpt lat="42.3605912" lon="13.5103474"><ele>918.7142857142856</ele><time>2026-05-03T07:42:05.008Z</time></trkpt><trkpt lat="42.3605337" lon="13.5102884"><ele>918.5714285714286</ele><time>2026-05-03T07:42:07.008Z</time></trkpt><trkpt lat="42.3604746" lon="13.5102511"><ele>918.4285714285713</ele><time>2026-05-03T07:42:09.008Z</time></trkpt><trkpt lat="42.3604147" lon="13.5102161"><ele>918.2857142857142</ele><time>2026-05-03T07:42:11.008Z</time></trkpt><trkpt lat="42.3603578" lon="13.5101542"><ele>918.1428571428571</ele><time>2026-05-03T07:42:13.008Z</time></trkpt><trkpt lat="42.3602936" lon="13.5100813"><ele>918.0</ele><time>2026-05-03T07:42:16.009Z</time></trkpt><trkpt lat="42.3602441" lon="13.5100224"><ele>916.0</ele><time>2026-05-03T07:42:18.009Z</time></trkpt><trkpt lat="42.3601777" lon="13.5099362"><ele>914.0</ele><time>2026-05-03T07:42:20.009Z</time></trkpt><trkpt lat="42.3601224" lon="13.5098663"><ele>912.0</ele><time>2026-05-03T07:42:22.009Z</time></trkpt><trkpt lat="42.3600729" lon="13.5098084"><ele>910.0</ele><time>2026-05-03T07:42:24.009Z</time></trkpt><trkpt lat="42.3600138" lon="13.509742"><ele>908.0</ele><time>2026-05-03T07:42:26.008Z</time></trkpt><trkpt lat="42.3599565" lon="13.5096536"><ele>906.0</ele><time>2026-05-03T07:42:28.009Z</time></trkpt><trkpt lat="42.3599305" lon="13.5095678"><ele>905.8333333333334</ele><time>2026-05-03T07:42:30.008Z</time></trkpt><trkpt lat="42.3599079" lon="13.5094743"><ele>905.6666666666667</ele><time>2026-05-03T07:42:32.009Z</time></trkpt><trkpt lat="42.3598908" lon="13.5093432"><ele>905.5</ele><time>2026-05-03T07:42:34.009Z</time></trkpt><trkpt lat="42.3598704" lon="13.509261"><ele>905.3333333333334</ele><time>2026-05-03T07:42:35.01Z</time></trkpt><trkpt lat="42.3598389" lon="13.5091714"><ele>905.1666666666667</ele><time>2026-05-03T07:42:36.009Z</time></trkpt><trkpt lat="42.3598079" lon="13.5090777"><ele>905.0</ele><time>2026-05-03T07:42:37.009Z</time></trkpt><trkpt lat="42.3597907" lon="13.5089806"><ele>905.0000000000001</ele><time>2026-05-03T07:42:38.01Z</time></trkpt><trkpt lat="42.3597764" lon="13.5088704"><ele>905.0</ele><time>2026-05-03T07:42:39.009Z</time></trkpt><trkpt lat="42.3597537" lon="13.5087527"><ele>905.0</ele><time>2026-05-03T07:42:40.01Z</time></trkpt><trkpt lat="42.3597279" lon="13.508643"><ele>905.0</ele><time>2026-05-03T07:42:41.01Z</time></trkpt><trkpt lat="42.3597072" lon="13.508532"><ele>905.0000000000001</ele><time>2026-05-03T07:42:42.01Z</time></trkpt><trkpt lat="42.3596905" lon="13.5084158"><ele>905.0</ele><time>2026-05-03T07:42:43.009Z</time></trkpt><trkpt lat="42.35967" lon="13.5083058"><ele>903.1666666666667</ele><time>2026-05-03T07:42:44.009Z</time></trkpt><trkpt lat="42.3596538" lon="13.5082008"><ele>901.3333333333334</ele><time>2026-05-03T07:42:45.01Z</time></trkpt><trkpt lat="42.3596391" lon="13.5080918"><ele>899.5</ele><time>2026-05-03T07:42:46.009Z</time></trkpt><trkpt lat="42.3596175" lon="13.5079754"><ele>897.6666666666667</ele><time>2026-05-03T07:42:47.01Z</time></trkpt><trkpt lat="42.3595929" lon="13.5078541"><ele>895.8333333333334</ele><time>2026-05-03T07:42:48.009Z</time></trkpt><trkpt lat="42.359572" lon="13.5077369"><ele>894.0</ele><time>2026-05-03T07:42:49.009Z</time></trkpt><trkpt lat="42.3595621" lon="13.5076282"><ele>892.8333333333334</ele><time>2026-05-03T07:42:50.009Z</time></trkpt><trkpt lat="42.3595633" lon="13.5075204"><ele>891.6666666666667</ele><time>2026-05-03T07:42:51.01Z</time></trkpt><trkpt lat="42.3595702" lon="13.5074173"><ele>890.5</ele><time>2026-05-03T07:42:52.009Z</time></trkpt><trkpt lat="42.3595684" lon="13.5073156"><ele>889.3333333333334</ele><time>2026-05-03T07:42:53.01Z</time></trkpt><trkpt lat="42.3595437" lon="13.5072189"><ele>888.1666666666667</ele><time>2026-05-03T07:42:54.01Z</time></trkpt><trkpt lat="42.3595096" lon="13.5071317"><ele>887.0</ele><time>2026-05-03T07:42:55.01Z</time></trkpt><trkpt lat="42.3594753" lon="13.507003"><ele>886.0000000000001</ele><time>2026-05-03T07:42:57.009Z</time></trkpt><trkpt lat="42.3594952" lon="13.5068499"><ele>885.0</ele><time>2026-05-03T07:42:59.009Z</time></trkpt><trkpt lat="42.3594951" lon="13.5067471"><ele>884.0</ele><time>2026-05-03T07:43:00.01Z</time></trkpt><trkpt lat="42.3594721" lon="13.5066549"><ele>883.0</ele><time>2026-05-03T07:43:01.01Z</time></trkpt><trkpt lat="42.3594358" lon="13.5065469"><ele>882.0000000000001</ele><time>2026-05-03T07:43:02.009Z</time></trkpt><trkpt lat="42.3594026" lon="13.5064338"><ele>881.0</ele><time>2026-05-03T07:43:03.01Z</time></trkpt><trkpt lat="42.3593826" lon="13.5063443"><ele>881.0000000000001</ele><time>2026-05-03T07:43:04.01Z</time></trkpt><trkpt lat="42.3593662" lon="13.5062503"><ele>881.0</ele><time>2026-05-03T07:43:06.01Z</time></trkpt><trkpt lat="42.3593152" lon="13.5061949"><ele>881.0</ele><time>2026-05-03T07:43:21.009Z</time></trkpt><trkpt lat="42.3592728" lon="13.5062797"><ele>881.0</ele><time>2026-05-03T07:43:25.009Z</time></trkpt><trkpt lat="42.3592126" lon="13.506318"><ele>881.0000000000001</ele><time>2026-05-03T07:43:28.009Z</time></trkpt><trkpt lat="42.3591463" lon="13.5063312"><ele>881.0</ele><time>2026-05-03T07:43:31.01Z</time></trkpt><trkpt lat="42.3590356" lon="13.5062724"><ele>880.5000000000001</ele><time>2026-05-03T07:43:49.01Z</time></trkpt><trkpt lat="42.3589692" lon="13.5062245"><ele>880.0</ele><time>2026-05-03T07:43:51.01Z</time></trkpt><trkpt lat="42.3588927" lon="13.5061461"><ele>879.5</ele><time>2026-05-03T07:43:53.009Z</time></trkpt><trkpt lat="42.3588277" lon="13.5060566"><ele>879.0</ele><time>2026-05-03T07:43:55.009Z</time></trkpt><trkpt lat="42.3587767" lon="13.5059594"><ele>878.5000000000001</ele><time>2026-05-03T07:43:57.009Z</time></trkpt><trkpt lat="42.3587375" lon="13.5058826"><ele>878.0</ele><time>2026-05-03T07:43:59.01Z</time></trkpt><trkpt lat="42.358702" lon="13.5058054"><ele>877.6666666666667</ele><time>2026-05-03T07:46:43.009Z</time></trkpt><trkpt lat="42.3586521" lon="13.5057282"><ele>877.3333333333334</ele><time>2026-05-03T07:46:46.009Z</time></trkpt><trkpt lat="42.358601" lon="13.5056564"><ele>877.0</ele><time>2026-05-03T07:46:48.01Z</time></trkpt><trkpt lat="42.3585391" lon="13.5055465"><ele>876.6666666666667</ele><time>2026-05-03T07:46:50.01Z</time></trkpt><trkpt lat="42.3585011" lon="13.5054728"><ele>876.3333333333334</ele><time>2026-05-03T07:46:51.01Z</time></trkpt><trkpt lat="42.3584573" lon="13.5053862"><ele>876.0</ele><time>2026-05-03T07:46:52.009Z</time></trkpt><trkpt lat="42.3584013" lon="13.5052856"><ele>876.0</ele><time>2026-05-03T07:46:53.01Z</time></trkpt><trkpt lat="42.3583343" lon="13.5051786"><ele>875.9999999999999</ele><time>2026-05-03T07:46:54.01Z</time></trkpt><trkpt lat="42.3582641" lon="13.5050728"><ele>875.9999999999999</ele><time>2026-05-03T07:46:55.01Z</time></trkpt><trkpt lat="42.358185" lon="13.5049768"><ele>876.0</ele><time>2026-05-03T07:46:56.01Z</time></trkpt><trkpt lat="42.35809" lon="13.5048788"><ele>876.0</ele><time>2026-05-03T07:46:57.01Z</time></trkpt><trkpt lat="42.3579897" lon="13.5047942"><ele>876.0</ele><time>2026-05-03T07:46:58.01Z</time></trkpt><trkpt lat="42.357881" lon="13.5047153"><ele>876.0</ele><time>2026-05-03T07:46:59.009Z</time></trkpt><trkpt lat="42.3577675" lon="13.5046355"><ele>876.0</ele><time>2026-05-03T07:47:00.01Z</time></trkpt><trkpt lat="42.3576558" lon="13.5045575"><ele>876.0</ele><time>2026-05-03T07:47:01.01Z</time></trkpt><trkpt lat="42.357543" lon="13.504502"><ele>876.0</ele><time>2026-05-03T07:47:02.01Z</time></trkpt><trkpt lat="42.3574238" lon="13.5044718"><ele>876.0</ele><time>2026-05-03T07:47:03.009Z</time></trkpt><trkpt lat="42.3572975" lon="13.5044666"><ele>876.0</ele><time>2026-05-03T07:47:04.009Z</time></trkpt><trkpt lat="42.3571695" lon="13.5044789"><ele>876.0</ele><time>2026-05-03T07:47:05.01Z</time></trkpt><trkpt lat="42.3570431" lon="13.504508"><ele>877.0</ele><time>2026-05-03T07:47:06.009Z</time></trkpt><trkpt lat="42.3569189" lon="13.5045517"><ele>878.0</ele><time>2026-05-03T07:47:07.009Z</time></trkpt><trkpt lat="42.3568027" lon="13.5046141"><ele>879.0</ele><time>2026-05-03T07:47:08.01Z</time></trkpt><trkpt lat="42.3566984" lon="13.504709"><ele>880.0</ele><time>2026-05-03T07:47:09.01Z</time></trkpt><trkpt lat="42.3566184" lon="13.5048173"><ele>882.9999999999999</ele><time>2026-05-03T07:47:10.01Z</time></trkpt><trkpt lat="42.3565649" lon="13.50493"><ele>886.0</ele><time>2026-05-03T07:47:11.01Z</time></trkpt><trkpt lat="42.3565251" lon="13.505035"><ele>889.0</ele><time>2026-05-03T07:47:12.01Z</time></trkpt><trkpt lat="42.3564953" lon="13.5051217"><ele>892.0</ele><time>2026-05-03T07:47:13.009Z</time></trkpt><trkpt lat="42.3564714" lon="13.5052018"><ele>894.9999999999999</ele><time>2026-05-03T07:47:15.009Z</time></trkpt><trkpt lat="42.3564433" lon="13.5052939"><ele>898.0</ele><time>2026-05-03T07:47:47.009Z</time></trkpt><trkpt lat="42.3564152" lon="13.5054104"><ele>899.9999999999999</ele><time>2026-05-03T07:47:52.01Z</time></trkpt><trkpt lat="42.3564407" lon="13.5055073"><ele>902.0</ele><time>2026-05-03T07:47:55.01Z</time></trkpt><trkpt lat="42.356494" lon="13.5055903"><ele>904.0</ele><time>2026-05-03T07:47:57.009Z</time></trkpt><trkpt lat="42.3565435" lon="13.5056689"><ele>906.0</ele><time>2026-05-03T07:47:59.01Z</time></trkpt><trkpt lat="42.3565987" lon="13.5057645"><ele>907.9999999999999</ele><time>2026-05-03T07:48:01.01Z</time></trkpt><trkpt lat="42.3566599" lon="13.5058478"><ele>910.0</ele><time>2026-05-03T07:48:03.009Z</time></trkpt><trkpt lat="42.3567222" lon="13.5059006"><ele>909.9999999999999</ele><time>2026-05-03T07:48:05.01Z</time></trkpt><trkpt lat="42.356797" lon="13.5059415"><ele>910.0</ele><time>2026-05-03T07:48:07.01Z</time></trkpt><trkpt lat="42.3568565" lon="13.5059869"><ele>910.0</ele><time>2026-05-03T07:48:10.009Z</time></trkpt><trkpt lat="42.3569121" lon="13.5060539"><ele>910.0</ele><time>2026-05-03T07:48:12.01Z</time></trkpt><trkpt lat="42.356968" lon="13.5061726"><ele>909.9999999999999</ele><time>2026-05-03T07:48:14.01Z</time></trkpt><trkpt lat="42.3570102" lon="13.5063008"><ele>910.0</ele><time>2026-05-03T07:48:16.009Z</time></trkpt><trkpt lat="42.3570216" lon="13.5064487"><ele>912.0</ele><time>2026-05-03T07:48:18.009Z</time></trkpt><trkpt lat="42.3570175" lon="13.5065915"><ele>914.0</ele><time>2026-05-03T07:48:20.01Z</time></trkpt><trkpt lat="42.3570157" lon="13.5066999"><ele>916.0</ele><time>2026-05-03T07:48:22.009Z</time></trkpt><trkpt lat="42.3570837" lon="13.5067676"><ele>918.0</ele><time>2026-05-03T07:48:25.009Z</time></trkpt><trkpt lat="42.3571888" lon="13.5067478"><ele>920.0</ele><time>2026-05-03T07:48:27.009Z</time></trkpt><trkpt lat="42.3572942" lon="13.5066667"><ele>920.8333333333334</ele><time>2026-05-03T07:48:29.01Z</time></trkpt><trkpt lat="42.3573823" lon="13.5066202"><ele>921.6666666666667</ele><time>2026-05-03T07:48:31.01Z</time></trkpt><trkpt lat="42.3574473" lon="13.5066535"><ele>922.5</ele><time>2026-05-03T07:48:33.009Z</time></trkpt><trkpt lat="42.3574904" lon="13.5067429"><ele>923.3333333333333</ele><time>2026-05-03T07:48:35.009Z</time></trkpt><trkpt lat="42.3575103" lon="13.5068261"><ele>924.1666666666666</ele><time>2026-05-03T07:48:36.01Z</time></trkpt><trkpt lat="42.3575233" lon="13.5069279"><ele>925.0</ele><time>2026-05-03T07:48:37.009Z</time></trkpt><trkpt lat="42.3575347" lon="13.5070489"><ele>925.8333333333333</ele><time>2026-05-03T07:48:38.01Z</time></trkpt><trkpt lat="42.3575435" lon="13.5071748"><ele>926.6666666666666</ele><time>2026-05-03T07:48:39.01Z</time></trkpt><trkpt lat="42.3575517" lon="13.5072903"><ele>927.5</ele><time>2026-05-03T07:48:40.009Z</time></trkpt><trkpt lat="42.3575507" lon="13.5073997"><ele>928.3333333333333</ele><time>2026-05-03T07:48:41.01Z</time></trkpt><trkpt lat="42.357541" lon="13.5075041"><ele>929.1666666666666</ele><time>2026-05-03T07:48:42.01Z</time></trkpt><trkpt lat="42.3575249" lon="13.5076039"><ele>930.0</ele><time>2026-05-03T07:48:43.01Z</time></trkpt><trkpt lat="42.3575037" lon="13.507757"><ele>930.0</ele><time>2026-05-03T07:48:45.01Z</time></trkpt><trkpt lat="42.3575217" lon="13.5079058"><ele>930.0</ele><time>2026-05-03T07:48:47.01Z</time></trkpt><trkpt lat="42.3575323" lon="13.5079954"><ele>930.0</ele><time>2026-05-03T07:48:48.01Z</time></trkpt><trkpt lat="42.3575436" lon="13.5080901"><ele>930.0</ele><time>2026-05-03T07:48:49.01Z</time></trkpt><trkpt lat="42.3575503" lon="13.5081886"><ele>930.0</ele><time>2026-05-03T07:48:50.009Z</time></trkpt><trkpt lat="42.3575541" lon="13.5083428"><ele>930.0</ele><time>2026-05-03T07:48:52.01Z</time></trkpt><trkpt lat="42.357532" lon="13.5084928"><ele>931.6</ele><time>2026-05-03T07:48:54.01Z</time></trkpt><trkpt lat="42.35751" lon="13.5086344"><ele>933.2</ele><time>2026-05-03T07:48:56.01Z</time></trkpt><trkpt lat="42.3574934" lon="13.5087651"><ele>934.8</ele><time>2026-05-03T07:48:58.01Z</time></trkpt><trkpt lat="42.3574785" lon="13.5088861"><ele>936.4</ele><time>2026-05-03T07:49:00.01Z</time></trkpt><trkpt lat="42.3575103" lon="13.5090127"><ele>938.0</ele><time>2026-05-03T07:49:03.009Z</time></trkpt><trkpt lat="42.3575604" lon="13.5090818"><ele>941.0</ele><time>2026-05-03T07:49:04.009Z</time></trkpt><trkpt lat="42.3576227" lon="13.5091542"><ele>944.0</ele><time>2026-05-03T07:49:05.01Z</time></trkpt><trkpt lat="42.3576823" lon="13.5092449"><ele>947.0</ele><time>2026-05-03T07:49:06.01Z</time></trkpt><trkpt lat="42.3577426" lon="13.5093422"><ele>950.0</ele><time>2026-05-03T07:49:07.01Z</time></trkpt><trkpt lat="42.3577967" lon="13.5094483"><ele>953.0</ele><time>2026-05-03T07:49:08.009Z</time></trkpt><trkpt lat="42.3578503" lon="13.5095685"><ele>955.2</ele><time>2026-05-03T07:49:09.01Z</time></trkpt><trkpt lat="42.3578937" lon="13.5097002"><ele>957.4</ele><time>2026-05-03T07:49:10.01Z</time></trkpt><trkpt lat="42.3579348" lon="13.5098467"><ele>959.6000000000001</ele><time>2026-05-03T07:49:11.009Z</time></trkpt><trkpt lat="42.3579636" lon="13.5099978"><ele>961.8000000000001</ele><time>2026-05-03T07:49:12.009Z</time></trkpt><trkpt lat="42.3579752" lon="13.5101462"><ele>964.0</ele><time>2026-05-03T07:49:13.009Z</time></trkpt><trkpt lat="42.3579708" lon="13.510281"><ele>964.0</ele><time>2026-05-03T07:49:14.01Z</time></trkpt><trkpt lat="42.3579527" lon="13.5103913"><ele>964.0000000000001</ele><time>2026-05-03T07:49:15.009Z</time></trkpt><trkpt lat="42.3579092" lon="13.5104774"><ele>964.0</ele><time>2026-05-03T07:49:16.01Z</time></trkpt><trkpt lat="42.3578522" lon="13.5105207"><ele>964.0</ele><time>2026-05-03T07:49:17.009Z</time></trkpt><trkpt lat="42.3577767" lon="13.5105426"><ele>964.0000000000001</ele><time>2026-05-03T07:49:18.009Z</time></trkpt><trkpt lat="42.3577064" lon="13.5105556"><ele>964.0</ele><time>2026-05-03T07:49:19.01Z</time></trkpt><trkpt lat="42.3576403" lon="13.5105705"><ele>964.0</ele><time>2026-05-03T07:49:20.009Z</time></trkpt><trkpt lat="42.3575575" lon="13.5105939"><ele>964.4000000000001</ele><time>2026-05-03T07:49:22.009Z</time></trkpt><trkpt lat="42.3575391" lon="13.5107046"><ele>964.8000000000001</ele><time>2026-05-03T07:49:25.009Z</time></trkpt><trkpt lat="42.3576102" lon="13.510844"><ele>965.1999999999999</ele><time>2026-05-03T07:49:27.009Z</time></trkpt><trkpt lat="42.3576538" lon="13.5109209"><ele>965.5999999999999</ele><time>2026-05-03T07:49:28.009Z</time></trkpt><trkpt lat="42.357701" lon="13.5110235"><ele>966.0</ele><time>2026-05-03T07:49:29.01Z</time></trkpt><trkpt lat="42.3577512" lon="13.5111472"><ele>966.0</ele><time>2026-05-03T07:49:30.009Z</time></trkpt><trkpt lat="42.3577956" lon="13.5112818"><ele>966.0</ele><time>2026-05-03T07:49:31.009Z</time></trkpt><trkpt lat="42.3578432" lon="13.5114246"><ele>966.0</ele><time>2026-05-03T07:49:32.01Z</time></trkpt><trkpt lat="42.3578984" lon="13.5115851"><ele>966.0</ele><time>2026-05-03T07:49:33.01Z</time></trkpt><trkpt lat="42.3579617" lon="13.5117478"><ele>966.0</ele><time>2026-05-03T07:49:34.009Z</time></trkpt><trkpt lat="42.3580249" lon="13.5119142"><ele>966.0</ele><time>2026-05-03T07:49:35.009Z</time></trkpt><trkpt lat="42.3580843" lon="13.5120838"><ele>966.0</ele><time>2026-05-03T07:49:36.009Z</time></trkpt><trkpt lat="42.3581473" lon="13.5122547"><ele>966.0</ele><time>2026-05-03T07:49:37.01Z</time></trkpt><trkpt lat="42.3582116" lon="13.5124331"><ele>966.75</ele><time>2026-05-03T07:49:38.01Z</time></trkpt><trkpt lat="42.3582731" lon="13.5126026"><ele>967.5</ele><time>2026-05-03T07:49:39.009Z</time></trkpt><trkpt lat="42.3583347" lon="13.5127673"><ele>968.25</ele><time>2026-05-03T07:49:40.009Z</time></trkpt><trkpt lat="42.3583987" lon="13.512929"><ele>969.0</ele><time>2026-05-03T07:49:41.009Z</time></trkpt><trkpt lat="42.3584606" lon="13.5130766"><ele>969.3333333333334</ele><time>2026-05-03T07:49:42.01Z</time></trkpt><trkpt lat="42.3585158" lon="13.5132066"><ele>969.6666666666667</ele><time>2026-05-03T07:49:43.01Z</time></trkpt><trkpt lat="42.358557" lon="13.5133231"><ele>970.0</ele><time>2026-05-03T07:49:44.009Z</time></trkpt><trkpt lat="42.3585936" lon="13.5134231"><ele>970.3333333333334</ele><time>2026-05-03T07:49:45.01Z</time></trkpt><trkpt lat="42.3586279" lon="13.51351"><ele>970.6666666666667</ele><time>2026-05-03T07:49:46.009Z</time></trkpt><trkpt lat="42.3586573" lon="13.5135857"><ele>971.0</ele><time>2026-05-03T07:49:47.009Z</time></trkpt><trkpt lat="42.358673" lon="13.5137203"><ele>971.1999999999999</ele><time>2026-05-03T07:49:49.009Z</time></trkpt><trkpt lat="42.3586706" lon="13.5138694"><ele>971.3999999999999</ele><time>2026-05-03T07:49:51.01Z</time></trkpt><trkpt lat="42.3587192" lon="13.5140261"><ele>971.6</ele><time>2026-05-03T07:49:53.009Z</time></trkpt><trkpt lat="42.3587541" lon="13.5141013"><ele>971.8</ele><time>2026-05-03T07:49:54.01Z</time></trkpt><trkpt lat="42.3588322" lon="13.5142399"><ele>972.0</ele><time>2026-05-03T07:49:56.01Z</time></trkpt><trkpt lat="42.3588683" lon="13.5143375"><ele>974.0</ele><time>2026-05-03T07:49:57.01Z</time></trkpt><trkpt lat="42.358912" lon="13.5144554"><ele>976.0</ele><time>2026-05-03T07:49:58.009Z</time></trkpt><trkpt lat="42.3589584" lon="13.5145712"><ele>978.0</ele><time>2026-05-03T07:49:59.01Z</time></trkpt><trkpt lat="42.3590133" lon="13.5146855"><ele>980.0</ele><time>2026-05-03T07:50:00.01Z</time></trkpt><trkpt lat="42.3590609" lon="13.5147898"><ele>982.0</ele><time>2026-05-03T07:50:01.01Z</time></trkpt><trkpt lat="42.3590981" lon="13.5148848"><ele>982.4999999999999</ele><time>2026-05-03T07:50:02.009Z</time></trkpt><trkpt lat="42.3591362" lon="13.5149763"><ele>983.0</ele><time>2026-05-03T07:50:03.009Z</time></trkpt><trkpt lat="42.3591719" lon="13.515074"><ele>983.5</ele><time>2026-05-03T07:50:04.01Z</time></trkpt><trkpt lat="42.3592002" lon="13.5151714"><ele>984.0</ele><time>2026-05-03T07:50:05.01Z</time></trkpt><trkpt lat="42.3592183" lon="13.5152677"><ele>984.4999999999999</ele><time>2026-05-03T07:50:06.009Z</time></trkpt><trkpt lat="42.3592269" lon="13.5153639"><ele>985.0</ele><time>2026-05-03T07:50:07.01Z</time></trkpt><trkpt lat="42.3592073" lon="13.5155247"><ele>985.7142857142858</ele><time>2026-05-03T07:50:09.01Z</time></trkpt><trkpt lat="42.3591768" lon="13.5156084"><ele>986.4285714285716</ele><time>2026-05-03T07:50:10.009Z</time></trkpt><trkpt lat="42.3591404" lon="13.5156948"><ele>987.1428571428571</ele><time>2026-05-03T07:50:11.01Z</time></trkpt><trkpt lat="42.3591142" lon="13.5157845"><ele>987.8571428571429</ele><time>2026-05-03T07:50:12.009Z</time></trkpt><trkpt lat="42.3590935" lon="13.5158801"><ele>988.5714285714286</ele><time>2026-05-03T07:50:13.01Z</time></trkpt><trkpt lat="42.3590701" lon="13.515976"><ele>989.2857142857142</ele><time>2026-05-03T07:50:14.009Z</time></trkpt><trkpt lat="42.3590513" lon="13.5160728"><ele>989.9999999999999</ele><time>2026-05-03T07:50:15.01Z</time></trkpt><trkpt lat="42.3590431" lon="13.5161655"><ele>992.5</ele><time>2026-05-03T07:50:16.009Z</time></trkpt><trkpt lat="42.3590412" lon="13.5162616"><ele>995.0</ele><time>2026-05-03T07:50:17.01Z</time></trkpt><trkpt lat="42.3590395" lon="13.5163597"><ele>997.5</ele><time>2026-05-03T07:50:18.009Z</time></trkpt><trkpt lat="42.3590403" lon="13.5164522"><ele>1000.0</ele><time>2026-05-03T07:50:19.009Z</time></trkpt><trkpt lat="42.3590345" lon="13.5165527"><ele>1002.5</ele><time>2026-05-03T07:50:20.009Z</time></trkpt><trkpt lat="42.3590128" lon="13.5166555"><ele>1005.0</ele><time>2026-05-03T07:50:21.01Z</time></trkpt><trkpt lat="42.3589801" lon="13.5167622"><ele>1005.0</ele><time>2026-05-03T07:50:22.01Z</time></trkpt><trkpt lat="42.3589423" lon="13.5168707"><ele>1005.0</ele><time>2026-05-03T07:50:23.01Z</time></trkpt><trkpt lat="42.3588947" lon="13.5169793"><ele>1005.0</ele><time>2026-05-03T07:50:24.009Z</time></trkpt><trkpt lat="42.358844" lon="13.5170896"><ele>1005.0</ele><time>2026-05-03T07:50:25.01Z</time></trkpt><trkpt lat="42.3587895" lon="13.517198"><ele>1005.0</ele><time>2026-05-03T07:50:26.009Z</time></trkpt><trkpt lat="42.3587385" lon="13.517317"><ele>1004.0</ele><time>2026-05-03T07:50:27.009Z</time></trkpt><trkpt lat="42.3586897" lon="13.5174194"><ele>1003.0</ele><time>2026-05-03T07:50:28.009Z</time></trkpt><trkpt lat="42.3586401" lon="13.5175044"><ele>1002.0</ele><time>2026-05-03T07:50:29.009Z</time></trkpt><trkpt lat="42.358592" lon="13.5175722"><ele>1001.0</ele><time>2026-05-03T07:50:30.01Z</time></trkpt><trkpt lat="42.3585502" lon="13.5176781"><ele>1000.0</ele><time>2026-05-03T07:50:32.01Z</time></trkpt><trkpt lat="42.3585969" lon="13.5177396"><ele>999.0</ele><time>2026-05-03T07:50:35.009Z</time></trkpt><trkpt lat="42.3586764" lon="13.517722"><ele>999.0</ele><time>2026-05-03T07:50:37.01Z</time></trkpt><trkpt lat="42.3587593" lon="13.5176645"><ele>999.0000000000001</ele><time>2026-05-03T07:50:39.009Z</time></trkpt><trkpt lat="42.3588193" lon="13.5175703"><ele>999.0000000000001</ele><time>2026-05-03T07:50:41.009Z</time></trkpt><trkpt lat="42.3588888" lon="13.5174585"><ele>999.0</ele><time>2026-05-03T07:50:43.01Z</time></trkpt><trkpt lat="42.3589465" lon="13.5173758"><ele>999.0</ele><time>2026-05-03T07:50:45.01Z</time></trkpt><trkpt lat="42.3589986" lon="13.5173051"><ele>1000.2</ele><time>2026-05-03T07:50:47.01Z</time></trkpt><trkpt lat="42.3590722" lon="13.5172176"><ele>1001.4000000000001</ele><time>2026-05-03T07:50:49.01Z</time></trkpt><trkpt lat="42.359145" lon="13.5171028"><ele>1002.6</ele><time>2026-05-03T07:50:51.009Z</time></trkpt><trkpt lat="42.359212" lon="13.5169954"><ele>1003.8</ele><time>2026-05-03T07:50:53.01Z</time></trkpt><trkpt lat="42.359282" lon="13.5169055"><ele>1005.0</ele><time>2026-05-03T07:50:55.009Z</time></trkpt><trkpt lat="42.3593373" lon="13.5168174"><ele>1005.0</ele><time>2026-05-03T07:50:58.009Z</time></trkpt><trkpt lat="42.3593978" lon="13.5167491"><ele>1005.0</ele><time>2026-05-03T07:51:00.01Z</time></trkpt><trkpt lat="42.3594583" lon="13.5166932"><ele>1005.0</ele><time>2026-05-03T07:51:04.009Z</time></trkpt><trkpt lat="42.3595355" lon="13.5166559"><ele>1005.0</ele><time>2026-05-03T07:51:07.009Z</time></trkpt><trkpt lat="42.359613" lon="13.5166185"><ele>1005.0</ele><time>2026-05-03T07:51:09.01Z</time></trkpt><trkpt lat="42.3596826" lon="13.5165831"><ele>1005.0</ele><time>2026-05-03T07:51:12.01Z</time></trkpt><trkpt lat="42.3597722" lon="13.5165592"><ele>1008.4</ele><time>2026-05-03T07:51:15.01Z</time></trkpt><trkpt lat="42.3598746" lon="13.5165298"><ele>1011.8</ele><time>2026-05-03T07:51:17.009Z</time></trkpt><trkpt lat="42.3599626" lon="13.516516"><ele>1015.2</ele><time>2026-05-03T07:51:19.009Z</time></trkpt><trkpt lat="42.3600618" lon="13.5164869"><ele>1018.6</ele><time>2026-05-03T07:51:21.009Z</time></trkpt><trkpt lat="42.3601721" lon="13.51646"><ele>1022.0</ele><time>2026-05-03T07:51:23.01Z</time></trkpt><trkpt lat="42.3602629" lon="13.5164472"><ele>1022.0000000000001</ele><time>2026-05-03T07:51:25.01Z</time></trkpt><trkpt lat="42.3603399" lon="13.5164404"><ele>1022.0</ele><time>2026-05-03T07:51:27.009Z</time></trkpt><trkpt lat="42.360464" lon="13.51645"><ele>1022.0</ele><time>2026-05-03T07:51:29.01Z</time></trkpt><trkpt lat="42.3605298" lon="13.5164586"><ele>1022.0</ele><time>2026-05-03T07:51:30.009Z</time></trkpt><trkpt lat="42.3606024" lon="13.5164742"><ele>1022.0000000000001</ele><time>2026-05-03T07:51:31.01Z</time></trkpt><trkpt lat="42.3606749" lon="13.5164974"><ele>1022.0</ele><time>2026-05-03T07:51:32.01Z</time></trkpt><trkpt lat="42.3607457" lon="13.5165272"><ele>1023.2857142857142</ele><time>2026-05-03T07:51:33.01Z</time></trkpt><trkpt lat="42.3608084" lon="13.5165499"><ele>1024.5714285714284</ele><time>2026-05-03T07:51:34.009Z</time></trkpt><trkpt lat="42.3608698" lon="13.5165704"><ele>1025.857142857143</ele><time>2026-05-03T07:51:35.01Z</time></trkpt><trkpt lat="42.3609331" lon="13.516582"><ele>1027.142857142857</ele><time>2026-05-03T07:51:36.009Z</time></trkpt><trkpt lat="42.3610007" lon="13.5165949"><ele>1028.4285714285713</ele><time>2026-05-03T07:51:37.01Z</time></trkpt><trkpt lat="42.3610738" lon="13.5165971"><ele>1029.7142857142858</ele><time>2026-05-03T07:51:38.01Z</time></trkpt><trkpt lat="42.3611416" lon="13.5165917"><ele>1031.0</ele><time>2026-05-03T07:51:39.009Z</time></trkpt><trkpt lat="42.3612677" lon="13.5165809"><ele>1031.0</ele><time>2026-05-03T07:51:41.01Z</time></trkpt><trkpt lat="42.3613368" lon="13.5165877"><ele>1031.0</ele><time>2026-05-03T07:51:42.01Z</time></trkpt><trkpt lat="42.3614034" lon="13.516582"><ele>1031.0</ele><time>2026-05-03T07:51:43.01Z</time></trkpt><trkpt lat="42.361473" lon="13.5165701"><ele>1031.0</ele><time>2026-05-03T07:51:44.01Z</time></trkpt><trkpt lat="42.3615404" lon="13.5165581"><ele>1031.0</ele><time>2026-05-03T07:51:45.008Z</time></trkpt><trkpt lat="42.3616135" lon="13.5165546"><ele>1031.0</ele><time>2026-05-03T07:51:46.009Z</time></trkpt><trkpt lat="42.361685" lon="13.5165566"><ele>1031.0</ele><time>2026-05-03T07:51:47.009Z</time></trkpt><trkpt lat="42.3617532" lon="13.516557"><ele>1031.857142857143</ele><time>2026-05-03T07:51:48.009Z</time></trkpt><trkpt lat="42.3618192" lon="13.5165654"><ele>1032.7142857142856</ele><time>2026-05-03T07:51:49.009Z</time></trkpt><trkpt lat="42.3618855" lon="13.5165715"><ele>1033.5714285714284</ele><time>2026-05-03T07:51:50.008Z</time></trkpt><trkpt lat="42.3619583" lon="13.5165681"><ele>1034.4285714285713</ele><time>2026-05-03T07:51:51.009Z</time></trkpt><trkpt lat="42.3620292" lon="13.5165581"><ele>1035.2857142857142</ele><time>2026-05-03T07:51:52.008Z</time></trkpt><trkpt lat="42.3620985" lon="13.5165446"><ele>1036.142857142857</ele><time>2026-05-03T07:51:53.008Z</time></trkpt><trkpt lat="42.3621674" lon="13.5165381"><ele>1037.0</ele><time>2026-05-03T07:51:54.008Z</time></trkpt><trkpt lat="42.3622404" lon="13.51654"><ele>1037.8333333333335</ele><time>2026-05-03T07:51:55.008Z</time></trkpt><trkpt lat="42.3623151" lon="13.5165502"><ele>1038.6666666666667</ele><time>2026-05-03T07:51:56.008Z</time></trkpt><trkpt lat="42.3623913" lon="13.5165592"><ele>1039.5</ele><time>2026-05-03T07:51:57.008Z</time></trkpt><trkpt lat="42.3624661" lon="13.5165699"><ele>1040.3333333333333</ele><time>2026-05-03T07:51:58.009Z</time></trkpt><trkpt lat="42.362542" lon="13.5165808"><ele>1041.1666666666665</ele><time>2026-05-03T07:51:59.009Z</time></trkpt><trkpt lat="42.3626216" lon="13.5165926"><ele>1042.0</ele><time>2026-05-03T07:52:00.009Z</time></trkpt><trkpt lat="42.3627004" lon="13.5166056"><ele>1042.0</ele><time>2026-05-03T07:52:01.008Z</time></trkpt><trkpt lat="42.3627779" lon="13.5166179"><ele>1042.0</ele><time>2026-05-03T07:52:02.009Z</time></trkpt><trkpt lat="42.3628571" lon="13.5166457"><ele>1042.0</ele><time>2026-05-03T07:52:03.008Z</time></trkpt><trkpt lat="42.362934" lon="13.5166813"><ele>1042.0</ele><time>2026-05-03T07:52:04.008Z</time></trkpt><trkpt lat="42.3630131" lon="13.5167202"><ele>1042.0</ele><time>2026-05-03T07:52:05.008Z</time></trkpt><trkpt lat="42.3630854" lon="13.5167666"><ele>1042.0</ele><time>2026-05-03T07:52:06.009Z</time></trkpt><trkpt lat="42.3631506" lon="13.5168215"><ele>1042.0</ele><time>2026-05-03T07:52:07.008Z</time></trkpt><trkpt lat="42.3632165" lon="13.5168834"><ele>1042.0</ele><time>2026-05-03T07:52:08.009Z</time></trkpt><trkpt lat="42.3632863" lon="13.5169419"><ele>1042.0</ele><time>2026-05-03T07:52:09.008Z</time></trkpt><trkpt lat="42.3633567" lon="13.516995"><ele>1042.0</ele><time>2026-05-03T07:52:10.008Z</time></trkpt><trkpt lat="42.3634273" lon="13.5170401"><ele>1042.0</ele><time>2026-05-03T07:52:11.009Z</time></trkpt><trkpt lat="42.3635029" lon="13.517084"><ele>1042.0</ele><time>2026-05-03T07:52:12.009Z</time></trkpt><trkpt lat="42.363576" lon="13.5171272"><ele>1044.8</ele><time>2026-05-03T07:52:13.009Z</time></trkpt><trkpt lat="42.3636428" lon="13.517168"><ele>1047.6</ele><time>2026-05-03T07:52:14.009Z</time></trkpt><trkpt lat="42.3637082" lon="13.517205"><ele>1050.3999999999999</ele><time>2026-05-03T07:52:15.009Z</time></trkpt><trkpt lat="42.3637715" lon="13.5172412"><ele>1053.2</ele><time>2026-05-03T07:52:16.008Z</time></trkpt><trkpt lat="42.3638874" lon="13.5172806"><ele>1056.0</ele><time>2026-05-03T07:52:18.008Z</time></trkpt><trkpt lat="42.3640055" lon="13.5172996"><ele>1056.0</ele><time>2026-05-03T07:52:20.009Z</time></trkpt><trkpt lat="42.3641277" lon="13.5173092"><ele>1056.0</ele><time>2026-05-03T07:52:22.009Z</time></trkpt><trkpt lat="42.3641919" lon="13.5173231"><ele>1056.0</ele><time>2026-05-03T07:52:23.009Z</time></trkpt><trkpt lat="42.3642589" lon="13.5173392"><ele>1056.0</ele><time>2026-05-03T07:52:24.008Z</time></trkpt><trkpt lat="42.3643234" lon="13.517355"><ele>1056.0</ele><time>2026-05-03T07:52:25.009Z</time></trkpt><trkpt lat="42.3644233" lon="13.5173664"><ele>1056.0</ele><time>2026-05-03T07:52:27.008Z</time></trkpt><trkpt lat="42.3644903" lon="13.5173841"><ele>1056.0</ele><time>2026-05-03T07:52:29.009Z</time></trkpt><trkpt lat="42.3645701" lon="13.5174207"><ele>1056.0</ele><time>2026-05-03T07:52:31.009Z</time></trkpt><trkpt lat="42.3646704" lon="13.517453"><ele>1056.0</ele><time>2026-05-03T07:52:33.009Z</time></trkpt><trkpt lat="42.3647755" lon="13.5174877"><ele>1056.0</ele><time>2026-05-03T07:52:35.009Z</time></trkpt><trkpt lat="42.364879" lon="13.5175383"><ele>1056.0</ele><time>2026-05-03T07:52:37.008Z</time></trkpt><trkpt lat="42.3649806" lon="13.5175781"><ele>1056.8</ele><time>2026-05-03T07:52:39.009Z</time></trkpt><trkpt lat="42.3650826" lon="13.5176207"><ele>1057.6</ele><time>2026-05-03T07:52:41.008Z</time></trkpt><trkpt lat="42.3651712" lon="13.5176744"><ele>1058.4</ele><time>2026-05-03T07:52:43.008Z</time></trkpt><trkpt lat="42.3652602" lon="13.5177268"><ele>1059.2</ele><time>2026-05-03T07:52:45.009Z</time></trkpt><trkpt lat="42.3653609" lon="13.5177908"><ele>1060.0</ele><time>2026-05-03T07:52:47.009Z</time></trkpt><trkpt lat="42.3654628" lon="13.517864"><ele>1061.5</ele><time>2026-05-03T07:52:49.008Z</time></trkpt><trkpt lat="42.3655224" lon="13.5179065"><ele>1063.0</ele><time>2026-05-03T07:52:50.008Z</time></trkpt><trkpt lat="42.365582" lon="13.5179382"><ele>1064.5</ele><time>2026-05-03T07:52:51.009Z</time></trkpt><trkpt lat="42.3656422" lon="13.5179744"><ele>1066.0</ele><time>2026-05-03T07:52:52.009Z</time></trkpt><trkpt lat="42.3657374" lon="13.5180264"><ele>1067.5</ele><time>2026-05-03T07:52:54.008Z</time></trkpt><trkpt lat="42.3658" lon="13.5180987"><ele>1069.0</ele><time>2026-05-03T07:52:56.009Z</time></trkpt><trkpt lat="42.3657896" lon="13.5182115"><ele>1069.0</ele><time>2026-05-03T07:52:58.008Z</time></trkpt><trkpt lat="42.365722" lon="13.5182681"><ele>1069.0</ele><time>2026-05-03T07:53:00.009Z</time></trkpt><trkpt lat="42.3656511" lon="13.518238"><ele>1069.0</ele><time>2026-05-03T07:53:02.009Z</time></trkpt><trkpt lat="42.365556" lon="13.5182018"><ele>1069.0</ele><time>2026-05-03T07:53:04.009Z</time></trkpt><trkpt lat="42.365446" lon="13.5181605"><ele>1069.0</ele><time>2026-05-03T07:53:06.008Z</time></trkpt><trkpt lat="42.3653815" lon="13.5181465"><ele>1069.0</ele><time>2026-05-03T07:53:07.009Z</time></trkpt><trkpt lat="42.3653124" lon="13.5181287"><ele>1070.142857142857</ele><time>2026-05-03T07:53:08.008Z</time></trkpt><trkpt lat="42.3652463" lon="13.518129"><ele>1071.2857142857144</ele><time>2026-05-03T07:53:09.008Z</time></trkpt><trkpt lat="42.3651719" lon="13.5181389"><ele>1072.4285714285716</ele><time>2026-05-03T07:53:10.008Z</time></trkpt><trkpt lat="42.3651012" lon="13.5181541"><ele>1073.5714285714287</ele><time>2026-05-03T07:53:11.008Z</time></trkpt><trkpt lat="42.3650298" lon="13.5181737"><ele>1074.7142857142858</ele><time>2026-05-03T07:53:12.009Z</time></trkpt><trkpt lat="42.3649536" lon="13.518188"><ele>1075.857142857143</ele><time>2026-05-03T07:53:13.008Z</time></trkpt><trkpt lat="42.3648708" lon="13.5182006"><ele>1077.0</ele><time>2026-05-03T07:53:14.008Z</time></trkpt><trkpt lat="42.3647918" lon="13.5182028"><ele>1077.0</ele><time>2026-05-03T07:53:15.008Z</time></trkpt><trkpt lat="42.3647256" lon="13.5182058"><ele>1077.0</ele><time>2026-05-03T07:53:16.008Z</time></trkpt><trkpt lat="42.364647" lon="13.5182734"><ele>1077.0</ele><time>2026-05-03T07:53:18.009Z</time></trkpt><trkpt lat="42.3646361" lon="13.5183782"><ele>1077.0</ele><time>2026-05-03T07:53:20.008Z</time></trkpt><trkpt lat="42.3646887" lon="13.5184519"><ele>1077.0</ele><time>2026-05-03T07:53:22.008Z</time></trkpt><trkpt lat="42.3647927" lon="13.5184615"><ele>1077.0</ele><time>2026-05-03T07:53:24.008Z</time></trkpt><trkpt lat="42.364857" lon="13.5184456"><ele>1077.0</ele><time>2026-05-03T07:53:25.009Z</time></trkpt><trkpt lat="42.3649201" lon="13.5184379"><ele>1077.0</ele><time>2026-05-03T07:53:26.008Z</time></trkpt><trkpt lat="42.3649889" lon="13.5184485"><ele>1077.0</ele><time>2026-05-03T07:53:27.008Z</time></trkpt><trkpt lat="42.3650552" lon="13.5184699"><ele>1077.0</ele><time>2026-05-03T07:53:28.009Z</time></trkpt><trkpt lat="42.3651196" lon="13.5185096"><ele>1077.0</ele><time>2026-05-03T07:53:29.008Z</time></trkpt><trkpt lat="42.3651806" lon="13.5185369"><ele>1077.0</ele><time>2026-05-03T07:53:30.009Z</time></trkpt><trkpt lat="42.3652415" lon="13.5185763"><ele>1077.0</ele><time>2026-05-03T07:53:31.009Z</time></trkpt><trkpt lat="42.3653002" lon="13.5186291"><ele>1077.0</ele><time>2026-05-03T07:53:32.008Z</time></trkpt><trkpt lat="42.3653559" lon="13.518692"><ele>1077.0</ele><time>2026-05-03T07:53:33.009Z</time></trkpt><trkpt lat="42.3654061" lon="13.5187613"><ele>1077.0</ele><time>2026-05-03T07:53:34.008Z</time></trkpt><trkpt lat="42.3654633" lon="13.5188263"><ele>1077.0</ele><time>2026-05-03T07:53:35.008Z</time></trkpt><trkpt lat="42.3655169" lon="13.5188772"><ele>1077.0</ele><time>2026-05-03T07:53:36.009Z</time></trkpt><trkpt lat="42.3655747" lon="13.5189381"><ele>1077.0</ele><time>2026-05-03T07:53:37.009Z</time></trkpt><trkpt lat="42.3656297" lon="13.5190004"><ele>1077.0</ele><time>2026-05-03T07:53:38.009Z</time></trkpt><trkpt lat="42.3656808" lon="13.519061"><ele>1078.3333333333333</ele><time>2026-05-03T07:53:39.009Z</time></trkpt><trkpt lat="42.3657282" lon="13.5191243"><ele>1079.6666666666667</ele><time>2026-05-03T07:53:40.009Z</time></trkpt><trkpt lat="42.3657949" lon="13.5192394"><ele>1081.0</ele><time>2026-05-03T07:53:42.009Z</time></trkpt><trkpt lat="42.3658208" lon="13.5193893"><ele>1082.3333333333335</ele><time>2026-05-03T07:53:44.009Z</time></trkpt><trkpt lat="42.3658221" lon="13.5194809"><ele>1083.6666666666667</ele><time>2026-05-03T07:53:45.008Z</time></trkpt><trkpt lat="42.3658207" lon="13.5195671"><ele>1085.0</ele><time>2026-05-03T07:53:46.008Z</time></trkpt><trkpt lat="42.3658248" lon="13.5196545"><ele>1086.8333333333335</ele><time>2026-05-03T07:53:47.009Z</time></trkpt><trkpt lat="42.365827" lon="13.5198258"><ele>1088.6666666666667</ele><time>2026-05-03T07:53:49.008Z</time></trkpt><trkpt lat="42.3658276" lon="13.5199153"><ele>1090.5</ele><time>2026-05-03T07:53:50.008Z</time></trkpt><trkpt lat="42.3658265" lon="13.5200108"><ele>1092.3333333333333</ele><time>2026-05-03T07:53:51.009Z</time></trkpt><trkpt lat="42.3658236" lon="13.5201095"><ele>1094.1666666666665</ele><time>2026-05-03T07:53:52.009Z</time></trkpt><trkpt lat="42.3658205" lon="13.5202083"><ele>1096.0</ele><time>2026-05-03T07:53:53.008Z</time></trkpt><trkpt lat="42.3658228" lon="13.5203032"><ele>1096.6</ele><time>2026-05-03T07:53:54.008Z</time></trkpt><trkpt lat="42.3658409" lon="13.5204685"><ele>1097.1999999999998</ele><time>2026-05-03T07:53:56.008Z</time></trkpt><trkpt lat="42.3658702" lon="13.5206306"><ele>1097.8000000000002</ele><time>2026-05-03T07:53:58.009Z</time></trkpt><trkpt lat="42.3658882" lon="13.5207173"><ele>1098.4</ele><time>2026-05-03T07:53:59.008Z</time></trkpt><trkpt lat="42.3658998" lon="13.5208016"><ele>1099.0</ele><time>2026-05-03T07:54:00.008Z</time></trkpt><trkpt lat="42.3659043" lon="13.5209553"><ele>1099.0</ele><time>2026-05-03T07:54:02.008Z</time></trkpt><trkpt lat="42.3658915" lon="13.521112"><ele>1099.0</ele><time>2026-05-03T07:54:04.009Z</time></trkpt><trkpt lat="42.3658806" lon="13.5212007"><ele>1099.0</ele><time>2026-05-03T07:54:05.009Z</time></trkpt><trkpt lat="42.3658698" lon="13.5212971"><ele>1099.0</ele><time>2026-05-03T07:54:06.008Z</time></trkpt><trkpt lat="42.365856" lon="13.5214146"><ele>1099.0</ele><time>2026-05-03T07:54:07.009Z</time></trkpt><trkpt lat="42.365838" lon="13.5215275"><ele>1099.0</ele><time>2026-05-03T07:54:08.008Z</time></trkpt><trkpt lat="42.3658208" lon="13.5216286"><ele>1099.2857142857142</ele><time>2026-05-03T07:54:09.008Z</time></trkpt><trkpt lat="42.3658018" lon="13.5217165"><ele>1099.5714285714284</ele><time>2026-05-03T07:54:10.008Z</time></trkpt><trkpt lat="42.365778" lon="13.5217981"><ele>1099.857142857143</ele><time>2026-05-03T07:54:11.009Z</time></trkpt><trkpt lat="42.3657574" lon="13.5219569"><ele>1100.142857142857</ele><time>2026-05-03T07:54:13.009Z</time></trkpt><trkpt lat="42.3657669" lon="13.5220428"><ele>1100.4285714285713</ele><time>2026-05-03T07:54:14.009Z</time></trkpt><trkpt lat="42.3657741" lon="13.5221293"><ele>1100.7142857142858</ele><time>2026-05-03T07:54:15.008Z</time></trkpt><trkpt lat="42.3657752" lon="13.5222155"><ele>1101.0</ele><time>2026-05-03T07:54:16.008Z</time></trkpt><trkpt lat="42.3657473" lon="13.5223641"><ele>1102.3999999999999</ele><time>2026-05-03T07:54:18.008Z</time></trkpt><trkpt lat="42.3656849" lon="13.5224829"><ele>1103.8</ele><time>2026-05-03T07:54:20.009Z</time></trkpt><trkpt lat="42.3656061" lon="13.5225896"><ele>1105.1999999999998</ele><time>2026-05-03T07:54:22.009Z</time></trkpt><trkpt lat="42.3655246" lon="13.5227323"><ele>1106.6</ele><time>2026-05-03T07:54:24.008Z</time></trkpt><trkpt lat="42.3654787" lon="13.5228055"><ele>1108.0</ele><time>2026-05-03T07:54:25.009Z</time></trkpt><trkpt lat="42.3654317" lon="13.5228695"><ele>1109.5</ele><time>2026-05-03T07:54:26.008Z</time></trkpt><trkpt lat="42.3653631" lon="13.522985"><ele>1111.0</ele><time>2026-05-03T07:54:28.008Z</time></trkpt><trkpt lat="42.3652897" lon="13.5230938"><ele>1112.5</ele><time>2026-05-03T07:54:30.008Z</time></trkpt><trkpt lat="42.3652059" lon="13.5232087"><ele>1114.0</ele><time>2026-05-03T07:54:32.009Z</time></trkpt><trkpt lat="42.3651285" lon="13.5233274"><ele>1114.0</ele><time>2026-05-03T07:54:34.009Z</time></trkpt><trkpt lat="42.3650352" lon="13.5234362"><ele>1114.0</ele><time>2026-05-03T07:54:36.008Z</time></trkpt><trkpt lat="42.3649554" lon="13.5235559"><ele>1114.0</ele><time>2026-05-03T07:54:38.01Z</time></trkpt><trkpt lat="42.3648666" lon="13.5236738"><ele>1114.0</ele><time>2026-05-03T07:54:40.009Z</time></trkpt><trkpt lat="42.3648196" lon="13.5237385"><ele>1114.0</ele><time>2026-05-03T07:54:41.009Z</time></trkpt><trkpt lat="42.3647811" lon="13.5238087"><ele>1115.3333333333333</ele><time>2026-05-03T07:54:42.009Z</time></trkpt><trkpt lat="42.3647384" lon="13.5238869"><ele>1116.6666666666665</ele><time>2026-05-03T07:54:43.009Z</time></trkpt><trkpt lat="42.3647041" lon="13.5239652"><ele>1118.0</ele><time>2026-05-03T07:54:44.009Z</time></trkpt><trkpt lat="42.3646431" lon="13.5241207"><ele>1119.3333333333333</ele><time>2026-05-03T07:54:46.01Z</time></trkpt><trkpt lat="42.3646188" lon="13.5242082"><ele>1120.6666666666667</ele><time>2026-05-03T07:54:47.01Z</time></trkpt><trkpt lat="42.3645907" lon="13.5242957"><ele>1122.0</ele><time>2026-05-03T07:54:48.009Z</time></trkpt><trkpt lat="42.3645606" lon="13.5243902"><ele>1122.0</ele><time>2026-05-03T07:54:49.009Z</time></trkpt><trkpt lat="42.3645369" lon="13.5244868"><ele>1122.0</ele><time>2026-05-03T07:54:50.01Z</time></trkpt><trkpt lat="42.3645171" lon="13.524589"><ele>1122.0</ele><time>2026-05-03T07:54:51.01Z</time></trkpt><trkpt lat="42.3645015" lon="13.5246883"><ele>1122.0</ele><time>2026-05-03T07:54:52.01Z</time></trkpt><trkpt lat="42.3644865" lon="13.5247918"><ele>1122.0</ele><time>2026-05-03T07:54:53.009Z</time></trkpt><trkpt lat="42.3644798" lon="13.5248914"><ele>1122.0</ele><time>2026-05-03T07:54:54.01Z</time></trkpt><trkpt lat="42.364483" lon="13.5249862"><ele>1122.142857142857</ele><time>2026-05-03T07:54:55.009Z</time></trkpt><trkpt lat="42.3644951" lon="13.5250783"><ele>1122.2857142857142</ele><time>2026-05-03T07:54:56.01Z</time></trkpt><trkpt lat="42.3645104" lon="13.5251695"><ele>1122.4285714285713</ele><time>2026-05-03T07:54:57.01Z</time></trkpt><trkpt lat="42.3645321" lon="13.5252651"><ele>1122.5714285714284</ele><time>2026-05-03T07:54:58.01Z</time></trkpt><trkpt lat="42.3645481" lon="13.5253635"><ele>1122.7142857142858</ele><time>2026-05-03T07:54:59.009Z</time></trkpt><trkpt lat="42.3645615" lon="13.5254591"><ele>1122.8571428571427</ele><time>2026-05-03T07:55:00.01Z</time></trkpt><trkpt lat="42.3645761" lon="13.5255563"><ele>1123.0</ele><time>2026-05-03T07:55:01.009Z</time></trkpt><trkpt lat="42.3645829" lon="13.5256568"><ele>1123.1666666666665</ele><time>2026-05-03T07:55:02.01Z</time></trkpt><trkpt lat="42.3645871" lon="13.5257627"><ele>1123.3333333333333</ele><time>2026-05-03T07:55:03.009Z</time></trkpt><trkpt lat="42.3645866" lon="13.5258726"><ele>1123.5</ele><time>2026-05-03T07:55:04.01Z</time></trkpt><trkpt lat="42.3645868" lon="13.5259854"><ele>1123.6666666666667</ele><time>2026-05-03T07:55:05.01Z</time></trkpt><trkpt lat="42.3645831" lon="13.5260823"><ele>1123.8333333333335</ele><time>2026-05-03T07:55:06.01Z</time></trkpt><trkpt lat="42.3645737" lon="13.5261778"><ele>1124.0</ele><time>2026-05-03T07:55:07.01Z</time></trkpt><trkpt lat="42.3645644" lon="13.5262644"><ele>1124.3333333333335</ele><time>2026-05-03T07:55:08.01Z</time></trkpt><trkpt lat="42.3645514" lon="13.526361"><ele>1124.6666666666667</ele><time>2026-05-03T07:55:09.009Z</time></trkpt><trkpt lat="42.364537" lon="13.5264582"><ele>1125.0</ele><time>2026-05-03T07:55:10.01Z</time></trkpt><trkpt lat="42.3645206" lon="13.5265462"><ele>1125.3333333333333</ele><time>2026-05-03T07:55:11.01Z</time></trkpt><trkpt lat="42.3645306" lon="13.5267163"><ele>1125.6666666666665</ele><time>2026-05-03T07:55:13.009Z</time></trkpt><trkpt lat="42.3645363" lon="13.5268039"><ele>1126.0</ele><time>2026-05-03T07:55:14.01Z</time></trkpt><trkpt lat="42.3645546" lon="13.5269368"><ele>1126.0</ele><time>2026-05-03T07:55:16.009Z</time></trkpt><trkpt lat="42.3645676" lon="13.5270391"><ele>1126.0</ele><time>2026-05-03T07:55:24.01Z</time></trkpt><trkpt lat="42.3645798" lon="13.5271544"><ele>1126.0</ele><time>2026-05-03T07:55:26.009Z</time></trkpt><trkpt lat="42.3646026" lon="13.5272984"><ele>1126.0</ele><time>2026-05-03T07:55:28.009Z</time></trkpt><trkpt lat="42.3646305" lon="13.5274654"><ele>1126.0</ele><time>2026-05-03T07:55:30.009Z</time></trkpt><trkpt lat="42.3646376" lon="13.527551"><ele>1127.2</ele><time>2026-05-03T07:55:31.01Z</time></trkpt><trkpt lat="42.3646334" lon="13.5276969"><ele>1128.3999999999999</ele><time>2026-05-03T07:55:33.009Z</time></trkpt><trkpt lat="42.3646221" lon="13.5277854"><ele>1129.6</ele><time>2026-05-03T07:55:35.01Z</time></trkpt><trkpt lat="42.3646177" lon="13.5278889"><ele>1130.8</ele><time>2026-05-03T07:55:37.01Z</time></trkpt><trkpt lat="42.3645976" lon="13.5280649"><ele>1132.0</ele><time>2026-05-03T07:55:39.01Z</time></trkpt><trkpt lat="42.364584" lon="13.5281642"><ele>1133.0</ele><time>2026-05-03T07:55:40.01Z</time></trkpt><trkpt lat="42.364565" lon="13.5282689"><ele>1134.0</ele><time>2026-05-03T07:55:41.009Z</time></trkpt><trkpt lat="42.3645484" lon="13.5283772"><ele>1135.0</ele><time>2026-05-03T07:55:42.01Z</time></trkpt><trkpt lat="42.3645345" lon="13.5284878"><ele>1136.0</ele><time>2026-05-03T07:55:43.009Z</time></trkpt><trkpt lat="42.3645245" lon="13.5285956"><ele>1137.0</ele><time>2026-05-03T07:55:44.01Z</time></trkpt><trkpt lat="42.3645204" lon="13.528694"><ele>1138.0</ele><time>2026-05-03T07:55:45.009Z</time></trkpt><trkpt lat="42.3645238" lon="13.5287826"><ele>1139.6666666666665</ele><time>2026-05-03T07:55:46.01Z</time></trkpt><trkpt lat="42.3645454" lon="13.5289169"><ele>1141.3333333333333</ele><time>2026-05-03T07:55:48.01Z</time></trkpt><trkpt lat="42.364558" lon="13.5290007"><ele>1143.0</ele><time>2026-05-03T07:55:50.01Z</time></trkpt><trkpt lat="42.364551" lon="13.5291148"><ele>1144.6666666666667</ele><time>2026-05-03T07:55:52.01Z</time></trkpt><trkpt lat="42.3645517" lon="13.5292529"><ele>1146.3333333333335</ele><time>2026-05-03T07:55:54.01Z</time></trkpt><trkpt lat="42.3645682" lon="13.5293356"><ele>1148.0</ele><time>2026-05-03T07:55:55.009Z</time></trkpt><trkpt lat="42.3646263" lon="13.5294362"><ele>1149.3333333333335</ele><time>2026-05-03T07:55:57.01Z</time></trkpt><trkpt lat="42.3647164" lon="13.5294234"><ele>1150.6666666666667</ele><time>2026-05-03T07:55:59.01Z</time></trkpt><trkpt lat="42.3647902" lon="13.5293119"><ele>1152.0</ele><time>2026-05-03T07:56:01.01Z</time></trkpt><trkpt lat="42.3648085" lon="13.5292302"><ele>1153.3333333333333</ele><time>2026-05-03T07:56:02.01Z</time></trkpt><trkpt lat="42.3648348" lon="13.5291503"><ele>1154.6666666666665</ele><time>2026-05-03T07:56:03.009Z</time></trkpt><trkpt lat="42.3648741" lon="13.529082"><ele>1156.0</ele><time>2026-05-03T07:56:04.009Z</time></trkpt><trkpt lat="42.3649232" lon="13.5290157"><ele>1156.0</ele><time>2026-05-03T07:56:05.009Z</time></trkpt><trkpt lat="42.3649792" lon="13.5289535"><ele>1156.0</ele><time>2026-05-03T07:56:06.01Z</time></trkpt><trkpt lat="42.3650424" lon="13.5288955"><ele>1156.0</ele><time>2026-05-03T07:56:07.01Z</time></trkpt><trkpt lat="42.3651089" lon="13.5288425"><ele>1156.0</ele><time>2026-05-03T07:56:08.009Z</time></trkpt><trkpt lat="42.3651746" lon="13.5287986"><ele>1156.0</ele><time>2026-05-03T07:56:09.01Z</time></trkpt><trkpt lat="42.3652352" lon="13.5287622"><ele>1156.0</ele><time>2026-05-03T07:56:10.01Z</time></trkpt><trkpt lat="42.3653009" lon="13.5287273"><ele>1156.0</ele><time>2026-05-03T07:56:11.009Z</time></trkpt><trkpt lat="42.3653647" lon="13.5286836"><ele>1156.0</ele><time>2026-05-03T07:56:12.01Z</time></trkpt><trkpt lat="42.3654644" lon="13.5286274"><ele>1156.0</ele><time>2026-05-03T07:56:14.01Z</time></trkpt><trkpt lat="42.3655338" lon="13.528694"><ele>1156.0</ele><time>2026-05-03T07:56:17.009Z</time></trkpt><trkpt lat="42.3655131" lon="13.5288103"><ele>1156.0</ele><time>2026-05-03T07:56:20.009Z</time></trkpt><trkpt lat="42.3654361" lon="13.5288421"><ele>1156.0</ele><time>2026-05-03T07:56:22.009Z</time></trkpt><trkpt lat="42.3653368" lon="13.528891"><ele>1156.0</ele><time>2026-05-03T07:56:24.01Z</time></trkpt><trkpt lat="42.3652418" lon="13.5289972"><ele>1156.0</ele><time>2026-05-03T07:56:26.01Z</time></trkpt><trkpt lat="42.36519" lon="13.5290724"><ele>1156.0</ele><time>2026-05-03T07:56:27.01Z</time></trkpt><trkpt lat="42.365144" lon="13.5291494"><ele>1156.0</ele><time>2026-05-03T07:56:28.009Z</time></trkpt><trkpt lat="42.3651089" lon="13.5292368"><ele>1156.0</ele><time>2026-05-03T07:56:29.01Z</time></trkpt><trkpt lat="42.3650822" lon="13.5293328"><ele>1156.0</ele><time>2026-05-03T07:56:30.009Z</time></trkpt><trkpt lat="42.3650715" lon="13.5294324"><ele>1156.0</ele><time>2026-05-03T07:56:31.01Z</time></trkpt><trkpt lat="42.3650675" lon="13.5295273"><ele>1156.0</ele><time>2026-05-03T07:56:32.01Z</time></trkpt><trkpt lat="42.3650731" lon="13.5296202"><ele>1156.0</ele><time>2026-05-03T07:56:33.01Z</time></trkpt><trkpt lat="42.3650895" lon="13.5297064"><ele>1156.0</ele><time>2026-05-03T07:56:34.01Z</time></trkpt><trkpt lat="42.3651638" lon="13.5298601"><ele>1156.0</ele><time>2026-05-03T07:56:36.01Z</time></trkpt><trkpt lat="42.3652205" lon="13.5299338"><ele>1156.0</ele><time>2026-05-03T07:56:37.009Z</time></trkpt><trkpt lat="42.3652796" lon="13.5300059"><ele>1156.7142857142858</ele><time>2026-05-03T07:56:38.009Z</time></trkpt><trkpt lat="42.3653398" lon="13.5300752"><ele>1157.4285714285713</ele><time>2026-05-03T07:56:39.009Z</time></trkpt><trkpt lat="42.3654009" lon="13.5301388"><ele>1158.142857142857</ele><time>2026-05-03T07:56:40.01Z</time></trkpt><trkpt lat="42.3654616" lon="13.5302057"><ele>1158.857142857143</ele><time>2026-05-03T07:56:41.009Z</time></trkpt><trkpt lat="42.3655115" lon="13.5302777"><ele>1159.5714285714287</ele><time>2026-05-03T07:56:42.009Z</time></trkpt><trkpt lat="42.3655471" lon="13.5303571"><ele>1160.2857142857142</ele><time>2026-05-03T07:56:43.009Z</time></trkpt><trkpt lat="42.3655719" lon="13.5304415"><ele>1161.0</ele><time>2026-05-03T07:56:44.01Z</time></trkpt><trkpt lat="42.3655932" lon="13.5305267"><ele>1163.0</ele><time>2026-05-03T07:56:45.009Z</time></trkpt><trkpt lat="42.3656073" lon="13.5306112"><ele>1165.0</ele><time>2026-05-03T07:56:46.01Z</time></trkpt><trkpt lat="42.3656263" lon="13.530786"><ele>1167.0</ele><time>2026-05-03T07:56:48.01Z</time></trkpt><trkpt lat="42.3656432" lon="13.5308849"><ele>1169.0</ele><time>2026-05-03T07:56:49.009Z</time></trkpt><trkpt lat="42.3656646" lon="13.5309873"><ele>1171.0</ele><time>2026-05-03T07:56:50.01Z</time></trkpt><trkpt lat="42.36569" lon="13.5310828"><ele>1173.0</ele><time>2026-05-03T07:56:51.01Z</time></trkpt><trkpt lat="42.3657225" lon="13.5311771"><ele>1173.8333333333333</ele><time>2026-05-03T07:56:52.009Z</time></trkpt><trkpt lat="42.3657648" lon="13.5312615"><ele>1174.6666666666667</ele><time>2026-05-03T07:56:53.01Z</time></trkpt><trkpt lat="42.365806" lon="13.5313451"><ele>1175.5</ele><time>2026-05-03T07:56:54.009Z</time></trkpt><trkpt lat="42.3658462" lon="13.5314279"><ele>1176.3333333333335</ele><time>2026-05-03T07:56:55.01Z</time></trkpt><trkpt lat="42.3658839" lon="13.5315166"><ele>1177.1666666666667</ele><time>2026-05-03T07:56:56.01Z</time></trkpt><trkpt lat="42.3659164" lon="13.5316095"><ele>1178.0</ele><time>2026-05-03T07:56:57.01Z</time></trkpt><trkpt lat="42.3659482" lon="13.531711"><ele>1178.0</ele><time>2026-05-03T07:56:58.01Z</time></trkpt><trkpt lat="42.3659832" lon="13.5318244"><ele>1178.0</ele><time>2026-05-03T07:56:59.009Z</time></trkpt><trkpt lat="42.3660108" lon="13.5319275"><ele>1178.0</ele><time>2026-05-03T07:57:00.01Z</time></trkpt><trkpt lat="42.3660234" lon="13.5320276"><ele>1178.0</ele><time>2026-05-03T07:57:01.01Z</time></trkpt><trkpt lat="42.366023" lon="13.5321269"><ele>1178.0</ele><time>2026-05-03T07:57:02.01Z</time></trkpt><trkpt lat="42.3660215" lon="13.5322294"><ele>1178.0</ele><time>2026-05-03T07:57:03.01Z</time></trkpt><trkpt lat="42.3660112" lon="13.5323264"><ele>1178.142857142857</ele><time>2026-05-03T07:57:04.009Z</time></trkpt><trkpt lat="42.3659881" lon="13.5324091"><ele>1178.2857142857142</ele><time>2026-05-03T07:57:05.009Z</time></trkpt><trkpt lat="42.3659557" lon="13.532486"><ele>1178.4285714285713</ele><time>2026-05-03T07:57:06.01Z</time></trkpt><trkpt lat="42.3659187" lon="13.532559"><ele>1178.5714285714284</ele><time>2026-05-03T07:57:07.009Z</time></trkpt><trkpt lat="42.3658778" lon="13.5326345"><ele>1178.7142857142858</ele><time>2026-05-03T07:57:08.009Z</time></trkpt><trkpt lat="42.3658223" lon="13.5327038"><ele>1178.8571428571427</ele><time>2026-05-03T07:57:09.01Z</time></trkpt><trkpt lat="42.365765" lon="13.5327786"><ele>1179.0</ele><time>2026-05-03T07:57:10.01Z</time></trkpt><trkpt lat="42.3657035" lon="13.5328478"><ele>1180.5</ele><time>2026-05-03T07:57:11.01Z</time></trkpt><trkpt lat="42.3656353" lon="13.5329015"><ele>1182.0</ele><time>2026-05-03T07:57:12.009Z</time></trkpt><trkpt lat="42.3655601" lon="13.5329459"><ele>1183.5</ele><time>2026-05-03T07:57:13.01Z</time></trkpt><trkpt lat="42.3654809" lon="13.5330028"><ele>1185.0</ele><time>2026-05-03T07:57:14.01Z</time></trkpt><trkpt lat="42.365401" lon="13.5330614"><ele>1186.5</ele><time>2026-05-03T07:57:15.009Z</time></trkpt><trkpt lat="42.3653271" lon="13.5331363"><ele>1188.0</ele><time>2026-05-03T07:57:16.009Z</time></trkpt><trkpt lat="42.3652601" lon="13.5332193"><ele>1191.0</ele><time>2026-05-03T07:57:17.009Z</time></trkpt><trkpt lat="42.365201" lon="13.5333125"><ele>1194.0</ele><time>2026-05-03T07:57:18.01Z</time></trkpt><trkpt lat="42.3651472" lon="13.533423"><ele>1197.0</ele><time>2026-05-03T07:57:19.009Z</time></trkpt><trkpt lat="42.3651035" lon="13.5335423"><ele>1200.0</ele><time>2026-05-03T07:57:20.009Z</time></trkpt><trkpt lat="42.3650692" lon="13.5336626"><ele>1203.0</ele><time>2026-05-03T07:57:21.01Z</time></trkpt><trkpt lat="42.3650521" lon="13.5337839"><ele>1204.0</ele><time>2026-05-03T07:57:22.01Z</time></trkpt><trkpt lat="42.3650396" lon="13.5339103"><ele>1205.0</ele><time>2026-05-03T07:57:23.009Z</time></trkpt><trkpt lat="42.3650267" lon="13.534044"><ele>1206.0</ele><time>2026-05-03T07:57:24.009Z</time></trkpt><trkpt lat="42.3650124" lon="13.5341777"><ele>1207.0</ele><time>2026-05-03T07:57:25.01Z</time></trkpt><trkpt lat="42.3649988" lon="13.5343117"><ele>1208.0</ele><time>2026-05-03T07:57:26.01Z</time></trkpt><trkpt lat="42.3649933" lon="13.5344457"><ele>1209.0</ele><time>2026-05-03T07:57:27.009Z</time></trkpt><trkpt lat="42.3649881" lon="13.5345811"><ele>1210.0</ele><time>2026-05-03T07:57:28.01Z</time></trkpt><trkpt lat="42.3649836" lon="13.5347204"><ele>1211.0</ele><time>2026-05-03T07:57:29.01Z</time></trkpt><trkpt lat="42.3649797" lon="13.5348625"><ele>1212.0</ele><time>2026-05-03T07:57:30.009Z</time></trkpt><trkpt lat="42.3649795" lon="13.5350014"><ele>1213.0</ele><time>2026-05-03T07:57:31.01Z</time></trkpt><trkpt lat="42.3649726" lon="13.5351223"><ele>1213.0</ele><time>2026-05-03T07:57:32.009Z</time></trkpt><trkpt lat="42.3649606" lon="13.535236"><ele>1213.0</ele><time>2026-05-03T07:57:33.01Z</time></trkpt><trkpt lat="42.3649387" lon="13.535349"><ele>1213.0</ele><time>2026-05-03T07:57:34.009Z</time></trkpt><trkpt lat="42.3649165" lon="13.535468"><ele>1213.0</ele><time>2026-05-03T07:57:35.009Z</time></trkpt><trkpt lat="42.3648889" lon="13.5355902"><ele>1213.0</ele><time>2026-05-03T07:57:36.01Z</time></trkpt><trkpt lat="42.3648581" lon="13.5357141"><ele>1213.2</ele><time>2026-05-03T07:57:37.01Z</time></trkpt><trkpt lat="42.3648278" lon="13.5358406"><ele>1213.4</ele><time>2026-05-03T07:57:38.009Z</time></trkpt><trkpt lat="42.3647949" lon="13.5359631"><ele>1213.6000000000001</ele><time>2026-05-03T07:57:39.009Z</time></trkpt><trkpt lat="42.364767" lon="13.5360849"><ele>1213.8</ele><time>2026-05-03T07:57:40.01Z</time></trkpt><trkpt lat="42.3647402" lon="13.5362083"><ele>1214.0</ele><time>2026-05-03T07:57:41.009Z</time></trkpt><trkpt lat="42.3647178" lon="13.5363286"><ele>1214.3333333333335</ele><time>2026-05-03T07:57:42.01Z</time></trkpt><trkpt lat="42.3646966" lon="13.5364461"><ele>1214.6666666666667</ele><time>2026-05-03T07:57:43.01Z</time></trkpt><trkpt lat="42.3646786" lon="13.5365619"><ele>1215.0</ele><time>2026-05-03T07:57:44.01Z</time></trkpt><trkpt lat="42.3646634" lon="13.5366732"><ele>1215.3333333333333</ele><time>2026-05-03T07:57:45.01Z</time></trkpt><trkpt lat="42.3646413" lon="13.5367745"><ele>1215.6666666666665</ele><time>2026-05-03T07:57:46.009Z</time></trkpt><trkpt lat="42.364605" lon="13.5368766"><ele>1216.0</ele><time>2026-05-03T07:57:47.01Z</time></trkpt><trkpt lat="42.3645587" lon="13.5369863"><ele>1216.6</ele><time>2026-05-03T07:57:48.009Z</time></trkpt><trkpt lat="42.3645016" lon="13.5370962"><ele>1217.1999999999998</ele><time>2026-05-03T07:57:49.009Z</time></trkpt><trkpt lat="42.3644451" lon="13.5372092"><ele>1217.8000000000002</ele><time>2026-05-03T07:57:50.01Z</time></trkpt><trkpt lat="42.3643866" lon="13.537328"><ele>1218.4</ele><time>2026-05-03T07:57:51.01Z</time></trkpt><trkpt lat="42.3643207" lon="13.5374539"><ele>1219.0</ele><time>2026-05-03T07:57:52.009Z</time></trkpt><trkpt lat="42.364251" lon="13.5375761"><ele>1219.0</ele><time>2026-05-03T07:57:53.01Z</time></trkpt><trkpt lat="42.3641857" lon="13.5376942"><ele>1219.0</ele><time>2026-05-03T07:57:54.01Z</time></trkpt><trkpt lat="42.3641244" lon="13.5378262"><ele>1219.0</ele><time>2026-05-03T07:57:55.009Z</time></trkpt><trkpt lat="42.3640611" lon="13.5379595"><ele>1219.0</ele><time>2026-05-03T07:57:56.009Z</time></trkpt><trkpt lat="42.3639988" lon="13.5380772"><ele>1219.0</ele><time>2026-05-03T07:57:57.01Z</time></trkpt><trkpt lat="42.3639347" lon="13.5381721"><ele>1220.0</ele><time>2026-05-03T07:57:58.01Z</time></trkpt><trkpt lat="42.3638649" lon="13.538261"><ele>1221.0</ele><time>2026-05-03T07:57:59.01Z</time></trkpt><trkpt lat="42.3637876" lon="13.5383492"><ele>1222.0</ele><time>2026-05-03T07:58:00.01Z</time></trkpt><trkpt lat="42.3637034" lon="13.5384492"><ele>1223.0</ele><time>2026-05-03T07:58:01.009Z</time></trkpt><trkpt lat="42.3636186" lon="13.5385599"><ele>1224.0</ele><time>2026-05-03T07:58:02.009Z</time></trkpt><trkpt lat="42.3635311" lon="13.5386725"><ele>1225.0</ele><time>2026-05-03T07:58:03.01Z</time></trkpt><trkpt lat="42.3634376" lon="13.5387911"><ele>1226.0</ele><time>2026-05-03T07:58:04.01Z</time></trkpt><trkpt lat="42.363351" lon="13.538911"><ele>1227.0</ele><time>2026-05-03T07:58:05.009Z</time></trkpt><trkpt lat="42.3632639" lon="13.5390298"><ele>1228.0</ele><time>2026-05-03T07:58:06.009Z</time></trkpt><trkpt lat="42.3631828" lon="13.5391444"><ele>1228.0</ele><time>2026-05-03T07:58:07.009Z</time></trkpt><trkpt lat="42.3631017" lon="13.539264"><ele>1228.0</ele><time>2026-05-03T07:58:08.01Z</time></trkpt><trkpt lat="42.3630142" lon="13.5393876"><ele>1228.0</ele><time>2026-05-03T07:58:09.009Z</time></trkpt><trkpt lat="42.3629238" lon="13.5395081"><ele>1228.0</ele><time>2026-05-03T07:58:10.01Z</time></trkpt><trkpt lat="42.3628325" lon="13.5396312"><ele>1227.5</ele><time>2026-05-03T07:58:11.01Z</time></trkpt><trkpt lat="42.3627442" lon="13.5397533"><ele>1227.0</ele><time>2026-05-03T07:58:12.009Z</time></trkpt><trkpt lat="42.3626653" lon="13.5398776"><ele>1226.5</ele><time>2026-05-03T07:58:13.009Z</time></trkpt><trkpt lat="42.3625998" lon="13.5399876"><ele>1226.0</ele><time>2026-05-03T07:58:14.009Z</time></trkpt><trkpt lat="42.3625388" lon="13.5401058"><ele>1226.0</ele><time>2026-05-03T07:58:15.01Z</time></trkpt><trkpt lat="42.3624868" lon="13.5402384"><ele>1226.0</ele><time>2026-05-03T07:58:16.01Z</time></trkpt><trkpt lat="42.3624347" lon="13.5403752"><ele>1226.0</ele><time>2026-05-03T07:58:17.01Z</time></trkpt><trkpt lat="42.3623914" lon="13.5405195"><ele>1226.0</ele><time>2026-05-03T07:58:18.01Z</time></trkpt><trkpt lat="42.3623561" lon="13.5406626"><ele>1227.0</ele><time>2026-05-03T07:58:19.01Z</time></trkpt><trkpt lat="42.3623202" lon="13.5408072"><ele>1228.0</ele><time>2026-05-03T07:58:20.009Z</time></trkpt><trkpt lat="42.3622815" lon="13.5409528"><ele>1229.0</ele><time>2026-05-03T07:58:21.009Z</time></trkpt><trkpt lat="42.3622395" lon="13.5411035"><ele>1230.0</ele><time>2026-05-03T07:58:22.009Z</time></trkpt><trkpt lat="42.3621959" lon="13.5412514"><ele>1230.0</ele><time>2026-05-03T07:58:23.01Z</time></trkpt><trkpt lat="42.3621488" lon="13.5414054"><ele>1230.0</ele><time>2026-05-03T07:58:24.01Z</time></trkpt><trkpt lat="42.3621062" lon="13.5415668"><ele>1230.0</ele><time>2026-05-03T07:58:25.01Z</time></trkpt><trkpt lat="42.3620629" lon="13.5417215"><ele>1230.0</ele><time>2026-05-03T07:58:26.009Z</time></trkpt><trkpt lat="42.3620153" lon="13.5418853"><ele>1230.0</ele><time>2026-05-03T07:58:27.009Z</time></trkpt><trkpt lat="42.3619699" lon="13.5420539"><ele>1230.0</ele><time>2026-05-03T07:58:28.009Z</time></trkpt><trkpt lat="42.3619241" lon="13.5422271"><ele>1230.0</ele><time>2026-05-03T07:58:29.01Z</time></trkpt><trkpt lat="42.361874" lon="13.5423957"><ele>1230.0</ele><time>2026-05-03T07:58:30.01Z</time></trkpt><trkpt lat="42.36183" lon="13.5425361"><ele>1230.0</ele><time>2026-05-03T07:58:31.009Z</time></trkpt><trkpt lat="42.3617952" lon="13.5426756"><ele>1230.0</ele><time>2026-05-03T07:58:32.01Z</time></trkpt><trkpt lat="42.361778" lon="13.5428165"><ele>1230.0</ele><time>2026-05-03T07:58:33.009Z</time></trkpt><trkpt lat="42.3617725" lon="13.5429585"><ele>1230.0</ele><time>2026-05-03T07:58:34.009Z</time></trkpt><trkpt lat="42.3617742" lon="13.5430987"><ele>1230.0</ele><time>2026-05-03T07:58:35.01Z</time></trkpt><trkpt lat="42.3617753" lon="13.5432528"><ele>1230.0</ele><time>2026-05-03T07:58:36.009Z</time></trkpt><trkpt lat="42.3617682" lon="13.543408"><ele>1230.0</ele><time>2026-05-03T07:58:37.01Z</time></trkpt><trkpt lat="42.3617468" lon="13.5435562"><ele>1230.0</ele><time>2026-05-03T07:58:38.01Z</time></trkpt><trkpt lat="42.361719" lon="13.5437059"><ele>1230.0</ele><time>2026-05-03T07:58:39.009Z</time></trkpt><trkpt lat="42.3616804" lon="13.5438468"><ele>1230.6</ele><time>2026-05-03T07:58:40.009Z</time></trkpt><trkpt lat="42.3616354" lon="13.5439858"><ele>1231.2</ele><time>2026-05-03T07:58:41.01Z</time></trkpt><trkpt lat="42.3616047" lon="13.5441347"><ele>1231.8</ele><time>2026-05-03T07:58:42.009Z</time></trkpt><trkpt lat="42.3615878" lon="13.5442819"><ele>1232.4</ele><time>2026-05-03T07:58:43.009Z</time></trkpt><trkpt lat="42.3615723" lon="13.5444141"><ele>1233.0</ele><time>2026-05-03T07:58:44.009Z</time></trkpt><trkpt lat="42.3615482" lon="13.5445409"><ele>1233.6</ele><time>2026-05-03T07:58:45.009Z</time></trkpt><trkpt lat="42.3615253" lon="13.5446608"><ele>1234.1999999999998</ele><time>2026-05-03T07:58:46.01Z</time></trkpt><trkpt lat="42.3615108" lon="13.544785"><ele>1234.8</ele><time>2026-05-03T07:58:47.01Z</time></trkpt><trkpt lat="42.361512" lon="13.5449123"><ele>1235.3999999999999</ele><time>2026-05-03T07:58:48.01Z</time></trkpt><trkpt lat="42.3615239" lon="13.5450472"><ele>1236.0</ele><time>2026-05-03T07:58:49.009Z</time></trkpt><trkpt lat="42.361539" lon="13.5451811"><ele>1236.0</ele><time>2026-05-03T07:58:50.009Z</time></trkpt><trkpt lat="42.3615461" lon="13.5453103"><ele>1236.0</ele><time>2026-05-03T07:58:51.01Z</time></trkpt><trkpt lat="42.3615436" lon="13.5454393"><ele>1236.0</ele><time>2026-05-03T07:58:52.01Z</time></trkpt><trkpt lat="42.3615319" lon="13.5455627"><ele>1236.0</ele><time>2026-05-03T07:58:53.01Z</time></trkpt><trkpt lat="42.361515" lon="13.5456785"><ele>1236.0</ele><time>2026-05-03T07:58:54.01Z</time></trkpt><trkpt lat="42.3615041" lon="13.5457931"><ele>1235.857142857143</ele><time>2026-05-03T07:58:55.009Z</time></trkpt><trkpt lat="42.3615042" lon="13.5458981"><ele>1235.7142857142858</ele><time>2026-05-03T07:58:56.01Z</time></trkpt><trkpt lat="42.3615174" lon="13.5460001"><ele>1235.5714285714284</ele><time>2026-05-03T07:58:57.01Z</time></trkpt><trkpt lat="42.3615422" lon="13.5460946"><ele>1235.4285714285716</ele><time>2026-05-03T07:58:58.01Z</time></trkpt><trkpt lat="42.3615622" lon="13.5461903"><ele>1235.2857142857142</ele><time>2026-05-03T07:58:59.01Z</time></trkpt><trkpt lat="42.3615708" lon="13.5462909"><ele>1235.142857142857</ele><time>2026-05-03T07:59:00.01Z</time></trkpt><trkpt lat="42.3615669" lon="13.5463819"><ele>1235.0</ele><time>2026-05-03T07:59:01.009Z</time></trkpt><trkpt lat="42.3615534" lon="13.5464735"><ele>1234.8571428571427</ele><time>2026-05-03T07:59:02.01Z</time></trkpt><trkpt lat="42.3615364" lon="13.5465612"><ele>1234.7142857142858</ele><time>2026-05-03T07:59:03.01Z</time></trkpt><trkpt lat="42.3615145" lon="13.5466437"><ele>1234.5714285714284</ele><time>2026-05-03T07:59:04.009Z</time></trkpt><trkpt lat="42.3614779" lon="13.5467196"><ele>1234.4285714285713</ele><time>2026-05-03T07:59:05.01Z</time></trkpt><trkpt lat="42.3614252" lon="13.5467929"><ele>1234.2857142857142</ele><time>2026-05-03T07:59:06.01Z</time></trkpt><trkpt lat="42.3613778" lon="13.5468632"><ele>1234.142857142857</ele><time>2026-05-03T07:59:07.009Z</time></trkpt><trkpt lat="42.361333" lon="13.5469471"><ele>1234.0</ele><time>2026-05-03T07:59:08.009Z</time></trkpt><trkpt lat="42.3612976" lon="13.5470364"><ele>1232.5</ele><time>2026-05-03T07:59:09.01Z</time></trkpt><trkpt lat="42.361267" lon="13.5471372"><ele>1231.0</ele><time>2026-05-03T07:59:10.01Z</time></trkpt><trkpt lat="42.3612362" lon="13.5472372"><ele>1229.5</ele><time>2026-05-03T07:59:11.01Z</time></trkpt><trkpt lat="42.3611992" lon="13.5473412"><ele>1228.0</ele><time>2026-05-03T07:59:12.01Z</time></trkpt><trkpt lat="42.3611554" lon="13.5474418"><ele>1226.5</ele><time>2026-05-03T07:59:13.009Z</time></trkpt><trkpt lat="42.3611079" lon="13.5475525"><ele>1225.0</ele><time>2026-05-03T07:59:14.01Z</time></trkpt><trkpt lat="42.3610635" lon="13.5476563"><ele>1225.0</ele><time>2026-05-03T07:59:15.009Z</time></trkpt><trkpt lat="42.3610248" lon="13.5477552"><ele>1225.0</ele><time>2026-05-03T07:59:16.009Z</time></trkpt><trkpt lat="42.3609888" lon="13.5478404"><ele>1225.0</ele><time>2026-05-03T07:59:17.01Z</time></trkpt><trkpt lat="42.3609497" lon="13.5479117"><ele>1225.0</ele><time>2026-05-03T07:59:18.009Z</time></trkpt><trkpt lat="42.3608969" lon="13.547977"><ele>1225.0</ele><time>2026-05-03T07:59:19.01Z</time></trkpt><trkpt lat="42.3608348" lon="13.5480469"><ele>1225.0</ele><time>2026-05-03T07:59:20.01Z</time></trkpt><trkpt lat="42.3607772" lon="13.5481292"><ele>1225.0</ele><time>2026-05-03T07:59:21.01Z</time></trkpt><trkpt lat="42.3607311" lon="13.5482279"><ele>1225.0</ele><time>2026-05-03T07:59:22.01Z</time></trkpt><trkpt lat="42.3606913" lon="13.5483326"><ele>1225.0</ele><time>2026-05-03T07:59:23.01Z</time></trkpt><trkpt lat="42.3606531" lon="13.5484412"><ele>1225.0</ele><time>2026-05-03T07:59:24.009Z</time></trkpt><trkpt lat="42.3606246" lon="13.5485443"><ele>1225.0</ele><time>2026-05-03T07:59:25.009Z</time></trkpt><trkpt lat="42.3605989" lon="13.5486512"><ele>1225.0</ele><time>2026-05-03T07:59:26.01Z</time></trkpt><trkpt lat="42.3605729" lon="13.5487707"><ele>1224.0</ele><time>2026-05-03T07:59:27.01Z</time></trkpt><trkpt lat="42.3605533" lon="13.5489006"><ele>1223.0</ele><time>2026-05-03T07:59:28.01Z</time></trkpt><trkpt lat="42.3605381" lon="13.5490308"><ele>1222.0</ele><time>2026-05-03T07:59:29.01Z</time></trkpt><trkpt lat="42.3605222" lon="13.5491549"><ele>1221.0</ele><time>2026-05-03T07:59:30.009Z</time></trkpt><trkpt lat="42.3605073" lon="13.5492733"><ele>1220.0</ele><time>2026-05-03T07:59:31.009Z</time></trkpt><trkpt lat="42.3604873" lon="13.5493832"><ele>1219.6</ele><time>2026-05-03T07:59:32.009Z</time></trkpt><trkpt lat="42.3604515" lon="13.5494867"><ele>1219.2</ele><time>2026-05-03T07:59:33.009Z</time></trkpt><trkpt lat="42.3604186" lon="13.5495963"><ele>1218.8</ele><time>2026-05-03T07:59:34.01Z</time></trkpt><trkpt lat="42.3603983" lon="13.5497126"><ele>1218.4</ele><time>2026-05-03T07:59:35.01Z</time></trkpt><trkpt lat="42.3603779" lon="13.5498403"><ele>1218.0</ele><time>2026-05-03T07:59:36.01Z</time></trkpt><trkpt lat="42.3603545" lon="13.5499706"><ele>1217.25</ele><time>2026-05-03T07:59:37.01Z</time></trkpt><trkpt lat="42.3603289" lon="13.5501143"><ele>1216.5</ele><time>2026-05-03T07:59:38.009Z</time></trkpt><trkpt lat="42.3603024" lon="13.5502659"><ele>1215.75</ele><time>2026-05-03T07:59:39.01Z</time></trkpt><trkpt lat="42.3602767" lon="13.5504175"><ele>1215.0</ele><time>2026-05-03T07:59:40.009Z</time></trkpt><trkpt lat="42.360246" lon="13.5505761"><ele>1214.5</ele><time>2026-05-03T07:59:41.01Z</time></trkpt><trkpt lat="42.3602135" lon="13.5507427"><ele>1214.0</ele><time>2026-05-03T07:59:42.01Z</time></trkpt><trkpt lat="42.360178" lon="13.5509086"><ele>1213.5</ele><time>2026-05-03T07:59:43.009Z</time></trkpt><trkpt lat="42.3601391" lon="13.5510724"><ele>1213.0</ele><time>2026-05-03T07:59:44.01Z</time></trkpt><trkpt lat="42.3601033" lon="13.5512308"><ele>1212.75</ele><time>2026-05-03T07:59:45.01Z</time></trkpt><trkpt lat="42.3600724" lon="13.5513877"><ele>1212.5</ele><time>2026-05-03T07:59:46.01Z</time></trkpt><trkpt lat="42.3600422" lon="13.5515333"><ele>1212.25</ele><time>2026-05-03T07:59:47.01Z</time></trkpt><trkpt lat="42.3600104" lon="13.5516777"><ele>1212.0</ele><time>2026-05-03T07:59:48.009Z</time></trkpt><trkpt lat="42.3599705" lon="13.551817"><ele>1212.0</ele><time>2026-05-03T07:59:49.01Z</time></trkpt><trkpt lat="42.3599222" lon="13.5519555"><ele>1212.0</ele><time>2026-05-03T07:59:50.01Z</time></trkpt><trkpt lat="42.359886" lon="13.552084"><ele>1212.0</ele><time>2026-05-03T07:59:51.01Z</time></trkpt><trkpt lat="42.3598373" lon="13.5522089"><ele>1212.0</ele><time>2026-05-03T07:59:52.009Z</time></trkpt><trkpt lat="42.3597848" lon="13.5523333"><ele>1212.0</ele><time>2026-05-03T07:59:53.009Z</time></trkpt><trkpt lat="42.3597199" lon="13.5524531"><ele>1211.75</ele><time>2026-05-03T07:59:54.01Z</time></trkpt><trkpt lat="42.3596521" lon="13.5525847"><ele>1211.5</ele><time>2026-05-03T07:59:55.01Z</time></trkpt><trkpt lat="42.3595817" lon="13.5527135"><ele>1211.25</ele><time>2026-05-03T07:59:56.01Z</time></trkpt><trkpt lat="42.3595179" lon="13.5528474"><ele>1211.0</ele><time>2026-05-03T07:59:57.009Z</time></trkpt><trkpt lat="42.3594547" lon="13.552995"><ele>1211.0</ele><time>2026-05-03T07:59:58.009Z</time></trkpt><trkpt lat="42.3593943" lon="13.5531391"><ele>1211.0</ele><time>2026-05-03T07:59:59.009Z</time></trkpt><trkpt lat="42.3593384" lon="13.5532946"><ele>1211.0</ele><time>2026-05-03T08:00:00.009Z</time></trkpt><trkpt lat="42.3592927" lon="13.5534529"><ele>1211.0</ele><time>2026-05-03T08:00:01.01Z</time></trkpt><trkpt lat="42.3592525" lon="13.5536127"><ele>1211.25</ele><time>2026-05-03T08:00:02.01Z</time></trkpt><trkpt lat="42.3592077" lon="13.5537658"><ele>1211.5</ele><time>2026-05-03T08:00:03.01Z</time></trkpt><trkpt lat="42.3591561" lon="13.5539083"><ele>1211.75</ele><time>2026-05-03T08:00:04.01Z</time></trkpt><trkpt lat="42.3590973" lon="13.5540468"><ele>1212.0</ele><time>2026-05-03T08:00:05.01Z</time></trkpt><trkpt lat="42.3590359" lon="13.5541864"><ele>1212.0</ele><time>2026-05-03T08:00:06.009Z</time></trkpt><trkpt lat="42.3589724" lon="13.5543293"><ele>1212.0</ele><time>2026-05-03T08:00:07.009Z</time></trkpt><trkpt lat="42.3589126" lon="13.5544792"><ele>1212.0</ele><time>2026-05-03T08:00:08.01Z</time></trkpt><trkpt lat="42.3588529" lon="13.5546326"><ele>1212.0</ele><time>2026-05-03T08:00:09.009Z</time></trkpt><trkpt lat="42.3587917" lon="13.5547805"><ele>1213.0</ele><time>2026-05-03T08:00:10.01Z</time></trkpt><trkpt lat="42.3587369" lon="13.5549222"><ele>1214.0</ele><time>2026-05-03T08:00:11.009Z</time></trkpt><trkpt lat="42.3586871" lon="13.5550491"><ele>1215.0</ele><time>2026-05-03T08:00:12.009Z</time></trkpt><trkpt lat="42.3586465" lon="13.5551724"><ele>1216.0</ele><time>2026-05-03T08:00:13.009Z</time></trkpt><trkpt lat="42.3586098" lon="13.5553011"><ele>1217.0</ele><time>2026-05-03T08:00:14.01Z</time></trkpt><trkpt lat="42.3585692" lon="13.5554411"><ele>1217.0</ele><time>2026-05-03T08:00:15.009Z</time></trkpt><trkpt lat="42.358529" lon="13.5555841"><ele>1217.0</ele><time>2026-05-03T08:00:16.009Z</time></trkpt><trkpt lat="42.3584925" lon="13.5557181"><ele>1217.0</ele><time>2026-05-03T08:00:17.009Z</time></trkpt><trkpt lat="42.3584587" lon="13.5558433"><ele>1217.0</ele><time>2026-05-03T08:00:18.009Z</time></trkpt><trkpt lat="42.3584346" lon="13.5559678"><ele>1217.0</ele><time>2026-05-03T08:00:19.01Z</time></trkpt><trkpt lat="42.3584271" lon="13.5560937"><ele>1215.8</ele><time>2026-05-03T08:00:20.009Z</time></trkpt><trkpt lat="42.358432" lon="13.5562201"><ele>1214.6</ele><time>2026-05-03T08:00:21.009Z</time></trkpt><trkpt lat="42.3584406" lon="13.556353"><ele>1213.3999999999999</ele><time>2026-05-03T08:00:22.009Z</time></trkpt><trkpt lat="42.3584502" lon="13.5564864"><ele>1212.2</ele><time>2026-05-03T08:00:23.01Z</time></trkpt><trkpt lat="42.3584631" lon="13.5566062"><ele>1211.0</ele><time>2026-05-03T08:00:24.01Z</time></trkpt><trkpt lat="42.3584728" lon="13.5567143"><ele>1211.0</ele><time>2026-05-03T08:00:25.01Z</time></trkpt><trkpt lat="42.358481" lon="13.5568177"><ele>1211.0</ele><time>2026-05-03T08:00:26.009Z</time></trkpt><trkpt lat="42.3584905" lon="13.5569132"><ele>1211.0</ele><time>2026-05-03T08:00:27.01Z</time></trkpt><trkpt lat="42.358514" lon="13.5570009"><ele>1211.0</ele><time>2026-05-03T08:00:28.009Z</time></trkpt><trkpt lat="42.3585457" lon="13.5570883"><ele>1211.0</ele><time>2026-05-03T08:00:29.01Z</time></trkpt><trkpt lat="42.3585906" lon="13.5571807"><ele>1211.0</ele><time>2026-05-03T08:00:30.01Z</time></trkpt><trkpt lat="42.3586354" lon="13.5572816"><ele>1211.0</ele><time>2026-05-03T08:00:31.01Z</time></trkpt><trkpt lat="42.3586929" lon="13.5573863"><ele>1211.0</ele><time>2026-05-03T08:00:32.01Z</time></trkpt><trkpt lat="42.358729" lon="13.5574918"><ele>1211.0</ele><time>2026-05-03T08:00:33.009Z</time></trkpt><trkpt lat="42.358765" lon="13.5575938"><ele>1211.0</ele><time>2026-05-03T08:00:34.009Z</time></trkpt><trkpt lat="42.3587892" lon="13.5577003"><ele>1211.0</ele><time>2026-05-03T08:00:35.01Z</time></trkpt><trkpt lat="42.3587949" lon="13.5578081"><ele>1211.0</ele><time>2026-05-03T08:00:36.01Z</time></trkpt><trkpt lat="42.3587958" lon="13.5579242"><ele>1210.8</ele><time>2026-05-03T08:00:37.01Z</time></trkpt><trkpt lat="42.3587961" lon="13.558049"><ele>1210.6</ele><time>2026-05-03T08:00:38.009Z</time></trkpt><trkpt lat="42.3588019" lon="13.5581748"><ele>1210.4</ele><time>2026-05-03T08:00:39.01Z</time></trkpt><trkpt lat="42.3588166" lon="13.5582852"><ele>1210.2</ele><time>2026-05-03T08:00:40.009Z</time></trkpt><trkpt lat="42.3588418" lon="13.5584039"><ele>1210.0</ele><time>2026-05-03T08:00:41.01Z</time></trkpt><trkpt lat="42.358871" lon="13.5585366"><ele>1209.4</ele><time>2026-05-03T08:00:42.01Z</time></trkpt><trkpt lat="42.3589023" lon="13.5586717"><ele>1208.8</ele><time>2026-05-03T08:00:43.009Z</time></trkpt><trkpt lat="42.3589321" lon="13.5588096"><ele>1208.2</ele><time>2026-05-03T08:00:44.01Z</time></trkpt><trkpt lat="42.3589593" lon="13.5589407"><ele>1207.6</ele><time>2026-05-03T08:00:45.009Z</time></trkpt><trkpt lat="42.3589829" lon="13.5590637"><ele>1207.0</ele><time>2026-05-03T08:00:46.009Z</time></trkpt><trkpt lat="42.3590035" lon="13.559182"><ele>1206.1666666666665</ele><time>2026-05-03T08:00:47.01Z</time></trkpt><trkpt lat="42.3590148" lon="13.5592868"><ele>1205.3333333333333</ele><time>2026-05-03T08:00:48.01Z</time></trkpt><trkpt lat="42.3590178" lon="13.5593899"><ele>1204.5</ele><time>2026-05-03T08:00:49.009Z</time></trkpt><trkpt lat="42.3590082" lon="13.5594969"><ele>1203.6666666666667</ele><time>2026-05-03T08:00:50.009Z</time></trkpt><trkpt lat="42.358995" lon="13.5596148"><ele>1202.8333333333335</ele><time>2026-05-03T08:00:51.01Z</time></trkpt><trkpt lat="42.3589762" lon="13.559735"><ele>1202.0</ele><time>2026-05-03T08:00:52.01Z</time></trkpt><trkpt lat="42.3589576" lon="13.5598642"><ele>1202.0</ele><time>2026-05-03T08:00:53.009Z</time></trkpt><trkpt lat="42.3589417" lon="13.5599981"><ele>1202.0</ele><time>2026-05-03T08:00:54.009Z</time></trkpt><trkpt lat="42.3589321" lon="13.5601164"><ele>1202.0</ele><time>2026-05-03T08:00:55.01Z</time></trkpt><trkpt lat="42.3589233" lon="13.5602336"><ele>1202.0</ele><time>2026-05-03T08:00:56.01Z</time></trkpt><trkpt lat="42.3589158" lon="13.5603486"><ele>1202.0</ele><time>2026-05-03T08:00:57.009Z</time></trkpt><trkpt lat="42.35891" lon="13.5604646"><ele>1202.0</ele><time>2026-05-03T08:00:58.01Z</time></trkpt><trkpt lat="42.3589074" lon="13.5605765"><ele>1201.8333333333335</ele><time>2026-05-03T08:00:59.01Z</time></trkpt><trkpt lat="42.3589102" lon="13.5606796"><ele>1201.6666666666667</ele><time>2026-05-03T08:01:00.009Z</time></trkpt><trkpt lat="42.3589101" lon="13.5607817"><ele>1201.5</ele><time>2026-05-03T08:01:01.01Z</time></trkpt><trkpt lat="42.3589081" lon="13.5608855"><ele>1201.3333333333333</ele><time>2026-05-03T08:01:02.01Z</time></trkpt><trkpt lat="42.3589054" lon="13.5609994"><ele>1201.1666666666665</ele><time>2026-05-03T08:01:03.01Z</time></trkpt><trkpt lat="42.3589058" lon="13.5611185"><ele>1201.0</ele><time>2026-05-03T08:01:04.01Z</time></trkpt><trkpt lat="42.3589041" lon="13.5612296"><ele>1200.3999999999999</ele><time>2026-05-03T08:01:05.009Z</time></trkpt><trkpt lat="42.358903" lon="13.5613482"><ele>1199.8</ele><time>2026-05-03T08:01:06.009Z</time></trkpt><trkpt lat="42.3588985" lon="13.5614702"><ele>1199.1999999999998</ele><time>2026-05-03T08:01:07.009Z</time></trkpt><trkpt lat="42.3588909" lon="13.5615958"><ele>1198.6</ele><time>2026-05-03T08:01:08.01Z</time></trkpt><trkpt lat="42.358885" lon="13.5617277"><ele>1198.0</ele><time>2026-05-03T08:01:09.009Z</time></trkpt><trkpt lat="42.3588835" lon="13.5618607"><ele>1198.0</ele><time>2026-05-03T08:01:10.009Z</time></trkpt><trkpt lat="42.3588803" lon="13.5619946"><ele>1198.0</ele><time>2026-05-03T08:01:11.01Z</time></trkpt><trkpt lat="42.3588782" lon="13.5621298"><ele>1198.0</ele><time>2026-05-03T08:01:12.009Z</time></trkpt><trkpt lat="42.358873" lon="13.5622623"><ele>1198.0</ele><time>2026-05-03T08:01:13.009Z</time></trkpt><trkpt lat="42.3588686" lon="13.5623936"><ele>1198.0</ele><time>2026-05-03T08:01:14.009Z</time></trkpt><trkpt lat="42.3588693" lon="13.5625289"><ele>1198.0</ele><time>2026-05-03T08:01:15.009Z</time></trkpt><trkpt lat="42.3588744" lon="13.5626662"><ele>1198.0</ele><time>2026-05-03T08:01:16.009Z</time></trkpt><trkpt lat="42.3588809" lon="13.5627972"><ele>1198.0</ele><time>2026-05-03T08:01:17.01Z</time></trkpt><trkpt lat="42.3588895" lon="13.5629282"><ele>1198.0</ele><time>2026-05-03T08:01:18.01Z</time></trkpt><trkpt lat="42.3589046" lon="13.5630579"><ele>1198.0</ele><time>2026-05-03T08:01:19.009Z</time></trkpt><trkpt lat="42.3589273" lon="13.563193"><ele>1196.6666666666665</ele><time>2026-05-03T08:01:20.01Z</time></trkpt><trkpt lat="42.3589541" lon="13.563321"><ele>1195.3333333333333</ele><time>2026-05-03T08:01:21.009Z</time></trkpt><trkpt lat="42.358978" lon="13.563443"><ele>1194.0</ele><time>2026-05-03T08:01:22.01Z</time></trkpt><trkpt lat="42.358988" lon="13.5635588"><ele>1192.6666666666667</ele><time>2026-05-03T08:01:23.009Z</time></trkpt><trkpt lat="42.3589917" lon="13.5636691"><ele>1191.3333333333335</ele><time>2026-05-03T08:01:24.009Z</time></trkpt><trkpt lat="42.3589899" lon="13.563781"><ele>1190.0</ele><time>2026-05-03T08:01:25.01Z</time></trkpt><trkpt lat="42.3589766" lon="13.5638968"><ele>1190.5</ele><time>2026-05-03T08:01:26.009Z</time></trkpt><trkpt lat="42.3589746" lon="13.5640128"><ele>1191.0</ele><time>2026-05-03T08:01:27.009Z</time></trkpt><trkpt lat="42.3589762" lon="13.5641351"><ele>1191.5</ele><time>2026-05-03T08:01:28.01Z</time></trkpt><trkpt lat="42.3589831" lon="13.5642504"><ele>1192.0</ele><time>2026-05-03T08:01:29.01Z</time></trkpt><trkpt lat="42.3589927" lon="13.564349"><ele>1192.5</ele><time>2026-05-03T08:01:30.009Z</time></trkpt><trkpt lat="42.3590004" lon="13.5644398"><ele>1193.0</ele><time>2026-05-03T08:01:31.01Z</time></trkpt><trkpt lat="42.3589963" lon="13.5645961"><ele>1193.0</ele><time>2026-05-03T08:01:33.009Z</time></trkpt><trkpt lat="42.3589653" lon="13.5647506"><ele>1193.0</ele><time>2026-05-03T08:01:35.01Z</time></trkpt><trkpt lat="42.3589397" lon="13.5648369"><ele>1193.0</ele><time>2026-05-03T08:01:36.01Z</time></trkpt><trkpt lat="42.358901" lon="13.5649384"><ele>1193.0</ele><time>2026-05-03T08:01:37.009Z</time></trkpt><trkpt lat="42.3588701" lon="13.5650561"><ele>1193.0</ele><time>2026-05-03T08:01:38.01Z</time></trkpt><trkpt lat="42.3588505" lon="13.5651937"><ele>1193.5</ele><time>2026-05-03T08:01:39.009Z</time></trkpt><trkpt lat="42.3588328" lon="13.5653476"><ele>1194.0</ele><time>2026-05-03T08:01:40.01Z</time></trkpt><trkpt lat="42.3588219" lon="13.565515"><ele>1194.5</ele><time>2026-05-03T08:01:41.009Z</time></trkpt><trkpt lat="42.3588167" lon="13.5656878"><ele>1195.0</ele><time>2026-05-03T08:01:42.01Z</time></trkpt><trkpt lat="42.3588084" lon="13.5658734"><ele>1194.0</ele><time>2026-05-03T08:01:43.01Z</time></trkpt><trkpt lat="42.3588079" lon="13.5660697"><ele>1193.0</ele><time>2026-05-03T08:01:44.01Z</time></trkpt><trkpt lat="42.3588111" lon="13.5662659"><ele>1192.0</ele><time>2026-05-03T08:01:45.01Z</time></trkpt><trkpt lat="42.3588233" lon="13.5664539"><ele>1191.0</ele><time>2026-05-03T08:01:46.009Z</time></trkpt><trkpt lat="42.3588306" lon="13.5666256"><ele>1191.0</ele><time>2026-05-03T08:01:47.009Z</time></trkpt><trkpt lat="42.3588337" lon="13.5667894"><ele>1191.0</ele><time>2026-05-03T08:01:48.009Z</time></trkpt><trkpt lat="42.3588344" lon="13.5669406"><ele>1191.0</ele><time>2026-05-03T08:01:49.01Z</time></trkpt><trkpt lat="42.3588269" lon="13.5670946"><ele>1191.0</ele><time>2026-05-03T08:01:50.01Z</time></trkpt><trkpt lat="42.3588146" lon="13.567254"><ele>1191.0</ele><time>2026-05-03T08:01:51.009Z</time></trkpt><trkpt lat="42.3588106" lon="13.5674282"><ele>1191.0</ele><time>2026-05-03T08:01:52.01Z</time></trkpt><trkpt lat="42.3588067" lon="13.5676129"><ele>1191.0</ele><time>2026-05-03T08:01:53.01Z</time></trkpt><trkpt lat="42.358792" lon="13.5677925"><ele>1191.0</ele><time>2026-05-03T08:01:54.01Z</time></trkpt><trkpt lat="42.358772" lon="13.5679695"><ele>1191.0</ele><time>2026-05-03T08:01:55.01Z</time></trkpt><trkpt lat="42.3587539" lon="13.568148"><ele>1191.0</ele><time>2026-05-03T08:01:56.01Z</time></trkpt><trkpt lat="42.3587351" lon="13.5683265"><ele>1191.0</ele><time>2026-05-03T08:01:57.01Z</time></trkpt><trkpt lat="42.3587132" lon="13.5685046"><ele>1191.0</ele><time>2026-05-03T08:01:58.01Z</time></trkpt><trkpt lat="42.3586858" lon="13.5686809"><ele>1189.25</ele><time>2026-05-03T08:01:59.009Z</time></trkpt><trkpt lat="42.3586551" lon="13.5688545"><ele>1187.5</ele><time>2026-05-03T08:02:00.009Z</time></trkpt><trkpt lat="42.3586123" lon="13.5690114"><ele>1185.75</ele><time>2026-05-03T08:02:01.01Z</time></trkpt><trkpt lat="42.3585451" lon="13.5691531"><ele>1184.0</ele><time>2026-05-03T08:02:02.009Z</time></trkpt><trkpt lat="42.3584631" lon="13.5692916"><ele>1184.0</ele><time>2026-05-03T08:02:03.01Z</time></trkpt><trkpt lat="42.3583726" lon="13.5694379"><ele>1184.0</ele><time>2026-05-03T08:02:04.009Z</time></trkpt><trkpt lat="42.3582802" lon="13.5695875"><ele>1184.0</ele><time>2026-05-03T08:02:05.01Z</time></trkpt><trkpt lat="42.3581849" lon="13.5697357"><ele>1184.0</ele><time>2026-05-03T08:02:06.009Z</time></trkpt><trkpt lat="42.358096" lon="13.5698909"><ele>1184.5</ele><time>2026-05-03T08:02:07.01Z</time></trkpt><trkpt lat="42.3580128" lon="13.5700354"><ele>1185.0</ele><time>2026-05-03T08:02:08.01Z</time></trkpt><trkpt lat="42.3579316" lon="13.5701757"><ele>1185.5</ele><time>2026-05-03T08:02:09.009Z</time></trkpt><trkpt lat="42.3578469" lon="13.5703162"><ele>1186.0</ele><time>2026-05-03T08:02:10.009Z</time></trkpt><trkpt lat="42.357768" lon="13.5704695"><ele>1186.0</ele><time>2026-05-03T08:02:11.01Z</time></trkpt><trkpt lat="42.3576975" lon="13.5706261"><ele>1186.0</ele><time>2026-05-03T08:02:12.01Z</time></trkpt><trkpt lat="42.3576371" lon="13.5707845"><ele>1186.0</ele><time>2026-05-03T08:02:13.009Z</time></trkpt><trkpt lat="42.3575652" lon="13.5709398"><ele>1186.0</ele><time>2026-05-03T08:02:14.01Z</time></trkpt><trkpt lat="42.357493" lon="13.5710933"><ele>1185.0</ele><time>2026-05-03T08:02:15.01Z</time></trkpt><trkpt lat="42.3574123" lon="13.5712383"><ele>1184.0</ele><time>2026-05-03T08:02:16.009Z</time></trkpt><trkpt lat="42.3573224" lon="13.5713851"><ele>1183.0</ele><time>2026-05-03T08:02:17.01Z</time></trkpt><trkpt lat="42.3572326" lon="13.5715293"><ele>1182.0</ele><time>2026-05-03T08:02:18.01Z</time></trkpt><trkpt lat="42.3571432" lon="13.5716744"><ele>1182.0</ele><time>2026-05-03T08:02:19.01Z</time></trkpt><trkpt lat="42.3570563" lon="13.5718377"><ele>1182.0</ele><time>2026-05-03T08:02:20.01Z</time></trkpt><trkpt lat="42.3569748" lon="13.5719924"><ele>1182.0</ele><time>2026-05-03T08:02:21.009Z</time></trkpt><trkpt lat="42.3568893" lon="13.5721413"><ele>1182.0</ele><time>2026-05-03T08:02:22.01Z</time></trkpt><trkpt lat="42.3567934" lon="13.5722751"><ele>1182.0</ele><time>2026-05-03T08:02:23.009Z</time></trkpt><trkpt lat="42.3566847" lon="13.5723817"><ele>1182.0</ele><time>2026-05-03T08:02:24.01Z</time></trkpt><trkpt lat="42.3565792" lon="13.5724565"><ele>1182.0</ele><time>2026-05-03T08:02:25.009Z</time></trkpt><trkpt lat="42.35646" lon="13.5724908"><ele>1182.0</ele><time>2026-05-03T08:02:26.01Z</time></trkpt><trkpt lat="42.3563627" lon="13.5724738"><ele>1182.0</ele><time>2026-05-03T08:02:27.01Z</time></trkpt><trkpt lat="42.3562592" lon="13.5724354"><ele>1182.0</ele><time>2026-05-03T08:02:28.009Z</time></trkpt><trkpt lat="42.3561527" lon="13.5724047"><ele>1182.0</ele><time>2026-05-03T08:02:29.01Z</time></trkpt><trkpt lat="42.3560465" lon="13.5723998"><ele>1182.0</ele><time>2026-05-03T08:02:30.01Z</time></trkpt><trkpt lat="42.3559342" lon="13.5724285"><ele>1182.0</ele><time>2026-05-03T08:02:31.01Z</time></trkpt><trkpt lat="42.3558089" lon="13.5724675"><ele>1182.0</ele><time>2026-05-03T08:02:32.01Z</time></trkpt><trkpt lat="42.3556753" lon="13.5725209"><ele>1182.0</ele><time>2026-05-03T08:02:33.009Z</time></trkpt><trkpt lat="42.3555406" lon="13.5725762"><ele>1182.0</ele><time>2026-05-03T08:02:34.01Z</time></trkpt><trkpt lat="42.3554166" lon="13.5726446"><ele>1182.0</ele><time>2026-05-03T08:02:35.01Z</time></trkpt><trkpt lat="42.3552929" lon="13.5727169"><ele>1180.5</ele><time>2026-05-03T08:02:36.009Z</time></trkpt><trkpt lat="42.3551629" lon="13.5727971"><ele>1179.0</ele><time>2026-05-03T08:02:37.01Z</time></trkpt><trkpt lat="42.3550304" lon="13.5728727"><ele>1177.5</ele><time>2026-05-03T08:02:38.01Z</time></trkpt><trkpt lat="42.3549056" lon="13.5729493"><ele>1176.0</ele><time>2026-05-03T08:02:39.009Z</time></trkpt><trkpt lat="42.3547843" lon="13.5730187"><ele>1175.75</ele><time>2026-05-03T08:02:40.009Z</time></trkpt><trkpt lat="42.3546621" lon="13.5730815"><ele>1175.5</ele><time>2026-05-03T08:02:41.009Z</time></trkpt><trkpt lat="42.3545377" lon="13.5731473"><ele>1175.25</ele><time>2026-05-03T08:02:42.009Z</time></trkpt><trkpt lat="42.3544187" lon="13.5732147"><ele>1175.0</ele><time>2026-05-03T08:02:43.01Z</time></trkpt><trkpt lat="42.3543028" lon="13.5732788"><ele>1175.0</ele><time>2026-05-03T08:02:44.009Z</time></trkpt><trkpt lat="42.354185" lon="13.5733427"><ele>1175.0</ele><time>2026-05-03T08:02:45.009Z</time></trkpt><trkpt lat="42.3540659" lon="13.5734089"><ele>1175.0</ele><time>2026-05-03T08:02:46.01Z</time></trkpt><trkpt lat="42.3539526" lon="13.5734859"><ele>1175.0</ele><time>2026-05-03T08:02:47.01Z</time></trkpt><trkpt lat="42.3538422" lon="13.5735588"><ele>1176.25</ele><time>2026-05-03T08:02:48.009Z</time></trkpt><trkpt lat="42.3537311" lon="13.5736312"><ele>1177.5</ele><time>2026-05-03T08:02:49.01Z</time></trkpt><trkpt lat="42.3536214" lon="13.5737008"><ele>1178.75</ele><time>2026-05-03T08:02:50.01Z</time></trkpt><trkpt lat="42.3535157" lon="13.5737648"><ele>1180.0</ele><time>2026-05-03T08:02:51.01Z</time></trkpt><trkpt lat="42.3534144" lon="13.5738263"><ele>1176.8</ele><time>2026-05-03T08:02:52.01Z</time></trkpt><trkpt lat="42.3533164" lon="13.5738922"><ele>1173.6</ele><time>2026-05-03T08:02:53.009Z</time></trkpt><trkpt lat="42.3532217" lon="13.5739562"><ele>1170.4</ele><time>2026-05-03T08:02:54.009Z</time></trkpt><trkpt lat="42.3531298" lon="13.5740137"><ele>1167.2</ele><time>2026-05-03T08:02:55.009Z</time></trkpt><trkpt lat="42.3530464" lon="13.5740697"><ele>1164.0</ele><time>2026-05-03T08:02:56.009Z</time></trkpt><trkpt lat="42.3529755" lon="13.5741214"><ele>1163.142857142857</ele><time>2026-05-03T08:02:57.009Z</time></trkpt><trkpt lat="42.3529094" lon="13.5741717"><ele>1162.2857142857142</ele><time>2026-05-03T08:02:58.009Z</time></trkpt><trkpt lat="42.3528416" lon="13.5742104"><ele>1161.4285714285713</ele><time>2026-05-03T08:02:59.009Z</time></trkpt><trkpt lat="42.352778" lon="13.574239"><ele>1160.5714285714284</ele><time>2026-05-03T08:03:00.01Z</time></trkpt><trkpt lat="42.352709" lon="13.5742453"><ele>1159.7142857142858</ele><time>2026-05-03T08:03:01.009Z</time></trkpt><trkpt lat="42.3526357" lon="13.5742417"><ele>1158.8571428571427</ele><time>2026-05-03T08:03:02.01Z</time></trkpt><trkpt lat="42.3525586" lon="13.5742231"><ele>1158.0</ele><time>2026-05-03T08:03:03.01Z</time></trkpt><trkpt lat="42.3524869" lon="13.5741919"><ele>1157.9999999999998</ele><time>2026-05-03T08:03:04.01Z</time></trkpt><trkpt lat="42.3524168" lon="13.5741542"><ele>1158.0</ele><time>2026-05-03T08:03:05.01Z</time></trkpt><trkpt lat="42.3523498" lon="13.5741142"><ele>1158.0</ele><time>2026-05-03T08:03:06.01Z</time></trkpt><trkpt lat="42.3522825" lon="13.574079"><ele>1158.0</ele><time>2026-05-03T08:03:07.009Z</time></trkpt><trkpt lat="42.3522203" lon="13.5740305"><ele>1158.0</ele><time>2026-05-03T08:03:08.009Z</time></trkpt><trkpt lat="42.3521637" lon="13.5739827"><ele>1157.9999999999998</ele><time>2026-05-03T08:03:09.01Z</time></trkpt><trkpt lat="42.3521036" lon="13.5739364"><ele>1158.0</ele><time>2026-05-03T08:03:10.009Z</time></trkpt><trkpt lat="42.3520422" lon="13.5738771"><ele>1157.2857142857142</ele><time>2026-05-03T08:03:11.01Z</time></trkpt><trkpt lat="42.3519822" lon="13.5738187"><ele>1156.5714285714284</ele><time>2026-05-03T08:03:12.01Z</time></trkpt><trkpt lat="42.3519209" lon="13.5737612"><ele>1155.857142857143</ele><time>2026-05-03T08:03:13.01Z</time></trkpt><trkpt lat="42.35186" lon="13.5737157"><ele>1155.142857142857</ele><time>2026-05-03T08:03:14.009Z</time></trkpt><trkpt lat="42.3517933" lon="13.5736703"><ele>1154.4285714285716</ele><time>2026-05-03T08:03:15.01Z</time></trkpt><trkpt lat="42.351725" lon="13.5736265"><ele>1153.7142857142858</ele><time>2026-05-03T08:03:16.01Z</time></trkpt><trkpt lat="42.3516525" lon="13.5735804"><ele>1153.0</ele><time>2026-05-03T08:03:17.009Z</time></trkpt><trkpt lat="42.3515759" lon="13.5735265"><ele>1153.0</ele><time>2026-05-03T08:03:18.01Z</time></trkpt><trkpt lat="42.3514973" lon="13.5734558"><ele>1153.0</ele><time>2026-05-03T08:03:19.01Z</time></trkpt><trkpt lat="42.3514196" lon="13.5733838"><ele>1153.0</ele><time>2026-05-03T08:03:20.009Z</time></trkpt><trkpt lat="42.3513452" lon="13.5733011"><ele>1153.0</ele><time>2026-05-03T08:03:21.01Z</time></trkpt><trkpt lat="42.3512692" lon="13.5732151"><ele>1153.0</ele><time>2026-05-03T08:03:22.009Z</time></trkpt><trkpt lat="42.3512039" lon="13.5731285"><ele>1152.2</ele><time>2026-05-03T08:03:23.01Z</time></trkpt><trkpt lat="42.3511345" lon="13.5730399"><ele>1151.4</ele><time>2026-05-03T08:03:24.009Z</time></trkpt><trkpt lat="42.3510764" lon="13.5729434"><ele>1150.6000000000001</ele><time>2026-05-03T08:03:25.01Z</time></trkpt><trkpt lat="42.3510155" lon="13.5728479"><ele>1149.8</ele><time>2026-05-03T08:03:26.01Z</time></trkpt><trkpt lat="42.3509571" lon="13.5727486"><ele>1149.0</ele><time>2026-05-03T08:03:27.009Z</time></trkpt><trkpt lat="42.3509013" lon="13.5726524"><ele>1149.0</ele><time>2026-05-03T08:03:28.009Z</time></trkpt><trkpt lat="42.3508392" lon="13.5725638"><ele>1149.0</ele><time>2026-05-03T08:03:29.01Z</time></trkpt><trkpt lat="42.350767" lon="13.5724961"><ele>1149.0</ele><time>2026-05-03T08:03:30.01Z</time></trkpt><trkpt lat="42.3506856" lon="13.5724423"><ele>1149.0</ele><time>2026-05-03T08:03:31.01Z</time></trkpt><trkpt lat="42.3506024" lon="13.5723872"><ele>1149.0</ele><time>2026-05-03T08:03:32.01Z</time></trkpt><trkpt lat="42.3505142" lon="13.572339"><ele>1148.0</ele><time>2026-05-03T08:03:33.01Z</time></trkpt><trkpt lat="42.3504279" lon="13.5722863"><ele>1147.0</ele><time>2026-05-03T08:03:34.01Z</time></trkpt><trkpt lat="42.3503506" lon="13.572225"><ele>1146.0</ele><time>2026-05-03T08:03:35.009Z</time></trkpt><trkpt lat="42.350274" lon="13.572147"><ele>1145.0</ele><time>2026-05-03T08:03:36.009Z</time></trkpt><trkpt lat="42.3501923" lon="13.5720686"><ele>1144.0</ele><time>2026-05-03T08:03:37.009Z</time></trkpt><trkpt lat="42.3501056" lon="13.5719969"><ele>1144.0</ele><time>2026-05-03T08:03:38.009Z</time></trkpt><trkpt lat="42.3500217" lon="13.5719329"><ele>1144.0</ele><time>2026-05-03T08:03:39.009Z</time></trkpt><trkpt lat="42.3499408" lon="13.5718702"><ele>1144.0</ele><time>2026-05-03T08:03:40.01Z</time></trkpt><trkpt lat="42.3498624" lon="13.5717967"><ele>1144.0</ele><time>2026-05-03T08:03:41.01Z</time></trkpt><trkpt lat="42.3497889" lon="13.5717207"><ele>1144.0</ele><time>2026-05-03T08:03:42.01Z</time></trkpt><trkpt lat="42.3497233" lon="13.5716364"><ele>1141.2</ele><time>2026-05-03T08:03:43.01Z</time></trkpt><trkpt lat="42.3496586" lon="13.5715451"><ele>1138.4</ele><time>2026-05-03T08:03:44.009Z</time></trkpt><trkpt lat="42.3495897" lon="13.5714574"><ele>1135.6</ele><time>2026-05-03T08:03:45.01Z</time></trkpt><trkpt lat="42.3495101" lon="13.571393"><ele>1132.8</ele><time>2026-05-03T08:03:46.009Z</time></trkpt><trkpt lat="42.3494215" lon="13.5713386"><ele>1130.0</ele><time>2026-05-03T08:03:47.009Z</time></trkpt><trkpt lat="42.3493271" lon="13.5713095"><ele>1130.0</ele><time>2026-05-03T08:03:48.009Z</time></trkpt><trkpt lat="42.3492266" lon="13.571295"><ele>1130.0</ele><time>2026-05-03T08:03:49.009Z</time></trkpt><trkpt lat="42.3491159" lon="13.5712855"><ele>1130.0</ele><time>2026-05-03T08:03:50.009Z</time></trkpt><trkpt lat="42.3490025" lon="13.5712776"><ele>1130.0</ele><time>2026-05-03T08:03:51.009Z</time></trkpt><trkpt lat="42.3488882" lon="13.5712554"><ele>1130.0</ele><time>2026-05-03T08:03:52.01Z</time></trkpt><trkpt lat="42.34878" lon="13.5712198"><ele>1129.75</ele><time>2026-05-03T08:03:53.01Z</time></trkpt><trkpt lat="42.3486788" lon="13.5711724"><ele>1129.5</ele><time>2026-05-03T08:03:54.009Z</time></trkpt><trkpt lat="42.3485912" lon="13.5711072"><ele>1129.25</ele><time>2026-05-03T08:03:55.01Z</time></trkpt><trkpt lat="42.348502" lon="13.5710506"><ele>1129.0</ele><time>2026-05-03T08:03:56.01Z</time></trkpt><trkpt lat="42.3510155" lon="13.5728479"><ele>1133.0</ele><time>2026-05-03T08:03:26.01Z</time></trkpt><trkpt lat="42.3509571" lon="13.5727486"><ele>1137.0</ele><time>2026-05-03T08:03:27.009Z</time></trkpt><trkpt lat="42.3509013" lon="13.5726524"><ele>1141.0</ele><time>2026-05-03T08:03:28.009Z</time></trkpt><trkpt lat="42.3508392" lon="13.5725638"><ele>1145.0</ele><time>2026-05-03T08:03:29.01Z</time></trkpt><trkpt lat="42.350767" lon="13.5724961"><ele>1149.0</ele><time>2026-05-03T08:03:30.01Z</time></trkpt><trkpt lat="42.3506856" lon="13.5724423"><ele>1149.0</ele><time>2026-05-03T08:03:31.01Z</time></trkpt><trkpt lat="42.3506024" lon="13.5723872"><ele>1149.0</ele><time>2026-05-03T08:03:32.01Z</time></trkpt><trkpt lat="42.3505142" lon="13.572339"><ele>1149.0</ele><time>2026-05-03T08:03:33.01Z</time></trkpt><trkpt lat="42.3504279" lon="13.5722863"><ele>1149.0</ele><time>2026-05-03T08:03:34.01Z</time></trkpt><trkpt lat="42.3503506" lon="13.572225"><ele>1149.0</ele><time>2026-05-03T08:03:35.009Z</time></trkpt><trkpt lat="42.350274" lon="13.572147"><ele>1148.0</ele><time>2026-05-03T08:03:36.009Z</time></trkpt><trkpt lat="42.3501923" lon="13.5720686"><ele>1147.0</ele><time>2026-05-03T08:03:37.009Z</time></trkpt><trkpt lat="42.3501056" lon="13.5719969"><ele>1146.0</ele><time>2026-05-03T08:03:38.009Z</time></trkpt><trkpt lat="42.3500217" lon="13.5719329"><ele>1145.0</ele><time>2026-05-03T08:03:39.009Z</time></trkpt><trkpt lat="42.3499408" lon="13.5718702"><ele>1144.0</ele><time>2026-05-03T08:03:40.01Z</time></trkpt><trkpt lat="42.3498624" lon="13.5717967"><ele>1144.0</ele><time>2026-05-03T08:03:41.01Z</time></trkpt><trkpt lat="42.3497889" lon="13.5717207"><ele>1144.0</ele><time>2026-05-03T08:03:42.01Z</time></trkpt><trkpt lat="42.3497233" lon="13.5716364"><ele>1144.0</ele><time>2026-05-03T08:03:43.01Z</time></trkpt><trkpt lat="42.3496586" lon="13.5715451"><ele>1144.0</ele><time>2026-05-03T08:03:44.009Z</time></trkpt><trkpt lat="42.3495897" lon="13.5714574"><ele>1144.0</ele><time>2026-05-03T08:03:45.01Z</time></trkpt><trkpt lat="42.3495101" lon="13.571393"><ele>1141.2</ele><time>2026-05-03T08:03:46.009Z</time></trkpt><trkpt lat="42.3494215" lon="13.5713386"><ele>1138.4</ele><time>2026-05-03T08:03:47.009Z</time></trkpt><trkpt lat="42.3493271" lon="13.5713095"><ele>1135.6</ele><time>2026-05-03T08:03:48.009Z</time></trkpt><trkpt lat="42.3492266" lon="13.571295"><ele>1132.8</ele><time>2026-05-03T08:03:49.009Z</time></trkpt><trkpt lat="42.3491159" lon="13.5712855"><ele>1130.0</ele><time>2026-05-03T08:03:50.009Z</time></trkpt><trkpt lat="42.3490025" lon="13.5712776"><ele>1130.0</ele><time>2026-05-03T08:03:51.009Z</time></trkpt><trkpt lat="42.3488882" lon="13.5712554"><ele>1130.0</ele><time>2026-05-03T08:03:52.01Z</time></trkpt><trkpt lat="42.34878" lon="13.5712198"><ele>1130.0</ele><time>2026-05-03T08:03:53.01Z</time></trkpt><trkpt lat="42.3486788" lon="13.5711724"><ele>1130.0</ele><time>2026-05-03T08:03:54.009Z</time></trkpt><trkpt lat="42.3485912" lon="13.5711072"><ele>1130.0</ele><time>2026-05-03T08:03:55.01Z</time></trkpt><trkpt lat="42.348502" lon="13.5710506"><ele>1129.8333333333335</ele><time>2026-05-03T08:03:56.01Z</time></trkpt><trkpt lat="42.3484172" lon="13.5709957"><ele>1129.6666666666667</ele><time>2026-05-03T08:03:57.01Z</time></trkpt><trkpt lat="42.3483399" lon="13.5709409"><ele>1129.5</ele><time>2026-05-03T08:03:58.009Z</time></trkpt><trkpt lat="42.3482701" lon="13.5708796"><ele>1129.3333333333333</ele><time>2026-05-03T08:03:59.009Z</time></trkpt><trkpt lat="42.3482026" lon="13.5708116"><ele>1129.1666666666665</ele><time>2026-05-03T08:04:00.009Z</time></trkpt><trkpt lat="42.3481474" lon="13.5707369"><ele>1129.0</ele><time>2026-05-03T08:04:01.01Z</time></trkpt><trkpt lat="42.3481002" lon="13.5706433"><ele>1129.0</ele><time>2026-05-03T08:04:02.01Z</time></trkpt><trkpt lat="42.3480572" lon="13.5705436"><ele>1129.0</ele><time>2026-05-03T08:04:03.01Z</time></trkpt><trkpt lat="42.3480214" lon="13.5704381"><ele>1129.0</ele><time>2026-05-03T08:04:04.01Z</time></trkpt><trkpt lat="42.3479785" lon="13.5703328"><ele>1129.0</ele><time>2026-05-03T08:04:05.01Z</time></trkpt><trkpt lat="42.3479272" lon="13.5702257"><ele>1129.0</ele><time>2026-05-03T08:04:06.01Z</time></trkpt><trkpt lat="42.3478655" lon="13.5701262"><ele>1127.6666666666665</ele><time>2026-05-03T08:04:07.009Z</time></trkpt><trkpt lat="42.3477991" lon="13.5700412"><ele>1126.3333333333333</ele><time>2026-05-03T08:04:08.01Z</time></trkpt><trkpt lat="42.3477365" lon="13.5699639"><ele>1125.0</ele><time>2026-05-03T08:04:09.01Z</time></trkpt><trkpt lat="42.3476681" lon="13.5698902"><ele>1123.6666666666667</ele><time>2026-05-03T08:04:10.009Z</time></trkpt><trkpt lat="42.3475973" lon="13.5698313"><ele>1122.3333333333335</ele><time>2026-05-03T08:04:11.009Z</time></trkpt><trkpt lat="42.3475275" lon="13.5697895"><ele>1121.0</ele><time>2026-05-03T08:04:12.01Z</time></trkpt><trkpt lat="42.3474589" lon="13.5697618"><ele>1121.0</ele><time>2026-05-03T08:04:13.009Z</time></trkpt><trkpt lat="42.3473905" lon="13.5697504"><ele>1121.0</ele><time>2026-05-03T08:04:14.009Z</time></trkpt><trkpt lat="42.3473183" lon="13.5697499"><ele>1121.0</ele><time>2026-05-03T08:04:15.01Z</time></trkpt><trkpt lat="42.3472484" lon="13.5697557"><ele>1121.0</ele><time>2026-05-03T08:04:16.009Z</time></trkpt><trkpt lat="42.3471676" lon="13.5697685"><ele>1121.0</ele><time>2026-05-03T08:04:17.01Z</time></trkpt><trkpt lat="42.3470846" lon="13.569794"><ele>1121.0</ele><time>2026-05-03T08:04:18.01Z</time></trkpt><trkpt lat="42.3470028" lon="13.5698376"><ele>1120.6666666666667</ele><time>2026-05-03T08:04:19.009Z</time></trkpt><trkpt lat="42.3469239" lon="13.5698676"><ele>1120.3333333333335</ele><time>2026-05-03T08:04:20.01Z</time></trkpt><trkpt lat="42.3468408" lon="13.5698818"><ele>1120.0</ele><time>2026-05-03T08:04:21.01Z</time></trkpt><trkpt lat="42.3467514" lon="13.5698868"><ele>1119.6666666666667</ele><time>2026-05-03T08:04:22.01Z</time></trkpt><trkpt lat="42.3466603" lon="13.5698902"><ele>1119.3333333333333</ele><time>2026-05-03T08:04:23.009Z</time></trkpt><trkpt lat="42.3465697" lon="13.5698961"><ele>1119.0</ele><time>2026-05-03T08:04:24.01Z</time></trkpt><trkpt lat="42.3464831" lon="13.5699068"><ele>1119.0</ele><time>2026-05-03T08:04:25.01Z</time></trkpt><trkpt lat="42.3464042" lon="13.569933"><ele>1119.0</ele><time>2026-05-03T08:04:26.009Z</time></trkpt><trkpt lat="42.3463393" lon="13.5699649"><ele>1119.0</ele><time>2026-05-03T08:04:27.01Z</time></trkpt><trkpt lat="42.3462811" lon="13.5700072"><ele>1119.0</ele><time>2026-05-03T08:04:28.01Z</time></trkpt><trkpt lat="42.3462281" lon="13.5700577"><ele>1119.0</ele><time>2026-05-03T08:04:29.009Z</time></trkpt><trkpt lat="42.3461693" lon="13.5701113"><ele>1119.0</ele><time>2026-05-03T08:04:30.01Z</time></trkpt><trkpt lat="42.3460994" lon="13.5701769"><ele>1119.0</ele><time>2026-05-03T08:04:31.01Z</time></trkpt><trkpt lat="42.3460276" lon="13.5702491"><ele>1118.3333333333333</ele><time>2026-05-03T08:04:32.009Z</time></trkpt><trkpt lat="42.345957" lon="13.5703253"><ele>1117.6666666666667</ele><time>2026-05-03T08:04:33.01Z</time></trkpt><trkpt lat="42.3458906" lon="13.5704015"><ele>1117.0</ele><time>2026-05-03T08:04:34.01Z</time></trkpt><trkpt lat="42.3458413" lon="13.5704814"><ele>1116.3333333333335</ele><time>2026-05-03T08:04:35.009Z</time></trkpt><trkpt lat="42.3458021" lon="13.5705847"><ele>1115.6666666666667</ele><time>2026-05-03T08:04:36.009Z</time></trkpt><trkpt lat="42.3457712" lon="13.5706889"><ele>1115.0</ele><time>2026-05-03T08:04:37.01Z</time></trkpt><trkpt lat="42.3457524" lon="13.5708052"><ele>1115.0</ele><time>2026-05-03T08:04:38.01Z</time></trkpt><trkpt lat="42.3457354" lon="13.5709218"><ele>1115.0</ele><time>2026-05-03T08:04:39.01Z</time></trkpt><trkpt lat="42.3457063" lon="13.5710336"><ele>1115.0</ele><time>2026-05-03T08:04:40.009Z</time></trkpt><trkpt lat="42.3456562" lon="13.5711211"><ele>1115.0</ele><time>2026-05-03T08:04:41.009Z</time></trkpt><trkpt lat="42.345585" lon="13.5711995"><ele>1115.0</ele><time>2026-05-03T08:04:42.01Z</time></trkpt><trkpt lat="42.3454993" lon="13.5712768"><ele>1113.6</ele><time>2026-05-03T08:04:43.01Z</time></trkpt><trkpt lat="42.345411" lon="13.5713552"><ele>1112.2</ele><time>2026-05-03T08:04:44.01Z</time></trkpt><trkpt lat="42.3453291" lon="13.5714416"><ele>1110.8</ele><time>2026-05-03T08:04:45.009Z</time></trkpt><trkpt lat="42.3452535" lon="13.5715276"><ele>1109.4</ele><time>2026-05-03T08:04:46.01Z</time></trkpt><trkpt lat="42.3451887" lon="13.5716184"><ele>1108.0</ele><time>2026-05-03T08:04:47.01Z</time></trkpt><trkpt lat="42.3451354" lon="13.5717169"><ele>1108.0</ele><time>2026-05-03T08:04:48.01Z</time></trkpt><trkpt lat="42.3450959" lon="13.5718397"><ele>1108.0</ele><time>2026-05-03T08:04:49.009Z</time></trkpt><trkpt lat="42.3450569" lon="13.5719739"><ele>1108.0</ele><time>2026-05-03T08:04:50.009Z</time></trkpt><trkpt lat="42.3450162" lon="13.5721087"><ele>1108.0</ele><time>2026-05-03T08:04:51.01Z</time></trkpt><trkpt lat="42.344972" lon="13.5722418"><ele>1108.0</ele><time>2026-05-03T08:04:52.009Z</time></trkpt><trkpt lat="42.3449205" lon="13.5723615"><ele>1108.0</ele><time>2026-05-03T08:04:53.009Z</time></trkpt><trkpt lat="42.344857" lon="13.5724737"><ele>1108.0</ele><time>2026-05-03T08:04:54.009Z</time></trkpt><trkpt lat="42.3447788" lon="13.5725887"><ele>1108.0</ele><time>2026-05-03T08:04:55.009Z</time></trkpt><trkpt lat="42.344691" lon="13.5726986"><ele>1108.0</ele><time>2026-05-03T08:04:56.009Z</time></trkpt><trkpt lat="42.3445959" lon="13.5728183"><ele>1107.5</ele><time>2026-05-03T08:04:57.01Z</time></trkpt><trkpt lat="42.3444974" lon="13.5729343"><ele>1107.0</ele><time>2026-05-03T08:04:58.009Z</time></trkpt><trkpt lat="42.3443969" lon="13.5730583"><ele>1106.5</ele><time>2026-05-03T08:04:59.009Z</time></trkpt><trkpt lat="42.3442899" lon="13.5731843"><ele>1106.0</ele><time>2026-05-03T08:05:00.01Z</time></trkpt><trkpt lat="42.344178" lon="13.5733113"><ele>1106.0</ele><time>2026-05-03T08:05:01.009Z</time></trkpt><trkpt lat="42.3440639" lon="13.5734425"><ele>1106.0</ele><time>2026-05-03T08:05:02.01Z</time></trkpt><trkpt lat="42.3439443" lon="13.573573"><ele>1106.0</ele><time>2026-05-03T08:05:03.01Z</time></trkpt><trkpt lat="42.3438268" lon="13.5737143"><ele>1104.75</ele><time>2026-05-03T08:05:04.01Z</time></trkpt><trkpt lat="42.3437162" lon="13.5738554"><ele>1103.5</ele><time>2026-05-03T08:05:05.01Z</time></trkpt><trkpt lat="42.3436184" lon="13.5739922"><ele>1102.25</ele><time>2026-05-03T08:05:06.01Z</time></trkpt><trkpt lat="42.3435342" lon="13.5741277"><ele>1101.0</ele><time>2026-05-03T08:05:07.009Z</time></trkpt><trkpt lat="42.3434538" lon="13.5742703"><ele>1101.0</ele><time>2026-05-03T08:05:08.009Z</time></trkpt><trkpt lat="42.3433664" lon="13.5744156"><ele>1101.0</ele><time>2026-05-03T08:05:09.009Z</time></trkpt><trkpt lat="42.3432772" lon="13.5745552"><ele>1101.0</ele><time>2026-05-03T08:05:10.009Z</time></trkpt><trkpt lat="42.3431856" lon="13.5746793"><ele>1101.0</ele><time>2026-05-03T08:05:11.01Z</time></trkpt><trkpt lat="42.3430894" lon="13.5747873"><ele>1101.25</ele><time>2026-05-03T08:05:12.009Z</time></trkpt><trkpt lat="42.3429844" lon="13.5748899"><ele>1101.5</ele><time>2026-05-03T08:05:13.009Z</time></trkpt><trkpt lat="42.3428746" lon="13.5749959"><ele>1101.75</ele><time>2026-05-03T08:05:14.01Z</time></trkpt><trkpt lat="42.3427688" lon="13.5750994"><ele>1102.0</ele><time>2026-05-03T08:05:15.01Z</time></trkpt><trkpt lat="42.3426789" lon="13.5751983"><ele>1102.0</ele><time>2026-05-03T08:05:16.01Z</time></trkpt><trkpt lat="42.3425969" lon="13.5753124"><ele>1102.0</ele><time>2026-05-03T08:05:17.01Z</time></trkpt><trkpt lat="42.3425143" lon="13.5754454"><ele>1102.0</ele><time>2026-05-03T08:05:18.009Z</time></trkpt><trkpt lat="42.342424" lon="13.5755814"><ele>1102.0</ele><time>2026-05-03T08:05:19.01Z</time></trkpt><trkpt lat="42.3423312" lon="13.5757238"><ele>1102.25</ele><time>2026-05-03T08:05:20.01Z</time></trkpt><trkpt lat="42.3422371" lon="13.5758717"><ele>1102.5</ele><time>2026-05-03T08:05:21.011Z</time></trkpt><trkpt lat="42.3421364" lon="13.5760143"><ele>1102.75</ele><time>2026-05-03T08:05:22.01Z</time></trkpt><trkpt lat="42.342034" lon="13.576167"><ele>1103.0</ele><time>2026-05-03T08:05:23.011Z</time></trkpt><trkpt lat="42.3419307" lon="13.576322"><ele>1101.3333333333335</ele><time>2026-05-03T08:05:24.011Z</time></trkpt><trkpt lat="42.3418244" lon="13.5764795"><ele>1099.6666666666667</ele><time>2026-05-03T08:05:25.01Z</time></trkpt><trkpt lat="42.3417171" lon="13.5766385"><ele>1098.0</ele><time>2026-05-03T08:05:26.01Z</time></trkpt><trkpt lat="42.3416121" lon="13.5768009"><ele>1098.0</ele><time>2026-05-03T08:05:27.011Z</time></trkpt><trkpt lat="42.3415043" lon="13.5769597"><ele>1098.0</ele><time>2026-05-03T08:05:28.011Z</time></trkpt><trkpt lat="42.3413926" lon="13.5771154"><ele>1098.0</ele><time>2026-05-03T08:05:29.01Z</time></trkpt><trkpt lat="42.3412815" lon="13.5772761"><ele>1097.3333333333333</ele><time>2026-05-03T08:05:30.011Z</time></trkpt><trkpt lat="42.3411697" lon="13.5774333"><ele>1096.6666666666665</ele><time>2026-05-03T08:05:31.011Z</time></trkpt><trkpt lat="42.3410548" lon="13.5775956"><ele>1096.0</ele><time>2026-05-03T08:05:32.01Z</time></trkpt><trkpt lat="42.3409413" lon="13.5777509"><ele>1097.3333333333333</ele><time>2026-05-03T08:05:33.011Z</time></trkpt><trkpt lat="42.3408253" lon="13.5779078"><ele>1098.6666666666667</ele><time>2026-05-03T08:05:34.011Z</time></trkpt><trkpt lat="42.3407141" lon="13.5780626"><ele>1100.0</ele><time>2026-05-03T08:05:35.011Z</time></trkpt><trkpt lat="42.3406031" lon="13.5782209"><ele>1096.3333333333335</ele><time>2026-05-03T08:05:36.011Z</time></trkpt><trkpt lat="42.340492" lon="13.5783775"><ele>1092.6666666666667</ele><time>2026-05-03T08:05:37.011Z</time></trkpt><trkpt lat="42.3403788" lon="13.5785305"><ele>1089.0</ele><time>2026-05-03T08:05:38.01Z</time></trkpt><trkpt lat="42.3402675" lon="13.578672"><ele>1090.0</ele><time>2026-05-03T08:05:39.01Z</time></trkpt><trkpt lat="42.3401585" lon="13.57882"><ele>1091.0</ele><time>2026-05-03T08:05:40.01Z</time></trkpt><trkpt lat="42.3400522" lon="13.5789642"><ele>1092.0</ele><time>2026-05-03T08:05:41.011Z</time></trkpt><trkpt lat="42.339944" lon="13.5791118"><ele>1092.0</ele><time>2026-05-03T08:05:42.011Z</time></trkpt><trkpt lat="42.3398407" lon="13.5792612"><ele>1092.0</ele><time>2026-05-03T08:05:43.011Z</time></trkpt><trkpt lat="42.3397405" lon="13.5794109"><ele>1092.0</ele><time>2026-05-03T08:05:44.011Z</time></trkpt><trkpt lat="42.3396426" lon="13.5795628"><ele>1092.0</ele><time>2026-05-03T08:05:45.011Z</time></trkpt><trkpt lat="42.3395515" lon="13.5797165"><ele>1090.75</ele><time>2026-05-03T08:05:46.01Z</time></trkpt><trkpt lat="42.3394696" lon="13.5798605"><ele>1089.5</ele><time>2026-05-03T08:05:47.011Z</time></trkpt><trkpt lat="42.3393869" lon="13.5799931"><ele>1088.25</ele><time>2026-05-03T08:05:48.011Z</time></trkpt><trkpt lat="42.3393004" lon="13.5801174"><ele>1087.0</ele><time>2026-05-03T08:05:49.01Z</time></trkpt><trkpt lat="42.3392098" lon="13.5802324"><ele>1087.0</ele><time>2026-05-03T08:05:50.01Z</time></trkpt><trkpt lat="42.3391168" lon="13.5803438"><ele>1087.0</ele><time>2026-05-03T08:05:51.01Z</time></trkpt><trkpt lat="42.3390188" lon="13.580446"><ele>1087.0</ele><time>2026-05-03T08:05:52.011Z</time></trkpt><trkpt lat="42.3389291" lon="13.5805368"><ele>1087.0</ele><time>2026-05-03T08:05:53.01Z</time></trkpt><trkpt lat="42.33884" lon="13.5806203"><ele>1087.4</ele><time>2026-05-03T08:05:54.01Z</time></trkpt><trkpt lat="42.3387593" lon="13.5806863"><ele>1087.8000000000002</ele><time>2026-05-03T08:05:55.011Z</time></trkpt><trkpt lat="42.3386842" lon="13.580737"><ele>1088.2</ele><time>2026-05-03T08:05:56.011Z</time></trkpt><trkpt lat="42.3386134" lon="13.580772"><ele>1088.6000000000001</ele><time>2026-05-03T08:05:57.011Z</time></trkpt><trkpt lat="42.3384898" lon="13.5807717"><ele>1089.0</ele><time>2026-05-03T08:05:59.011Z</time></trkpt><trkpt lat="42.3384188" lon="13.580736"><ele>1089.0</ele><time>2026-05-03T08:06:00.01Z</time></trkpt><trkpt lat="42.3383586" lon="13.580694"><ele>1089.0</ele><time>2026-05-03T08:06:01.01Z</time></trkpt><trkpt lat="42.3382743" lon="13.5806551"><ele>1089.0</ele><time>2026-05-03T08:06:03.011Z</time></trkpt><trkpt lat="42.3382006" lon="13.5806864"><ele>1089.0</ele><time>2026-05-03T08:06:08.011Z</time></trkpt><trkpt lat="42.3381549" lon="13.5808025"><ele>1089.0</ele><time>2026-05-03T08:06:10.011Z</time></trkpt><trkpt lat="42.3381125" lon="13.5808868"><ele>1089.0</ele><time>2026-05-03T08:06:11.011Z</time></trkpt><trkpt lat="42.3380652" lon="13.5809755"><ele>1090.5</ele><time>2026-05-03T08:06:12.01Z</time></trkpt><trkpt lat="42.3380146" lon="13.5810607"><ele>1092.0</ele><time>2026-05-03T08:06:13.01Z</time></trkpt><trkpt lat="42.3379757" lon="13.5811506"><ele>1093.5</ele><time>2026-05-03T08:06:14.01Z</time></trkpt><trkpt lat="42.3379369" lon="13.5812221"><ele>1095.0</ele><time>2026-05-03T08:06:15.011Z</time></trkpt><trkpt lat="42.3378888" lon="13.5812897"><ele>1096.5</ele><time>2026-05-03T08:06:16.011Z</time></trkpt><trkpt lat="42.3378225" lon="13.5813597"><ele>1098.0</ele><time>2026-05-03T08:06:17.011Z</time></trkpt><trkpt lat="42.3377499" lon="13.5814306"><ele>1098.0</ele><time>2026-05-03T08:06:18.01Z</time></trkpt><trkpt lat="42.3376769" lon="13.5814914"><ele>1098.0</ele><time>2026-05-03T08:06:19.01Z</time></trkpt><trkpt lat="42.337613" lon="13.5815451"><ele>1098.0</ele><time>2026-05-03T08:06:20.01Z</time></trkpt><trkpt lat="42.3375359" lon="13.5816459"><ele>1098.0</ele><time>2026-05-03T08:06:22.011Z</time></trkpt><trkpt lat="42.337514" lon="13.5817262"><ele>1098.0</ele><time>2026-05-03T08:06:23.01Z</time></trkpt><trkpt lat="42.3374903" lon="13.5818281"><ele>1098.0</ele><time>2026-05-03T08:06:24.01Z</time></trkpt><trkpt lat="42.337489" lon="13.5819588"><ele>1098.6</ele><time>2026-05-03T08:06:25.011Z</time></trkpt><trkpt lat="42.3375007" lon="13.5821025"><ele>1099.1999999999998</ele><time>2026-05-03T08:06:26.011Z</time></trkpt><trkpt lat="42.3375238" lon="13.582248"><ele>1099.8</ele><time>2026-05-03T08:06:27.01Z</time></trkpt><trkpt lat="42.3375471" lon="13.5823998"><ele>1100.3999999999999</ele><time>2026-05-03T08:06:28.01Z</time></trkpt><trkpt lat="42.3375631" lon="13.5825336"><ele>1101.0</ele><time>2026-05-03T08:06:29.011Z</time></trkpt><trkpt lat="42.3375764" lon="13.5826393"><ele>1101.0</ele><time>2026-05-03T08:06:30.01Z</time></trkpt><trkpt lat="42.3375914" lon="13.5827448"><ele>1101.0</ele><time>2026-05-03T08:06:32.01Z</time></trkpt><trkpt lat="42.3375207" lon="13.5827759"><ele>1101.0</ele><time>2026-05-03T08:18:40.01Z</time></trkpt><trkpt lat="42.3375715" lon="13.5827239"><ele>1101.0</ele><time>2026-05-03T08:19:08.011Z</time></trkpt><trkpt lat="42.3376071" lon="13.5828008"><ele>1101.0</ele><time>2026-05-03T08:21:00.01Z</time></trkpt><trkpt lat="42.3376516" lon="13.5827281"><ele>1101.0</ele><time>2026-05-03T08:21:04.011Z</time></trkpt><trkpt lat="42.3377214" lon="13.582754"><ele>1101.0</ele><time>2026-05-03T08:21:07.011Z</time></trkpt><trkpt lat="42.3377698" lon="13.5828163"><ele>1100.8333333333333</ele><time>2026-05-03T08:21:09.01Z</time></trkpt><trkpt lat="42.337805" lon="13.5829267"><ele>1100.6666666666667</ele><time>2026-05-03T08:21:11.011Z</time></trkpt><trkpt lat="42.3377879" lon="13.5830344"><ele>1100.5</ele><time>2026-05-03T08:21:13.01Z</time></trkpt><trkpt lat="42.3377455" lon="13.5831061"><ele>1100.3333333333335</ele><time>2026-05-03T08:21:15.011Z</time></trkpt><trkpt lat="42.3376918" lon="13.583162"><ele>1100.1666666666667</ele><time>2026-05-03T08:21:17.011Z</time></trkpt><trkpt lat="42.3376062" lon="13.5832055"><ele>1100.0</ele><time>2026-05-03T08:21:20.011Z</time></trkpt><trkpt lat="42.337528" lon="13.5832441"><ele>1100.0</ele><time>2026-05-03T08:21:22.011Z</time></trkpt><trkpt lat="42.3374389" lon="13.5832991"><ele>1100.0</ele><time>2026-05-03T08:21:24.01Z</time></trkpt><trkpt lat="42.3373601" lon="13.5833474"><ele>1100.0</ele><time>2026-05-03T08:21:26.011Z</time></trkpt><trkpt lat="42.337294" lon="13.5834022"><ele>1100.0</ele><time>2026-05-03T08:21:29.011Z</time></trkpt><trkpt lat="42.3372845" lon="13.5835116"><ele>1100.0</ele><time>2026-05-03T08:21:32.01Z</time></trkpt><trkpt lat="42.3372515" lon="13.5835942"><ele>1100.0</ele><time>2026-05-03T08:21:34.01Z</time></trkpt><trkpt lat="42.3372339" lon="13.5836858"><ele>1097.5</ele><time>2026-05-03T08:21:35.01Z</time></trkpt><trkpt lat="42.3371982" lon="13.5837999"><ele>1095.0</ele><time>2026-05-03T08:21:37.011Z</time></trkpt><trkpt lat="42.3371551" lon="13.5839056"><ele>1092.5</ele><time>2026-05-03T08:21:39.011Z</time></trkpt><trkpt lat="42.3371093" lon="13.5840086"><ele>1090.0</ele><time>2026-05-03T08:21:41.011Z</time></trkpt><trkpt lat="42.3370631" lon="13.5841019"><ele>1087.5</ele><time>2026-05-03T08:21:43.01Z</time></trkpt><trkpt lat="42.337008" lon="13.5841614"><ele>1085.0</ele><time>2026-05-03T08:21:46.01Z</time></trkpt><trkpt lat="42.3369557" lon="13.5842186"><ele>1085.0</ele><time>2026-05-03T08:21:50.011Z</time></trkpt><trkpt lat="42.3369218" lon="13.5843028"><ele>1085.0</ele><time>2026-05-03T08:21:56.011Z</time></trkpt><trkpt lat="42.3368862" lon="13.584374"><ele>1085.0</ele><time>2026-05-03T08:22:02.01Z</time></trkpt><trkpt lat="42.3368294" lon="13.5844402"><ele>1085.0</ele><time>2026-05-03T08:22:32.011Z</time></trkpt><trkpt lat="42.3367624" lon="13.5845068"><ele>1085.0</ele><time>2026-05-03T08:22:35.011Z</time></trkpt><trkpt lat="42.3366979" lon="13.5845894"><ele>1085.0</ele><time>2026-05-03T08:22:38.01Z</time></trkpt><trkpt lat="42.3366913" lon="13.5846819"><ele>1084.5</ele><time>2026-05-03T08:22:42.011Z</time></trkpt><trkpt lat="42.336624" lon="13.5847064"><ele>1084.0</ele><time>2026-05-03T08:22:54.011Z</time></trkpt><trkpt lat="42.3365675" lon="13.5847589"><ele>1083.5</ele><time>2026-05-03T08:23:33.01Z</time></trkpt><trkpt lat="42.33653" lon="13.5848519"><ele>1083.0</ele><time>2026-05-03T08:23:38.01Z</time></trkpt><trkpt lat="42.3365002" lon="13.5849298"><ele>1082.5</ele><time>2026-05-03T08:23:40.011Z</time></trkpt><trkpt lat="42.3364438" lon="13.5850694"><ele>1082.0</ele><time>2026-05-03T08:23:42.01Z</time></trkpt><trkpt lat="42.3363932" lon="13.5852107"><ele>1079.857142857143</ele><time>2026-05-03T08:23:44.011Z</time></trkpt><trkpt lat="42.3363664" lon="13.5853024"><ele>1077.7142857142858</ele><time>2026-05-03T08:23:46.01Z</time></trkpt><trkpt lat="42.336339" lon="13.5854115"><ele>1075.5714285714284</ele><time>2026-05-03T08:23:49.011Z</time></trkpt><trkpt lat="42.3363019" lon="13.5854969"><ele>1073.4285714285716</ele><time>2026-05-03T08:23:53.011Z</time></trkpt><trkpt lat="42.3362746" lon="13.5855739"><ele>1071.2857142857142</ele><time>2026-05-03T08:24:12.01Z</time></trkpt><trkpt lat="42.3362471" lon="13.5856752"><ele>1069.142857142857</ele><time>2026-05-03T08:24:32.011Z</time></trkpt><trkpt lat="42.3362046" lon="13.585739"><ele>1067.0</ele><time>2026-05-03T08:24:36.01Z</time></trkpt><trkpt lat="42.3361442" lon="13.5858039"><ele>1067.0</ele><time>2026-05-03T08:24:39.011Z</time></trkpt><trkpt lat="42.3360896" lon="13.5858515"><ele>1067.0</ele><time>2026-05-03T08:24:41.01Z</time></trkpt><trkpt lat="42.3360317" lon="13.5859055"><ele>1067.0</ele><time>2026-05-03T08:24:43.01Z</time></trkpt><trkpt lat="42.3359571" lon="13.5859761"><ele>1067.0</ele><time>2026-05-03T08:24:45.01Z</time></trkpt><trkpt lat="42.3358619" lon="13.586039"><ele>1067.0</ele><time>2026-05-03T08:24:47.011Z</time></trkpt><trkpt lat="42.3358069" lon="13.58609"><ele>1067.0</ele><time>2026-05-03T08:24:48.01Z</time></trkpt><trkpt lat="42.3357474" lon="13.5861599"><ele>1068.3333333333335</ele><time>2026-05-03T08:24:49.01Z</time></trkpt><trkpt lat="42.3356879" lon="13.5862211"><ele>1069.6666666666667</ele><time>2026-05-03T08:24:50.01Z</time></trkpt><trkpt lat="42.3355935" lon="13.5862823"><ele>1071.0</ele><time>2026-05-03T08:24:52.011Z</time></trkpt><trkpt lat="42.3355353" lon="13.5863336"><ele>1072.3333333333333</ele><time>2026-05-03T08:24:54.01Z</time></trkpt><trkpt lat="42.3354492" lon="13.5863811"><ele>1073.6666666666665</ele><time>2026-05-03T08:24:56.011Z</time></trkpt><trkpt lat="42.3353862" lon="13.5864062"><ele>1075.0</ele><time>2026-05-03T08:24:57.011Z</time></trkpt><trkpt lat="42.3353167" lon="13.5864395"><ele>1072.3333333333333</ele><time>2026-05-03T08:24:58.011Z</time></trkpt><trkpt lat="42.3352424" lon="13.5864801"><ele>1069.6666666666665</ele><time>2026-05-03T08:24:59.011Z</time></trkpt><trkpt lat="42.3351766" lon="13.5865158"><ele>1067.0</ele><time>2026-05-03T08:25:00.011Z</time></trkpt><trkpt lat="42.3351167" lon="13.5865478"><ele>1064.3333333333333</ele><time>2026-05-03T08:25:01.011Z</time></trkpt><trkpt lat="42.3350579" lon="13.5865822"><ele>1061.6666666666667</ele><time>2026-05-03T08:25:02.011Z</time></trkpt><trkpt lat="42.3349722" lon="13.5866315"><ele>1059.0</ele><time>2026-05-03T08:25:04.011Z</time></trkpt><trkpt lat="42.334894" lon="13.5866654"><ele>1059.0</ele><time>2026-05-03T08:25:06.01Z</time></trkpt><trkpt lat="42.3348104" lon="13.5867044"><ele>1059.0</ele><time>2026-05-03T08:25:08.012Z</time></trkpt><trkpt lat="42.3347216" lon="13.5867392"><ele>1059.0</ele><time>2026-05-03T08:25:10.012Z</time></trkpt><trkpt lat="42.3346237" lon="13.5867415"><ele>1059.0</ele><time>2026-05-03T08:25:12.012Z</time></trkpt><trkpt lat="42.3345082" lon="13.5867264"><ele>1059.0</ele><time>2026-05-03T08:25:14.012Z</time></trkpt><trkpt lat="42.3344435" lon="13.5867319"><ele>1056.6666666666667</ele><time>2026-05-03T08:25:15.012Z</time></trkpt><trkpt lat="42.3343794" lon="13.5867418"><ele>1054.3333333333333</ele><time>2026-05-03T08:25:16.012Z</time></trkpt><trkpt lat="42.3343121" lon="13.5867662"><ele>1052.0</ele><time>2026-05-03T08:25:17.012Z</time></trkpt><trkpt lat="42.334246" lon="13.5867837"><ele>1049.6666666666665</ele><time>2026-05-03T08:25:18.011Z</time></trkpt><trkpt lat="42.3341388" lon="13.5867972"><ele>1047.3333333333333</ele><time>2026-05-03T08:25:20.012Z</time></trkpt><trkpt lat="42.3340411" lon="13.586789"><ele>1045.0</ele><time>2026-05-03T08:25:22.011Z</time></trkpt><trkpt lat="42.3339348" lon="13.5867599"><ele>1042.8</ele><time>2026-05-03T08:25:24.012Z</time></trkpt><trkpt lat="42.3338291" lon="13.5867641"><ele>1040.6</ele><time>2026-05-03T08:25:26.012Z</time></trkpt><trkpt lat="42.3337322" lon="13.5867687"><ele>1038.4</ele><time>2026-05-03T08:25:28.012Z</time></trkpt><trkpt lat="42.3336184" lon="13.5867516"><ele>1036.2</ele><time>2026-05-03T08:25:30.012Z</time></trkpt><trkpt lat="42.333516" lon="13.5867363"><ele>1034.0</ele><time>2026-05-03T08:25:32.011Z</time></trkpt><trkpt lat="42.3334177" lon="13.5867301"><ele>1034.0</ele><time>2026-05-03T08:25:34.011Z</time></trkpt><trkpt lat="42.3333078" lon="13.5867604"><ele>1034.0</ele><time>2026-05-03T08:25:36.012Z</time></trkpt><trkpt lat="42.3332139" lon="13.5868152"><ele>1034.0</ele><time>2026-05-03T08:25:38.012Z</time></trkpt><trkpt lat="42.3331135" lon="13.5868504"><ele>1034.0</ele><time>2026-05-03T08:25:40.011Z</time></trkpt><trkpt lat="42.3330131" lon="13.5868721"><ele>1034.0</ele><time>2026-05-03T08:25:42.012Z</time></trkpt><trkpt lat="42.3329327" lon="13.5868868"><ele>1032.857142857143</ele><time>2026-05-03T08:25:44.011Z</time></trkpt><trkpt lat="42.3328658" lon="13.5869298"><ele>1031.7142857142858</ele><time>2026-05-03T08:25:46.012Z</time></trkpt><trkpt lat="42.3327964" lon="13.5869579"><ele>1030.5714285714287</ele><time>2026-05-03T08:25:48.012Z</time></trkpt><trkpt lat="42.3327265" lon="13.5869813"><ele>1029.4285714285716</ele><time>2026-05-03T08:25:50.012Z</time></trkpt><trkpt lat="42.3326594" lon="13.5870039"><ele>1028.2857142857142</ele><time>2026-05-03T08:25:53.011Z</time></trkpt><trkpt lat="42.3325842" lon="13.5870355"><ele>1027.1428571428573</ele><time>2026-05-03T08:25:58.011Z</time></trkpt><trkpt lat="42.3325197" lon="13.5870597"><ele>1026.0</ele><time>2026-05-03T08:26:01.011Z</time></trkpt><trkpt lat="42.3324577" lon="13.5870931"><ele>1026.0</ele><time>2026-05-03T08:26:04.012Z</time></trkpt><trkpt lat="42.3323939" lon="13.5871696"><ele>1026.0</ele><time>2026-05-03T08:26:08.012Z</time></trkpt><trkpt lat="42.3323464" lon="13.5872278"><ele>1026.0</ele><time>2026-05-03T08:26:11.014Z</time></trkpt><trkpt lat="42.3322716" lon="13.587289"><ele>1026.0</ele><time>2026-05-03T08:26:14.011Z</time></trkpt><trkpt lat="42.332201" lon="13.5873115"><ele>1026.0</ele><time>2026-05-03T08:26:16.012Z</time></trkpt><trkpt lat="42.3321223" lon="13.5873364"><ele>1026.0</ele><time>2026-05-03T08:26:17.957Z</time></trkpt><trkpt lat="42.3320586" lon="13.5874182"><ele>1023.6666666666666</ele><time>2026-05-03T08:26:20.012Z</time></trkpt><trkpt lat="42.3319855" lon="13.5873239"><ele>1021.3333333333333</ele><time>2026-05-03T08:26:28.012Z</time></trkpt><trkpt lat="42.331967" lon="13.587241"><ele>1019.0</ele><time>2026-05-03T08:26:29.011Z</time></trkpt><trkpt lat="42.3319495" lon="13.5871536"><ele>1016.6666666666666</ele><time>2026-05-03T08:26:30.012Z</time></trkpt><trkpt lat="42.3319124" lon="13.5870259"><ele>1014.3333333333333</ele><time>2026-05-03T08:26:32.011Z</time></trkpt><trkpt lat="42.3318239" lon="13.5870603"><ele>1012.0</ele><time>2026-05-03T08:26:35.011Z</time></trkpt><trkpt lat="42.3317726" lon="13.5871287"><ele>1011.9999999999999</ele><time>2026-05-03T08:26:36.012Z</time></trkpt><trkpt lat="42.3317264" lon="13.5872101"><ele>1012.0</ele><time>2026-05-03T08:26:37.012Z</time></trkpt><trkpt lat="42.3316856" lon="13.5872923"><ele>1012.0</ele><time>2026-05-03T08:26:38.012Z</time></trkpt><trkpt lat="42.3316463" lon="13.587368"><ele>1012.0</ele><time>2026-05-03T08:26:40.012Z</time></trkpt><trkpt lat="42.3316114" lon="13.5874576"><ele>1011.9999999999999</ele><time>2026-05-03T08:26:44.012Z</time></trkpt><trkpt lat="42.3315531" lon="13.5876015"><ele>1012.0</ele><time>2026-05-03T08:26:47.011Z</time></trkpt><trkpt lat="42.3315146" lon="13.5876817"><ele>1012.0</ele><time>2026-05-03T08:26:48.011Z</time></trkpt><trkpt lat="42.3314641" lon="13.5877825"><ele>1012.0</ele><time>2026-05-03T08:26:49.012Z</time></trkpt><trkpt lat="42.3314115" lon="13.5879049"><ele>1012.0</ele><time>2026-05-03T08:26:50.011Z</time></trkpt><trkpt lat="42.3313531" lon="13.5880396"><ele>1012.0</ele><time>2026-05-03T08:26:51.011Z</time></trkpt><trkpt lat="42.3312905" lon="13.5881906"><ele>1012.0</ele><time>2026-05-03T08:26:52.012Z</time></trkpt><trkpt lat="42.3312281" lon="13.5883672"><ele>1007.6666666666666</ele><time>2026-05-03T08:26:53.012Z</time></trkpt><trkpt lat="42.3311618" lon="13.5885589"><ele>1003.3333333333333</ele><time>2026-05-03T08:26:54.011Z</time></trkpt><trkpt lat="42.3311039" lon="13.5887582"><ele>999.0</ele><time>2026-05-03T08:26:55.011Z</time></trkpt><trkpt lat="42.3310476" lon="13.5889563"><ele>999.0</ele><time>2026-05-03T08:26:56.012Z</time></trkpt><trkpt lat="42.3309903" lon="13.5891423"><ele>999.0</ele><time>2026-05-03T08:26:57.011Z</time></trkpt><trkpt lat="42.3309334" lon="13.5893183"><ele>999.0</ele><time>2026-05-03T08:26:58.012Z</time></trkpt><trkpt lat="42.330875" lon="13.5894867"><ele>999.0</ele><time>2026-05-03T08:26:59.011Z</time></trkpt><trkpt lat="42.3308044" lon="13.5896533"><ele>999.25</ele><time>2026-05-03T08:27:00.011Z</time></trkpt><trkpt lat="42.3307102" lon="13.5897961"><ele>999.5</ele><time>2026-05-03T08:27:01.011Z</time></trkpt><trkpt lat="42.3305968" lon="13.5898942"><ele>999.75</ele><time>2026-05-03T08:27:02.012Z</time></trkpt><trkpt lat="42.3304675" lon="13.5899673"><ele>1000.0</ele><time>2026-05-03T08:27:03.012Z</time></trkpt><trkpt lat="42.3303365" lon="13.5900421"><ele>998.4</ele><time>2026-05-03T08:27:04.012Z</time></trkpt><trkpt lat="42.3302126" lon="13.5900992"><ele>996.8</ele><time>2026-05-03T08:27:05.011Z</time></trkpt><trkpt lat="42.3300992" lon="13.5901369"><ele>995.2</ele><time>2026-05-03T08:27:06.011Z</time></trkpt><trkpt lat="42.3299975" lon="13.5901676"><ele>993.6</ele><time>2026-05-03T08:27:07.012Z</time></trkpt><trkpt lat="42.3299137" lon="13.5902228"><ele>992.0</ele><time>2026-05-03T08:27:08.011Z</time></trkpt><trkpt lat="42.3298415" lon="13.5903005"><ele>993.0</ele><time>2026-05-03T08:27:09.012Z</time></trkpt><trkpt lat="42.3297845" lon="13.5903756"><ele>994.0</ele><time>2026-05-03T08:27:10.012Z</time></trkpt><trkpt lat="42.3297121" lon="13.59046"><ele>995.0</ele><time>2026-05-03T08:27:12.011Z</time></trkpt><trkpt lat="42.3296563" lon="13.5905616"><ele>996.0</ele><time>2026-05-03T08:27:15.011Z</time></trkpt><trkpt lat="42.3296823" lon="13.5906554"><ele>997.0</ele><time>2026-05-03T08:27:17.011Z</time></trkpt><trkpt lat="42.3297732" lon="13.5907371"><ele>996.9999999999999</ele><time>2026-05-03T08:27:19.012Z</time></trkpt><trkpt lat="42.3298345" lon="13.5907751"><ele>997.0</ele><time>2026-05-03T08:27:20.011Z</time></trkpt><trkpt lat="42.3298949" lon="13.590803"><ele>996.9999999999999</ele><time>2026-05-03T08:27:21.012Z</time></trkpt><trkpt lat="42.3299601" lon="13.5908467"><ele>996.9999999999999</ele><time>2026-05-03T08:27:22.012Z</time></trkpt><trkpt lat="42.3300316" lon="13.59089"><ele>997.0</ele><time>2026-05-03T08:27:23.012Z</time></trkpt><trkpt lat="42.3301071" lon="13.5909289"><ele>996.9999999999999</ele><time>2026-05-03T08:27:24.012Z</time></trkpt><trkpt lat="42.3301802" lon="13.5909721"><ele>996.9999999999999</ele><time>2026-05-03T08:27:25.012Z</time></trkpt><trkpt lat="42.3302551" lon="13.5910265"><ele>997.0</ele><time>2026-05-03T08:27:26.011Z</time></trkpt><trkpt lat="42.3303216" lon="13.5910963"><ele>997.0</ele><time>2026-05-03T08:27:27.012Z</time></trkpt><trkpt lat="42.3303888" lon="13.5911706"><ele>997.0</ele><time>2026-05-03T08:27:28.012Z</time></trkpt><trkpt lat="42.3304575" lon="13.5912431"><ele>997.0</ele><time>2026-05-03T08:27:29.011Z</time></trkpt><trkpt lat="42.3305324" lon="13.5913179"><ele>997.0</ele><time>2026-05-03T08:27:30.011Z</time></trkpt><trkpt lat="42.3306156" lon="13.5913976"><ele>1001.0</ele><time>2026-05-03T08:27:31.012Z</time></trkpt><trkpt lat="42.3307031" lon="13.591485"><ele>1005.0</ele><time>2026-05-03T08:27:32.012Z</time></trkpt><trkpt lat="42.3307954" lon="13.5915793"><ele>1009.0</ele><time>2026-05-03T08:27:33.012Z</time></trkpt><trkpt lat="42.330893" lon="13.5916798"><ele>1013.0</ele><time>2026-05-03T08:27:34.012Z</time></trkpt><trkpt lat="42.3309911" lon="13.5917945"><ele>1013.0</ele><time>2026-05-03T08:27:35.011Z</time></trkpt><trkpt lat="42.3310924" lon="13.591927"><ele>1013.0</ele><time>2026-05-03T08:27:36.012Z</time></trkpt><trkpt lat="42.3311895" lon="13.5920757"><ele>1013.0</ele><time>2026-05-03T08:27:37.012Z</time></trkpt><trkpt lat="42.3312825" lon="13.5922405"><ele>1013.0</ele><time>2026-05-03T08:27:38.012Z</time></trkpt><trkpt lat="42.3313683" lon="13.5924184"><ele>1016.25</ele><time>2026-05-03T08:27:39.011Z</time></trkpt><trkpt lat="42.3314506" lon="13.5925813"><ele>1019.5</ele><time>2026-05-03T08:27:40.012Z</time></trkpt><trkpt lat="42.3315239" lon="13.5927207"><ele>1022.75</ele><time>2026-05-03T08:27:41.012Z</time></trkpt><trkpt lat="42.3315941" lon="13.5928492"><ele>1026.0</ele><time>2026-05-03T08:27:42.012Z</time></trkpt><trkpt lat="42.3316637" lon="13.592972"><ele>1027.75</ele><time>2026-05-03T08:27:43.012Z</time></trkpt><trkpt lat="42.3317315" lon="13.593104"><ele>1029.5</ele><time>2026-05-03T08:27:44.012Z</time></trkpt><trkpt lat="42.3317993" lon="13.5932361"><ele>1031.25</ele><time>2026-05-03T08:27:45.011Z</time></trkpt><trkpt lat="42.3318655" lon="13.5933648"><ele>1033.0</ele><time>2026-05-03T08:27:46.012Z</time></trkpt><trkpt lat="42.3319245" lon="13.5934857"><ele>1033.0</ele><time>2026-05-03T08:27:47.012Z</time></trkpt><trkpt lat="42.3319797" lon="13.5935933"><ele>1033.0</ele><time>2026-05-03T08:27:48.012Z</time></trkpt><trkpt lat="42.3320266" lon="13.5936727"><ele>1033.0</ele><time>2026-05-03T08:27:49.012Z</time></trkpt><trkpt lat="42.3320642" lon="13.5937416"><ele>1033.0</ele><time>2026-05-03T08:27:50.011Z</time></trkpt><trkpt lat="42.3320929" lon="13.5938493"><ele>1033.0</ele><time>2026-05-03T08:27:52.011Z</time></trkpt><trkpt lat="42.3320429" lon="13.5939592"><ele>1033.0</ele><time>2026-05-03T08:27:54.012Z</time></trkpt><trkpt lat="42.3319662" lon="13.5940724"><ele>1033.8333333333333</ele><time>2026-05-03T08:27:56.012Z</time></trkpt><trkpt lat="42.3319347" lon="13.5941518"><ele>1034.6666666666665</ele><time>2026-05-03T08:27:57.011Z</time></trkpt><trkpt lat="42.3318952" lon="13.5942436"><ele>1035.5</ele><time>2026-05-03T08:27:58.012Z</time></trkpt><trkpt lat="42.3318421" lon="13.594352"><ele>1036.3333333333333</ele><time>2026-05-03T08:27:59.012Z</time></trkpt><trkpt lat="42.3317767" lon="13.5944644"><ele>1037.1666666666667</ele><time>2026-05-03T08:28:00.011Z</time></trkpt><trkpt lat="42.3317109" lon="13.5945651"><ele>1038.0</ele><time>2026-05-03T08:28:01.011Z</time></trkpt><trkpt lat="42.3316489" lon="13.5946533"><ele>1038.0</ele><time>2026-05-03T08:28:02.012Z</time></trkpt><trkpt lat="42.331615" lon="13.594745"><ele>1038.0</ele><time>2026-05-03T08:28:03.012Z</time></trkpt><trkpt lat="42.3316001" lon="13.5948699"><ele>1038.0</ele><time>2026-05-03T08:28:05.012Z</time></trkpt><trkpt lat="42.3316682" lon="13.5949275"><ele>1038.0</ele><time>2026-05-03T08:28:07.012Z</time></trkpt><trkpt lat="42.3317635" lon="13.5949461"><ele>1038.0</ele><time>2026-05-03T08:28:09.011Z</time></trkpt><trkpt lat="42.3318241" lon="13.5950283"><ele>1038.0</ele><time>2026-05-03T08:28:11.011Z</time></trkpt><trkpt lat="42.3318606" lon="13.5951851"><ele>1038.0</ele><time>2026-05-03T08:28:13.012Z</time></trkpt><trkpt lat="42.3318742" lon="13.5952766"><ele>1038.0</ele><time>2026-05-03T08:28:14.012Z</time></trkpt><trkpt lat="42.3318791" lon="13.5953708"><ele>1038.0</ele><time>2026-05-03T08:28:15.011Z</time></trkpt><trkpt lat="42.3318811" lon="13.5954629"><ele>1038.0</ele><time>2026-05-03T08:28:16.012Z</time></trkpt><trkpt lat="42.3318946" lon="13.5955524"><ele>1038.0</ele><time>2026-05-03T08:28:17.012Z</time></trkpt><trkpt lat="42.3319122" lon="13.595636"><ele>1038.0</ele><time>2026-05-03T08:28:18.012Z</time></trkpt><trkpt lat="42.3318929" lon="13.5957863"><ele>1037.8</ele><time>2026-05-03T08:28:20.012Z</time></trkpt><trkpt lat="42.331805" lon="13.5959325"><ele>1037.6</ele><time>2026-05-03T08:28:22.012Z</time></trkpt><trkpt lat="42.3317466" lon="13.5960207"><ele>1037.4</ele><time>2026-05-03T08:28:23.012Z</time></trkpt><trkpt lat="42.3316942" lon="13.596105"><ele>1037.2</ele><time>2026-05-03T08:28:24.012Z</time></trkpt><trkpt lat="42.3316532" lon="13.5961789"><ele>1037.0</ele><time>2026-05-03T08:28:25.012Z</time></trkpt><trkpt lat="42.3315591" lon="13.5962494"><ele>1037.0</ele><time>2026-05-03T08:28:27.012Z</time></trkpt><trkpt lat="42.3314656" lon="13.5962083"><ele>1037.0</ele><time>2026-05-03T08:28:29.011Z</time></trkpt><trkpt lat="42.3313374" lon="13.596179"><ele>1037.0</ele><time>2026-05-03T08:28:31.012Z</time></trkpt><trkpt lat="42.3312685" lon="13.5961944"><ele>1037.0</ele><time>2026-05-03T08:28:32.011Z</time></trkpt><trkpt lat="42.3311856" lon="13.5962151"><ele>1037.0</ele><time>2026-05-03T08:28:33.011Z</time></trkpt><trkpt lat="42.331101" lon="13.5962317"><ele>1035.3333333333335</ele><time>2026-05-03T08:28:34.012Z</time></trkpt><trkpt lat="42.3310228" lon="13.596262"><ele>1033.6666666666667</ele><time>2026-05-03T08:28:35.011Z</time></trkpt><trkpt lat="42.3309547" lon="13.5963151"><ele>1032.0</ele><time>2026-05-03T08:28:36.011Z</time></trkpt><trkpt lat="42.3308995" lon="13.5963882"><ele>1030.3333333333333</ele><time>2026-05-03T08:28:37.012Z</time></trkpt><trkpt lat="42.3308489" lon="13.5964748"><ele>1028.6666666666665</ele><time>2026-05-03T08:28:38.011Z</time></trkpt><trkpt lat="42.3308059" lon="13.5965586"><ele>1027.0</ele><time>2026-05-03T08:28:39.011Z</time></trkpt><trkpt lat="42.3307651" lon="13.5966357"><ele>1027.0</ele><time>2026-05-03T08:28:40.011Z</time></trkpt><trkpt lat="42.33073" lon="13.5967152"><ele>1027.0</ele><time>2026-05-03T08:28:41.012Z</time></trkpt><trkpt lat="42.3306977" lon="13.5968749"><ele>1027.0</ele><time>2026-05-03T08:28:43.012Z</time></trkpt><trkpt lat="42.3306846" lon="13.5969619"><ele>1027.0</ele><time>2026-05-03T08:28:44.012Z</time></trkpt><trkpt lat="42.330675" lon="13.597057"><ele>1027.0</ele><time>2026-05-03T08:28:45.011Z</time></trkpt><trkpt lat="42.3306726" lon="13.5971631"><ele>1027.0</ele><time>2026-05-03T08:28:46.011Z</time></trkpt><trkpt lat="42.3306606" lon="13.5972757"><ele>1027.1666666666665</ele><time>2026-05-03T08:28:47.012Z</time></trkpt><trkpt lat="42.3306347" lon="13.5973737"><ele>1027.3333333333333</ele><time>2026-05-03T08:28:48.011Z</time></trkpt><trkpt lat="42.3305879" lon="13.5974441"><ele>1027.5</ele><time>2026-05-03T08:28:49.011Z</time></trkpt><trkpt lat="42.3305283" lon="13.5975036"><ele>1027.6666666666667</ele><time>2026-05-03T08:28:50.012Z</time></trkpt><trkpt lat="42.330453" lon="13.5975682"><ele>1027.8333333333335</ele><time>2026-05-03T08:28:51.012Z</time></trkpt><trkpt lat="42.3303857" lon="13.5976513"><ele>1028.0</ele><time>2026-05-03T08:28:52.012Z</time></trkpt><trkpt lat="42.3303156" lon="13.597747"><ele>1027.2</ele><time>2026-05-03T08:28:53.012Z</time></trkpt><trkpt lat="42.3302411" lon="13.5978474"><ele>1026.4</ele><time>2026-05-03T08:28:54.012Z</time></trkpt><trkpt lat="42.3301696" lon="13.5979326"><ele>1025.6000000000001</ele><time>2026-05-03T08:28:55.012Z</time></trkpt><trkpt lat="42.330096" lon="13.5979891"><ele>1024.8</ele><time>2026-05-03T08:28:56.012Z</time></trkpt><trkpt lat="42.3300167" lon="13.5980221"><ele>1024.0</ele><time>2026-05-03T08:28:57.011Z</time></trkpt><trkpt lat="42.3299315" lon="13.5980461"><ele>1023.9999999999999</ele><time>2026-05-03T08:28:58.011Z</time></trkpt><trkpt lat="42.3298515" lon="13.5980761"><ele>1024.0</ele><time>2026-05-03T08:28:59.012Z</time></trkpt><trkpt lat="42.3297823" lon="13.5981295"><ele>1024.0</ele><time>2026-05-03T08:29:00.011Z</time></trkpt><trkpt lat="42.3297067" lon="13.5982029"><ele>1024.0</ele><time>2026-05-03T08:29:01.011Z</time></trkpt><trkpt lat="42.3296253" lon="13.5982712"><ele>1023.9999999999999</ele><time>2026-05-03T08:29:02.012Z</time></trkpt><trkpt lat="42.3295456" lon="13.5983415"><ele>1024.0</ele><time>2026-05-03T08:29:03.012Z</time></trkpt><trkpt lat="42.3294732" lon="13.5984204"><ele>1024.2857142857142</ele><time>2026-05-03T08:29:04.012Z</time></trkpt><trkpt lat="42.3294083" lon="13.5985016"><ele>1024.5714285714284</ele><time>2026-05-03T08:29:05.012Z</time></trkpt><trkpt lat="42.3293486" lon="13.598576"><ele>1024.857142857143</ele><time>2026-05-03T08:29:06.012Z</time></trkpt><trkpt lat="42.3292934" lon="13.5986177"><ele>1025.142857142857</ele><time>2026-05-03T08:29:07.011Z</time></trkpt><trkpt lat="42.3292247" lon="13.5986376"><ele>1025.4285714285716</ele><time>2026-05-03T08:29:08.012Z</time></trkpt><trkpt lat="42.3291573" lon="13.5986588"><ele>1025.7142857142858</ele><time>2026-05-03T08:29:09.012Z</time></trkpt><trkpt lat="42.3290948" lon="13.5986934"><ele>1026.0</ele><time>2026-05-03T08:29:10.012Z</time></trkpt><trkpt lat="42.3290444" lon="13.5987461"><ele>1026.0</ele><time>2026-05-03T08:29:11.012Z</time></trkpt><trkpt lat="42.3289958" lon="13.5988192"><ele>1026.0</ele><time>2026-05-03T08:29:12.012Z</time></trkpt><trkpt lat="42.3289424" lon="13.5989041"><ele>1026.0</ele><time>2026-05-03T08:29:13.011Z</time></trkpt><trkpt lat="42.3288797" lon="13.598988"><ele>1026.0</ele><time>2026-05-03T08:29:14.011Z</time></trkpt><trkpt lat="42.3288205" lon="13.5990692"><ele>1026.0</ele><time>2026-05-03T08:29:15.011Z</time></trkpt><trkpt lat="42.3287629" lon="13.5991509"><ele>1026.0</ele><time>2026-05-03T08:29:16.011Z</time></trkpt><trkpt lat="42.3287126" lon="13.5992244"><ele>1025.2857142857144</ele><time>2026-05-03T08:29:17.012Z</time></trkpt><trkpt lat="42.3286731" lon="13.5992994"><ele>1024.5714285714287</ele><time>2026-05-03T08:29:18.012Z</time></trkpt><trkpt lat="42.3286373" lon="13.5993753"><ele>1023.8571428571429</ele><time>2026-05-03T08:29:19.012Z</time></trkpt><trkpt lat="42.3285942" lon="13.5994541"><ele>1023.1428571428572</ele><time>2026-05-03T08:29:20.012Z</time></trkpt><trkpt lat="42.3285485" lon="13.5995241"><ele>1022.4285714285716</ele><time>2026-05-03T08:29:21.012Z</time></trkpt><trkpt lat="42.3284945" lon="13.5995917"><ele>1021.7142857142857</ele><time>2026-05-03T08:29:22.012Z</time></trkpt><trkpt lat="42.3284345" lon="13.599652"><ele>1021.0</ele><time>2026-05-03T08:29:23.012Z</time></trkpt><trkpt lat="42.3283677" lon="13.5997252"><ele>1020.9999999999999</ele><time>2026-05-03T08:29:24.012Z</time></trkpt><trkpt lat="42.3283079" lon="13.5997898"><ele>1021.0</ele><time>2026-05-03T08:29:25.011Z</time></trkpt><trkpt lat="42.3282094" lon="13.5998876"><ele>1021.0</ele><time>2026-05-03T08:29:27.011Z</time></trkpt><trkpt lat="42.3281629" lon="13.5999543"><ele>1021.0</ele><time>2026-05-03T08:29:28.012Z</time></trkpt><trkpt lat="42.3281143" lon="13.600029"><ele>1020.9999999999999</ele><time>2026-05-03T08:29:29.012Z</time></trkpt><trkpt lat="42.3280711" lon="13.6001007"><ele>1021.0</ele><time>2026-05-03T08:29:30.012Z</time></trkpt><trkpt lat="42.328038" lon="13.60019"><ele>1020.6666666666666</ele><time>2026-05-03T08:29:31.011Z</time></trkpt><trkpt lat="42.3279975" lon="13.6002901"><ele>1020.3333333333333</ele><time>2026-05-03T08:29:32.012Z</time></trkpt><trkpt lat="42.3279501" lon="13.6003768"><ele>1020.0</ele><time>2026-05-03T08:29:33.012Z</time></trkpt><trkpt lat="42.3278854" lon="13.6004499"><ele>1019.6666666666667</ele><time>2026-05-03T08:29:34.011Z</time></trkpt><trkpt lat="42.3278151" lon="13.6005111"><ele>1019.3333333333334</ele><time>2026-05-03T08:29:35.011Z</time></trkpt><trkpt lat="42.3277512" lon="13.6005765"><ele>1019.0</ele><time>2026-05-03T08:29:36.011Z</time></trkpt><trkpt lat="42.3277022" lon="13.6006523"><ele>1018.8000000000001</ele><time>2026-05-03T08:29:37.012Z</time></trkpt><trkpt lat="42.327645" lon="13.6007432"><ele>1018.6000000000001</ele><time>2026-05-03T08:29:38.012Z</time></trkpt><trkpt lat="42.3275891" lon="13.6008393"><ele>1018.4</ele><time>2026-05-03T08:29:39.011Z</time></trkpt><trkpt lat="42.3275424" lon="13.6009497"><ele>1018.2</ele><time>2026-05-03T08:29:40.011Z</time></trkpt><trkpt lat="42.3274996" lon="13.6010602"><ele>1018.0</ele><time>2026-05-03T08:29:41.011Z</time></trkpt><trkpt lat="42.3274503" lon="13.601169"><ele>1017.8333333333333</ele><time>2026-05-03T08:29:42.011Z</time></trkpt><trkpt lat="42.3273925" lon="13.6012678"><ele>1017.6666666666666</ele><time>2026-05-03T08:29:43.012Z</time></trkpt><trkpt lat="42.3273338" lon="13.6013698"><ele>1017.5</ele><time>2026-05-03T08:29:44.011Z</time></trkpt><trkpt lat="42.3272819" lon="13.6014652"><ele>1017.3333333333333</ele><time>2026-05-03T08:29:45.012Z</time></trkpt><trkpt lat="42.3272408" lon="13.6015563"><ele>1017.1666666666666</ele><time>2026-05-03T08:29:46.012Z</time></trkpt><trkpt lat="42.3272024" lon="13.6016496"><ele>1017.0</ele><time>2026-05-03T08:29:47.012Z</time></trkpt><trkpt lat="42.327168" lon="13.6017257"><ele>1017.0</ele><time>2026-05-03T08:29:48.012Z</time></trkpt><trkpt lat="42.3271038" lon="13.6018504"><ele>1017.0</ele><time>2026-05-03T08:29:50.012Z</time></trkpt><trkpt lat="42.327042" lon="13.6019658"><ele>1017.0</ele><time>2026-05-03T08:29:55.011Z</time></trkpt><trkpt lat="42.3269914" lon="13.6020421"><ele>1017.0</ele><time>2026-05-03T08:29:59.012Z</time></trkpt><trkpt lat="42.326976" lon="13.6021391"><ele>1017.0</ele><time>2026-05-03T08:30:03.011Z</time></trkpt><trkpt lat="42.3269517" lon="13.6022506"><ele>1017.0</ele><time>2026-05-03T08:30:05.012Z</time></trkpt><trkpt lat="42.326908" lon="13.6023974"><ele>1017.0</ele><time>2026-05-03T08:30:07.012Z</time></trkpt><trkpt lat="42.3268959" lon="13.6024826"><ele>1017.0</ele><time>2026-05-03T08:30:08.011Z</time></trkpt><trkpt lat="42.326882" lon="13.6025798"><ele>1017.0</ele><time>2026-05-03T08:30:09.012Z</time></trkpt><trkpt lat="42.3268603" lon="13.6026717"><ele>1017.0</ele><time>2026-05-03T08:30:10.012Z</time></trkpt><trkpt lat="42.3268295" lon="13.6027603"><ele>1017.0</ele><time>2026-05-03T08:30:11.012Z</time></trkpt><trkpt lat="42.3267887" lon="13.602837"><ele>1017.0</ele><time>2026-05-03T08:30:12.011Z</time></trkpt><trkpt lat="42.3267481" lon="13.602907"><ele>1017.0</ele><time>2026-05-03T08:30:13.011Z</time></trkpt><trkpt lat="42.3266901" lon="13.6030066"><ele>1017.0</ele><time>2026-05-03T08:30:15.012Z</time></trkpt><trkpt lat="42.3266309" lon="13.6031251"><ele>1017.0</ele><time>2026-05-03T08:30:17.011Z</time></trkpt><trkpt lat="42.3265444" lon="13.6032565"><ele>1017.0</ele><time>2026-05-03T08:30:19.012Z</time></trkpt><trkpt lat="42.3264887" lon="13.6033258"><ele>1017.0</ele><time>2026-05-03T08:30:20.011Z</time></trkpt><trkpt lat="42.3264234" lon="13.6034053"><ele>1017.0</ele><time>2026-05-03T08:30:21.011Z</time></trkpt><trkpt lat="42.3263617" lon="13.6034834"><ele>1017.0</ele><time>2026-05-03T08:30:22.012Z</time></trkpt><trkpt lat="42.3263009" lon="13.6035594"><ele>1017.0</ele><time>2026-05-03T08:30:23.012Z</time></trkpt><trkpt lat="42.3262405" lon="13.6036334"><ele>1017.0</ele><time>2026-05-03T08:30:24.012Z</time></trkpt><trkpt lat="42.3261847" lon="13.6037087"><ele>1017.0</ele><time>2026-05-03T08:30:25.012Z</time></trkpt><trkpt lat="42.3261329" lon="13.6037855"><ele>1016.1666666666666</ele><time>2026-05-03T08:30:26.012Z</time></trkpt><trkpt lat="42.3260726" lon="13.6038604"><ele>1015.3333333333333</ele><time>2026-05-03T08:30:27.012Z</time></trkpt><trkpt lat="42.3260158" lon="13.6039355"><ele>1014.5</ele><time>2026-05-03T08:30:28.012Z</time></trkpt><trkpt lat="42.325967" lon="13.6040037"><ele>1013.6666666666666</ele><time>2026-05-03T08:30:29.011Z</time></trkpt><trkpt lat="42.325922" lon="13.6040708"><ele>1012.8333333333333</ele><time>2026-05-03T08:30:30.012Z</time></trkpt><trkpt lat="42.3258785" lon="13.6041509"><ele>1012.0</ele><time>2026-05-03T08:30:31.012Z</time></trkpt><trkpt lat="42.3258377" lon="13.6042412"><ele>1011.9999999999999</ele><time>2026-05-03T08:30:32.011Z</time></trkpt><trkpt lat="42.325801" lon="13.6043355"><ele>1012.0</ele><time>2026-05-03T08:30:33.012Z</time></trkpt><trkpt lat="42.3257606" lon="13.6044153"><ele>1012.0</ele><time>2026-05-03T08:30:34.011Z</time></trkpt><trkpt lat="42.3256963" lon="13.6044791"><ele>1012.0</ele><time>2026-05-03T08:30:35.012Z</time></trkpt><trkpt lat="42.3256381" lon="13.6045474"><ele>1011.9999999999999</ele><time>2026-05-03T08:30:36.012Z</time></trkpt><trkpt lat="42.3255831" lon="13.604623"><ele>1012.0</ele><time>2026-05-03T08:30:37.012Z</time></trkpt><trkpt lat="42.3255326" lon="13.6047088"><ele>1011.8333333333333</ele><time>2026-05-03T08:30:38.011Z</time></trkpt><trkpt lat="42.3254857" lon="13.6048068"><ele>1011.6666666666666</ele><time>2026-05-03T08:30:39.011Z</time></trkpt><trkpt lat="42.3254468" lon="13.6049056"><ele>1011.5</ele><time>2026-05-03T08:30:40.012Z</time></trkpt><trkpt lat="42.3254072" lon="13.6049995"><ele>1011.3333333333333</ele><time>2026-05-03T08:30:41.012Z</time></trkpt><trkpt lat="42.3253606" lon="13.605081"><ele>1011.1666666666666</ele><time>2026-05-03T08:30:42.012Z</time></trkpt><trkpt lat="42.3253057" lon="13.6051599"><ele>1011.0</ele><time>2026-05-03T08:30:43.012Z</time></trkpt><trkpt lat="42.3252592" lon="13.605238"><ele>1011.0</ele><time>2026-05-03T08:30:44.012Z</time></trkpt><trkpt lat="42.3252193" lon="13.6053215"><ele>1011.0</ele><time>2026-05-03T08:30:45.011Z</time></trkpt><trkpt lat="42.325183" lon="13.6054076"><ele>1011.0</ele><time>2026-05-03T08:30:46.011Z</time></trkpt><trkpt lat="42.3251491" lon="13.6055007"><ele>1011.0</ele><time>2026-05-03T08:30:47.012Z</time></trkpt><trkpt lat="42.325115" lon="13.6055982"><ele>1011.0</ele><time>2026-05-03T08:30:48.011Z</time></trkpt><trkpt lat="42.3250829" lon="13.6057001"><ele>1011.0</ele><time>2026-05-03T08:30:49.012Z</time></trkpt><trkpt lat="42.3250481" lon="13.6058083"><ele>1010.0</ele><time>2026-05-03T08:30:50.012Z</time></trkpt><trkpt lat="42.3250141" lon="13.6059194"><ele>1009.0</ele><time>2026-05-03T08:30:51.011Z</time></trkpt><trkpt lat="42.3249928" lon="13.6060235"><ele>1008.0</ele><time>2026-05-03T08:30:52.012Z</time></trkpt><trkpt lat="42.3249908" lon="13.6061193"><ele>1007.0</ele><time>2026-05-03T08:30:53.011Z</time></trkpt><trkpt lat="42.3249856" lon="13.6062618"><ele>1006.0</ele><time>2026-05-03T08:30:55.012Z</time></trkpt><trkpt lat="42.3249319" lon="13.6063614"><ele>1005.0</ele><time>2026-05-03T08:30:57.011Z</time></trkpt><trkpt lat="42.3248323" lon="13.6064681"><ele>1005.0</ele><time>2026-05-03T08:30:59.011Z</time></trkpt><trkpt lat="42.3247763" lon="13.6065216"><ele>1005.0</ele><time>2026-05-03T08:31:00.012Z</time></trkpt><trkpt lat="42.3247262" lon="13.6065734"><ele>1005.0</ele><time>2026-05-03T08:31:01.011Z</time></trkpt><trkpt lat="42.324647" lon="13.6066982"><ele>1005.0</ele><time>2026-05-03T08:31:03.011Z</time></trkpt><trkpt lat="42.3245998" lon="13.6067592"><ele>1005.0</ele><time>2026-05-03T08:31:04.011Z</time></trkpt><trkpt lat="42.3245029" lon="13.6068323"><ele>1005.0</ele><time>2026-05-03T08:31:06.011Z</time></trkpt><trkpt lat="42.3243953" lon="13.6069059"><ele>1004.2</ele><time>2026-05-03T08:31:08.012Z</time></trkpt><trkpt lat="42.324342" lon="13.6069513"><ele>1003.4</ele><time>2026-05-03T08:31:09.012Z</time></trkpt><trkpt lat="42.32425" lon="13.6069942"><ele>1002.5999999999999</ele><time>2026-05-03T08:31:11.011Z</time></trkpt><trkpt lat="42.324188" lon="13.6070848"><ele>1001.8</ele><time>2026-05-03T08:31:13.011Z</time></trkpt><trkpt lat="42.3241037" lon="13.6072007"><ele>1001.0</ele><time>2026-05-03T08:31:15.011Z</time></trkpt><trkpt lat="42.3240174" lon="13.6073212"><ele>999.3333333333334</ele><time>2026-05-03T08:31:17.012Z</time></trkpt><trkpt lat="42.3239689" lon="13.6073911"><ele>997.6666666666667</ele><time>2026-05-03T08:31:18.011Z</time></trkpt><trkpt lat="42.3239193" lon="13.6074565"><ele>996.0</ele><time>2026-05-03T08:31:19.012Z</time></trkpt><trkpt lat="42.3238787" lon="13.6075241"><ele>994.3333333333333</ele><time>2026-05-03T08:31:20.012Z</time></trkpt><trkpt lat="42.3238473" lon="13.6076667"><ele>992.6666666666666</ele><time>2026-05-03T08:31:22.011Z</time></trkpt><trkpt lat="42.3238285" lon="13.6078165"><ele>991.0</ele><time>2026-05-03T08:31:24.012Z</time></trkpt><trkpt lat="42.3237975" lon="13.6078978"><ele>990.5999999999999</ele><time>2026-05-03T08:31:25.011Z</time></trkpt><trkpt lat="42.3237376" lon="13.6080548"><ele>990.1999999999999</ele><time>2026-05-03T08:31:27.011Z</time></trkpt><trkpt lat="42.3237032" lon="13.6081314"><ele>989.8000000000001</ele><time>2026-05-03T08:31:28.012Z</time></trkpt><trkpt lat="42.3236427" lon="13.6082534"><ele>989.4000000000001</ele><time>2026-05-03T08:31:30.011Z</time></trkpt><trkpt lat="42.3235991" lon="13.6083298"><ele>989.0</ele><time>2026-05-03T08:31:32.012Z</time></trkpt><trkpt lat="42.3235404" lon="13.6085704"><ele>987.1428571428571</ele><time>2026-05-03T08:31:52.012Z</time></trkpt><trkpt lat="42.3234945" lon="13.608686"><ele>985.2857142857142</ele><time>2026-05-03T08:31:54.012Z</time></trkpt><trkpt lat="42.3234634" lon="13.6087603"><ele>983.4285714285713</ele><time>2026-05-03T08:31:55.011Z</time></trkpt><trkpt lat="42.3234249" lon="13.608841"><ele>981.5714285714284</ele><time>2026-05-03T08:31:56.011Z</time></trkpt><trkpt lat="42.323383" lon="13.6089116"><ele>979.7142857142857</ele><time>2026-05-03T08:31:57.011Z</time></trkpt><trkpt lat="42.3233407" lon="13.6089846"><ele>977.8571428571427</ele><time>2026-05-03T08:31:58.012Z</time></trkpt><trkpt lat="42.3232994" lon="13.6090596"><ele>975.9999999999999</ele><time>2026-05-03T08:31:59.012Z</time></trkpt><trkpt lat="42.3232569" lon="13.6091338"><ele>975.9999999999999</ele><time>2026-05-03T08:32:00.012Z</time></trkpt><trkpt lat="42.3232174" lon="13.6092016"><ele>976.0</ele><time>2026-05-03T08:32:01.012Z</time></trkpt><trkpt lat="42.3231558" lon="13.6093442"><ele>976.0</ele><time>2026-05-03T08:32:03.011Z</time></trkpt><trkpt lat="42.3231207" lon="13.6094195"><ele>976.0</ele><time>2026-05-03T08:32:04.012Z</time></trkpt><trkpt lat="42.3230919" lon="13.6094974"><ele>975.9999999999999</ele><time>2026-05-03T08:32:05.011Z</time></trkpt><trkpt lat="42.3230257" lon="13.6096346"><ele>976.0</ele><time>2026-05-03T08:32:07.012Z</time></trkpt><trkpt lat="42.3229462" lon="13.6097685"><ele>975.9999999999999</ele><time>2026-05-03T08:32:09.012Z</time></trkpt><trkpt lat="42.3229042" lon="13.6098384"><ele>976.0</ele><time>2026-05-03T08:32:10.012Z</time></trkpt><trkpt lat="42.3228617" lon="13.6099115"><ele>975.9999999999999</ele><time>2026-05-03T08:32:11.011Z</time></trkpt><trkpt lat="42.3228209" lon="13.6099859"><ele>975.9999999999999</ele><time>2026-05-03T08:32:12.011Z</time></trkpt><trkpt lat="42.3227783" lon="13.6100563"><ele>976.0</ele><time>2026-05-03T08:32:13.012Z</time></trkpt><trkpt lat="42.3227345" lon="13.6101264"><ele>975.9999999999999</ele><time>2026-05-03T08:32:14.011Z</time></trkpt><trkpt lat="42.3226965" lon="13.6101947"><ele>975.9999999999999</ele><time>2026-05-03T08:32:15.012Z</time></trkpt><trkpt lat="42.3226359" lon="13.610336"><ele>974.1666666666666</ele><time>2026-05-03T08:32:17.012Z</time></trkpt><trkpt lat="42.3226086" lon="13.6104237"><ele>972.3333333333333</ele><time>2026-05-03T08:32:18.012Z</time></trkpt><trkpt lat="42.3225738" lon="13.6105081"><ele>970.5</ele><time>2026-05-03T08:32:19.012Z</time></trkpt><trkpt lat="42.3225448" lon="13.6105862"><ele>968.6666666666667</ele><time>2026-05-03T08:32:20.012Z</time></trkpt><trkpt lat="42.3224745" lon="13.6107172"><ele>966.8333333333334</ele><time>2026-05-03T08:32:22.012Z</time></trkpt><trkpt lat="42.3223937" lon="13.6108265"><ele>965.0</ele><time>2026-05-03T08:32:24.013Z</time></trkpt><trkpt lat="42.3223187" lon="13.6109155"><ele>965.0000000000001</ele><time>2026-05-03T08:32:26.013Z</time></trkpt><trkpt lat="42.3222386" lon="13.6110235"><ele>965.0</ele><time>2026-05-03T08:32:28.013Z</time></trkpt><trkpt lat="42.322188" lon="13.6110951"><ele>965.0</ele><time>2026-05-03T08:32:29.013Z</time></trkpt><trkpt lat="42.3221415" lon="13.6111721"><ele>965.0</ele><time>2026-05-03T08:32:30.013Z</time></trkpt><trkpt lat="42.3220951" lon="13.6112401"><ele>965.0000000000001</ele><time>2026-05-03T08:32:31.013Z</time></trkpt><trkpt lat="42.3220452" lon="13.6112966"><ele>965.0</ele><time>2026-05-03T08:32:32.013Z</time></trkpt><trkpt lat="42.3219519" lon="13.6113524"><ele>963.7142857142857</ele><time>2026-05-03T08:32:34.012Z</time></trkpt><trkpt lat="42.3218827" lon="13.6113947"><ele>962.4285714285716</ele><time>2026-05-03T08:32:36.012Z</time></trkpt><trkpt lat="42.3218462" lon="13.6114664"><ele>961.1428571428572</ele><time>2026-05-03T08:32:37.012Z</time></trkpt><trkpt lat="42.3217967" lon="13.6115486"><ele>959.8571428571429</ele><time>2026-05-03T08:32:38.012Z</time></trkpt><trkpt lat="42.3217469" lon="13.6116281"><ele>958.5714285714287</ele><time>2026-05-03T08:32:39.012Z</time></trkpt><trkpt lat="42.3216982" lon="13.6117012"><ele>957.2857142857144</ele><time>2026-05-03T08:32:40.012Z</time></trkpt><trkpt lat="42.3216587" lon="13.6117675"><ele>956.0000000000001</ele><time>2026-05-03T08:32:41.012Z</time></trkpt><trkpt lat="42.3216247" lon="13.6118492"><ele>956.0000000000001</ele><time>2026-05-03T08:32:42.013Z</time></trkpt><trkpt lat="42.3216037" lon="13.6119468"><ele>956.0</ele><time>2026-05-03T08:32:43.013Z</time></trkpt><trkpt lat="42.3215823" lon="13.6120531"><ele>956.0</ele><time>2026-05-03T08:32:44.012Z</time></trkpt><trkpt lat="42.321559" lon="13.6121591"><ele>956.0</ele><time>2026-05-03T08:32:45.013Z</time></trkpt><trkpt lat="42.3215315" lon="13.6122532"><ele>956.0000000000001</ele><time>2026-05-03T08:32:46.013Z</time></trkpt><trkpt lat="42.3215002" lon="13.6123429"><ele>956.0</ele><time>2026-05-03T08:32:47.012Z</time></trkpt><trkpt lat="42.321457" lon="13.6124207"><ele>955.1666666666667</ele><time>2026-05-03T08:32:48.012Z</time></trkpt><trkpt lat="42.3213999" lon="13.6124982"><ele>954.3333333333334</ele><time>2026-05-03T08:32:49.013Z</time></trkpt><trkpt lat="42.3213387" lon="13.6125796"><ele>953.5</ele><time>2026-05-03T08:32:50.012Z</time></trkpt><trkpt lat="42.3212868" lon="13.6126535"><ele>952.6666666666667</ele><time>2026-05-03T08:32:51.013Z</time></trkpt><trkpt lat="42.3212465" lon="13.612736"><ele>951.8333333333334</ele><time>2026-05-03T08:32:52.013Z</time></trkpt><trkpt lat="42.3212085" lon="13.6128241"><ele>951.0</ele><time>2026-05-03T08:32:53.012Z</time></trkpt><trkpt lat="42.3211626" lon="13.6129133"><ele>950.1666666666666</ele><time>2026-05-03T08:32:54.013Z</time></trkpt><trkpt lat="42.3211115" lon="13.6130075"><ele>949.3333333333333</ele><time>2026-05-03T08:32:55.013Z</time></trkpt><trkpt lat="42.3210482" lon="13.6130938"><ele>948.5</ele><time>2026-05-03T08:32:56.013Z</time></trkpt><trkpt lat="42.3209816" lon="13.6131783"><ele>947.6666666666666</ele><time>2026-05-03T08:32:57.012Z</time></trkpt><trkpt lat="42.320917" lon="13.6132606"><ele>946.8333333333333</ele><time>2026-05-03T08:32:58.013Z</time></trkpt><trkpt lat="42.3208555" lon="13.6133307"><ele>946.0</ele><time>2026-05-03T08:32:59.013Z</time></trkpt><trkpt lat="42.3207676" lon="13.6134029"><ele>945.9999999999999</ele><time>2026-05-03T08:33:01.013Z</time></trkpt><trkpt lat="42.3206955" lon="13.6133825"><ele>946.0</ele><time>2026-05-03T08:33:03.013Z</time></trkpt><trkpt lat="42.3206126" lon="13.6132788"><ele>946.0</ele><time>2026-05-03T08:33:05.013Z</time></trkpt><trkpt lat="42.3205703" lon="13.6132117"><ele>946.0</ele><time>2026-05-03T08:33:06.013Z</time></trkpt><trkpt lat="42.3205053" lon="13.6131406"><ele>945.9999999999999</ele><time>2026-05-03T08:33:08.012Z</time></trkpt><trkpt lat="42.3204351" lon="13.6132442"><ele>946.0</ele><time>2026-05-03T08:33:11.012Z</time></trkpt><trkpt lat="42.3204045" lon="13.6133882"><ele>946.5999999999999</ele><time>2026-05-03T08:33:13.013Z</time></trkpt><trkpt lat="42.3203135" lon="13.6135185"><ele>947.1999999999999</ele><time>2026-05-03T08:33:15.012Z</time></trkpt><trkpt lat="42.3202631" lon="13.6136119"><ele>947.8000000000001</ele><time>2026-05-03T08:33:16.012Z</time></trkpt><trkpt lat="42.3202219" lon="13.6137012"><ele>948.4000000000001</ele><time>2026-05-03T08:33:17.012Z</time></trkpt><trkpt lat="42.3201929" lon="13.6137896"><ele>949.0</ele><time>2026-05-03T08:33:18.012Z</time></trkpt><trkpt lat="42.32017" lon="13.6139705"><ele>948.9999999999999</ele><time>2026-05-03T08:33:20.013Z</time></trkpt><trkpt lat="42.320152" lon="13.6140766"><ele>949.0</ele><time>2026-05-03T08:33:21.012Z</time></trkpt><trkpt lat="42.3201238" lon="13.6141859"><ele>949.0</ele><time>2026-05-03T08:33:22.013Z</time></trkpt><trkpt lat="42.3200784" lon="13.614279"><ele>949.0</ele><time>2026-05-03T08:33:23.013Z</time></trkpt><trkpt lat="42.3200274" lon="13.6143534"><ele>948.9999999999999</ele><time>2026-05-03T08:33:24.013Z</time></trkpt><trkpt lat="42.3199771" lon="13.6144133"><ele>949.0</ele><time>2026-05-03T08:33:25.012Z</time></trkpt><trkpt lat="42.3199061" lon="13.6145226"><ele>948.6666666666666</ele><time>2026-05-03T08:33:27.012Z</time></trkpt><trkpt lat="42.3198492" lon="13.6146344"><ele>948.3333333333333</ele><time>2026-05-03T08:33:29.013Z</time></trkpt><trkpt lat="42.3197827" lon="13.6147609"><ele>948.0</ele><time>2026-05-03T08:33:31.013Z</time></trkpt><trkpt lat="42.3197473" lon="13.6148432"><ele>947.6666666666667</ele><time>2026-05-03T08:33:32.013Z</time></trkpt><trkpt lat="42.3197051" lon="13.6149192"><ele>947.3333333333334</ele><time>2026-05-03T08:33:33.012Z</time></trkpt><trkpt lat="42.3196572" lon="13.6150021"><ele>947.0</ele><time>2026-05-03T08:33:34.013Z</time></trkpt><trkpt lat="42.3196101" lon="13.6150936"><ele>948.3333333333334</ele><time>2026-05-03T08:33:35.012Z</time></trkpt><trkpt lat="42.3195671" lon="13.6151929"><ele>949.6666666666667</ele><time>2026-05-03T08:33:36.012Z</time></trkpt><trkpt lat="42.3195269" lon="13.6152826"><ele>951.0</ele><time>2026-05-03T08:33:37.013Z</time></trkpt><trkpt lat="42.3194847" lon="13.615357"><ele>952.3333333333333</ele><time>2026-05-03T08:33:38.013Z</time></trkpt><trkpt lat="42.3194379" lon="13.615428"><ele>953.6666666666666</ele><time>2026-05-03T08:33:39.013Z</time></trkpt><trkpt lat="42.3193777" lon="13.6155013"><ele>955.0</ele><time>2026-05-03T08:33:40.013Z</time></trkpt><trkpt lat="42.3193185" lon="13.6155664"><ele>954.9999999999999</ele><time>2026-05-03T08:33:41.013Z</time></trkpt><trkpt lat="42.3192727" lon="13.6156265"><ele>955.0</ele><time>2026-05-03T08:33:42.013Z</time></trkpt><trkpt lat="42.3192069" lon="13.6157441"><ele>955.0</ele><time>2026-05-03T08:33:44.013Z</time></trkpt><trkpt lat="42.319155" lon="13.6158643"><ele>955.0</ele><time>2026-05-03T08:33:46.013Z</time></trkpt><trkpt lat="42.3191582" lon="13.6159762"><ele>954.9999999999999</ele><time>2026-05-03T08:33:48.013Z</time></trkpt><trkpt lat="42.3191382" lon="13.6160628"><ele>955.0</ele><time>2026-05-03T08:33:50.013Z</time></trkpt><trkpt lat="42.3190773" lon="13.6161769"><ele>954.75</ele><time>2026-05-03T08:33:52.013Z</time></trkpt><trkpt lat="42.3190217" lon="13.6163077"><ele>954.5</ele><time>2026-05-03T08:33:54.012Z</time></trkpt><trkpt lat="42.3189773" lon="13.616421"><ele>954.25</ele><time>2026-05-03T08:33:56.013Z</time></trkpt><trkpt lat="42.3188953" lon="13.6165304"><ele>954.0</ele><time>2026-05-03T08:33:58.013Z</time></trkpt><trkpt lat="42.3188083" lon="13.6166579"><ele>954.8333333333334</ele><time>2026-05-03T08:34:00.012Z</time></trkpt><trkpt lat="42.3187549" lon="13.6167107"><ele>955.6666666666667</ele><time>2026-05-03T08:34:01.013Z</time></trkpt><trkpt lat="42.3186665" lon="13.6167848"><ele>956.5</ele><time>2026-05-03T08:34:03.012Z</time></trkpt><trkpt lat="42.3185949" lon="13.6168531"><ele>957.3333333333334</ele><time>2026-05-03T08:34:05.012Z</time></trkpt><trkpt lat="42.31856" lon="13.6169481"><ele>958.1666666666667</ele><time>2026-05-03T08:34:07.012Z</time></trkpt><trkpt lat="42.3184912" lon="13.6170443"><ele>959.0</ele><time>2026-05-03T08:34:09.012Z</time></trkpt><trkpt lat="42.3183952" lon="13.6171485"><ele>959.0000000000001</ele><time>2026-05-03T08:34:11.013Z</time></trkpt><trkpt lat="42.3183376" lon="13.6171886"><ele>959.0</ele><time>2026-05-03T08:34:12.013Z</time></trkpt><trkpt lat="42.3182421" lon="13.6172691"><ele>959.0</ele><time>2026-05-03T08:34:14.013Z</time></trkpt><trkpt lat="42.3181893" lon="13.6173261"><ele>959.0</ele><time>2026-05-03T08:34:15.012Z</time></trkpt><trkpt lat="42.3181294" lon="13.6173881"><ele>959.0000000000001</ele><time>2026-05-03T08:34:16.013Z</time></trkpt><trkpt lat="42.3180655" lon="13.6174419"><ele>959.0</ele><time>2026-05-03T08:34:17.013Z</time></trkpt><trkpt lat="42.3179943" lon="13.6174867"><ele>959.6</ele><time>2026-05-03T08:34:18.013Z</time></trkpt><trkpt lat="42.3179164" lon="13.6175383"><ele>960.2</ele><time>2026-05-03T08:34:19.013Z</time></trkpt><trkpt lat="42.3178407" lon="13.6176054"><ele>960.8000000000001</ele><time>2026-05-03T08:34:20.012Z</time></trkpt><trkpt lat="42.3177676" lon="13.6176798"><ele>961.4000000000001</ele><time>2026-05-03T08:34:21.013Z</time></trkpt><trkpt lat="42.3176916" lon="13.6177546"><ele>962.0</ele><time>2026-05-03T08:34:22.012Z</time></trkpt><trkpt lat="42.3176194" lon="13.6178207"><ele>962.0000000000001</ele><time>2026-05-03T08:34:23.013Z</time></trkpt><trkpt lat="42.3175592" lon="13.6178791"><ele>962.0</ele><time>2026-05-03T08:34:24.013Z</time></trkpt><trkpt lat="42.3175069" lon="13.6179402"><ele>962.0</ele><time>2026-05-03T08:34:25.012Z</time></trkpt><trkpt lat="42.317451" lon="13.6180043"><ele>962.0</ele><time>2026-05-03T08:34:26.012Z</time></trkpt><trkpt lat="42.3173831" lon="13.6180677"><ele>962.0000000000001</ele><time>2026-05-03T08:34:27.013Z</time></trkpt><trkpt lat="42.3173078" lon="13.618137"><ele>962.0</ele><time>2026-05-03T08:34:28.012Z</time></trkpt><trkpt lat="42.3172362" lon="13.618206"><ele>964.6666666666667</ele><time>2026-05-03T08:34:29.013Z</time></trkpt><trkpt lat="42.3171682" lon="13.618274"><ele>967.3333333333334</ele><time>2026-05-03T08:34:30.012Z</time></trkpt><trkpt lat="42.3171099" lon="13.6183371"><ele>970.0</ele><time>2026-05-03T08:34:31.012Z</time></trkpt><trkpt lat="42.3170054" lon="13.6184444"><ele>972.6666666666667</ele><time>2026-05-03T08:34:33.012Z</time></trkpt><trkpt lat="42.3169523" lon="13.6185063"><ele>975.3333333333334</ele><time>2026-05-03T08:34:34.012Z</time></trkpt><trkpt lat="42.3169017" lon="13.6185713"><ele>978.0</ele><time>2026-05-03T08:34:35.013Z</time></trkpt><trkpt lat="42.3168503" lon="13.6186238"><ele>975.75</ele><time>2026-05-03T08:34:36.012Z</time></trkpt><trkpt lat="42.3167422" lon="13.6187014"><ele>973.5</ele><time>2026-05-03T08:34:38.012Z</time></trkpt><trkpt lat="42.3166401" lon="13.618783"><ele>971.25</ele><time>2026-05-03T08:34:40.012Z</time></trkpt><trkpt lat="42.3165399" lon="13.6188783"><ele>969.0</ele><time>2026-05-03T08:34:42.013Z</time></trkpt><trkpt lat="42.3164536" lon="13.6189625"><ele>972.25</ele><time>2026-05-03T08:34:44.012Z</time></trkpt><trkpt lat="42.3163486" lon="13.6190612"><ele>975.5</ele><time>2026-05-03T08:34:46.013Z</time></trkpt><trkpt lat="42.3162746" lon="13.6191763"><ele>978.75</ele><time>2026-05-03T08:34:48.013Z</time></trkpt><trkpt lat="42.316233" lon="13.6193241"><ele>982.0</ele><time>2026-05-03T08:34:50.013Z</time></trkpt><trkpt lat="42.3162076" lon="13.6194623"><ele>981.4000000000001</ele><time>2026-05-03T08:34:52.012Z</time></trkpt><trkpt lat="42.3161948" lon="13.6195985"><ele>980.8000000000001</ele><time>2026-05-03T08:34:54.012Z</time></trkpt><trkpt lat="42.3161952" lon="13.6197509"><ele>980.2</ele><time>2026-05-03T08:34:56.012Z</time></trkpt><trkpt lat="42.3161152" lon="13.6198292"><ele>979.6</ele><time>2026-05-03T08:34:58.012Z</time></trkpt><trkpt lat="42.3160155" lon="13.6198709"><ele>979.0</ele><time>2026-05-03T08:35:00.013Z</time></trkpt><trkpt lat="42.3159664" lon="13.6199257"><ele>978.9999999999999</ele><time>2026-05-03T08:35:01.013Z</time></trkpt><trkpt lat="42.315913" lon="13.6199998"><ele>979.0</ele><time>2026-05-03T08:35:02.012Z</time></trkpt><trkpt lat="42.3158581" lon="13.6200806"><ele>979.0</ele><time>2026-05-03T08:35:03.012Z</time></trkpt><trkpt lat="42.3158003" lon="13.6201651"><ele>979.0</ele><time>2026-05-03T08:35:04.013Z</time></trkpt><trkpt lat="42.3157542" lon="13.6202466"><ele>978.9999999999999</ele><time>2026-05-03T08:35:05.013Z</time></trkpt><trkpt lat="42.3157099" lon="13.6203354"><ele>979.0</ele><time>2026-05-03T08:35:06.012Z</time></trkpt><trkpt lat="42.3156598" lon="13.6204176"><ele>979.1666666666666</ele><time>2026-05-03T08:35:07.013Z</time></trkpt><trkpt lat="42.3155615" lon="13.6204814"><ele>979.3333333333333</ele><time>2026-05-03T08:35:09.013Z</time></trkpt><trkpt lat="42.315466" lon="13.620467"><ele>979.5</ele><time>2026-05-03T08:35:11.012Z</time></trkpt><trkpt lat="42.3153894" lon="13.6205377"><ele>979.6666666666667</ele><time>2026-05-03T08:35:13.012Z</time></trkpt><trkpt lat="42.3153475" lon="13.6206048"><ele>979.8333333333334</ele><time>2026-05-03T08:35:14.012Z</time></trkpt><trkpt lat="42.3153023" lon="13.6206742"><ele>980.0</ele><time>2026-05-03T08:35:15.013Z</time></trkpt><trkpt lat="42.3152517" lon="13.6207426"><ele>980.0000000000001</ele><time>2026-05-03T08:35:16.013Z</time></trkpt><trkpt lat="42.3151955" lon="13.6208108"><ele>980.0</ele><time>2026-05-03T08:35:17.013Z</time></trkpt><trkpt lat="42.31513" lon="13.6208823"><ele>980.0</ele><time>2026-05-03T08:35:18.012Z</time></trkpt><trkpt lat="42.3150531" lon="13.6209471"><ele>980.0</ele><time>2026-05-03T08:35:19.012Z</time></trkpt><trkpt lat="42.3149663" lon="13.621008"><ele>980.0000000000001</ele><time>2026-05-03T08:35:20.012Z</time></trkpt><trkpt lat="42.314876" lon="13.6210608"><ele>980.0</ele><time>2026-05-03T08:35:21.013Z</time></trkpt><trkpt lat="42.3147823" lon="13.6211059"><ele>980.1666666666667</ele><time>2026-05-03T08:35:22.013Z</time></trkpt><trkpt lat="42.3146964" lon="13.621143"><ele>980.3333333333334</ele><time>2026-05-03T08:35:23.013Z</time></trkpt><trkpt lat="42.3146149" lon="13.621197"><ele>980.5</ele><time>2026-05-03T08:35:24.012Z</time></trkpt><trkpt lat="42.314539" lon="13.6212562"><ele>980.6666666666667</ele><time>2026-05-03T08:35:25.013Z</time></trkpt><trkpt lat="42.3144722" lon="13.62132"><ele>980.8333333333334</ele><time>2026-05-03T08:35:26.012Z</time></trkpt><trkpt lat="42.3144082" lon="13.6213809"><ele>981.0</ele><time>2026-05-03T08:35:27.012Z</time></trkpt><trkpt lat="42.3143449" lon="13.6214353"><ele>981.0</ele><time>2026-05-03T08:35:28.012Z</time></trkpt><trkpt lat="42.3142878" lon="13.6214822"><ele>981.0</ele><time>2026-05-03T08:35:29.013Z</time></trkpt><trkpt lat="42.31423" lon="13.6215247"><ele>981.0</ele><time>2026-05-03T08:35:30.013Z</time></trkpt><trkpt lat="42.3141702" lon="13.6215727"><ele>981.0</ele><time>2026-05-03T08:35:31.013Z</time></trkpt><trkpt lat="42.3141136" lon="13.6216212"><ele>981.0</ele><time>2026-05-03T08:35:32.012Z</time></trkpt><trkpt lat="42.314013" lon="13.6217107"><ele>981.0</ele><time>2026-05-03T08:35:34.013Z</time></trkpt><trkpt lat="42.3139443" lon="13.6217655"><ele>983.0</ele><time>2026-05-03T08:35:36.013Z</time></trkpt><trkpt lat="42.3138608" lon="13.6217257"><ele>985.0</ele><time>2026-05-03T08:35:39.012Z</time></trkpt><trkpt lat="42.3137703" lon="13.621698"><ele>987.0</ele><time>2026-05-03T08:35:41.012Z</time></trkpt><trkpt lat="42.3136716" lon="13.6217323"><ele>989.0</ele><time>2026-05-03T08:35:43.013Z</time></trkpt><trkpt lat="42.3136095" lon="13.6217917"><ele>991.0</ele><time>2026-05-03T08:35:45.013Z</time></trkpt><trkpt lat="42.3135471" lon="13.6218587"><ele>993.0</ele><time>2026-05-03T08:35:47.013Z</time></trkpt><trkpt lat="42.3134539" lon="13.621933"><ele>991.0</ele><time>2026-05-03T08:35:49.013Z</time></trkpt><trkpt lat="42.3133606" lon="13.6220088"><ele>989.0</ele><time>2026-05-03T08:35:51.013Z</time></trkpt><trkpt lat="42.3132935" lon="13.6220916"><ele>987.0</ele><time>2026-05-03T08:35:53.012Z</time></trkpt><trkpt lat="42.3132256" lon="13.6221922"><ele>985.0</ele><time>2026-05-03T08:35:55.013Z</time></trkpt><trkpt lat="42.3131441" lon="13.6223201"><ele>983.0</ele><time>2026-05-03T08:35:57.013Z</time></trkpt><trkpt lat="42.3130955" lon="13.6223866"><ele>984.142857142857</ele><time>2026-05-03T08:35:58.012Z</time></trkpt><trkpt lat="42.3130484" lon="13.6224536"><ele>985.2857142857142</ele><time>2026-05-03T08:35:59.013Z</time></trkpt><trkpt lat="42.3129942" lon="13.6225127"><ele>986.4285714285714</ele><time>2026-05-03T08:36:00.012Z</time></trkpt><trkpt lat="42.3129467" lon="13.6225687"><ele>987.5714285714286</ele><time>2026-05-03T08:36:01.013Z</time></trkpt><trkpt lat="42.3129015" lon="13.6226319"><ele>988.7142857142858</ele><time>2026-05-03T08:36:02.013Z</time></trkpt><trkpt lat="42.3128509" lon="13.6226964"><ele>989.857142857143</ele><time>2026-05-03T08:36:03.013Z</time></trkpt><trkpt lat="42.3128105" lon="13.6227626"><ele>991.0000000000001</ele><time>2026-05-03T08:36:04.013Z</time></trkpt><trkpt lat="42.3127289" lon="13.6228747"><ele>991.0</ele><time>2026-05-03T08:36:06.013Z</time></trkpt><trkpt lat="42.3126601" lon="13.6229925"><ele>990.9999999999999</ele><time>2026-05-03T08:36:08.012Z</time></trkpt><trkpt lat="42.3126362" lon="13.623074"><ele>990.9999999999999</ele><time>2026-05-03T08:36:09.013Z</time></trkpt><trkpt lat="42.3125774" lon="13.6232003"><ele>991.0</ele><time>2026-05-03T08:36:11.013Z</time></trkpt><trkpt lat="42.3124991" lon="13.6232891"><ele>991.0</ele><time>2026-05-03T08:36:13.013Z</time></trkpt><trkpt lat="42.3124236" lon="13.623392"><ele>990.9999999999999</ele><time>2026-05-03T08:36:15.012Z</time></trkpt><trkpt lat="42.3123613" lon="13.6234886"><ele>991.0</ele><time>2026-05-03T08:36:17.012Z</time></trkpt><trkpt lat="42.312309" lon="13.6235935"><ele>991.0</ele><time>2026-05-03T08:36:19.013Z</time></trkpt><trkpt lat="42.3122689" lon="13.6236658"><ele>991.0</ele><time>2026-05-03T08:36:20.012Z</time></trkpt><trkpt lat="42.3122269" lon="13.6237455"><ele>990.9999999999999</ele><time>2026-05-03T08:36:21.013Z</time></trkpt><trkpt lat="42.3121843" lon="13.6238213"><ele>991.0</ele><time>2026-05-03T08:36:22.012Z</time></trkpt><trkpt lat="42.3121505" lon="13.6238958"><ele>993.8</ele><time>2026-05-03T08:36:23.012Z</time></trkpt><trkpt lat="42.3120917" lon="13.624035"><ele>996.5999999999999</ele><time>2026-05-03T08:36:25.012Z</time></trkpt><trkpt lat="42.3120088" lon="13.6241685"><ele>999.4</ele><time>2026-05-03T08:36:27.013Z</time></trkpt><trkpt lat="42.3119674" lon="13.6242489"><ele>1002.2</ele><time>2026-05-03T08:36:28.012Z</time></trkpt><trkpt lat="42.3119255" lon="13.6243324"><ele>1005.0</ele><time>2026-05-03T08:36:29.013Z</time></trkpt><trkpt lat="42.3118817" lon="13.6244177"><ele>1003.1666666666666</ele><time>2026-05-03T08:36:30.013Z</time></trkpt><trkpt lat="42.3118339" lon="13.6245052"><ele>1001.3333333333333</ele><time>2026-05-03T08:36:31.013Z</time></trkpt><trkpt lat="42.3117916" lon="13.624596"><ele>999.5</ele><time>2026-05-03T08:36:32.013Z</time></trkpt><trkpt lat="42.3117469" lon="13.6246777"><ele>997.6666666666666</ele><time>2026-05-03T08:36:33.013Z</time></trkpt><trkpt lat="42.3117031" lon="13.6247595"><ele>995.8333333333333</ele><time>2026-05-03T08:36:34.013Z</time></trkpt><trkpt lat="42.3116512" lon="13.6248272"><ele>994.0</ele><time>2026-05-03T08:36:35.012Z</time></trkpt><trkpt lat="42.3115968" lon="13.6248911"><ele>994.0</ele><time>2026-05-03T08:36:36.012Z</time></trkpt><trkpt lat="42.3115365" lon="13.6249517"><ele>994.0</ele><time>2026-05-03T08:36:37.012Z</time></trkpt><trkpt lat="42.3114771" lon="13.625017"><ele>994.0</ele><time>2026-05-03T08:36:38.013Z</time></trkpt><trkpt lat="42.3114278" lon="13.6250898"><ele>994.0</ele><time>2026-05-03T08:36:39.013Z</time></trkpt><trkpt lat="42.311381" lon="13.6251656"><ele>994.0</ele><time>2026-05-03T08:36:40.012Z</time></trkpt><trkpt lat="42.3113377" lon="13.6252438"><ele>994.0</ele><time>2026-05-03T08:36:41.012Z</time></trkpt><trkpt lat="42.3112934" lon="13.6253252"><ele>994.0</ele><time>2026-05-03T08:36:42.013Z</time></trkpt><trkpt lat="42.3112495" lon="13.6254149"><ele>996.5714285714286</ele><time>2026-05-03T08:36:43.013Z</time></trkpt><trkpt lat="42.3112041" lon="13.6255069"><ele>999.1428571428571</ele><time>2026-05-03T08:36:44.012Z</time></trkpt><trkpt lat="42.3111596" lon="13.6255993"><ele>1001.7142857142858</ele><time>2026-05-03T08:36:45.013Z</time></trkpt><trkpt lat="42.3111127" lon="13.62568"><ele>1004.2857142857143</ele><time>2026-05-03T08:36:46.013Z</time></trkpt><trkpt lat="42.3110684" lon="13.6257541"><ele>1006.8571428571429</ele><time>2026-05-03T08:36:47.012Z</time></trkpt><trkpt lat="42.3110317" lon="13.6258338"><ele>1009.4285714285716</ele><time>2026-05-03T08:36:48.013Z</time></trkpt><trkpt lat="42.3109936" lon="13.6259075"><ele>1012.0000000000001</ele><time>2026-05-03T08:36:49.013Z</time></trkpt><trkpt lat="42.3109546" lon="13.6259837"><ele>1012.0000000000001</ele><time>2026-05-03T08:36:50.012Z</time></trkpt><trkpt lat="42.3109232" lon="13.6260644"><ele>1012.0</ele><time>2026-05-03T08:36:51.013Z</time></trkpt><trkpt lat="42.3108931" lon="13.6261485"><ele>1012.0000000000001</ele><time>2026-05-03T08:36:52.012Z</time></trkpt><trkpt lat="42.310859" lon="13.6262325"><ele>1012.0000000000001</ele><time>2026-05-03T08:36:53.012Z</time></trkpt><trkpt lat="42.3108248" lon="13.6263245"><ele>1012.0</ele><time>2026-05-03T08:36:54.013Z</time></trkpt><trkpt lat="42.3107852" lon="13.6264206"><ele>1012.0000000000001</ele><time>2026-05-03T08:36:55.013Z</time></trkpt><trkpt lat="42.3107479" lon="13.6265052"><ele>1012.0000000000001</ele><time>2026-05-03T08:36:56.013Z</time></trkpt><trkpt lat="42.3107083" lon="13.6265812"><ele>1011.1666666666666</ele><time>2026-05-03T08:36:57.013Z</time></trkpt><trkpt lat="42.3106678" lon="13.6266637"><ele>1010.3333333333333</ele><time>2026-05-03T08:36:58.013Z</time></trkpt><trkpt lat="42.3106153" lon="13.6267525"><ele>1009.5</ele><time>2026-05-03T08:36:59.013Z</time></trkpt><trkpt lat="42.3105606" lon="13.6268373"><ele>1008.6666666666667</ele><time>2026-05-03T08:37:00.012Z</time></trkpt><trkpt lat="42.3105044" lon="13.6269161"><ele>1007.8333333333334</ele><time>2026-05-03T08:37:01.012Z</time></trkpt><trkpt lat="42.3104574" lon="13.6269984"><ele>1007.0</ele><time>2026-05-03T08:37:02.013Z</time></trkpt><trkpt lat="42.3104227" lon="13.627083"><ele>1007.0</ele><time>2026-05-03T08:37:03.013Z</time></trkpt><trkpt lat="42.310389" lon="13.6271776"><ele>1007.0</ele><time>2026-05-03T08:37:04.012Z</time></trkpt><trkpt lat="42.310351" lon="13.6272713"><ele>1007.0</ele><time>2026-05-03T08:37:05.013Z</time></trkpt><trkpt lat="42.3103241" lon="13.6273585"><ele>1007.0</ele><time>2026-05-03T08:37:06.013Z</time></trkpt><trkpt lat="42.3102711" lon="13.6274991"><ele>1007.0</ele><time>2026-05-03T08:37:08.012Z</time></trkpt><trkpt lat="42.3101923" lon="13.6276221"><ele>1007.0</ele><time>2026-05-03T08:37:10.012Z</time></trkpt><trkpt lat="42.3100999" lon="13.6277132"><ele>1007.0</ele><time>2026-05-03T08:37:12.012Z</time></trkpt><trkpt lat="42.3100318" lon="13.6278148"><ele>1007.0</ele><time>2026-05-03T08:37:14.012Z</time></trkpt><trkpt lat="42.30999" lon="13.6279024"><ele>1007.0</ele><time>2026-05-03T08:37:15.012Z</time></trkpt><trkpt lat="42.3099458" lon="13.627997"><ele>1007.0</ele><time>2026-05-03T08:37:16.012Z</time></trkpt><trkpt lat="42.3099045" lon="13.6280983"><ele>1008.0000000000001</ele><time>2026-05-03T08:37:17.012Z</time></trkpt><trkpt lat="42.3098661" lon="13.6281854"><ele>1009.0</ele><time>2026-05-03T08:37:18.013Z</time></trkpt><trkpt lat="42.3098282" lon="13.6282787"><ele>1010.0</ele><time>2026-05-03T08:37:19.012Z</time></trkpt><trkpt lat="42.3097842" lon="13.6283753"><ele>1011.0</ele><time>2026-05-03T08:37:20.012Z</time></trkpt><trkpt lat="42.3097356" lon="13.6284713"><ele>1012.0000000000001</ele><time>2026-05-03T08:37:21.013Z</time></trkpt><trkpt lat="42.3096874" lon="13.6285748"><ele>1013.0</ele><time>2026-05-03T08:37:22.013Z</time></trkpt><trkpt lat="42.3096335" lon="13.6286672"><ele>1013.0</ele><time>2026-05-03T08:37:23.013Z</time></trkpt><trkpt lat="42.3095872" lon="13.6287544"><ele>1013.0000000000001</ele><time>2026-05-03T08:37:24.012Z</time></trkpt><trkpt lat="42.3095478" lon="13.6288327"><ele>1013.0</ele><time>2026-05-03T08:37:25.012Z</time></trkpt><trkpt lat="42.3095091" lon="13.6289094"><ele>1013.0</ele><time>2026-05-03T08:37:26.013Z</time></trkpt><trkpt lat="42.3094781" lon="13.6289896"><ele>1013.0000000000001</ele><time>2026-05-03T08:37:27.013Z</time></trkpt><trkpt lat="42.3094559" lon="13.6290752"><ele>1013.0</ele><time>2026-05-03T08:37:28.012Z</time></trkpt><trkpt lat="42.3094333" lon="13.6291571"><ele>1013.0</ele><time>2026-05-03T08:37:29.013Z</time></trkpt><trkpt lat="42.3093684" lon="13.629289"><ele>1013.0</ele><time>2026-05-03T08:37:31.013Z</time></trkpt><trkpt lat="42.3092919" lon="13.6293967"><ele>1013.0</ele><time>2026-05-03T08:37:33.013Z</time></trkpt><trkpt lat="42.309203" lon="13.6295313"><ele>1013.0</ele><time>2026-05-03T08:37:35.012Z</time></trkpt><trkpt lat="42.3091498" lon="13.6296124"><ele>1013.0</ele><time>2026-05-03T08:37:36.013Z</time></trkpt><trkpt lat="42.3090909" lon="13.6297051"><ele>1013.0</ele><time>2026-05-03T08:37:37.013Z</time></trkpt><trkpt lat="42.3090346" lon="13.6297969"><ele>1012.5000000000001</ele><time>2026-05-03T08:37:38.013Z</time></trkpt><trkpt lat="42.3089809" lon="13.6298731"><ele>1012.0</ele><time>2026-05-03T08:37:39.012Z</time></trkpt><trkpt lat="42.308925" lon="13.6299937"><ele>1011.5</ele><time>2026-05-03T08:37:41.013Z</time></trkpt><trkpt lat="42.3089002" lon="13.6300878"><ele>1011.0</ele><time>2026-05-03T08:37:42.012Z</time></trkpt><trkpt lat="42.3088843" lon="13.6302069"><ele>1010.5000000000001</ele><time>2026-05-03T08:37:43.013Z</time></trkpt><trkpt lat="42.3088628" lon="13.6303181"><ele>1010.0</ele><time>2026-05-03T08:37:44.012Z</time></trkpt><trkpt lat="42.3088387" lon="13.6304262"><ele>1009.8333333333334</ele><time>2026-05-03T08:37:45.013Z</time></trkpt><trkpt lat="42.3088169" lon="13.6305248"><ele>1009.6666666666667</ele><time>2026-05-03T08:37:46.013Z</time></trkpt><trkpt lat="42.3088089" lon="13.6306223"><ele>1009.5</ele><time>2026-05-03T08:37:47.013Z</time></trkpt><trkpt lat="42.3088156" lon="13.6307162"><ele>1009.3333333333333</ele><time>2026-05-03T08:37:48.012Z</time></trkpt><trkpt lat="42.3088384" lon="13.6308179"><ele>1009.1666666666666</ele><time>2026-05-03T08:37:49.013Z</time></trkpt><trkpt lat="42.3088664" lon="13.6309176"><ele>1009.0</ele><time>2026-05-03T08:37:50.013Z</time></trkpt><trkpt lat="42.3088942" lon="13.6310101"><ele>1009.6666666666666</ele><time>2026-05-03T08:37:51.012Z</time></trkpt><trkpt lat="42.3089174" lon="13.6310911"><ele>1010.3333333333333</ele><time>2026-05-03T08:37:52.013Z</time></trkpt><trkpt lat="42.3089308" lon="13.6312233"><ele>1011.0</ele><time>2026-05-03T08:37:54.013Z</time></trkpt><trkpt lat="42.3088772" lon="13.6313793"><ele>1011.6666666666667</ele><time>2026-05-03T08:37:56.013Z</time></trkpt><trkpt lat="42.3088468" lon="13.6314629"><ele>1012.3333333333334</ele><time>2026-05-03T08:37:57.012Z</time></trkpt><trkpt lat="42.308821" lon="13.6315629"><ele>1013.0</ele><time>2026-05-03T08:37:58.012Z</time></trkpt><trkpt lat="42.3087944" lon="13.6316672"><ele>1010.6666666666667</ele><time>2026-05-03T08:37:59.012Z</time></trkpt><trkpt lat="42.3087733" lon="13.6317832"><ele>1008.3333333333334</ele><time>2026-05-03T08:38:00.012Z</time></trkpt><trkpt lat="42.3087498" lon="13.6318818"><ele>1006.0</ele><time>2026-05-03T08:38:01.013Z</time></trkpt><trkpt lat="42.308726" lon="13.6319815"><ele>1003.6666666666667</ele><time>2026-05-03T08:38:02.013Z</time></trkpt><trkpt lat="42.3086946" lon="13.6320694"><ele>1001.3333333333334</ele><time>2026-05-03T08:38:03.013Z</time></trkpt><trkpt lat="42.3086631" lon="13.6321588"><ele>999.0</ele><time>2026-05-03T08:38:04.012Z</time></trkpt><trkpt lat="42.3086302" lon="13.6322431"><ele>998.6666666666666</ele><time>2026-05-03T08:38:05.013Z</time></trkpt><trkpt lat="42.3085938" lon="13.6323279"><ele>998.3333333333333</ele><time>2026-05-03T08:38:06.012Z</time></trkpt><trkpt lat="42.3085568" lon="13.6324057"><ele>998.0</ele><time>2026-05-03T08:38:07.013Z</time></trkpt><trkpt lat="42.308519" lon="13.6324832"><ele>997.6666666666666</ele><time>2026-05-03T08:38:08.012Z</time></trkpt><trkpt lat="42.3084741" lon="13.6325734"><ele>997.3333333333333</ele><time>2026-05-03T08:38:09.012Z</time></trkpt><trkpt lat="42.3084279" lon="13.6326678"><ele>997.0</ele><time>2026-05-03T08:38:10.013Z</time></trkpt><trkpt lat="42.3083812" lon="13.6327647"><ele>997.4000000000001</ele><time>2026-05-03T08:38:11.013Z</time></trkpt><trkpt lat="42.3083269" lon="13.6328673"><ele>997.8000000000001</ele><time>2026-05-03T08:38:12.013Z</time></trkpt><trkpt lat="42.3082714" lon="13.63297"><ele>998.2</ele><time>2026-05-03T08:38:13.012Z</time></trkpt><trkpt lat="42.3082146" lon="13.6330677"><ele>998.6</ele><time>2026-05-03T08:38:14.013Z</time></trkpt><trkpt lat="42.3081676" lon="13.6331643"><ele>999.0</ele><time>2026-05-03T08:38:15.012Z</time></trkpt><trkpt lat="42.3081183" lon="13.6332584"><ele>997.3333333333334</ele><time>2026-05-03T08:38:16.013Z</time></trkpt><trkpt lat="42.3080728" lon="13.6333502"><ele>995.6666666666667</ele><time>2026-05-03T08:38:17.012Z</time></trkpt><trkpt lat="42.308023" lon="13.6334448"><ele>994.0</ele><time>2026-05-03T08:38:18.012Z</time></trkpt><trkpt lat="42.3079797" lon="13.6335519"><ele>992.3333333333334</ele><time>2026-05-03T08:38:19.013Z</time></trkpt><trkpt lat="42.3079398" lon="13.633663"><ele>990.6666666666667</ele><time>2026-05-03T08:38:20.012Z</time></trkpt><trkpt lat="42.3079102" lon="13.6337616"><ele>989.0</ele><time>2026-05-03T08:38:21.013Z</time></trkpt><trkpt lat="42.3078521" lon="13.6339154"><ele>988.8000000000001</ele><time>2026-05-03T08:38:23.012Z</time></trkpt><trkpt lat="42.3077511" lon="13.6340178"><ele>988.6000000000001</ele><time>2026-05-03T08:38:25.013Z</time></trkpt><trkpt lat="42.3076739" lon="13.6340478"><ele>988.4</ele><time>2026-05-03T08:38:26.012Z</time></trkpt><trkpt lat="42.307613" lon="13.6340714"><ele>988.2</ele><time>2026-05-03T08:38:27.013Z</time></trkpt><trkpt lat="42.307505" lon="13.6341764"><ele>988.0</ele><time>2026-05-03T08:38:29.012Z</time></trkpt><trkpt lat="42.3074435" lon="13.6342692"><ele>988.0</ele><time>2026-05-03T08:38:30.011Z</time></trkpt><trkpt lat="42.3073755" lon="13.6343687"><ele>988.0</ele><time>2026-05-03T08:38:31.011Z</time></trkpt><trkpt lat="42.3073067" lon="13.634471"><ele>988.0</ele><time>2026-05-03T08:38:32.011Z</time></trkpt><trkpt lat="42.3072357" lon="13.6345691"><ele>988.0</ele><time>2026-05-03T08:38:33.012Z</time></trkpt><trkpt lat="42.3071642" lon="13.6346844"><ele>988.0</ele><time>2026-05-03T08:38:34.011Z</time></trkpt><trkpt lat="42.3070893" lon="13.6348087"><ele>987.25</ele><time>2026-05-03T08:38:35.012Z</time></trkpt><trkpt lat="42.3070187" lon="13.634939"><ele>986.5</ele><time>2026-05-03T08:38:36.012Z</time></trkpt><trkpt lat="42.3069457" lon="13.6350975"><ele>985.75</ele><time>2026-05-03T08:38:37.011Z</time></trkpt><trkpt lat="42.3068743" lon="13.6352612"><ele>985.0</ele><time>2026-05-03T08:38:38.012Z</time></trkpt><trkpt lat="42.3068094" lon="13.6354016"><ele>984.2</ele><time>2026-05-03T08:38:39.012Z</time></trkpt><trkpt lat="42.3067439" lon="13.6355271"><ele>983.4</ele><time>2026-05-03T08:38:40.012Z</time></trkpt><trkpt lat="42.3066767" lon="13.6356414"><ele>982.5999999999999</ele><time>2026-05-03T08:38:41.011Z</time></trkpt><trkpt lat="42.3066148" lon="13.6357466"><ele>981.8</ele><time>2026-05-03T08:38:42.012Z</time></trkpt><trkpt lat="42.3065612" lon="13.6358506"><ele>981.0</ele><time>2026-05-03T08:38:43.011Z</time></trkpt><trkpt lat="42.3065183" lon="13.6359464"><ele>981.0</ele><time>2026-05-03T08:38:44.011Z</time></trkpt><trkpt lat="42.3064786" lon="13.6360346"><ele>980.9999999999999</ele><time>2026-05-03T08:38:45.012Z</time></trkpt><trkpt lat="42.3064185" lon="13.6361568"><ele>980.9999999999999</ele><time>2026-05-03T08:38:47.011Z</time></trkpt><trkpt lat="42.3063609" lon="13.6362715"><ele>981.0</ele><time>2026-05-03T08:38:49.011Z</time></trkpt><trkpt lat="42.3062986" lon="13.6364145"><ele>981.0</ele><time>2026-05-03T08:38:51.012Z</time></trkpt><trkpt lat="42.3062632" lon="13.6364945"><ele>980.5714285714287</ele><time>2026-05-03T08:38:52.012Z</time></trkpt><trkpt lat="42.3062295" lon="13.6365774"><ele>980.1428571428571</ele><time>2026-05-03T08:38:53.011Z</time></trkpt><trkpt lat="42.3062091" lon="13.6366664"><ele>979.7142857142858</ele><time>2026-05-03T08:38:54.011Z</time></trkpt><trkpt lat="42.306189" lon="13.6367502"><ele>979.2857142857143</ele><time>2026-05-03T08:38:55.012Z</time></trkpt><trkpt lat="42.3061663" lon="13.6368404"><ele>978.8571428571429</ele><time>2026-05-03T08:38:56.012Z</time></trkpt><trkpt lat="42.3061352" lon="13.6369323"><ele>978.4285714285714</ele><time>2026-05-03T08:38:57.012Z</time></trkpt><trkpt lat="42.306106" lon="13.6370262"><ele>978.0</ele><time>2026-05-03T08:38:58.012Z</time></trkpt><trkpt lat="42.3060768" lon="13.6371314"><ele>977.1666666666666</ele><time>2026-05-03T08:38:59.012Z</time></trkpt><trkpt lat="42.3060466" lon="13.6372425"><ele>976.3333333333333</ele><time>2026-05-03T08:39:00.011Z</time></trkpt><trkpt lat="42.3060195" lon="13.6373536"><ele>975.5</ele><time>2026-05-03T08:39:01.011Z</time></trkpt><trkpt lat="42.3059919" lon="13.6374545"><ele>974.6666666666666</ele><time>2026-05-03T08:39:02.012Z</time></trkpt><trkpt lat="42.3059613" lon="13.6375485"><ele>973.8333333333333</ele><time>2026-05-03T08:39:03.011Z</time></trkpt><trkpt lat="42.3059281" lon="13.6376415"><ele>973.0</ele><time>2026-05-03T08:39:04.011Z</time></trkpt><trkpt lat="42.3058955" lon="13.6377358"><ele>972.4285714285714</ele><time>2026-05-03T08:39:05.012Z</time></trkpt><trkpt lat="42.3058677" lon="13.6378336"><ele>971.8571428571429</ele><time>2026-05-03T08:39:06.012Z</time></trkpt><trkpt lat="42.3058446" lon="13.6379329"><ele>971.2857142857142</ele><time>2026-05-03T08:39:07.011Z</time></trkpt><trkpt lat="42.3058207" lon="13.6380328"><ele>970.7142857142857</ele><time>2026-05-03T08:39:08.011Z</time></trkpt><trkpt lat="42.3058069" lon="13.6381268"><ele>970.1428571428571</ele><time>2026-05-03T08:39:09.011Z</time></trkpt><trkpt lat="42.3058023" lon="13.6382252"><ele>969.5714285714284</ele><time>2026-05-03T08:39:10.011Z</time></trkpt><trkpt lat="42.3057951" lon="13.6383222"><ele>968.9999999999999</ele><time>2026-05-03T08:39:11.011Z</time></trkpt><trkpt lat="42.305779" lon="13.6384116"><ele>969.0</ele><time>2026-05-03T08:39:12.011Z</time></trkpt><trkpt lat="42.3057528" lon="13.638504"><ele>969.0</ele><time>2026-05-03T08:39:13.011Z</time></trkpt><trkpt lat="42.3057128" lon="13.6385911"><ele>969.0</ele><time>2026-05-03T08:39:14.011Z</time></trkpt><trkpt lat="42.3056757" lon="13.6386718"><ele>969.0</ele><time>2026-05-03T08:39:15.011Z</time></trkpt><trkpt lat="42.3056443" lon="13.6388334"><ele>969.0</ele><time>2026-05-03T08:39:17.011Z</time></trkpt><trkpt lat="42.3056309" lon="13.6389187"><ele>969.0</ele><time>2026-05-03T08:39:18.011Z</time></trkpt><trkpt lat="42.3056153" lon="13.6390706"><ele>968.8333333333334</ele><time>2026-05-03T08:39:20.012Z</time></trkpt><trkpt lat="42.3055594" lon="13.6392047"><ele>968.6666666666667</ele><time>2026-05-03T08:39:22.012Z</time></trkpt><trkpt lat="42.3055193" lon="13.6392875"><ele>968.5</ele><time>2026-05-03T08:39:23.011Z</time></trkpt><trkpt lat="42.3054788" lon="13.6393638"><ele>968.3333333333334</ele><time>2026-05-03T08:39:24.011Z</time></trkpt><trkpt lat="42.3054404" lon="13.6394348"><ele>968.1666666666667</ele><time>2026-05-03T08:39:25.011Z</time></trkpt><trkpt lat="42.3053798" lon="13.6395573"><ele>968.0</ele><time>2026-05-03T08:39:27.011Z</time></trkpt><trkpt lat="42.3053467" lon="13.6396704"><ele>965.6666666666667</ele><time>2026-05-03T08:39:29.012Z</time></trkpt><trkpt lat="42.305316" lon="13.6398105"><ele>963.3333333333334</ele><time>2026-05-03T08:39:31.011Z</time></trkpt><trkpt lat="42.3052736" lon="13.6399567"><ele>961.0</ele><time>2026-05-03T08:39:33.011Z</time></trkpt><trkpt lat="42.3052502" lon="13.6400376"><ele>958.6666666666667</ele><time>2026-05-03T08:39:34.012Z</time></trkpt><trkpt lat="42.3052344" lon="13.6401232"><ele>956.3333333333334</ele><time>2026-05-03T08:39:35.012Z</time></trkpt><trkpt lat="42.3052152" lon="13.6402073"><ele>954.0</ele><time>2026-05-03T08:39:36.011Z</time></trkpt><trkpt lat="42.3051956" lon="13.6402946"><ele>952.0</ele><time>2026-05-03T08:39:37.011Z</time></trkpt><trkpt lat="42.3051532" lon="13.6404556"><ele>950.0</ele><time>2026-05-03T08:39:39.011Z</time></trkpt><trkpt lat="42.3051237" lon="13.6405346"><ele>948.0</ele><time>2026-05-03T08:39:40.012Z</time></trkpt><trkpt lat="42.3050926" lon="13.6406108"><ele>946.0</ele><time>2026-05-03T08:39:41.012Z</time></trkpt><trkpt lat="42.3050566" lon="13.6406814"><ele>944.0</ele><time>2026-05-03T08:39:42.012Z</time></trkpt><trkpt lat="42.3049852" lon="13.6407972"><ele>942.0</ele><time>2026-05-03T08:39:44.011Z</time></trkpt><trkpt lat="42.304938" lon="13.6409267"><ele>942.0</ele><time>2026-05-03T08:39:46.011Z</time></trkpt><trkpt lat="42.3049269" lon="13.6410953"><ele>942.0</ele><time>2026-05-03T08:39:48.012Z</time></trkpt><trkpt lat="42.3049316" lon="13.641181"><ele>942.0</ele><time>2026-05-03T08:39:49.012Z</time></trkpt><trkpt lat="42.3049226" lon="13.6413413"><ele>942.0</ele><time>2026-05-03T08:39:51.012Z</time></trkpt><trkpt lat="42.3048652" lon="13.6414977"><ele>942.0</ele><time>2026-05-03T08:39:53.011Z</time></trkpt><trkpt lat="42.3048367" lon="13.6415831"><ele>940.8333333333334</ele><time>2026-05-03T08:39:54.012Z</time></trkpt><trkpt lat="42.3048218" lon="13.6416745"><ele>939.6666666666667</ele><time>2026-05-03T08:39:55.012Z</time></trkpt><trkpt lat="42.3048051" lon="13.6417684"><ele>938.5</ele><time>2026-05-03T08:39:56.011Z</time></trkpt><trkpt lat="42.3047901" lon="13.6418602"><ele>937.3333333333334</ele><time>2026-05-03T08:39:57.012Z</time></trkpt><trkpt lat="42.3047583" lon="13.6420051"><ele>936.1666666666667</ele><time>2026-05-03T08:39:59.012Z</time></trkpt><trkpt lat="42.3046914" lon="13.6421093"><ele>935.0</ele><time>2026-05-03T08:40:01.011Z</time></trkpt><trkpt lat="42.3046007" lon="13.6421954"><ele>932.1666666666667</ele><time>2026-05-03T08:40:03.012Z</time></trkpt><trkpt lat="42.3045512" lon="13.6422535"><ele>929.3333333333334</ele><time>2026-05-03T08:40:04.012Z</time></trkpt><trkpt lat="42.304456" lon="13.6423818"><ele>926.5</ele><time>2026-05-03T08:40:06.012Z</time></trkpt><trkpt lat="42.3043992" lon="13.6424566"><ele>923.6666666666667</ele><time>2026-05-03T08:40:07.011Z</time></trkpt><trkpt lat="42.3043472" lon="13.6425397"><ele>920.8333333333334</ele><time>2026-05-03T08:40:08.011Z</time></trkpt><trkpt lat="42.304291" lon="13.6426223"><ele>918.0</ele><time>2026-05-03T08:40:09.011Z</time></trkpt><trkpt lat="42.3042382" lon="13.6426997"><ele>918.0</ele><time>2026-05-03T08:40:10.012Z</time></trkpt><trkpt lat="42.3041636" lon="13.6427959"><ele>918.0</ele><time>2026-05-03T08:40:12.012Z</time></trkpt><trkpt lat="42.3040999" lon="13.6428025"><ele>918.0</ele><time>2026-05-03T08:40:15.012Z</time></trkpt><trkpt lat="42.3040344" lon="13.6428128"><ele>918.0</ele><time>2026-05-03T08:40:17.012Z</time></trkpt><trkpt lat="42.3039581" lon="13.6428526"><ele>918.0</ele><time>2026-05-03T08:40:30.011Z</time></trkpt><trkpt lat="42.3038849" lon="13.6428945"><ele>918.0</ele><time>2026-05-03T08:40:32.011Z</time></trkpt><trkpt lat="42.3037982" lon="13.6429362"><ele>915.8</ele><time>2026-05-03T08:40:34.011Z</time></trkpt><trkpt lat="42.3036832" lon="13.6429694"><ele>913.5999999999999</ele><time>2026-05-03T08:40:36.012Z</time></trkpt><trkpt lat="42.3035749" lon="13.6430073"><ele>911.4000000000001</ele><time>2026-05-03T08:40:38.012Z</time></trkpt><trkpt lat="42.3034822" lon="13.6430293"><ele>909.2</ele><time>2026-05-03T08:40:40.012Z</time></trkpt><trkpt lat="42.3033774" lon="13.6430653"><ele>907.0</ele><time>2026-05-03T08:40:42.011Z</time></trkpt><trkpt lat="42.303278" lon="13.6431069"><ele>906.9999999999999</ele><time>2026-05-03T08:40:44.011Z</time></trkpt><trkpt lat="42.3031947" lon="13.6431355"><ele>907.0</ele><time>2026-05-03T08:40:46.012Z</time></trkpt><trkpt lat="42.3031126" lon="13.6431694"><ele>907.0</ele><time>2026-05-03T08:40:48.012Z</time></trkpt><trkpt lat="42.303038" lon="13.6431933"><ele>907.0</ele><time>2026-05-03T08:40:50.012Z</time></trkpt><trkpt lat="42.3029634" lon="13.6432175"><ele>906.9999999999999</ele><time>2026-05-03T08:40:52.012Z</time></trkpt><trkpt lat="42.3028839" lon="13.6432291"><ele>907.0</ele><time>2026-05-03T08:40:54.012Z</time></trkpt><trkpt lat="42.3028051" lon="13.6432196"><ele>903.8</ele><time>2026-05-03T08:40:56.011Z</time></trkpt><trkpt lat="42.3027215" lon="13.6432151"><ele>900.6</ele><time>2026-05-03T08:40:58.011Z</time></trkpt><trkpt lat="42.3026201" lon="13.6431971"><ele>897.3999999999999</ele><time>2026-05-03T08:41:00.011Z</time></trkpt><trkpt lat="42.3025201" lon="13.6431453"><ele>894.1999999999999</ele><time>2026-05-03T08:41:02.012Z</time></trkpt><trkpt lat="42.3024038" lon="13.6431021"><ele>891.0</ele><time>2026-05-03T08:41:04.011Z</time></trkpt><trkpt lat="42.3022836" lon="13.6431223"><ele>889.3333333333334</ele><time>2026-05-03T08:41:06.012Z</time></trkpt><trkpt lat="42.3021735" lon="13.6431842"><ele>887.6666666666667</ele><time>2026-05-03T08:41:08.011Z</time></trkpt><trkpt lat="42.3020809" lon="13.6432705"><ele>886.0</ele><time>2026-05-03T08:41:10.012Z</time></trkpt><trkpt lat="42.30202" lon="13.6433075"><ele>884.3333333333334</ele><time>2026-05-03T08:41:11.011Z</time></trkpt><trkpt lat="42.3019533" lon="13.6433294"><ele>882.6666666666667</ele><time>2026-05-03T08:41:12.011Z</time></trkpt><trkpt lat="42.3018841" lon="13.6433371"><ele>881.0</ele><time>2026-05-03T08:41:13.012Z</time></trkpt><trkpt lat="42.3018117" lon="13.64334"><ele>881.0</ele><time>2026-05-03T08:41:14.011Z</time></trkpt><trkpt lat="42.3017418" lon="13.6433523"><ele>881.0</ele><time>2026-05-03T08:41:15.011Z</time></trkpt><trkpt lat="42.3016718" lon="13.6433663"><ele>881.0</ele><time>2026-05-03T08:41:16.012Z</time></trkpt><trkpt lat="42.301602" lon="13.6433815"><ele>881.0</ele><time>2026-05-03T08:41:17.011Z</time></trkpt><trkpt lat="42.3015378" lon="13.6434018"><ele>881.0</ele><time>2026-05-03T08:41:18.011Z</time></trkpt><trkpt lat="42.3014763" lon="13.6434256"><ele>881.0</ele><time>2026-05-03T08:41:19.011Z</time></trkpt><trkpt lat="42.3014143" lon="13.6434455"><ele>881.0</ele><time>2026-05-03T08:41:20.012Z</time></trkpt><trkpt lat="42.301349" lon="13.6434706"><ele>880.0</ele><time>2026-05-03T08:41:21.012Z</time></trkpt><trkpt lat="42.3012847" lon="13.6435043"><ele>879.0</ele><time>2026-05-03T08:41:22.012Z</time></trkpt><trkpt lat="42.3012204" lon="13.6435389"><ele>878.0</ele><time>2026-05-03T08:41:23.012Z</time></trkpt><trkpt lat="42.3011559" lon="13.6435671"><ele>877.0</ele><time>2026-05-03T08:41:24.012Z</time></trkpt><trkpt lat="42.3010902" lon="13.6435869"><ele>876.0</ele><time>2026-05-03T08:41:25.012Z</time></trkpt><trkpt lat="42.3010214" lon="13.6436072"><ele>875.0</ele><time>2026-05-03T08:41:26.012Z</time></trkpt><trkpt lat="42.3009491" lon="13.643635"><ele>874.0</ele><time>2026-05-03T08:41:27.012Z</time></trkpt><trkpt lat="42.3008756" lon="13.6436633"><ele>873.5714285714286</ele><time>2026-05-03T08:41:28.012Z</time></trkpt><trkpt lat="42.3008017" lon="13.6436902"><ele>873.1428571428572</ele><time>2026-05-03T08:41:29.012Z</time></trkpt><trkpt lat="42.3007316" lon="13.6437208"><ele>872.7142857142858</ele><time>2026-05-03T08:41:30.011Z</time></trkpt><trkpt lat="42.3006631" lon="13.6437536"><ele>872.2857142857142</ele><time>2026-05-03T08:41:31.012Z</time></trkpt><trkpt lat="42.3005987" lon="13.643792"><ele>871.8571428571429</ele><time>2026-05-03T08:41:32.012Z</time></trkpt><trkpt lat="42.3005296" lon="13.6438284"><ele>871.4285714285714</ele><time>2026-05-03T08:41:33.012Z</time></trkpt><trkpt lat="42.3004568" lon="13.6438492"><ele>871.0</ele><time>2026-05-03T08:41:34.012Z</time></trkpt><trkpt lat="42.3003859" lon="13.6438578"><ele>869.9999999999999</ele><time>2026-05-03T08:41:35.012Z</time></trkpt><trkpt lat="42.3003169" lon="13.6438698"><ele>869.0</ele><time>2026-05-03T08:41:36.012Z</time></trkpt><trkpt lat="42.3002467" lon="13.6438851"><ele>868.0</ele><time>2026-05-03T08:41:37.011Z</time></trkpt><trkpt lat="42.3001749" lon="13.6439009"><ele>867.0</ele><time>2026-05-03T08:41:38.011Z</time></trkpt><trkpt lat="42.3001024" lon="13.6439114"><ele>865.9999999999999</ele><time>2026-05-03T08:41:39.011Z</time></trkpt><trkpt lat="42.300023" lon="13.6439165"><ele>865.0</ele><time>2026-05-03T08:41:40.012Z</time></trkpt><trkpt lat="42.2999358" lon="13.643907"><ele>865.0</ele><time>2026-05-03T08:41:41.011Z</time></trkpt><trkpt lat="42.2998536" lon="13.6438945"><ele>865.0</ele><time>2026-05-03T08:41:42.011Z</time></trkpt><trkpt lat="42.2997846" lon="13.6438834"><ele>865.0</ele><time>2026-05-03T08:41:43.011Z</time></trkpt><trkpt lat="42.2996632" lon="13.6438344"><ele>865.0</ele><time>2026-05-03T08:41:45.012Z</time></trkpt><trkpt lat="42.2995902" lon="13.6437728"><ele>865.0</ele><time>2026-05-03T08:41:46.011Z</time></trkpt><trkpt lat="42.2995045" lon="13.6437015"><ele>862.75</ele><time>2026-05-03T08:41:47.012Z</time></trkpt><trkpt lat="42.2994143" lon="13.6436164"><ele>860.5</ele><time>2026-05-03T08:41:48.012Z</time></trkpt><trkpt lat="42.2993165" lon="13.6435172"><ele>858.25</ele><time>2026-05-03T08:41:49.011Z</time></trkpt><trkpt lat="42.2992086" lon="13.6434176"><ele>856.0</ele><time>2026-05-03T08:41:50.012Z</time></trkpt><trkpt lat="42.2990976" lon="13.6433139"><ele>856.0</ele><time>2026-05-03T08:41:51.011Z</time></trkpt><trkpt lat="42.298993" lon="13.6432147"><ele>856.0</ele><time>2026-05-03T08:41:52.011Z</time></trkpt><trkpt lat="42.2988894" lon="13.6431191"><ele>856.0</ele><time>2026-05-03T08:41:53.011Z</time></trkpt><trkpt lat="42.2987854" lon="13.6430175"><ele>856.0</ele><time>2026-05-03T08:41:54.011Z</time></trkpt><trkpt lat="42.2986909" lon="13.6429063"><ele>852.75</ele><time>2026-05-03T08:41:55.012Z</time></trkpt><trkpt lat="42.2986027" lon="13.6427868"><ele>849.5</ele><time>2026-05-03T08:41:56.012Z</time></trkpt><trkpt lat="42.2985214" lon="13.6426577"><ele>846.25</ele><time>2026-05-03T08:41:57.012Z</time></trkpt><trkpt lat="42.2984459" lon="13.6425281"><ele>843.0</ele><time>2026-05-03T08:41:58.011Z</time></trkpt><trkpt lat="42.2983689" lon="13.6424049"><ele>843.0</ele><time>2026-05-03T08:41:59.011Z</time></trkpt><trkpt lat="42.2982907" lon="13.6422829"><ele>843.0</ele><time>2026-05-03T08:42:00.012Z</time></trkpt><trkpt lat="42.2982091" lon="13.6421685"><ele>843.0</ele><time>2026-05-03T08:42:01.012Z</time></trkpt><trkpt lat="42.2981355" lon="13.6420665"><ele>843.0</ele><time>2026-05-03T08:42:02.012Z</time></trkpt><trkpt lat="42.2980793" lon="13.6419893"><ele>843.0</ele><time>2026-05-03T08:42:03.011Z</time></trkpt><trkpt lat="42.2980302" lon="13.6419359"><ele>841.2857142857142</ele><time>2026-05-03T08:42:04.012Z</time></trkpt><trkpt lat="42.2979753" lon="13.6418927"><ele>839.5714285714286</ele><time>2026-05-03T08:42:05.012Z</time></trkpt><trkpt lat="42.2979126" lon="13.6418521"><ele>837.8571428571429</ele><time>2026-05-03T08:42:06.012Z</time></trkpt><trkpt lat="42.297849" lon="13.6418123"><ele>836.1428571428571</ele><time>2026-05-03T08:42:07.012Z</time></trkpt><trkpt lat="42.2977862" lon="13.6417681"><ele>834.4285714285714</ele><time>2026-05-03T08:42:08.012Z</time></trkpt><trkpt lat="42.297722" lon="13.6417234"><ele>832.7142857142857</ele><time>2026-05-03T08:42:09.011Z</time></trkpt><trkpt lat="42.2976598" lon="13.6416868"><ele>831.0</ele><time>2026-05-03T08:42:10.011Z</time></trkpt><trkpt lat="42.2975925" lon="13.6416637"><ele>830.9999999999999</ele><time>2026-05-03T08:42:11.012Z</time></trkpt><trkpt lat="42.2975263" lon="13.6416444"><ele>831.0</ele><time>2026-05-03T08:42:12.012Z</time></trkpt><trkpt lat="42.2974598" lon="13.6416391"><ele>831.0</ele><time>2026-05-03T08:42:13.011Z</time></trkpt><trkpt lat="42.2973916" lon="13.6416435"><ele>831.0</ele><time>2026-05-03T08:42:14.012Z</time></trkpt><trkpt lat="42.2973191" lon="13.6416438"><ele>831.0</ele><time>2026-05-03T08:42:15.012Z</time></trkpt><trkpt lat="42.2972403" lon="13.6416382"><ele>830.9999999999999</ele><time>2026-05-03T08:42:16.011Z</time></trkpt><trkpt lat="42.2971628" lon="13.6416284"><ele>831.0</ele><time>2026-05-03T08:42:17.012Z</time></trkpt><trkpt lat="42.2970967" lon="13.6416132"><ele>829.5</ele><time>2026-05-03T08:42:18.012Z</time></trkpt><trkpt lat="42.2970304" lon="13.6415948"><ele>828.0</ele><time>2026-05-03T08:42:19.011Z</time></trkpt><trkpt lat="42.2969601" lon="13.6415831"><ele>826.5</ele><time>2026-05-03T08:42:20.012Z</time></trkpt><trkpt lat="42.29689" lon="13.64157"><ele>825.0</ele><time>2026-05-03T08:42:21.011Z</time></trkpt><trkpt lat="42.2968262" lon="13.6415536"><ele>823.5</ele><time>2026-05-03T08:42:22.012Z</time></trkpt><trkpt lat="42.2967129" lon="13.6415203"><ele>822.0</ele><time>2026-05-03T08:42:24.012Z</time></trkpt><trkpt lat="42.2966005" lon="13.6415512"><ele>822.0</ele><time>2026-05-03T08:42:26.011Z</time></trkpt><trkpt lat="42.2965342" lon="13.6415705"><ele>822.0</ele><time>2026-05-03T08:42:27.011Z</time></trkpt><trkpt lat="42.2964642" lon="13.6415785"><ele>822.0</ele><time>2026-05-03T08:42:28.012Z</time></trkpt><trkpt lat="42.2963968" lon="13.6415765"><ele>822.0</ele><time>2026-05-03T08:42:29.011Z</time></trkpt><trkpt lat="42.2963243" lon="13.6415699"><ele>822.0</ele><time>2026-05-03T08:42:30.011Z</time></trkpt><trkpt lat="42.296253" lon="13.6415616"><ele>822.0</ele><time>2026-05-03T08:42:31.012Z</time></trkpt><trkpt lat="42.2961773" lon="13.6415455"><ele>822.0</ele><time>2026-05-03T08:42:32.011Z</time></trkpt><trkpt lat="42.2961017" lon="13.6415195"><ele>820.7142857142857</ele><time>2026-05-03T08:42:33.011Z</time></trkpt><trkpt lat="42.2960319" lon="13.6414892"><ele>819.4285714285713</ele><time>2026-05-03T08:42:34.012Z</time></trkpt><trkpt lat="42.2959656" lon="13.6414551"><ele>818.1428571428571</ele><time>2026-05-03T08:42:35.011Z</time></trkpt><trkpt lat="42.2959054" lon="13.6414121"><ele>816.8571428571429</ele><time>2026-05-03T08:42:36.012Z</time></trkpt><trkpt lat="42.2958439" lon="13.6413738"><ele>815.5714285714286</ele><time>2026-05-03T08:42:37.012Z</time></trkpt><trkpt lat="42.295774" lon="13.6413448"><ele>814.2857142857143</ele><time>2026-05-03T08:42:38.012Z</time></trkpt><trkpt lat="42.2956952" lon="13.6413264"><ele>813.0</ele><time>2026-05-03T08:42:39.012Z</time></trkpt><trkpt lat="42.2956072" lon="13.641315"><ele>811.5</ele><time>2026-05-03T08:42:40.012Z</time></trkpt><trkpt lat="42.295516" lon="13.6413103"><ele>810.0</ele><time>2026-05-03T08:42:41.012Z</time></trkpt><trkpt lat="42.2954259" lon="13.6413015"><ele>808.5</ele><time>2026-05-03T08:42:42.012Z</time></trkpt><trkpt lat="42.2953433" lon="13.6412902"><ele>807.0</ele><time>2026-05-03T08:42:43.012Z</time></trkpt><trkpt lat="42.2952666" lon="13.6412757"><ele>805.5</ele><time>2026-05-03T08:42:44.011Z</time></trkpt><trkpt lat="42.2951906" lon="13.6412672"><ele>804.0</ele><time>2026-05-03T08:42:45.011Z</time></trkpt><trkpt lat="42.2951089" lon="13.6412632"><ele>804.0</ele><time>2026-05-03T08:42:46.012Z</time></trkpt><trkpt lat="42.2950231" lon="13.6412605"><ele>804.0</ele><time>2026-05-03T08:42:47.011Z</time></trkpt><trkpt lat="42.2949447" lon="13.6412641"><ele>804.0</ele><time>2026-05-03T08:42:48.011Z</time></trkpt><trkpt lat="42.2948673" lon="13.6412684"><ele>804.0</ele><time>2026-05-03T08:42:49.011Z</time></trkpt><trkpt lat="42.2947943" lon="13.6412647"><ele>804.0</ele><time>2026-05-03T08:42:50.011Z</time></trkpt><trkpt lat="42.2947283" lon="13.6412447"><ele>804.0</ele><time>2026-05-03T08:42:51.011Z</time></trkpt><trkpt lat="42.2946089" lon="13.641185"><ele>803.0</ele><time>2026-05-03T08:42:53.012Z</time></trkpt><trkpt lat="42.2944938" lon="13.6411243"><ele>802.0</ele><time>2026-05-03T08:42:55.012Z</time></trkpt><trkpt lat="42.2944155" lon="13.6410934"><ele>801.0</ele><time>2026-05-03T08:42:57.012Z</time></trkpt><trkpt lat="42.2943507" lon="13.6411197"><ele>800.0</ele><time>2026-05-03T08:42:59.012Z</time></trkpt><trkpt lat="42.2942976" lon="13.6411774"><ele>799.0</ele><time>2026-05-03T08:43:00.011Z</time></trkpt><trkpt lat="42.2942293" lon="13.6412525"><ele>798.0</ele><time>2026-05-03T08:43:01.011Z</time></trkpt><trkpt lat="42.294139" lon="13.6413544"><ele>798.0</ele><time>2026-05-03T08:43:02.011Z</time></trkpt><trkpt lat="42.2940327" lon="13.6414579"><ele>798.0</ele><time>2026-05-03T08:43:03.012Z</time></trkpt><trkpt lat="42.2939327" lon="13.6415682"><ele>798.0</ele><time>2026-05-03T08:43:04.011Z</time></trkpt><trkpt lat="42.293843" lon="13.6416931"><ele>798.0</ele><time>2026-05-03T08:43:05.012Z</time></trkpt><trkpt lat="42.293763" lon="13.6418332"><ele>798.0</ele><time>2026-05-03T08:43:06.011Z</time></trkpt><trkpt lat="42.2937033" lon="13.6419896"><ele>798.0</ele><time>2026-05-03T08:43:07.011Z</time></trkpt><trkpt lat="42.2936442" lon="13.642143"><ele>798.0</ele><time>2026-05-03T08:43:08.011Z</time></trkpt><trkpt lat="42.2935644" lon="13.6422584"><ele>798.0</ele><time>2026-05-03T08:43:09.011Z</time></trkpt><trkpt lat="42.293467" lon="13.6423413"><ele>798.0</ele><time>2026-05-03T08:43:10.012Z</time></trkpt><trkpt lat="42.2933568" lon="13.64241"><ele>798.0</ele><time>2026-05-03T08:43:11.012Z</time></trkpt><trkpt lat="42.2932376" lon="13.6424847"><ele>798.0</ele><time>2026-05-03T08:43:12.011Z</time></trkpt><trkpt lat="42.2931139" lon="13.6425572"><ele>798.0</ele><time>2026-05-03T08:43:13.012Z</time></trkpt><trkpt lat="42.2929829" lon="13.642628"><ele>797.75</ele><time>2026-05-03T08:43:14.012Z</time></trkpt><trkpt lat="42.2928517" lon="13.6426956"><ele>797.5</ele><time>2026-05-03T08:43:15.012Z</time></trkpt><trkpt lat="42.2927223" lon="13.6427642"><ele>797.25</ele><time>2026-05-03T08:43:16.012Z</time></trkpt><trkpt lat="42.2926013" lon="13.6428259"><ele>797.0</ele><time>2026-05-03T08:43:17.012Z</time></trkpt><trkpt lat="42.2924816" lon="13.642887"><ele>797.0</ele><time>2026-05-03T08:43:18.011Z</time></trkpt><trkpt lat="42.2923637" lon="13.6429452"><ele>797.0</ele><time>2026-05-03T08:43:19.012Z</time></trkpt><trkpt lat="42.2922416" lon="13.6430071"><ele>797.0</ele><time>2026-05-03T08:43:20.011Z</time></trkpt><trkpt lat="42.292111" lon="13.6430639"><ele>797.0</ele><time>2026-05-03T08:43:21.012Z</time></trkpt><trkpt lat="42.2919812" lon="13.6431176"><ele>796.5</ele><time>2026-05-03T08:43:22.011Z</time></trkpt><trkpt lat="42.2918506" lon="13.6431634"><ele>796.0</ele><time>2026-05-03T08:43:23.012Z</time></trkpt><trkpt lat="42.2917244" lon="13.6431934"><ele>795.5</ele><time>2026-05-03T08:43:24.012Z</time></trkpt><trkpt lat="42.2916096" lon="13.6431995"><ele>795.0</ele><time>2026-05-03T08:43:25.012Z</time></trkpt><trkpt lat="42.2914992" lon="13.6431794"><ele>794.2</ele><time>2026-05-03T08:43:26.011Z</time></trkpt><trkpt lat="42.2914058" lon="13.6431345"><ele>793.4</ele><time>2026-05-03T08:43:27.012Z</time></trkpt><trkpt lat="42.2913061" lon="13.6430785"><ele>792.5999999999999</ele><time>2026-05-03T08:43:28.011Z</time></trkpt><trkpt lat="42.2911903" lon="13.6430535"><ele>791.8</ele><time>2026-05-03T08:43:29.012Z</time></trkpt><trkpt lat="42.2910727" lon="13.6430722"><ele>791.0</ele><time>2026-05-03T08:43:30.011Z</time></trkpt><trkpt lat="42.2909529" lon="13.6431024"><ele>791.0</ele><time>2026-05-03T08:43:31.012Z</time></trkpt><trkpt lat="42.2908292" lon="13.6431349"><ele>791.0</ele><time>2026-05-03T08:43:32.012Z</time></trkpt><trkpt lat="42.2907082" lon="13.6431693"><ele>791.0</ele><time>2026-05-03T08:43:33.012Z</time></trkpt><trkpt lat="42.2905842" lon="13.6431986"><ele>791.0</ele><time>2026-05-03T08:43:34.012Z</time></trkpt><trkpt lat="42.2904726" lon="13.6432125"><ele>790.0</ele><time>2026-05-03T08:43:35.011Z</time></trkpt><trkpt lat="42.2903678" lon="13.6432242"><ele>789.0</ele><time>2026-05-03T08:43:36.012Z</time></trkpt><trkpt lat="42.2902631" lon="13.6432311"><ele>788.0</ele><time>2026-05-03T08:43:37.011Z</time></trkpt><trkpt lat="42.2901637" lon="13.6432379"><ele>787.0</ele><time>2026-05-03T08:43:38.012Z</time></trkpt><trkpt lat="42.2900704" lon="13.6432479"><ele>786.0</ele><time>2026-05-03T08:43:39.011Z</time></trkpt><trkpt lat="42.2899809" lon="13.6432593"><ele>786.0</ele><time>2026-05-03T08:43:40.012Z</time></trkpt><trkpt lat="42.2898957" lon="13.6432756"><ele>786.0</ele><time>2026-05-03T08:43:41.012Z</time></trkpt><trkpt lat="42.2898209" lon="13.643297"><ele>786.0</ele><time>2026-05-03T08:43:42.012Z</time></trkpt><trkpt lat="42.2897574" lon="13.64334"><ele>786.0</ele><time>2026-05-03T08:43:43.012Z</time></trkpt><trkpt lat="42.2897112" lon="13.6434135"><ele>786.0</ele><time>2026-05-03T08:43:44.012Z</time></trkpt><trkpt lat="42.2896889" lon="13.6435065"><ele>786.0</ele><time>2026-05-03T08:43:45.012Z</time></trkpt><trkpt lat="42.2896893" lon="13.6436303"><ele>787.0</ele><time>2026-05-03T08:43:46.011Z</time></trkpt><trkpt lat="42.2897109" lon="13.6437419"><ele>788.0</ele><time>2026-05-03T08:43:47.012Z</time></trkpt><trkpt lat="42.2897415" lon="13.6438497"><ele>789.0</ele><time>2026-05-03T08:43:48.011Z</time></trkpt><trkpt lat="42.289774" lon="13.6439783"><ele>790.0</ele><time>2026-05-03T08:43:49.011Z</time></trkpt><trkpt lat="42.2898012" lon="13.6441174"><ele>791.0</ele><time>2026-05-03T08:43:50.011Z</time></trkpt><trkpt lat="42.2898215" lon="13.6442694"><ele>791.0</ele><time>2026-05-03T08:43:51.012Z</time></trkpt><trkpt lat="42.2898326" lon="13.6444134"><ele>791.0</ele><time>2026-05-03T08:43:52.012Z</time></trkpt><trkpt lat="42.2898483" lon="13.6445613"><ele>791.0</ele><time>2026-05-03T08:43:53.012Z</time></trkpt><trkpt lat="42.2898724" lon="13.6447084"><ele>791.0</ele><time>2026-05-03T08:43:54.012Z</time></trkpt><trkpt lat="42.2898998" lon="13.6448442"><ele>791.0</ele><time>2026-05-03T08:43:55.012Z</time></trkpt><trkpt lat="42.2899347" lon="13.6449843"><ele>792.0</ele><time>2026-05-03T08:43:56.011Z</time></trkpt><trkpt lat="42.2899741" lon="13.6451241"><ele>793.0</ele><time>2026-05-03T08:43:57.011Z</time></trkpt><trkpt lat="42.2900087" lon="13.6452637"><ele>794.0</ele><time>2026-05-03T08:43:58.011Z</time></trkpt><trkpt lat="42.2900508" lon="13.6454131"><ele>795.0</ele><time>2026-05-03T08:43:59.011Z</time></trkpt><trkpt lat="42.290078" lon="13.645569"><ele>795.25</ele><time>2026-05-03T08:44:00.011Z</time></trkpt><trkpt lat="42.2900936" lon="13.6457279"><ele>795.5</ele><time>2026-05-03T08:44:01.012Z</time></trkpt><trkpt lat="42.2900948" lon="13.6458958"><ele>795.75</ele><time>2026-05-03T08:44:02.012Z</time></trkpt><trkpt lat="42.2900694" lon="13.6460789"><ele>796.0</ele><time>2026-05-03T08:44:03.011Z</time></trkpt><trkpt lat="42.2900241" lon="13.6462641"><ele>797.5</ele><time>2026-05-03T08:44:04.011Z</time></trkpt><trkpt lat="42.2899607" lon="13.6464384"><ele>799.0</ele><time>2026-05-03T08:44:05.011Z</time></trkpt><trkpt lat="42.2898788" lon="13.6465951"><ele>800.5</ele><time>2026-05-03T08:44:06.012Z</time></trkpt><trkpt lat="42.2897911" lon="13.6467422"><ele>802.0</ele><time>2026-05-03T08:44:07.011Z</time></trkpt><trkpt lat="42.289715" lon="13.646905"><ele>799.25</ele><time>2026-05-03T08:44:08.011Z</time></trkpt><trkpt lat="42.2896529" lon="13.6470771"><ele>796.5</ele><time>2026-05-03T08:44:09.011Z</time></trkpt><trkpt lat="42.2896042" lon="13.6472474"><ele>793.75</ele><time>2026-05-03T08:44:10.012Z</time></trkpt><trkpt lat="42.2895726" lon="13.6474198"><ele>791.0</ele><time>2026-05-03T08:44:11.011Z</time></trkpt><trkpt lat="42.2895386" lon="13.6475894"><ele>791.0</ele><time>2026-05-03T08:44:12.011Z</time></trkpt><trkpt lat="42.2894874" lon="13.6477419"><ele>791.0</ele><time>2026-05-03T08:44:13.012Z</time></trkpt><trkpt lat="42.2894031" lon="13.6478788"><ele>791.0</ele><time>2026-05-03T08:44:14.011Z</time></trkpt><trkpt lat="42.2893086" lon="13.6480147"><ele>791.0</ele><time>2026-05-03T08:44:15.012Z</time></trkpt><trkpt lat="42.2892129" lon="13.6481551"><ele>792.6666666666667</ele><time>2026-05-03T08:44:16.012Z</time></trkpt><trkpt lat="42.2891092" lon="13.6482998"><ele>794.3333333333333</ele><time>2026-05-03T08:44:17.012Z</time></trkpt><trkpt lat="42.2889939" lon="13.6484397"><ele>796.0</ele><time>2026-05-03T08:44:18.012Z</time></trkpt><trkpt lat="42.2888766" lon="13.6485769"><ele>793.3333333333333</ele><time>2026-05-03T08:44:19.012Z</time></trkpt><trkpt lat="42.2887542" lon="13.6487148"><ele>790.6666666666667</ele><time>2026-05-03T08:44:20.012Z</time></trkpt><trkpt lat="42.2886366" lon="13.6488521"><ele>788.0</ele><time>2026-05-03T08:44:21.011Z</time></trkpt><trkpt lat="42.2885068" lon="13.6489796"><ele>788.0</ele><time>2026-05-03T08:44:22.012Z</time></trkpt><trkpt lat="42.2883763" lon="13.6491043"><ele>788.0</ele><time>2026-05-03T08:44:23.012Z</time></trkpt><trkpt lat="42.2882502" lon="13.6492286"><ele>788.0</ele><time>2026-05-03T08:44:24.011Z</time></trkpt><trkpt lat="42.2881292" lon="13.6493613"><ele>785.3333333333334</ele><time>2026-05-03T08:44:25.011Z</time></trkpt><trkpt lat="42.288018" lon="13.6495114"><ele>782.6666666666667</ele><time>2026-05-03T08:44:26.012Z</time></trkpt><trkpt lat="42.2879156" lon="13.6496642"><ele>780.0</ele><time>2026-05-03T08:44:27.012Z</time></trkpt><trkpt lat="42.2878306" lon="13.649839"><ele>780.0</ele><time>2026-05-03T08:44:28.012Z</time></trkpt><trkpt lat="42.2877558" lon="13.6500184"><ele>780.0</ele><time>2026-05-03T08:44:29.012Z</time></trkpt><trkpt lat="42.287692" lon="13.6502003"><ele>780.0</ele><time>2026-05-03T08:44:30.012Z</time></trkpt><trkpt lat="42.2876269" lon="13.6503772"><ele>780.0</ele><time>2026-05-03T08:44:31.011Z</time></trkpt><trkpt lat="42.2875706" lon="13.6505541"><ele>781.25</ele><time>2026-05-03T08:44:32.011Z</time></trkpt><trkpt lat="42.2875275" lon="13.6507305"><ele>782.5</ele><time>2026-05-03T08:44:33.011Z</time></trkpt><trkpt lat="42.2874942" lon="13.6509113"><ele>783.75</ele><time>2026-05-03T08:44:34.011Z</time></trkpt><trkpt lat="42.2874643" lon="13.6510923"><ele>785.0</ele><time>2026-05-03T08:44:35.012Z</time></trkpt><trkpt lat="42.2874464" lon="13.6512761"><ele>785.75</ele><time>2026-05-03T08:44:36.011Z</time></trkpt><trkpt lat="42.2874554" lon="13.6514607"><ele>786.5</ele><time>2026-05-03T08:44:37.012Z</time></trkpt><trkpt lat="42.2874845" lon="13.651638"><ele>787.25</ele><time>2026-05-03T08:44:38.012Z</time></trkpt><trkpt lat="42.287514" lon="13.6518051"><ele>788.0</ele><time>2026-05-03T08:44:39.011Z</time></trkpt><trkpt lat="42.2875213" lon="13.651961"><ele>789.0</ele><time>2026-05-03T08:44:40.011Z</time></trkpt><trkpt lat="42.2875018" lon="13.6521053"><ele>790.0</ele><time>2026-05-03T08:44:41.011Z</time></trkpt><trkpt lat="42.2874489" lon="13.6522365"><ele>791.0</ele><time>2026-05-03T08:44:42.011Z</time></trkpt><trkpt lat="42.2873807" lon="13.6523565"><ele>792.0</ele><time>2026-05-03T08:44:43.012Z</time></trkpt><trkpt lat="42.2873077" lon="13.6524788"><ele>793.0</ele><time>2026-05-03T08:44:44.011Z</time></trkpt><trkpt lat="42.2872332" lon="13.6526107"><ele>789.75</ele><time>2026-05-03T08:44:45.011Z</time></trkpt><trkpt lat="42.287163" lon="13.6527535"><ele>786.5</ele><time>2026-05-03T08:44:46.012Z</time></trkpt><trkpt lat="42.2871091" lon="13.6529114"><ele>783.25</ele><time>2026-05-03T08:44:47.011Z</time></trkpt><trkpt lat="42.2870743" lon="13.6530867"><ele>780.0</ele><time>2026-05-03T08:44:48.012Z</time></trkpt><trkpt lat="42.2870505" lon="13.6532695"><ele>780.0</ele><time>2026-05-03T08:44:49.011Z</time></trkpt><trkpt lat="42.2870208" lon="13.6534475"><ele>780.0</ele><time>2026-05-03T08:44:50.012Z</time></trkpt><trkpt lat="42.2869946" lon="13.6536123"><ele>780.0</ele><time>2026-05-03T08:44:51.012Z</time></trkpt><trkpt lat="42.2869626" lon="13.6537769"><ele>780.0</ele><time>2026-05-03T08:44:52.012Z</time></trkpt><trkpt lat="42.2869249" lon="13.6539216"><ele>781.4</ele><time>2026-05-03T08:44:53.012Z</time></trkpt><trkpt lat="42.2868839" lon="13.654047"><ele>782.8</ele><time>2026-05-03T08:44:54.011Z</time></trkpt><trkpt lat="42.286832" lon="13.6541617"><ele>784.2</ele><time>2026-05-03T08:44:55.011Z</time></trkpt><trkpt lat="42.2867643" lon="13.6542649"><ele>785.6</ele><time>2026-05-03T08:44:56.011Z</time></trkpt><trkpt lat="42.2866963" lon="13.6543628"><ele>787.0</ele><time>2026-05-03T08:44:57.012Z</time></trkpt><trkpt lat="42.2866312" lon="13.6544637"><ele>788.0</ele><time>2026-05-03T08:44:58.012Z</time></trkpt><trkpt lat="42.2865635" lon="13.6545724"><ele>789.0</ele><time>2026-05-03T08:44:59.011Z</time></trkpt><trkpt lat="42.2864922" lon="13.6546687"><ele>790.0</ele><time>2026-05-03T08:45:00.012Z</time></trkpt><trkpt lat="42.2864303" lon="13.6547564"><ele>791.0</ele><time>2026-05-03T08:45:01.011Z</time></trkpt><trkpt lat="42.2863714" lon="13.6548366"><ele>792.0</ele><time>2026-05-03T08:45:02.012Z</time></trkpt><trkpt lat="42.2863116" lon="13.6549157"><ele>790.5</ele><time>2026-05-03T08:45:03.011Z</time></trkpt><trkpt lat="42.2862602" lon="13.6549798"><ele>789.0</ele><time>2026-05-03T08:45:04.012Z</time></trkpt><trkpt lat="42.2861961" lon="13.655075"><ele>787.5</ele><time>2026-05-03T08:45:06.011Z</time></trkpt><trkpt lat="42.2861839" lon="13.6551757"><ele>786.0</ele><time>2026-05-03T08:45:09.011Z</time></trkpt><trkpt lat="42.2862139" lon="13.6552536"><ele>784.5</ele><time>2026-05-03T08:45:11.012Z</time></trkpt><trkpt lat="42.286299" lon="13.6553345"><ele>783.0</ele><time>2026-05-03T08:45:13.011Z</time></trkpt><trkpt lat="42.286371" lon="13.6554391"><ele>783.0</ele><time>2026-05-03T08:45:15.012Z</time></trkpt><trkpt lat="42.2863908" lon="13.655607"><ele>783.0</ele><time>2026-05-03T08:45:17.011Z</time></trkpt><trkpt lat="42.2863872" lon="13.6557002"><ele>783.0</ele><time>2026-05-03T08:45:18.012Z</time></trkpt><trkpt lat="42.2863839" lon="13.6557886"><ele>783.0</ele><time>2026-05-03T08:45:19.011Z</time></trkpt><trkpt lat="42.286378" lon="13.6558765"><ele>783.0</ele><time>2026-05-03T08:45:20.012Z</time></trkpt><trkpt lat="42.286371" lon="13.6560306"><ele>783.0</ele><time>2026-05-03T08:45:22.012Z</time></trkpt><trkpt lat="42.286355" lon="13.6561988"><ele>783.8</ele><time>2026-05-03T08:45:24.012Z</time></trkpt><trkpt lat="42.286348" lon="13.6563727"><ele>784.5999999999999</ele><time>2026-05-03T08:45:26.012Z</time></trkpt><trkpt lat="42.2863592" lon="13.6564588"><ele>785.4000000000001</ele><time>2026-05-03T08:45:27.012Z</time></trkpt><trkpt lat="42.2863937" lon="13.6565356"><ele>786.2</ele><time>2026-05-03T08:45:28.011Z</time></trkpt><trkpt lat="42.286493" lon="13.6565884"><ele>787.0</ele><time>2026-05-03T08:45:30.012Z</time></trkpt><trkpt lat="42.2865955" lon="13.6566108"><ele>790.6</ele><time>2026-05-03T08:45:32.011Z</time></trkpt><trkpt lat="42.2866531" lon="13.656691"><ele>794.2</ele><time>2026-05-03T08:45:34.011Z</time></trkpt><trkpt lat="42.2866501" lon="13.6568191"><ele>797.8</ele><time>2026-05-03T08:45:36.011Z</time></trkpt><trkpt lat="42.2865997" lon="13.6569667"><ele>801.4</ele><time>2026-05-03T08:45:38.012Z</time></trkpt><trkpt lat="42.2865259" lon="13.6570803"><ele>805.0</ele><time>2026-05-03T08:45:40.012Z</time></trkpt><trkpt lat="42.2864536" lon="13.6572025"><ele>803.2</ele><time>2026-05-03T08:45:42.012Z</time></trkpt><trkpt lat="42.2863788" lon="13.6573268"><ele>801.4</ele><time>2026-05-03T08:45:44.011Z</time></trkpt><trkpt lat="42.2862975" lon="13.6574454"><ele>799.5999999999999</ele><time>2026-05-03T08:45:46.011Z</time></trkpt><trkpt lat="42.286241" lon="13.6575419"><ele>797.8</ele><time>2026-05-03T08:45:48.011Z</time></trkpt><trkpt lat="42.2861801" lon="13.6576237"><ele>796.0</ele><time>2026-05-03T08:45:50.012Z</time></trkpt><trkpt lat="42.2861128" lon="13.6577018"><ele>798.1999999999999</ele><time>2026-05-03T08:45:52.012Z</time></trkpt><trkpt lat="42.2860427" lon="13.6578018"><ele>800.4</ele><time>2026-05-03T08:45:54.012Z</time></trkpt><trkpt lat="42.2859784" lon="13.6578972"><ele>802.6</ele><time>2026-05-03T08:45:56.011Z</time></trkpt><trkpt lat="42.2859251" lon="13.6580027"><ele>804.8</ele><time>2026-05-03T08:45:58.012Z</time></trkpt><trkpt lat="42.2858583" lon="13.6581135"><ele>807.0</ele><time>2026-05-03T08:46:00.012Z</time></trkpt><trkpt lat="42.2857877" lon="13.6582195"><ele>807.0</ele><time>2026-05-03T08:46:02.011Z</time></trkpt><trkpt lat="42.2857272" lon="13.6583297"><ele>807.0</ele><time>2026-05-03T08:46:04.011Z</time></trkpt><trkpt lat="42.2856592" lon="13.6584394"><ele>807.0</ele><time>2026-05-03T08:46:06.012Z</time></trkpt><trkpt lat="42.2855921" lon="13.6585364"><ele>807.0</ele><time>2026-05-03T08:46:08.012Z</time></trkpt><trkpt lat="42.2855431" lon="13.658637"><ele>807.0</ele><time>2026-05-03T08:46:10.012Z</time></trkpt><trkpt lat="42.2854829" lon="13.658747"><ele>805.2</ele><time>2026-05-03T08:46:12.012Z</time></trkpt><trkpt lat="42.2854156" lon="13.6588653"><ele>803.4000000000001</ele><time>2026-05-03T08:46:14.011Z</time></trkpt><trkpt lat="42.2853409" lon="13.6589934"><ele>801.5999999999999</ele><time>2026-05-03T08:46:16.011Z</time></trkpt><trkpt lat="42.2852423" lon="13.6590996"><ele>799.8</ele><time>2026-05-03T08:46:18.012Z</time></trkpt><trkpt lat="42.2851971" lon="13.6591631"><ele>798.0</ele><time>2026-05-03T08:46:19.012Z</time></trkpt><trkpt lat="42.2851513" lon="13.6592239"><ele>798.0</ele><time>2026-05-03T08:46:20.012Z</time></trkpt><trkpt lat="42.2850625" lon="13.6593293"><ele>798.0</ele><time>2026-05-03T08:46:22.011Z</time></trkpt><trkpt lat="42.2849934" lon="13.6594316"><ele>798.0</ele><time>2026-05-03T08:46:24.012Z</time></trkpt><trkpt lat="42.2849281" lon="13.6595674"><ele>798.0</ele><time>2026-05-03T08:46:26.011Z</time></trkpt><trkpt lat="42.2848988" lon="13.6596474"><ele>798.0</ele><time>2026-05-03T08:46:27.012Z</time></trkpt><trkpt lat="42.2848745" lon="13.6597435"><ele>797.4</ele><time>2026-05-03T08:46:28.011Z</time></trkpt><trkpt lat="42.2848446" lon="13.6598553"><ele>796.8</ele><time>2026-05-03T08:46:29.012Z</time></trkpt><trkpt lat="42.2848073" lon="13.6599683"><ele>796.2</ele><time>2026-05-03T08:46:30.011Z</time></trkpt><trkpt lat="42.2847572" lon="13.6600727"><ele>795.6</ele><time>2026-05-03T08:46:31.012Z</time></trkpt><trkpt lat="42.2846815" lon="13.6601565"><ele>795.0</ele><time>2026-05-03T08:46:32.012Z</time></trkpt><trkpt lat="42.2845845" lon="13.6602552"><ele>800.25</ele><time>2026-05-03T08:46:33.012Z</time></trkpt><trkpt lat="42.284476" lon="13.660366"><ele>805.5</ele><time>2026-05-03T08:46:34.012Z</time></trkpt><trkpt lat="42.2843519" lon="13.6604843"><ele>810.75</ele><time>2026-05-03T08:46:35.011Z</time></trkpt><trkpt lat="42.284236" lon="13.6605928"><ele>816.0</ele><time>2026-05-03T08:46:36.011Z</time></trkpt><trkpt lat="42.2841462" lon="13.6607057"><ele>816.0</ele><time>2026-05-03T08:46:37.012Z</time></trkpt><trkpt lat="42.2840653" lon="13.6608335"><ele>816.0</ele><time>2026-05-03T08:46:38.012Z</time></trkpt><trkpt lat="42.2839921" lon="13.6609664"><ele>816.0</ele><time>2026-05-03T08:46:39.011Z</time></trkpt><trkpt lat="42.2839295" lon="13.6611085"><ele>816.0</ele><time>2026-05-03T08:46:40.011Z</time></trkpt><trkpt lat="42.2838714" lon="13.6612485"><ele>815.0</ele><time>2026-05-03T08:46:41.012Z</time></trkpt><trkpt lat="42.2838165" lon="13.6613884"><ele>814.0</ele><time>2026-05-03T08:46:42.011Z</time></trkpt><trkpt lat="42.2837703" lon="13.6615245"><ele>813.0</ele><time>2026-05-03T08:46:43.011Z</time></trkpt><trkpt lat="42.2837284" lon="13.6616545"><ele>812.0</ele><time>2026-05-03T08:46:44.012Z</time></trkpt><trkpt lat="42.2836826" lon="13.6617926"><ele>811.0</ele><time>2026-05-03T08:46:45.011Z</time></trkpt><trkpt lat="42.2836357" lon="13.6619387"><ele>815.75</ele><time>2026-05-03T08:46:46.012Z</time></trkpt><trkpt lat="42.2835937" lon="13.6620875"><ele>820.5</ele><time>2026-05-03T08:46:47.011Z</time></trkpt><trkpt lat="42.2835473" lon="13.662241"><ele>825.25</ele><time>2026-05-03T08:46:48.011Z</time></trkpt><trkpt lat="42.283498" lon="13.6623891"><ele>830.0</ele><time>2026-05-03T08:46:49.012Z</time></trkpt><trkpt lat="42.2834463" lon="13.6625305"><ele>830.0</ele><time>2026-05-03T08:46:50.012Z</time></trkpt><trkpt lat="42.2833967" lon="13.6626551"><ele>830.0</ele><time>2026-05-03T08:46:51.012Z</time></trkpt><trkpt lat="42.2833624" lon="13.6627686"><ele>830.0</ele><time>2026-05-03T08:46:52.011Z</time></trkpt><trkpt lat="42.2833285" lon="13.6628763"><ele>830.0</ele><time>2026-05-03T08:46:53.011Z</time></trkpt><trkpt lat="42.28329" lon="13.6629847"><ele>830.0</ele><time>2026-05-03T08:46:54.012Z</time></trkpt><trkpt lat="42.2832538" lon="13.6630798"><ele>829.6666666666667</ele><time>2026-05-03T08:46:55.011Z</time></trkpt><trkpt lat="42.2832132" lon="13.6631781"><ele>829.3333333333334</ele><time>2026-05-03T08:46:56.012Z</time></trkpt><trkpt lat="42.2831717" lon="13.6632807"><ele>829.0</ele><time>2026-05-03T08:46:57.011Z</time></trkpt><trkpt lat="42.2831266" lon="13.663385"><ele>828.6666666666667</ele><time>2026-05-03T08:46:58.012Z</time></trkpt><trkpt lat="42.2830813" lon="13.6634915"><ele>828.3333333333334</ele><time>2026-05-03T08:46:59.012Z</time></trkpt><trkpt lat="42.283033" lon="13.6635971"><ele>828.0</ele><time>2026-05-03T08:47:00.012Z</time></trkpt><trkpt lat="42.2829861" lon="13.663704"><ele>828.0</ele><time>2026-05-03T08:47:01.011Z</time></trkpt><trkpt lat="42.28294" lon="13.6638062"><ele>828.0</ele><time>2026-05-03T08:47:02.011Z</time></trkpt><trkpt lat="42.2828948" lon="13.6639087"><ele>828.0</ele><time>2026-05-03T08:47:03.011Z</time></trkpt><trkpt lat="42.2828484" lon="13.6640107"><ele>828.0</ele><time>2026-05-03T08:47:04.012Z</time></trkpt><trkpt lat="42.2828035" lon="13.6641088"><ele>828.0</ele><time>2026-05-03T08:47:05.011Z</time></trkpt><trkpt lat="42.2827592" lon="13.6642053"><ele>828.0</ele><time>2026-05-03T08:47:06.011Z</time></trkpt><trkpt lat="42.282717" lon="13.6643024"><ele>828.0</ele><time>2026-05-03T08:47:07.011Z</time></trkpt><trkpt lat="42.2826752" lon="13.6643997"><ele>828.0</ele><time>2026-05-03T08:47:08.011Z</time></trkpt><trkpt lat="42.2826299" lon="13.6644987"><ele>828.0</ele><time>2026-05-03T08:47:09.012Z</time></trkpt><trkpt lat="42.2825848" lon="13.6645971"><ele>828.0</ele><time>2026-05-03T08:47:10.011Z</time></trkpt><trkpt lat="42.282544" lon="13.6646924"><ele>828.0</ele><time>2026-05-03T08:47:11.011Z</time></trkpt><trkpt lat="42.2825083" lon="13.6647803"><ele>828.0</ele><time>2026-05-03T08:47:12.012Z</time></trkpt><trkpt lat="42.2824735" lon="13.6648674"><ele>827.8</ele><time>2026-05-03T08:47:13.012Z</time></trkpt><trkpt lat="42.2824339" lon="13.6649638"><ele>827.5999999999999</ele><time>2026-05-03T08:47:14.012Z</time></trkpt><trkpt lat="42.2823904" lon="13.6650633"><ele>827.4000000000001</ele><time>2026-05-03T08:47:15.011Z</time></trkpt><trkpt lat="42.2823401" lon="13.6651737"><ele>827.2</ele><time>2026-05-03T08:47:16.011Z</time></trkpt><trkpt lat="42.2822873" lon="13.6652877"><ele>827.0</ele><time>2026-05-03T08:47:17.011Z</time></trkpt><trkpt lat="42.2822376" lon="13.6654046"><ele>827.0</ele><time>2026-05-03T08:47:18.011Z</time></trkpt><trkpt lat="42.2821934" lon="13.6655165"><ele>827.0</ele><time>2026-05-03T08:47:19.012Z</time></trkpt><trkpt lat="42.2821487" lon="13.6656227"><ele>827.0</ele><time>2026-05-03T08:47:20.012Z</time></trkpt><trkpt lat="42.2821042" lon="13.6657268"><ele>827.0</ele><time>2026-05-03T08:47:21.012Z</time></trkpt><trkpt lat="42.2820615" lon="13.6658326"><ele>827.0</ele><time>2026-05-03T08:47:22.011Z</time></trkpt><trkpt lat="42.2820192" lon="13.6659412"><ele>827.0</ele><time>2026-05-03T08:47:23.012Z</time></trkpt><trkpt lat="42.2819745" lon="13.6660447"><ele>827.0</ele><time>2026-05-03T08:47:24.012Z</time></trkpt><trkpt lat="42.2819239" lon="13.6661545"><ele>827.0</ele><time>2026-05-03T08:47:25.012Z</time></trkpt><trkpt lat="42.2818728" lon="13.6662734"><ele>827.0</ele><time>2026-05-03T08:47:26.012Z</time></trkpt><trkpt lat="42.2818225" lon="13.6663973"><ele>827.0</ele><time>2026-05-03T08:47:27.011Z</time></trkpt><trkpt lat="42.2817713" lon="13.6665236"><ele>830.0</ele><time>2026-05-03T08:47:28.011Z</time></trkpt><trkpt lat="42.2817199" lon="13.6666418"><ele>833.0</ele><time>2026-05-03T08:47:29.011Z</time></trkpt><trkpt lat="42.2816657" lon="13.6667618"><ele>836.0</ele><time>2026-05-03T08:47:30.012Z</time></trkpt><trkpt lat="42.2816079" lon="13.6668749"><ele>839.0</ele><time>2026-05-03T08:47:31.012Z</time></trkpt><trkpt lat="42.2815517" lon="13.6669895"><ele>842.0</ele><time>2026-05-03T08:47:32.011Z</time></trkpt><trkpt lat="42.2814991" lon="13.6671095"><ele>839.8</ele><time>2026-05-03T08:47:33.011Z</time></trkpt><trkpt lat="42.2814444" lon="13.6672286"><ele>837.6</ele><time>2026-05-03T08:47:34.012Z</time></trkpt><trkpt lat="42.2813937" lon="13.6673524"><ele>835.4</ele><time>2026-05-03T08:47:35.012Z</time></trkpt><trkpt lat="42.2813464" lon="13.6674678"><ele>833.1999999999999</ele><time>2026-05-03T08:47:36.012Z</time></trkpt><trkpt lat="42.2812992" lon="13.6675828"><ele>831.0</ele><time>2026-05-03T08:47:37.012Z</time></trkpt><trkpt lat="42.2812514" lon="13.6676912"><ele>833.4</ele><time>2026-05-03T08:47:38.011Z</time></trkpt><trkpt lat="42.281202" lon="13.6677994"><ele>835.8</ele><time>2026-05-03T08:47:39.011Z</time></trkpt><trkpt lat="42.2811556" lon="13.6679102"><ele>838.1999999999999</ele><time>2026-05-03T08:47:40.011Z</time></trkpt><trkpt lat="42.2811005" lon="13.6680274"><ele>840.5999999999999</ele><time>2026-05-03T08:47:41.012Z</time></trkpt><trkpt lat="42.2810427" lon="13.6681427"><ele>843.0</ele><time>2026-05-03T08:47:42.012Z</time></trkpt><trkpt lat="42.2809843" lon="13.6682551"><ele>843.0</ele><time>2026-05-03T08:47:43.012Z</time></trkpt><trkpt lat="42.280924" lon="13.6683652"><ele>843.0</ele><time>2026-05-03T08:47:44.012Z</time></trkpt><trkpt lat="42.2808641" lon="13.6684729"><ele>843.0</ele><time>2026-05-03T08:47:45.012Z</time></trkpt><trkpt lat="42.2808032" lon="13.6685772"><ele>843.0</ele><time>2026-05-03T08:47:46.012Z</time></trkpt><trkpt lat="42.2807354" lon="13.6686955"><ele>843.0</ele><time>2026-05-03T08:47:47.011Z</time></trkpt><trkpt lat="42.2806626" lon="13.6688132"><ele>841.4</ele><time>2026-05-03T08:47:48.012Z</time></trkpt><trkpt lat="42.2805861" lon="13.6689256"><ele>839.8</ele><time>2026-05-03T08:47:49.011Z</time></trkpt><trkpt lat="42.2805129" lon="13.6690298"><ele>838.2</ele><time>2026-05-03T08:47:50.011Z</time></trkpt><trkpt lat="42.2804474" lon="13.6691224"><ele>836.6</ele><time>2026-05-03T08:47:51.012Z</time></trkpt><trkpt lat="42.2803836" lon="13.6692218"><ele>835.0</ele><time>2026-05-03T08:47:52.012Z</time></trkpt><trkpt lat="42.280323" lon="13.6693268"><ele>835.0</ele><time>2026-05-03T08:47:53.011Z</time></trkpt><trkpt lat="42.2802563" lon="13.6694303"><ele>835.0</ele><time>2026-05-03T08:47:54.012Z</time></trkpt><trkpt lat="42.2801878" lon="13.6695363"><ele>835.0</ele><time>2026-05-03T08:47:55.012Z</time></trkpt><trkpt lat="42.2801178" lon="13.6696431"><ele>835.0</ele><time>2026-05-03T08:47:56.012Z</time></trkpt><trkpt lat="42.2800429" lon="13.6697562"><ele>835.0</ele><time>2026-05-03T08:47:57.012Z</time></trkpt><trkpt lat="42.2799661" lon="13.6698718"><ele>833.6</ele><time>2026-05-03T08:47:58.011Z</time></trkpt><trkpt lat="42.279889" lon="13.6699813"><ele>832.2</ele><time>2026-05-03T08:47:59.012Z</time></trkpt><trkpt lat="42.2798182" lon="13.6700937"><ele>830.8</ele><time>2026-05-03T08:48:00.011Z</time></trkpt><trkpt lat="42.2797462" lon="13.6701978"><ele>829.4</ele><time>2026-05-03T08:48:01.011Z</time></trkpt><trkpt lat="42.2796766" lon="13.6703001"><ele>828.0</ele><time>2026-05-03T08:48:02.012Z</time></trkpt><trkpt lat="42.2796055" lon="13.6704048"><ele>831.0</ele><time>2026-05-03T08:48:03.012Z</time></trkpt><trkpt lat="42.2795315" lon="13.6705123"><ele>834.0</ele><time>2026-05-03T08:48:04.011Z</time></trkpt><trkpt lat="42.279462" lon="13.6706148"><ele>837.0</ele><time>2026-05-03T08:48:05.012Z</time></trkpt><trkpt lat="42.2793949" lon="13.6707173"><ele>840.0</ele><time>2026-05-03T08:48:06.012Z</time></trkpt><trkpt lat="42.2793251" lon="13.6708194"><ele>843.0</ele><time>2026-05-03T08:48:07.011Z</time></trkpt><trkpt lat="42.2792512" lon="13.6709282"><ele>843.0</ele><time>2026-05-03T08:48:08.012Z</time></trkpt><trkpt lat="42.2791803" lon="13.6710411"><ele>843.0</ele><time>2026-05-03T08:48:09.011Z</time></trkpt><trkpt lat="42.279103" lon="13.6711467"><ele>843.0</ele><time>2026-05-03T08:48:10.011Z</time></trkpt><trkpt lat="42.2790254" lon="13.6712593"><ele>843.0</ele><time>2026-05-03T08:48:11.011Z</time></trkpt><trkpt lat="42.2789433" lon="13.6713664"><ele>843.0</ele><time>2026-05-03T08:48:12.012Z</time></trkpt><trkpt lat="42.2788705" lon="13.6714767"><ele>841.5</ele><time>2026-05-03T08:48:13.012Z</time></trkpt><trkpt lat="42.2787941" lon="13.6715861"><ele>840.0</ele><time>2026-05-03T08:48:14.012Z</time></trkpt><trkpt lat="42.2787169" lon="13.6716957"><ele>838.5</ele><time>2026-05-03T08:48:15.012Z</time></trkpt><trkpt lat="42.2786411" lon="13.6718126"><ele>837.0</ele><time>2026-05-03T08:48:16.012Z</time></trkpt><trkpt lat="42.2785638" lon="13.6719333"><ele>840.75</ele><time>2026-05-03T08:48:17.012Z</time></trkpt><trkpt lat="42.278481" lon="13.6720515"><ele>844.5</ele><time>2026-05-03T08:48:18.012Z</time></trkpt><trkpt lat="42.2784035" lon="13.672175"><ele>848.25</ele><time>2026-05-03T08:48:19.012Z</time></trkpt><trkpt lat="42.278326" lon="13.6722939"><ele>852.0</ele><time>2026-05-03T08:48:20.012Z</time></trkpt><trkpt lat="42.2782577" lon="13.6724051"><ele>852.0</ele><time>2026-05-03T08:48:21.012Z</time></trkpt><trkpt lat="42.2781921" lon="13.6725205"><ele>852.0</ele><time>2026-05-03T08:48:22.012Z</time></trkpt><trkpt lat="42.2781208" lon="13.6726299"><ele>852.0</ele><time>2026-05-03T08:48:23.012Z</time></trkpt><trkpt lat="42.2780454" lon="13.6727335"><ele>852.0</ele><time>2026-05-03T08:48:24.011Z</time></trkpt><trkpt lat="42.277973" lon="13.6728328"><ele>852.0</ele><time>2026-05-03T08:48:25.012Z</time></trkpt><trkpt lat="42.2779034" lon="13.6729355"><ele>849.8</ele><time>2026-05-03T08:48:26.012Z</time></trkpt><trkpt lat="42.2778298" lon="13.6730422"><ele>847.6</ele><time>2026-05-03T08:48:27.012Z</time></trkpt><trkpt lat="42.2777549" lon="13.6731513"><ele>845.4</ele><time>2026-05-03T08:48:28.011Z</time></trkpt><trkpt lat="42.2776805" lon="13.6732573"><ele>843.1999999999999</ele><time>2026-05-03T08:48:29.012Z</time></trkpt><trkpt lat="42.2776048" lon="13.6733598"><ele>841.0</ele><time>2026-05-03T08:48:30.011Z</time></trkpt><trkpt lat="42.2775276" lon="13.673468"><ele>841.0</ele><time>2026-05-03T08:48:31.012Z</time></trkpt><trkpt lat="42.2774525" lon="13.6735784"><ele>841.0</ele><time>2026-05-03T08:48:32.011Z</time></trkpt><trkpt lat="42.277377" lon="13.6736838"><ele>841.0</ele><time>2026-05-03T08:48:33.012Z</time></trkpt><trkpt lat="42.2773068" lon="13.673783"><ele>841.0</ele><time>2026-05-03T08:48:34.011Z</time></trkpt><trkpt lat="42.2772411" lon="13.6738861"><ele>841.0</ele><time>2026-05-03T08:48:35.011Z</time></trkpt><trkpt lat="42.2771713" lon="13.6739909"><ele>840.5999999999999</ele><time>2026-05-03T08:48:36.011Z</time></trkpt><trkpt lat="42.2771007" lon="13.6740988"><ele>840.2</ele><time>2026-05-03T08:48:37.011Z</time></trkpt><trkpt lat="42.2770292" lon="13.6742164"><ele>839.8</ele><time>2026-05-03T08:48:38.012Z</time></trkpt><trkpt lat="42.2769575" lon="13.6743276"><ele>839.4000000000001</ele><time>2026-05-03T08:48:39.011Z</time></trkpt><trkpt lat="42.2768793" lon="13.6744422"><ele>839.0</ele><time>2026-05-03T08:48:40.012Z</time></trkpt><trkpt lat="42.2768025" lon="13.6745537"><ele>838.0</ele><time>2026-05-03T08:48:41.012Z</time></trkpt><trkpt lat="42.2767247" lon="13.6746621"><ele>837.0</ele><time>2026-05-03T08:48:42.011Z</time></trkpt><trkpt lat="42.276648" lon="13.6747703"><ele>836.0</ele><time>2026-05-03T08:48:43.012Z</time></trkpt><trkpt lat="42.2765716" lon="13.6748771"><ele>835.0</ele><time>2026-05-03T08:48:44.012Z</time></trkpt><trkpt lat="42.2765003" lon="13.6749795"><ele>834.0</ele><time>2026-05-03T08:48:45.011Z</time></trkpt><trkpt lat="42.2764282" lon="13.6750737"><ele>834.0</ele><time>2026-05-03T08:48:46.012Z</time></trkpt><trkpt lat="42.2763495" lon="13.6751747"><ele>834.0</ele><time>2026-05-03T08:48:47.012Z</time></trkpt><trkpt lat="42.2762706" lon="13.67528"><ele>834.0</ele><time>2026-05-03T08:48:48.011Z</time></trkpt><trkpt lat="42.2761928" lon="13.6753847"><ele>834.0</ele><time>2026-05-03T08:48:49.011Z</time></trkpt><trkpt lat="42.2761129" lon="13.675496"><ele>834.0</ele><time>2026-05-03T08:48:50.011Z</time></trkpt><trkpt lat="42.2760316" lon="13.675604"><ele>837.5</ele><time>2026-05-03T08:48:51.012Z</time></trkpt><trkpt lat="42.275945" lon="13.6757183"><ele>841.0</ele><time>2026-05-03T08:48:52.012Z</time></trkpt><trkpt lat="42.2758583" lon="13.6758271"><ele>844.5</ele><time>2026-05-03T08:48:53.011Z</time></trkpt><trkpt lat="42.2757769" lon="13.6759358"><ele>848.0</ele><time>2026-05-03T08:48:54.011Z</time></trkpt><trkpt lat="42.2756973" lon="13.6760404"><ele>847.5999999999999</ele><time>2026-05-03T08:48:55.012Z</time></trkpt><trkpt lat="42.2756166" lon="13.6761544"><ele>847.1999999999999</ele><time>2026-05-03T08:48:56.012Z</time></trkpt><trkpt lat="42.275542" lon="13.6762623"><ele>846.8</ele><time>2026-05-03T08:48:57.012Z</time></trkpt><trkpt lat="42.2754683" lon="13.6763559"><ele>846.4</ele><time>2026-05-03T08:48:58.012Z</time></trkpt><trkpt lat="42.2753927" lon="13.6764511"><ele>846.0</ele><time>2026-05-03T08:48:59.012Z</time></trkpt><trkpt lat="42.2753178" lon="13.6765505"><ele>846.0</ele><time>2026-05-03T08:49:00.012Z</time></trkpt><trkpt lat="42.2752469" lon="13.6766455"><ele>846.0</ele><time>2026-05-03T08:49:01.011Z</time></trkpt><trkpt lat="42.2751817" lon="13.6767349"><ele>846.0</ele><time>2026-05-03T08:49:02.012Z</time></trkpt><trkpt lat="42.2751167" lon="13.6768173"><ele>846.0</ele><time>2026-05-03T08:49:03.011Z</time></trkpt><trkpt lat="42.2750535" lon="13.6769035"><ele>846.0</ele><time>2026-05-03T08:49:04.012Z</time></trkpt><trkpt lat="42.274994" lon="13.6769886"><ele>846.5999999999999</ele><time>2026-05-03T08:49:05.011Z</time></trkpt><trkpt lat="42.2749284" lon="13.6770744"><ele>847.2</ele><time>2026-05-03T08:49:06.012Z</time></trkpt><trkpt lat="42.2748638" lon="13.6771685"><ele>847.8</ele><time>2026-05-03T08:49:07.012Z</time></trkpt><trkpt lat="42.274802" lon="13.6772686"><ele>848.4000000000001</ele><time>2026-05-03T08:49:08.012Z</time></trkpt><trkpt lat="42.2747352" lon="13.6773586"><ele>849.0</ele><time>2026-05-03T08:49:09.011Z</time></trkpt><trkpt lat="42.274672" lon="13.6774441"><ele>849.0</ele><time>2026-05-03T08:49:10.011Z</time></trkpt><trkpt lat="42.2746075" lon="13.6775235"><ele>849.0</ele><time>2026-05-03T08:49:11.012Z</time></trkpt><trkpt lat="42.2745433" lon="13.6776043"><ele>849.0</ele><time>2026-05-03T08:49:12.011Z</time></trkpt><trkpt lat="42.2744793" lon="13.6776826"><ele>849.0</ele><time>2026-05-03T08:49:13.011Z</time></trkpt><trkpt lat="42.2744164" lon="13.677762"><ele>849.0</ele><time>2026-05-03T08:49:14.012Z</time></trkpt><trkpt lat="42.2743518" lon="13.6778416"><ele>849.0</ele><time>2026-05-03T08:49:15.011Z</time></trkpt><trkpt lat="42.2742931" lon="13.6779184"><ele>852.8000000000001</ele><time>2026-05-03T08:49:16.012Z</time></trkpt><trkpt lat="42.2742332" lon="13.6779963"><ele>856.6</ele><time>2026-05-03T08:49:17.011Z</time></trkpt><trkpt lat="42.2741659" lon="13.6780771"><ele>860.4</ele><time>2026-05-03T08:49:18.011Z</time></trkpt><trkpt lat="42.2740994" lon="13.6781617"><ele>864.2</ele><time>2026-05-03T08:49:19.012Z</time></trkpt><trkpt lat="42.2740333" lon="13.6782486"><ele>868.0</ele><time>2026-05-03T08:49:20.012Z</time></trkpt><trkpt lat="42.2739641" lon="13.6783358"><ele>867.4</ele><time>2026-05-03T08:49:21.012Z</time></trkpt><trkpt lat="42.2738926" lon="13.67843"><ele>866.8</ele><time>2026-05-03T08:49:22.011Z</time></trkpt><trkpt lat="42.2738202" lon="13.678533"><ele>866.2</ele><time>2026-05-03T08:49:23.011Z</time></trkpt><trkpt lat="42.2737492" lon="13.6786418"><ele>865.6</ele><time>2026-05-03T08:49:24.012Z</time></trkpt><trkpt lat="42.2736761" lon="13.6787543"><ele>865.0</ele><time>2026-05-03T08:49:25.011Z</time></trkpt><trkpt lat="42.2735994" lon="13.6788686"><ele>865.0</ele><time>2026-05-03T08:49:26.011Z</time></trkpt><trkpt lat="42.2735227" lon="13.6789825"><ele>865.0</ele><time>2026-05-03T08:49:27.012Z</time></trkpt><trkpt lat="42.2734497" lon="13.6791014"><ele>865.0</ele><time>2026-05-03T08:49:28.012Z</time></trkpt><trkpt lat="42.2733809" lon="13.6792173"><ele>865.0</ele><time>2026-05-03T08:49:29.012Z</time></trkpt><trkpt lat="42.2733135" lon="13.6793402"><ele>867.4</ele><time>2026-05-03T08:49:30.012Z</time></trkpt><trkpt lat="42.2732553" lon="13.6794504"><ele>869.8</ele><time>2026-05-03T08:49:31.011Z</time></trkpt><trkpt lat="42.2732073" lon="13.6795546"><ele>872.2</ele><time>2026-05-03T08:49:32.012Z</time></trkpt><trkpt lat="42.2731642" lon="13.6796622"><ele>874.6</ele><time>2026-05-03T08:49:33.012Z</time></trkpt><trkpt lat="42.273126" lon="13.6797675"><ele>877.0</ele><time>2026-05-03T08:49:34.012Z</time></trkpt><trkpt lat="42.273083" lon="13.6798808"><ele>874.2</ele><time>2026-05-03T08:49:35.012Z</time></trkpt><trkpt lat="42.2730431" lon="13.6800017"><ele>871.4000000000001</ele><time>2026-05-03T08:49:36.011Z</time></trkpt><trkpt lat="42.273004" lon="13.6801252"><ele>868.5999999999999</ele><time>2026-05-03T08:49:37.011Z</time></trkpt><trkpt lat="42.2729573" lon="13.6802524"><ele>865.8</ele><time>2026-05-03T08:49:38.011Z</time></trkpt><trkpt lat="42.2729119" lon="13.6803846"><ele>863.0</ele><time>2026-05-03T08:49:39.012Z</time></trkpt><trkpt lat="42.2728637" lon="13.6805069"><ele>863.0</ele><time>2026-05-03T08:49:40.012Z</time></trkpt><trkpt lat="42.2728149" lon="13.680635"><ele>863.0</ele><time>2026-05-03T08:49:41.012Z</time></trkpt><trkpt lat="42.2727662" lon="13.6807664"><ele>863.0</ele><time>2026-05-03T08:49:42.011Z</time></trkpt><trkpt lat="42.272719" lon="13.6809019"><ele>863.0</ele><time>2026-05-03T08:49:43.011Z</time></trkpt><trkpt lat="42.2726699" lon="13.6810372"><ele>863.0</ele><time>2026-05-03T08:49:44.012Z</time></trkpt><trkpt lat="42.2726193" lon="13.6811688"><ele>865.2</ele><time>2026-05-03T08:49:45.011Z</time></trkpt><trkpt lat="42.2725687" lon="13.6812895"><ele>867.4</ele><time>2026-05-03T08:49:46.011Z</time></trkpt><trkpt lat="42.2725207" lon="13.681406"><ele>869.6000000000001</ele><time>2026-05-03T08:49:47.012Z</time></trkpt><trkpt lat="42.2724764" lon="13.6815116"><ele>871.8000000000001</ele><time>2026-05-03T08:49:48.012Z</time></trkpt><trkpt lat="42.2724378" lon="13.6816152"><ele>874.0</ele><time>2026-05-03T08:49:49.011Z</time></trkpt><trkpt lat="42.2723973" lon="13.6817233"><ele>874.0</ele><time>2026-05-03T08:49:50.012Z</time></trkpt><trkpt lat="42.2723524" lon="13.6818301"><ele>874.0000000000001</ele><time>2026-05-03T08:49:51.012Z</time></trkpt><trkpt lat="42.2723114" lon="13.6819393"><ele>874.0000000000001</ele><time>2026-05-03T08:49:52.011Z</time></trkpt><trkpt lat="42.2722664" lon="13.6820522"><ele>874.0</ele><time>2026-05-03T08:49:53.011Z</time></trkpt><trkpt lat="42.2722206" lon="13.6821692"><ele>874.0</ele><time>2026-05-03T08:49:54.012Z</time></trkpt><trkpt lat="42.2721755" lon="13.6822887"><ele>873.6</ele><time>2026-05-03T08:49:55.012Z</time></trkpt><trkpt lat="42.2721281" lon="13.6824106"><ele>873.2</ele><time>2026-05-03T08:49:56.011Z</time></trkpt><trkpt lat="42.2720789" lon="13.6825342"><ele>872.8000000000001</ele><time>2026-05-03T08:49:57.012Z</time></trkpt><trkpt lat="42.272031" lon="13.6826441"><ele>872.4000000000001</ele><time>2026-05-03T08:49:58.012Z</time></trkpt><trkpt lat="42.2719856" lon="13.6827477"><ele>872.0</ele><time>2026-05-03T08:49:59.011Z</time></trkpt><trkpt lat="42.2719414" lon="13.6828542"><ele>872.0000000000001</ele><time>2026-05-03T08:50:00.011Z</time></trkpt><trkpt lat="42.2719007" lon="13.6829554"><ele>872.0</ele><time>2026-05-03T08:50:01.012Z</time></trkpt><trkpt lat="42.2718603" lon="13.6830585"><ele>872.0</ele><time>2026-05-03T08:50:02.012Z</time></trkpt><trkpt lat="42.2718239" lon="13.6831627"><ele>872.0</ele><time>2026-05-03T08:50:03.012Z</time></trkpt><trkpt lat="42.2717883" lon="13.6832681"><ele>872.0000000000001</ele><time>2026-05-03T08:50:04.011Z</time></trkpt><trkpt lat="42.271754" lon="13.6833737"><ele>872.0</ele><time>2026-05-03T08:50:05.011Z</time></trkpt><trkpt lat="42.2717221" lon="13.6834813"><ele>872.0000000000001</ele><time>2026-05-03T08:50:06.012Z</time></trkpt><trkpt lat="42.2716909" lon="13.6835842"><ele>872.0</ele><time>2026-05-03T08:50:07.012Z</time></trkpt><trkpt lat="42.2716602" lon="13.6836797"><ele>872.0</ele><time>2026-05-03T08:50:08.012Z</time></trkpt><trkpt lat="42.2716293" lon="13.6837749"><ele>872.0</ele><time>2026-05-03T08:50:09.011Z</time></trkpt><trkpt lat="42.2716031" lon="13.6838674"><ele>872.0000000000001</ele><time>2026-05-03T08:50:10.011Z</time></trkpt><trkpt lat="42.2715786" lon="13.6839507"><ele>872.0</ele><time>2026-05-03T08:50:11.011Z</time></trkpt><trkpt lat="42.2715261" lon="13.6840912"><ele>871.3333333333334</ele><time>2026-05-03T08:50:13.012Z</time></trkpt><trkpt lat="42.2714941" lon="13.6841658"><ele>870.6666666666667</ele><time>2026-05-03T08:50:14.012Z</time></trkpt><trkpt lat="42.2714189" lon="13.6843027"><ele>870.0</ele><time>2026-05-03T08:50:16.012Z</time></trkpt><trkpt lat="42.2713812" lon="13.6843729"><ele>869.3333333333333</ele><time>2026-05-03T08:50:17.011Z</time></trkpt><trkpt lat="42.2713414" lon="13.6844402"><ele>868.6666666666666</ele><time>2026-05-03T08:50:18.012Z</time></trkpt><trkpt lat="42.2713003" lon="13.6845147"><ele>868.0</ele><time>2026-05-03T08:50:19.011Z</time></trkpt><trkpt lat="42.2712334" lon="13.6846318"><ele>870.9999999999999</ele><time>2026-05-03T08:50:21.011Z</time></trkpt><trkpt lat="42.2711877" lon="13.6847063"><ele>874.0</ele><time>2026-05-03T08:50:23.011Z</time></trkpt><trkpt lat="42.2711387" lon="13.684771"><ele>877.0</ele><time>2026-05-03T08:50:27.011Z</time></trkpt><trkpt lat="42.2710747" lon="13.6848879"><ele>880.0</ele><time>2026-05-03T08:50:31.012Z</time></trkpt><trkpt lat="42.2710224" lon="13.6849822"><ele>882.9999999999999</ele><time>2026-05-03T08:50:32.935Z</time></trkpt><trkpt lat="42.2709556" lon="13.6850815"><ele>886.0</ele><time>2026-05-03T08:50:35.011Z</time></trkpt><trkpt lat="42.2709035" lon="13.6851831"><ele>888.8333333333333</ele><time>2026-05-03T08:50:37.012Z</time></trkpt><trkpt lat="42.2708604" lon="13.6852833"><ele>891.6666666666666</ele><time>2026-05-03T08:50:39.012Z</time></trkpt><trkpt lat="42.270821" lon="13.6853863"><ele>894.5</ele><time>2026-05-03T08:50:41.012Z</time></trkpt><trkpt lat="42.2707713" lon="13.6854753"><ele>897.3333333333333</ele><time>2026-05-03T08:50:43.011Z</time></trkpt><trkpt lat="42.2707342" lon="13.6855547"><ele>900.1666666666666</ele><time>2026-05-03T08:50:45.011Z</time></trkpt><trkpt lat="42.2706915" lon="13.6856656"><ele>903.0</ele><time>2026-05-03T08:50:47.012Z</time></trkpt><trkpt lat="42.2706691" lon="13.6857775"><ele>903.0</ele><time>2026-05-03T08:50:49.011Z</time></trkpt><trkpt lat="42.2706336" lon="13.6859132"><ele>903.0</ele><time>2026-05-03T08:50:51.012Z</time></trkpt><trkpt lat="42.270617" lon="13.6860004"><ele>903.0</ele><time>2026-05-03T08:50:52.012Z</time></trkpt><trkpt lat="42.2706013" lon="13.6861685"><ele>903.0</ele><time>2026-05-03T08:50:54.012Z</time></trkpt><trkpt lat="42.2706047" lon="13.6862624"><ele>903.0</ele><time>2026-05-03T08:50:55.012Z</time></trkpt><trkpt lat="42.2706098" lon="13.6863673"><ele>903.0</ele><time>2026-05-03T08:50:56.011Z</time></trkpt><trkpt lat="42.2706214" lon="13.6864642"><ele>905.0</ele><time>2026-05-03T08:50:57.011Z</time></trkpt><trkpt lat="42.2706326" lon="13.6865688"><ele>907.0</ele><time>2026-05-03T08:50:58.012Z</time></trkpt><trkpt lat="42.2706541" lon="13.6866662"><ele>909.0</ele><time>2026-05-03T08:50:59.012Z</time></trkpt><trkpt lat="42.2706795" lon="13.686748"><ele>911.0</ele><time>2026-05-03T08:51:00.011Z</time></trkpt><trkpt lat="42.2707095" lon="13.686835"><ele>913.0</ele><time>2026-05-03T08:51:01.011Z</time></trkpt><trkpt lat="42.2707367" lon="13.6869304"><ele>915.0</ele><time>2026-05-03T08:51:02.012Z</time></trkpt><trkpt lat="42.2707572" lon="13.6870359"><ele>917.0</ele><time>2026-05-03T08:51:03.012Z</time></trkpt><trkpt lat="42.27077" lon="13.6871471"><ele>917.5000000000001</ele><time>2026-05-03T08:51:04.011Z</time></trkpt><trkpt lat="42.270781" lon="13.6872599"><ele>918.0</ele><time>2026-05-03T08:51:05.011Z</time></trkpt><trkpt lat="42.2707829" lon="13.6873791"><ele>918.5</ele><time>2026-05-03T08:51:06.011Z</time></trkpt><trkpt lat="42.2707792" lon="13.687489"><ele>919.0</ele><time>2026-05-03T08:51:07.012Z</time></trkpt><trkpt lat="42.2707698" lon="13.6876009"><ele>919.5000000000001</ele><time>2026-05-03T08:51:08.011Z</time></trkpt><trkpt lat="42.2707566" lon="13.687711"><ele>920.0</ele><time>2026-05-03T08:51:09.011Z</time></trkpt><trkpt lat="42.2707405" lon="13.6878247"><ele>920.0000000000001</ele><time>2026-05-03T08:51:10.012Z</time></trkpt><trkpt lat="42.2707266" lon="13.6879327"><ele>920.0</ele><time>2026-05-03T08:51:11.012Z</time></trkpt><trkpt lat="42.270726" lon="13.6880235"><ele>920.0</ele><time>2026-05-03T08:51:12.012Z</time></trkpt><trkpt lat="42.2707605" lon="13.6881527"><ele>920.0</ele><time>2026-05-03T08:51:14.012Z</time></trkpt><trkpt lat="42.2708349" lon="13.688195"><ele>920.0000000000001</ele><time>2026-05-03T08:51:16.012Z</time></trkpt><trkpt lat="42.2709243" lon="13.6881525"><ele>920.0</ele><time>2026-05-03T08:51:18.012Z</time></trkpt><trkpt lat="42.2709765" lon="13.6880451"><ele>920.0</ele><time>2026-05-03T08:51:20.011Z</time></trkpt><trkpt lat="42.2710161" lon="13.6878964"><ele>920.0</ele><time>2026-05-03T08:51:22.011Z</time></trkpt><trkpt lat="42.2710235" lon="13.6877674"><ele>920.0</ele><time>2026-05-03T08:51:24.011Z</time></trkpt><trkpt lat="42.2710505" lon="13.6876144"><ele>920.0</ele><time>2026-05-03T08:51:26.012Z</time></trkpt><trkpt lat="42.2710667" lon="13.6875317"><ele>920.0</ele><time>2026-05-03T08:51:27.012Z</time></trkpt><trkpt lat="42.2710897" lon="13.6874463"><ele>919.5000000000001</ele><time>2026-05-03T08:51:28.011Z</time></trkpt><trkpt lat="42.2711161" lon="13.6873463"><ele>919.0</ele><time>2026-05-03T08:51:29.011Z</time></trkpt><trkpt lat="42.2711472" lon="13.6872342"><ele>918.5</ele><time>2026-05-03T08:51:30.011Z</time></trkpt><trkpt lat="42.2711776" lon="13.6871318"><ele>918.0</ele><time>2026-05-03T08:51:31.012Z</time></trkpt><trkpt lat="42.2712065" lon="13.6870525"><ele>917.5000000000001</ele><time>2026-05-03T08:51:32.011Z</time></trkpt><trkpt lat="42.2712573" lon="13.6869281"><ele>917.0</ele><time>2026-05-03T08:51:34.012Z</time></trkpt><trkpt lat="42.2713318" lon="13.686848"><ele>917.0</ele><time>2026-05-03T08:51:36.011Z</time></trkpt><trkpt lat="42.2714126" lon="13.6868689"><ele>917.0</ele><time>2026-05-03T08:51:38.011Z</time></trkpt><trkpt lat="42.2714552" lon="13.6869559"><ele>917.0</ele><time>2026-05-03T08:51:40.011Z</time></trkpt><trkpt lat="42.2714443" lon="13.6870832"><ele>917.0</ele><time>2026-05-03T08:51:42.012Z</time></trkpt><trkpt lat="42.2714021" lon="13.6872204"><ele>917.0</ele><time>2026-05-03T08:51:44.012Z</time></trkpt><trkpt lat="42.271371" lon="13.6873763"><ele>917.5000000000001</ele><time>2026-05-03T08:51:46.011Z</time></trkpt><trkpt lat="42.2713676" lon="13.6874793"><ele>918.0</ele><time>2026-05-03T08:51:47.012Z</time></trkpt><trkpt lat="42.2713728" lon="13.68759"><ele>918.5</ele><time>2026-05-03T08:51:48.012Z</time></trkpt><trkpt lat="42.2713849" lon="13.6877111"><ele>919.0</ele><time>2026-05-03T08:51:49.012Z</time></trkpt><trkpt lat="42.2714033" lon="13.6878412"><ele>919.5000000000001</ele><time>2026-05-03T08:51:50.012Z</time></trkpt><trkpt lat="42.2714272" lon="13.6879488"><ele>920.0</ele><time>2026-05-03T08:51:51.011Z</time></trkpt><trkpt lat="42.2714652" lon="13.6880479"><ele>923.142857142857</ele><time>2026-05-03T08:51:52.012Z</time></trkpt><trkpt lat="42.2715133" lon="13.6881354"><ele>926.2857142857142</ele><time>2026-05-03T08:51:53.012Z</time></trkpt><trkpt lat="42.2715665" lon="13.6882026"><ele>929.4285714285714</ele><time>2026-05-03T08:51:54.011Z</time></trkpt><trkpt lat="42.271624" lon="13.6882529"><ele>932.5714285714286</ele><time>2026-05-03T08:51:55.012Z</time></trkpt><trkpt lat="42.2716888" lon="13.6882918"><ele>935.7142857142858</ele><time>2026-05-03T08:51:56.011Z</time></trkpt><trkpt lat="42.2717617" lon="13.6883178"><ele>938.857142857143</ele><time>2026-05-03T08:51:57.011Z</time></trkpt><trkpt lat="42.2718389" lon="13.6883453"><ele>942.0000000000001</ele><time>2026-05-03T08:51:58.011Z</time></trkpt><trkpt lat="42.2719141" lon="13.6883791"><ele>942.0</ele><time>2026-05-03T08:51:59.012Z</time></trkpt><trkpt lat="42.271993" lon="13.688416"><ele>942.0</ele><time>2026-05-03T08:52:00.012Z</time></trkpt><trkpt lat="42.2720818" lon="13.6884577"><ele>942.0</ele><time>2026-05-03T08:52:01.012Z</time></trkpt><trkpt lat="42.2721746" lon="13.6885"><ele>942.0</ele><time>2026-05-03T08:52:02.012Z</time></trkpt><trkpt lat="42.2722712" lon="13.6885425"><ele>942.0</ele><time>2026-05-03T08:52:03.011Z</time></trkpt><trkpt lat="42.2723726" lon="13.6885942"><ele>940.8</ele><time>2026-05-03T08:52:04.012Z</time></trkpt><trkpt lat="42.2724668" lon="13.6886493"><ele>939.6</ele><time>2026-05-03T08:52:05.012Z</time></trkpt><trkpt lat="42.2725531" lon="13.6887065"><ele>938.3999999999999</ele><time>2026-05-03T08:52:06.012Z</time></trkpt><trkpt lat="42.2726377" lon="13.6887664"><ele>937.1999999999999</ele><time>2026-05-03T08:52:07.012Z</time></trkpt><trkpt lat="42.2727264" lon="13.6888382"><ele>936.0</ele><time>2026-05-03T08:52:08.011Z</time></trkpt><trkpt lat="42.2728182" lon="13.6889186"><ele>936.0</ele><time>2026-05-03T08:52:09.011Z</time></trkpt><trkpt lat="42.2729099" lon="13.6890016"><ele>935.9999999999999</ele><time>2026-05-03T08:52:10.012Z</time></trkpt><trkpt lat="42.2730035" lon="13.6890912"><ele>935.9999999999999</ele><time>2026-05-03T08:52:11.011Z</time></trkpt><trkpt lat="42.2730927" lon="13.6891864"><ele>936.0</ele><time>2026-05-03T08:52:12.012Z</time></trkpt><trkpt lat="42.2731758" lon="13.6892829"><ele>936.0</ele><time>2026-05-03T08:52:13.012Z</time></trkpt><trkpt lat="42.2732503" lon="13.6893694"><ele>936.1999999999999</ele><time>2026-05-03T08:52:14.011Z</time></trkpt><trkpt lat="42.2733288" lon="13.689437"><ele>936.3999999999999</ele><time>2026-05-03T08:52:15.012Z</time></trkpt><trkpt lat="42.2734146" lon="13.6894857"><ele>936.6</ele><time>2026-05-03T08:52:16.011Z</time></trkpt><trkpt lat="42.2735049" lon="13.6895117"><ele>936.8</ele><time>2026-05-03T08:52:17.011Z</time></trkpt><trkpt lat="42.2736011" lon="13.6895232"><ele>937.0</ele><time>2026-05-03T08:52:18.012Z</time></trkpt><trkpt lat="42.2737072" lon="13.6895112"><ele>937.0</ele><time>2026-05-03T08:52:19.012Z</time></trkpt><trkpt lat="42.2738093" lon="13.6894725"><ele>937.0</ele><time>2026-05-03T08:52:20.011Z</time></trkpt><trkpt lat="42.2739014" lon="13.689411"><ele>937.0</ele><time>2026-05-03T08:52:21.012Z</time></trkpt><trkpt lat="42.273998" lon="13.689333"><ele>937.0</ele><time>2026-05-03T08:52:22.011Z</time></trkpt><trkpt lat="42.274089" lon="13.6892424"><ele>937.0</ele><time>2026-05-03T08:52:23.012Z</time></trkpt><trkpt lat="42.2741795" lon="13.6891565"><ele>941.4000000000001</ele><time>2026-05-03T08:52:24.011Z</time></trkpt><trkpt lat="42.2742682" lon="13.689081"><ele>945.8000000000001</ele><time>2026-05-03T08:52:25.012Z</time></trkpt><trkpt lat="42.2743475" lon="13.6890178"><ele>950.2</ele><time>2026-05-03T08:52:26.012Z</time></trkpt><trkpt lat="42.2744226" lon="13.6889642"><ele>954.6</ele><time>2026-05-03T08:52:27.011Z</time></trkpt><trkpt lat="42.2744977" lon="13.688914"><ele>959.0</ele><time>2026-05-03T08:52:28.011Z</time></trkpt><trkpt lat="42.2745798" lon="13.6888649"><ele>959.0</ele><time>2026-05-03T08:52:29.011Z</time></trkpt><trkpt lat="42.2746627" lon="13.6888198"><ele>959.0000000000001</ele><time>2026-05-03T08:52:30.012Z</time></trkpt><trkpt lat="42.2747543" lon="13.6887748"><ele>959.0000000000001</ele><time>2026-05-03T08:52:31.012Z</time></trkpt><trkpt lat="42.2748504" lon="13.6887249"><ele>959.0</ele><time>2026-05-03T08:52:32.012Z</time></trkpt><trkpt lat="42.2749483" lon="13.688667"><ele>959.0</ele><time>2026-05-03T08:52:33.011Z</time></trkpt><trkpt lat="42.2750491" lon="13.6886111"><ele>961.6</ele><time>2026-05-03T08:52:34.011Z</time></trkpt><trkpt lat="42.2751468" lon="13.6885518"><ele>964.2</ele><time>2026-05-03T08:52:35.011Z</time></trkpt><trkpt lat="42.2752416" lon="13.6884976"><ele>966.8000000000001</ele><time>2026-05-03T08:52:36.011Z</time></trkpt><trkpt lat="42.2753371" lon="13.6884503"><ele>969.4000000000001</ele><time>2026-05-03T08:52:37.011Z</time></trkpt><trkpt lat="42.2754361" lon="13.6884033"><ele>972.0</ele><time>2026-05-03T08:52:38.011Z</time></trkpt><trkpt lat="42.2755433" lon="13.6883546"><ele>969.5</ele><time>2026-05-03T08:52:39.012Z</time></trkpt><trkpt lat="42.2756498" lon="13.6883134"><ele>967.0</ele><time>2026-05-03T08:52:40.012Z</time></trkpt><trkpt lat="42.2757563" lon="13.6882661"><ele>964.5</ele><time>2026-05-03T08:52:41.011Z</time></trkpt><trkpt lat="42.2758608" lon="13.6882048"><ele>962.0</ele><time>2026-05-03T08:52:42.012Z</time></trkpt><trkpt lat="42.2759616" lon="13.6881309"><ele>962.0</ele><time>2026-05-03T08:52:43.012Z</time></trkpt><trkpt lat="42.2760647" lon="13.6880517"><ele>962.0</ele><time>2026-05-03T08:52:44.011Z</time></trkpt><trkpt lat="42.2761674" lon="13.6879731"><ele>962.0</ele><time>2026-05-03T08:52:45.012Z</time></trkpt><trkpt lat="42.2762745" lon="13.6878946"><ele>962.0</ele><time>2026-05-03T08:52:46.012Z</time></trkpt><trkpt lat="42.2763813" lon="13.6878073"><ele>963.75</ele><time>2026-05-03T08:52:47.012Z</time></trkpt><trkpt lat="42.2764932" lon="13.6877235"><ele>965.5</ele><time>2026-05-03T08:52:48.011Z</time></trkpt><trkpt lat="42.2766033" lon="13.6876395"><ele>967.25</ele><time>2026-05-03T08:52:49.011Z</time></trkpt><trkpt lat="42.2767154" lon="13.687559"><ele>969.0</ele><time>2026-05-03T08:52:50.012Z</time></trkpt><trkpt lat="42.2768257" lon="13.6874817"><ele>969.0</ele><time>2026-05-03T08:52:51.012Z</time></trkpt><trkpt lat="42.2769368" lon="13.6874103"><ele>969.0</ele><time>2026-05-03T08:52:52.011Z</time></trkpt><trkpt lat="42.2770535" lon="13.6873389"><ele>969.0</ele><time>2026-05-03T08:52:53.012Z</time></trkpt><trkpt lat="42.2771695" lon="13.6872683"><ele>969.0</ele><time>2026-05-03T08:52:54.011Z</time></trkpt><trkpt lat="42.2772768" lon="13.6871959"><ele>968.1666666666666</ele><time>2026-05-03T08:52:55.011Z</time></trkpt><trkpt lat="42.2773741" lon="13.6871242"><ele>967.3333333333333</ele><time>2026-05-03T08:52:56.012Z</time></trkpt><trkpt lat="42.2774547" lon="13.6870474"><ele>966.5</ele><time>2026-05-03T08:52:57.012Z</time></trkpt><trkpt lat="42.2775169" lon="13.6869764"><ele>965.6666666666666</ele><time>2026-05-03T08:52:58.011Z</time></trkpt><trkpt lat="42.2775713" lon="13.6869215"><ele>964.8333333333333</ele><time>2026-05-03T08:52:59.011Z</time></trkpt><trkpt lat="42.2776435" lon="13.6868823"><ele>964.0</ele><time>2026-05-03T08:53:01.011Z</time></trkpt><trkpt lat="42.2777024" lon="13.6869818"><ele>964.0</ele><time>2026-05-03T08:53:04.011Z</time></trkpt><trkpt lat="42.2777019" lon="13.6871033"><ele>964.0000000000001</ele><time>2026-05-03T08:53:06.012Z</time></trkpt><trkpt lat="42.2777388" lon="13.6872508"><ele>964.0000000000001</ele><time>2026-05-03T08:53:08.011Z</time></trkpt><trkpt lat="42.2777446" lon="13.6873766"><ele>964.0</ele><time>2026-05-03T08:53:10.012Z</time></trkpt><trkpt lat="42.277681" lon="13.6874849"><ele>964.0</ele><time>2026-05-03T08:53:12.011Z</time></trkpt><trkpt lat="42.2776382" lon="13.6876486"><ele>964.0</ele><time>2026-05-03T08:53:14.011Z</time></trkpt><trkpt lat="42.2776136" lon="13.6877389"><ele>964.0000000000001</ele><time>2026-05-03T08:53:15.012Z</time></trkpt><trkpt lat="42.2775873" lon="13.6878259"><ele>964.0</ele><time>2026-05-03T08:53:16.012Z</time></trkpt><trkpt lat="42.2775606" lon="13.6879088"><ele>964.0</ele><time>2026-05-03T08:53:17.011Z</time></trkpt><trkpt lat="42.2775194" lon="13.6879744"><ele>964.0000000000001</ele><time>2026-05-03T08:53:18.011Z</time></trkpt><trkpt lat="42.2774686" lon="13.6880388"><ele>964.0</ele><time>2026-05-03T08:53:19.012Z</time></trkpt><trkpt lat="42.27743" lon="13.6881225"><ele>964.0</ele><time>2026-05-03T08:53:20.011Z</time></trkpt><trkpt lat="42.277396" lon="13.6882018"><ele>963.0</ele><time>2026-05-03T08:53:21.012Z</time></trkpt><trkpt lat="42.2774104" lon="13.6883044"><ele>962.0000000000001</ele><time>2026-05-03T08:53:23.011Z</time></trkpt><trkpt lat="42.277502" lon="13.688361"><ele>961.0000000000001</ele><time>2026-05-03T08:53:25.011Z</time></trkpt><trkpt lat="42.2775674" lon="13.6883804"><ele>960.0</ele><time>2026-05-03T08:53:26.011Z</time></trkpt><trkpt lat="42.2776869" lon="13.6883851"><ele>959.0</ele><time>2026-05-03T08:53:28.011Z</time></trkpt><trkpt lat="42.2778055" lon="13.6884515"><ele>959.0000000000001</ele><time>2026-05-03T08:53:30.012Z</time></trkpt><trkpt lat="42.2778871" lon="13.6884904"><ele>959.0</ele><time>2026-05-03T08:53:31.011Z</time></trkpt><trkpt lat="42.2779708" lon="13.6885241"><ele>959.0</ele><time>2026-05-03T08:53:32.011Z</time></trkpt><trkpt lat="42.2780449" lon="13.6885605"><ele>959.0</ele><time>2026-05-03T08:53:33.011Z</time></trkpt><trkpt lat="42.27812" lon="13.6885711"><ele>959.0000000000001</ele><time>2026-05-03T08:53:34.011Z</time></trkpt><trkpt lat="42.2782012" lon="13.6885929"><ele>959.0</ele><time>2026-05-03T08:53:35.011Z</time></trkpt><trkpt lat="42.2782787" lon="13.688636"><ele>958.3333333333334</ele><time>2026-05-03T08:53:36.012Z</time></trkpt><trkpt lat="42.2783454" lon="13.6886871"><ele>957.6666666666667</ele><time>2026-05-03T08:53:37.012Z</time></trkpt><trkpt lat="42.2784142" lon="13.6887418"><ele>957.0</ele><time>2026-05-03T08:53:38.012Z</time></trkpt><trkpt lat="42.2784791" lon="13.6888049"><ele>956.3333333333333</ele><time>2026-05-03T08:53:39.011Z</time></trkpt><trkpt lat="42.278542" lon="13.6888876"><ele>955.6666666666666</ele><time>2026-05-03T08:53:40.012Z</time></trkpt><trkpt lat="42.2786052" lon="13.6889793"><ele>955.0</ele><time>2026-05-03T08:53:41.012Z</time></trkpt><trkpt lat="42.2786667" lon="13.6890669"><ele>954.9999999999999</ele><time>2026-05-03T08:53:42.012Z</time></trkpt><trkpt lat="42.2787279" lon="13.689151"><ele>955.0</ele><time>2026-05-03T08:53:43.012Z</time></trkpt><trkpt lat="42.2787888" lon="13.6892335"><ele>955.0</ele><time>2026-05-03T08:53:44.012Z</time></trkpt><trkpt lat="42.2788524" lon="13.6893165"><ele>955.0</ele><time>2026-05-03T08:53:45.012Z</time></trkpt><trkpt lat="42.2789193" lon="13.6893956"><ele>954.9999999999999</ele><time>2026-05-03T08:53:46.011Z</time></trkpt><trkpt lat="42.2789895" lon="13.6894764"><ele>955.0</ele><time>2026-05-03T08:53:47.011Z</time></trkpt><trkpt lat="42.2790506" lon="13.6895636"><ele>955.6666666666666</ele><time>2026-05-03T08:53:48.012Z</time></trkpt><trkpt lat="42.2791113" lon="13.6896473"><ele>956.3333333333333</ele><time>2026-05-03T08:53:49.011Z</time></trkpt><trkpt lat="42.2791727" lon="13.6897236"><ele>957.0</ele><time>2026-05-03T08:53:50.012Z</time></trkpt><trkpt lat="42.2792456" lon="13.6897736"><ele>957.6666666666667</ele><time>2026-05-03T08:53:51.011Z</time></trkpt><trkpt lat="42.2793198" lon="13.689793"><ele>958.3333333333334</ele><time>2026-05-03T08:53:52.012Z</time></trkpt><trkpt lat="42.2793988" lon="13.6898086"><ele>959.0</ele><time>2026-05-03T08:53:53.011Z</time></trkpt><trkpt lat="42.2794744" lon="13.689822"><ele>959.0</ele><time>2026-05-03T08:53:54.012Z</time></trkpt><trkpt lat="42.279539" lon="13.6898442"><ele>959.0</ele><time>2026-05-03T08:53:55.011Z</time></trkpt><trkpt lat="42.2795927" lon="13.6898938"><ele>959.0</ele><time>2026-05-03T08:53:56.011Z</time></trkpt><trkpt lat="42.2796418" lon="13.6899739"><ele>959.0</ele><time>2026-05-03T08:53:57.012Z</time></trkpt><trkpt lat="42.2796881" lon="13.690059"><ele>959.0</ele><time>2026-05-03T08:53:58.012Z</time></trkpt><trkpt lat="42.2797353" lon="13.6901332"><ele>959.0</ele><time>2026-05-03T08:53:59.011Z</time></trkpt><trkpt lat="42.2797945" lon="13.690179"><ele>959.0</ele><time>2026-05-03T08:54:00.011Z</time></trkpt><trkpt lat="42.2798612" lon="13.6902176"><ele>959.5000000000001</ele><time>2026-05-03T08:54:01.011Z</time></trkpt><trkpt lat="42.2799218" lon="13.6902505"><ele>960.0</ele><time>2026-05-03T08:54:02.012Z</time></trkpt><trkpt lat="42.2799873" lon="13.6902712"><ele>960.5</ele><time>2026-05-03T08:54:03.011Z</time></trkpt><trkpt lat="42.2800617" lon="13.6902847"><ele>961.0</ele><time>2026-05-03T08:54:04.012Z</time></trkpt><trkpt lat="42.2801501" lon="13.6902989"><ele>961.5000000000001</ele><time>2026-05-03T08:54:05.011Z</time></trkpt><trkpt lat="42.2802321" lon="13.6903096"><ele>962.0</ele><time>2026-05-03T08:54:06.012Z</time></trkpt><trkpt lat="42.2803062" lon="13.6903296"><ele>962.0000000000001</ele><time>2026-05-03T08:54:07.012Z</time></trkpt><trkpt lat="42.2803715" lon="13.6903821"><ele>962.0</ele><time>2026-05-03T08:54:08.011Z</time></trkpt><trkpt lat="42.2804293" lon="13.6904679"><ele>962.0</ele><time>2026-05-03T08:54:09.012Z</time></trkpt><trkpt lat="42.2804782" lon="13.6905716"><ele>962.0</ele><time>2026-05-03T08:54:10.012Z</time></trkpt><trkpt lat="42.2805118" lon="13.6906901"><ele>962.0000000000001</ele><time>2026-05-03T08:54:11.011Z</time></trkpt><trkpt lat="42.2805361" lon="13.690818"><ele>962.0</ele><time>2026-05-03T08:54:12.012Z</time></trkpt><trkpt lat="42.2805457" lon="13.6909508"><ele>962.0</ele><time>2026-05-03T08:54:13.012Z</time></trkpt><trkpt lat="42.2805438" lon="13.6910803"><ele>962.0</ele><time>2026-05-03T08:54:14.011Z</time></trkpt><trkpt lat="42.280531" lon="13.6912126"><ele>962.0</ele><time>2026-05-03T08:54:15.012Z</time></trkpt><trkpt lat="42.2805182" lon="13.6913354"><ele>962.0</ele><time>2026-05-03T08:54:16.012Z</time></trkpt><trkpt lat="42.2804989" lon="13.6914601"><ele>962.0</ele><time>2026-05-03T08:54:17.012Z</time></trkpt><trkpt lat="42.2804699" lon="13.6915734"><ele>962.6</ele><time>2026-05-03T08:54:18.011Z</time></trkpt><trkpt lat="42.2804296" lon="13.6916891"><ele>963.2</ele><time>2026-05-03T08:54:19.012Z</time></trkpt><trkpt lat="42.2803819" lon="13.6918175"><ele>963.8</ele><time>2026-05-03T08:54:20.011Z</time></trkpt><trkpt lat="42.2803372" lon="13.6919499"><ele>964.4</ele><time>2026-05-03T08:54:21.011Z</time></trkpt><trkpt lat="42.2802952" lon="13.6920901"><ele>965.0</ele><time>2026-05-03T08:54:22.012Z</time></trkpt><trkpt lat="42.2802479" lon="13.6922278"><ele>967.6</ele><time>2026-05-03T08:54:23.012Z</time></trkpt><trkpt lat="42.2802033" lon="13.6923557"><ele>970.2</ele><time>2026-05-03T08:54:24.012Z</time></trkpt><trkpt lat="42.2801593" lon="13.6924814"><ele>972.8</ele><time>2026-05-03T08:54:25.012Z</time></trkpt><trkpt lat="42.2801092" lon="13.6926007"><ele>975.4</ele><time>2026-05-03T08:54:26.011Z</time></trkpt><trkpt lat="42.2800689" lon="13.6927094"><ele>978.0</ele><time>2026-05-03T08:54:27.011Z</time></trkpt><trkpt lat="42.2800368" lon="13.6928053"><ele>979.0</ele><time>2026-05-03T08:54:28.011Z</time></trkpt><trkpt lat="42.2800052" lon="13.6929446"><ele>980.0</ele><time>2026-05-03T08:54:30.011Z</time></trkpt><trkpt lat="42.2800093" lon="13.6930349"><ele>981.0</ele><time>2026-05-03T08:54:31.012Z</time></trkpt><trkpt lat="42.2800205" lon="13.6931269"><ele>982.0</ele><time>2026-05-03T08:54:32.012Z</time></trkpt><trkpt lat="42.2800298" lon="13.6932242"><ele>983.0</ele><time>2026-05-03T08:54:33.011Z</time></trkpt><trkpt lat="42.2800417" lon="13.6933414"><ele>984.0</ele><time>2026-05-03T08:54:34.012Z</time></trkpt><trkpt lat="42.2800508" lon="13.693472"><ele>983.6</ele><time>2026-05-03T08:54:35.012Z</time></trkpt><trkpt lat="42.2800568" lon="13.6936005"><ele>983.2</ele><time>2026-05-03T08:54:36.012Z</time></trkpt><trkpt lat="42.2800575" lon="13.69373"><ele>982.8000000000001</ele><time>2026-05-03T08:54:37.012Z</time></trkpt><trkpt lat="42.2800573" lon="13.693851"><ele>982.4000000000001</ele><time>2026-05-03T08:54:38.012Z</time></trkpt><trkpt lat="42.2800571" lon="13.6939702"><ele>982.0</ele><time>2026-05-03T08:54:39.011Z</time></trkpt><trkpt lat="42.2800566" lon="13.6940838"><ele>981.9999999999999</ele><time>2026-05-03T08:54:40.012Z</time></trkpt><trkpt lat="42.2800505" lon="13.6941952"><ele>982.0</ele><time>2026-05-03T08:54:41.011Z</time></trkpt><trkpt lat="42.28004" lon="13.6942997"><ele>982.0</ele><time>2026-05-03T08:54:42.011Z</time></trkpt><trkpt lat="42.2800363" lon="13.6944042"><ele>982.0</ele><time>2026-05-03T08:54:43.012Z</time></trkpt><trkpt lat="42.2800369" lon="13.6945074"><ele>981.9999999999999</ele><time>2026-05-03T08:54:44.011Z</time></trkpt><trkpt lat="42.2800352" lon="13.6946141"><ele>982.0</ele><time>2026-05-03T08:54:45.011Z</time></trkpt><trkpt lat="42.280022" lon="13.6947141"><ele>981.1666666666666</ele><time>2026-05-03T08:54:46.011Z</time></trkpt><trkpt lat="42.2799934" lon="13.6948162"><ele>980.3333333333333</ele><time>2026-05-03T08:54:47.011Z</time></trkpt><trkpt lat="42.279977" lon="13.6949129"><ele>979.5</ele><time>2026-05-03T08:54:48.012Z</time></trkpt><trkpt lat="42.2799742" lon="13.6950136"><ele>978.6666666666667</ele><time>2026-05-03T08:54:49.012Z</time></trkpt><trkpt lat="42.2799801" lon="13.6951176"><ele>977.8333333333334</ele><time>2026-05-03T08:54:50.011Z</time></trkpt><trkpt lat="42.2800043" lon="13.6952262"><ele>977.0</ele><time>2026-05-03T08:54:51.012Z</time></trkpt><trkpt lat="42.2800371" lon="13.6953239"><ele>975.8333333333334</ele><time>2026-05-03T08:54:52.011Z</time></trkpt><trkpt lat="42.2800694" lon="13.695425"><ele>974.6666666666667</ele><time>2026-05-03T08:54:53.011Z</time></trkpt><trkpt lat="42.2801394" lon="13.6955292"><ele>973.5</ele><time>2026-05-03T08:54:55.012Z</time></trkpt><trkpt lat="42.2802371" lon="13.6956"><ele>972.3333333333333</ele><time>2026-05-03T08:54:57.012Z</time></trkpt><trkpt lat="42.2802938" lon="13.6956478"><ele>971.1666666666666</ele><time>2026-05-03T08:54:58.012Z</time></trkpt><trkpt lat="42.2803466" lon="13.6956958"><ele>970.0</ele><time>2026-05-03T08:54:59.011Z</time></trkpt><trkpt lat="42.2804354" lon="13.6957875"><ele>969.9999999999999</ele><time>2026-05-03T08:55:01.012Z</time></trkpt><trkpt lat="42.280488" lon="13.6958393"><ele>970.0</ele><time>2026-05-03T08:55:02.011Z</time></trkpt><trkpt lat="42.2805467" lon="13.6958871"><ele>970.0</ele><time>2026-05-03T08:55:03.012Z</time></trkpt><trkpt lat="42.2806014" lon="13.6959302"><ele>970.0</ele><time>2026-05-03T08:55:04.011Z</time></trkpt><trkpt lat="42.2807273" lon="13.6959586"><ele>969.9999999999999</ele><time>2026-05-03T08:55:06.012Z</time></trkpt><trkpt lat="42.280798" lon="13.695945"><ele>970.0</ele><time>2026-05-03T08:55:07.011Z</time></trkpt><trkpt lat="42.2808682" lon="13.6959281"><ele>972.6666666666666</ele><time>2026-05-03T08:55:08.012Z</time></trkpt><trkpt lat="42.2809406" lon="13.69591"><ele>975.3333333333333</ele><time>2026-05-03T08:55:09.012Z</time></trkpt><trkpt lat="42.2810182" lon="13.6958781"><ele>978.0</ele><time>2026-05-03T08:55:10.012Z</time></trkpt><trkpt lat="42.2810936" lon="13.6958365"><ele>980.6666666666667</ele><time>2026-05-03T08:55:11.011Z</time></trkpt><trkpt lat="42.2811714" lon="13.6957891"><ele>983.3333333333334</ele><time>2026-05-03T08:55:12.012Z</time></trkpt><trkpt lat="42.281245" lon="13.6957534"><ele>986.0</ele><time>2026-05-03T08:55:13.011Z</time></trkpt><trkpt lat="42.2813347" lon="13.6957364"><ele>986.0000000000001</ele><time>2026-05-03T08:55:15.011Z</time></trkpt><trkpt lat="42.2813812" lon="13.6958249"><ele>986.0</ele><time>2026-05-03T08:55:31.012Z</time></trkpt><trkpt lat="42.2814314" lon="13.6959771"><ele>986.0</ele><time>2026-05-03T08:55:33.012Z</time></trkpt><trkpt lat="42.2814712" lon="13.696062"><ele>986.0</ele><time>2026-05-03T08:55:34.012Z</time></trkpt><trkpt lat="42.2815144" lon="13.6961574"><ele>986.0000000000001</ele><time>2026-05-03T08:55:35.012Z</time></trkpt><trkpt lat="42.2815575" lon="13.6962579"><ele>986.0</ele><time>2026-05-03T08:55:36.012Z</time></trkpt><trkpt lat="42.2816007" lon="13.696348"><ele>986.6666666666667</ele><time>2026-05-03T08:55:37.011Z</time></trkpt><trkpt lat="42.2816513" lon="13.6964305"><ele>987.3333333333334</ele><time>2026-05-03T08:55:38.011Z</time></trkpt><trkpt lat="42.2817123" lon="13.6964956"><ele>988.0</ele><time>2026-05-03T08:55:39.012Z</time></trkpt><trkpt lat="42.281777" lon="13.6965612"><ele>988.6666666666667</ele><time>2026-05-03T08:55:40.011Z</time></trkpt><trkpt lat="42.281837" lon="13.6966282"><ele>989.3333333333334</ele><time>2026-05-03T08:55:41.011Z</time></trkpt><trkpt lat="42.2818949" lon="13.696701"><ele>990.0</ele><time>2026-05-03T08:55:42.012Z</time></trkpt><trkpt lat="42.2819427" lon="13.6967763"><ele>990.0</ele><time>2026-05-03T08:55:43.012Z</time></trkpt><trkpt lat="42.2819826" lon="13.6968472"><ele>990.0</ele><time>2026-05-03T08:55:44.012Z</time></trkpt><trkpt lat="42.2820653" lon="13.6969238"><ele>990.0</ele><time>2026-05-03T08:55:46.012Z</time></trkpt><trkpt lat="42.2821309" lon="13.6968209"><ele>990.0</ele><time>2026-05-03T08:55:48.012Z</time></trkpt><trkpt lat="42.2820979" lon="13.6966771"><ele>990.0</ele><time>2026-05-03T08:55:50.012Z</time></trkpt><trkpt lat="42.2820328" lon="13.6965423"><ele>990.0</ele><time>2026-05-03T08:55:52.011Z</time></trkpt><trkpt lat="42.2820423" lon="13.696406"><ele>990.0</ele><time>2026-05-03T08:55:54.011Z</time></trkpt><trkpt lat="42.2821276" lon="13.6962928"><ele>990.0</ele><time>2026-05-03T08:55:56.011Z</time></trkpt><trkpt lat="42.2821724" lon="13.6962286"><ele>990.0</ele><time>2026-05-03T08:55:57.012Z</time></trkpt><trkpt lat="42.2822126" lon="13.6961536"><ele>990.0</ele><time>2026-05-03T08:55:58.011Z</time></trkpt><trkpt lat="42.2822412" lon="13.6960706"><ele>990.0</ele><time>2026-05-03T08:55:59.011Z</time></trkpt><trkpt lat="42.282263" lon="13.6959823"><ele>986.8571428571427</ele><time>2026-05-03T08:56:00.012Z</time></trkpt><trkpt lat="42.2822737" lon="13.695891"><ele>983.7142857142857</ele><time>2026-05-03T08:56:01.012Z</time></trkpt><trkpt lat="42.2822802" lon="13.6957989"><ele>980.5714285714284</ele><time>2026-05-03T08:56:02.011Z</time></trkpt><trkpt lat="42.2822866" lon="13.6957114"><ele>977.4285714285713</ele><time>2026-05-03T08:56:03.011Z</time></trkpt><trkpt lat="42.2822941" lon="13.6956222"><ele>974.2857142857142</ele><time>2026-05-03T08:56:04.011Z</time></trkpt><trkpt lat="42.2822997" lon="13.6955254"><ele>971.1428571428571</ele><time>2026-05-03T08:56:05.012Z</time></trkpt><trkpt lat="42.2823058" lon="13.6954268"><ele>968.0</ele><time>2026-05-03T08:56:06.012Z</time></trkpt><trkpt lat="42.282311" lon="13.6953315"><ele>967.5000000000001</ele><time>2026-05-03T08:56:07.011Z</time></trkpt><trkpt lat="42.2823162" lon="13.6952381"><ele>967.0</ele><time>2026-05-03T08:56:08.012Z</time></trkpt><trkpt lat="42.2823244" lon="13.6951488"><ele>966.5</ele><time>2026-05-03T08:56:09.011Z</time></trkpt><trkpt lat="42.2823315" lon="13.6950642"><ele>966.0</ele><time>2026-05-03T08:56:10.011Z</time></trkpt><trkpt lat="42.2823298" lon="13.694891"><ele>965.5000000000001</ele><time>2026-05-03T08:56:12.011Z</time></trkpt><trkpt lat="42.2823256" lon="13.6947992"><ele>965.0</ele><time>2026-05-03T08:56:13.011Z</time></trkpt><trkpt lat="42.2823188" lon="13.6947069"><ele>965.0</ele><time>2026-05-03T08:56:14.012Z</time></trkpt><trkpt lat="42.2823058" lon="13.6946189"><ele>965.0</ele><time>2026-05-03T08:56:15.012Z</time></trkpt><trkpt lat="42.2822912" lon="13.6945279"><ele>965.0</ele><time>2026-05-03T08:56:16.011Z</time></trkpt><trkpt lat="42.2822733" lon="13.694439"><ele>965.0</ele><time>2026-05-03T08:56:17.012Z</time></trkpt><trkpt lat="42.2822531" lon="13.6943518"><ele>965.0</ele><time>2026-05-03T08:56:18.012Z</time></trkpt><trkpt lat="42.2822353" lon="13.6942644"><ele>965.0</ele><time>2026-05-03T08:56:19.011Z</time></trkpt><trkpt lat="42.2822213" lon="13.6941742"><ele>965.0</ele><time>2026-05-03T08:56:20.011Z</time></trkpt><trkpt lat="42.2822136" lon="13.6940818"><ele>963.6666666666667</ele><time>2026-05-03T08:56:21.011Z</time></trkpt><trkpt lat="42.2822173" lon="13.693985"><ele>962.3333333333334</ele><time>2026-05-03T08:56:22.012Z</time></trkpt><trkpt lat="42.2822325" lon="13.6938871"><ele>961.0</ele><time>2026-05-03T08:56:23.012Z</time></trkpt><trkpt lat="42.2822572" lon="13.6937964"><ele>959.6666666666667</ele><time>2026-05-03T08:56:24.011Z</time></trkpt><trkpt lat="42.2822845" lon="13.6937157"><ele>958.3333333333334</ele><time>2026-05-03T08:56:25.012Z</time></trkpt><trkpt lat="42.2823116" lon="13.6936367"><ele>957.0</ele><time>2026-05-03T08:56:26.011Z</time></trkpt><trkpt lat="42.2823339" lon="13.6934661"><ele>956.2857142857143</ele><time>2026-05-03T08:56:28.012Z</time></trkpt><trkpt lat="42.2823399" lon="13.6933781"><ele>955.5714285714287</ele><time>2026-05-03T08:56:29.012Z</time></trkpt><trkpt lat="42.282349" lon="13.6932856"><ele>954.8571428571429</ele><time>2026-05-03T08:56:30.012Z</time></trkpt><trkpt lat="42.2823602" lon="13.6931879"><ele>954.1428571428571</ele><time>2026-05-03T08:56:31.011Z</time></trkpt><trkpt lat="42.2823712" lon="13.6930847"><ele>953.4285714285714</ele><time>2026-05-03T08:56:32.012Z</time></trkpt><trkpt lat="42.2823855" lon="13.6929871"><ele>952.7142857142858</ele><time>2026-05-03T08:56:33.012Z</time></trkpt><trkpt lat="42.2824096" lon="13.6928937"><ele>952.0</ele><time>2026-05-03T08:56:34.012Z</time></trkpt><trkpt lat="42.2824417" lon="13.6927984"><ele>952.9999999999999</ele><time>2026-05-03T08:56:35.012Z</time></trkpt><trkpt lat="42.2824754" lon="13.6926992"><ele>954.0</ele><time>2026-05-03T08:56:36.012Z</time></trkpt><trkpt lat="42.2825103" lon="13.6926047"><ele>955.0</ele><time>2026-05-03T08:56:37.012Z</time></trkpt><trkpt lat="42.2825426" lon="13.692512"><ele>956.0</ele><time>2026-05-03T08:56:38.012Z</time></trkpt><trkpt lat="42.2825796" lon="13.6924224"><ele>956.9999999999999</ele><time>2026-05-03T08:56:39.012Z</time></trkpt><trkpt lat="42.2826164" lon="13.6923323"><ele>958.0</ele><time>2026-05-03T08:56:40.012Z</time></trkpt><trkpt lat="42.2826594" lon="13.6922403"><ele>957.9999999999999</ele><time>2026-05-03T08:56:41.011Z</time></trkpt><trkpt lat="42.2827108" lon="13.6921518"><ele>958.0</ele><time>2026-05-03T08:56:42.012Z</time></trkpt><trkpt lat="42.2827639" lon="13.6920659"><ele>958.0</ele><time>2026-05-03T08:56:43.011Z</time></trkpt><trkpt lat="42.2828165" lon="13.6919806"><ele>958.0</ele><time>2026-05-03T08:56:44.012Z</time></trkpt><trkpt lat="42.282868" lon="13.6918971"><ele>957.9999999999999</ele><time>2026-05-03T08:56:45.012Z</time></trkpt><trkpt lat="42.2829153" lon="13.6918154"><ele>958.0</ele><time>2026-05-03T08:56:46.012Z</time></trkpt><trkpt lat="42.2829609" lon="13.6917376"><ele>960.6666666666666</ele><time>2026-05-03T08:56:47.011Z</time></trkpt><trkpt lat="42.2830115" lon="13.6916705"><ele>963.3333333333333</ele><time>2026-05-03T08:56:48.011Z</time></trkpt><trkpt lat="42.2830708" lon="13.6916114"><ele>966.0</ele><time>2026-05-03T08:56:49.012Z</time></trkpt><trkpt lat="42.2831358" lon="13.6915563"><ele>968.6666666666667</ele><time>2026-05-03T08:56:50.011Z</time></trkpt><trkpt lat="42.2832091" lon="13.6915087"><ele>971.3333333333334</ele><time>2026-05-03T08:56:51.011Z</time></trkpt><trkpt lat="42.283282" lon="13.6914544"><ele>974.0</ele><time>2026-05-03T08:56:52.012Z</time></trkpt><trkpt lat="42.2833561" lon="13.6913991"><ele>972.1666666666667</ele><time>2026-05-03T08:56:53.011Z</time></trkpt><trkpt lat="42.2834314" lon="13.6913416"><ele>970.3333333333334</ele><time>2026-05-03T08:56:54.012Z</time></trkpt><trkpt lat="42.2835083" lon="13.6912892"><ele>968.5</ele><time>2026-05-03T08:56:55.012Z</time></trkpt><trkpt lat="42.2835893" lon="13.691229"><ele>966.6666666666667</ele><time>2026-05-03T08:56:56.011Z</time></trkpt><trkpt lat="42.2836684" lon="13.6911764"><ele>964.8333333333334</ele><time>2026-05-03T08:56:57.012Z</time></trkpt><trkpt lat="42.2837504" lon="13.6911267"><ele>963.0</ele><time>2026-05-03T08:56:58.011Z</time></trkpt><trkpt lat="42.2838284" lon="13.6910728"><ele>963.0</ele><time>2026-05-03T08:56:59.012Z</time></trkpt><trkpt lat="42.2839094" lon="13.6910164"><ele>963.0</ele><time>2026-05-03T08:57:00.011Z</time></trkpt><trkpt lat="42.2839916" lon="13.6909661"><ele>963.0</ele><time>2026-05-03T08:57:01.012Z</time></trkpt><trkpt lat="42.2840686" lon="13.6909187"><ele>963.0</ele><time>2026-05-03T08:57:02.012Z</time></trkpt><trkpt lat="42.2841384" lon="13.6908914"><ele>963.0</ele><time>2026-05-03T08:57:03.011Z</time></trkpt><trkpt lat="42.2842037" lon="13.6908923"><ele>963.0</ele><time>2026-05-03T08:57:04.012Z</time></trkpt><trkpt lat="42.2842721" lon="13.6909121"><ele>960.1428571428573</ele><time>2026-05-03T08:57:05.012Z</time></trkpt><trkpt lat="42.2843431" lon="13.690944"><ele>957.2857142857143</ele><time>2026-05-03T08:57:06.011Z</time></trkpt><trkpt lat="42.2844123" lon="13.6909803"><ele>954.4285714285716</ele><time>2026-05-03T08:57:07.012Z</time></trkpt><trkpt lat="42.2844746" lon="13.6910104"><ele>951.5714285714287</ele><time>2026-05-03T08:57:08.011Z</time></trkpt><trkpt lat="42.2845457" lon="13.6910374"><ele>948.7142857142858</ele><time>2026-05-03T08:57:09.012Z</time></trkpt><trkpt lat="42.2846232" lon="13.6910644"><ele>945.8571428571429</ele><time>2026-05-03T08:57:10.012Z</time></trkpt><trkpt lat="42.28469" lon="13.6910884"><ele>943.0</ele><time>2026-05-03T08:57:11.011Z</time></trkpt><trkpt lat="42.2847564" lon="13.6911127"><ele>937.3333333333333</ele><time>2026-05-03T08:57:12.011Z</time></trkpt><trkpt lat="42.2848241" lon="13.6911362"><ele>931.6666666666666</ele><time>2026-05-03T08:57:13.012Z</time></trkpt><trkpt lat="42.2848995" lon="13.691165"><ele>926.0</ele><time>2026-05-03T08:57:14.011Z</time></trkpt><trkpt lat="42.2849842" lon="13.6911897"><ele>920.3333333333333</ele><time>2026-05-03T08:57:15.012Z</time></trkpt><trkpt lat="42.2850688" lon="13.6912192"><ele>914.6666666666666</ele><time>2026-05-03T08:57:16.012Z</time></trkpt><trkpt lat="42.2851571" lon="13.6912398"><ele>909.0</ele><time>2026-05-03T08:57:17.011Z</time></trkpt><trkpt lat="42.2852443" lon="13.6912542"><ele>909.0</ele><time>2026-05-03T08:57:18.011Z</time></trkpt><trkpt lat="42.2853251" lon="13.6912696"><ele>909.0</ele><time>2026-05-03T08:57:19.011Z</time></trkpt><trkpt lat="42.2854021" lon="13.6912788"><ele>909.0</ele><time>2026-05-03T08:57:20.012Z</time></trkpt><trkpt lat="42.2854785" lon="13.69128"><ele>909.0</ele><time>2026-05-03T08:57:21.012Z</time></trkpt><trkpt lat="42.2855436" lon="13.6912786"><ele>909.0</ele><time>2026-05-03T08:57:22.012Z</time></trkpt><trkpt lat="42.2856125" lon="13.6912725"><ele>909.0</ele><time>2026-05-03T08:57:23.011Z</time></trkpt><trkpt lat="42.2856795" lon="13.6912617"><ele>909.0</ele><time>2026-05-03T08:57:24.012Z</time></trkpt><trkpt lat="42.2857518" lon="13.6912387"><ele>909.3333333333334</ele><time>2026-05-03T08:57:25.011Z</time></trkpt><trkpt lat="42.2858292" lon="13.6912224"><ele>909.6666666666667</ele><time>2026-05-03T08:57:26.011Z</time></trkpt><trkpt lat="42.2859095" lon="13.6912082"><ele>910.0</ele><time>2026-05-03T08:57:27.011Z</time></trkpt><trkpt lat="42.2859819" lon="13.6911918"><ele>910.3333333333334</ele><time>2026-05-03T08:57:28.012Z</time></trkpt><trkpt lat="42.2860594" lon="13.6911769"><ele>910.6666666666667</ele><time>2026-05-03T08:57:29.012Z</time></trkpt><trkpt lat="42.2861275" lon="13.6911544"><ele>911.0</ele><time>2026-05-03T08:57:30.012Z</time></trkpt><trkpt lat="42.2861985" lon="13.6911346"><ele>911.0000000000001</ele><time>2026-05-03T08:57:31.011Z</time></trkpt><trkpt lat="42.2862716" lon="13.6911169"><ele>911.0</ele><time>2026-05-03T08:57:32.012Z</time></trkpt><trkpt lat="42.2863446" lon="13.6910975"><ele>911.0</ele><time>2026-05-03T08:57:33.011Z</time></trkpt><trkpt lat="42.2864176" lon="13.6910799"><ele>911.0</ele><time>2026-05-03T08:57:34.012Z</time></trkpt><trkpt lat="42.2864955" lon="13.6910657"><ele>911.0000000000001</ele><time>2026-05-03T08:57:35.011Z</time></trkpt><trkpt lat="42.2865756" lon="13.6910477"><ele>911.0</ele><time>2026-05-03T08:57:36.012Z</time></trkpt><trkpt lat="42.2866556" lon="13.6910296"><ele>915.6666666666667</ele><time>2026-05-03T08:57:37.011Z</time></trkpt><trkpt lat="42.2867285" lon="13.6910121"><ele>920.3333333333334</ele><time>2026-05-03T08:57:38.012Z</time></trkpt><trkpt lat="42.2867966" lon="13.6909901"><ele>925.0</ele><time>2026-05-03T08:57:39.011Z</time></trkpt><trkpt lat="42.2868612" lon="13.6909664"><ele>929.6666666666667</ele><time>2026-05-03T08:57:40.012Z</time></trkpt><trkpt lat="42.2869781" lon="13.6909301"><ele>934.3333333333334</ele><time>2026-05-03T08:57:42.012Z</time></trkpt><trkpt lat="42.2870411" lon="13.6909053"><ele>939.0</ele><time>2026-05-03T08:57:43.012Z</time></trkpt><trkpt lat="42.2871079" lon="13.6908743"><ele>939.0</ele><time>2026-05-03T08:57:44.012Z</time></trkpt><trkpt lat="42.2871866" lon="13.6908345"><ele>939.0000000000001</ele><time>2026-05-03T08:57:45.011Z</time></trkpt><trkpt lat="42.2872705" lon="13.6907976"><ele>939.0000000000001</ele><time>2026-05-03T08:57:46.011Z</time></trkpt><trkpt lat="42.2873621" lon="13.6907594"><ele>939.0</ele><time>2026-05-03T08:57:47.012Z</time></trkpt><trkpt lat="42.2874542" lon="13.6907235"><ele>939.0</ele><time>2026-05-03T08:57:48.012Z</time></trkpt><trkpt lat="42.2875422" lon="13.6906896"><ele>936.3333333333334</ele><time>2026-05-03T08:57:49.012Z</time></trkpt><trkpt lat="42.2876302" lon="13.6906651"><ele>933.6666666666667</ele><time>2026-05-03T08:57:50.012Z</time></trkpt><trkpt lat="42.2877141" lon="13.6906402"><ele>931.0</ele><time>2026-05-03T08:57:51.012Z</time></trkpt><trkpt lat="42.2877995" lon="13.6906158"><ele>928.3333333333334</ele><time>2026-05-03T08:57:52.011Z</time></trkpt><trkpt lat="42.2878786" lon="13.6905876"><ele>925.6666666666667</ele><time>2026-05-03T08:57:53.012Z</time></trkpt><trkpt lat="42.2879551" lon="13.6905518"><ele>923.0</ele><time>2026-05-03T08:57:54.012Z</time></trkpt><trkpt lat="42.2880283" lon="13.6905116"><ele>920.1666666666667</ele><time>2026-05-03T08:57:55.011Z</time></trkpt><trkpt lat="42.288112" lon="13.6904721"><ele>917.3333333333334</ele><time>2026-05-03T08:57:56.012Z</time></trkpt><trkpt lat="42.2881986" lon="13.6904325"><ele>914.5</ele><time>2026-05-03T08:57:57.012Z</time></trkpt><trkpt lat="42.2882805" lon="13.6903914"><ele>911.6666666666667</ele><time>2026-05-03T08:57:58.012Z</time></trkpt><trkpt lat="42.2883572" lon="13.6903638"><ele>908.8333333333334</ele><time>2026-05-03T08:57:59.012Z</time></trkpt><trkpt lat="42.2884365" lon="13.6903499"><ele>906.0</ele><time>2026-05-03T08:58:00.012Z</time></trkpt><trkpt lat="42.2885185" lon="13.6903518"><ele>906.0</ele><time>2026-05-03T08:58:01.011Z</time></trkpt><trkpt lat="42.2886024" lon="13.6903694"><ele>906.0</ele><time>2026-05-03T08:58:02.011Z</time></trkpt><trkpt lat="42.2886746" lon="13.6903899"><ele>906.0</ele><time>2026-05-03T08:58:03.011Z</time></trkpt><trkpt lat="42.2887399" lon="13.6904178"><ele>906.0</ele><time>2026-05-03T08:58:04.011Z</time></trkpt><trkpt lat="42.2888013" lon="13.6904522"><ele>906.0</ele><time>2026-05-03T08:58:05.012Z</time></trkpt><trkpt lat="42.2888619" lon="13.6904898"><ele>906.0</ele><time>2026-05-03T08:58:06.012Z</time></trkpt><trkpt lat="42.2889752" lon="13.690533"><ele>904.75</ele><time>2026-05-03T08:58:08.012Z</time></trkpt><trkpt lat="42.2890794" lon="13.6905462"><ele>903.5</ele><time>2026-05-03T08:58:10.012Z</time></trkpt><trkpt lat="42.2891944" lon="13.6905346"><ele>902.25</ele><time>2026-05-03T08:58:12.011Z</time></trkpt><trkpt lat="42.2893058" lon="13.6905132"><ele>901.0</ele><time>2026-05-03T08:58:14.012Z</time></trkpt><trkpt lat="42.2894272" lon="13.6904894"><ele>901.0</ele><time>2026-05-03T08:58:16.012Z</time></trkpt><trkpt lat="42.2894969" lon="13.6904927"><ele>901.0000000000001</ele><time>2026-05-03T08:58:17.012Z</time></trkpt><trkpt lat="42.2895669" lon="13.6905043"><ele>901.0</ele><time>2026-05-03T08:58:18.012Z</time></trkpt><trkpt lat="42.2896312" lon="13.6905222"><ele>901.0</ele><time>2026-05-03T08:58:19.012Z</time></trkpt><trkpt lat="42.2896979" lon="13.6905404"><ele>901.0000000000001</ele><time>2026-05-03T08:58:20.011Z</time></trkpt><trkpt lat="42.2897639" lon="13.6905591"><ele>901.0</ele><time>2026-05-03T08:58:21.011Z</time></trkpt><trkpt lat="42.2898272" lon="13.6905817"><ele>901.0</ele><time>2026-05-03T08:58:22.012Z</time></trkpt><trkpt lat="42.2898913" lon="13.6906028"><ele>900.3333333333333</ele><time>2026-05-03T08:58:23.011Z</time></trkpt><trkpt lat="42.2899559" lon="13.6906147"><ele>899.6666666666666</ele><time>2026-05-03T08:58:24.012Z</time></trkpt><trkpt lat="42.2900222" lon="13.6906266"><ele>899.0</ele><time>2026-05-03T08:58:25.011Z</time></trkpt><trkpt lat="42.2900875" lon="13.6906281"><ele>898.3333333333333</ele><time>2026-05-03T08:58:26.011Z</time></trkpt><trkpt lat="42.2901565" lon="13.6906234"><ele>897.6666666666666</ele><time>2026-05-03T08:58:27.012Z</time></trkpt><trkpt lat="42.2902789" lon="13.690605"><ele>897.0</ele><time>2026-05-03T08:58:29.012Z</time></trkpt><trkpt lat="42.2904082" lon="13.6905625"><ele>897.0</ele><time>2026-05-03T08:58:31.011Z</time></trkpt><trkpt lat="42.2904761" lon="13.6905436"><ele>897.0</ele><time>2026-05-03T08:58:32.013Z</time></trkpt><trkpt lat="42.2905435" lon="13.6905314"><ele>897.0</ele><time>2026-05-03T08:58:33.013Z</time></trkpt><trkpt lat="42.2906084" lon="13.690525"><ele>897.0</ele><time>2026-05-03T08:58:34.013Z</time></trkpt><trkpt lat="42.2906737" lon="13.6905149"><ele>897.0</ele><time>2026-05-03T08:58:35.012Z</time></trkpt><trkpt lat="42.2907376" lon="13.6905242"><ele>897.0</ele><time>2026-05-03T08:58:36.013Z</time></trkpt><trkpt lat="42.2908035" lon="13.6905319"><ele>897.0</ele><time>2026-05-03T08:58:37.012Z</time></trkpt><trkpt lat="42.2908677" lon="13.6905338"><ele>895.5714285714286</ele><time>2026-05-03T08:58:38.013Z</time></trkpt><trkpt lat="42.2909325" lon="13.6905344"><ele>894.1428571428571</ele><time>2026-05-03T08:58:39.013Z</time></trkpt><trkpt lat="42.290999" lon="13.6905235"><ele>892.7142857142857</ele><time>2026-05-03T08:58:40.013Z</time></trkpt><trkpt lat="42.2910639" lon="13.6905116"><ele>891.2857142857142</ele><time>2026-05-03T08:58:41.012Z</time></trkpt><trkpt lat="42.2911331" lon="13.6904867"><ele>889.8571428571429</ele><time>2026-05-03T08:58:42.013Z</time></trkpt><trkpt lat="42.2912022" lon="13.6904465"><ele>888.4285714285713</ele><time>2026-05-03T08:58:43.013Z</time></trkpt><trkpt lat="42.2912728" lon="13.6904018"><ele>887.0</ele><time>2026-05-03T08:58:44.012Z</time></trkpt><trkpt lat="42.2913434" lon="13.690337"><ele>887.0000000000001</ele><time>2026-05-03T08:58:45.013Z</time></trkpt><trkpt lat="42.291398" lon="13.6902726"><ele>887.0</ele><time>2026-05-03T08:58:46.013Z</time></trkpt><trkpt lat="42.2914496" lon="13.6902108"><ele>887.0</ele><time>2026-05-03T08:58:47.012Z</time></trkpt><trkpt lat="42.2914994" lon="13.6901574"><ele>887.0</ele><time>2026-05-03T08:58:48.013Z</time></trkpt><trkpt lat="42.2915521" lon="13.6900968"><ele>887.0000000000001</ele><time>2026-05-03T08:58:49.013Z</time></trkpt><trkpt lat="42.291601" lon="13.6900386"><ele>887.0</ele><time>2026-05-03T08:58:50.012Z</time></trkpt><trkpt lat="42.2916985" lon="13.6899215"><ele>885.5714285714286</ele><time>2026-05-03T08:58:52.012Z</time></trkpt><trkpt lat="42.2917588" lon="13.6898728"><ele>884.1428571428571</ele><time>2026-05-03T08:58:53.013Z</time></trkpt><trkpt lat="42.2918291" lon="13.6898366"><ele>882.7142857142858</ele><time>2026-05-03T08:58:54.012Z</time></trkpt><trkpt lat="42.2918974" lon="13.6898046"><ele>881.2857142857142</ele><time>2026-05-03T08:58:55.012Z</time></trkpt><trkpt lat="42.291964" lon="13.6897672"><ele>879.8571428571429</ele><time>2026-05-03T08:58:56.013Z</time></trkpt><trkpt lat="42.2920303" lon="13.6897283"><ele>878.4285714285714</ele><time>2026-05-03T08:58:57.013Z</time></trkpt><trkpt lat="42.2920911" lon="13.6896786"><ele>877.0</ele><time>2026-05-03T08:58:58.013Z</time></trkpt><trkpt lat="42.2921414" lon="13.6896185"><ele>876.9999999999999</ele><time>2026-05-03T08:58:59.013Z</time></trkpt><trkpt lat="42.2921882" lon="13.6895476"><ele>877.0</ele><time>2026-05-03T08:59:00.013Z</time></trkpt><trkpt lat="42.2922442" lon="13.6894633"><ele>877.0</ele><time>2026-05-03T08:59:01.012Z</time></trkpt><trkpt lat="42.2922999" lon="13.6893702"><ele>877.0</ele><time>2026-05-03T08:59:02.013Z</time></trkpt><trkpt lat="42.2923553" lon="13.6892803"><ele>876.9999999999999</ele><time>2026-05-03T08:59:03.012Z</time></trkpt><trkpt lat="42.2924145" lon="13.6891907"><ele>877.0</ele><time>2026-05-03T08:59:04.012Z</time></trkpt><trkpt lat="42.2924805" lon="13.6891057"><ele>875.6666666666666</ele><time>2026-05-03T08:59:05.013Z</time></trkpt><trkpt lat="42.2925462" lon="13.6890286"><ele>874.3333333333333</ele><time>2026-05-03T08:59:06.013Z</time></trkpt><trkpt lat="42.2926154" lon="13.6889558"><ele>873.0</ele><time>2026-05-03T08:59:07.013Z</time></trkpt><trkpt lat="42.2926796" lon="13.6888966"><ele>871.6666666666667</ele><time>2026-05-03T08:59:08.012Z</time></trkpt><trkpt lat="42.2927465" lon="13.6888472"><ele>870.3333333333334</ele><time>2026-05-03T08:59:09.013Z</time></trkpt><trkpt lat="42.2928134" lon="13.6888063"><ele>869.0</ele><time>2026-05-03T08:59:10.012Z</time></trkpt><trkpt lat="42.2928821" lon="13.6887743"><ele>869.0000000000001</ele><time>2026-05-03T08:59:11.012Z</time></trkpt><trkpt lat="42.2929441" lon="13.6887375"><ele>869.0</ele><time>2026-05-03T08:59:12.013Z</time></trkpt><trkpt lat="42.2930109" lon="13.6886925"><ele>869.0</ele><time>2026-05-03T08:59:13.013Z</time></trkpt><trkpt lat="42.2930863" lon="13.6886472"><ele>869.0</ele><time>2026-05-03T08:59:14.013Z</time></trkpt><trkpt lat="42.2931579" lon="13.6886064"><ele>869.0000000000001</ele><time>2026-05-03T08:59:15.013Z</time></trkpt><trkpt lat="42.2932356" lon="13.6885883"><ele>869.0</ele><time>2026-05-03T08:59:16.013Z</time></trkpt><trkpt lat="42.2933049" lon="13.6885824"><ele>869.0</ele><time>2026-05-03T08:59:17.013Z</time></trkpt><trkpt lat="42.2934087" lon="13.6885698"><ele>869.0000000000001</ele><time>2026-05-03T08:59:19.013Z</time></trkpt><trkpt lat="42.2934242" lon="13.6886618"><ele>869.0000000000001</ele><time>2026-05-03T08:59:24.013Z</time></trkpt><trkpt lat="42.2933165" lon="13.6887841"><ele>869.0</ele><time>2026-05-03T08:59:26.013Z</time></trkpt><trkpt lat="42.2932484" lon="13.6888725"><ele>869.0</ele><time>2026-05-03T08:59:27.013Z</time></trkpt><trkpt lat="42.2931751" lon="13.6889735"><ele>869.0</ele><time>2026-05-03T08:59:28.013Z</time></trkpt><trkpt lat="42.2930948" lon="13.6890902"><ele>869.0</ele><time>2026-05-03T08:59:29.012Z</time></trkpt><trkpt lat="42.2930149" lon="13.6892256"><ele>869.0</ele><time>2026-05-03T08:59:30.012Z</time></trkpt><trkpt lat="42.292929" lon="13.6893754"><ele>869.0</ele><time>2026-05-03T08:59:31.012Z</time></trkpt><trkpt lat="42.292847" lon="13.6895419"><ele>865.6666666666667</ele><time>2026-05-03T08:59:32.013Z</time></trkpt><trkpt lat="42.2927618" lon="13.6897325"><ele>862.3333333333333</ele><time>2026-05-03T08:59:33.012Z</time></trkpt><trkpt lat="42.2926741" lon="13.6899331"><ele>859.0</ele><time>2026-05-03T08:59:34.013Z</time></trkpt><trkpt lat="42.2925903" lon="13.6901325"><ele>858.25</ele><time>2026-05-03T08:59:35.013Z</time></trkpt><trkpt lat="42.2925188" lon="13.6903261"><ele>857.5</ele><time>2026-05-03T08:59:36.012Z</time></trkpt><trkpt lat="42.2924694" lon="13.6905105"><ele>856.75</ele><time>2026-05-03T08:59:37.013Z</time></trkpt><trkpt lat="42.2924423" lon="13.6906867"><ele>856.0</ele><time>2026-05-03T08:59:38.013Z</time></trkpt><trkpt lat="42.2924366" lon="13.6908639"><ele>856.0</ele><time>2026-05-03T08:59:39.012Z</time></trkpt><trkpt lat="42.2924228" lon="13.6910267"><ele>856.0</ele><time>2026-05-03T08:59:40.013Z</time></trkpt><trkpt lat="42.2923913" lon="13.6911822"><ele>856.0</ele><time>2026-05-03T08:59:41.012Z</time></trkpt><trkpt lat="42.292347" lon="13.6913477"><ele>856.0</ele><time>2026-05-03T08:59:42.013Z</time></trkpt><trkpt lat="42.2922923" lon="13.6915063"><ele>857.5</ele><time>2026-05-03T08:59:43.013Z</time></trkpt><trkpt lat="42.2922299" lon="13.6916589"><ele>859.0</ele><time>2026-05-03T08:59:44.012Z</time></trkpt><trkpt lat="42.2921418" lon="13.6918062"><ele>860.5</ele><time>2026-05-03T08:59:45.013Z</time></trkpt><trkpt lat="42.2920403" lon="13.691947"><ele>862.0</ele><time>2026-05-03T08:59:46.013Z</time></trkpt><trkpt lat="42.2919235" lon="13.6920803"><ele>862.0</ele><time>2026-05-03T08:59:47.012Z</time></trkpt><trkpt lat="42.2917996" lon="13.6922144"><ele>862.0</ele><time>2026-05-03T08:59:48.013Z</time></trkpt><trkpt lat="42.2916664" lon="13.6923472"><ele>862.0</ele><time>2026-05-03T08:59:49.012Z</time></trkpt><trkpt lat="42.2915319" lon="13.6924794"><ele>862.0</ele><time>2026-05-03T08:59:50.012Z</time></trkpt><trkpt lat="42.2914028" lon="13.6926231"><ele>862.0</ele><time>2026-05-03T08:59:51.013Z</time></trkpt><trkpt lat="42.2912867" lon="13.6927899"><ele>862.0</ele><time>2026-05-03T08:59:52.012Z</time></trkpt><trkpt lat="42.2912011" lon="13.6929367"><ele>862.0</ele><time>2026-05-03T08:59:53.013Z</time></trkpt><trkpt lat="42.2911323" lon="13.6930671"><ele>862.0</ele><time>2026-05-03T08:59:54.012Z</time></trkpt><trkpt lat="42.2910636" lon="13.6931771"><ele>862.0</ele><time>2026-05-03T08:59:55.013Z</time></trkpt><trkpt lat="42.2909953" lon="13.6932758"><ele>862.0</ele><time>2026-05-03T08:59:56.013Z</time></trkpt><trkpt lat="42.2909214" lon="13.6933591"><ele>862.0</ele><time>2026-05-03T08:59:57.013Z</time></trkpt><trkpt lat="42.2908451" lon="13.6934457"><ele>862.0</ele><time>2026-05-03T08:59:58.012Z</time></trkpt><trkpt lat="42.2907651" lon="13.6935313"><ele>862.0</ele><time>2026-05-03T08:59:59.012Z</time></trkpt><trkpt lat="42.2906834" lon="13.693617"><ele>862.0</ele><time>2026-05-03T09:00:00.013Z</time></trkpt><trkpt lat="42.2906096" lon="13.6937096"><ele>862.0</ele><time>2026-05-03T09:00:01.012Z</time></trkpt><trkpt lat="42.2905421" lon="13.6938185"><ele>862.0</ele><time>2026-05-03T09:00:02.013Z</time></trkpt><trkpt lat="42.2904833" lon="13.6939274"><ele>860.3333333333333</ele><time>2026-05-03T09:00:03.013Z</time></trkpt><trkpt lat="42.290437" lon="13.6940252"><ele>858.6666666666666</ele><time>2026-05-03T09:00:04.012Z</time></trkpt><trkpt lat="42.2904017" lon="13.6941123"><ele>857.0</ele><time>2026-05-03T09:00:05.012Z</time></trkpt><trkpt lat="42.2903697" lon="13.6941878"><ele>855.3333333333333</ele><time>2026-05-03T09:00:06.013Z</time></trkpt><trkpt lat="42.2903397" lon="13.694263"><ele>853.6666666666666</ele><time>2026-05-03T09:00:07.013Z</time></trkpt><trkpt lat="42.2903035" lon="13.6943552"><ele>852.0</ele><time>2026-05-03T09:00:09.013Z</time></trkpt><trkpt lat="42.2903527" lon="13.6942506"><ele>852.0</ele><time>2026-05-03T09:00:34.013Z</time></trkpt><trkpt lat="42.2904023" lon="13.6940989"><ele>852.0</ele><time>2026-05-03T09:00:36.012Z</time></trkpt><trkpt lat="42.2904396" lon="13.6940122"><ele>852.0</ele><time>2026-05-03T09:00:37.013Z</time></trkpt><trkpt lat="42.2904818" lon="13.6939163"><ele>852.0</ele><time>2026-05-03T09:00:38.013Z</time></trkpt><trkpt lat="42.2905348" lon="13.693817"><ele>852.0</ele><time>2026-05-03T09:00:39.012Z</time></trkpt><trkpt lat="42.290601" lon="13.6937205"><ele>854.0</ele><time>2026-05-03T09:00:40.013Z</time></trkpt><trkpt lat="42.2906765" lon="13.6936212"><ele>856.0</ele><time>2026-05-03T09:00:41.013Z</time></trkpt><trkpt lat="42.2907558" lon="13.6935236"><ele>858.0</ele><time>2026-05-03T09:00:42.013Z</time></trkpt><trkpt lat="42.2908342" lon="13.6934442"><ele>860.0</ele><time>2026-05-03T09:00:43.012Z</time></trkpt><trkpt lat="42.2909084" lon="13.6933641"><ele>862.0</ele><time>2026-05-03T09:00:44.012Z</time></trkpt><trkpt lat="42.2909731" lon="13.6932911"><ele>861.9999999999999</ele><time>2026-05-03T09:00:45.013Z</time></trkpt><trkpt lat="42.2910278" lon="13.6932185"><ele>862.0</ele><time>2026-05-03T09:00:46.012Z</time></trkpt><trkpt lat="42.291093" lon="13.6931187"><ele>862.0</ele><time>2026-05-03T09:00:48.013Z</time></trkpt><trkpt lat="42.2911326" lon="13.69305"><ele>862.0</ele><time>2026-05-03T09:00:50.013Z</time></trkpt><trkpt lat="42.2912094" lon="13.6930224"><ele>861.9999999999999</ele><time>2026-05-03T09:00:54.013Z</time></trkpt><trkpt lat="42.2911107" lon="13.6929981"><ele>862.0</ele><time>2026-05-03T09:01:20.012Z</time></trkpt><trkpt lat="42.2910082" lon="13.6930031"><ele>861.9999999999999</ele><time>2026-05-03T09:01:22.012Z</time></trkpt><trkpt lat="42.2909025" lon="13.6930261"><ele>862.0</ele><time>2026-05-03T09:01:24.013Z</time></trkpt><trkpt lat="42.2908435" lon="13.6930581"><ele>862.0</ele><time>2026-05-03T09:01:25.013Z</time></trkpt><trkpt lat="42.2907839" lon="13.6930909"><ele>862.0</ele><time>2026-05-03T09:01:26.013Z</time></trkpt><trkpt lat="42.2907197" lon="13.6931219"><ele>861.9999999999999</ele><time>2026-05-03T09:01:27.013Z</time></trkpt><trkpt lat="42.2906549" lon="13.693134"><ele>862.0</ele><time>2026-05-03T09:01:28.012Z</time></trkpt><trkpt lat="42.2905293" lon="13.6931402"><ele>860.8571428571429</ele><time>2026-05-03T09:01:30.013Z</time></trkpt><trkpt lat="42.2904628" lon="13.6931636"><ele>859.7142857142857</ele><time>2026-05-03T09:01:31.013Z</time></trkpt><trkpt lat="42.2903986" lon="13.6932012"><ele>858.5714285714286</ele><time>2026-05-03T09:01:32.012Z</time></trkpt><trkpt lat="42.2903333" lon="13.6932441"><ele>857.4285714285714</ele><time>2026-05-03T09:01:33.013Z</time></trkpt><trkpt lat="42.290266" lon="13.6932877"><ele>856.2857142857142</ele><time>2026-05-03T09:01:34.013Z</time></trkpt><trkpt lat="42.2901985" lon="13.6933337"><ele>855.1428571428571</ele><time>2026-05-03T09:01:35.013Z</time></trkpt><trkpt lat="42.2901331" lon="13.6933839"><ele>854.0</ele><time>2026-05-03T09:01:36.012Z</time></trkpt><trkpt lat="42.2900726" lon="13.6934376"><ele>854.0</ele><time>2026-05-03T09:01:37.013Z</time></trkpt><trkpt lat="42.2900144" lon="13.6934888"><ele>854.0</ele><time>2026-05-03T09:01:38.012Z</time></trkpt><trkpt lat="42.2899528" lon="13.6935379"><ele>854.0</ele><time>2026-05-03T09:01:39.012Z</time></trkpt><trkpt lat="42.2898896" lon="13.6935886"><ele>854.0</ele><time>2026-05-03T09:01:40.012Z</time></trkpt><trkpt lat="42.2898265" lon="13.693638"><ele>854.0</ele><time>2026-05-03T09:01:41.012Z</time></trkpt><trkpt lat="42.2897649" lon="13.6936901"><ele>854.0</ele><time>2026-05-03T09:01:42.013Z</time></trkpt><trkpt lat="42.2897071" lon="13.6937535"><ele>854.0</ele><time>2026-05-03T09:01:43.013Z</time></trkpt><trkpt lat="42.2896486" lon="13.6938196"><ele>851.5000000000001</ele><time>2026-05-03T09:01:44.012Z</time></trkpt><trkpt lat="42.2895984" lon="13.6938992"><ele>849.0</ele><time>2026-05-03T09:01:45.012Z</time></trkpt><trkpt lat="42.2895561" lon="13.6939915"><ele>846.5</ele><time>2026-05-03T09:01:46.012Z</time></trkpt><trkpt lat="42.2895149" lon="13.6940814"><ele>844.0</ele><time>2026-05-03T09:01:47.012Z</time></trkpt><trkpt lat="42.289479" lon="13.6941759"><ele>841.5000000000001</ele><time>2026-05-03T09:01:48.012Z</time></trkpt><trkpt lat="42.2894387" lon="13.6942765"><ele>839.0</ele><time>2026-05-03T09:01:49.012Z</time></trkpt><trkpt lat="42.2893962" lon="13.694377"><ele>838.0</ele><time>2026-05-03T09:01:50.013Z</time></trkpt><trkpt lat="42.2893538" lon="13.6944815"><ele>837.0</ele><time>2026-05-03T09:01:51.013Z</time></trkpt><trkpt lat="42.2893048" lon="13.6945826"><ele>836.0</ele><time>2026-05-03T09:01:52.013Z</time></trkpt><trkpt lat="42.2892517" lon="13.6946841"><ele>835.0</ele><time>2026-05-03T09:01:53.012Z</time></trkpt><trkpt lat="42.2891963" lon="13.6947892"><ele>834.0</ele><time>2026-05-03T09:01:54.012Z</time></trkpt><trkpt lat="42.2891431" lon="13.6948942"><ele>834.0</ele><time>2026-05-03T09:01:55.012Z</time></trkpt><trkpt lat="42.2890905" lon="13.695002"><ele>834.0</ele><time>2026-05-03T09:01:56.013Z</time></trkpt><trkpt lat="42.2890338" lon="13.6951132"><ele>834.0</ele><time>2026-05-03T09:01:57.012Z</time></trkpt><trkpt lat="42.2889794" lon="13.6952181"><ele>834.0</ele><time>2026-05-03T09:01:58.012Z</time></trkpt><trkpt lat="42.2889247" lon="13.6953246"><ele>834.0</ele><time>2026-05-03T09:01:59.013Z</time></trkpt><trkpt lat="42.2888802" lon="13.6954293"><ele>831.5</ele><time>2026-05-03T09:02:00.013Z</time></trkpt><trkpt lat="42.2888476" lon="13.6955347"><ele>829.0</ele><time>2026-05-03T09:02:01.013Z</time></trkpt><trkpt lat="42.2888096" lon="13.6956382"><ele>826.5</ele><time>2026-05-03T09:02:02.013Z</time></trkpt><trkpt lat="42.2887618" lon="13.695738"><ele>824.0</ele><time>2026-05-03T09:02:03.012Z</time></trkpt><trkpt lat="42.2887126" lon="13.6958243"><ele>821.5</ele><time>2026-05-03T09:02:04.012Z</time></trkpt><trkpt lat="42.2886668" lon="13.6958953"><ele>819.0</ele><time>2026-05-03T09:02:05.012Z</time></trkpt><trkpt lat="42.2886094" lon="13.6959508"><ele>819.0</ele><time>2026-05-03T09:02:06.013Z</time></trkpt><trkpt lat="42.2885445" lon="13.6959893"><ele>819.0</ele><time>2026-05-03T09:02:07.013Z</time></trkpt><trkpt lat="42.2884781" lon="13.6960129"><ele>819.0</ele><time>2026-05-03T09:02:08.013Z</time></trkpt><trkpt lat="42.2883745" lon="13.6960731"><ele>819.0</ele><time>2026-05-03T09:02:10.013Z</time></trkpt><trkpt lat="42.2882818" lon="13.6961301"><ele>819.0</ele><time>2026-05-03T09:02:12.012Z</time></trkpt><trkpt lat="42.2881852" lon="13.6962113"><ele>816.3333333333334</ele><time>2026-05-03T09:02:14.013Z</time></trkpt><trkpt lat="42.2880893" lon="13.69632"><ele>813.6666666666667</ele><time>2026-05-03T09:02:16.012Z</time></trkpt><trkpt lat="42.2880414" lon="13.6963812"><ele>811.0</ele><time>2026-05-03T09:02:17.012Z</time></trkpt><trkpt lat="42.2879895" lon="13.6964427"><ele>808.3333333333334</ele><time>2026-05-03T09:02:18.012Z</time></trkpt><trkpt lat="42.2879372" lon="13.6964984"><ele>805.6666666666667</ele><time>2026-05-03T09:02:19.012Z</time></trkpt><trkpt lat="42.2878637" lon="13.696605"><ele>803.0</ele><time>2026-05-03T09:02:21.012Z</time></trkpt><trkpt lat="42.2877936" lon="13.6966899"><ele>803.0000000000001</ele><time>2026-05-03T09:02:23.013Z</time></trkpt><trkpt lat="42.2877064" lon="13.6967415"><ele>803.0</ele><time>2026-05-03T09:02:25.013Z</time></trkpt><trkpt lat="42.2876197" lon="13.696842"><ele>803.0</ele><time>2026-05-03T09:02:27.013Z</time></trkpt><trkpt lat="42.2875913" lon="13.6969183"><ele>803.0</ele><time>2026-05-03T09:02:28.012Z</time></trkpt><trkpt lat="42.2875778" lon="13.6970033"><ele>803.0000000000001</ele><time>2026-05-03T09:02:29.012Z</time></trkpt><trkpt lat="42.2875762" lon="13.6971062"><ele>803.0</ele><time>2026-05-03T09:02:30.012Z</time></trkpt><trkpt lat="42.2875776" lon="13.6972161"><ele>802.5000000000001</ele><time>2026-05-03T09:02:31.013Z</time></trkpt><trkpt lat="42.287572" lon="13.697322"><ele>802.0</ele><time>2026-05-03T09:02:32.012Z</time></trkpt><trkpt lat="42.287551" lon="13.6974255"><ele>801.5</ele><time>2026-05-03T09:02:33.013Z</time></trkpt><trkpt lat="42.2875165" lon="13.697524"><ele>801.0</ele><time>2026-05-03T09:02:34.012Z</time></trkpt><trkpt lat="42.2874686" lon="13.6976216"><ele>800.5000000000001</ele><time>2026-05-03T09:02:35.013Z</time></trkpt><trkpt lat="42.2874129" lon="13.6977227"><ele>800.0</ele><time>2026-05-03T09:02:36.013Z</time></trkpt><trkpt lat="42.287366" lon="13.6978232"><ele>799.8333333333334</ele><time>2026-05-03T09:02:37.012Z</time></trkpt><trkpt lat="42.2873311" lon="13.6979383"><ele>799.6666666666667</ele><time>2026-05-03T09:02:38.012Z</time></trkpt><trkpt lat="42.2873046" lon="13.6980557"><ele>799.5</ele><time>2026-05-03T09:02:39.012Z</time></trkpt><trkpt lat="42.2872838" lon="13.6981644"><ele>799.3333333333333</ele><time>2026-05-03T09:02:40.013Z</time></trkpt><trkpt lat="42.2872695" lon="13.6982609"><ele>799.1666666666666</ele><time>2026-05-03T09:02:41.013Z</time></trkpt><trkpt lat="42.2872643" lon="13.6983589"><ele>799.0</ele><time>2026-05-03T09:02:42.012Z</time></trkpt><trkpt lat="42.2872681" lon="13.6984538"><ele>798.9999999999999</ele><time>2026-05-03T09:02:43.012Z</time></trkpt><trkpt lat="42.2872796" lon="13.6985468"><ele>799.0</ele><time>2026-05-03T09:02:44.013Z</time></trkpt><trkpt lat="42.2872946" lon="13.6986424"><ele>799.0</ele><time>2026-05-03T09:02:45.012Z</time></trkpt><trkpt lat="42.2872987" lon="13.6987478"><ele>799.0</ele><time>2026-05-03T09:02:46.012Z</time></trkpt><trkpt lat="42.2872872" lon="13.6988552"><ele>798.9999999999999</ele><time>2026-05-03T09:02:47.013Z</time></trkpt><trkpt lat="42.2872597" lon="13.6989678"><ele>799.0</ele><time>2026-05-03T09:02:48.013Z</time></trkpt><trkpt lat="42.2872301" lon="13.6990822"><ele>797.9999999999999</ele><time>2026-05-03T09:02:49.012Z</time></trkpt><trkpt lat="42.2872078" lon="13.6991935"><ele>797.0</ele><time>2026-05-03T09:02:50.013Z</time></trkpt><trkpt lat="42.2871994" lon="13.6992887"><ele>796.0</ele><time>2026-05-03T09:02:51.012Z</time></trkpt><trkpt lat="42.2872388" lon="13.6994446"><ele>795.0</ele><time>2026-05-03T09:02:53.013Z</time></trkpt><trkpt lat="42.2872785" lon="13.699512"><ele>793.9999999999999</ele><time>2026-05-03T09:02:54.012Z</time></trkpt><trkpt lat="42.2873232" lon="13.6995767"><ele>793.0</ele><time>2026-05-03T09:02:55.012Z</time></trkpt><trkpt lat="42.2873836" lon="13.6996947"><ele>792.9999999999999</ele><time>2026-05-03T09:02:57.013Z</time></trkpt><trkpt lat="42.2873715" lon="13.6998161"><ele>793.0</ele><time>2026-05-03T09:02:59.013Z</time></trkpt><trkpt lat="42.2873671" lon="13.6999099"><ele>793.0</ele><time>2026-05-03T09:03:00.012Z</time></trkpt><trkpt lat="42.287365" lon="13.7000124"><ele>793.0</ele><time>2026-05-03T09:03:01.013Z</time></trkpt><trkpt lat="42.287362" lon="13.7001051"><ele>792.9999999999999</ele><time>2026-05-03T09:03:02.012Z</time></trkpt><trkpt lat="42.2873309" lon="13.7002495"><ele>793.0</ele><time>2026-05-03T09:03:04.013Z</time></trkpt><trkpt lat="42.287276" lon="13.70037"><ele>791.1666666666666</ele><time>2026-05-03T09:03:06.013Z</time></trkpt><trkpt lat="42.2872133" lon="13.7005155"><ele>789.3333333333333</ele><time>2026-05-03T09:03:08.013Z</time></trkpt><trkpt lat="42.2871778" lon="13.7006147"><ele>787.5</ele><time>2026-05-03T09:03:09.012Z</time></trkpt><trkpt lat="42.2871467" lon="13.7007103"><ele>785.6666666666667</ele><time>2026-05-03T09:03:10.012Z</time></trkpt><trkpt lat="42.2871246" lon="13.7008099"><ele>783.8333333333334</ele><time>2026-05-03T09:03:11.013Z</time></trkpt><trkpt lat="42.2871151" lon="13.7009117"><ele>782.0</ele><time>2026-05-03T09:03:12.013Z</time></trkpt><trkpt lat="42.2871154" lon="13.7010117"><ele>782.1666666666667</ele><time>2026-05-03T09:03:13.013Z</time></trkpt><trkpt lat="42.2871209" lon="13.7011176"><ele>782.3333333333334</ele><time>2026-05-03T09:03:14.013Z</time></trkpt><trkpt lat="42.2871257" lon="13.7012304"><ele>782.5</ele><time>2026-05-03T09:03:15.013Z</time></trkpt><trkpt lat="42.2871249" lon="13.7013521"><ele>782.6666666666667</ele><time>2026-05-03T09:03:16.013Z</time></trkpt><trkpt lat="42.2871154" lon="13.701471"><ele>782.8333333333334</ele><time>2026-05-03T09:03:17.013Z</time></trkpt><trkpt lat="42.2870963" lon="13.7015883"><ele>783.0</ele><time>2026-05-03T09:03:18.012Z</time></trkpt><trkpt lat="42.2870735" lon="13.7016934"><ele>783.0</ele><time>2026-05-03T09:03:19.013Z</time></trkpt><trkpt lat="42.287036" lon="13.7018036"><ele>783.0</ele><time>2026-05-03T09:03:20.013Z</time></trkpt><trkpt lat="42.2869921" lon="13.7019114"><ele>783.0</ele><time>2026-05-03T09:03:21.013Z</time></trkpt><trkpt lat="42.2869387" lon="13.7020222"><ele>783.0</ele><time>2026-05-03T09:03:22.012Z</time></trkpt><trkpt lat="42.2868864" lon="13.7021424"><ele>783.0</ele><time>2026-05-03T09:03:23.012Z</time></trkpt><trkpt lat="42.286835" lon="13.7022762"><ele>782.75</ele><time>2026-05-03T09:03:24.012Z</time></trkpt><trkpt lat="42.2867828" lon="13.702418"><ele>782.5</ele><time>2026-05-03T09:03:25.012Z</time></trkpt><trkpt lat="42.2867387" lon="13.7025623"><ele>782.25</ele><time>2026-05-03T09:03:26.013Z</time></trkpt><trkpt lat="42.2866976" lon="13.7027029"><ele>782.0</ele><time>2026-05-03T09:03:27.012Z</time></trkpt><trkpt lat="42.2866464" lon="13.7028385"><ele>783.0</ele><time>2026-05-03T09:03:28.013Z</time></trkpt><trkpt lat="42.2865834" lon="13.7029723"><ele>784.0</ele><time>2026-05-03T09:03:29.012Z</time></trkpt><trkpt lat="42.2865179" lon="13.7031092"><ele>785.0</ele><time>2026-05-03T09:03:30.013Z</time></trkpt><trkpt lat="42.2864642" lon="13.70325"><ele>786.0</ele><time>2026-05-03T09:03:31.012Z</time></trkpt><trkpt lat="42.2864201" lon="13.7033896"><ele>784.0</ele><time>2026-05-03T09:03:32.012Z</time></trkpt><trkpt lat="42.2863815" lon="13.7035273"><ele>782.0</ele><time>2026-05-03T09:03:33.013Z</time></trkpt><trkpt lat="42.2863426" lon="13.7036627"><ele>780.0</ele><time>2026-05-03T09:03:34.013Z</time></trkpt><trkpt lat="42.2863031" lon="13.703772"><ele>778.0</ele><time>2026-05-03T09:03:35.012Z</time></trkpt><trkpt lat="42.2862685" lon="13.7038464"><ele>776.0</ele><time>2026-05-03T09:03:36.012Z</time></trkpt><trkpt lat="42.2861955" lon="13.7038889"><ele>776.0000000000001</ele><time>2026-05-03T09:03:39.012Z</time></trkpt><trkpt lat="42.2860789" lon="13.7038516"><ele>776.0</ele><time>2026-05-03T09:03:41.012Z</time></trkpt><trkpt lat="42.2860016" lon="13.7038297"><ele>776.0</ele><time>2026-05-03T09:03:42.013Z</time></trkpt><trkpt lat="42.2859171" lon="13.7038075"><ele>776.0</ele><time>2026-05-03T09:03:43.012Z</time></trkpt><trkpt lat="42.2858426" lon="13.7037871"><ele>776.0000000000001</ele><time>2026-05-03T09:03:44.013Z</time></trkpt><trkpt lat="42.2857688" lon="13.7037762"><ele>776.0</ele><time>2026-05-03T09:03:45.012Z</time></trkpt><trkpt lat="42.2856929" lon="13.703775"><ele>776.0000000000001</ele><time>2026-05-03T09:03:46.013Z</time></trkpt><trkpt lat="42.2856212" lon="13.7037857"><ele>776.0</ele><time>2026-05-03T09:03:47.013Z</time></trkpt><trkpt lat="42.2855599" lon="13.7038153"><ele>776.0</ele><time>2026-05-03T09:03:48.013Z</time></trkpt><trkpt lat="42.285465" lon="13.7039292"><ele>776.0</ele><time>2026-05-03T09:03:50.012Z</time></trkpt><trkpt lat="42.2854065" lon="13.7040169"><ele>776.0000000000001</ele><time>2026-05-03T09:03:51.013Z</time></trkpt><trkpt lat="42.2853469" lon="13.7041187"><ele>776.0</ele><time>2026-05-03T09:03:52.012Z</time></trkpt><trkpt lat="42.2852878" lon="13.7042129"><ele>778.3333333333334</ele><time>2026-05-03T09:03:53.013Z</time></trkpt><trkpt lat="42.2852293" lon="13.7043041"><ele>780.6666666666667</ele><time>2026-05-03T09:03:54.013Z</time></trkpt><trkpt lat="42.2851821" lon="13.7044056"><ele>783.0</ele><time>2026-05-03T09:03:55.012Z</time></trkpt><trkpt lat="42.2851501" lon="13.7045023"><ele>785.3333333333333</ele><time>2026-05-03T09:03:56.013Z</time></trkpt><trkpt lat="42.2851162" lon="13.7046092"><ele>787.6666666666666</ele><time>2026-05-03T09:03:57.013Z</time></trkpt><trkpt lat="42.2850854" lon="13.7047253"><ele>790.0</ele><time>2026-05-03T09:03:58.012Z</time></trkpt><trkpt lat="42.2850536" lon="13.7048572"><ele>790.0</ele><time>2026-05-03T09:03:59.012Z</time></trkpt><trkpt lat="42.285027" lon="13.704987"><ele>790.0</ele><time>2026-05-03T09:04:00.013Z</time></trkpt><trkpt lat="42.2850011" lon="13.7051236"><ele>790.0</ele><time>2026-05-03T09:04:01.013Z</time></trkpt><trkpt lat="42.2849691" lon="13.7052604"><ele>790.0</ele><time>2026-05-03T09:04:02.013Z</time></trkpt><trkpt lat="42.284925" lon="13.7053976"><ele>790.0</ele><time>2026-05-03T09:04:03.013Z</time></trkpt><trkpt lat="42.2848732" lon="13.7055378"><ele>789.0</ele><time>2026-05-03T09:04:04.013Z</time></trkpt><trkpt lat="42.284825" lon="13.7056785"><ele>788.0</ele><time>2026-05-03T09:04:05.013Z</time></trkpt><trkpt lat="42.2847838" lon="13.7058191"><ele>787.0</ele><time>2026-05-03T09:04:06.012Z</time></trkpt><trkpt lat="42.2847483" lon="13.7059607"><ele>786.0</ele><time>2026-05-03T09:04:07.013Z</time></trkpt><trkpt lat="42.284715" lon="13.7060934"><ele>785.0</ele><time>2026-05-03T09:04:08.013Z</time></trkpt><trkpt lat="42.2846805" lon="13.7062152"><ele>789.8</ele><time>2026-05-03T09:04:09.013Z</time></trkpt><trkpt lat="42.2846363" lon="13.7063371"><ele>794.6</ele><time>2026-05-03T09:04:10.012Z</time></trkpt><trkpt lat="42.2845803" lon="13.7064637"><ele>799.4000000000001</ele><time>2026-05-03T09:04:11.013Z</time></trkpt><trkpt lat="42.2845229" lon="13.7065817"><ele>804.2</ele><time>2026-05-03T09:04:12.013Z</time></trkpt><trkpt lat="42.2844636" lon="13.7066753"><ele>809.0</ele><time>2026-05-03T09:04:13.012Z</time></trkpt><trkpt lat="42.2843969" lon="13.7067687"><ele>809.0</ele><time>2026-05-03T09:04:14.013Z</time></trkpt><trkpt lat="42.2843289" lon="13.7068539"><ele>809.0</ele><time>2026-05-03T09:04:15.013Z</time></trkpt><trkpt lat="42.2842586" lon="13.7069371"><ele>809.0</ele><time>2026-05-03T09:04:16.013Z</time></trkpt><trkpt lat="42.2841867" lon="13.7070285"><ele>809.0</ele><time>2026-05-03T09:04:17.013Z</time></trkpt><trkpt lat="42.2841104" lon="13.7071201"><ele>809.0</ele><time>2026-05-03T09:04:18.012Z</time></trkpt><trkpt lat="42.2840351" lon="13.707209"><ele>808.2</ele><time>2026-05-03T09:04:19.012Z</time></trkpt><trkpt lat="42.2839613" lon="13.7073008"><ele>807.4000000000001</ele><time>2026-05-03T09:04:20.013Z</time></trkpt><trkpt lat="42.28389" lon="13.7074022"><ele>806.6</ele><time>2026-05-03T09:04:21.012Z</time></trkpt><trkpt lat="42.283814" lon="13.7075126"><ele>805.8</ele><time>2026-05-03T09:04:22.012Z</time></trkpt><trkpt lat="42.2837406" lon="13.7076349"><ele>805.0</ele><time>2026-05-03T09:04:23.013Z</time></trkpt><trkpt lat="42.2836727" lon="13.7077644"><ele>807.6</ele><time>2026-05-03T09:04:24.013Z</time></trkpt><trkpt lat="42.2836092" lon="13.7078945"><ele>810.2</ele><time>2026-05-03T09:04:25.013Z</time></trkpt><trkpt lat="42.2835492" lon="13.7080151"><ele>812.8</ele><time>2026-05-03T09:04:26.013Z</time></trkpt><trkpt lat="42.2834876" lon="13.708126"><ele>815.4</ele><time>2026-05-03T09:04:27.013Z</time></trkpt><trkpt lat="42.2834129" lon="13.7082286"><ele>818.0</ele><time>2026-05-03T09:04:28.012Z</time></trkpt><trkpt lat="42.2833357" lon="13.7083325"><ele>818.0</ele><time>2026-05-03T09:04:29.013Z</time></trkpt><trkpt lat="42.283257" lon="13.7084361"><ele>818.0</ele><time>2026-05-03T09:04:30.012Z</time></trkpt><trkpt lat="42.2831731" lon="13.7085329"><ele>818.0</ele><time>2026-05-03T09:04:31.012Z</time></trkpt><trkpt lat="42.2830868" lon="13.7086294"><ele>818.0</ele><time>2026-05-03T09:04:32.013Z</time></trkpt><trkpt lat="42.2830049" lon="13.7087155"><ele>818.0</ele><time>2026-05-03T09:04:33.012Z</time></trkpt><trkpt lat="42.2829338" lon="13.7087806"><ele>818.5000000000001</ele><time>2026-05-03T09:04:34.012Z</time></trkpt><trkpt lat="42.282862" lon="13.70882"><ele>819.0</ele><time>2026-05-03T09:04:35.013Z</time></trkpt><trkpt lat="42.2827863" lon="13.7088411"><ele>819.5</ele><time>2026-05-03T09:04:36.012Z</time></trkpt><trkpt lat="42.2827039" lon="13.7088809"><ele>820.0</ele><time>2026-05-03T09:04:37.013Z</time></trkpt><trkpt lat="42.2826198" lon="13.708934"><ele>820.5000000000001</ele><time>2026-05-03T09:04:38.013Z</time></trkpt><trkpt lat="42.2825307" lon="13.7089966"><ele>821.0</ele><time>2026-05-03T09:04:39.012Z</time></trkpt><trkpt lat="42.2824389" lon="13.7090637"><ele>821.0</ele><time>2026-05-03T09:04:40.012Z</time></trkpt><trkpt lat="42.2823489" lon="13.709133"><ele>821.0</ele><time>2026-05-03T09:04:41.013Z</time></trkpt><trkpt lat="42.282255" lon="13.7091997"><ele>821.0</ele><time>2026-05-03T09:04:42.013Z</time></trkpt><trkpt lat="42.2821594" lon="13.7092689"><ele>821.0</ele><time>2026-05-03T09:04:43.013Z</time></trkpt><trkpt lat="42.2820687" lon="13.7093346"><ele>821.0</ele><time>2026-05-03T09:04:44.013Z</time></trkpt><trkpt lat="42.2819889" lon="13.7093962"><ele>821.1666666666667</ele><time>2026-05-03T09:04:45.012Z</time></trkpt><trkpt lat="42.2819177" lon="13.7094461"><ele>821.3333333333334</ele><time>2026-05-03T09:04:46.013Z</time></trkpt><trkpt lat="42.2818419" lon="13.7094904"><ele>821.5</ele><time>2026-05-03T09:04:47.013Z</time></trkpt><trkpt lat="42.2817625" lon="13.7095322"><ele>821.6666666666667</ele><time>2026-05-03T09:04:48.012Z</time></trkpt><trkpt lat="42.2816833" lon="13.709573"><ele>821.8333333333334</ele><time>2026-05-03T09:04:49.012Z</time></trkpt><trkpt lat="42.2816064" lon="13.7096243"><ele>822.0</ele><time>2026-05-03T09:04:50.012Z</time></trkpt><trkpt lat="42.2815327" lon="13.7096904"><ele>822.0</ele><time>2026-05-03T09:04:51.012Z</time></trkpt><trkpt lat="42.2814545" lon="13.7097657"><ele>822.0</ele><time>2026-05-03T09:04:52.013Z</time></trkpt><trkpt lat="42.2813741" lon="13.7098337"><ele>822.0</ele><time>2026-05-03T09:04:53.013Z</time></trkpt><trkpt lat="42.2812889" lon="13.7098764"><ele>822.0</ele><time>2026-05-03T09:04:54.013Z</time></trkpt><trkpt lat="42.2812106" lon="13.7099093"><ele>822.0</ele><time>2026-05-03T09:04:55.012Z</time></trkpt><trkpt lat="42.281129" lon="13.7099365"><ele>822.0</ele><time>2026-05-03T09:04:56.012Z</time></trkpt><trkpt lat="42.2810429" lon="13.7099631"><ele>826.2</ele><time>2026-05-03T09:04:57.012Z</time></trkpt><trkpt lat="42.2809544" lon="13.7099985"><ele>830.4000000000001</ele><time>2026-05-03T09:04:58.013Z</time></trkpt><trkpt lat="42.2808748" lon="13.7100359"><ele>834.5999999999999</ele><time>2026-05-03T09:04:59.012Z</time></trkpt><trkpt lat="42.2808034" lon="13.7100675"><ele>838.8</ele><time>2026-05-03T09:05:00.012Z</time></trkpt><trkpt lat="42.2807344" lon="13.7100908"><ele>843.0</ele><time>2026-05-03T09:05:01.013Z</time></trkpt><trkpt lat="42.2806073" lon="13.710113"><ele>844.8333333333334</ele><time>2026-05-03T09:05:03.013Z</time></trkpt><trkpt lat="42.2805282" lon="13.7101234"><ele>846.6666666666667</ele><time>2026-05-03T09:05:04.012Z</time></trkpt><trkpt lat="42.2804462" lon="13.7101317"><ele>848.5</ele><time>2026-05-03T09:05:05.013Z</time></trkpt><trkpt lat="42.2803697" lon="13.7101318"><ele>850.3333333333334</ele><time>2026-05-03T09:05:06.012Z</time></trkpt><trkpt lat="42.2802942" lon="13.7101305"><ele>852.1666666666667</ele><time>2026-05-03T09:05:07.013Z</time></trkpt><trkpt lat="42.2802228" lon="13.7101236"><ele>854.0</ele><time>2026-05-03T09:05:08.013Z</time></trkpt><trkpt lat="42.2801502" lon="13.7101312"><ele>854.0000000000001</ele><time>2026-05-03T09:05:09.013Z</time></trkpt><trkpt lat="42.2800758" lon="13.7101536"><ele>854.0</ele><time>2026-05-03T09:05:10.012Z</time></trkpt><trkpt lat="42.279997" lon="13.7101799"><ele>854.0</ele><time>2026-05-03T09:05:11.012Z</time></trkpt><trkpt lat="42.2799116" lon="13.7101879"><ele>854.0</ele><time>2026-05-03T09:05:12.012Z</time></trkpt><trkpt lat="42.2798205" lon="13.7101939"><ele>854.0000000000001</ele><time>2026-05-03T09:05:13.014Z</time></trkpt><trkpt lat="42.279728" lon="13.7102042"><ele>854.0</ele><time>2026-05-03T09:05:14.013Z</time></trkpt><trkpt lat="42.2796393" lon="13.7102056"><ele>855.1666666666667</ele><time>2026-05-03T09:05:15.014Z</time></trkpt><trkpt lat="42.2795495" lon="13.7101947"><ele>856.3333333333334</ele><time>2026-05-03T09:05:16.014Z</time></trkpt><trkpt lat="42.2794556" lon="13.7101885"><ele>857.5</ele><time>2026-05-03T09:05:17.013Z</time></trkpt><trkpt lat="42.2793609" lon="13.7101903"><ele>858.6666666666667</ele><time>2026-05-03T09:05:18.013Z</time></trkpt><trkpt lat="42.2792807" lon="13.7101882"><ele>859.8333333333334</ele><time>2026-05-03T09:05:19.013Z</time></trkpt><trkpt lat="42.2792104" lon="13.7101664"><ele>861.0</ele><time>2026-05-03T09:05:20.013Z</time></trkpt><trkpt lat="42.2791493" lon="13.7101364"><ele>861.0</ele><time>2026-05-03T09:05:21.013Z</time></trkpt><trkpt lat="42.279021" lon="13.7100837"><ele>860.9999999999999</ele><time>2026-05-03T09:05:23.014Z</time></trkpt><trkpt lat="42.278937" lon="13.7100811"><ele>860.9999999999999</ele><time>2026-05-03T09:05:24.014Z</time></trkpt><trkpt lat="42.2788445" lon="13.7100925"><ele>861.0</ele><time>2026-05-03T09:05:25.014Z</time></trkpt><trkpt lat="42.2787479" lon="13.7101054"><ele>861.0</ele><time>2026-05-03T09:05:26.014Z</time></trkpt><trkpt lat="42.278645" lon="13.7101259"><ele>863.5999999999999</ele><time>2026-05-03T09:05:27.014Z</time></trkpt><trkpt lat="42.2785402" lon="13.7101419"><ele>866.1999999999999</ele><time>2026-05-03T09:05:28.013Z</time></trkpt><trkpt lat="42.2784374" lon="13.7101543"><ele>868.8000000000001</ele><time>2026-05-03T09:05:29.013Z</time></trkpt><trkpt lat="42.2783426" lon="13.7101666"><ele>871.4000000000001</ele><time>2026-05-03T09:05:30.013Z</time></trkpt><trkpt lat="42.2782487" lon="13.7101939"><ele>874.0</ele><time>2026-05-03T09:05:31.014Z</time></trkpt><trkpt lat="42.2781557" lon="13.7102295"><ele>874.9999999999999</ele><time>2026-05-03T09:05:32.014Z</time></trkpt><trkpt lat="42.2780629" lon="13.7102533"><ele>876.0</ele><time>2026-05-03T09:05:33.014Z</time></trkpt><trkpt lat="42.2779746" lon="13.7102763"><ele>877.0</ele><time>2026-05-03T09:05:34.014Z</time></trkpt><trkpt lat="42.2778966" lon="13.7102965"><ele>878.0</ele><time>2026-05-03T09:05:35.014Z</time></trkpt><trkpt lat="42.2778245" lon="13.7103036"><ele>878.9999999999999</ele><time>2026-05-03T09:05:36.014Z</time></trkpt><trkpt lat="42.2777602" lon="13.7103032"><ele>880.0</ele><time>2026-05-03T09:05:37.014Z</time></trkpt><trkpt lat="42.2776406" lon="13.7103218"><ele>879.9999999999999</ele><time>2026-05-03T09:05:39.013Z</time></trkpt><trkpt lat="42.2775728" lon="13.7103285"><ele>880.0</ele><time>2026-05-03T09:05:40.014Z</time></trkpt><trkpt lat="42.2775007" lon="13.7103459"><ele>880.0</ele><time>2026-05-03T09:05:41.013Z</time></trkpt><trkpt lat="42.2774348" lon="13.7103692"><ele>880.0</ele><time>2026-05-03T09:05:42.014Z</time></trkpt><trkpt lat="42.2773478" lon="13.7104578"><ele>879.9999999999999</ele><time>2026-05-03T09:05:44.014Z</time></trkpt><trkpt lat="42.2772687" lon="13.7105592"><ele>880.0</ele><time>2026-05-03T09:05:46.014Z</time></trkpt><trkpt lat="42.2771992" lon="13.7105957"><ele>879.0</ele><time>2026-05-03T09:05:48.013Z</time></trkpt><trkpt lat="42.2771253" lon="13.7106048"><ele>878.0</ele><time>2026-05-03T09:05:51.014Z</time></trkpt><trkpt lat="42.2770361" lon="13.7106256"><ele>877.0</ele><time>2026-05-03T09:05:53.013Z</time></trkpt><trkpt lat="42.2769383" lon="13.7106545"><ele>876.0</ele><time>2026-05-03T09:05:55.014Z</time></trkpt><trkpt lat="42.2768384" lon="13.710702"><ele>875.0</ele><time>2026-05-03T09:05:57.014Z</time></trkpt><trkpt lat="42.276729" lon="13.710755"><ele>875.0</ele><time>2026-05-03T09:05:59.014Z</time></trkpt><trkpt lat="42.2766658" lon="13.710769"><ele>875.0</ele><time>2026-05-03T09:06:00.014Z</time></trkpt><trkpt lat="42.2765507" lon="13.7107484"><ele>875.0</ele><time>2026-05-03T09:06:02.013Z</time></trkpt><trkpt lat="42.2764389" lon="13.7106994"><ele>875.0</ele><time>2026-05-03T09:06:04.014Z</time></trkpt><trkpt lat="42.276315" lon="13.7107"><ele>875.0</ele><time>2026-05-03T09:06:06.014Z</time></trkpt><trkpt lat="42.2761992" lon="13.7107148"><ele>873.4</ele><time>2026-05-03T09:06:08.013Z</time></trkpt><trkpt lat="42.2760925" lon="13.7108331"><ele>871.8</ele><time>2026-05-03T09:06:10.014Z</time></trkpt><trkpt lat="42.2760269" lon="13.7109085"><ele>870.2</ele><time>2026-05-03T09:06:11.013Z</time></trkpt><trkpt lat="42.2759564" lon="13.7109653"><ele>868.6</ele><time>2026-05-03T09:06:12.013Z</time></trkpt><trkpt lat="42.2758776" lon="13.7110075"><ele>867.0</ele><time>2026-05-03T09:06:13.014Z</time></trkpt><trkpt lat="42.2757885" lon="13.7110387"><ele>867.0</ele><time>2026-05-03T09:06:14.014Z</time></trkpt><trkpt lat="42.2757052" lon="13.7110647"><ele>867.0</ele><time>2026-05-03T09:06:15.013Z</time></trkpt><trkpt lat="42.2756296" lon="13.711088"><ele>867.0</ele><time>2026-05-03T09:06:16.014Z</time></trkpt><trkpt lat="42.2755606" lon="13.7111162"><ele>867.0</ele><time>2026-05-03T09:06:17.013Z</time></trkpt><trkpt lat="42.2754933" lon="13.7111692"><ele>867.0</ele><time>2026-05-03T09:06:18.014Z</time></trkpt><trkpt lat="42.2754159" lon="13.7112201"><ele>867.0</ele><time>2026-05-03T09:06:19.013Z</time></trkpt><trkpt lat="42.2753351" lon="13.7112581"><ele>868.0</ele><time>2026-05-03T09:06:20.014Z</time></trkpt><trkpt lat="42.2752542" lon="13.7113023"><ele>869.0</ele><time>2026-05-03T09:06:21.014Z</time></trkpt><trkpt lat="42.2751789" lon="13.7113599"><ele>870.0</ele><time>2026-05-03T09:06:22.014Z</time></trkpt><trkpt lat="42.2751102" lon="13.711426"><ele>871.0</ele><time>2026-05-03T09:06:23.013Z</time></trkpt><trkpt lat="42.2750474" lon="13.7114936"><ele>872.0</ele><time>2026-05-03T09:06:24.014Z</time></trkpt><trkpt lat="42.274989" lon="13.7115616"><ele>873.0</ele><time>2026-05-03T09:06:25.013Z</time></trkpt><trkpt lat="42.2749307" lon="13.7116276"><ele>873.0</ele><time>2026-05-03T09:06:26.014Z</time></trkpt><trkpt lat="42.2748671" lon="13.7116994"><ele>873.0</ele><time>2026-05-03T09:06:27.013Z</time></trkpt><trkpt lat="42.2747986" lon="13.7117835"><ele>873.0</ele><time>2026-05-03T09:06:28.013Z</time></trkpt><trkpt lat="42.2747302" lon="13.7118635"><ele>873.0</ele><time>2026-05-03T09:06:29.014Z</time></trkpt><trkpt lat="42.2746591" lon="13.711934"><ele>873.0</ele><time>2026-05-03T09:06:30.014Z</time></trkpt><trkpt lat="42.274581" lon="13.7120005"><ele>873.0</ele><time>2026-05-03T09:06:31.013Z</time></trkpt><trkpt lat="42.2745085" lon="13.712074"><ele>873.1666666666666</ele><time>2026-05-03T09:06:32.014Z</time></trkpt><trkpt lat="42.274436" lon="13.7121463"><ele>873.3333333333333</ele><time>2026-05-03T09:06:33.014Z</time></trkpt><trkpt lat="42.2743663" lon="13.7121998"><ele>873.5</ele><time>2026-05-03T09:06:34.014Z</time></trkpt><trkpt lat="42.2743077" lon="13.7122338"><ele>873.6666666666666</ele><time>2026-05-03T09:06:35.013Z</time></trkpt><trkpt lat="42.2742266" lon="13.7122182"><ele>873.8333333333333</ele><time>2026-05-03T09:06:37.013Z</time></trkpt><trkpt lat="42.2741548" lon="13.7122032"><ele>874.0</ele><time>2026-05-03T09:06:39.014Z</time></trkpt><trkpt lat="42.2740915" lon="13.7122597"><ele>873.9999999999999</ele><time>2026-05-03T09:06:41.013Z</time></trkpt><trkpt lat="42.2740171" lon="13.7123658"><ele>874.0</ele><time>2026-05-03T09:06:43.013Z</time></trkpt><trkpt lat="42.2739461" lon="13.712498"><ele>874.0</ele><time>2026-05-03T09:06:45.014Z</time></trkpt><trkpt lat="42.273888" lon="13.7125669"><ele>874.0</ele><time>2026-05-03T09:06:47.013Z</time></trkpt><trkpt lat="42.2738269" lon="13.7125359"><ele>873.9999999999999</ele><time>2026-05-03T09:06:58.014Z</time></trkpt><trkpt lat="42.2738452" lon="13.7124499"><ele>874.0</ele><time>2026-05-03T09:07:06.014Z</time></trkpt><trkpt lat="42.2738476" lon="13.712321"><ele>874.9999999999999</ele><time>2026-05-03T09:07:08.014Z</time></trkpt><trkpt lat="42.2738317" lon="13.7121722"><ele>876.0</ele><time>2026-05-03T09:07:10.013Z</time></trkpt><trkpt lat="42.2738191" lon="13.7120817"><ele>877.0</ele><time>2026-05-03T09:07:11.014Z</time></trkpt><trkpt lat="42.273798" lon="13.7119812"><ele>878.0</ele><time>2026-05-03T09:07:12.013Z</time></trkpt><trkpt lat="42.2737674" lon="13.7118724"><ele>878.9999999999999</ele><time>2026-05-03T09:07:13.013Z</time></trkpt><trkpt lat="42.273731" lon="13.7117579"><ele>880.0</ele><time>2026-05-03T09:07:14.014Z</time></trkpt><trkpt lat="42.2736909" lon="13.7116428"><ele>879.9999999999999</ele><time>2026-05-03T09:07:15.014Z</time></trkpt><trkpt lat="42.2736542" lon="13.711531"><ele>880.0</ele><time>2026-05-03T09:07:16.014Z</time></trkpt><trkpt lat="42.2736169" lon="13.7114231"><ele>880.0</ele><time>2026-05-03T09:07:17.013Z</time></trkpt><trkpt lat="42.2735806" lon="13.7113149"><ele>880.0</ele><time>2026-05-03T09:07:18.013Z</time></trkpt><trkpt lat="42.2735412" lon="13.7112128"><ele>879.9999999999999</ele><time>2026-05-03T09:07:19.014Z</time></trkpt><trkpt lat="42.2734991" lon="13.7111238"><ele>880.0</ele><time>2026-05-03T09:07:20.014Z</time></trkpt><trkpt lat="42.2734555" lon="13.7110425"><ele>879.3333333333333</ele><time>2026-05-03T09:07:21.013Z</time></trkpt><trkpt lat="42.2734133" lon="13.7109574"><ele>878.6666666666666</ele><time>2026-05-03T09:07:22.014Z</time></trkpt><trkpt lat="42.2733723" lon="13.710868"><ele>878.0</ele><time>2026-05-03T09:07:23.013Z</time></trkpt><trkpt lat="42.2733311" lon="13.7107686"><ele>877.3333333333333</ele><time>2026-05-03T09:07:24.014Z</time></trkpt><trkpt lat="42.2732896" lon="13.7106705"><ele>876.6666666666666</ele><time>2026-05-03T09:07:25.013Z</time></trkpt><trkpt lat="42.2732436" lon="13.7105821"><ele>876.0</ele><time>2026-05-03T09:07:26.013Z</time></trkpt><trkpt lat="42.2731908" lon="13.7105037"><ele>876.0</ele><time>2026-05-03T09:07:27.014Z</time></trkpt><trkpt lat="42.2731388" lon="13.710448"><ele>876.0</ele><time>2026-05-03T09:07:28.014Z</time></trkpt><trkpt lat="42.2730596" lon="13.7103962"><ele>876.0</ele><time>2026-05-03T09:07:30.013Z</time></trkpt><trkpt lat="42.2729739" lon="13.7103755"><ele>876.0</ele><time>2026-05-03T09:07:32.013Z</time></trkpt><trkpt lat="42.2728699" lon="13.7103745"><ele>876.0</ele><time>2026-05-03T09:07:34.014Z</time></trkpt><trkpt lat="42.272806" lon="13.7103762"><ele>876.0</ele><time>2026-05-03T09:07:35.013Z</time></trkpt><trkpt lat="42.2727383" lon="13.7103902"><ele>877.1666666666666</ele><time>2026-05-03T09:07:36.014Z</time></trkpt><trkpt lat="42.2726686" lon="13.7104081"><ele>878.3333333333333</ele><time>2026-05-03T09:07:37.014Z</time></trkpt><trkpt lat="42.2725893" lon="13.7104208"><ele>879.5</ele><time>2026-05-03T09:07:38.014Z</time></trkpt><trkpt lat="42.2725155" lon="13.7104273"><ele>880.6666666666666</ele><time>2026-05-03T09:07:39.013Z</time></trkpt><trkpt lat="42.2724103" lon="13.7104037"><ele>881.8333333333333</ele><time>2026-05-03T09:07:41.014Z</time></trkpt><trkpt lat="42.27236" lon="13.7103141"><ele>883.0</ele><time>2026-05-03T09:07:43.014Z</time></trkpt><trkpt lat="42.2723318" lon="13.7101747"><ele>882.2</ele><time>2026-05-03T09:07:45.013Z</time></trkpt><trkpt lat="42.2722437" lon="13.7100799"><ele>881.4</ele><time>2026-05-03T09:07:47.013Z</time></trkpt><trkpt lat="42.2721786" lon="13.7100542"><ele>880.6000000000001</ele><time>2026-05-03T09:07:48.013Z</time></trkpt><trkpt lat="42.2721174" lon="13.7100266"><ele>879.8000000000001</ele><time>2026-05-03T09:07:49.014Z</time></trkpt><trkpt lat="42.2720127" lon="13.7099416"><ele>879.0</ele><time>2026-05-03T09:07:51.014Z</time></trkpt><trkpt lat="42.2719226" lon="13.7098005"><ele>879.0</ele><time>2026-05-03T09:07:53.014Z</time></trkpt><trkpt lat="42.2718719" lon="13.7097158"><ele>879.0</ele><time>2026-05-03T09:07:54.014Z</time></trkpt><trkpt lat="42.2718248" lon="13.7096364"><ele>879.0</ele><time>2026-05-03T09:07:55.014Z</time></trkpt><trkpt lat="42.271784" lon="13.7095505"><ele>879.0</ele><time>2026-05-03T09:07:56.013Z</time></trkpt><trkpt lat="42.2717546" lon="13.7094539"><ele>879.0</ele><time>2026-05-03T09:07:57.014Z</time></trkpt><trkpt lat="42.2717311" lon="13.7093422"><ele>879.0</ele><time>2026-05-03T09:07:58.013Z</time></trkpt><trkpt lat="42.2717127" lon="13.7092279"><ele>878.8571428571429</ele><time>2026-05-03T09:07:59.013Z</time></trkpt><trkpt lat="42.2716955" lon="13.7091282"><ele>878.7142857142858</ele><time>2026-05-03T09:08:00.014Z</time></trkpt><trkpt lat="42.2716758" lon="13.7090346"><ele>878.5714285714286</ele><time>2026-05-03T09:08:01.013Z</time></trkpt><trkpt lat="42.2716503" lon="13.7089425"><ele>878.4285714285714</ele><time>2026-05-03T09:08:02.013Z</time></trkpt><trkpt lat="42.2716338" lon="13.7088475"><ele>878.2857142857142</ele><time>2026-05-03T09:08:03.013Z</time></trkpt><trkpt lat="42.271619" lon="13.7087548"><ele>878.1428571428571</ele><time>2026-05-03T09:08:04.014Z</time></trkpt><trkpt lat="42.2716013" lon="13.7086627"><ele>878.0</ele><time>2026-05-03T09:08:05.013Z</time></trkpt><trkpt lat="42.2715915" lon="13.708572"><ele>877.5714285714286</ele><time>2026-05-03T09:08:06.014Z</time></trkpt><trkpt lat="42.271587" lon="13.7084816"><ele>877.1428571428571</ele><time>2026-05-03T09:08:07.014Z</time></trkpt><trkpt lat="42.2715859" lon="13.7083857"><ele>876.7142857142858</ele><time>2026-05-03T09:08:08.013Z</time></trkpt><trkpt lat="42.2715796" lon="13.7082806"><ele>876.2857142857142</ele><time>2026-05-03T09:08:09.014Z</time></trkpt><trkpt lat="42.2715795" lon="13.7081809"><ele>875.8571428571429</ele><time>2026-05-03T09:08:10.013Z</time></trkpt><trkpt lat="42.2715808" lon="13.7080833"><ele>875.4285714285714</ele><time>2026-05-03T09:08:11.013Z</time></trkpt><trkpt lat="42.2715785" lon="13.7079782"><ele>875.0</ele><time>2026-05-03T09:08:12.014Z</time></trkpt><trkpt lat="42.2715746" lon="13.7078765"><ele>875.0</ele><time>2026-05-03T09:08:13.014Z</time></trkpt><trkpt lat="42.2715616" lon="13.707776"><ele>875.0</ele><time>2026-05-03T09:08:14.013Z</time></trkpt><trkpt lat="42.2715477" lon="13.7076794"><ele>875.0</ele><time>2026-05-03T09:08:15.014Z</time></trkpt><trkpt lat="42.2715402" lon="13.7075859"><ele>875.0</ele><time>2026-05-03T09:08:16.013Z</time></trkpt><trkpt lat="42.271546" lon="13.7074995"><ele>875.0</ele><time>2026-05-03T09:08:17.014Z</time></trkpt><trkpt lat="42.2715612" lon="13.707409"><ele>875.0</ele><time>2026-05-03T09:08:18.014Z</time></trkpt><trkpt lat="42.2715802" lon="13.7073144"><ele>875.0</ele><time>2026-05-03T09:08:19.014Z</time></trkpt><trkpt lat="42.2715958" lon="13.7072193"><ele>874.2857142857143</ele><time>2026-05-03T09:08:20.014Z</time></trkpt><trkpt lat="42.2716071" lon="13.7071212"><ele>873.5714285714286</ele><time>2026-05-03T09:08:21.014Z</time></trkpt><trkpt lat="42.2716203" lon="13.7070208"><ele>872.8571428571429</ele><time>2026-05-03T09:08:22.014Z</time></trkpt><trkpt lat="42.2716351" lon="13.7069221"><ele>872.1428571428571</ele><time>2026-05-03T09:08:23.014Z</time></trkpt><trkpt lat="42.2716471" lon="13.7068211"><ele>871.4285714285714</ele><time>2026-05-03T09:08:24.013Z</time></trkpt><trkpt lat="42.2716561" lon="13.7067248"><ele>870.7142857142858</ele><time>2026-05-03T09:08:25.013Z</time></trkpt><trkpt lat="42.2716665" lon="13.7066297"><ele>870.0</ele><time>2026-05-03T09:08:26.014Z</time></trkpt><trkpt lat="42.2716776" lon="13.7065425"><ele>868.7142857142858</ele><time>2026-05-03T09:08:27.014Z</time></trkpt><trkpt lat="42.2716869" lon="13.7064535"><ele>867.4285714285714</ele><time>2026-05-03T09:08:28.013Z</time></trkpt><trkpt lat="42.2716928" lon="13.7063687"><ele>866.1428571428571</ele><time>2026-05-03T09:08:29.014Z</time></trkpt><trkpt lat="42.2716938" lon="13.7062834"><ele>864.8571428571429</ele><time>2026-05-03T09:08:30.013Z</time></trkpt><trkpt lat="42.2716973" lon="13.7061959"><ele>863.5714285714286</ele><time>2026-05-03T09:08:31.014Z</time></trkpt><trkpt lat="42.2716979" lon="13.7061055"><ele>862.2857142857143</ele><time>2026-05-03T09:08:32.013Z</time></trkpt><trkpt lat="42.2716982" lon="13.7060136"><ele>861.0</ele><time>2026-05-03T09:08:33.014Z</time></trkpt><trkpt lat="42.2717031" lon="13.7059177"><ele>859.8333333333334</ele><time>2026-05-03T09:08:34.014Z</time></trkpt><trkpt lat="42.2717011" lon="13.7058219"><ele>858.6666666666667</ele><time>2026-05-03T09:08:35.013Z</time></trkpt><trkpt lat="42.2716955" lon="13.7057209"><ele>857.5</ele><time>2026-05-03T09:08:36.014Z</time></trkpt><trkpt lat="42.2716919" lon="13.7056279"><ele>856.3333333333334</ele><time>2026-05-03T09:08:37.014Z</time></trkpt><trkpt lat="42.2716755" lon="13.7055342"><ele>855.1666666666667</ele><time>2026-05-03T09:08:38.014Z</time></trkpt><trkpt lat="42.2716539" lon="13.705451"><ele>854.0</ele><time>2026-05-03T09:08:39.013Z</time></trkpt><trkpt lat="42.271618" lon="13.7053167"><ele>853.0</ele><time>2026-05-03T09:08:41.013Z</time></trkpt><trkpt lat="42.2715734" lon="13.7052041"><ele>852.0000000000001</ele><time>2026-05-03T09:08:43.013Z</time></trkpt><trkpt lat="42.2714873" lon="13.7051377"><ele>851.0</ele><time>2026-05-03T09:08:45.014Z</time></trkpt><trkpt lat="42.2713929" lon="13.7050792"><ele>850.0</ele><time>2026-05-03T09:08:47.014Z</time></trkpt><trkpt lat="42.2713097" lon="13.704982"><ele>849.0</ele><time>2026-05-03T09:08:49.014Z</time></trkpt><trkpt lat="42.2712151" lon="13.7049012"><ele>848.0</ele><time>2026-05-03T09:08:51.013Z</time></trkpt><trkpt lat="42.2711219" lon="13.7047841"><ele>847.0</ele><time>2026-05-03T09:08:53.014Z</time></trkpt><trkpt lat="42.2710524" lon="13.7046531"><ele>846.0</ele><time>2026-05-03T09:08:55.014Z</time></trkpt><trkpt lat="42.2710199" lon="13.7045802"><ele>845.0</ele><time>2026-05-03T09:08:56.013Z</time></trkpt><trkpt lat="42.2709868" lon="13.7045076"><ele>844.0</ele><time>2026-05-03T09:08:57.014Z</time></trkpt><trkpt lat="42.2709258" lon="13.70437"><ele>842.6</ele><time>2026-05-03T09:08:59.013Z</time></trkpt><trkpt lat="42.270873" lon="13.7042367"><ele>841.2</ele><time>2026-05-03T09:09:01.013Z</time></trkpt><trkpt lat="42.2708144" lon="13.7041178"><ele>839.8000000000001</ele><time>2026-05-03T09:09:03.014Z</time></trkpt><trkpt lat="42.2707329" lon="13.704033"><ele>838.4000000000001</ele><time>2026-05-03T09:09:05.014Z</time></trkpt><trkpt lat="42.2706288" lon="13.704003"><ele>837.0</ele><time>2026-05-03T09:09:07.014Z</time></trkpt><trkpt lat="42.2705211" lon="13.7039731"><ele>836.7142857142858</ele><time>2026-05-03T09:09:09.013Z</time></trkpt><trkpt lat="42.2704511" lon="13.703951"><ele>836.4285714285714</ele><time>2026-05-03T09:09:11.013Z</time></trkpt><trkpt lat="42.270376" lon="13.7039546"><ele>836.1428571428571</ele><time>2026-05-03T09:09:13.014Z</time></trkpt><trkpt lat="42.2703098" lon="13.7039571"><ele>835.8571428571429</ele><time>2026-05-03T09:09:14.014Z</time></trkpt><trkpt lat="42.2702361" lon="13.7039587"><ele>835.5714285714286</ele><time>2026-05-03T09:09:15.014Z</time></trkpt><trkpt lat="42.2701586" lon="13.7039609"><ele>835.2857142857143</ele><time>2026-05-03T09:09:16.014Z</time></trkpt><trkpt lat="42.2700936" lon="13.7039531"><ele>835.0</ele><time>2026-05-03T09:09:17.014Z</time></trkpt><trkpt lat="42.270001" lon="13.7039003"><ele>835.0</ele><time>2026-05-03T09:09:19.013Z</time></trkpt><trkpt lat="42.2699462" lon="13.703791"><ele>835.0</ele><time>2026-05-03T09:09:21.013Z</time></trkpt><trkpt lat="42.2698545" lon="13.7036996"><ele>835.0</ele><time>2026-05-03T09:09:23.014Z</time></trkpt><trkpt lat="42.2697854" lon="13.7036613"><ele>835.0</ele><time>2026-05-03T09:09:24.014Z</time></trkpt><trkpt lat="42.2697108" lon="13.7036207"><ele>835.0</ele><time>2026-05-03T09:09:25.014Z</time></trkpt><trkpt lat="42.2696316" lon="13.7035811"><ele>833.5714285714287</ele><time>2026-05-03T09:09:26.013Z</time></trkpt><trkpt lat="42.2695584" lon="13.7035495"><ele>832.1428571428571</ele><time>2026-05-03T09:09:27.013Z</time></trkpt><trkpt lat="42.2694825" lon="13.7035227"><ele>830.7142857142858</ele><time>2026-05-03T09:09:28.014Z</time></trkpt><trkpt lat="42.2694085" lon="13.7035009"><ele>829.2857142857143</ele><time>2026-05-03T09:09:29.014Z</time></trkpt><trkpt lat="42.2693393" lon="13.7034819"><ele>827.8571428571429</ele><time>2026-05-03T09:09:30.013Z</time></trkpt><trkpt lat="42.2692767" lon="13.7034572"><ele>826.4285714285714</ele><time>2026-05-03T09:09:31.014Z</time></trkpt><trkpt lat="42.2692169" lon="13.7034298"><ele>825.0</ele><time>2026-05-03T09:09:32.014Z</time></trkpt><trkpt lat="42.2691169" lon="13.7033466"><ele>825.0</ele><time>2026-05-03T09:09:34.014Z</time></trkpt><trkpt lat="42.2690176" lon="13.7032637"><ele>825.0</ele><time>2026-05-03T09:09:36.013Z</time></trkpt><trkpt lat="42.2689115" lon="13.703203"><ele>825.0</ele><time>2026-05-03T09:09:38.013Z</time></trkpt><trkpt lat="42.2687969" lon="13.7031532"><ele>825.0</ele><time>2026-05-03T09:09:40.013Z</time></trkpt><trkpt lat="42.2686994" lon="13.7031449"><ele>823.6666666666666</ele><time>2026-05-03T09:09:42.013Z</time></trkpt><trkpt lat="42.2686342" lon="13.7031485"><ele>822.3333333333333</ele><time>2026-05-03T09:09:45.014Z</time></trkpt><trkpt lat="42.2686395" lon="13.7032616"><ele>821.0</ele><time>2026-05-03T09:09:49.013Z</time></trkpt><trkpt lat="42.2685833" lon="13.7033366"><ele>819.6666666666666</ele><time>2026-05-03T09:09:51.014Z</time></trkpt><trkpt lat="42.2685307" lon="13.7033855"><ele>818.3333333333333</ele><time>2026-05-03T09:09:52.014Z</time></trkpt><trkpt lat="42.268483" lon="13.7034468"><ele>817.0</ele><time>2026-05-03T09:09:53.013Z</time></trkpt><trkpt lat="42.2684081" lon="13.7035585"><ele>816.9999999999999</ele><time>2026-05-03T09:09:55.014Z</time></trkpt><trkpt lat="42.2683698" lon="13.7036422"><ele>817.0</ele><time>2026-05-03T09:09:57.014Z</time></trkpt><trkpt lat="42.2683243" lon="13.7037354"><ele>817.0</ele><time>2026-05-03T09:10:00.014Z</time></trkpt><trkpt lat="42.2682693" lon="13.7038348"><ele>817.0</ele><time>2026-05-03T09:10:03.013Z</time></trkpt><trkpt lat="42.2682112" lon="13.7039294"><ele>816.9999999999999</ele><time>2026-05-03T09:10:05.014Z</time></trkpt><trkpt lat="42.2681515" lon="13.704056"><ele>817.0</ele><time>2026-05-03T09:10:07.014Z</time></trkpt><trkpt lat="42.2681078" lon="13.7042067"><ele>817.0</ele><time>2026-05-03T09:10:09.014Z</time></trkpt><trkpt lat="42.2680909" lon="13.7042937"><ele>817.0</ele><time>2026-05-03T09:10:10.014Z</time></trkpt><trkpt lat="42.2680658" lon="13.7043803"><ele>817.0</ele><time>2026-05-03T09:10:11.013Z</time></trkpt><trkpt lat="42.2680106" lon="13.7045346"><ele>817.0</ele><time>2026-05-03T09:10:13.013Z</time></trkpt><trkpt lat="42.2679824" lon="13.7046809"><ele>817.0</ele><time>2026-05-03T09:10:15.014Z</time></trkpt><trkpt lat="42.2679732" lon="13.7048004"><ele>817.0</ele><time>2026-05-03T09:10:18.013Z</time></trkpt><trkpt lat="42.2679118" lon="13.7048393"><ele>817.0</ele><time>2026-05-03T09:10:28.013Z</time></trkpt><trkpt lat="42.2679047" lon="13.704713"><ele>817.0</ele><time>2026-05-03T09:10:30.014Z</time></trkpt><trkpt lat="42.2678956" lon="13.7045714"><ele>817.0</ele><time>2026-05-03T09:10:32.014Z</time></trkpt><trkpt lat="42.2678833" lon="13.7044165"><ele>817.0</ele><time>2026-05-03T09:10:34.014Z</time></trkpt><trkpt lat="42.2678526" lon="13.7042586"><ele>817.0</ele><time>2026-05-03T09:10:36.013Z</time></trkpt><trkpt lat="42.2677856" lon="13.7041745"><ele>817.0</ele><time>2026-05-03T09:10:38.013Z</time></trkpt><trkpt lat="42.2676862" lon="13.7041532"><ele>817.0</ele><time>2026-05-03T09:10:40.013Z</time></trkpt><trkpt lat="42.2676222" lon="13.7041461"><ele>817.0</ele><time>2026-05-03T09:10:41.014Z</time></trkpt><trkpt lat="42.2675138" lon="13.7040769"><ele>817.0</ele><time>2026-05-03T09:10:43.013Z</time></trkpt><trkpt lat="42.2674514" lon="13.7040091"><ele>816.9999999999999</ele><time>2026-05-03T09:10:44.013Z</time></trkpt><trkpt lat="42.2673885" lon="13.7039353"><ele>817.0</ele><time>2026-05-03T09:10:45.014Z</time></trkpt><trkpt lat="42.267323" lon="13.7038606"><ele>817.0</ele><time>2026-05-03T09:10:46.013Z</time></trkpt><trkpt lat="42.2672524" lon="13.7037811"><ele>817.0</ele><time>2026-05-03T09:10:47.014Z</time></trkpt><trkpt lat="42.2671781" lon="13.7037072"><ele>816.9999999999999</ele><time>2026-05-03T09:10:48.014Z</time></trkpt><trkpt lat="42.2671055" lon="13.7036233"><ele>817.0</ele><time>2026-05-03T09:10:49.014Z</time></trkpt><trkpt lat="42.2670386" lon="13.7035379"><ele>816.1666666666666</ele><time>2026-05-03T09:10:50.014Z</time></trkpt><trkpt lat="42.2669774" lon="13.7034551"><ele>815.3333333333333</ele><time>2026-05-03T09:10:51.014Z</time></trkpt><trkpt lat="42.266913" lon="13.7033674"><ele>814.5</ele><time>2026-05-03T09:10:52.013Z</time></trkpt><trkpt lat="42.2668524" lon="13.7032804"><ele>813.6666666666667</ele><time>2026-05-03T09:10:53.014Z</time></trkpt><trkpt lat="42.2667996" lon="13.7031956"><ele>812.8333333333334</ele><time>2026-05-03T09:10:54.014Z</time></trkpt><trkpt lat="42.2667584" lon="13.703114"><ele>812.0</ele><time>2026-05-03T09:10:55.013Z</time></trkpt><trkpt lat="42.2667232" lon="13.7030369"><ele>812.0000000000001</ele><time>2026-05-03T09:10:56.014Z</time></trkpt><trkpt lat="42.2666543" lon="13.7029252"><ele>812.0</ele><time>2026-05-03T09:10:58.013Z</time></trkpt><trkpt lat="42.2665714" lon="13.7029044"><ele>812.0</ele><time>2026-05-03T09:11:00.013Z</time></trkpt><trkpt lat="42.2664788" lon="13.7029624"><ele>812.0</ele><time>2026-05-03T09:11:02.013Z</time></trkpt><trkpt lat="42.2664223" lon="13.7030009"><ele>812.0000000000001</ele><time>2026-05-03T09:11:03.014Z</time></trkpt><trkpt lat="42.2663568" lon="13.7030401"><ele>812.0</ele><time>2026-05-03T09:11:04.014Z</time></trkpt><trkpt lat="42.2662897" lon="13.7030805"><ele>811.0000000000001</ele><time>2026-05-03T09:11:05.014Z</time></trkpt><trkpt lat="42.2662206" lon="13.7031288"><ele>810.0</ele><time>2026-05-03T09:11:06.014Z</time></trkpt><trkpt lat="42.2661512" lon="13.7031889"><ele>809.0</ele><time>2026-05-03T09:11:07.014Z</time></trkpt><trkpt lat="42.2660829" lon="13.7032448"><ele>808.0</ele><time>2026-05-03T09:11:08.013Z</time></trkpt><trkpt lat="42.2660127" lon="13.7033027"><ele>807.0000000000001</ele><time>2026-05-03T09:11:09.013Z</time></trkpt><trkpt lat="42.2659425" lon="13.7033546"><ele>806.0</ele><time>2026-05-03T09:11:10.013Z</time></trkpt><trkpt lat="42.2658697" lon="13.7033937"><ele>806.0</ele><time>2026-05-03T09:11:11.014Z</time></trkpt><trkpt lat="42.2657884" lon="13.703424"><ele>806.0</ele><time>2026-05-03T09:11:12.014Z</time></trkpt><trkpt lat="42.2656966" lon="13.7034407"><ele>806.0</ele><time>2026-05-03T09:11:13.014Z</time></trkpt><trkpt lat="42.2655934" lon="13.703445"><ele>806.0</ele><time>2026-05-03T09:11:14.013Z</time></trkpt><trkpt lat="42.2654848" lon="13.7034492"><ele>806.0</ele><time>2026-05-03T09:11:15.013Z</time></trkpt><trkpt lat="42.2653711" lon="13.7034525"><ele>805.8</ele><time>2026-05-03T09:11:16.014Z</time></trkpt><trkpt lat="42.2652542" lon="13.7034584"><ele>805.5999999999999</ele><time>2026-05-03T09:11:17.014Z</time></trkpt><trkpt lat="42.2651385" lon="13.7034672"><ele>805.4</ele><time>2026-05-03T09:11:18.013Z</time></trkpt><trkpt lat="42.265031" lon="13.7034792"><ele>805.2</ele><time>2026-05-03T09:11:19.014Z</time></trkpt><trkpt lat="42.2649288" lon="13.7034862"><ele>805.0</ele><time>2026-05-03T09:11:20.013Z</time></trkpt><trkpt lat="42.2648287" lon="13.7034835"><ele>805.4</ele><time>2026-05-03T09:11:21.014Z</time></trkpt><trkpt lat="42.2647254" lon="13.7034624"><ele>805.8</ele><time>2026-05-03T09:11:22.014Z</time></trkpt><trkpt lat="42.2646226" lon="13.7034293"><ele>806.2</ele><time>2026-05-03T09:11:23.014Z</time></trkpt><trkpt lat="42.2645211" lon="13.7033857"><ele>806.6</ele><time>2026-05-03T09:11:24.014Z</time></trkpt><trkpt lat="42.2644209" lon="13.7033375"><ele>807.0</ele><time>2026-05-03T09:11:25.014Z</time></trkpt><trkpt lat="42.2643318" lon="13.7032899"><ele>807.0000000000001</ele><time>2026-05-03T09:11:26.014Z</time></trkpt><trkpt lat="42.2642522" lon="13.7032421"><ele>807.0</ele><time>2026-05-03T09:11:27.013Z</time></trkpt><trkpt lat="42.2641842" lon="13.7031944"><ele>807.0</ele><time>2026-05-03T09:11:28.014Z</time></trkpt><trkpt lat="42.2641209" lon="13.7031475"><ele>807.0</ele><time>2026-05-03T09:11:29.013Z</time></trkpt><trkpt lat="42.264066" lon="13.703095"><ele>807.0</ele><time>2026-05-03T09:11:30.014Z</time></trkpt><trkpt lat="42.264016" lon="13.7030305"><ele>807.0000000000001</ele><time>2026-05-03T09:11:31.013Z</time></trkpt><trkpt lat="42.2639733" lon="13.7029522"><ele>807.0</ele><time>2026-05-03T09:11:32.014Z</time></trkpt><trkpt lat="42.2639324" lon="13.7028653"><ele>806.6666666666666</ele><time>2026-05-03T09:11:33.014Z</time></trkpt><trkpt lat="42.2638957" lon="13.7027784"><ele>806.3333333333333</ele><time>2026-05-03T09:11:34.013Z</time></trkpt><trkpt lat="42.2638615" lon="13.7026847"><ele>806.0</ele><time>2026-05-03T09:11:35.014Z</time></trkpt><trkpt lat="42.2638277" lon="13.7025838"><ele>805.6666666666666</ele><time>2026-05-03T09:11:36.014Z</time></trkpt><trkpt lat="42.2637947" lon="13.702488"><ele>805.3333333333333</ele><time>2026-05-03T09:11:37.014Z</time></trkpt><trkpt lat="42.2637644" lon="13.7023932"><ele>805.0</ele><time>2026-05-03T09:11:38.014Z</time></trkpt><trkpt lat="42.263737" lon="13.7023022"><ele>805.0</ele><time>2026-05-03T09:11:39.013Z</time></trkpt><trkpt lat="42.2637087" lon="13.7022197"><ele>805.0</ele><time>2026-05-03T09:11:40.013Z</time></trkpt><trkpt lat="42.2636791" lon="13.702139"><ele>805.0</ele><time>2026-05-03T09:11:41.013Z</time></trkpt><trkpt lat="42.2636387" lon="13.7020658"><ele>805.0</ele><time>2026-05-03T09:11:42.014Z</time></trkpt><trkpt lat="42.2635882" lon="13.7019934"><ele>805.0</ele><time>2026-05-03T09:11:43.014Z</time></trkpt><trkpt lat="42.2635339" lon="13.7019227"><ele>805.0</ele><time>2026-05-03T09:11:44.014Z</time></trkpt><trkpt lat="42.2634861" lon="13.7018421"><ele>805.0</ele><time>2026-05-03T09:11:45.013Z</time></trkpt><trkpt lat="42.2634397" lon="13.7017664"><ele>804.6666666666666</ele><time>2026-05-03T09:11:46.014Z</time></trkpt><trkpt lat="42.2633929" lon="13.701703"><ele>804.3333333333333</ele><time>2026-05-03T09:11:47.013Z</time></trkpt><trkpt lat="42.2633074" lon="13.7016387"><ele>804.0</ele><time>2026-05-03T09:11:49.013Z</time></trkpt><trkpt lat="42.2632102" lon="13.7016612"><ele>803.6666666666667</ele><time>2026-05-03T09:11:51.014Z</time></trkpt><trkpt lat="42.2631369" lon="13.701669"><ele>803.3333333333334</ele><time>2026-05-03T09:11:52.013Z</time></trkpt><trkpt lat="42.2630449" lon="13.7016677"><ele>803.0</ele><time>2026-05-03T09:11:53.014Z</time></trkpt><trkpt lat="42.2629544" lon="13.7016871"><ele>804.0</ele><time>2026-05-03T09:11:54.013Z</time></trkpt><trkpt lat="42.2628736" lon="13.7017347"><ele>805.0</ele><time>2026-05-03T09:11:55.013Z</time></trkpt><trkpt lat="42.2627784" lon="13.7018116"><ele>806.0</ele><time>2026-05-03T09:11:56.013Z</time></trkpt><trkpt lat="42.2626847" lon="13.7018995"><ele>807.0</ele><time>2026-05-03T09:11:57.012Z</time></trkpt><trkpt lat="42.2625868" lon="13.7019829"><ele>808.0</ele><time>2026-05-03T09:11:58.013Z</time></trkpt><trkpt lat="42.2624836" lon="13.7020635"><ele>808.0</ele><time>2026-05-03T09:11:59.013Z</time></trkpt><trkpt lat="42.2623749" lon="13.7021279"><ele>808.0</ele><time>2026-05-03T09:12:00.013Z</time></trkpt><trkpt lat="42.2622602" lon="13.7021925"><ele>808.0</ele><time>2026-05-03T09:12:01.012Z</time></trkpt><trkpt lat="42.262145" lon="13.7022668"><ele>808.0</ele><time>2026-05-03T09:12:02.012Z</time></trkpt><trkpt lat="42.2620366" lon="13.7023643"><ele>809.5</ele><time>2026-05-03T09:12:03.013Z</time></trkpt><trkpt lat="42.2619305" lon="13.7024683"><ele>811.0</ele><time>2026-05-03T09:12:04.013Z</time></trkpt><trkpt lat="42.2618188" lon="13.7025706"><ele>812.5</ele><time>2026-05-03T09:12:05.013Z</time></trkpt><trkpt lat="42.2617092" lon="13.7026796"><ele>814.0</ele><time>2026-05-03T09:12:06.012Z</time></trkpt><trkpt lat="42.2616086" lon="13.7027895"><ele>814.0</ele><time>2026-05-03T09:12:07.013Z</time></trkpt><trkpt lat="42.2615035" lon="13.7028759"><ele>814.0</ele><time>2026-05-03T09:12:08.013Z</time></trkpt><trkpt lat="42.2614003" lon="13.7029568"><ele>814.0</ele><time>2026-05-03T09:12:09.012Z</time></trkpt><trkpt lat="42.261295" lon="13.7030336"><ele>814.0</ele><time>2026-05-03T09:12:10.012Z</time></trkpt><trkpt lat="42.2611846" lon="13.7031087"><ele>818.0</ele><time>2026-05-03T09:12:11.012Z</time></trkpt><trkpt lat="42.2610709" lon="13.703179"><ele>822.0</ele><time>2026-05-03T09:12:12.013Z</time></trkpt><trkpt lat="42.2609524" lon="13.7032589"><ele>826.0</ele><time>2026-05-03T09:12:13.013Z</time></trkpt><trkpt lat="42.2608299" lon="13.7033254"><ele>830.0</ele><time>2026-05-03T09:12:14.013Z</time></trkpt><trkpt lat="42.2607051" lon="13.7033772"><ele>830.0</ele><time>2026-05-03T09:12:15.012Z</time></trkpt><trkpt lat="42.2605758" lon="13.7034251"><ele>830.0</ele><time>2026-05-03T09:12:16.013Z</time></trkpt><trkpt lat="42.26045" lon="13.7034604"><ele>830.0</ele><time>2026-05-03T09:12:17.012Z</time></trkpt><trkpt lat="42.2603223" lon="13.7034893"><ele>830.0</ele><time>2026-05-03T09:12:18.012Z</time></trkpt><trkpt lat="42.2601956" lon="13.703519"><ele>830.0000000000001</ele><time>2026-05-03T09:12:19.013Z</time></trkpt><trkpt lat="42.2600873" lon="13.7035417"><ele>830.0</ele><time>2026-05-03T09:12:20.012Z</time></trkpt><trkpt lat="42.2600166" lon="13.7035461"><ele>830.0</ele><time>2026-05-03T09:12:21.013Z</time></trkpt><trkpt lat="42.2599545" lon="13.7034977"><ele>830.0</ele><time>2026-05-03T09:12:24.012Z</time></trkpt><trkpt lat="42.2599274" lon="13.7034131"><ele>830.0000000000001</ele><time>2026-05-03T09:12:36.013Z</time></trkpt><trkpt lat="42.2598973" lon="13.7032652"><ele>830.0</ele><time>2026-05-03T09:12:45.013Z</time></trkpt><trkpt lat="42.2598851" lon="13.7031008"><ele>830.0</ele><time>2026-05-03T09:12:47.012Z</time></trkpt><trkpt lat="42.2598754" lon="13.7030154"><ele>830.0</ele><time>2026-05-03T09:12:48.012Z</time></trkpt><trkpt lat="42.2598684" lon="13.7029254"><ele>830.0</ele><time>2026-05-03T09:12:49.012Z</time></trkpt><trkpt lat="42.259861" lon="13.702835"><ele>830.0</ele><time>2026-05-03T09:12:50.013Z</time></trkpt><trkpt lat="42.2598556" lon="13.7027412"><ele>830.0</ele><time>2026-05-03T09:12:51.012Z</time></trkpt><trkpt lat="42.259851" lon="13.7026429"><ele>830.0</ele><time>2026-05-03T09:12:52.013Z</time></trkpt><trkpt lat="42.2598436" lon="13.7025422"><ele>830.0</ele><time>2026-05-03T09:12:53.012Z</time></trkpt><trkpt lat="42.259837" lon="13.7024402"><ele>831.1666666666667</ele><time>2026-05-03T09:12:54.013Z</time></trkpt><trkpt lat="42.2598411" lon="13.7023375"><ele>832.3333333333334</ele><time>2026-05-03T09:12:55.013Z</time></trkpt><trkpt lat="42.2598543" lon="13.7022314"><ele>833.5</ele><time>2026-05-03T09:12:56.012Z</time></trkpt><trkpt lat="42.2598666" lon="13.7021262"><ele>834.6666666666667</ele><time>2026-05-03T09:12:57.013Z</time></trkpt><trkpt lat="42.2598771" lon="13.7020187"><ele>835.8333333333334</ele><time>2026-05-03T09:12:58.013Z</time></trkpt><trkpt lat="42.2598875" lon="13.7019108"><ele>837.0</ele><time>2026-05-03T09:12:59.012Z</time></trkpt><trkpt lat="42.2598931" lon="13.7018042"><ele>836.1428571428571</ele><time>2026-05-03T09:13:00.013Z</time></trkpt><trkpt lat="42.2598899" lon="13.7016983"><ele>835.2857142857143</ele><time>2026-05-03T09:13:01.013Z</time></trkpt><trkpt lat="42.2598705" lon="13.7016001"><ele>834.4285714285713</ele><time>2026-05-03T09:13:02.012Z</time></trkpt><trkpt lat="42.2598385" lon="13.7015138"><ele>833.5714285714286</ele><time>2026-05-03T09:13:03.012Z</time></trkpt><trkpt lat="42.2598035" lon="13.7014397"><ele>832.7142857142857</ele><time>2026-05-03T09:13:04.012Z</time></trkpt><trkpt lat="42.2597486" lon="13.7013815"><ele>831.8571428571428</ele><time>2026-05-03T09:13:05.012Z</time></trkpt><trkpt lat="42.2596924" lon="13.7013404"><ele>831.0</ele><time>2026-05-03T09:13:06.012Z</time></trkpt><trkpt lat="42.2596258" lon="13.7013017"><ele>831.0</ele><time>2026-05-03T09:13:07.012Z</time></trkpt><trkpt lat="42.2595563" lon="13.7012621"><ele>831.0</ele><time>2026-05-03T09:13:08.013Z</time></trkpt><trkpt lat="42.2594801" lon="13.7012154"><ele>831.0</ele><time>2026-05-03T09:13:09.013Z</time></trkpt><trkpt lat="42.2593993" lon="13.7011628"><ele>831.0</ele><time>2026-05-03T09:13:10.013Z</time></trkpt><trkpt lat="42.2593134" lon="13.7011015"><ele>831.0</ele><time>2026-05-03T09:13:11.013Z</time></trkpt><trkpt lat="42.2592251" lon="13.7010431"><ele>831.0</ele><time>2026-05-03T09:13:12.013Z</time></trkpt><trkpt lat="42.2591387" lon="13.7009932"><ele>835.0</ele><time>2026-05-03T09:13:13.013Z</time></trkpt><trkpt lat="42.2590512" lon="13.7009559"><ele>839.0</ele><time>2026-05-03T09:13:14.013Z</time></trkpt><trkpt lat="42.2589637" lon="13.7009166"><ele>843.0</ele><time>2026-05-03T09:13:15.013Z</time></trkpt><trkpt lat="42.2588758" lon="13.700869"><ele>847.0</ele><time>2026-05-03T09:13:16.013Z</time></trkpt><trkpt lat="42.2587851" lon="13.7008225"><ele>851.0</ele><time>2026-05-03T09:13:17.013Z</time></trkpt><trkpt lat="42.2586972" lon="13.7007784"><ele>851.0</ele><time>2026-05-03T09:13:18.013Z</time></trkpt><trkpt lat="42.2586059" lon="13.7007393"><ele>851.0</ele><time>2026-05-03T09:13:19.012Z</time></trkpt><trkpt lat="42.2585136" lon="13.7006976"><ele>851.0</ele><time>2026-05-03T09:13:20.012Z</time></trkpt><trkpt lat="42.258423" lon="13.7006589"><ele>851.0</ele><time>2026-05-03T09:13:21.012Z</time></trkpt><trkpt lat="42.2583327" lon="13.7006271"><ele>851.0</ele><time>2026-05-03T09:13:22.013Z</time></trkpt><trkpt lat="42.2582432" lon="13.7005978"><ele>851.0</ele><time>2026-05-03T09:13:23.013Z</time></trkpt><trkpt lat="42.2581483" lon="13.7005688"><ele>851.0</ele><time>2026-05-03T09:13:24.012Z</time></trkpt><trkpt lat="42.2580565" lon="13.7005537"><ele>851.0</ele><time>2026-05-03T09:13:25.013Z</time></trkpt><trkpt lat="42.2579622" lon="13.7005439"><ele>851.0</ele><time>2026-05-03T09:13:26.013Z</time></trkpt><trkpt lat="42.2578682" lon="13.700542"><ele>851.0</ele><time>2026-05-03T09:13:27.013Z</time></trkpt><trkpt lat="42.2577758" lon="13.7005482"><ele>852.3333333333334</ele><time>2026-05-03T09:13:28.013Z</time></trkpt><trkpt lat="42.2576879" lon="13.7005676"><ele>853.6666666666667</ele><time>2026-05-03T09:13:29.012Z</time></trkpt><trkpt lat="42.2576026" lon="13.700605"><ele>855.0</ele><time>2026-05-03T09:13:30.012Z</time></trkpt><trkpt lat="42.2575198" lon="13.700649"><ele>856.3333333333333</ele><time>2026-05-03T09:13:31.013Z</time></trkpt><trkpt lat="42.2574373" lon="13.7007003"><ele>857.6666666666666</ele><time>2026-05-03T09:13:32.012Z</time></trkpt><trkpt lat="42.2573547" lon="13.7007501"><ele>859.0</ele><time>2026-05-03T09:13:33.013Z</time></trkpt><trkpt lat="42.2572734" lon="13.7007889"><ele>860.8000000000001</ele><time>2026-05-03T09:13:34.012Z</time></trkpt><trkpt lat="42.25721" lon="13.7008098"><ele>862.6000000000001</ele><time>2026-05-03T09:13:35.012Z</time></trkpt><trkpt lat="42.2571407" lon="13.7007692"><ele>864.4</ele><time>2026-05-03T09:13:37.013Z</time></trkpt><trkpt lat="42.2571435" lon="13.7006459"><ele>866.2</ele><time>2026-05-03T09:13:39.013Z</time></trkpt><trkpt lat="42.2571183" lon="13.7004929"><ele>868.0</ele><time>2026-05-03T09:13:41.013Z</time></trkpt><trkpt lat="42.2570717" lon="13.7003503"><ele>868.0</ele><time>2026-05-03T09:13:43.013Z</time></trkpt><trkpt lat="42.25704" lon="13.7002275"><ele>868.0</ele><time>2026-05-03T09:13:45.012Z</time></trkpt><trkpt lat="42.2569925" lon="13.7001533"><ele>868.0</ele><time>2026-05-03T09:13:53.013Z</time></trkpt><trkpt lat="42.2568619" lon="13.7001751"><ele>868.0</ele><time>2026-05-03T09:13:55.012Z</time></trkpt><trkpt lat="42.2567847" lon="13.7002151"><ele>868.0</ele><time>2026-05-03T09:13:56.012Z</time></trkpt><trkpt lat="42.2566971" lon="13.7002577"><ele>868.0</ele><time>2026-05-03T09:13:57.012Z</time></trkpt><trkpt lat="42.2566074" lon="13.7002978"><ele>868.0</ele><time>2026-05-03T09:13:58.013Z</time></trkpt><trkpt lat="42.256516" lon="13.7003372"><ele>868.0</ele><time>2026-05-03T09:13:59.013Z</time></trkpt><trkpt lat="42.2564246" lon="13.7003832"><ele>868.0</ele><time>2026-05-03T09:14:00.012Z</time></trkpt><trkpt lat="42.2563372" lon="13.7004345"><ele>868.0</ele><time>2026-05-03T09:14:01.013Z</time></trkpt><trkpt lat="42.2562478" lon="13.7004974"><ele>864.8</ele><time>2026-05-03T09:14:02.012Z</time></trkpt><trkpt lat="42.256152" lon="13.7005649"><ele>861.5999999999999</ele><time>2026-05-03T09:14:03.012Z</time></trkpt><trkpt lat="42.2560536" lon="13.7006359"><ele>858.4000000000001</ele><time>2026-05-03T09:14:04.012Z</time></trkpt><trkpt lat="42.255956" lon="13.700706"><ele>855.2</ele><time>2026-05-03T09:14:05.013Z</time></trkpt><trkpt lat="42.255864" lon="13.7007751"><ele>852.0</ele><time>2026-05-03T09:14:06.013Z</time></trkpt><trkpt lat="42.2557698" lon="13.7008387"><ele>852.0</ele><time>2026-05-03T09:14:07.012Z</time></trkpt><trkpt lat="42.2556716" lon="13.7009042"><ele>852.0</ele><time>2026-05-03T09:14:08.012Z</time></trkpt><trkpt lat="42.2555732" lon="13.7009681"><ele>852.0</ele><time>2026-05-03T09:14:09.012Z</time></trkpt><trkpt lat="42.2554778" lon="13.7010365"><ele>852.0</ele><time>2026-05-03T09:14:10.013Z</time></trkpt><trkpt lat="42.2553795" lon="13.7011029"><ele>852.0</ele><time>2026-05-03T09:14:11.012Z</time></trkpt><trkpt lat="42.2552805" lon="13.7011603"><ele>851.6</ele><time>2026-05-03T09:14:12.013Z</time></trkpt><trkpt lat="42.2551784" lon="13.7011987"><ele>851.2</ele><time>2026-05-03T09:14:13.013Z</time></trkpt><trkpt lat="42.2550711" lon="13.7012306"><ele>850.8</ele><time>2026-05-03T09:14:14.013Z</time></trkpt><trkpt lat="42.2549641" lon="13.7012551"><ele>850.4</ele><time>2026-05-03T09:14:15.012Z</time></trkpt><trkpt lat="42.2548586" lon="13.7012777"><ele>850.0</ele><time>2026-05-03T09:14:16.013Z</time></trkpt><trkpt lat="42.2547534" lon="13.7012993"><ele>850.0</ele><time>2026-05-03T09:14:17.013Z</time></trkpt><trkpt lat="42.2546483" lon="13.7013147"><ele>850.0</ele><time>2026-05-03T09:14:18.012Z</time></trkpt><trkpt lat="42.2545456" lon="13.7013209"><ele>850.0</ele><time>2026-05-03T09:14:19.012Z</time></trkpt><trkpt lat="42.2544443" lon="13.7013227"><ele>850.0</ele><time>2026-05-03T09:14:20.012Z</time></trkpt><trkpt lat="42.2543432" lon="13.7013136"><ele>850.0</ele><time>2026-05-03T09:14:21.012Z</time></trkpt><trkpt lat="42.2542417" lon="13.7013065"><ele>850.0</ele><time>2026-05-03T09:14:22.012Z</time></trkpt><trkpt lat="42.2541401" lon="13.7013048"><ele>850.0</ele><time>2026-05-03T09:14:23.013Z</time></trkpt><trkpt lat="42.2540363" lon="13.7013038"><ele>850.0</ele><time>2026-05-03T09:14:24.012Z</time></trkpt><trkpt lat="42.2539376" lon="13.7013035"><ele>850.0</ele><time>2026-05-03T09:14:25.013Z</time></trkpt><trkpt lat="42.2538446" lon="13.7013193"><ele>850.0</ele><time>2026-05-03T09:14:26.012Z</time></trkpt><trkpt lat="42.2537583" lon="13.7013637"><ele>846.0</ele><time>2026-05-03T09:14:27.013Z</time></trkpt><trkpt lat="42.2536696" lon="13.7014155"><ele>842.0</ele><time>2026-05-03T09:14:28.012Z</time></trkpt><trkpt lat="42.2535759" lon="13.7014563"><ele>838.0</ele><time>2026-05-03T09:14:29.012Z</time></trkpt><trkpt lat="42.2534836" lon="13.7014976"><ele>834.0</ele><time>2026-05-03T09:14:30.013Z</time></trkpt><trkpt lat="42.2533906" lon="13.701555"><ele>830.0</ele><time>2026-05-03T09:14:31.012Z</time></trkpt><trkpt lat="42.2533018" lon="13.7016313"><ele>830.0</ele><time>2026-05-03T09:14:32.013Z</time></trkpt><trkpt lat="42.2532155" lon="13.7017211"><ele>830.0</ele><time>2026-05-03T09:14:33.013Z</time></trkpt><trkpt lat="42.253135" lon="13.7018099"><ele>830.0</ele><time>2026-05-03T09:14:34.013Z</time></trkpt><trkpt lat="42.2530456" lon="13.7018892"><ele>830.0</ele><time>2026-05-03T09:14:35.013Z</time></trkpt><trkpt lat="42.2529559" lon="13.7019689"><ele>830.0</ele><time>2026-05-03T09:14:36.013Z</time></trkpt><trkpt lat="42.2528635" lon="13.7020522"><ele>828.25</ele><time>2026-05-03T09:14:37.013Z</time></trkpt><trkpt lat="42.2527732" lon="13.7021404"><ele>826.5</ele><time>2026-05-03T09:14:38.013Z</time></trkpt><trkpt lat="42.252678" lon="13.7022262"><ele>824.75</ele><time>2026-05-03T09:14:39.013Z</time></trkpt><trkpt lat="42.2525842" lon="13.7023116"><ele>823.0</ele><time>2026-05-03T09:14:40.012Z</time></trkpt><trkpt lat="42.2524902" lon="13.7023937"><ele>823.0</ele><time>2026-05-03T09:14:41.012Z</time></trkpt><trkpt lat="42.2524004" lon="13.7024818"><ele>823.0</ele><time>2026-05-03T09:14:42.013Z</time></trkpt><trkpt lat="42.2523124" lon="13.7025702"><ele>823.0</ele><time>2026-05-03T09:14:43.012Z</time></trkpt><trkpt lat="42.2522242" lon="13.702654"><ele>823.0</ele><time>2026-05-03T09:14:44.012Z</time></trkpt><trkpt lat="42.2521346" lon="13.7027315"><ele>823.0</ele><time>2026-05-03T09:14:45.012Z</time></trkpt><trkpt lat="42.2520427" lon="13.702805"><ele>822.5999999999999</ele><time>2026-05-03T09:14:46.012Z</time></trkpt><trkpt lat="42.2519492" lon="13.702871"><ele>822.1999999999999</ele><time>2026-05-03T09:14:47.013Z</time></trkpt><trkpt lat="42.2518527" lon="13.7029198"><ele>821.8</ele><time>2026-05-03T09:14:48.013Z</time></trkpt><trkpt lat="42.2517553" lon="13.702952"><ele>821.4</ele><time>2026-05-03T09:14:49.013Z</time></trkpt><trkpt lat="42.25166" lon="13.7029721"><ele>821.0</ele><time>2026-05-03T09:14:50.012Z</time></trkpt><trkpt lat="42.2515672" lon="13.7029885"><ele>821.0</ele><time>2026-05-03T09:14:51.013Z</time></trkpt><trkpt lat="42.2514718" lon="13.7030066"><ele>821.0</ele><time>2026-05-03T09:14:52.013Z</time></trkpt><trkpt lat="42.2513767" lon="13.7030188"><ele>821.0</ele><time>2026-05-03T09:14:53.013Z</time></trkpt><trkpt lat="42.2512875" lon="13.7030233"><ele>821.0</ele><time>2026-05-03T09:14:54.012Z</time></trkpt><trkpt lat="42.2511984" lon="13.7030243"><ele>821.0</ele><time>2026-05-03T09:14:55.012Z</time></trkpt><trkpt lat="42.2511151" lon="13.7030267"><ele>819.4</ele><time>2026-05-03T09:14:56.012Z</time></trkpt><trkpt lat="42.2510285" lon="13.7030529"><ele>817.8</ele><time>2026-05-03T09:14:57.013Z</time></trkpt><trkpt lat="42.2509466" lon="13.7031008"><ele>816.1999999999999</ele><time>2026-05-03T09:14:58.012Z</time></trkpt><trkpt lat="42.250861" lon="13.7031614"><ele>814.5999999999999</ele><time>2026-05-03T09:14:59.013Z</time></trkpt><trkpt lat="42.2507742" lon="13.7032252"><ele>813.0</ele><time>2026-05-03T09:15:00.013Z</time></trkpt><trkpt lat="42.2506848" lon="13.7033023"><ele>812.0</ele><time>2026-05-03T09:15:01.013Z</time></trkpt><trkpt lat="42.2505895" lon="13.7033743"><ele>811.0</ele><time>2026-05-03T09:15:02.012Z</time></trkpt><trkpt lat="42.2505019" lon="13.7034561"><ele>810.0</ele><time>2026-05-03T09:15:03.013Z</time></trkpt><trkpt lat="42.2504106" lon="13.7035432"><ele>809.0</ele><time>2026-05-03T09:15:04.012Z</time></trkpt><trkpt lat="42.2503259" lon="13.703639"><ele>808.0</ele><time>2026-05-03T09:15:05.012Z</time></trkpt><trkpt lat="42.2502537" lon="13.703737"><ele>807.9999999999999</ele><time>2026-05-03T09:15:06.012Z</time></trkpt><trkpt lat="42.2501841" lon="13.7038253"><ele>808.0</ele><time>2026-05-03T09:15:07.013Z</time></trkpt><trkpt lat="42.2501204" lon="13.7039039"><ele>808.0</ele><time>2026-05-03T09:15:08.012Z</time></trkpt><trkpt lat="42.2500716" lon="13.7039673"><ele>808.0</ele><time>2026-05-03T09:15:09.012Z</time></trkpt><trkpt lat="42.2499959" lon="13.7040475"><ele>807.9999999999999</ele><time>2026-05-03T09:15:11.013Z</time></trkpt><trkpt lat="42.249966" lon="13.7041248"><ele>808.0</ele><time>2026-05-03T09:15:13.012Z</time></trkpt><trkpt lat="42.2499579" lon="13.7042178"><ele>808.0</ele><time>2026-05-03T09:15:15.013Z</time></trkpt><trkpt lat="42.2499453" lon="13.7043362"><ele>808.0</ele><time>2026-05-03T09:15:17.013Z</time></trkpt><trkpt lat="42.2499023" lon="13.7044611"><ele>808.0</ele><time>2026-05-03T09:15:19.013Z</time></trkpt><trkpt lat="42.2498449" lon="13.7046117"><ele>808.0</ele><time>2026-05-03T09:15:21.012Z</time></trkpt><trkpt lat="42.2498072" lon="13.7047695"><ele>808.0</ele><time>2026-05-03T09:15:23.012Z</time></trkpt><trkpt lat="42.2497837" lon="13.7048605"><ele>807.8333333333333</ele><time>2026-05-03T09:15:24.013Z</time></trkpt><trkpt lat="42.2497626" lon="13.7049587"><ele>807.6666666666666</ele><time>2026-05-03T09:15:25.013Z</time></trkpt><trkpt lat="42.2497381" lon="13.7050502"><ele>807.5</ele><time>2026-05-03T09:15:26.013Z</time></trkpt><trkpt lat="42.2496909" lon="13.705158"><ele>807.3333333333333</ele><time>2026-05-03T09:15:28.013Z</time></trkpt><trkpt lat="42.2496539" lon="13.7052421"><ele>807.1666666666666</ele><time>2026-05-03T09:15:33.012Z</time></trkpt><trkpt lat="42.2495723" lon="13.7053498"><ele>807.0</ele><time>2026-05-03T09:15:35.012Z</time></trkpt><trkpt lat="42.2494864" lon="13.705432"><ele>811.0</ele><time>2026-05-03T09:15:37.012Z</time></trkpt><trkpt lat="42.2493973" lon="13.7055189"><ele>815.0</ele><time>2026-05-03T09:15:39.013Z</time></trkpt><trkpt lat="42.2493004" lon="13.705608"><ele>819.0</ele><time>2026-05-03T09:15:41.013Z</time></trkpt><trkpt lat="42.2491958" lon="13.7056726"><ele>823.0</ele><time>2026-05-03T09:15:43.013Z</time></trkpt><trkpt lat="42.2490906" lon="13.7057356"><ele>822.9999999999999</ele><time>2026-05-03T09:15:45.012Z</time></trkpt><trkpt lat="42.2490387" lon="13.7057963"><ele>823.0</ele><time>2026-05-03T09:15:46.012Z</time></trkpt><trkpt lat="42.2489715" lon="13.7058683"><ele>823.0</ele><time>2026-05-03T09:15:47.013Z</time></trkpt><trkpt lat="42.2488971" lon="13.705944"><ele>823.0</ele><time>2026-05-03T09:15:48.012Z</time></trkpt><trkpt lat="42.2488217" lon="13.7060129"><ele>822.9999999999999</ele><time>2026-05-03T09:15:49.013Z</time></trkpt><trkpt lat="42.248743" lon="13.7060858"><ele>823.0</ele><time>2026-05-03T09:15:50.013Z</time></trkpt><trkpt lat="42.2486564" lon="13.7061626"><ele>824.4999999999999</ele><time>2026-05-03T09:15:51.012Z</time></trkpt><trkpt lat="42.2485707" lon="13.7062432"><ele>826.0</ele><time>2026-05-03T09:15:52.013Z</time></trkpt><trkpt lat="42.2484959" lon="13.7063099"><ele>827.5</ele><time>2026-05-03T09:15:53.013Z</time></trkpt><trkpt lat="42.2484416" lon="13.706357"><ele>829.0</ele><time>2026-05-03T09:15:54.013Z</time></trkpt><trkpt lat="42.2483908" lon="13.70641"><ele>830.4999999999999</ele><time>2026-05-03T09:15:55.013Z</time></trkpt><trkpt lat="42.2483184" lon="13.7065336"><ele>832.0</ele><time>2026-05-03T09:15:57.013Z</time></trkpt><trkpt lat="42.2482688" lon="13.7066834"><ele>832.0</ele><time>2026-05-03T09:15:59.013Z</time></trkpt><trkpt lat="42.2482481" lon="13.7067698"><ele>832.0</ele><time>2026-05-03T09:16:00.013Z</time></trkpt><trkpt lat="42.2482403" lon="13.7069162"><ele>832.0</ele><time>2026-05-03T09:16:02.013Z</time></trkpt><trkpt lat="42.2482574" lon="13.7070793"><ele>832.0</ele><time>2026-05-03T09:16:04.012Z</time></trkpt><trkpt lat="42.2482835" lon="13.7072327"><ele>832.0</ele><time>2026-05-03T09:16:06.013Z</time></trkpt><trkpt lat="42.2482686" lon="13.7073771"><ele>832.0</ele><time>2026-05-03T09:16:08.012Z</time></trkpt><trkpt lat="42.2482516" lon="13.7075249"><ele>832.0</ele><time>2026-05-03T09:16:10.012Z</time></trkpt><trkpt lat="42.2482188" lon="13.7076636"><ele>832.0</ele><time>2026-05-03T09:16:12.013Z</time></trkpt><trkpt lat="42.2481807" lon="13.7077846"><ele>832.0</ele><time>2026-05-03T09:16:14.012Z</time></trkpt><trkpt lat="42.2481558" lon="13.7078853"><ele>832.0</ele><time>2026-05-03T09:16:17.012Z</time></trkpt><trkpt lat="42.2481236" lon="13.7079835"><ele>829.2</ele><time>2026-05-03T09:16:24.013Z</time></trkpt><trkpt lat="42.2480734" lon="13.7080856"><ele>826.4000000000001</ele><time>2026-05-03T09:16:26.012Z</time></trkpt><trkpt lat="42.2480073" lon="13.7082006"><ele>823.5999999999999</ele><time>2026-05-03T09:16:28.013Z</time></trkpt><trkpt lat="42.2479246" lon="13.7082844"><ele>820.8</ele><time>2026-05-03T09:16:30.012Z</time></trkpt><trkpt lat="42.2478318" lon="13.7083524"><ele>818.0</ele><time>2026-05-03T09:16:32.012Z</time></trkpt><trkpt lat="42.2477376" lon="13.7084246"><ele>818.0000000000001</ele><time>2026-05-03T09:16:34.012Z</time></trkpt><trkpt lat="42.2476481" lon="13.7085039"><ele>818.0</ele><time>2026-05-03T09:16:36.013Z</time></trkpt><trkpt lat="42.2475625" lon="13.7085748"><ele>818.0</ele><time>2026-05-03T09:16:38.013Z</time></trkpt><trkpt lat="42.247506" lon="13.7086253"><ele>818.0</ele><time>2026-05-03T09:16:40.012Z</time></trkpt><trkpt lat="42.2474384" lon="13.7086469"><ele>818.0000000000001</ele><time>2026-05-03T09:16:43.013Z</time></trkpt><trkpt lat="42.2473615" lon="13.7086182"><ele>818.0</ele><time>2026-05-03T09:16:46.013Z</time></trkpt><trkpt lat="42.2473068" lon="13.7085544"><ele>815.6666666666667</ele><time>2026-05-03T09:16:48.013Z</time></trkpt><trkpt lat="42.2472638" lon="13.7084635"><ele>813.3333333333334</ele><time>2026-05-03T09:16:50.012Z</time></trkpt><trkpt lat="42.2472239" lon="13.7083701"><ele>811.0</ele><time>2026-05-03T09:16:52.013Z</time></trkpt><trkpt lat="42.2471922" lon="13.7082634"><ele>808.6666666666667</ele><time>2026-05-03T09:16:54.013Z</time></trkpt><trkpt lat="42.2471822" lon="13.7081467"><ele>806.3333333333334</ele><time>2026-05-03T09:16:56.013Z</time></trkpt><trkpt lat="42.2471755" lon="13.7080023"><ele>804.0</ele><time>2026-05-03T09:16:58.013Z</time></trkpt><trkpt lat="42.2471698" lon="13.7079157"><ele>804.0</ele><time>2026-05-03T09:16:59.012Z</time></trkpt><trkpt lat="42.2471631" lon="13.7078225"><ele>804.0</ele><time>2026-05-03T09:17:00.013Z</time></trkpt><trkpt lat="42.2471535" lon="13.7077183"><ele>804.0</ele><time>2026-05-03T09:17:01.012Z</time></trkpt><trkpt lat="42.2471499" lon="13.7076092"><ele>804.0</ele><time>2026-05-03T09:17:02.012Z</time></trkpt><trkpt lat="42.2471489" lon="13.7075061"><ele>804.0</ele><time>2026-05-03T09:17:03.013Z</time></trkpt><trkpt lat="42.2471499" lon="13.7074127"><ele>804.0</ele><time>2026-05-03T09:17:04.013Z</time></trkpt><trkpt lat="42.2471428" lon="13.7073271"><ele>804.0</ele><time>2026-05-03T09:17:05.013Z</time></trkpt><trkpt lat="42.2471084" lon="13.707214"><ele>804.3333333333334</ele><time>2026-05-03T09:17:07.013Z</time></trkpt><trkpt lat="42.2470485" lon="13.7071687"><ele>804.6666666666667</ele><time>2026-05-03T09:17:09.012Z</time></trkpt><trkpt lat="42.2469387" lon="13.7071617"><ele>805.0</ele><time>2026-05-03T09:17:11.013Z</time></trkpt><trkpt lat="42.2468629" lon="13.7071648"><ele>805.3333333333334</ele><time>2026-05-03T09:17:12.012Z</time></trkpt><trkpt lat="42.2467912" lon="13.707166"><ele>805.6666666666667</ele><time>2026-05-03T09:17:13.012Z</time></trkpt><trkpt lat="42.24671" lon="13.7071468"><ele>806.0</ele><time>2026-05-03T09:17:15.013Z</time></trkpt><trkpt lat="42.2466697" lon="13.7070117"><ele>806.5999999999999</ele><time>2026-05-03T09:17:19.013Z</time></trkpt><trkpt lat="42.2466684" lon="13.7068579"><ele>807.2</ele><time>2026-05-03T09:17:21.012Z</time></trkpt><trkpt lat="42.246663" lon="13.7067255"><ele>807.8</ele><time>2026-05-03T09:17:23.013Z</time></trkpt><trkpt lat="42.2465915" lon="13.7066779"><ele>808.4000000000001</ele><time>2026-05-03T09:17:25.012Z</time></trkpt><trkpt lat="42.2465136" lon="13.7066942"><ele>809.0</ele><time>2026-05-03T09:17:28.012Z</time></trkpt><trkpt lat="42.2464522" lon="13.7068458"><ele>806.3333333333334</ele><time>2026-05-03T09:17:30.012Z</time></trkpt><trkpt lat="42.2464423" lon="13.706938"><ele>803.6666666666667</ele><time>2026-05-03T09:17:31.012Z</time></trkpt><trkpt lat="42.2464502" lon="13.7070557"><ele>801.0</ele><time>2026-05-03T09:17:33.013Z</time></trkpt><trkpt lat="42.2463907" lon="13.7070866"><ele>798.3333333333333</ele><time>2026-05-03T09:17:35.012Z</time></trkpt><trkpt lat="42.2462762" lon="13.7070525"><ele>795.6666666666666</ele><time>2026-05-03T09:17:37.012Z</time></trkpt><trkpt lat="42.2461737" lon="13.7070291"><ele>793.0</ele><time>2026-05-03T09:17:39.013Z</time></trkpt><trkpt lat="42.2460983" lon="13.7070296"><ele>793.0</ele><time>2026-05-03T09:17:42.013Z</time></trkpt><trkpt lat="42.2461017" lon="13.7071408"><ele>793.0</ele><time>2026-05-03T09:17:44.012Z</time></trkpt><trkpt lat="42.2461137" lon="13.7072418"><ele>793.0</ele><time>2026-05-03T09:17:45.013Z</time></trkpt><trkpt lat="42.2461089" lon="13.7073741"><ele>793.0</ele><time>2026-05-03T09:17:46.013Z</time></trkpt><trkpt lat="42.2461052" lon="13.7075122"><ele>793.0</ele><time>2026-05-03T09:17:47.013Z</time></trkpt><trkpt lat="42.2461036" lon="13.707655"><ele>792.25</ele><time>2026-05-03T09:17:48.013Z</time></trkpt><trkpt lat="42.2460962" lon="13.7078018"><ele>791.5</ele><time>2026-05-03T09:17:49.013Z</time></trkpt><trkpt lat="42.2460847" lon="13.7079519"><ele>790.75</ele><time>2026-05-03T09:17:50.013Z</time></trkpt><trkpt lat="42.2460702" lon="13.708115"><ele>790.0</ele><time>2026-05-03T09:17:51.012Z</time></trkpt><trkpt lat="42.2460551" lon="13.7082787"><ele>790.0</ele><time>2026-05-03T09:17:52.012Z</time></trkpt><trkpt lat="42.2460403" lon="13.7084438"><ele>790.0</ele><time>2026-05-03T09:17:53.013Z</time></trkpt><trkpt lat="42.2460235" lon="13.7086055"><ele>790.0</ele><time>2026-05-03T09:17:54.012Z</time></trkpt><trkpt lat="42.2460059" lon="13.7087622"><ele>790.0</ele><time>2026-05-03T09:17:55.012Z</time></trkpt><trkpt lat="42.2459934" lon="13.708916"><ele>789.0</ele><time>2026-05-03T09:17:56.013Z</time></trkpt><trkpt lat="42.2459888" lon="13.7090738"><ele>788.0</ele><time>2026-05-03T09:17:57.013Z</time></trkpt><trkpt lat="42.2460012" lon="13.7092349"><ele>787.0</ele><time>2026-05-03T09:17:58.012Z</time></trkpt><trkpt lat="42.2460322" lon="13.7093895"><ele>786.0</ele><time>2026-05-03T09:17:59.013Z</time></trkpt><trkpt lat="42.2460798" lon="13.7095283"><ele>785.75</ele><time>2026-05-03T09:18:00.013Z</time></trkpt><trkpt lat="42.2461418" lon="13.7096481"><ele>785.5</ele><time>2026-05-03T09:18:01.012Z</time></trkpt><trkpt lat="42.2462232" lon="13.7097558"><ele>785.25</ele><time>2026-05-03T09:18:02.012Z</time></trkpt><trkpt lat="42.24631" lon="13.7098582"><ele>785.0</ele><time>2026-05-03T09:18:03.013Z</time></trkpt><trkpt lat="42.2464021" lon="13.7099527"><ele>785.75</ele><time>2026-05-03T09:18:04.012Z</time></trkpt><trkpt lat="42.2464949" lon="13.7100307"><ele>786.5</ele><time>2026-05-03T09:18:05.012Z</time></trkpt><trkpt lat="42.2465948" lon="13.71009"><ele>787.25</ele><time>2026-05-03T09:18:06.013Z</time></trkpt><trkpt lat="42.2467086" lon="13.7101112"><ele>788.0</ele><time>2026-05-03T09:18:07.012Z</time></trkpt><trkpt lat="42.2468336" lon="13.7101098"><ele>788.0</ele><time>2026-05-03T09:18:08.012Z</time></trkpt><trkpt lat="42.2469675" lon="13.7100872"><ele>788.0</ele><time>2026-05-03T09:18:09.013Z</time></trkpt><trkpt lat="42.2471047" lon="13.7100464"><ele>788.0</ele><time>2026-05-03T09:18:10.013Z</time></trkpt><trkpt lat="42.2472332" lon="13.7100041"><ele>788.0</ele><time>2026-05-03T09:18:11.013Z</time></trkpt><trkpt lat="42.2473579" lon="13.7099641"><ele>787.0</ele><time>2026-05-03T09:18:12.013Z</time></trkpt><trkpt lat="42.2474742" lon="13.7099278"><ele>786.0</ele><time>2026-05-03T09:18:13.012Z</time></trkpt><trkpt lat="42.2475813" lon="13.7099012"><ele>785.0</ele><time>2026-05-03T09:18:14.012Z</time></trkpt><trkpt lat="42.2476829" lon="13.7098858"><ele>784.0</ele><time>2026-05-03T09:18:15.013Z</time></trkpt><trkpt lat="42.2477816" lon="13.7098821"><ele>783.0</ele><time>2026-05-03T09:18:16.013Z</time></trkpt><trkpt lat="42.2478784" lon="13.7098983"><ele>783.0</ele><time>2026-05-03T09:18:17.012Z</time></trkpt><trkpt lat="42.2479684" lon="13.709947"><ele>783.0</ele><time>2026-05-03T09:18:18.013Z</time></trkpt><trkpt lat="42.2480351" lon="13.7100193"><ele>783.0</ele><time>2026-05-03T09:18:19.013Z</time></trkpt><trkpt lat="42.2480924" lon="13.7101091"><ele>783.0</ele><time>2026-05-03T09:18:20.012Z</time></trkpt><trkpt lat="42.248122" lon="13.7101882"><ele>783.0</ele><time>2026-05-03T09:18:21.013Z</time></trkpt><trkpt lat="42.2481447" lon="13.710308"><ele>783.0</ele><time>2026-05-03T09:18:23.012Z</time></trkpt><trkpt lat="42.2481735" lon="13.7104087"><ele>783.5999999999999</ele><time>2026-05-03T09:18:25.012Z</time></trkpt><trkpt lat="42.2482283" lon="13.7105518"><ele>784.1999999999999</ele><time>2026-05-03T09:18:27.013Z</time></trkpt><trkpt lat="42.24827" lon="13.7107114"><ele>784.8</ele><time>2026-05-03T09:18:29.013Z</time></trkpt><trkpt lat="42.2482848" lon="13.7108004"><ele>785.4</ele><time>2026-05-03T09:18:30.012Z</time></trkpt><trkpt lat="42.2483004" lon="13.7108913"><ele>786.0</ele><time>2026-05-03T09:18:31.013Z</time></trkpt><trkpt lat="42.2483184" lon="13.7109857"><ele>787.1999999999999</ele><time>2026-05-03T09:18:32.013Z</time></trkpt><trkpt lat="42.2483321" lon="13.7110752"><ele>788.4</ele><time>2026-05-03T09:18:33.013Z</time></trkpt><trkpt lat="42.2483582" lon="13.7112252"><ele>789.6</ele><time>2026-05-03T09:18:35.013Z</time></trkpt><trkpt lat="42.2483866" lon="13.7113845"><ele>790.8</ele><time>2026-05-03T09:18:37.012Z</time></trkpt><trkpt lat="42.2484024" lon="13.7115021"><ele>792.0</ele><time>2026-05-03T09:18:39.012Z</time></trkpt><trkpt lat="42.2484294" lon="13.7115948"><ele>792.0</ele><time>2026-05-03T09:18:41.012Z</time></trkpt><trkpt lat="42.2484251" lon="13.7117341"><ele>792.0</ele><time>2026-05-03T09:18:43.013Z</time></trkpt><trkpt lat="42.2484184" lon="13.7116191"><ele>792.0</ele><time>2026-05-03T09:21:08.012Z</time></trkpt><trkpt lat="42.2483926" lon="13.7114924"><ele>792.0</ele><time>2026-05-03T09:21:15.013Z</time></trkpt><trkpt lat="42.2483846" lon="13.7114003"><ele>792.0</ele><time>2026-05-03T09:21:17.012Z</time></trkpt><trkpt lat="42.2483665" lon="13.7112813"><ele>792.0</ele><time>2026-05-03T09:21:20.013Z</time></trkpt><trkpt lat="42.2483525" lon="13.7111897"><ele>792.0</ele><time>2026-05-03T09:21:23.013Z</time></trkpt><trkpt lat="42.2483372" lon="13.7110893"><ele>792.0</ele><time>2026-05-03T09:21:26.012Z</time></trkpt><trkpt lat="42.2483258" lon="13.7110052"><ele>792.0</ele><time>2026-05-03T09:21:28.013Z</time></trkpt><trkpt lat="42.2483118" lon="13.7109209"><ele>792.0</ele><time>2026-05-03T09:21:30.013Z</time></trkpt><trkpt lat="42.248297" lon="13.7108346"><ele>792.0</ele><time>2026-05-03T09:21:32.012Z</time></trkpt><trkpt lat="42.2482736" lon="13.7107382"><ele>792.0</ele><time>2026-05-03T09:21:34.013Z</time></trkpt><trkpt lat="42.2482509" lon="13.7106445"><ele>792.0</ele><time>2026-05-03T09:21:36.012Z</time></trkpt><trkpt lat="42.2482255" lon="13.7105395"><ele>791.1428571428572</ele><time>2026-05-03T09:21:38.012Z</time></trkpt><trkpt lat="42.2481775" lon="13.7104652"><ele>790.2857142857142</ele><time>2026-05-03T09:21:41.012Z</time></trkpt><trkpt lat="42.2481191" lon="13.7105147"><ele>789.4285714285714</ele><time>2026-05-03T09:21:45.013Z</time></trkpt><trkpt lat="42.248084" lon="13.7106088"><ele>788.5714285714287</ele><time>2026-05-03T09:21:48.012Z</time></trkpt><trkpt lat="42.248064" lon="13.7107009"><ele>787.7142857142858</ele><time>2026-05-03T09:22:00.012Z</time></trkpt><trkpt lat="42.2480398" lon="13.7107798"><ele>786.8571428571429</ele><time>2026-05-03T09:22:01.013Z</time></trkpt><trkpt lat="42.2480103" lon="13.710871"><ele>786.0</ele><time>2026-05-03T09:22:02.012Z</time></trkpt><trkpt lat="42.2479757" lon="13.7109818"><ele>780.5</ele><time>2026-05-03T09:22:03.012Z</time></trkpt><trkpt lat="42.2479352" lon="13.7111017"><ele>775.0</ele><time>2026-05-03T09:22:04.012Z</time></trkpt><trkpt lat="42.2478939" lon="13.711238"><ele>769.5</ele><time>2026-05-03T09:22:05.012Z</time></trkpt><trkpt lat="42.2478461" lon="13.7113889"><ele>764.0</ele><time>2026-05-03T09:22:06.013Z</time></trkpt><trkpt lat="42.2478014" lon="13.7115484"><ele>764.0</ele><time>2026-05-03T09:22:07.013Z</time></trkpt><trkpt lat="42.2477599" lon="13.7117045"><ele>764.0</ele><time>2026-05-03T09:22:08.013Z</time></trkpt><trkpt lat="42.2477251" lon="13.7118443"><ele>764.0</ele><time>2026-05-03T09:22:09.012Z</time></trkpt><trkpt lat="42.2477105" lon="13.7119702"><ele>764.0</ele><time>2026-05-03T09:22:10.013Z</time></trkpt><trkpt lat="42.2477106" lon="13.7120804"><ele>764.0</ele><time>2026-05-03T09:22:11.013Z</time></trkpt><trkpt lat="42.2477168" lon="13.7122011"><ele>764.5</ele><time>2026-05-03T09:22:12.012Z</time></trkpt><trkpt lat="42.2477173" lon="13.7123274"><ele>765.0</ele><time>2026-05-03T09:22:13.012Z</time></trkpt><trkpt lat="42.2477067" lon="13.7124432"><ele>765.5</ele><time>2026-05-03T09:22:14.012Z</time></trkpt><trkpt lat="42.2476936" lon="13.7125478"><ele>766.0</ele><time>2026-05-03T09:22:15.013Z</time></trkpt><trkpt lat="42.2476873" lon="13.7126619"><ele>766.5</ele><time>2026-05-03T09:22:16.012Z</time></trkpt><trkpt lat="42.2476842" lon="13.7127806"><ele>767.0</ele><time>2026-05-03T09:22:17.013Z</time></trkpt><trkpt lat="42.2476861" lon="13.7129088"><ele>767.2</ele><time>2026-05-03T09:22:18.013Z</time></trkpt><trkpt lat="42.2476792" lon="13.713049"><ele>767.4000000000001</ele><time>2026-05-03T09:22:19.012Z</time></trkpt><trkpt lat="42.2476632" lon="13.7131921"><ele>767.5999999999999</ele><time>2026-05-03T09:22:20.013Z</time></trkpt><trkpt lat="42.2476431" lon="13.7133328"><ele>767.8</ele><time>2026-05-03T09:22:21.012Z</time></trkpt><trkpt lat="42.2476257" lon="13.7134796"><ele>768.0</ele><time>2026-05-03T09:22:22.013Z</time></trkpt><trkpt lat="42.2476143" lon="13.713619"><ele>767.5999999999999</ele><time>2026-05-03T09:22:23.013Z</time></trkpt><trkpt lat="42.2476147" lon="13.7137543"><ele>767.1999999999999</ele><time>2026-05-03T09:22:24.012Z</time></trkpt><trkpt lat="42.24762" lon="13.7138873"><ele>766.8</ele><time>2026-05-03T09:22:25.012Z</time></trkpt><trkpt lat="42.2476315" lon="13.714023"><ele>766.4</ele><time>2026-05-03T09:22:26.013Z</time></trkpt><trkpt lat="42.2476574" lon="13.7141566"><ele>766.0</ele><time>2026-05-03T09:22:27.013Z</time></trkpt><trkpt lat="42.2476899" lon="13.7142937"><ele>764.4</ele><time>2026-05-03T09:22:28.013Z</time></trkpt><trkpt lat="42.2477267" lon="13.7144343"><ele>762.8</ele><time>2026-05-03T09:22:29.013Z</time></trkpt><trkpt lat="42.2477697" lon="13.7145723"><ele>761.1999999999999</ele><time>2026-05-03T09:22:30.013Z</time></trkpt><trkpt lat="42.2478221" lon="13.7147027"><ele>759.5999999999999</ele><time>2026-05-03T09:22:31.013Z</time></trkpt><trkpt lat="42.2478777" lon="13.7148326"><ele>758.0</ele><time>2026-05-03T09:22:32.013Z</time></trkpt><trkpt lat="42.2479308" lon="13.7149611"><ele>758.0</ele><time>2026-05-03T09:22:33.013Z</time></trkpt><trkpt lat="42.2479849" lon="13.7150858"><ele>758.0</ele><time>2026-05-03T09:22:34.013Z</time></trkpt><trkpt lat="42.2480383" lon="13.7152011"><ele>758.0</ele><time>2026-05-03T09:22:35.013Z</time></trkpt><trkpt lat="42.2480938" lon="13.715301"><ele>758.0</ele><time>2026-05-03T09:22:36.013Z</time></trkpt><trkpt lat="42.2481591" lon="13.7153882"><ele>758.0</ele><time>2026-05-03T09:22:37.013Z</time></trkpt><trkpt lat="42.248232" lon="13.7154755"><ele>760.5</ele><time>2026-05-03T09:22:38.012Z</time></trkpt><trkpt lat="42.2483139" lon="13.7155644"><ele>763.0</ele><time>2026-05-03T09:22:39.012Z</time></trkpt><trkpt lat="42.2484037" lon="13.7156513"><ele>765.5</ele><time>2026-05-03T09:22:40.012Z</time></trkpt><trkpt lat="42.2485027" lon="13.715742"><ele>768.0</ele><time>2026-05-03T09:22:41.012Z</time></trkpt><trkpt lat="42.2485988" lon="13.7158357"><ele>768.0</ele><time>2026-05-03T09:22:42.012Z</time></trkpt><trkpt lat="42.2486931" lon="13.7159272"><ele>768.0</ele><time>2026-05-03T09:22:43.013Z</time></trkpt><trkpt lat="42.2487893" lon="13.716013"><ele>768.0</ele><time>2026-05-03T09:22:44.013Z</time></trkpt><trkpt lat="42.2488891" lon="13.7160962"><ele>768.0</ele><time>2026-05-03T09:22:45.013Z</time></trkpt><trkpt lat="42.2489887" lon="13.7161738"><ele>767.4</ele><time>2026-05-03T09:22:46.013Z</time></trkpt><trkpt lat="42.249082" lon="13.7162397"><ele>766.8</ele><time>2026-05-03T09:22:47.013Z</time></trkpt><trkpt lat="42.2491667" lon="13.716302"><ele>766.2</ele><time>2026-05-03T09:22:48.013Z</time></trkpt><trkpt lat="42.249238" lon="13.7163625"><ele>765.6</ele><time>2026-05-03T09:22:49.012Z</time></trkpt><trkpt lat="42.249297" lon="13.716418"><ele>765.0</ele><time>2026-05-03T09:22:50.012Z</time></trkpt><trkpt lat="42.2493626" lon="13.7165535"><ele>765.0</ele><time>2026-05-03T09:22:52.013Z</time></trkpt><trkpt lat="42.2493729" lon="13.7166618"><ele>765.0</ele><time>2026-05-03T09:22:53.012Z</time></trkpt><trkpt lat="42.2493846" lon="13.7167773"><ele>765.0</ele><time>2026-05-03T09:22:54.013Z</time></trkpt><trkpt lat="42.2494185" lon="13.7168994"><ele>765.0</ele><time>2026-05-03T09:22:55.013Z</time></trkpt><trkpt lat="42.2494678" lon="13.7170166"><ele>765.0</ele><time>2026-05-03T09:22:56.012Z</time></trkpt><trkpt lat="42.2495332" lon="13.717129"><ele>764.2</ele><time>2026-05-03T09:22:57.013Z</time></trkpt><trkpt lat="42.2496192" lon="13.7172308"><ele>763.4</ele><time>2026-05-03T09:22:58.013Z</time></trkpt><trkpt lat="42.2497029" lon="13.7173247"><ele>762.5999999999999</ele><time>2026-05-03T09:22:59.013Z</time></trkpt><trkpt lat="42.2497832" lon="13.7174284"><ele>761.8</ele><time>2026-05-03T09:23:00.012Z</time></trkpt><trkpt lat="42.2498488" lon="13.7175493"><ele>761.0</ele><time>2026-05-03T09:23:01.013Z</time></trkpt><trkpt lat="42.249896" lon="13.7176847"><ele>763.4</ele><time>2026-05-03T09:23:02.012Z</time></trkpt><trkpt lat="42.2499424" lon="13.7178163"><ele>765.8</ele><time>2026-05-03T09:23:03.013Z</time></trkpt><trkpt lat="42.2499976" lon="13.7179392"><ele>768.1999999999999</ele><time>2026-05-03T09:23:04.013Z</time></trkpt><trkpt lat="42.2500645" lon="13.7180607"><ele>770.5999999999999</ele><time>2026-05-03T09:23:05.013Z</time></trkpt><trkpt lat="42.2501337" lon="13.718186"><ele>773.0</ele><time>2026-05-03T09:23:06.013Z</time></trkpt><trkpt lat="42.250207" lon="13.7182978"><ele>773.0</ele><time>2026-05-03T09:23:07.013Z</time></trkpt><trkpt lat="42.2502821" lon="13.7184022"><ele>773.0</ele><time>2026-05-03T09:23:08.012Z</time></trkpt><trkpt lat="42.2503663" lon="13.718501"><ele>773.0</ele><time>2026-05-03T09:23:09.012Z</time></trkpt><trkpt lat="42.2504551" lon="13.7185976"><ele>773.0</ele><time>2026-05-03T09:23:10.013Z</time></trkpt><trkpt lat="42.2505483" lon="13.7186871"><ele>773.0</ele><time>2026-05-03T09:23:11.012Z</time></trkpt><trkpt lat="42.2506479" lon="13.718754"><ele>773.0</ele><time>2026-05-03T09:23:12.012Z</time></trkpt><trkpt lat="42.2507591" lon="13.7187996"><ele>773.0</ele><time>2026-05-03T09:23:13.013Z</time></trkpt><trkpt lat="42.2508728" lon="13.7188519"><ele>773.0</ele><time>2026-05-03T09:23:14.013Z</time></trkpt><trkpt lat="42.2509922" lon="13.718912"><ele>773.0</ele><time>2026-05-03T09:23:15.013Z</time></trkpt><trkpt lat="42.251102" lon="13.7189866"><ele>773.0</ele><time>2026-05-03T09:23:16.012Z</time></trkpt><trkpt lat="42.2512063" lon="13.719083"><ele>773.0</ele><time>2026-05-03T09:23:17.012Z</time></trkpt><trkpt lat="42.2513015" lon="13.7191933"><ele>773.0</ele><time>2026-05-03T09:23:18.013Z</time></trkpt><trkpt lat="42.2513807" lon="13.7193195"><ele>773.0</ele><time>2026-05-03T09:23:19.012Z</time></trkpt><trkpt lat="42.2514616" lon="13.7194338"><ele>774.75</ele><time>2026-05-03T09:23:20.013Z</time></trkpt><trkpt lat="42.2515505" lon="13.7195368"><ele>776.5</ele><time>2026-05-03T09:23:21.013Z</time></trkpt><trkpt lat="42.2516532" lon="13.7196317"><ele>778.25</ele><time>2026-05-03T09:23:22.013Z</time></trkpt><trkpt lat="42.2517584" lon="13.7197182"><ele>780.0</ele><time>2026-05-03T09:23:23.012Z</time></trkpt><trkpt lat="42.2518633" lon="13.7198104"><ele>780.0</ele><time>2026-05-03T09:23:24.012Z</time></trkpt><trkpt lat="42.2519723" lon="13.7199092"><ele>780.0</ele><time>2026-05-03T09:23:25.013Z</time></trkpt><trkpt lat="42.2520782" lon="13.7200072"><ele>780.0</ele><time>2026-05-03T09:23:26.013Z</time></trkpt><trkpt lat="42.2521808" lon="13.7200997"><ele>780.0</ele><time>2026-05-03T09:23:27.013Z</time></trkpt><trkpt lat="42.2522776" lon="13.7201958"><ele>779.25</ele><time>2026-05-03T09:23:28.012Z</time></trkpt><trkpt lat="42.252375" lon="13.7202937"><ele>778.5</ele><time>2026-05-03T09:23:29.013Z</time></trkpt><trkpt lat="42.25247" lon="13.7203889"><ele>777.75</ele><time>2026-05-03T09:23:30.013Z</time></trkpt><trkpt lat="42.2525704" lon="13.7204774"><ele>777.0</ele><time>2026-05-03T09:23:31.012Z</time></trkpt><trkpt lat="42.2526767" lon="13.720554"><ele>777.0</ele><time>2026-05-03T09:23:32.013Z</time></trkpt><trkpt lat="42.2527895" lon="13.7206271"><ele>777.0</ele><time>2026-05-03T09:23:33.012Z</time></trkpt><trkpt lat="42.2529117" lon="13.7206995"><ele>777.0</ele><time>2026-05-03T09:23:34.012Z</time></trkpt><trkpt lat="42.2530334" lon="13.7207689"><ele>777.0</ele><time>2026-05-03T09:23:35.013Z</time></trkpt><trkpt lat="42.2531533" lon="13.7208312"><ele>779.2</ele><time>2026-05-03T09:23:36.012Z</time></trkpt><trkpt lat="42.2532658" lon="13.7208749"><ele>781.4000000000001</ele><time>2026-05-03T09:23:37.012Z</time></trkpt><trkpt lat="42.2533636" lon="13.7209103"><ele>783.5999999999999</ele><time>2026-05-03T09:23:38.013Z</time></trkpt><trkpt lat="42.2534462" lon="13.7209458"><ele>785.8</ele><time>2026-05-03T09:23:39.013Z</time></trkpt><trkpt lat="42.2535149" lon="13.7209975"><ele>788.0</ele><time>2026-05-03T09:23:40.012Z</time></trkpt><trkpt lat="42.2535673" lon="13.7210605"><ele>786.6666666666667</ele><time>2026-05-03T09:23:41.013Z</time></trkpt><trkpt lat="42.2536093" lon="13.7211472"><ele>785.3333333333334</ele><time>2026-05-03T09:23:42.012Z</time></trkpt><trkpt lat="42.2536502" lon="13.7212503"><ele>784.0</ele><time>2026-05-03T09:23:43.012Z</time></trkpt><trkpt lat="42.253683" lon="13.7213607"><ele>782.6666666666667</ele><time>2026-05-03T09:23:44.013Z</time></trkpt><trkpt lat="42.253698" lon="13.721466"><ele>781.3333333333334</ele><time>2026-05-03T09:23:45.012Z</time></trkpt><trkpt lat="42.2536845" lon="13.7215593"><ele>780.0</ele><time>2026-05-03T09:23:46.013Z</time></trkpt><trkpt lat="42.2536531" lon="13.7216469"><ele>780.0</ele><time>2026-05-03T09:23:47.012Z</time></trkpt><trkpt lat="42.2535984" lon="13.7217336"><ele>780.0</ele><time>2026-05-03T09:23:48.012Z</time></trkpt><trkpt lat="42.2535365" lon="13.7218404"><ele>780.0</ele><time>2026-05-03T09:23:49.013Z</time></trkpt><trkpt lat="42.2534704" lon="13.7219599"><ele>780.0</ele><time>2026-05-03T09:23:50.013Z</time></trkpt><trkpt lat="42.2534204" lon="13.7220803"><ele>780.0</ele><time>2026-05-03T09:23:51.013Z</time></trkpt><trkpt lat="42.2533857" lon="13.7221911"><ele>780.8333333333334</ele><time>2026-05-03T09:23:52.012Z</time></trkpt><trkpt lat="42.2533749" lon="13.7222993"><ele>781.6666666666667</ele><time>2026-05-03T09:23:53.013Z</time></trkpt><trkpt lat="42.2533854" lon="13.722395"><ele>782.5</ele><time>2026-05-03T09:23:54.012Z</time></trkpt><trkpt lat="42.2534127" lon="13.7225014"><ele>783.3333333333334</ele><time>2026-05-03T09:23:55.012Z</time></trkpt><trkpt lat="42.2534462" lon="13.7226199"><ele>784.1666666666667</ele><time>2026-05-03T09:23:56.012Z</time></trkpt><trkpt lat="42.2534856" lon="13.7227366"><ele>785.0</ele><time>2026-05-03T09:23:57.012Z</time></trkpt><trkpt lat="42.2535268" lon="13.7228507"><ele>786.0</ele><time>2026-05-03T09:23:58.012Z</time></trkpt><trkpt lat="42.2535742" lon="13.7229688"><ele>787.0</ele><time>2026-05-03T09:23:59.012Z</time></trkpt><trkpt lat="42.2536234" lon="13.7230923"><ele>788.0</ele><time>2026-05-03T09:24:00.013Z</time></trkpt><trkpt lat="42.2536752" lon="13.7232197"><ele>789.0</ele><time>2026-05-03T09:24:01.013Z</time></trkpt><trkpt lat="42.2537283" lon="13.7233482"><ele>790.0</ele><time>2026-05-03T09:24:02.013Z</time></trkpt><trkpt lat="42.2537771" lon="13.7234723"><ele>790.4999999999999</ele><time>2026-05-03T09:24:03.012Z</time></trkpt><trkpt lat="42.2538159" lon="13.723585"><ele>791.0</ele><time>2026-05-03T09:24:04.013Z</time></trkpt><trkpt lat="42.2538449" lon="13.7236935"><ele>791.5</ele><time>2026-05-03T09:24:05.013Z</time></trkpt><trkpt lat="42.2538715" lon="13.7237948"><ele>792.0</ele><time>2026-05-03T09:24:06.013Z</time></trkpt><trkpt lat="42.2539001" lon="13.7238957"><ele>792.4999999999999</ele><time>2026-05-03T09:24:07.012Z</time></trkpt><trkpt lat="42.2539279" lon="13.72399"><ele>793.0</ele><time>2026-05-03T09:24:08.012Z</time></trkpt><trkpt lat="42.253972" lon="13.724061"><ele>791.7142857142858</ele><time>2026-05-03T09:24:09.013Z</time></trkpt><trkpt lat="42.2540271" lon="13.7241234"><ele>790.4285714285714</ele><time>2026-05-03T09:24:10.012Z</time></trkpt><trkpt lat="42.2540902" lon="13.724163"><ele>789.1428571428571</ele><time>2026-05-03T09:24:11.013Z</time></trkpt><trkpt lat="42.2541581" lon="13.7241962"><ele>787.8571428571429</ele><time>2026-05-03T09:24:12.013Z</time></trkpt><trkpt lat="42.2542221" lon="13.7242171"><ele>786.5714285714286</ele><time>2026-05-03T09:24:13.013Z</time></trkpt><trkpt lat="42.2542856" lon="13.7242442"><ele>785.2857142857143</ele><time>2026-05-03T09:24:14.012Z</time></trkpt><trkpt lat="42.2543456" lon="13.7242821"><ele>784.0</ele><time>2026-05-03T09:24:15.013Z</time></trkpt><trkpt lat="42.2544098" lon="13.7243199"><ele>784.0</ele><time>2026-05-03T09:24:16.013Z</time></trkpt><trkpt lat="42.2544775" lon="13.7243599"><ele>784.0</ele><time>2026-05-03T09:24:17.013Z</time></trkpt><trkpt lat="42.2545437" lon="13.7243942"><ele>784.0</ele><time>2026-05-03T09:24:18.012Z</time></trkpt><trkpt lat="42.2546141" lon="13.7244266"><ele>784.0</ele><time>2026-05-03T09:24:19.012Z</time></trkpt><trkpt lat="42.254683" lon="13.7244605"><ele>784.0</ele><time>2026-05-03T09:24:20.013Z</time></trkpt><trkpt lat="42.2547537" lon="13.7244893"><ele>784.0</ele><time>2026-05-03T09:24:21.013Z</time></trkpt><trkpt lat="42.2548247" lon="13.7245143"><ele>784.0</ele><time>2026-05-03T09:24:22.012Z</time></trkpt><trkpt lat="42.2548938" lon="13.7245368"><ele>781.4285714285714</ele><time>2026-05-03T09:24:23.012Z</time></trkpt><trkpt lat="42.254962" lon="13.7245628"><ele>778.8571428571429</ele><time>2026-05-03T09:24:24.013Z</time></trkpt><trkpt lat="42.2550262" lon="13.7245917"><ele>776.2857142857142</ele><time>2026-05-03T09:24:25.013Z</time></trkpt><trkpt lat="42.2550876" lon="13.7246269"><ele>773.7142857142858</ele><time>2026-05-03T09:24:26.013Z</time></trkpt><trkpt lat="42.255147" lon="13.7246743"><ele>771.1428571428571</ele><time>2026-05-03T09:24:27.013Z</time></trkpt><trkpt lat="42.2551987" lon="13.7247368"><ele>768.5714285714286</ele><time>2026-05-03T09:24:28.012Z</time></trkpt><trkpt lat="42.2552422" lon="13.7248112"><ele>766.0</ele><time>2026-05-03T09:24:29.013Z</time></trkpt><trkpt lat="42.2552809" lon="13.7249043"><ele>766.0</ele><time>2026-05-03T09:24:30.013Z</time></trkpt><trkpt lat="42.2553061" lon="13.7250038"><ele>766.0</ele><time>2026-05-03T09:24:31.013Z</time></trkpt><trkpt lat="42.2553274" lon="13.7251064"><ele>766.0</ele><time>2026-05-03T09:24:32.012Z</time></trkpt><trkpt lat="42.2553499" lon="13.7252021"><ele>766.0</ele><time>2026-05-03T09:24:33.013Z</time></trkpt><trkpt lat="42.2553673" lon="13.7252928"><ele>766.0</ele><time>2026-05-03T09:24:34.013Z</time></trkpt><trkpt lat="42.2553853" lon="13.725383"><ele>766.0</ele><time>2026-05-03T09:24:35.013Z</time></trkpt><trkpt lat="42.2554056" lon="13.7254669"><ele>766.0</ele><time>2026-05-03T09:24:36.013Z</time></trkpt><trkpt lat="42.2554321" lon="13.7255487"><ele>765.8333333333334</ele><time>2026-05-03T09:24:37.012Z</time></trkpt><trkpt lat="42.2554616" lon="13.7256379"><ele>765.6666666666667</ele><time>2026-05-03T09:24:38.013Z</time></trkpt><trkpt lat="42.2554873" lon="13.7257376"><ele>765.5</ele><time>2026-05-03T09:24:39.013Z</time></trkpt><trkpt lat="42.2555183" lon="13.7258381"><ele>765.3333333333334</ele><time>2026-05-03T09:24:40.013Z</time></trkpt><trkpt lat="42.2555575" lon="13.7259419"><ele>765.1666666666666</ele><time>2026-05-03T09:24:41.013Z</time></trkpt><trkpt lat="42.2555968" lon="13.7260495"><ele>765.0</ele><time>2026-05-03T09:24:42.013Z</time></trkpt><trkpt lat="42.2556378" lon="13.7261545"><ele>765.0</ele><time>2026-05-03T09:24:43.013Z</time></trkpt><trkpt lat="42.2556708" lon="13.7262629"><ele>765.0</ele><time>2026-05-03T09:24:44.013Z</time></trkpt><trkpt lat="42.2556932" lon="13.7263648"><ele>765.0</ele><time>2026-05-03T09:24:45.012Z</time></trkpt><trkpt lat="42.255704" lon="13.7264564"><ele>765.0</ele><time>2026-05-03T09:24:46.012Z</time></trkpt><trkpt lat="42.255672" lon="13.726602"><ele>765.0</ele><time>2026-05-03T09:24:48.012Z</time></trkpt><trkpt lat="42.2555935" lon="13.7267184"><ele>762.4</ele><time>2026-05-03T09:24:50.013Z</time></trkpt><trkpt lat="42.2555003" lon="13.7268183"><ele>759.8</ele><time>2026-05-03T09:24:52.012Z</time></trkpt><trkpt lat="42.2554595" lon="13.7269277"><ele>757.2</ele><time>2026-05-03T09:24:54.013Z</time></trkpt><trkpt lat="42.2554629" lon="13.7270972"><ele>754.6</ele><time>2026-05-03T09:24:56.012Z</time></trkpt><trkpt lat="42.2554565" lon="13.7272033"><ele>752.0</ele><time>2026-05-03T09:24:57.013Z</time></trkpt><trkpt lat="42.2554395" lon="13.7272984"><ele>752.3333333333333</ele><time>2026-05-03T09:24:58.013Z</time></trkpt><trkpt lat="42.2554216" lon="13.7273814"><ele>752.6666666666666</ele><time>2026-05-03T09:24:59.013Z</time></trkpt><trkpt lat="42.2554291" lon="13.7275282"><ele>753.0</ele><time>2026-05-03T09:25:01.012Z</time></trkpt><trkpt lat="42.2554926" lon="13.7275875"><ele>753.3333333333334</ele><time>2026-05-03T09:25:03.013Z</time></trkpt><trkpt lat="42.2555735" lon="13.727564"><ele>753.6666666666667</ele><time>2026-05-03T09:25:05.013Z</time></trkpt><trkpt lat="42.2556759" lon="13.7275293"><ele>754.0</ele><time>2026-05-03T09:25:07.013Z</time></trkpt><trkpt lat="42.2557794" lon="13.7275427"><ele>754.0</ele><time>2026-05-03T09:25:09.012Z</time></trkpt><trkpt lat="42.2558706" lon="13.7275768"><ele>754.0</ele><time>2026-05-03T09:25:11.012Z</time></trkpt><trkpt lat="42.2559622" lon="13.7276331"><ele>754.0</ele><time>2026-05-03T09:25:13.013Z</time></trkpt><trkpt lat="42.2560617" lon="13.7276936"><ele>754.0</ele><time>2026-05-03T09:25:15.012Z</time></trkpt><trkpt lat="42.2561541" lon="13.7277703"><ele>754.0</ele><time>2026-05-03T09:25:17.013Z</time></trkpt><trkpt lat="42.2562542" lon="13.7278538"><ele>748.75</ele><time>2026-05-03T09:25:19.013Z</time></trkpt><trkpt lat="42.2563486" lon="13.7279326"><ele>743.5</ele><time>2026-05-03T09:25:21.013Z</time></trkpt><trkpt lat="42.2564436" lon="13.7280135"><ele>738.25</ele><time>2026-05-03T09:25:23.013Z</time></trkpt><trkpt lat="42.2565465" lon="13.7281014"><ele>733.0</ele><time>2026-05-03T09:25:25.013Z</time></trkpt><trkpt lat="42.2566461" lon="13.7281807"><ele>733.0</ele><time>2026-05-03T09:25:27.013Z</time></trkpt><trkpt lat="42.2567269" lon="13.7282514"><ele>733.0</ele><time>2026-05-03T09:25:29.012Z</time></trkpt><trkpt lat="42.256788" lon="13.728309"><ele>733.0</ele><time>2026-05-03T09:25:31.013Z</time></trkpt><trkpt lat="42.2568484" lon="13.7283701"><ele>733.0</ele><time>2026-05-03T09:25:34.013Z</time></trkpt><trkpt lat="42.256905" lon="13.7284595"><ele>733.0</ele><time>2026-05-03T09:25:37.013Z</time></trkpt><trkpt lat="42.2569605" lon="13.7285266"><ele>733.0</ele><time>2026-05-03T09:25:39.013Z</time></trkpt><trkpt lat="42.2570203" lon="13.7285913"><ele>725.8333333333334</ele><time>2026-05-03T09:25:41.012Z</time></trkpt><trkpt lat="42.2570897" lon="13.7286581"><ele>718.6666666666667</ele><time>2026-05-03T09:25:43.013Z</time></trkpt><trkpt lat="42.2571487" lon="13.7287398"><ele>711.5</ele><time>2026-05-03T09:25:45.012Z</time></trkpt><trkpt lat="42.257197" lon="13.7288254"><ele>704.3333333333334</ele><time>2026-05-03T09:25:47.012Z</time></trkpt><trkpt lat="42.257234" lon="13.7289018"><ele>697.1666666666666</ele><time>2026-05-03T09:25:49.013Z</time></trkpt><trkpt lat="42.257259" lon="13.7289947"><ele>690.0</ele><time>2026-05-03T09:25:51.013Z</time></trkpt><trkpt lat="42.2572802" lon="13.7290892"><ele>689.2857142857143</ele><time>2026-05-03T09:25:53.013Z</time></trkpt><trkpt lat="42.2573085" lon="13.7291794"><ele>688.5714285714286</ele><time>2026-05-03T09:25:55.012Z</time></trkpt><trkpt lat="42.257345" lon="13.7292602"><ele>687.8571428571429</ele><time>2026-05-03T09:25:57.013Z</time></trkpt><trkpt lat="42.2573888" lon="13.7293332"><ele>687.1428571428571</ele><time>2026-05-03T09:25:59.012Z</time></trkpt><trkpt lat="42.2574474" lon="13.7294007"><ele>686.4285714285714</ele><time>2026-05-03T09:26:01.013Z</time></trkpt><trkpt lat="42.2575207" lon="13.729448"><ele>685.7142857142857</ele><time>2026-05-03T09:26:03.012Z</time></trkpt><trkpt lat="42.2575888" lon="13.729473"><ele>685.0</ele><time>2026-05-03T09:26:05.012Z</time></trkpt><trkpt lat="42.2576522" lon="13.7294899"><ele>685.0</ele><time>2026-05-03T09:26:07.012Z</time></trkpt><trkpt lat="42.2577337" lon="13.7295017"><ele>685.0</ele><time>2026-05-03T09:26:09.012Z</time></trkpt><trkpt lat="42.2578097" lon="13.7295268"><ele>685.0</ele><time>2026-05-03T09:26:11.018Z</time></trkpt><trkpt lat="42.257893" lon="13.7295336"><ele>685.0</ele><time>2026-05-03T09:26:13.026Z</time></trkpt><trkpt lat="42.2579695" lon="13.7295548"><ele>685.0</ele><time>2026-05-03T09:26:15.037Z</time></trkpt><trkpt lat="42.2580479" lon="13.7295858"><ele>685.0</ele><time>2026-05-03T09:26:17.013Z</time></trkpt><trkpt lat="42.25812" lon="13.7296079"><ele>685.8571428571428</ele><time>2026-05-03T09:26:19.013Z</time></trkpt><trkpt lat="42.25819" lon="13.7296288"><ele>686.7142857142858</ele><time>2026-05-03T09:26:21.013Z</time></trkpt><trkpt lat="42.2582548" lon="13.729661"><ele>687.5714285714286</ele><time>2026-05-03T09:26:23.013Z</time></trkpt><trkpt lat="42.2583212" lon="13.7296997"><ele>688.4285714285713</ele><time>2026-05-03T09:26:25.013Z</time></trkpt><trkpt lat="42.2583842" lon="13.729741"><ele>689.2857142857142</ele><time>2026-05-03T09:26:27.013Z</time></trkpt><trkpt lat="42.2584456" lon="13.7297823"><ele>690.1428571428571</ele><time>2026-05-03T09:26:29.013Z</time></trkpt><trkpt lat="42.2585125" lon="13.7298305"><ele>691.0</ele><time>2026-05-03T09:26:31.013Z</time></trkpt><trkpt lat="42.2585841" lon="13.7298749"><ele>691.0</ele><time>2026-05-03T09:26:33.013Z</time></trkpt><trkpt lat="42.2586664" lon="13.7299188"><ele>691.0</ele><time>2026-05-03T09:26:35.013Z</time></trkpt><trkpt lat="42.2587706" lon="13.7299907"><ele>691.0</ele><time>2026-05-03T09:26:38.026Z</time></trkpt><trkpt lat="42.2588502" lon="13.7300076"><ele>691.0</ele><time>2026-05-03T09:26:40.038Z</time></trkpt><trkpt lat="42.2589153" lon="13.7300381"><ele>691.0</ele><time>2026-05-03T09:26:42.012Z</time></trkpt><trkpt lat="42.2589792" lon="13.7300735"><ele>691.0</ele><time>2026-05-03T09:26:44.012Z</time></trkpt><trkpt lat="42.2590506" lon="13.7300985"><ele>692.5999999999999</ele><time>2026-05-03T09:26:46.012Z</time></trkpt><trkpt lat="42.2591259" lon="13.7301229"><ele>694.2</ele><time>2026-05-03T09:26:48.031Z</time></trkpt><trkpt lat="42.2592067" lon="13.7301681"><ele>695.8</ele><time>2026-05-03T09:26:50.012Z</time></trkpt><trkpt lat="42.2593062" lon="13.7302199"><ele>697.4000000000001</ele><time>2026-05-03T09:26:52.013Z</time></trkpt><trkpt lat="42.2593944" lon="13.7302563"><ele>699.0</ele><time>2026-05-03T09:26:54.013Z</time></trkpt><trkpt lat="42.259474" lon="13.7303092"><ele>694.1666666666666</ele><time>2026-05-03T09:26:56.013Z</time></trkpt><trkpt lat="42.2595557" lon="13.730351"><ele>689.3333333333334</ele><time>2026-05-03T09:26:58.012Z</time></trkpt><trkpt lat="42.2596389" lon="13.7303905"><ele>684.5</ele><time>2026-05-03T09:27:00.013Z</time></trkpt><trkpt lat="42.2597097" lon="13.7304184"><ele>679.6666666666667</ele><time>2026-05-03T09:27:02.013Z</time></trkpt><trkpt lat="42.2597992" lon="13.7304643"><ele>674.8333333333334</ele><time>2026-05-03T09:27:04.012Z</time></trkpt><trkpt lat="42.259886" lon="13.7305056"><ele>670.0</ele><time>2026-05-03T09:27:06.013Z</time></trkpt><trkpt lat="42.2599597" lon="13.7305548"><ele>669.9999999999999</ele><time>2026-05-03T09:27:08.013Z</time></trkpt><trkpt lat="42.2600254" lon="13.7305915"><ele>670.0</ele><time>2026-05-03T09:27:10.013Z</time></trkpt><trkpt lat="42.2600876" lon="13.7306292"><ele>670.0</ele><time>2026-05-03T09:27:12.012Z</time></trkpt><trkpt lat="42.2601567" lon="13.7306734"><ele>670.0</ele><time>2026-05-03T09:27:14.012Z</time></trkpt><trkpt lat="42.2602151" lon="13.7307188"><ele>670.0</ele><time>2026-05-03T09:27:16.012Z</time></trkpt><trkpt lat="42.2602748" lon="13.7307548"><ele>669.9999999999999</ele><time>2026-05-03T09:27:18.012Z</time></trkpt><trkpt lat="42.2603308" lon="13.7308036"><ele>670.0</ele><time>2026-05-03T09:27:20.012Z</time></trkpt><trkpt lat="42.2603903" lon="13.7308513"><ele>670.0</ele><time>2026-05-03T09:27:22.012Z</time></trkpt><trkpt lat="42.2604724" lon="13.7309076"><ele>670.0</ele><time>2026-05-03T09:27:25.013Z</time></trkpt><trkpt lat="42.2605278" lon="13.7309542"><ele>670.0</ele><time>2026-05-03T09:27:27.013Z</time></trkpt><trkpt lat="42.2605865" lon="13.7310135"><ele>670.0</ele><time>2026-05-03T09:27:29.012Z</time></trkpt><trkpt lat="42.2606453" lon="13.7310728"><ele>670.0</ele><time>2026-05-03T09:27:31.013Z</time></trkpt><trkpt lat="42.2607128" lon="13.7311338"><ele>670.0</ele><time>2026-05-03T09:27:33.012Z</time></trkpt><trkpt lat="42.2607825" lon="13.7312086"><ele>666.4</ele><time>2026-05-03T09:27:35.013Z</time></trkpt><trkpt lat="42.2608398" lon="13.7312913"><ele>662.8</ele><time>2026-05-03T09:27:37.013Z</time></trkpt><trkpt lat="42.2608857" lon="13.7313814"><ele>659.2</ele><time>2026-05-03T09:27:39.012Z</time></trkpt><trkpt lat="42.2609227" lon="13.73149"><ele>655.6</ele><time>2026-05-03T09:27:41.013Z</time></trkpt><trkpt lat="42.2609687" lon="13.7316266"><ele>652.0</ele><time>2026-05-03T09:27:43.013Z</time></trkpt><trkpt lat="42.2610436" lon="13.7317584"><ele>652.0</ele><time>2026-05-03T09:27:45.013Z</time></trkpt><trkpt lat="42.2611131" lon="13.7318651"><ele>652.0</ele><time>2026-05-03T09:27:47.012Z</time></trkpt><trkpt lat="42.261189" lon="13.7319488"><ele>652.0</ele><time>2026-05-03T09:27:49.013Z</time></trkpt><trkpt lat="42.2612822" lon="13.7319639"><ele>652.0</ele><time>2026-05-03T09:27:51.013Z</time></trkpt><trkpt lat="42.2613849" lon="13.7319835"><ele>652.0</ele><time>2026-05-03T09:27:53.013Z</time></trkpt><trkpt lat="42.2614698" lon="13.7320321"><ele>651.4000000000001</ele><time>2026-05-03T09:27:55.012Z</time></trkpt><trkpt lat="42.2615365" lon="13.7321333"><ele>650.8000000000001</ele><time>2026-05-03T09:27:57.013Z</time></trkpt><trkpt lat="42.2615815" lon="13.7322552"><ele>650.2</ele><time>2026-05-03T09:27:59.013Z</time></trkpt><trkpt lat="42.2615949" lon="13.7323833"><ele>649.6</ele><time>2026-05-03T09:28:01.012Z</time></trkpt><trkpt lat="42.2615967" lon="13.7325219"><ele>649.0</ele><time>2026-05-03T09:28:03.012Z</time></trkpt><trkpt lat="42.2615831" lon="13.7326444"><ele>646.0</ele><time>2026-05-03T09:28:05.012Z</time></trkpt><trkpt lat="42.261576" lon="13.7327625"><ele>643.0</ele><time>2026-05-03T09:28:07.012Z</time></trkpt><trkpt lat="42.2615961" lon="13.7328873"><ele>640.0</ele><time>2026-05-03T09:28:09.013Z</time></trkpt><trkpt lat="42.2616151" lon="13.7330284"><ele>637.0</ele><time>2026-05-03T09:28:11.013Z</time></trkpt><trkpt lat="42.261629" lon="13.73318"><ele>634.0</ele><time>2026-05-03T09:28:13.013Z</time></trkpt><trkpt lat="42.2616446" lon="13.7333328"><ele>634.0</ele><time>2026-05-03T09:28:15.013Z</time></trkpt><trkpt lat="42.2616721" lon="13.7334796"><ele>634.0</ele><time>2026-05-03T09:28:17.013Z</time></trkpt><trkpt lat="42.2617042" lon="13.733626"><ele>634.0</ele><time>2026-05-03T09:28:19.012Z</time></trkpt><trkpt lat="42.2617365" lon="13.7337654"><ele>634.0</ele><time>2026-05-03T09:28:21.013Z</time></trkpt><trkpt lat="42.2617479" lon="13.7339081"><ele>634.0</ele><time>2026-05-03T09:28:23.013Z</time></trkpt><trkpt lat="42.2617478" lon="13.734054"><ele>633.0</ele><time>2026-05-03T09:28:25.013Z</time></trkpt><trkpt lat="42.2617374" lon="13.7342006"><ele>632.0</ele><time>2026-05-03T09:28:27.013Z</time></trkpt><trkpt lat="42.2617018" lon="13.7343384"><ele>631.0</ele><time>2026-05-03T09:28:29.013Z</time></trkpt><trkpt lat="42.2616469" lon="13.7344855"><ele>630.0</ele><time>2026-05-03T09:28:31.013Z</time></trkpt><trkpt lat="42.2616208" lon="13.7345656"><ele>629.0</ele><time>2026-05-03T09:28:32.013Z</time></trkpt><trkpt lat="42.2615886" lon="13.7346447"><ele>629.0</ele><time>2026-05-03T09:28:33.013Z</time></trkpt><trkpt lat="42.2615549" lon="13.7347195"><ele>629.0</ele><time>2026-05-03T09:28:34.012Z</time></trkpt><trkpt lat="42.2615138" lon="13.7347841"><ele>629.0</ele><time>2026-05-03T09:28:35.013Z</time></trkpt><trkpt lat="42.2614221" lon="13.7348964"><ele>629.0</ele><time>2026-05-03T09:28:37.012Z</time></trkpt><trkpt lat="42.2613741" lon="13.7349559"><ele>629.0</ele><time>2026-05-03T09:28:38.013Z</time></trkpt><trkpt lat="42.261327" lon="13.7350164"><ele>629.0</ele><time>2026-05-03T09:28:39.013Z</time></trkpt><trkpt lat="42.2612515" lon="13.7351338"><ele>624.0</ele><time>2026-05-03T09:28:41.013Z</time></trkpt><trkpt lat="42.2611911" lon="13.7352405"><ele>619.0</ele><time>2026-05-03T09:28:43.012Z</time></trkpt><trkpt lat="42.2611644" lon="13.7353296"><ele>614.0</ele><time>2026-05-03T09:28:45.012Z</time></trkpt><trkpt lat="42.2611343" lon="13.7354659"><ele>609.0</ele><time>2026-05-03T09:28:47.013Z</time></trkpt><trkpt lat="42.2610902" lon="13.7356043"><ele>604.0</ele><time>2026-05-03T09:28:49.012Z</time></trkpt><trkpt lat="42.2610725" lon="13.7356983"><ele>604.0</ele><time>2026-05-03T09:28:51.013Z</time></trkpt><trkpt lat="42.2610604" lon="13.7357874"><ele>604.0</ele><time>2026-05-03T09:28:53.013Z</time></trkpt><trkpt lat="42.2610418" lon="13.7358829"><ele>604.0</ele><time>2026-05-03T09:28:55.012Z</time></trkpt><trkpt lat="42.2610218" lon="13.7360057"><ele>604.0</ele><time>2026-05-03T09:28:58.013Z</time></trkpt><trkpt lat="42.2610059" lon="13.7361091"><ele>604.0</ele><time>2026-05-03T09:29:00.013Z</time></trkpt><trkpt lat="42.2609774" lon="13.7362181"><ele>604.0</ele><time>2026-05-03T09:29:02.013Z</time></trkpt><trkpt lat="42.2609515" lon="13.73632"><ele>602.6666666666667</ele><time>2026-05-03T09:29:05.012Z</time></trkpt><trkpt lat="42.2609805" lon="13.7364155"><ele>601.3333333333334</ele><time>2026-05-03T09:29:19.012Z</time></trkpt><trkpt lat="42.2610398" lon="13.7364661"><ele>600.0</ele><time>2026-05-03T09:29:22.013Z</time></trkpt><trkpt lat="42.26112" lon="13.7365464"><ele>598.6666666666666</ele><time>2026-05-03T09:29:29.012Z</time></trkpt><trkpt lat="42.2611709" lon="13.7366036"><ele>597.3333333333333</ele><time>2026-05-03T09:29:31.012Z</time></trkpt><trkpt lat="42.2612271" lon="13.7366767"><ele>596.0</ele><time>2026-05-03T09:29:33.013Z</time></trkpt><trkpt lat="42.261298" lon="13.7367589"><ele>596.0</ele><time>2026-05-03T09:29:35.013Z</time></trkpt><trkpt lat="42.2613735" lon="13.7368396"><ele>596.0</ele><time>2026-05-03T09:29:37.013Z</time></trkpt><trkpt lat="42.2614555" lon="13.7368988"><ele>596.0</ele><time>2026-05-03T09:29:39.013Z</time></trkpt><trkpt lat="42.2615397" lon="13.736943"><ele>596.0</ele><time>2026-05-03T09:29:41.012Z</time></trkpt><trkpt lat="42.2616232" lon="13.7369656"><ele>596.0</ele><time>2026-05-03T09:29:43.012Z</time></trkpt><trkpt lat="42.2617104" lon="13.7369984"><ele>593.0</ele><time>2026-05-03T09:29:45.012Z</time></trkpt><trkpt lat="42.2618" lon="13.7370291"><ele>590.0</ele><time>2026-05-03T09:29:47.012Z</time></trkpt><trkpt lat="42.2618966" lon="13.73707"><ele>587.0</ele><time>2026-05-03T09:29:49.013Z</time></trkpt><trkpt lat="42.2619851" lon="13.7371239"><ele>584.0</ele><time>2026-05-03T09:29:51.013Z</time></trkpt><trkpt lat="42.26207" lon="13.7371851"><ele>581.0</ele><time>2026-05-03T09:29:53.013Z</time></trkpt><trkpt lat="42.262161" lon="13.7372541"><ele>581.0</ele><time>2026-05-03T09:29:55.012Z</time></trkpt><trkpt lat="42.2622643" lon="13.7373297"><ele>581.0</ele><time>2026-05-03T09:29:57.012Z</time></trkpt><trkpt lat="42.2623218" lon="13.7373727"><ele>581.0</ele><time>2026-05-03T09:29:58.013Z</time></trkpt><trkpt lat="42.2623806" lon="13.7374134"><ele>581.0</ele><time>2026-05-03T09:29:59.013Z</time></trkpt><trkpt lat="42.2624421" lon="13.7374547"><ele>581.0</ele><time>2026-05-03T09:30:00.012Z</time></trkpt><trkpt lat="42.2625522" lon="13.7375169"><ele>581.0</ele><time>2026-05-03T09:30:02.012Z</time></trkpt><trkpt lat="42.2626516" lon="13.7375444"><ele>582.0</ele><time>2026-05-03T09:30:04.012Z</time></trkpt><trkpt lat="42.2627484" lon="13.737564"><ele>583.0</ele><time>2026-05-03T09:30:06.013Z</time></trkpt><trkpt lat="42.2628446" lon="13.7375918"><ele>584.0</ele><time>2026-05-03T09:30:08.012Z</time></trkpt><trkpt lat="42.2629433" lon="13.7376201"><ele>585.0</ele><time>2026-05-03T09:30:10.013Z</time></trkpt><trkpt lat="42.2630528" lon="13.7376425"><ele>586.0</ele><time>2026-05-03T09:30:12.013Z</time></trkpt><trkpt lat="42.2631599" lon="13.7376731"><ele>586.5</ele><time>2026-05-03T09:30:14.012Z</time></trkpt><trkpt lat="42.2632635" lon="13.7376953"><ele>587.0</ele><time>2026-05-03T09:30:16.012Z</time></trkpt><trkpt lat="42.2633628" lon="13.7377212"><ele>587.5</ele><time>2026-05-03T09:30:18.013Z</time></trkpt><trkpt lat="42.2634587" lon="13.7377358"><ele>588.0</ele><time>2026-05-03T09:30:20.012Z</time></trkpt><trkpt lat="42.2635386" lon="13.7377425"><ele>588.5</ele><time>2026-05-03T09:30:22.013Z</time></trkpt><trkpt lat="42.263605" lon="13.7377536"><ele>589.0</ele><time>2026-05-03T09:30:24.013Z</time></trkpt><trkpt lat="42.2636774" lon="13.7377642"><ele>584.8571428571429</ele><time>2026-05-03T09:30:26.012Z</time></trkpt><trkpt lat="42.2637485" lon="13.7377662"><ele>580.7142857142857</ele><time>2026-05-03T09:30:28.012Z</time></trkpt><trkpt lat="42.2638189" lon="13.7377573"><ele>576.5714285714286</ele><time>2026-05-03T09:30:30.013Z</time></trkpt><trkpt lat="42.2638917" lon="13.7377446"><ele>572.4285714285714</ele><time>2026-05-03T09:30:32.013Z</time></trkpt><trkpt lat="42.2639666" lon="13.7377427"><ele>568.2857142857142</ele><time>2026-05-03T09:30:34.013Z</time></trkpt><trkpt lat="42.2640303" lon="13.7377562"><ele>564.1428571428571</ele><time>2026-05-03T09:30:36.013Z</time></trkpt><trkpt lat="42.2640966" lon="13.7377841"><ele>560.0</ele><time>2026-05-03T09:30:38.013Z</time></trkpt><trkpt lat="42.2641662" lon="13.7378176"><ele>559.3333333333333</ele><time>2026-05-03T09:30:40.013Z</time></trkpt><trkpt lat="42.2642389" lon="13.7378518"><ele>558.6666666666666</ele><time>2026-05-03T09:30:42.013Z</time></trkpt><trkpt lat="42.2643123" lon="13.7378845"><ele>558.0</ele><time>2026-05-03T09:30:44.012Z</time></trkpt><trkpt lat="42.2643855" lon="13.737904"><ele>557.3333333333334</ele><time>2026-05-03T09:30:46.012Z</time></trkpt><trkpt lat="42.2644559" lon="13.7379063"><ele>556.6666666666667</ele><time>2026-05-03T09:30:48.012Z</time></trkpt><trkpt lat="42.2645291" lon="13.7379178"><ele>556.0</ele><time>2026-05-03T09:30:51.012Z</time></trkpt><trkpt lat="42.2646138" lon="13.7379411"><ele>556.0</ele><time>2026-05-03T09:30:54.013Z</time></trkpt><trkpt lat="42.2646881" lon="13.7379572"><ele>556.0</ele><time>2026-05-03T09:30:56.013Z</time></trkpt><trkpt lat="42.2647653" lon="13.7379725"><ele>556.0</ele><time>2026-05-03T09:30:58.013Z</time></trkpt><trkpt lat="42.26484" lon="13.7380038"><ele>556.0</ele><time>2026-05-03T09:31:01.013Z</time></trkpt><trkpt lat="42.264914" lon="13.7380459"><ele>556.0</ele><time>2026-05-03T09:31:06.012Z</time></trkpt><trkpt lat="42.2650267" lon="13.738101"><ele>556.0</ele><time>2026-05-03T09:31:08.013Z</time></trkpt><trkpt lat="42.2650888" lon="13.738119"><ele>555.3333333333334</ele><time>2026-05-03T09:31:09.013Z</time></trkpt><trkpt lat="42.2651598" lon="13.7381271"><ele>554.6666666666667</ele><time>2026-05-03T09:31:10.013Z</time></trkpt><trkpt lat="42.2652317" lon="13.7381319"><ele>554.0</ele><time>2026-05-03T09:31:11.013Z</time></trkpt><trkpt lat="42.265305" lon="13.7381397"><ele>553.3333333333334</ele><time>2026-05-03T09:31:12.012Z</time></trkpt><trkpt lat="42.2653841" lon="13.7381504"><ele>552.6666666666666</ele><time>2026-05-03T09:31:13.012Z</time></trkpt><trkpt lat="42.2654681" lon="13.7381493"><ele>552.0</ele><time>2026-05-03T09:31:14.013Z</time></trkpt><trkpt lat="42.2655587" lon="13.7381488"><ele>551.6</ele><time>2026-05-03T09:31:15.012Z</time></trkpt><trkpt lat="42.2656537" lon="13.7381522"><ele>551.2</ele><time>2026-05-03T09:31:16.012Z</time></trkpt><trkpt lat="42.2657495" lon="13.7381547"><ele>550.8</ele><time>2026-05-03T09:31:17.012Z</time></trkpt><trkpt lat="42.2658479" lon="13.7381544"><ele>550.4</ele><time>2026-05-03T09:31:18.013Z</time></trkpt><trkpt lat="42.2659485" lon="13.7381607"><ele>550.0</ele><time>2026-05-03T09:31:19.012Z</time></trkpt><trkpt lat="42.2660508" lon="13.7381616"><ele>550.0</ele><time>2026-05-03T09:31:20.012Z</time></trkpt><trkpt lat="42.2661545" lon="13.7381706"><ele>550.0</ele><time>2026-05-03T09:31:21.013Z</time></trkpt><trkpt lat="42.2662597" lon="13.7381734"><ele>550.0</ele><time>2026-05-03T09:31:22.013Z</time></trkpt><trkpt lat="42.2663577" lon="13.7381796"><ele>550.0</ele><time>2026-05-03T09:31:23.012Z</time></trkpt><trkpt lat="42.2664479" lon="13.7381825"><ele>550.0</ele><time>2026-05-03T09:31:24.013Z</time></trkpt><trkpt lat="42.2665385" lon="13.7381877"><ele>549.5</ele><time>2026-05-03T09:31:25.013Z</time></trkpt><trkpt lat="42.2666259" lon="13.7381948"><ele>549.0</ele><time>2026-05-03T09:31:26.012Z</time></trkpt><trkpt lat="42.2667084" lon="13.7381986"><ele>548.5</ele><time>2026-05-03T09:31:27.012Z</time></trkpt><trkpt lat="42.2667873" lon="13.7381985"><ele>548.0</ele><time>2026-05-03T09:31:28.012Z</time></trkpt><trkpt lat="42.2668709" lon="13.7381996"><ele>547.5</ele><time>2026-05-03T09:31:30.012Z</time></trkpt><trkpt lat="42.2669455" lon="13.7382147"><ele>547.0</ele><time>2026-05-03T09:31:34.013Z</time></trkpt><trkpt lat="42.2670213" lon="13.7382141"><ele>547.0</ele><time>2026-05-03T09:31:36.012Z</time></trkpt><trkpt lat="42.2671242" lon="13.7382119"><ele>547.0</ele><time>2026-05-03T09:31:38.012Z</time></trkpt><trkpt lat="42.2672421" lon="13.7382206"><ele>547.0</ele><time>2026-05-03T09:31:40.012Z</time></trkpt><trkpt lat="42.2673151" lon="13.7382217"><ele>547.0</ele><time>2026-05-03T09:31:41.012Z</time></trkpt><trkpt lat="42.2673955" lon="13.7382234"><ele>547.0</ele><time>2026-05-03T09:31:42.013Z</time></trkpt><trkpt lat="42.2674819" lon="13.7382195"><ele>546.2</ele><time>2026-05-03T09:31:43.013Z</time></trkpt><trkpt lat="42.267581" lon="13.7382177"><ele>545.4000000000001</ele><time>2026-05-03T09:31:44.013Z</time></trkpt><trkpt lat="42.2676874" lon="13.7382195"><ele>544.5999999999999</ele><time>2026-05-03T09:31:45.013Z</time></trkpt><trkpt lat="42.2677918" lon="13.7382277"><ele>543.8</ele><time>2026-05-03T09:31:46.012Z</time></trkpt><trkpt lat="42.2679041" lon="13.7382386"><ele>543.0</ele><time>2026-05-03T09:31:47.013Z</time></trkpt><trkpt lat="42.2680217" lon="13.7382452"><ele>542.0</ele><time>2026-05-03T09:31:48.012Z</time></trkpt><trkpt lat="42.2681312" lon="13.7382467"><ele>541.0</ele><time>2026-05-03T09:31:49.012Z</time></trkpt><trkpt lat="42.2682239" lon="13.7382561"><ele>540.0</ele><time>2026-05-03T09:31:50.013Z</time></trkpt><trkpt lat="42.2683066" lon="13.7382646"><ele>539.0</ele><time>2026-05-03T09:31:51.013Z</time></trkpt><trkpt lat="42.2683865" lon="13.738268"><ele>538.0</ele><time>2026-05-03T09:31:52.012Z</time></trkpt><trkpt lat="42.268494" lon="13.7382794"><ele>538.0</ele><time>2026-05-03T09:31:54.012Z</time></trkpt><trkpt lat="42.268565" lon="13.7383141"><ele>538.0</ele><time>2026-05-03T09:31:57.013Z</time></trkpt><trkpt lat="42.2686589" lon="13.7383427"><ele>538.0</ele><time>2026-05-03T09:32:00.013Z</time></trkpt><trkpt lat="42.2687413" lon="13.7383648"><ele>538.0</ele><time>2026-05-03T09:32:02.013Z</time></trkpt><trkpt lat="42.26884" lon="13.7384066"><ele>538.0</ele><time>2026-05-03T09:32:04.012Z</time></trkpt><trkpt lat="42.2689523" lon="13.7384538"><ele>538.4</ele><time>2026-05-03T09:32:06.013Z</time></trkpt><trkpt lat="42.2690634" lon="13.7385116"><ele>538.8</ele><time>2026-05-03T09:32:08.012Z</time></trkpt><trkpt lat="42.2691586" lon="13.7385764"><ele>539.2</ele><time>2026-05-03T09:32:10.012Z</time></trkpt><trkpt lat="42.2692544" lon="13.738642"><ele>539.6</ele><time>2026-05-03T09:32:12.012Z</time></trkpt><trkpt lat="42.269341" lon="13.7387058"><ele>540.0</ele><time>2026-05-03T09:32:14.012Z</time></trkpt><trkpt lat="42.2693833" lon="13.7388124"><ele>537.2</ele><time>2026-05-03T09:32:16.012Z</time></trkpt><trkpt lat="42.2693794" lon="13.7389537"><ele>534.4</ele><time>2026-05-03T09:32:18.013Z</time></trkpt><trkpt lat="42.2693469" lon="13.7391051"><ele>531.6</ele><time>2026-05-03T09:32:20.013Z</time></trkpt><trkpt lat="42.269327" lon="13.7392754"><ele>528.8</ele><time>2026-05-03T09:32:22.013Z</time></trkpt><trkpt lat="42.2693208" lon="13.7393609"><ele>526.0</ele><time>2026-05-03T09:32:23.012Z</time></trkpt><trkpt lat="42.2693067" lon="13.7394472"><ele>524.8571428571429</ele><time>2026-05-03T09:32:24.012Z</time></trkpt><trkpt lat="42.2692902" lon="13.739534"><ele>523.7142857142857</ele><time>2026-05-03T09:32:25.012Z</time></trkpt><trkpt lat="42.2692749" lon="13.739627"><ele>522.5714285714286</ele><time>2026-05-03T09:32:26.012Z</time></trkpt><trkpt lat="42.2692534" lon="13.7397196"><ele>521.4285714285714</ele><time>2026-05-03T09:32:27.012Z</time></trkpt><trkpt lat="42.2692311" lon="13.7398112"><ele>520.2857142857142</ele><time>2026-05-03T09:32:28.012Z</time></trkpt><trkpt lat="42.2692125" lon="13.7398997"><ele>519.1428571428571</ele><time>2026-05-03T09:32:29.013Z</time></trkpt><trkpt lat="42.2691986" lon="13.7399865"><ele>518.0</ele><time>2026-05-03T09:32:30.013Z</time></trkpt><trkpt lat="42.269189" lon="13.7401449"><ele>515.1666666666666</ele><time>2026-05-03T09:32:32.012Z</time></trkpt><trkpt lat="42.2691418" lon="13.7402488"><ele>512.3333333333333</ele><time>2026-05-03T09:32:34.013Z</time></trkpt><trkpt lat="42.2690697" lon="13.7403343"><ele>509.5</ele><time>2026-05-03T09:32:36.012Z</time></trkpt><trkpt lat="42.2689626" lon="13.740426"><ele>506.66666666666663</ele><time>2026-05-03T09:32:38.013Z</time></trkpt><trkpt lat="42.2689022" lon="13.7404675"><ele>503.8333333333333</ele><time>2026-05-03T09:32:39.013Z</time></trkpt><trkpt lat="42.2688455" lon="13.7405055"><ele>501.0</ele><time>2026-05-03T09:32:40.012Z</time></trkpt><trkpt lat="42.2687377" lon="13.7405705"><ele>501.0</ele><time>2026-05-03T09:32:42.012Z</time></trkpt><trkpt lat="42.2686435" lon="13.7405903"><ele>501.0</ele><time>2026-05-03T09:32:44.012Z</time></trkpt><trkpt lat="42.2685882" lon="13.7405234"><ele>501.0</ele><time>2026-05-03T09:32:47.012Z</time></trkpt><trkpt lat="42.2685526" lon="13.7404198"><ele>501.0</ele><time>2026-05-03T09:32:49.012Z</time></trkpt><trkpt lat="42.2685407" lon="13.7402784"><ele>501.0</ele><time>2026-05-03T09:32:51.013Z</time></trkpt><trkpt lat="42.2685269" lon="13.7401382"><ele>501.0</ele><time>2026-05-03T09:32:53.012Z</time></trkpt><trkpt lat="42.2684712" lon="13.7400417"><ele>501.0</ele><time>2026-05-03T09:32:55.012Z</time></trkpt><trkpt lat="42.2683821" lon="13.7400478"><ele>501.0</ele><time>2026-05-03T09:32:57.013Z</time></trkpt><trkpt lat="42.2683223" lon="13.7401041"><ele>501.0</ele><time>2026-05-03T09:32:59.013Z</time></trkpt><trkpt lat="42.2682803" lon="13.7402131"><ele>501.0</ele><time>2026-05-03T09:33:01.012Z</time></trkpt><trkpt lat="42.2682093" lon="13.740312"><ele>501.0</ele><time>2026-05-03T09:33:03.013Z</time></trkpt><trkpt lat="42.2681146" lon="13.7403761"><ele>499.6666666666667</ele><time>2026-05-03T09:33:05.012Z</time></trkpt><trkpt lat="42.268051" lon="13.7404039"><ele>498.33333333333337</ele><time>2026-05-03T09:33:06.012Z</time></trkpt><trkpt lat="42.2679748" lon="13.7404289"><ele>497.0</ele><time>2026-05-03T09:33:07.013Z</time></trkpt><trkpt lat="42.2678965" lon="13.7404555"><ele>495.6666666666667</ele><time>2026-05-03T09:33:08.013Z</time></trkpt><trkpt lat="42.2678244" lon="13.7404846"><ele>494.33333333333337</ele><time>2026-05-03T09:33:09.012Z</time></trkpt><trkpt lat="42.2677182" lon="13.7404987"><ele>493.0</ele><time>2026-05-03T09:33:11.012Z</time></trkpt><trkpt lat="42.2676041" lon="13.7404685"><ele>493.00000000000006</ele><time>2026-05-03T09:33:13.012Z</time></trkpt><trkpt lat="42.2675002" lon="13.7404312"><ele>493.0</ele><time>2026-05-03T09:33:15.013Z</time></trkpt><trkpt lat="42.2673938" lon="13.7403543"><ele>493.0</ele><time>2026-05-03T09:33:17.012Z</time></trkpt><trkpt lat="42.267333" lon="13.7403067"><ele>493.0</ele><time>2026-05-03T09:33:18.013Z</time></trkpt><trkpt lat="42.2672691" lon="13.7402638"><ele>493.00000000000006</ele><time>2026-05-03T09:33:19.013Z</time></trkpt><trkpt lat="42.2672053" lon="13.7402289"><ele>493.0</ele><time>2026-05-03T09:33:20.013Z</time></trkpt><trkpt lat="42.2671437" lon="13.7402103"><ele>491.59999999999997</ele><time>2026-05-03T09:33:21.013Z</time></trkpt><trkpt lat="42.2670439" lon="13.7402213"><ele>490.19999999999993</ele><time>2026-05-03T09:33:23.013Z</time></trkpt><trkpt lat="42.2669462" lon="13.740204"><ele>488.8</ele><time>2026-05-03T09:33:25.012Z</time></trkpt><trkpt lat="42.2668735" lon="13.7401781"><ele>487.4</ele><time>2026-05-03T09:33:26.013Z</time></trkpt><trkpt lat="42.2667994" lon="13.7401624"><ele>486.0</ele><time>2026-05-03T09:33:27.012Z</time></trkpt><trkpt lat="42.266682" lon="13.7401801"><ele>486.0</ele><time>2026-05-03T09:33:29.013Z</time></trkpt><trkpt lat="42.2665494" lon="13.7402039"><ele>486.0</ele><time>2026-05-03T09:33:31.012Z</time></trkpt><trkpt lat="42.2664783" lon="13.7402219"><ele>486.0</ele><time>2026-05-03T09:33:32.012Z</time></trkpt><trkpt lat="42.2664042" lon="13.7402426"><ele>486.0</ele><time>2026-05-03T09:33:33.013Z</time></trkpt><trkpt lat="42.2663324" lon="13.7402582"><ele>486.0</ele><time>2026-05-03T09:33:34.012Z</time></trkpt><trkpt lat="42.2662238" lon="13.7403157"><ele>486.1428571428571</ele><time>2026-05-03T09:33:36.012Z</time></trkpt><trkpt lat="42.2661756" lon="13.7403706"><ele>486.28571428571433</ele><time>2026-05-03T09:33:37.013Z</time></trkpt><trkpt lat="42.2661274" lon="13.7404294"><ele>486.42857142857144</ele><time>2026-05-03T09:33:38.012Z</time></trkpt><trkpt lat="42.2660743" lon="13.7404944"><ele>486.57142857142856</ele><time>2026-05-03T09:33:39.012Z</time></trkpt><trkpt lat="42.2660189" lon="13.7405542"><ele>486.71428571428567</ele><time>2026-05-03T09:33:40.013Z</time></trkpt><trkpt lat="42.2659609" lon="13.7406118"><ele>486.8571428571429</ele><time>2026-05-03T09:33:41.013Z</time></trkpt><trkpt lat="42.2659014" lon="13.7406729"><ele>487.0</ele><time>2026-05-03T09:33:42.013Z</time></trkpt><trkpt lat="42.2658477" lon="13.7407352"><ele>487.00000000000006</ele><time>2026-05-03T09:33:43.012Z</time></trkpt><trkpt lat="42.2657946" lon="13.7407969"><ele>487.0</ele><time>2026-05-03T09:33:44.013Z</time></trkpt><trkpt lat="42.2657403" lon="13.740851"><ele>487.0</ele><time>2026-05-03T09:33:45.012Z</time></trkpt><trkpt lat="42.2656231" lon="13.7409276"><ele>487.0</ele><time>2026-05-03T09:33:47.012Z</time></trkpt><trkpt lat="42.2655543" lon="13.740954"><ele>487.00000000000006</ele><time>2026-05-03T09:33:48.012Z</time></trkpt><trkpt lat="42.2654852" lon="13.7409721"><ele>487.0</ele><time>2026-05-03T09:33:49.013Z</time></trkpt><trkpt lat="42.2654188" lon="13.7409915"><ele>487.0</ele><time>2026-05-03T09:33:50.012Z</time></trkpt><trkpt lat="42.2653492" lon="13.7410026"><ele>487.0</ele><time>2026-05-03T09:33:51.012Z</time></trkpt><trkpt lat="42.2652771" lon="13.7409991"><ele>487.0</ele><time>2026-05-03T09:33:52.013Z</time></trkpt><trkpt lat="42.2651987" lon="13.7409945"><ele>487.0</ele><time>2026-05-03T09:33:53.013Z</time></trkpt><trkpt lat="42.265119" lon="13.7409843"><ele>487.0</ele><time>2026-05-03T09:33:54.013Z</time></trkpt><trkpt lat="42.2650458" lon="13.7409625"><ele>487.0</ele><time>2026-05-03T09:33:55.012Z</time></trkpt><trkpt lat="42.2649768" lon="13.7409425"><ele>487.0</ele><time>2026-05-03T09:33:56.013Z</time></trkpt><trkpt lat="42.2649093" lon="13.7409378"><ele>487.00000000000006</ele><time>2026-05-03T09:33:57.012Z</time></trkpt><trkpt lat="42.2648366" lon="13.7409492"><ele>487.0</ele><time>2026-05-03T09:33:58.012Z</time></trkpt><trkpt lat="42.2647575" lon="13.740968"><ele>487.0</ele><time>2026-05-03T09:33:59.012Z</time></trkpt><trkpt lat="42.2646801" lon="13.7410026"><ele>487.0</ele><time>2026-05-03T09:34:00.012Z</time></trkpt><trkpt lat="42.2646098" lon="13.7410493"><ele>487.00000000000006</ele><time>2026-05-03T09:34:01.013Z</time></trkpt><trkpt lat="42.2645419" lon="13.7411036"><ele>487.0</ele><time>2026-05-03T09:34:02.012Z</time></trkpt><trkpt lat="42.264464" lon="13.7411434"><ele>484.83333333333337</ele><time>2026-05-03T09:34:03.013Z</time></trkpt><trkpt lat="42.264386" lon="13.7411727"><ele>482.6666666666667</ele><time>2026-05-03T09:34:04.013Z</time></trkpt><trkpt lat="42.2643016" lon="13.7412003"><ele>480.5</ele><time>2026-05-03T09:34:05.012Z</time></trkpt><trkpt lat="42.2642229" lon="13.741224"><ele>478.33333333333337</ele><time>2026-05-03T09:34:06.013Z</time></trkpt><trkpt lat="42.2641485" lon="13.7412398"><ele>476.1666666666667</ele><time>2026-05-03T09:34:07.013Z</time></trkpt><trkpt lat="42.2640744" lon="13.7412408"><ele>474.0</ele><time>2026-05-03T09:34:08.013Z</time></trkpt><trkpt lat="42.2639912" lon="13.7412372"><ele>474.0</ele><time>2026-05-03T09:34:09.013Z</time></trkpt><trkpt lat="42.263898" lon="13.7412389"><ele>474.0</ele><time>2026-05-03T09:34:10.012Z</time></trkpt><trkpt lat="42.2637992" lon="13.7412394"><ele>474.0</ele><time>2026-05-03T09:34:11.013Z</time></trkpt><trkpt lat="42.2637094" lon="13.7412407"><ele>474.0</ele><time>2026-05-03T09:34:12.013Z</time></trkpt><trkpt lat="42.2636366" lon="13.7412433"><ele>474.0</ele><time>2026-05-03T09:34:13.012Z</time></trkpt><trkpt lat="42.2635442" lon="13.741253"><ele>474.0</ele><time>2026-05-03T09:34:15.012Z</time></trkpt><trkpt lat="42.2634991" lon="13.7413258"><ele>474.0</ele><time>2026-05-03T09:34:17.013Z</time></trkpt><trkpt lat="42.263428" lon="13.7414358"><ele>474.0</ele><time>2026-05-03T09:34:19.012Z</time></trkpt><trkpt lat="42.2633505" lon="13.7415218"><ele>474.0</ele><time>2026-05-03T09:34:21.013Z</time></trkpt><trkpt lat="42.2633396" lon="13.7416247"><ele>474.0</ele><time>2026-05-03T09:34:23.013Z</time></trkpt><trkpt lat="42.2632542" lon="13.7417166"><ele>474.0</ele><time>2026-05-03T09:34:26.013Z</time></trkpt><trkpt lat="42.2631467" lon="13.7417667"><ele>474.1666666666667</ele><time>2026-05-03T09:34:28.013Z</time></trkpt><trkpt lat="42.2631066" lon="13.7418696"><ele>474.33333333333337</ele><time>2026-05-03T09:34:30.013Z</time></trkpt><trkpt lat="42.2631451" lon="13.7419941"><ele>474.5</ele><time>2026-05-03T09:34:32.013Z</time></trkpt><trkpt lat="42.2631544" lon="13.7420985"><ele>474.6666666666667</ele><time>2026-05-03T09:34:34.012Z</time></trkpt><trkpt lat="42.2630931" lon="13.7421562"><ele>474.83333333333337</ele><time>2026-05-03T09:34:36.013Z</time></trkpt><trkpt lat="42.2630057" lon="13.742237"><ele>475.0</ele><time>2026-05-03T09:34:38.012Z</time></trkpt><trkpt lat="42.2630082" lon="13.7423742"><ele>473.1666666666667</ele><time>2026-05-03T09:34:40.013Z</time></trkpt><trkpt lat="42.2630271" lon="13.7424679"><ele>471.33333333333337</ele><time>2026-05-03T09:34:41.012Z</time></trkpt><trkpt lat="42.263038" lon="13.7425611"><ele>469.5</ele><time>2026-05-03T09:34:42.012Z</time></trkpt><trkpt lat="42.2630212" lon="13.7427039"><ele>467.66666666666663</ele><time>2026-05-03T09:34:44.012Z</time></trkpt><trkpt lat="42.2629503" lon="13.7427605"><ele>465.8333333333333</ele><time>2026-05-03T09:34:46.013Z</time></trkpt><trkpt lat="42.2628415" lon="13.7427962"><ele>464.0</ele><time>2026-05-03T09:34:48.013Z</time></trkpt><trkpt lat="42.2627771" lon="13.7428357"><ele>462.8333333333333</ele><time>2026-05-03T09:34:49.013Z</time></trkpt><trkpt lat="42.2627108" lon="13.7428858"><ele>461.66666666666663</ele><time>2026-05-03T09:34:50.013Z</time></trkpt><trkpt lat="42.2626405" lon="13.7429418"><ele>460.5</ele><time>2026-05-03T09:34:51.013Z</time></trkpt><trkpt lat="42.2625727" lon="13.7429942"><ele>459.33333333333337</ele><time>2026-05-03T09:34:52.012Z</time></trkpt><trkpt lat="42.2625076" lon="13.7430376"><ele>458.1666666666667</ele><time>2026-05-03T09:34:53.012Z</time></trkpt><trkpt lat="42.2624452" lon="13.7430712"><ele>457.0</ele><time>2026-05-03T09:34:54.012Z</time></trkpt><trkpt lat="42.2623308" lon="13.7431291"><ele>457.00000000000006</ele><time>2026-05-03T09:34:56.013Z</time></trkpt><trkpt lat="42.2622784" lon="13.7431875"><ele>457.0</ele><time>2026-05-03T09:34:57.012Z</time></trkpt><trkpt lat="42.2622365" lon="13.7432666"><ele>457.0</ele><time>2026-05-03T09:34:58.012Z</time></trkpt><trkpt lat="42.2622034" lon="13.743355"><ele>457.0</ele><time>2026-05-03T09:34:59.013Z</time></trkpt><trkpt lat="42.2621758" lon="13.7434429"><ele>457.00000000000006</ele><time>2026-05-03T09:35:00.013Z</time></trkpt><trkpt lat="42.2621514" lon="13.7435253"><ele>457.0</ele><time>2026-05-03T09:35:01.013Z</time></trkpt><trkpt lat="42.2620881" lon="13.7436382"><ele>457.0</ele><time>2026-05-03T09:35:03.013Z</time></trkpt><trkpt lat="42.2620996" lon="13.7437287"><ele>457.00000000000006</ele><time>2026-05-03T09:35:05.013Z</time></trkpt><trkpt lat="42.262183" lon="13.7438471"><ele>457.00000000000006</ele><time>2026-05-03T09:35:07.012Z</time></trkpt><trkpt lat="42.2622278" lon="13.7439083"><ele>457.0</ele><time>2026-05-03T09:35:08.013Z</time></trkpt><trkpt lat="42.2623383" lon="13.7439702"><ele>457.0</ele><time>2026-05-03T09:35:10.013Z</time></trkpt><trkpt lat="42.2624213" lon="13.7439756"><ele>456.20000000000005</ele><time>2026-05-03T09:35:11.012Z</time></trkpt><trkpt lat="42.2625176" lon="13.7439682"><ele>455.40000000000003</ele><time>2026-05-03T09:35:12.013Z</time></trkpt><trkpt lat="42.262613" lon="13.7439539"><ele>454.59999999999997</ele><time>2026-05-03T09:35:13.012Z</time></trkpt><trkpt lat="42.2626952" lon="13.7439391"><ele>453.79999999999995</ele><time>2026-05-03T09:35:14.012Z</time></trkpt><trkpt lat="42.2627792" lon="13.7439327"><ele>453.0</ele><time>2026-05-03T09:35:15.013Z</time></trkpt><trkpt lat="42.2628758" lon="13.7439269"><ele>453.0</ele><time>2026-05-03T09:35:16.012Z</time></trkpt><trkpt lat="42.2629899" lon="13.743914"><ele>453.0</ele><time>2026-05-03T09:35:17.013Z</time></trkpt><trkpt lat="42.2631109" lon="13.7439015"><ele>453.0</ele><time>2026-05-03T09:35:18.012Z</time></trkpt><trkpt lat="42.2632353" lon="13.7438929"><ele>453.0</ele><time>2026-05-03T09:35:19.013Z</time></trkpt><trkpt lat="42.2633547" lon="13.7438943"><ele>452.25</ele><time>2026-05-03T09:35:20.013Z</time></trkpt><trkpt lat="42.2634687" lon="13.7439035"><ele>451.5</ele><time>2026-05-03T09:35:21.013Z</time></trkpt><trkpt lat="42.2635806" lon="13.743923"><ele>450.75</ele><time>2026-05-03T09:35:22.012Z</time></trkpt><trkpt lat="42.2636943" lon="13.7439504"><ele>450.0</ele><time>2026-05-03T09:35:23.013Z</time></trkpt><trkpt lat="42.2638107" lon="13.743982"><ele>450.0</ele><time>2026-05-03T09:35:24.013Z</time></trkpt><trkpt lat="42.2639279" lon="13.7440046"><ele>450.0</ele><time>2026-05-03T09:35:25.013Z</time></trkpt><trkpt lat="42.264045" lon="13.7440196"><ele>450.0</ele><time>2026-05-03T09:35:26.012Z</time></trkpt><trkpt lat="42.2641574" lon="13.7440451"><ele>450.0</ele><time>2026-05-03T09:35:27.012Z</time></trkpt><trkpt lat="42.2642646" lon="13.7440688"><ele>449.6</ele><time>2026-05-03T09:35:28.013Z</time></trkpt><trkpt lat="42.2643682" lon="13.7440833"><ele>449.2</ele><time>2026-05-03T09:35:29.012Z</time></trkpt><trkpt lat="42.264468" lon="13.7440893"><ele>448.79999999999995</ele><time>2026-05-03T09:35:30.013Z</time></trkpt><trkpt lat="42.2645678" lon="13.7440743"><ele>448.4</ele><time>2026-05-03T09:35:31.012Z</time></trkpt><trkpt lat="42.264669" lon="13.7440314"><ele>448.0</ele><time>2026-05-03T09:35:32.012Z</time></trkpt><trkpt lat="42.2647689" lon="13.7439753"><ele>448.0</ele><time>2026-05-03T09:35:33.012Z</time></trkpt><trkpt lat="42.2648618" lon="13.7439088"><ele>447.99999999999994</ele><time>2026-05-03T09:35:34.013Z</time></trkpt><trkpt lat="42.2649473" lon="13.7438279"><ele>447.99999999999994</ele><time>2026-05-03T09:35:35.013Z</time></trkpt><trkpt lat="42.2650338" lon="13.7437476"><ele>448.0</ele><time>2026-05-03T09:35:36.013Z</time></trkpt><trkpt lat="42.2651281" lon="13.7436831"><ele>448.0</ele><time>2026-05-03T09:35:37.013Z</time></trkpt><trkpt lat="42.2652276" lon="13.7436243"><ele>448.0</ele><time>2026-05-03T09:35:38.013Z</time></trkpt><trkpt lat="42.2653246" lon="13.7435675"><ele>447.99999999999994</ele><time>2026-05-03T09:35:39.013Z</time></trkpt><trkpt lat="42.2654236" lon="13.7435283"><ele>447.99999999999994</ele><time>2026-05-03T09:35:40.013Z</time></trkpt><trkpt lat="42.2655263" lon="13.7435059"><ele>448.0</ele><time>2026-05-03T09:35:41.013Z</time></trkpt><trkpt lat="42.2656358" lon="13.7435004"><ele>448.0</ele><time>2026-05-03T09:35:42.013Z</time></trkpt><trkpt lat="42.2657517" lon="13.743506"><ele>448.0</ele><time>2026-05-03T09:35:43.013Z</time></trkpt><trkpt lat="42.265871" lon="13.7435027"><ele>448.0</ele><time>2026-05-03T09:35:44.012Z</time></trkpt><trkpt lat="42.2659904" lon="13.7434919"><ele>448.0</ele><time>2026-05-03T09:35:45.012Z</time></trkpt><trkpt lat="42.2661077" lon="13.7434913"><ele>448.0</ele><time>2026-05-03T09:35:46.012Z</time></trkpt><trkpt lat="42.2662257" lon="13.743514"><ele>448.0</ele><time>2026-05-03T09:35:47.012Z</time></trkpt><trkpt lat="42.2663447" lon="13.7435455"><ele>448.0</ele><time>2026-05-03T09:35:48.012Z</time></trkpt><trkpt lat="42.2664636" lon="13.7435725"><ele>448.0</ele><time>2026-05-03T09:35:49.012Z</time></trkpt><trkpt lat="42.2665813" lon="13.7435869"><ele>448.0</ele><time>2026-05-03T09:35:50.012Z</time></trkpt><trkpt lat="42.2666901" lon="13.7435887"><ele>447.59999999999997</ele><time>2026-05-03T09:35:51.013Z</time></trkpt><trkpt lat="42.2667926" lon="13.7435752"><ele>447.19999999999993</ele><time>2026-05-03T09:35:52.013Z</time></trkpt><trkpt lat="42.2668921" lon="13.7435438"><ele>446.8</ele><time>2026-05-03T09:35:53.012Z</time></trkpt><trkpt lat="42.2669954" lon="13.7434934"><ele>446.4</ele><time>2026-05-03T09:35:54.013Z</time></trkpt><trkpt lat="42.2670972" lon="13.7434474"><ele>446.0</ele><time>2026-05-03T09:35:55.013Z</time></trkpt><trkpt lat="42.2671895" lon="13.7434104"><ele>446.0</ele><time>2026-05-03T09:35:56.012Z</time></trkpt><trkpt lat="42.2672677" lon="13.7433893"><ele>446.0</ele><time>2026-05-03T09:35:57.013Z</time></trkpt><trkpt lat="42.2673435" lon="13.7433807"><ele>446.0</ele><time>2026-05-03T09:35:58.012Z</time></trkpt><trkpt lat="42.2674152" lon="13.7433657"><ele>446.0</ele><time>2026-05-03T09:35:59.012Z</time></trkpt><trkpt lat="42.2674873" lon="13.7433567"><ele>446.0</ele><time>2026-05-03T09:36:00.012Z</time></trkpt><trkpt lat="42.2675609" lon="13.7433553"><ele>446.0</ele><time>2026-05-03T09:36:01.013Z</time></trkpt><trkpt lat="42.2676325" lon="13.7433687"><ele>446.0</ele><time>2026-05-03T09:36:02.012Z</time></trkpt><trkpt lat="42.2677095" lon="13.7433957"><ele>445.66666666666663</ele><time>2026-05-03T09:36:03.013Z</time></trkpt><trkpt lat="42.2677916" lon="13.7434267"><ele>445.3333333333333</ele><time>2026-05-03T09:36:04.013Z</time></trkpt><trkpt lat="42.2678726" lon="13.743466"><ele>445.0</ele><time>2026-05-03T09:36:05.013Z</time></trkpt><trkpt lat="42.2679553" lon="13.7435104"><ele>444.66666666666663</ele><time>2026-05-03T09:36:06.013Z</time></trkpt><trkpt lat="42.2680328" lon="13.7435646"><ele>444.3333333333333</ele><time>2026-05-03T09:36:07.012Z</time></trkpt><trkpt lat="42.2681083" lon="13.7436185"><ele>444.0</ele><time>2026-05-03T09:36:08.013Z</time></trkpt><trkpt lat="42.2681857" lon="13.7436693"><ele>444.0</ele><time>2026-05-03T09:36:09.013Z</time></trkpt><trkpt lat="42.2682585" lon="13.7437055"><ele>444.0</ele><time>2026-05-03T09:36:10.012Z</time></trkpt><trkpt lat="42.2683309" lon="13.7437351"><ele>444.0</ele><time>2026-05-03T09:36:11.013Z</time></trkpt><trkpt lat="42.2683988" lon="13.7437462"><ele>444.0</ele><time>2026-05-03T09:36:12.013Z</time></trkpt><trkpt lat="42.2684647" lon="13.7437501"><ele>444.0</ele><time>2026-05-03T09:36:13.013Z</time></trkpt><trkpt lat="42.2685379" lon="13.7437561"><ele>444.0</ele><time>2026-05-03T09:36:14.012Z</time></trkpt><trkpt lat="42.2686103" lon="13.743772"><ele>444.0</ele><time>2026-05-03T09:36:15.012Z</time></trkpt><trkpt lat="42.2686815" lon="13.743774"><ele>444.0</ele><time>2026-05-03T09:36:16.013Z</time></trkpt><trkpt lat="42.2687429" lon="13.7437541"><ele>444.0</ele><time>2026-05-03T09:36:17.012Z</time></trkpt><trkpt lat="42.2688043" lon="13.743705"><ele>444.0</ele><time>2026-05-03T09:36:19.013Z</time></trkpt><trkpt lat="42.2688741" lon="13.7436397"><ele>444.0</ele><time>2026-05-03T09:36:37.013Z</time></trkpt><trkpt lat="42.2689697" lon="13.743537"><ele>444.0</ele><time>2026-05-03T09:36:39.013Z</time></trkpt><trkpt lat="42.2690358" lon="13.7434183"><ele>442.2</ele><time>2026-05-03T09:36:41.012Z</time></trkpt><trkpt lat="42.2690971" lon="13.7432898"><ele>440.4</ele><time>2026-05-03T09:36:43.013Z</time></trkpt><trkpt lat="42.269194" lon="13.7432413"><ele>438.6</ele><time>2026-05-03T09:36:45.012Z</time></trkpt><trkpt lat="42.2693124" lon="13.7432079"><ele>436.8</ele><time>2026-05-03T09:36:47.012Z</time></trkpt><trkpt lat="42.2693761" lon="13.7432059"><ele>435.0</ele><time>2026-05-03T09:36:48.013Z</time></trkpt><trkpt lat="42.2694391" lon="13.7432113"><ele>435.0</ele><time>2026-05-03T09:36:49.013Z</time></trkpt><trkpt lat="42.2695022" lon="13.7432267"><ele>435.0</ele><time>2026-05-03T09:36:50.013Z</time></trkpt><trkpt lat="42.2695795" lon="13.7432458"><ele>435.0</ele><time>2026-05-03T09:36:51.013Z</time></trkpt><trkpt lat="42.2696568" lon="13.7432785"><ele>435.0</ele><time>2026-05-03T09:36:52.012Z</time></trkpt><trkpt lat="42.2697314" lon="13.7433265"><ele>435.0</ele><time>2026-05-03T09:36:53.013Z</time></trkpt><trkpt lat="42.2698034" lon="13.7433678"><ele>435.0</ele><time>2026-05-03T09:36:54.013Z</time></trkpt><trkpt lat="42.2698728" lon="13.7434134"><ele>434.8333333333333</ele><time>2026-05-03T09:36:55.013Z</time></trkpt><trkpt lat="42.2699397" lon="13.7434714"><ele>434.66666666666663</ele><time>2026-05-03T09:36:56.013Z</time></trkpt><trkpt lat="42.2700066" lon="13.7435367"><ele>434.5</ele><time>2026-05-03T09:36:57.012Z</time></trkpt><trkpt lat="42.2700767" lon="13.7435944"><ele>434.3333333333333</ele><time>2026-05-03T09:36:58.013Z</time></trkpt><trkpt lat="42.2701542" lon="13.7436446"><ele>434.16666666666663</ele><time>2026-05-03T09:36:59.013Z</time></trkpt><trkpt lat="42.2702347" lon="13.7437036"><ele>434.0</ele><time>2026-05-03T09:37:00.012Z</time></trkpt><trkpt lat="42.270313" lon="13.7437599"><ele>433.14285714285717</ele><time>2026-05-03T09:37:01.013Z</time></trkpt><trkpt lat="42.2703826" lon="13.7438069"><ele>432.2857142857143</ele><time>2026-05-03T09:37:02.012Z</time></trkpt><trkpt lat="42.2704416" lon="13.7438421"><ele>431.42857142857144</ele><time>2026-05-03T09:37:03.013Z</time></trkpt><trkpt lat="42.2705034" lon="13.7438645"><ele>430.57142857142856</ele><time>2026-05-03T09:37:04.012Z</time></trkpt><trkpt lat="42.2705746" lon="13.7438889"><ele>429.7142857142857</ele><time>2026-05-03T09:37:05.013Z</time></trkpt><trkpt lat="42.2706512" lon="13.7439192"><ele>428.8571428571429</ele><time>2026-05-03T09:37:06.013Z</time></trkpt><trkpt lat="42.2707241" lon="13.7439509"><ele>428.0</ele><time>2026-05-03T09:37:07.012Z</time></trkpt><trkpt lat="42.2707855" lon="13.7439926"><ele>427.8333333333333</ele><time>2026-05-03T09:37:08.013Z</time></trkpt><trkpt lat="42.2708381" lon="13.744042"><ele>427.66666666666663</ele><time>2026-05-03T09:37:09.012Z</time></trkpt><trkpt lat="42.2708928" lon="13.7441303"><ele>427.5</ele><time>2026-05-03T09:37:11.012Z</time></trkpt><trkpt lat="42.2708999" lon="13.7442209"><ele>427.33333333333337</ele><time>2026-05-03T09:37:13.012Z</time></trkpt><trkpt lat="42.2709133" lon="13.7443502"><ele>427.1666666666667</ele><time>2026-05-03T09:37:15.013Z</time></trkpt><trkpt lat="42.2709658" lon="13.7444991"><ele>427.0</ele><time>2026-05-03T09:37:17.013Z</time></trkpt><trkpt lat="42.2710162" lon="13.7446166"><ele>426.50000000000006</ele><time>2026-05-03T09:37:19.012Z</time></trkpt><trkpt lat="42.2710509" lon="13.744692"><ele>426.0</ele><time>2026-05-03T09:37:21.013Z</time></trkpt><trkpt lat="42.271091" lon="13.7447727"><ele>425.5</ele><time>2026-05-03T09:37:59.012Z</time></trkpt><trkpt lat="42.2711494" lon="13.7448988"><ele>425.0</ele><time>2026-05-03T09:38:01.013Z</time></trkpt><trkpt lat="42.2711874" lon="13.7449754"><ele>424.50000000000006</ele><time>2026-05-03T09:38:02.012Z</time></trkpt><trkpt lat="42.2712333" lon="13.7450667"><ele>424.0</ele><time>2026-05-03T09:38:03.013Z</time></trkpt><trkpt lat="42.2712763" lon="13.745153"><ele>423.14285714285717</ele><time>2026-05-03T09:38:04.012Z</time></trkpt><trkpt lat="42.2713187" lon="13.7452352"><ele>422.2857142857143</ele><time>2026-05-03T09:38:05.013Z</time></trkpt><trkpt lat="42.2713549" lon="13.745315"><ele>421.42857142857144</ele><time>2026-05-03T09:38:06.013Z</time></trkpt><trkpt lat="42.2713855" lon="13.7453979"><ele>420.57142857142856</ele><time>2026-05-03T09:38:07.013Z</time></trkpt><trkpt lat="42.2714149" lon="13.7454856"><ele>419.71428571428567</ele><time>2026-05-03T09:38:08.013Z</time></trkpt><trkpt lat="42.2714373" lon="13.745579"><ele>418.85714285714283</ele><time>2026-05-03T09:38:09.012Z</time></trkpt><trkpt lat="42.2714508" lon="13.7456741"><ele>418.0</ele><time>2026-05-03T09:38:10.013Z</time></trkpt><trkpt lat="42.2714616" lon="13.7457827"><ele>418.00000000000006</ele><time>2026-05-03T09:38:11.013Z</time></trkpt><trkpt lat="42.2714703" lon="13.7458931"><ele>418.0</ele><time>2026-05-03T09:38:12.012Z</time></trkpt><trkpt lat="42.2714842" lon="13.746001"><ele>418.0</ele><time>2026-05-03T09:38:13.013Z</time></trkpt><trkpt lat="42.2715026" lon="13.7461113"><ele>418.0</ele><time>2026-05-03T09:38:14.012Z</time></trkpt><trkpt lat="42.2715298" lon="13.746222"><ele>418.00000000000006</ele><time>2026-05-03T09:38:15.013Z</time></trkpt><trkpt lat="42.2715721" lon="13.7463401"><ele>418.0</ele><time>2026-05-03T09:38:16.013Z</time></trkpt><trkpt lat="42.2716167" lon="13.7464612"><ele>419.0</ele><time>2026-05-03T09:38:17.013Z</time></trkpt><trkpt lat="42.2716693" lon="13.7465863"><ele>420.0</ele><time>2026-05-03T09:38:18.013Z</time></trkpt><trkpt lat="42.2717279" lon="13.7467142"><ele>421.0</ele><time>2026-05-03T09:38:19.012Z</time></trkpt><trkpt lat="42.2717888" lon="13.7468431"><ele>422.0</ele><time>2026-05-03T09:38:20.012Z</time></trkpt><trkpt lat="42.2718496" lon="13.7469641"><ele>423.0</ele><time>2026-05-03T09:38:21.012Z</time></trkpt><trkpt lat="42.2719078" lon="13.747071"><ele>424.59999999999997</ele><time>2026-05-03T09:38:22.012Z</time></trkpt><trkpt lat="42.2719605" lon="13.7471771"><ele>426.2</ele><time>2026-05-03T09:38:23.012Z</time></trkpt><trkpt lat="42.2720143" lon="13.7472773"><ele>427.8</ele><time>2026-05-03T09:38:24.013Z</time></trkpt><trkpt lat="42.2720713" lon="13.7473824"><ele>429.4</ele><time>2026-05-03T09:38:25.013Z</time></trkpt><trkpt lat="42.2721294" lon="13.747497"><ele>431.0</ele><time>2026-05-03T09:38:26.013Z</time></trkpt><trkpt lat="42.2721878" lon="13.7476046"><ele>431.0</ele><time>2026-05-03T09:38:27.013Z</time></trkpt><trkpt lat="42.2722422" lon="13.7476968"><ele>431.0</ele><time>2026-05-03T09:38:28.013Z</time></trkpt><trkpt lat="42.2722943" lon="13.7477719"><ele>431.0</ele><time>2026-05-03T09:38:29.013Z</time></trkpt><trkpt lat="42.2723932" lon="13.7478521"><ele>431.0</ele><time>2026-05-03T09:38:31.012Z</time></trkpt><trkpt lat="42.2725141" lon="13.7479429"><ele>431.0</ele><time>2026-05-03T09:38:33.013Z</time></trkpt><trkpt lat="42.2725875" lon="13.7480091"><ele>430.16666666666663</ele><time>2026-05-03T09:38:34.013Z</time></trkpt><trkpt lat="42.2726555" lon="13.748077"><ele>429.3333333333333</ele><time>2026-05-03T09:38:35.013Z</time></trkpt><trkpt lat="42.2727253" lon="13.7481538"><ele>428.5</ele><time>2026-05-03T09:38:36.013Z</time></trkpt><trkpt lat="42.2727963" lon="13.7482371"><ele>427.66666666666663</ele><time>2026-05-03T09:38:37.012Z</time></trkpt><trkpt lat="42.2728584" lon="13.7483239"><ele>426.8333333333333</ele><time>2026-05-03T09:38:38.012Z</time></trkpt><trkpt lat="42.2729148" lon="13.748414"><ele>426.0</ele><time>2026-05-03T09:38:39.013Z</time></trkpt><trkpt lat="42.2729699" lon="13.7485063"><ele>424.6</ele><time>2026-05-03T09:38:40.013Z</time></trkpt><trkpt lat="42.2730314" lon="13.7486001"><ele>423.20000000000005</ele><time>2026-05-03T09:38:41.013Z</time></trkpt><trkpt lat="42.2731003" lon="13.7486939"><ele>421.79999999999995</ele><time>2026-05-03T09:38:42.012Z</time></trkpt><trkpt lat="42.2731693" lon="13.7487814"><ele>420.4</ele><time>2026-05-03T09:38:43.013Z</time></trkpt><trkpt lat="42.2732426" lon="13.7488644"><ele>419.0</ele><time>2026-05-03T09:38:44.012Z</time></trkpt><trkpt lat="42.2733159" lon="13.7489476"><ele>419.0</ele><time>2026-05-03T09:38:45.013Z</time></trkpt><trkpt lat="42.2733906" lon="13.7490292"><ele>419.0</ele><time>2026-05-03T09:38:46.012Z</time></trkpt><trkpt lat="42.2734652" lon="13.7491063"><ele>419.0</ele><time>2026-05-03T09:38:47.013Z</time></trkpt><trkpt lat="42.2735438" lon="13.7491795"><ele>419.0</ele><time>2026-05-03T09:38:48.013Z</time></trkpt><trkpt lat="42.2736284" lon="13.7492425"><ele>419.0</ele><time>2026-05-03T09:38:49.013Z</time></trkpt><trkpt lat="42.2737038" lon="13.7492948"><ele>418.99999999999994</ele><time>2026-05-03T09:38:50.012Z</time></trkpt><trkpt lat="42.2737712" lon="13.7493422"><ele>419.0</ele><time>2026-05-03T09:38:51.012Z</time></trkpt><trkpt lat="42.2738304" lon="13.7493879"><ele>419.0</ele><time>2026-05-03T09:38:52.012Z</time></trkpt><trkpt lat="42.2738814" lon="13.7494451"><ele>419.0</ele><time>2026-05-03T09:38:53.012Z</time></trkpt><trkpt lat="42.2739277" lon="13.7495796"><ele>418.99999999999994</ele><time>2026-05-03T09:38:55.012Z</time></trkpt><trkpt lat="42.2739116" lon="13.7497319"><ele>419.0</ele><time>2026-05-03T09:38:57.013Z</time></trkpt><trkpt lat="42.2738932" lon="13.7498134"><ele>419.0</ele><time>2026-05-03T09:38:58.013Z</time></trkpt><trkpt lat="42.2738611" lon="13.7499027"><ele>419.0</ele><time>2026-05-03T09:38:59.012Z</time></trkpt><trkpt lat="42.2738179" lon="13.7500061"><ele>419.0</ele><time>2026-05-03T09:39:00.012Z</time></trkpt><trkpt lat="42.2737723" lon="13.7501257"><ele>419.0</ele><time>2026-05-03T09:39:01.013Z</time></trkpt><trkpt lat="42.2737213" lon="13.7502404"><ele>419.0</ele><time>2026-05-03T09:39:02.013Z</time></trkpt><trkpt lat="42.2736771" lon="13.7503458"><ele>419.0</ele><time>2026-05-03T09:39:03.013Z</time></trkpt><trkpt lat="42.2736406" lon="13.7504405"><ele>419.0</ele><time>2026-05-03T09:39:04.013Z</time></trkpt><trkpt lat="42.2736134" lon="13.7505299"><ele>419.0</ele><time>2026-05-03T09:39:05.013Z</time></trkpt><trkpt lat="42.2736116" lon="13.7506855"><ele>419.0</ele><time>2026-05-03T09:39:07.012Z</time></trkpt><trkpt lat="42.2736322" lon="13.7507691"><ele>419.0</ele><time>2026-05-03T09:39:08.013Z</time></trkpt><trkpt lat="42.2736881" lon="13.7509185"><ele>418.66666666666663</ele><time>2026-05-03T09:39:10.013Z</time></trkpt><trkpt lat="42.2737582" lon="13.7510532"><ele>418.3333333333333</ele><time>2026-05-03T09:39:12.013Z</time></trkpt><trkpt lat="42.2737997" lon="13.7511186"><ele>418.0</ele><time>2026-05-03T09:39:13.013Z</time></trkpt><trkpt lat="42.2739034" lon="13.7511851"><ele>417.66666666666663</ele><time>2026-05-03T09:39:15.013Z</time></trkpt><trkpt lat="42.2739689" lon="13.7511839"><ele>417.3333333333333</ele><time>2026-05-03T09:39:16.012Z</time></trkpt><trkpt lat="42.2740456" lon="13.7511712"><ele>417.0</ele><time>2026-05-03T09:39:17.013Z</time></trkpt><trkpt lat="42.2741224" lon="13.7511342"><ele>416.8</ele><time>2026-05-03T09:39:18.013Z</time></trkpt><trkpt lat="42.2742082" lon="13.7510939"><ele>416.6</ele><time>2026-05-03T09:39:19.013Z</time></trkpt><trkpt lat="42.2742978" lon="13.751055"><ele>416.40000000000003</ele><time>2026-05-03T09:39:20.012Z</time></trkpt><trkpt lat="42.2743867" lon="13.7510208"><ele>416.20000000000005</ele><time>2026-05-03T09:39:21.012Z</time></trkpt><trkpt lat="42.274475" lon="13.7509913"><ele>416.0</ele><time>2026-05-03T09:39:22.013Z</time></trkpt><trkpt lat="42.2745638" lon="13.7509726"><ele>416.0</ele><time>2026-05-03T09:39:23.012Z</time></trkpt><trkpt lat="42.2746512" lon="13.7509569"><ele>416.0</ele><time>2026-05-03T09:39:24.012Z</time></trkpt><trkpt lat="42.2747459" lon="13.7509459"><ele>416.0</ele><time>2026-05-03T09:39:25.012Z</time></trkpt><trkpt lat="42.2748467" lon="13.7509377"><ele>416.0</ele><time>2026-05-03T09:39:26.012Z</time></trkpt><trkpt lat="42.2749473" lon="13.7509363"><ele>416.0</ele><time>2026-05-03T09:39:27.012Z</time></trkpt><trkpt lat="42.2750488" lon="13.7509395"><ele>415.20000000000005</ele><time>2026-05-03T09:39:28.012Z</time></trkpt><trkpt lat="42.2751496" lon="13.7509432"><ele>414.40000000000003</ele><time>2026-05-03T09:39:29.012Z</time></trkpt><trkpt lat="42.2752544" lon="13.7509463"><ele>413.6</ele><time>2026-05-03T09:39:30.012Z</time></trkpt><trkpt lat="42.2753603" lon="13.7509521"><ele>412.8</ele><time>2026-05-03T09:39:31.012Z</time></trkpt><trkpt lat="42.2754641" lon="13.7509635"><ele>412.0</ele><time>2026-05-03T09:39:32.011Z</time></trkpt><trkpt lat="42.2755639" lon="13.7509741"><ele>411.40000000000003</ele><time>2026-05-03T09:39:33.011Z</time></trkpt><trkpt lat="42.2756609" lon="13.7509808"><ele>410.8</ele><time>2026-05-03T09:39:34.012Z</time></trkpt><trkpt lat="42.2757492" lon="13.7509921"><ele>410.2</ele><time>2026-05-03T09:39:35.012Z</time></trkpt><trkpt lat="42.2758362" lon="13.7510006"><ele>409.6</ele><time>2026-05-03T09:39:36.011Z</time></trkpt><trkpt lat="42.2759261" lon="13.751011"><ele>409.0</ele><time>2026-05-03T09:39:37.012Z</time></trkpt><trkpt lat="42.2760101" lon="13.7510375"><ele>408.33333333333337</ele><time>2026-05-03T09:39:38.011Z</time></trkpt><trkpt lat="42.2760731" lon="13.7510869"><ele>407.6666666666667</ele><time>2026-05-03T09:39:39.011Z</time></trkpt><trkpt lat="42.2761354" lon="13.7511505"><ele>407.0</ele><time>2026-05-03T09:39:40.012Z</time></trkpt><trkpt lat="42.2761899" lon="13.7512276"><ele>406.33333333333337</ele><time>2026-05-03T09:39:41.011Z</time></trkpt><trkpt lat="42.2762555" lon="13.7513146"><ele>405.6666666666667</ele><time>2026-05-03T09:39:42.011Z</time></trkpt><trkpt lat="42.2763143" lon="13.7513958"><ele>405.0</ele><time>2026-05-03T09:39:43.012Z</time></trkpt><trkpt lat="42.2763788" lon="13.751463"><ele>404.5</ele><time>2026-05-03T09:39:44.012Z</time></trkpt><trkpt lat="42.2764483" lon="13.7515243"><ele>404.0</ele><time>2026-05-03T09:39:45.011Z</time></trkpt><trkpt lat="42.2765133" lon="13.7515753"><ele>403.5</ele><time>2026-05-03T09:39:46.011Z</time></trkpt><trkpt lat="42.2765915" lon="13.75161"><ele>403.0</ele><time>2026-05-03T09:39:47.011Z</time></trkpt><trkpt lat="42.2766775" lon="13.7516488"><ele>402.5</ele><time>2026-05-03T09:39:48.012Z</time></trkpt><trkpt lat="42.2767844" lon="13.7516782"><ele>402.0</ele><time>2026-05-03T09:39:49.012Z</time></trkpt><trkpt lat="42.2769002" lon="13.7517188"><ele>402.0</ele><time>2026-05-03T09:39:50.012Z</time></trkpt><trkpt lat="42.2770248" lon="13.751746"><ele>402.0</ele><time>2026-05-03T09:39:51.011Z</time></trkpt><trkpt lat="42.2771388" lon="13.7517658"><ele>402.0</ele><time>2026-05-03T09:39:52.012Z</time></trkpt><trkpt lat="42.2772397" lon="13.751784"><ele>402.0</ele><time>2026-05-03T09:39:53.012Z</time></trkpt><trkpt lat="42.2773289" lon="13.7518037"><ele>402.0</ele><time>2026-05-03T09:39:54.012Z</time></trkpt><trkpt lat="42.2774087" lon="13.7518335"><ele>401.8</ele><time>2026-05-03T09:39:55.011Z</time></trkpt><trkpt lat="42.2774758" lon="13.7518712"><ele>401.6</ele><time>2026-05-03T09:39:56.012Z</time></trkpt><trkpt lat="42.2775418" lon="13.7519123"><ele>401.40000000000003</ele><time>2026-05-03T09:39:57.012Z</time></trkpt><trkpt lat="42.277627" lon="13.7519496"><ele>401.20000000000005</ele><time>2026-05-03T09:39:58.012Z</time></trkpt><trkpt lat="42.2777309" lon="13.7519923"><ele>401.0</ele><time>2026-05-03T09:39:59.011Z</time></trkpt><trkpt lat="42.2778509" lon="13.7520392"><ele>401.25</ele><time>2026-05-03T09:40:00.012Z</time></trkpt><trkpt lat="42.2779746" lon="13.7520885"><ele>401.5</ele><time>2026-05-03T09:40:01.011Z</time></trkpt><trkpt lat="42.2780962" lon="13.7521212"><ele>401.75</ele><time>2026-05-03T09:40:02.011Z</time></trkpt><trkpt lat="42.2782178" lon="13.7521519"><ele>402.0</ele><time>2026-05-03T09:40:03.011Z</time></trkpt><trkpt lat="42.2783452" lon="13.7521657"><ele>402.0</ele><time>2026-05-03T09:40:04.012Z</time></trkpt><trkpt lat="42.2784786" lon="13.7521766"><ele>402.0</ele><time>2026-05-03T09:40:05.011Z</time></trkpt><trkpt lat="42.2786177" lon="13.7521872"><ele>402.0</ele><time>2026-05-03T09:40:06.011Z</time></trkpt><trkpt lat="42.2787624" lon="13.7521915"><ele>402.0</ele><time>2026-05-03T09:40:07.011Z</time></trkpt><trkpt lat="42.2789032" lon="13.7521919"><ele>401.0</ele><time>2026-05-03T09:40:08.012Z</time></trkpt><trkpt lat="42.2790465" lon="13.7521914"><ele>400.0</ele><time>2026-05-03T09:40:09.011Z</time></trkpt><trkpt lat="42.2791915" lon="13.752189"><ele>399.0</ele><time>2026-05-03T09:40:10.012Z</time></trkpt><trkpt lat="42.2793415" lon="13.7521836"><ele>398.0</ele><time>2026-05-03T09:40:11.012Z</time></trkpt><trkpt lat="42.2794919" lon="13.7521744"><ele>398.0</ele><time>2026-05-03T09:40:12.012Z</time></trkpt><trkpt lat="42.2796471" lon="13.7521662"><ele>398.0</ele><time>2026-05-03T09:40:13.012Z</time></trkpt><trkpt lat="42.2798069" lon="13.7521548"><ele>398.0</ele><time>2026-05-03T09:40:14.012Z</time></trkpt><trkpt lat="42.2799625" lon="13.7521661"><ele>396.25</ele><time>2026-05-03T09:40:15.012Z</time></trkpt><trkpt lat="42.2801215" lon="13.7521657"><ele>394.5</ele><time>2026-05-03T09:40:16.012Z</time></trkpt><trkpt lat="42.2802725" lon="13.7521869"><ele>392.75</ele><time>2026-05-03T09:40:17.012Z</time></trkpt><trkpt lat="42.2804062" lon="13.7522234"><ele>391.0</ele><time>2026-05-03T09:40:18.012Z</time></trkpt><trkpt lat="42.2805311" lon="13.7522722"><ele>390.5</ele><time>2026-05-03T09:40:19.012Z</time></trkpt><trkpt lat="42.2806433" lon="13.7523279"><ele>390.0</ele><time>2026-05-03T09:40:20.012Z</time></trkpt><trkpt lat="42.2807511" lon="13.7523925"><ele>389.5</ele><time>2026-05-03T09:40:21.012Z</time></trkpt><trkpt lat="42.2808556" lon="13.7524677"><ele>389.0</ele><time>2026-05-03T09:40:22.011Z</time></trkpt><trkpt lat="42.28095" lon="13.7525568"><ele>389.0</ele><time>2026-05-03T09:40:23.011Z</time></trkpt><trkpt lat="42.2810511" lon="13.7526519"><ele>389.0</ele><time>2026-05-03T09:40:24.012Z</time></trkpt><trkpt lat="42.2811456" lon="13.7527488"><ele>389.0</ele><time>2026-05-03T09:40:25.012Z</time></trkpt><trkpt lat="42.2812433" lon="13.7528559"><ele>389.0</ele><time>2026-05-03T09:40:26.012Z</time></trkpt><trkpt lat="42.2813353" lon="13.7529665"><ele>389.0</ele><time>2026-05-03T09:40:27.012Z</time></trkpt><trkpt lat="42.2814307" lon="13.7530721"><ele>389.0</ele><time>2026-05-03T09:40:28.012Z</time></trkpt><trkpt lat="42.2815287" lon="13.7531835"><ele>389.0</ele><time>2026-05-03T09:40:29.012Z</time></trkpt><trkpt lat="42.2816224" lon="13.7533001"><ele>389.0</ele><time>2026-05-03T09:40:30.012Z</time></trkpt><trkpt lat="42.2817176" lon="13.7534122"><ele>389.0</ele><time>2026-05-03T09:40:31.012Z</time></trkpt><trkpt lat="42.2818167" lon="13.7535228"><ele>389.0</ele><time>2026-05-03T09:40:32.011Z</time></trkpt><trkpt lat="42.2819185" lon="13.7536244"><ele>389.0</ele><time>2026-05-03T09:40:33.011Z</time></trkpt><trkpt lat="42.2820323" lon="13.7537121"><ele>389.0</ele><time>2026-05-03T09:40:34.011Z</time></trkpt><trkpt lat="42.2821463" lon="13.7537995"><ele>389.5</ele><time>2026-05-03T09:40:35.012Z</time></trkpt><trkpt lat="42.2822615" lon="13.7538821"><ele>390.0</ele><time>2026-05-03T09:40:36.012Z</time></trkpt><trkpt lat="42.2823822" lon="13.7539634"><ele>390.5</ele><time>2026-05-03T09:40:37.011Z</time></trkpt><trkpt lat="42.2825046" lon="13.7540405"><ele>391.0</ele><time>2026-05-03T09:40:38.012Z</time></trkpt><trkpt lat="42.2826277" lon="13.7541149"><ele>391.0</ele><time>2026-05-03T09:40:39.012Z</time></trkpt><trkpt lat="42.2827474" lon="13.7541885"><ele>391.0</ele><time>2026-05-03T09:40:40.012Z</time></trkpt><trkpt lat="42.2828582" lon="13.7542573"><ele>391.0</ele><time>2026-05-03T09:40:41.011Z</time></trkpt><trkpt lat="42.2829659" lon="13.7543159"><ele>391.0</ele><time>2026-05-03T09:40:42.011Z</time></trkpt><trkpt lat="42.2830727" lon="13.7543702"><ele>390.20000000000005</ele><time>2026-05-03T09:40:43.012Z</time></trkpt><trkpt lat="42.2831717" lon="13.7544254"><ele>389.40000000000003</ele><time>2026-05-03T09:40:44.012Z</time></trkpt><trkpt lat="42.2832602" lon="13.7544708"><ele>388.6</ele><time>2026-05-03T09:40:45.012Z</time></trkpt><trkpt lat="42.283339" lon="13.7545065"><ele>387.8</ele><time>2026-05-03T09:40:46.012Z</time></trkpt><trkpt lat="42.2834098" lon="13.7545405"><ele>387.0</ele><time>2026-05-03T09:40:47.011Z</time></trkpt><trkpt lat="42.2835059" lon="13.7545533"><ele>387.0</ele><time>2026-05-03T09:40:49.011Z</time></trkpt><trkpt lat="42.2835616" lon="13.7545065"><ele>387.0</ele><time>2026-05-03T09:40:51.012Z</time></trkpt><trkpt lat="42.2835856" lon="13.7543639"><ele>387.0</ele><time>2026-05-03T09:40:53.012Z</time></trkpt><trkpt lat="42.2835662" lon="13.7542548"><ele>387.0</ele><time>2026-05-03T09:40:54.012Z</time></trkpt><trkpt lat="42.2835274" lon="13.7541303"><ele>387.0</ele><time>2026-05-03T09:40:55.011Z</time></trkpt><trkpt lat="42.2835071" lon="13.753981"><ele>386.5</ele><time>2026-05-03T09:40:56.012Z</time></trkpt><trkpt lat="42.2834835" lon="13.7537974"><ele>386.0</ele><time>2026-05-03T09:40:57.011Z</time></trkpt><trkpt lat="42.2834536" lon="13.7536009"><ele>385.5</ele><time>2026-05-03T09:40:58.011Z</time></trkpt><trkpt lat="42.283424" lon="13.7533892"><ele>385.0</ele><time>2026-05-03T09:40:59.012Z</time></trkpt><trkpt lat="42.2833908" lon="13.7531678"><ele>385.0</ele><time>2026-05-03T09:41:00.011Z</time></trkpt><trkpt lat="42.2833585" lon="13.7529383"><ele>385.0</ele><time>2026-05-03T09:41:01.011Z</time></trkpt><trkpt lat="42.2833344" lon="13.7526965"><ele>385.0</ele><time>2026-05-03T09:41:02.012Z</time></trkpt><trkpt lat="42.283342" lon="13.7524483"><ele>385.25</ele><time>2026-05-03T09:41:03.012Z</time></trkpt><trkpt lat="42.2833553" lon="13.7522433"><ele>385.5</ele><time>2026-05-03T09:41:04.011Z</time></trkpt><trkpt lat="42.2833509" lon="13.7520683"><ele>385.75</ele><time>2026-05-03T09:41:05.012Z</time></trkpt><trkpt lat="42.2833517" lon="13.7519151"><ele>386.0</ele><time>2026-05-03T09:41:06.011Z</time></trkpt><trkpt lat="42.2833644" lon="13.7518002"><ele>386.00000000000006</ele><time>2026-05-03T09:41:07.011Z</time></trkpt><trkpt lat="42.2833696" lon="13.7517017"><ele>386.0</ele><time>2026-05-03T09:41:08.011Z</time></trkpt><trkpt lat="42.2833774" lon="13.7515824"><ele>386.0</ele><time>2026-05-03T09:41:10.011Z</time></trkpt><trkpt lat="42.2833809" lon="13.7514939"><ele>386.0</ele><time>2026-05-03T09:41:13.011Z</time></trkpt><trkpt lat="42.2833372" lon="13.7515773"><ele>386.0</ele><time>2026-05-03T09:41:19.012Z</time></trkpt><trkpt lat="42.2833416" lon="13.75167"><ele>386.00000000000006</ele><time>2026-05-03T09:41:20.012Z</time></trkpt><trkpt lat="42.2833424" lon="13.7517712"><ele>386.0</ele><time>2026-05-03T09:41:21.012Z</time></trkpt><trkpt lat="42.2833406" lon="13.751869"><ele>385.99999999999994</ele><time>2026-05-03T09:41:22.012Z</time></trkpt><trkpt lat="42.2833453" lon="13.7519618"><ele>386.0</ele><time>2026-05-03T09:41:23.011Z</time></trkpt><trkpt lat="42.2833632" lon="13.7520439"><ele>386.0</ele><time>2026-05-03T09:41:24.011Z</time></trkpt><trkpt lat="42.2833943" lon="13.7521189"><ele>386.0</ele><time>2026-05-03T09:41:25.011Z</time></trkpt><trkpt lat="42.2835043" lon="13.7522065"><ele>385.99999999999994</ele><time>2026-05-03T09:41:27.011Z</time></trkpt><trkpt lat="42.2835912" lon="13.7522304"><ele>386.0</ele><time>2026-05-03T09:41:28.012Z</time></trkpt><trkpt lat="42.2836878" lon="13.7522548"><ele>386.0</ele><time>2026-05-03T09:41:29.012Z</time></trkpt><trkpt lat="42.283803" lon="13.7522762"><ele>386.0</ele><time>2026-05-03T09:41:30.012Z</time></trkpt><trkpt lat="42.2839255" lon="13.7523048"><ele>386.0</ele><time>2026-05-03T09:41:31.012Z</time></trkpt><trkpt lat="42.2840527" lon="13.7523324"><ele>386.0</ele><time>2026-05-03T09:41:32.011Z</time></trkpt><trkpt lat="42.2841843" lon="13.7523686"><ele>385.5</ele><time>2026-05-03T09:41:33.012Z</time></trkpt><trkpt lat="42.284321" lon="13.7524132"><ele>385.0</ele><time>2026-05-03T09:41:34.011Z</time></trkpt><trkpt lat="42.2844592" lon="13.7524671"><ele>384.5</ele><time>2026-05-03T09:41:35.012Z</time></trkpt><trkpt lat="42.2845948" lon="13.7525147"><ele>384.0</ele><time>2026-05-03T09:41:36.012Z</time></trkpt><trkpt lat="42.2847248" lon="13.7525667"><ele>384.0</ele><time>2026-05-03T09:41:37.012Z</time></trkpt><trkpt lat="42.2848449" lon="13.7526207"><ele>384.0</ele><time>2026-05-03T09:41:38.012Z</time></trkpt><trkpt lat="42.2849528" lon="13.752685"><ele>384.0</ele><time>2026-05-03T09:41:39.012Z</time></trkpt><trkpt lat="42.2850563" lon="13.7527446"><ele>384.0</ele><time>2026-05-03T09:41:40.012Z</time></trkpt><trkpt lat="42.2851585" lon="13.7527951"><ele>383.6</ele><time>2026-05-03T09:41:41.011Z</time></trkpt><trkpt lat="42.2852584" lon="13.7528389"><ele>383.2</ele><time>2026-05-03T09:41:42.012Z</time></trkpt><trkpt lat="42.285361" lon="13.7528804"><ele>382.8</ele><time>2026-05-03T09:41:43.011Z</time></trkpt><trkpt lat="42.2854608" lon="13.7529189"><ele>382.40000000000003</ele><time>2026-05-03T09:41:44.012Z</time></trkpt><trkpt lat="42.2855538" lon="13.7529517"><ele>382.0</ele><time>2026-05-03T09:41:45.012Z</time></trkpt><trkpt lat="42.2856448" lon="13.7529809"><ele>381.66666666666663</ele><time>2026-05-03T09:41:46.012Z</time></trkpt><trkpt lat="42.2857305" lon="13.7530126"><ele>381.3333333333333</ele><time>2026-05-03T09:41:47.011Z</time></trkpt><trkpt lat="42.285811" lon="13.7530401"><ele>381.0</ele><time>2026-05-03T09:41:48.011Z</time></trkpt><trkpt lat="42.2858883" lon="13.7530685"><ele>380.6666666666667</ele><time>2026-05-03T09:41:49.011Z</time></trkpt><trkpt lat="42.2859583" lon="13.7530917"><ele>380.33333333333337</ele><time>2026-05-03T09:41:50.012Z</time></trkpt><trkpt lat="42.2860557" lon="13.7531125"><ele>380.0</ele><time>2026-05-03T09:41:52.012Z</time></trkpt><trkpt lat="42.2861623" lon="13.7530501"><ele>380.0</ele><time>2026-05-03T09:42:18.012Z</time></trkpt><trkpt lat="42.2861831" lon="13.7529624"><ele>380.0</ele><time>2026-05-03T09:42:19.012Z</time></trkpt><trkpt lat="42.2861906" lon="13.7528594"><ele>380.0</ele><time>2026-05-03T09:42:20.012Z</time></trkpt><trkpt lat="42.2861912" lon="13.7527318"><ele>380.0</ele><time>2026-05-03T09:42:21.012Z</time></trkpt><trkpt lat="42.2861839" lon="13.7525961"><ele>380.0</ele><time>2026-05-03T09:42:22.012Z</time></trkpt><trkpt lat="42.286177" lon="13.7524416"><ele>380.5</ele><time>2026-05-03T09:42:23.012Z</time></trkpt><trkpt lat="42.2861759" lon="13.7522745"><ele>381.0</ele><time>2026-05-03T09:42:24.011Z</time></trkpt><trkpt lat="42.2861705" lon="13.7520921"><ele>381.5</ele><time>2026-05-03T09:42:25.011Z</time></trkpt><trkpt lat="42.2861703" lon="13.7519025"><ele>382.0</ele><time>2026-05-03T09:42:26.012Z</time></trkpt><trkpt lat="42.2861711" lon="13.7517049"><ele>382.0</ele><time>2026-05-03T09:42:27.011Z</time></trkpt><trkpt lat="42.2861659" lon="13.7514924"><ele>382.0</ele><time>2026-05-03T09:42:28.012Z</time></trkpt><trkpt lat="42.2861625" lon="13.7512738"><ele>382.0</ele><time>2026-05-03T09:42:29.011Z</time></trkpt><trkpt lat="42.2861581" lon="13.7510544"><ele>383.3333333333333</ele><time>2026-05-03T09:42:30.012Z</time></trkpt><trkpt lat="42.2861539" lon="13.7508301"><ele>384.66666666666663</ele><time>2026-05-03T09:42:31.012Z</time></trkpt><trkpt lat="42.2861519" lon="13.7505997"><ele>386.0</ele><time>2026-05-03T09:42:32.012Z</time></trkpt><trkpt lat="42.2861464" lon="13.7503653"><ele>387.3333333333333</ele><time>2026-05-03T09:42:33.011Z</time></trkpt><trkpt lat="42.2861413" lon="13.7501247"><ele>388.66666666666663</ele><time>2026-05-03T09:42:34.011Z</time></trkpt><trkpt lat="42.2861355" lon="13.7498867"><ele>390.0</ele><time>2026-05-03T09:42:35.012Z</time></trkpt><trkpt lat="42.2861307" lon="13.7496421"><ele>390.0</ele><time>2026-05-03T09:42:36.011Z</time></trkpt><trkpt lat="42.2861265" lon="13.749394"><ele>390.0</ele><time>2026-05-03T09:42:37.012Z</time></trkpt><trkpt lat="42.286122" lon="13.7491431"><ele>390.0</ele><time>2026-05-03T09:42:38.012Z</time></trkpt><trkpt lat="42.2861148" lon="13.7488939"><ele>390.66666666666663</ele><time>2026-05-03T09:42:39.012Z</time></trkpt><trkpt lat="42.2861092" lon="13.7486442"><ele>391.3333333333333</ele><time>2026-05-03T09:42:40.012Z</time></trkpt><trkpt lat="42.286105" lon="13.7483922"><ele>392.0</ele><time>2026-05-03T09:42:41.011Z</time></trkpt><trkpt lat="42.2861014" lon="13.7481399"><ele>392.3333333333333</ele><time>2026-05-03T09:42:42.012Z</time></trkpt><trkpt lat="42.2860961" lon="13.7478935"><ele>392.66666666666663</ele><time>2026-05-03T09:42:43.012Z</time></trkpt><trkpt lat="42.2860881" lon="13.7476595"><ele>393.0</ele><time>2026-05-03T09:42:44.012Z</time></trkpt><trkpt lat="42.2860822" lon="13.7474378"><ele>393.25</ele><time>2026-05-03T09:42:45.012Z</time></trkpt><trkpt lat="42.2860801" lon="13.7472389"><ele>393.5</ele><time>2026-05-03T09:42:46.011Z</time></trkpt><trkpt lat="42.2860755" lon="13.7470501"><ele>393.75</ele><time>2026-05-03T09:42:47.012Z</time></trkpt><trkpt lat="42.286071" lon="13.7468768"><ele>394.0</ele><time>2026-05-03T09:42:48.012Z</time></trkpt><trkpt lat="42.2860622" lon="13.7467181"><ele>394.33333333333337</ele><time>2026-05-03T09:42:49.012Z</time></trkpt><trkpt lat="42.2860631" lon="13.7465772"><ele>394.6666666666667</ele><time>2026-05-03T09:42:50.012Z</time></trkpt><trkpt lat="42.2860613" lon="13.746457"><ele>395.0</ele><time>2026-05-03T09:42:51.011Z</time></trkpt><trkpt lat="42.2860627" lon="13.7463491"><ele>395.33333333333337</ele><time>2026-05-03T09:42:52.012Z</time></trkpt><trkpt lat="42.2860672" lon="13.7462584"><ele>395.6666666666667</ele><time>2026-05-03T09:42:53.012Z</time></trkpt><trkpt lat="42.2861242" lon="13.7461403"><ele>396.0</ele><time>2026-05-03T09:42:55.011Z</time></trkpt><trkpt lat="42.2861985" lon="13.7460854"><ele>396.5</ele><time>2026-05-03T09:42:57.011Z</time></trkpt><trkpt lat="42.2862614" lon="13.7460365"><ele>397.0</ele><time>2026-05-03T09:42:59.012Z</time></trkpt><trkpt lat="42.2863055" lon="13.7459508"><ele>397.5</ele><time>2026-05-03T09:43:02.012Z</time></trkpt><trkpt lat="42.2862874" lon="13.7458425"><ele>398.0</ele><time>2026-05-03T09:43:05.012Z</time></trkpt><trkpt lat="42.2862469" lon="13.7457708"><ele>398.5</ele><time>2026-05-03T09:43:08.012Z</time></trkpt><trkpt lat="42.2861625" lon="13.7458384"><ele>399.0</ele><time>2026-05-03T09:43:52.012Z</time></trkpt><trkpt lat="42.2861608" lon="13.7459401"><ele>399.0</ele><time>2026-05-03T09:43:54.012Z</time></trkpt><trkpt lat="42.2862311" lon="13.7459514"><ele>399.0</ele><time>2026-05-03T09:43:57.011Z</time></trkpt><trkpt lat="42.2864192" lon="13.7456526"><ele>399.0</ele><time>2026-05-03T10:03:30.011Z</time></trkpt><trkpt lat="42.2863589" lon="13.7457232"><ele>399.0</ele><time>2026-05-03T10:03:32.011Z</time></trkpt><trkpt lat="42.2862392" lon="13.7457245"><ele>399.0</ele><time>2026-05-03T10:03:34.01Z</time></trkpt><trkpt lat="42.2861493" lon="13.7457672"><ele>399.0</ele><time>2026-05-03T10:03:36.011Z</time></trkpt><trkpt lat="42.2861417" lon="13.745884"><ele>399.0</ele><time>2026-05-03T10:03:38.01Z</time></trkpt><trkpt lat="42.286126" lon="13.7460089"><ele>399.0</ele><time>2026-05-03T10:03:40.011Z</time></trkpt><trkpt lat="42.2860827" lon="13.7460928"><ele>399.0</ele><time>2026-05-03T10:03:43.01Z</time></trkpt><trkpt lat="42.2860477" lon="13.746217"><ele>398.4</ele><time>2026-05-03T10:03:45.01Z</time></trkpt><trkpt lat="42.2860204" lon="13.7463966"><ele>397.79999999999995</ele><time>2026-05-03T10:03:47.011Z</time></trkpt><trkpt lat="42.2860248" lon="13.7465246"><ele>397.20000000000005</ele><time>2026-05-03T10:03:48.01Z</time></trkpt><trkpt lat="42.2860276" lon="13.7466504"><ele>396.6</ele><time>2026-05-03T10:03:49.01Z</time></trkpt><trkpt lat="42.2860281" lon="13.7467933"><ele>396.0</ele><time>2026-05-03T10:03:50.011Z</time></trkpt><trkpt lat="42.2860318" lon="13.746954"><ele>395.5</ele><time>2026-05-03T10:03:51.011Z</time></trkpt><trkpt lat="42.2860343" lon="13.7471185"><ele>395.0</ele><time>2026-05-03T10:03:52.01Z</time></trkpt><trkpt lat="42.2860391" lon="13.747285"><ele>394.5</ele><time>2026-05-03T10:03:53.01Z</time></trkpt><trkpt lat="42.2860444" lon="13.7474653"><ele>394.0</ele><time>2026-05-03T10:03:54.011Z</time></trkpt><trkpt lat="42.2860494" lon="13.7476527"><ele>393.75</ele><time>2026-05-03T10:03:55.01Z</time></trkpt><trkpt lat="42.2860542" lon="13.7478351"><ele>393.5</ele><time>2026-05-03T10:03:56.01Z</time></trkpt><trkpt lat="42.2860558" lon="13.7480144"><ele>393.25</ele><time>2026-05-03T10:03:57.011Z</time></trkpt><trkpt lat="42.2860618" lon="13.7481879"><ele>393.0</ele><time>2026-05-03T10:03:58.011Z</time></trkpt><trkpt lat="42.2860637" lon="13.7483505"><ele>393.0</ele><time>2026-05-03T10:03:59.01Z</time></trkpt><trkpt lat="42.2860651" lon="13.748504"><ele>393.0</ele><time>2026-05-03T10:04:00.011Z</time></trkpt><trkpt lat="42.2860664" lon="13.7486489"><ele>393.0</ele><time>2026-05-03T10:04:01.011Z</time></trkpt><trkpt lat="42.2860721" lon="13.7487893"><ele>393.0</ele><time>2026-05-03T10:04:02.01Z</time></trkpt><trkpt lat="42.2860768" lon="13.7489188"><ele>393.0</ele><time>2026-05-03T10:04:03.011Z</time></trkpt><trkpt lat="42.2860806" lon="13.7490446"><ele>392.8333333333333</ele><time>2026-05-03T10:04:04.01Z</time></trkpt><trkpt lat="42.2860804" lon="13.7491606"><ele>392.66666666666663</ele><time>2026-05-03T10:04:05.011Z</time></trkpt><trkpt lat="42.2860842" lon="13.7492679"><ele>392.5</ele><time>2026-05-03T10:04:06.01Z</time></trkpt><trkpt lat="42.2860873" lon="13.7494098"><ele>392.3333333333333</ele><time>2026-05-03T10:04:08.011Z</time></trkpt><trkpt lat="42.286097" lon="13.7495052"><ele>392.16666666666663</ele><time>2026-05-03T10:04:10.011Z</time></trkpt><trkpt lat="42.2860902" lon="13.7496021"><ele>392.0</ele><time>2026-05-03T10:04:13.011Z</time></trkpt><trkpt lat="42.2860854" lon="13.7497289"><ele>391.6</ele><time>2026-05-03T10:04:17.01Z</time></trkpt><trkpt lat="42.2860947" lon="13.7498632"><ele>391.20000000000005</ele><time>2026-05-03T10:04:19.011Z</time></trkpt><trkpt lat="42.286097" lon="13.7499525"><ele>390.8</ele><time>2026-05-03T10:04:20.01Z</time></trkpt><trkpt lat="42.2860997" lon="13.7500727"><ele>390.4</ele><time>2026-05-03T10:04:21.01Z</time></trkpt><trkpt lat="42.2860984" lon="13.7502167"><ele>390.0</ele><time>2026-05-03T10:04:22.011Z</time></trkpt><trkpt lat="42.2861026" lon="13.7503483"><ele>389.0</ele><time>2026-05-03T10:04:23.011Z</time></trkpt><trkpt lat="42.2861044" lon="13.7505122"><ele>388.0</ele><time>2026-05-03T10:04:24.01Z</time></trkpt><trkpt lat="42.2861099" lon="13.7506787"><ele>387.0</ele><time>2026-05-03T10:04:25.01Z</time></trkpt><trkpt lat="42.286113" lon="13.7508528"><ele>386.0</ele><time>2026-05-03T10:04:26.01Z</time></trkpt><trkpt lat="42.2861182" lon="13.7510371"><ele>385.0</ele><time>2026-05-03T10:04:27.011Z</time></trkpt><trkpt lat="42.2861224" lon="13.7512308"><ele>384.0</ele><time>2026-05-03T10:04:28.011Z</time></trkpt><trkpt lat="42.2861306" lon="13.7514216"><ele>383.0</ele><time>2026-05-03T10:04:29.01Z</time></trkpt><trkpt lat="42.2861375" lon="13.7515995"><ele>382.0</ele><time>2026-05-03T10:04:30.011Z</time></trkpt><trkpt lat="42.2861434" lon="13.7517711"><ele>382.0</ele><time>2026-05-03T10:04:31.011Z</time></trkpt><trkpt lat="42.2861469" lon="13.7519542"><ele>382.0</ele><time>2026-05-03T10:04:32.011Z</time></trkpt><trkpt lat="42.2861444" lon="13.7521041"><ele>382.0</ele><time>2026-05-03T10:04:33.01Z</time></trkpt><trkpt lat="42.2861464" lon="13.7522444"><ele>382.0</ele><time>2026-05-03T10:04:34.01Z</time></trkpt><trkpt lat="42.2861557" lon="13.7523692"><ele>382.0</ele><time>2026-05-03T10:04:35.01Z</time></trkpt><trkpt lat="42.2861588" lon="13.7524998"><ele>382.0</ele><time>2026-05-03T10:04:36.01Z</time></trkpt><trkpt lat="42.2861661" lon="13.7526261"><ele>382.0</ele><time>2026-05-03T10:04:37.01Z</time></trkpt><trkpt lat="42.2861711" lon="13.7527417"><ele>382.0</ele><time>2026-05-03T10:04:38.011Z</time></trkpt><trkpt lat="42.2861737" lon="13.7528481"><ele>382.0</ele><time>2026-05-03T10:04:39.011Z</time></trkpt><trkpt lat="42.2861752" lon="13.7529882"><ele>382.0</ele><time>2026-05-03T10:04:41.01Z</time></trkpt><trkpt lat="42.2861714" lon="13.7530859"><ele>382.0</ele><time>2026-05-03T10:04:44.011Z</time></trkpt><trkpt lat="42.2861929" lon="13.7531749"><ele>381.6</ele><time>2026-05-03T10:04:49.01Z</time></trkpt><trkpt lat="42.2863094" lon="13.7531703"><ele>381.20000000000005</ele><time>2026-05-03T10:04:51.011Z</time></trkpt><trkpt lat="42.2863867" lon="13.7532012"><ele>380.8</ele><time>2026-05-03T10:04:52.011Z</time></trkpt><trkpt lat="42.2864769" lon="13.7532363"><ele>380.4</ele><time>2026-05-03T10:04:53.011Z</time></trkpt><trkpt lat="42.2865844" lon="13.7532673"><ele>380.0</ele><time>2026-05-03T10:04:54.01Z</time></trkpt><trkpt lat="42.2866968" lon="13.7532945"><ele>379.5</ele><time>2026-05-03T10:04:55.011Z</time></trkpt><trkpt lat="42.286814" lon="13.7533172"><ele>379.0</ele><time>2026-05-03T10:04:56.011Z</time></trkpt><trkpt lat="42.2869334" lon="13.7533415"><ele>378.5</ele><time>2026-05-03T10:04:57.011Z</time></trkpt><trkpt lat="42.2870527" lon="13.7533928"><ele>378.0</ele><time>2026-05-03T10:04:58.01Z</time></trkpt><trkpt lat="42.2871791" lon="13.7534666"><ele>377.25</ele><time>2026-05-03T10:04:59.01Z</time></trkpt><trkpt lat="42.2873084" lon="13.7535404"><ele>376.5</ele><time>2026-05-03T10:05:00.01Z</time></trkpt><trkpt lat="42.2874331" lon="13.7536096"><ele>375.75</ele><time>2026-05-03T10:05:01.011Z</time></trkpt><trkpt lat="42.2875451" lon="13.75368"><ele>375.0</ele><time>2026-05-03T10:05:02.011Z</time></trkpt><trkpt lat="42.2876398" lon="13.753742"><ele>375.0</ele><time>2026-05-03T10:05:03.011Z</time></trkpt><trkpt lat="42.2877096" lon="13.7537819"><ele>375.0</ele><time>2026-05-03T10:05:04.01Z</time></trkpt><trkpt lat="42.287819" lon="13.7537776"><ele>375.0</ele><time>2026-05-03T10:05:06.01Z</time></trkpt><trkpt lat="42.2878748" lon="13.7537273"><ele>375.0</ele><time>2026-05-03T10:05:07.01Z</time></trkpt><trkpt lat="42.2879396" lon="13.7536464"><ele>375.0</ele><time>2026-05-03T10:05:08.011Z</time></trkpt><trkpt lat="42.2880033" lon="13.7535513"><ele>375.0</ele><time>2026-05-03T10:05:09.011Z</time></trkpt><trkpt lat="42.2880743" lon="13.753452"><ele>374.8</ele><time>2026-05-03T10:05:10.011Z</time></trkpt><trkpt lat="42.2881562" lon="13.753349"><ele>374.6</ele><time>2026-05-03T10:05:11.011Z</time></trkpt><trkpt lat="42.2882384" lon="13.7532481"><ele>374.4</ele><time>2026-05-03T10:05:12.011Z</time></trkpt><trkpt lat="42.2883123" lon="13.75314"><ele>374.2</ele><time>2026-05-03T10:05:13.011Z</time></trkpt><trkpt lat="42.2883845" lon="13.753024"><ele>374.0</ele><time>2026-05-03T10:05:14.011Z</time></trkpt><trkpt lat="42.2884532" lon="13.752911"><ele>374.0</ele><time>2026-05-03T10:05:15.011Z</time></trkpt><trkpt lat="42.2885226" lon="13.7527982"><ele>374.0</ele><time>2026-05-03T10:05:16.011Z</time></trkpt><trkpt lat="42.2885889" lon="13.7526857"><ele>374.0</ele><time>2026-05-03T10:05:17.01Z</time></trkpt><trkpt lat="42.2886588" lon="13.7525687"><ele>374.0</ele><time>2026-05-03T10:05:18.011Z</time></trkpt><trkpt lat="42.2887302" lon="13.7524532"><ele>374.0</ele><time>2026-05-03T10:05:19.011Z</time></trkpt><trkpt lat="42.2887879" lon="13.7523472"><ele>374.6</ele><time>2026-05-03T10:05:20.011Z</time></trkpt><trkpt lat="42.2888424" lon="13.7522351"><ele>375.2</ele><time>2026-05-03T10:05:21.01Z</time></trkpt><trkpt lat="42.2888948" lon="13.7521278"><ele>375.8</ele><time>2026-05-03T10:05:22.011Z</time></trkpt><trkpt lat="42.2889461" lon="13.7520198"><ele>376.40000000000003</ele><time>2026-05-03T10:05:23.011Z</time></trkpt><trkpt lat="42.2890019" lon="13.7519015"><ele>377.0</ele><time>2026-05-03T10:05:24.01Z</time></trkpt><trkpt lat="42.2890563" lon="13.7517875"><ele>378.0</ele><time>2026-05-03T10:05:25.01Z</time></trkpt><trkpt lat="42.2891066" lon="13.751671"><ele>379.0</ele><time>2026-05-03T10:05:26.01Z</time></trkpt><trkpt lat="42.2891514" lon="13.7515544"><ele>380.0</ele><time>2026-05-03T10:05:27.01Z</time></trkpt><trkpt lat="42.2891928" lon="13.7514387"><ele>381.0</ele><time>2026-05-03T10:05:28.011Z</time></trkpt><trkpt lat="42.2892376" lon="13.7513277"><ele>382.0</ele><time>2026-05-03T10:05:29.011Z</time></trkpt><trkpt lat="42.2892818" lon="13.7512219"><ele>382.0</ele><time>2026-05-03T10:05:30.011Z</time></trkpt><trkpt lat="42.2893318" lon="13.7511177"><ele>382.0</ele><time>2026-05-03T10:05:31.011Z</time></trkpt><trkpt lat="42.289375" lon="13.7510157"><ele>382.0</ele><time>2026-05-03T10:05:32.011Z</time></trkpt><trkpt lat="42.2894171" lon="13.7509126"><ele>382.0</ele><time>2026-05-03T10:05:33.01Z</time></trkpt><trkpt lat="42.2894517" lon="13.7508074"><ele>382.0</ele><time>2026-05-03T10:05:34.011Z</time></trkpt><trkpt lat="42.2894875" lon="13.7506998"><ele>382.0</ele><time>2026-05-03T10:05:35.011Z</time></trkpt><trkpt lat="42.2895317" lon="13.7506003"><ele>382.0</ele><time>2026-05-03T10:05:36.01Z</time></trkpt><trkpt lat="42.2895873" lon="13.7505071"><ele>382.0</ele><time>2026-05-03T10:05:37.011Z</time></trkpt><trkpt lat="42.2896454" lon="13.7504144"><ele>382.0</ele><time>2026-05-03T10:05:38.011Z</time></trkpt><trkpt lat="42.289703" lon="13.7503213"><ele>382.0</ele><time>2026-05-03T10:05:39.011Z</time></trkpt><trkpt lat="42.2897634" lon="13.7502281"><ele>382.0</ele><time>2026-05-03T10:05:40.01Z</time></trkpt><trkpt lat="42.2898221" lon="13.7501325"><ele>381.8</ele><time>2026-05-03T10:05:41.011Z</time></trkpt><trkpt lat="42.2898763" lon="13.7500209"><ele>381.6</ele><time>2026-05-03T10:05:42.01Z</time></trkpt><trkpt lat="42.2899314" lon="13.7499091"><ele>381.40000000000003</ele><time>2026-05-03T10:05:43.011Z</time></trkpt><trkpt lat="42.2899843" lon="13.7497923"><ele>381.20000000000005</ele><time>2026-05-03T10:05:44.01Z</time></trkpt><trkpt lat="42.2900327" lon="13.7496753"><ele>381.0</ele><time>2026-05-03T10:05:45.011Z</time></trkpt><trkpt lat="42.2900825" lon="13.7495574"><ele>381.0</ele><time>2026-05-03T10:05:46.01Z</time></trkpt><trkpt lat="42.2901271" lon="13.749443"><ele>381.0</ele><time>2026-05-03T10:05:47.01Z</time></trkpt><trkpt lat="42.2901727" lon="13.7493364"><ele>381.0</ele><time>2026-05-03T10:05:48.01Z</time></trkpt><trkpt lat="42.2902297" lon="13.7492335"><ele>381.0</ele><time>2026-05-03T10:05:49.01Z</time></trkpt><trkpt lat="42.2902915" lon="13.7491343"><ele>381.0</ele><time>2026-05-03T10:05:50.011Z</time></trkpt><trkpt lat="42.2903557" lon="13.7490365"><ele>381.0</ele><time>2026-05-03T10:05:51.011Z</time></trkpt><trkpt lat="42.2904196" lon="13.7489421"><ele>381.0</ele><time>2026-05-03T10:05:52.011Z</time></trkpt><trkpt lat="42.2904817" lon="13.7488474"><ele>381.0</ele><time>2026-05-03T10:05:53.01Z</time></trkpt><trkpt lat="42.2905396" lon="13.7487477"><ele>381.0</ele><time>2026-05-03T10:05:54.011Z</time></trkpt><trkpt lat="42.2905966" lon="13.7486473"><ele>381.0</ele><time>2026-05-03T10:05:55.01Z</time></trkpt><trkpt lat="42.2906553" lon="13.7485497"><ele>381.20000000000005</ele><time>2026-05-03T10:05:56.01Z</time></trkpt><trkpt lat="42.2907187" lon="13.7484511"><ele>381.40000000000003</ele><time>2026-05-03T10:05:57.011Z</time></trkpt><trkpt lat="42.2907775" lon="13.7483521"><ele>381.6</ele><time>2026-05-03T10:05:58.01Z</time></trkpt><trkpt lat="42.2908317" lon="13.7482509"><ele>381.8</ele><time>2026-05-03T10:05:59.01Z</time></trkpt><trkpt lat="42.2908895" lon="13.748164"><ele>382.0</ele><time>2026-05-03T10:06:00.011Z</time></trkpt><trkpt lat="42.2909398" lon="13.7480749"><ele>382.0</ele><time>2026-05-03T10:06:01.01Z</time></trkpt><trkpt lat="42.2909892" lon="13.7479891"><ele>382.0</ele><time>2026-05-03T10:06:02.011Z</time></trkpt><trkpt lat="42.2910401" lon="13.7479044"><ele>382.0</ele><time>2026-05-03T10:06:03.01Z</time></trkpt><trkpt lat="42.2910881" lon="13.7478187"><ele>382.0</ele><time>2026-05-03T10:06:04.01Z</time></trkpt><trkpt lat="42.2911366" lon="13.7477279"><ele>382.0</ele><time>2026-05-03T10:06:05.01Z</time></trkpt><trkpt lat="42.2911854" lon="13.7476377"><ele>382.0</ele><time>2026-05-03T10:06:06.01Z</time></trkpt><trkpt lat="42.2912329" lon="13.7475478"><ele>382.3333333333333</ele><time>2026-05-03T10:06:07.011Z</time></trkpt><trkpt lat="42.2912773" lon="13.7474604"><ele>382.66666666666663</ele><time>2026-05-03T10:06:08.01Z</time></trkpt><trkpt lat="42.2913231" lon="13.7473731"><ele>383.0</ele><time>2026-05-03T10:06:09.011Z</time></trkpt><trkpt lat="42.2913711" lon="13.7472895"><ele>383.3333333333333</ele><time>2026-05-03T10:06:10.01Z</time></trkpt><trkpt lat="42.2914242" lon="13.7472038"><ele>383.6666666666667</ele><time>2026-05-03T10:06:11.01Z</time></trkpt><trkpt lat="42.2914865" lon="13.747117"><ele>384.0</ele><time>2026-05-03T10:06:12.011Z</time></trkpt><trkpt lat="42.291543" lon="13.7470306"><ele>384.1666666666667</ele><time>2026-05-03T10:06:13.011Z</time></trkpt><trkpt lat="42.2915915" lon="13.7469443"><ele>384.33333333333337</ele><time>2026-05-03T10:06:14.01Z</time></trkpt><trkpt lat="42.2916337" lon="13.7468582"><ele>384.5</ele><time>2026-05-03T10:06:15.01Z</time></trkpt><trkpt lat="42.2916726" lon="13.7467794"><ele>384.6666666666667</ele><time>2026-05-03T10:06:16.011Z</time></trkpt><trkpt lat="42.2917129" lon="13.7467108"><ele>384.83333333333337</ele><time>2026-05-03T10:06:17.011Z</time></trkpt><trkpt lat="42.2917798" lon="13.7466112"><ele>385.0</ele><time>2026-05-03T10:06:19.011Z</time></trkpt><trkpt lat="42.2918504" lon="13.7465953"><ele>385.33333333333337</ele><time>2026-05-03T10:06:22.01Z</time></trkpt><trkpt lat="42.2919401" lon="13.746668"><ele>385.6666666666667</ele><time>2026-05-03T10:06:24.011Z</time></trkpt><trkpt lat="42.2919996" lon="13.7467177"><ele>386.0</ele><time>2026-05-03T10:06:25.01Z</time></trkpt><trkpt lat="42.2920666" lon="13.7467675"><ele>386.33333333333337</ele><time>2026-05-03T10:06:26.009Z</time></trkpt><trkpt lat="42.292139" lon="13.7468228"><ele>386.6666666666667</ele><time>2026-05-03T10:06:27.01Z</time></trkpt><trkpt lat="42.2922148" lon="13.7468721"><ele>387.0</ele><time>2026-05-03T10:06:28.01Z</time></trkpt><trkpt lat="42.292297" lon="13.746928"><ele>386.1666666666667</ele><time>2026-05-03T10:06:29.01Z</time></trkpt><trkpt lat="42.2923803" lon="13.7469832"><ele>385.3333333333333</ele><time>2026-05-03T10:06:30.009Z</time></trkpt><trkpt lat="42.2924623" lon="13.7470339"><ele>384.5</ele><time>2026-05-03T10:06:31.01Z</time></trkpt><trkpt lat="42.2925428" lon="13.7470904"><ele>383.66666666666663</ele><time>2026-05-03T10:06:32.01Z</time></trkpt><trkpt lat="42.292618" lon="13.7471394"><ele>382.8333333333333</ele><time>2026-05-03T10:06:33.01Z</time></trkpt><trkpt lat="42.2926935" lon="13.7471808"><ele>382.0</ele><time>2026-05-03T10:06:34.01Z</time></trkpt><trkpt lat="42.2927715" lon="13.7472158"><ele>382.0</ele><time>2026-05-03T10:06:35.01Z</time></trkpt><trkpt lat="42.2928586" lon="13.7472475"><ele>382.0</ele><time>2026-05-03T10:06:36.01Z</time></trkpt><trkpt lat="42.2929423" lon="13.7472813"><ele>382.0</ele><time>2026-05-03T10:06:37.01Z</time></trkpt><trkpt lat="42.2930247" lon="13.7473195"><ele>382.0</ele><time>2026-05-03T10:06:38.01Z</time></trkpt><trkpt lat="42.2931076" lon="13.7473623"><ele>382.0</ele><time>2026-05-03T10:06:39.01Z</time></trkpt><trkpt lat="42.2931845" lon="13.7474021"><ele>382.0</ele><time>2026-05-03T10:06:40.009Z</time></trkpt><trkpt lat="42.2932602" lon="13.7474549"><ele>382.0</ele><time>2026-05-03T10:06:41.009Z</time></trkpt><trkpt lat="42.2933397" lon="13.7475171"><ele>382.0</ele><time>2026-05-03T10:06:42.01Z</time></trkpt><trkpt lat="42.293419" lon="13.7475738"><ele>382.0</ele><time>2026-05-03T10:06:43.01Z</time></trkpt><trkpt lat="42.2934973" lon="13.7476243"><ele>382.0</ele><time>2026-05-03T10:06:44.01Z</time></trkpt><trkpt lat="42.293576" lon="13.7476742"><ele>382.0</ele><time>2026-05-03T10:06:45.009Z</time></trkpt><trkpt lat="42.2936532" lon="13.7477188"><ele>382.0</ele><time>2026-05-03T10:06:46.01Z</time></trkpt><trkpt lat="42.2937285" lon="13.7477628"><ele>382.0</ele><time>2026-05-03T10:06:47.009Z</time></trkpt><trkpt lat="42.2938044" lon="13.7477988"><ele>382.0</ele><time>2026-05-03T10:06:48.01Z</time></trkpt><trkpt lat="42.2938765" lon="13.7478377"><ele>382.0</ele><time>2026-05-03T10:06:49.01Z</time></trkpt><trkpt lat="42.2939466" lon="13.7478727"><ele>382.0</ele><time>2026-05-03T10:06:50.01Z</time></trkpt><trkpt lat="42.2940166" lon="13.7479094"><ele>382.0</ele><time>2026-05-03T10:06:51.01Z</time></trkpt><trkpt lat="42.2940896" lon="13.7479463"><ele>382.0</ele><time>2026-05-03T10:06:52.01Z</time></trkpt><trkpt lat="42.2941676" lon="13.7479881"><ele>382.8333333333333</ele><time>2026-05-03T10:06:53.01Z</time></trkpt><trkpt lat="42.294246" lon="13.7480309"><ele>383.66666666666663</ele><time>2026-05-03T10:06:54.009Z</time></trkpt><trkpt lat="42.2943239" lon="13.748077"><ele>384.5</ele><time>2026-05-03T10:06:55.009Z</time></trkpt><trkpt lat="42.2944018" lon="13.7481173"><ele>385.3333333333333</ele><time>2026-05-03T10:06:56.01Z</time></trkpt><trkpt lat="42.2944796" lon="13.7481595"><ele>386.1666666666667</ele><time>2026-05-03T10:06:57.01Z</time></trkpt><trkpt lat="42.2945579" lon="13.7482111"><ele>387.0</ele><time>2026-05-03T10:06:58.009Z</time></trkpt><trkpt lat="42.2946342" lon="13.7482608"><ele>387.0</ele><time>2026-05-03T10:06:59.009Z</time></trkpt><trkpt lat="42.294718" lon="13.748313"><ele>387.0</ele><time>2026-05-03T10:07:00.01Z</time></trkpt><trkpt lat="42.2948052" lon="13.748361"><ele>387.0</ele><time>2026-05-03T10:07:01.01Z</time></trkpt><trkpt lat="42.2948898" lon="13.7484115"><ele>387.0</ele><time>2026-05-03T10:07:02.01Z</time></trkpt><trkpt lat="42.2949672" lon="13.7484666"><ele>387.0</ele><time>2026-05-03T10:07:03.01Z</time></trkpt><trkpt lat="42.2950292" lon="13.7485176"><ele>387.0</ele><time>2026-05-03T10:07:04.01Z</time></trkpt><trkpt lat="42.2950852" lon="13.7485614"><ele>389.0</ele><time>2026-05-03T10:07:06.009Z</time></trkpt><trkpt lat="42.295143" lon="13.7486318"><ele>391.0</ele><time>2026-05-03T10:07:11.01Z</time></trkpt><trkpt lat="42.2952063" lon="13.7486912"><ele>393.0</ele><time>2026-05-03T10:07:13.009Z</time></trkpt><trkpt lat="42.2953264" lon="13.7487596"><ele>395.0</ele><time>2026-05-03T10:07:15.01Z</time></trkpt><trkpt lat="42.2954111" lon="13.7487981"><ele>397.0</ele><time>2026-05-03T10:07:16.009Z</time></trkpt><trkpt lat="42.2955102" lon="13.7488441"><ele>399.40000000000003</ele><time>2026-05-03T10:07:17.01Z</time></trkpt><trkpt lat="42.29562" lon="13.7488901"><ele>401.8</ele><time>2026-05-03T10:07:18.009Z</time></trkpt><trkpt lat="42.2957243" lon="13.7489417"><ele>404.2</ele><time>2026-05-03T10:07:19.01Z</time></trkpt><trkpt lat="42.2958177" lon="13.7490037"><ele>406.6</ele><time>2026-05-03T10:07:20.009Z</time></trkpt><trkpt lat="42.2959066" lon="13.7490841"><ele>409.0</ele><time>2026-05-03T10:07:21.01Z</time></trkpt><trkpt lat="42.2959866" lon="13.7491878"><ele>409.0</ele><time>2026-05-03T10:07:22.01Z</time></trkpt><trkpt lat="42.2960669" lon="13.7492995"><ele>409.0</ele><time>2026-05-03T10:07:23.009Z</time></trkpt><trkpt lat="42.2961471" lon="13.7494063"><ele>409.0</ele><time>2026-05-03T10:07:24.009Z</time></trkpt><trkpt lat="42.2962347" lon="13.749492"><ele>409.0</ele><time>2026-05-03T10:07:25.009Z</time></trkpt><trkpt lat="42.2963347" lon="13.749566"><ele>412.75</ele><time>2026-05-03T10:07:26.01Z</time></trkpt><trkpt lat="42.2964442" lon="13.7496362"><ele>416.5</ele><time>2026-05-03T10:07:27.009Z</time></trkpt><trkpt lat="42.2965484" lon="13.7497095"><ele>420.25</ele><time>2026-05-03T10:07:28.01Z</time></trkpt><trkpt lat="42.2966522" lon="13.7497954"><ele>424.0</ele><time>2026-05-03T10:07:29.009Z</time></trkpt><trkpt lat="42.2967488" lon="13.7498877"><ele>424.0</ele><time>2026-05-03T10:07:30.01Z</time></trkpt><trkpt lat="42.2968346" lon="13.7499868"><ele>424.0</ele><time>2026-05-03T10:07:31.01Z</time></trkpt><trkpt lat="42.2969091" lon="13.7500846"><ele>424.0</ele><time>2026-05-03T10:07:32.01Z</time></trkpt><trkpt lat="42.2969772" lon="13.7501715"><ele>424.0</ele><time>2026-05-03T10:07:33.01Z</time></trkpt><trkpt lat="42.2970471" lon="13.7502403"><ele>424.0</ele><time>2026-05-03T10:07:34.01Z</time></trkpt><trkpt lat="42.2971284" lon="13.7503047"><ele>424.1666666666667</ele><time>2026-05-03T10:07:35.009Z</time></trkpt><trkpt lat="42.2972161" lon="13.7503587"><ele>424.33333333333337</ele><time>2026-05-03T10:07:36.01Z</time></trkpt><trkpt lat="42.2972926" lon="13.7504029"><ele>424.5</ele><time>2026-05-03T10:07:37.01Z</time></trkpt><trkpt lat="42.2973572" lon="13.7504337"><ele>424.66666666666663</ele><time>2026-05-03T10:07:38.009Z</time></trkpt><trkpt lat="42.2974379" lon="13.7504443"><ele>424.8333333333333</ele><time>2026-05-03T10:07:40.009Z</time></trkpt><trkpt lat="42.2975089" lon="13.750379"><ele>425.0</ele><time>2026-05-03T10:07:42.009Z</time></trkpt><trkpt lat="42.297574" lon="13.7502443"><ele>425.6</ele><time>2026-05-03T10:07:44.01Z</time></trkpt><trkpt lat="42.29767" lon="13.7501346"><ele>426.2</ele><time>2026-05-03T10:07:46.009Z</time></trkpt><trkpt lat="42.297739" lon="13.750097"><ele>426.79999999999995</ele><time>2026-05-03T10:07:47.01Z</time></trkpt><trkpt lat="42.2978154" lon="13.7500687"><ele>427.4</ele><time>2026-05-03T10:07:48.01Z</time></trkpt><trkpt lat="42.2979011" lon="13.7500382"><ele>428.0</ele><time>2026-05-03T10:07:49.01Z</time></trkpt><trkpt lat="42.2979865" lon="13.7500207"><ele>428.0</ele><time>2026-05-03T10:07:50.01Z</time></trkpt><trkpt lat="42.2980766" lon="13.7500175"><ele>427.99999999999994</ele><time>2026-05-03T10:07:51.01Z</time></trkpt><trkpt lat="42.2981717" lon="13.7500169"><ele>427.99999999999994</ele><time>2026-05-03T10:07:52.009Z</time></trkpt><trkpt lat="42.2982665" lon="13.7500216"><ele>428.0</ele><time>2026-05-03T10:07:53.009Z</time></trkpt><trkpt lat="42.2983549" lon="13.7500326"><ele>428.0</ele><time>2026-05-03T10:07:54.009Z</time></trkpt><trkpt lat="42.2984446" lon="13.7500321"><ele>427.79999999999995</ele><time>2026-05-03T10:07:55.009Z</time></trkpt><trkpt lat="42.298538" lon="13.7500231"><ele>427.59999999999997</ele><time>2026-05-03T10:07:56.01Z</time></trkpt><trkpt lat="42.2986309" lon="13.7500019"><ele>427.40000000000003</ele><time>2026-05-03T10:07:57.01Z</time></trkpt><trkpt lat="42.2987282" lon="13.7499833"><ele>427.20000000000005</ele><time>2026-05-03T10:07:58.01Z</time></trkpt><trkpt lat="42.2988332" lon="13.7499589"><ele>427.0</ele><time>2026-05-03T10:07:59.01Z</time></trkpt><trkpt lat="42.2989444" lon="13.7499354"><ele>427.0</ele><time>2026-05-03T10:08:00.009Z</time></trkpt><trkpt lat="42.2990545" lon="13.749911"><ele>427.00000000000006</ele><time>2026-05-03T10:08:01.009Z</time></trkpt><trkpt lat="42.2991657" lon="13.7498915"><ele>427.00000000000006</ele><time>2026-05-03T10:08:02.009Z</time></trkpt><trkpt lat="42.2992776" lon="13.7498747"><ele>427.0</ele><time>2026-05-03T10:08:03.009Z</time></trkpt><trkpt lat="42.2993794" lon="13.7498643"><ele>427.0</ele><time>2026-05-03T10:08:04.01Z</time></trkpt><trkpt lat="42.2994763" lon="13.7498534"><ele>427.00000000000006</ele><time>2026-05-03T10:08:05.009Z</time></trkpt><trkpt lat="42.2995652" lon="13.7498367"><ele>427.0</ele><time>2026-05-03T10:08:06.009Z</time></trkpt><trkpt lat="42.2996509" lon="13.7498041"><ele>427.0</ele><time>2026-05-03T10:08:07.009Z</time></trkpt><trkpt lat="42.2997273" lon="13.7497588"><ele>427.0</ele><time>2026-05-03T10:08:08.01Z</time></trkpt><trkpt lat="42.2998065" lon="13.7497216"><ele>427.00000000000006</ele><time>2026-05-03T10:08:09.009Z</time></trkpt><trkpt lat="42.2998914" lon="13.7496802"><ele>427.0</ele><time>2026-05-03T10:08:10.01Z</time></trkpt><trkpt lat="42.2999808" lon="13.7496451"><ele>426.20000000000005</ele><time>2026-05-03T10:08:11.01Z</time></trkpt><trkpt lat="42.3000768" lon="13.7496145"><ele>425.40000000000003</ele><time>2026-05-03T10:08:12.01Z</time></trkpt><trkpt lat="42.3001781" lon="13.7495878"><ele>424.6</ele><time>2026-05-03T10:08:13.01Z</time></trkpt><trkpt lat="42.3002691" lon="13.7495596"><ele>423.79999999999995</ele><time>2026-05-03T10:08:14.009Z</time></trkpt><trkpt lat="42.3003539" lon="13.749532"><ele>423.0</ele><time>2026-05-03T10:08:15.009Z</time></trkpt><trkpt lat="42.3004321" lon="13.7495046"><ele>423.0</ele><time>2026-05-03T10:08:16.009Z</time></trkpt><trkpt lat="42.3005175" lon="13.7494671"><ele>423.0</ele><time>2026-05-03T10:08:17.009Z</time></trkpt><trkpt lat="42.3006135" lon="13.7494346"><ele>423.0</ele><time>2026-05-03T10:08:18.01Z</time></trkpt><trkpt lat="42.3007102" lon="13.7494104"><ele>423.0</ele><time>2026-05-03T10:08:19.01Z</time></trkpt><trkpt lat="42.3008092" lon="13.7493906"><ele>423.0</ele><time>2026-05-03T10:08:20.009Z</time></trkpt><trkpt lat="42.3009094" lon="13.7493707"><ele>427.0</ele><time>2026-05-03T10:08:21.01Z</time></trkpt><trkpt lat="42.3010083" lon="13.7493492"><ele>431.0</ele><time>2026-05-03T10:08:22.01Z</time></trkpt><trkpt lat="42.3011067" lon="13.7493233"><ele>434.99999999999994</ele><time>2026-05-03T10:08:23.009Z</time></trkpt><trkpt lat="42.3011969" lon="13.7492841"><ele>439.0</ele><time>2026-05-03T10:08:24.01Z</time></trkpt><trkpt lat="42.3012732" lon="13.7492324"><ele>443.0</ele><time>2026-05-03T10:08:25.01Z</time></trkpt><trkpt lat="42.301338" lon="13.7491777"><ele>442.99999999999994</ele><time>2026-05-03T10:08:26.009Z</time></trkpt><trkpt lat="42.3013956" lon="13.7491106"><ele>443.0</ele><time>2026-05-03T10:08:27.009Z</time></trkpt><trkpt lat="42.3014441" lon="13.7490316"><ele>443.0</ele><time>2026-05-03T10:08:28.01Z</time></trkpt><trkpt lat="42.3014928" lon="13.7489371"><ele>443.0</ele><time>2026-05-03T10:08:29.009Z</time></trkpt><trkpt lat="42.3015421" lon="13.7488451"><ele>442.99999999999994</ele><time>2026-05-03T10:08:30.009Z</time></trkpt><trkpt lat="42.3016037" lon="13.7487622"><ele>443.0</ele><time>2026-05-03T10:08:31.01Z</time></trkpt><trkpt lat="42.3016649" lon="13.7486807"><ele>440.99999999999994</ele><time>2026-05-03T10:08:32.01Z</time></trkpt><trkpt lat="42.3017279" lon="13.7485969"><ele>439.0</ele><time>2026-05-03T10:08:33.009Z</time></trkpt><trkpt lat="42.3017931" lon="13.7485111"><ele>437.0</ele><time>2026-05-03T10:08:34.01Z</time></trkpt><trkpt lat="42.3018587" lon="13.7484377"><ele>435.0</ele><time>2026-05-03T10:08:35.009Z</time></trkpt><trkpt lat="42.3019279" lon="13.7483805"><ele>432.99999999999994</ele><time>2026-05-03T10:08:36.01Z</time></trkpt><trkpt lat="42.3020037" lon="13.7483306"><ele>431.0</ele><time>2026-05-03T10:08:37.009Z</time></trkpt><trkpt lat="42.3020724" lon="13.7482786"><ele>434.16666666666663</ele><time>2026-05-03T10:08:38.009Z</time></trkpt><trkpt lat="42.3021402" lon="13.7482271"><ele>437.3333333333333</ele><time>2026-05-03T10:08:39.009Z</time></trkpt><trkpt lat="42.3022074" lon="13.7481778"><ele>440.5</ele><time>2026-05-03T10:08:40.009Z</time></trkpt><trkpt lat="42.3022702" lon="13.7481239"><ele>443.66666666666663</ele><time>2026-05-03T10:08:41.01Z</time></trkpt><trkpt lat="42.3023397" lon="13.7480661"><ele>446.8333333333333</ele><time>2026-05-03T10:08:42.009Z</time></trkpt><trkpt lat="42.3024169" lon="13.7480133"><ele>450.0</ele><time>2026-05-03T10:08:43.01Z</time></trkpt><trkpt lat="42.3025008" lon="13.7479646"><ele>450.0</ele><time>2026-05-03T10:08:44.01Z</time></trkpt><trkpt lat="42.3025831" lon="13.74793"><ele>450.0</ele><time>2026-05-03T10:08:45.009Z</time></trkpt><trkpt lat="42.3026663" lon="13.7478983"><ele>450.0</ele><time>2026-05-03T10:08:46.009Z</time></trkpt><trkpt lat="42.3027479" lon="13.7478732"><ele>450.0</ele><time>2026-05-03T10:08:47.01Z</time></trkpt><trkpt lat="42.3028248" lon="13.7478668"><ele>450.0</ele><time>2026-05-03T10:08:48.01Z</time></trkpt><trkpt lat="42.3029" lon="13.7478757"><ele>450.0</ele><time>2026-05-03T10:08:49.01Z</time></trkpt><trkpt lat="42.3029807" lon="13.7478812"><ele>450.0</ele><time>2026-05-03T10:08:50.009Z</time></trkpt><trkpt lat="42.3030709" lon="13.7478889"><ele>450.0</ele><time>2026-05-03T10:08:51.01Z</time></trkpt><trkpt lat="42.3031698" lon="13.7479035"><ele>450.0</ele><time>2026-05-03T10:08:52.009Z</time></trkpt><trkpt lat="42.3032749" lon="13.7479253"><ele>450.0</ele><time>2026-05-03T10:08:53.01Z</time></trkpt><trkpt lat="42.3033834" lon="13.7479486"><ele>450.0</ele><time>2026-05-03T10:08:54.009Z</time></trkpt><trkpt lat="42.303495" lon="13.7479674"><ele>451.2</ele><time>2026-05-03T10:08:55.009Z</time></trkpt><trkpt lat="42.3035954" lon="13.7479876"><ele>452.4</ele><time>2026-05-03T10:08:56.01Z</time></trkpt><trkpt lat="42.3036904" lon="13.7480095"><ele>453.6</ele><time>2026-05-03T10:08:57.009Z</time></trkpt><trkpt lat="42.3037799" lon="13.7480298"><ele>454.8</ele><time>2026-05-03T10:08:58.01Z</time></trkpt><trkpt lat="42.3038641" lon="13.7480558"><ele>456.0</ele><time>2026-05-03T10:08:59.01Z</time></trkpt><trkpt lat="42.303944" lon="13.7480735"><ele>458.6666666666667</ele><time>2026-05-03T10:09:00.009Z</time></trkpt><trkpt lat="42.3040129" lon="13.7481006"><ele>461.33333333333337</ele><time>2026-05-03T10:09:01.01Z</time></trkpt><trkpt lat="42.3040852" lon="13.7481407"><ele>464.0</ele><time>2026-05-03T10:09:02.01Z</time></trkpt><trkpt lat="42.3041668" lon="13.7481879"><ele>466.6666666666667</ele><time>2026-05-03T10:09:03.009Z</time></trkpt><trkpt lat="42.3042541" lon="13.7482414"><ele>469.33333333333337</ele><time>2026-05-03T10:09:04.01Z</time></trkpt><trkpt lat="42.3043483" lon="13.7482858"><ele>472.0</ele><time>2026-05-03T10:09:05.01Z</time></trkpt><trkpt lat="42.304438" lon="13.7483233"><ele>472.00000000000006</ele><time>2026-05-03T10:09:06.009Z</time></trkpt><trkpt lat="42.3045188" lon="13.7483558"><ele>472.0</ele><time>2026-05-03T10:09:07.009Z</time></trkpt><trkpt lat="42.3045915" lon="13.7483769"><ele>472.0</ele><time>2026-05-03T10:09:08.01Z</time></trkpt><trkpt lat="42.3046558" lon="13.7483928"><ele>472.0</ele><time>2026-05-03T10:09:09.01Z</time></trkpt><trkpt lat="42.3047797" lon="13.7483745"><ele>472.00000000000006</ele><time>2026-05-03T10:09:11.009Z</time></trkpt><trkpt lat="42.3048514" lon="13.7483539"><ele>472.0</ele><time>2026-05-03T10:09:12.01Z</time></trkpt><trkpt lat="42.304916" lon="13.7483325"><ele>474.50000000000006</ele><time>2026-05-03T10:09:13.009Z</time></trkpt><trkpt lat="42.3049793" lon="13.7483229"><ele>477.0</ele><time>2026-05-03T10:09:14.01Z</time></trkpt><trkpt lat="42.3050848" lon="13.7483438"><ele>479.5</ele><time>2026-05-03T10:09:16.01Z</time></trkpt><trkpt lat="42.3051431" lon="13.7483882"><ele>482.0</ele><time>2026-05-03T10:09:18.01Z</time></trkpt><trkpt lat="42.3052098" lon="13.7484583"><ele>484.50000000000006</ele><time>2026-05-03T10:09:21.01Z</time></trkpt><trkpt lat="42.3053128" lon="13.7484926"><ele>487.0</ele><time>2026-05-03T10:09:23.01Z</time></trkpt><trkpt lat="42.3053791" lon="13.7484974"><ele>487.00000000000006</ele><time>2026-05-03T10:09:24.01Z</time></trkpt><trkpt lat="42.3054623" lon="13.7484961"><ele>487.0</ele><time>2026-05-03T10:09:25.01Z</time></trkpt><trkpt lat="42.3055506" lon="13.748494"><ele>487.0</ele><time>2026-05-03T10:09:26.009Z</time></trkpt><trkpt lat="42.3056331" lon="13.7484799"><ele>487.0</ele><time>2026-05-03T10:09:27.009Z</time></trkpt><trkpt lat="42.3057179" lon="13.7484516"><ele>487.00000000000006</ele><time>2026-05-03T10:09:28.009Z</time></trkpt><trkpt lat="42.3058114" lon="13.7484013"><ele>487.0</ele><time>2026-05-03T10:09:29.01Z</time></trkpt><trkpt lat="42.3059137" lon="13.7483412"><ele>488.20000000000005</ele><time>2026-05-03T10:09:30.01Z</time></trkpt><trkpt lat="42.3060066" lon="13.74829"><ele>489.40000000000003</ele><time>2026-05-03T10:09:31.009Z</time></trkpt><trkpt lat="42.3060915" lon="13.7482519"><ele>490.59999999999997</ele><time>2026-05-03T10:09:32.01Z</time></trkpt><trkpt lat="42.3061856" lon="13.7482174"><ele>491.79999999999995</ele><time>2026-05-03T10:09:33.01Z</time></trkpt><trkpt lat="42.3062836" lon="13.7481842"><ele>493.0</ele><time>2026-05-03T10:09:34.009Z</time></trkpt><trkpt lat="42.3063712" lon="13.7481457"><ele>492.50000000000006</ele><time>2026-05-03T10:09:35.01Z</time></trkpt><trkpt lat="42.3064562" lon="13.7481018"><ele>492.0</ele><time>2026-05-03T10:09:36.01Z</time></trkpt><trkpt lat="42.3065434" lon="13.7480563"><ele>491.5</ele><time>2026-05-03T10:09:37.01Z</time></trkpt><trkpt lat="42.3066252" lon="13.7480132"><ele>491.0</ele><time>2026-05-03T10:09:38.009Z</time></trkpt><trkpt lat="42.3067026" lon="13.7479825"><ele>490.50000000000006</ele><time>2026-05-03T10:09:39.009Z</time></trkpt><trkpt lat="42.3067778" lon="13.7479636"><ele>490.0</ele><time>2026-05-03T10:09:40.009Z</time></trkpt><trkpt lat="42.3068431" lon="13.7479457"><ele>490.0</ele><time>2026-05-03T10:09:41.009Z</time></trkpt><trkpt lat="42.3069132" lon="13.7479411"><ele>490.0</ele><time>2026-05-03T10:09:42.009Z</time></trkpt><trkpt lat="42.3069845" lon="13.7479268"><ele>490.0</ele><time>2026-05-03T10:09:43.009Z</time></trkpt><trkpt lat="42.3071055" lon="13.7479057"><ele>490.0</ele><time>2026-05-03T10:09:45.01Z</time></trkpt><trkpt lat="42.3072372" lon="13.7479112"><ele>490.0</ele><time>2026-05-03T10:09:47.009Z</time></trkpt><trkpt lat="42.3073119" lon="13.7479092"><ele>489.33333333333337</ele><time>2026-05-03T10:09:48.01Z</time></trkpt><trkpt lat="42.3073848" lon="13.7479089"><ele>488.6666666666667</ele><time>2026-05-03T10:09:49.009Z</time></trkpt><trkpt lat="42.3074644" lon="13.7479071"><ele>488.0</ele><time>2026-05-03T10:09:50.01Z</time></trkpt><trkpt lat="42.3075447" lon="13.7479039"><ele>487.33333333333337</ele><time>2026-05-03T10:09:51.01Z</time></trkpt><trkpt lat="42.3076243" lon="13.7478978"><ele>486.6666666666667</ele><time>2026-05-03T10:09:52.01Z</time></trkpt><trkpt lat="42.307704" lon="13.7478924"><ele>486.0</ele><time>2026-05-03T10:09:53.01Z</time></trkpt><trkpt lat="42.3077897" lon="13.7478873"><ele>486.0</ele><time>2026-05-03T10:09:54.01Z</time></trkpt><trkpt lat="42.3078744" lon="13.7478816"><ele>486.0</ele><time>2026-05-03T10:09:55.009Z</time></trkpt><trkpt lat="42.3079583" lon="13.7478673"><ele>486.0</ele><time>2026-05-03T10:09:56.01Z</time></trkpt><trkpt lat="42.3080444" lon="13.7478577"><ele>486.0</ele><time>2026-05-03T10:09:57.009Z</time></trkpt><trkpt lat="42.3081202" lon="13.7478512"><ele>486.0</ele><time>2026-05-03T10:09:58.01Z</time></trkpt><trkpt lat="42.3082366" lon="13.7478351"><ele>486.0</ele><time>2026-05-03T10:10:00.01Z</time></trkpt><trkpt lat="42.3083648" lon="13.7477994"><ele>486.1666666666667</ele><time>2026-05-03T10:10:02.009Z</time></trkpt><trkpt lat="42.3084378" lon="13.7477865"><ele>486.33333333333337</ele><time>2026-05-03T10:10:03.009Z</time></trkpt><trkpt lat="42.3085124" lon="13.7477859"><ele>486.5</ele><time>2026-05-03T10:10:04.009Z</time></trkpt><trkpt lat="42.3085915" lon="13.7477875"><ele>486.6666666666667</ele><time>2026-05-03T10:10:05.01Z</time></trkpt><trkpt lat="42.308666" lon="13.7477814"><ele>486.83333333333337</ele><time>2026-05-03T10:10:06.01Z</time></trkpt><trkpt lat="42.308734" lon="13.7477779"><ele>487.0</ele><time>2026-05-03T10:10:07.009Z</time></trkpt><trkpt lat="42.3088529" lon="13.7477579"><ele>488.6</ele><time>2026-05-03T10:10:09.01Z</time></trkpt><trkpt lat="42.3089149" lon="13.7477015"><ele>490.20000000000005</ele><time>2026-05-03T10:10:11.009Z</time></trkpt><trkpt lat="42.3089386" lon="13.7475857"><ele>491.8</ele><time>2026-05-03T10:10:14.01Z</time></trkpt><trkpt lat="42.3089623" lon="13.7474551"><ele>493.4</ele><time>2026-05-03T10:10:16.01Z</time></trkpt><trkpt lat="42.3089968" lon="13.7473331"><ele>495.0</ele><time>2026-05-03T10:10:18.009Z</time></trkpt><trkpt lat="42.3090628" lon="13.7472122"><ele>495.0</ele><time>2026-05-03T10:10:20.009Z</time></trkpt><trkpt lat="42.3091106" lon="13.7471331"><ele>495.0</ele><time>2026-05-03T10:10:21.01Z</time></trkpt><trkpt lat="42.3091583" lon="13.7470514"><ele>495.0</ele><time>2026-05-03T10:10:22.009Z</time></trkpt><trkpt lat="42.3092078" lon="13.7469703"><ele>495.0</ele><time>2026-05-03T10:10:23.01Z</time></trkpt><trkpt lat="42.3092561" lon="13.7468868"><ele>495.0</ele><time>2026-05-03T10:10:24.01Z</time></trkpt><trkpt lat="42.3093059" lon="13.7468052"><ele>495.0</ele><time>2026-05-03T10:10:25.01Z</time></trkpt><trkpt lat="42.309358" lon="13.7467209"><ele>498.5</ele><time>2026-05-03T10:10:26.01Z</time></trkpt><trkpt lat="42.309415" lon="13.7466449"><ele>502.0</ele><time>2026-05-03T10:10:27.01Z</time></trkpt><trkpt lat="42.3094732" lon="13.7465748"><ele>505.5</ele><time>2026-05-03T10:10:28.009Z</time></trkpt><trkpt lat="42.30953" lon="13.7465044"><ele>509.0</ele><time>2026-05-03T10:10:29.009Z</time></trkpt><trkpt lat="42.3096133" lon="13.7464382"><ele>512.5</ele><time>2026-05-03T10:10:31.009Z</time></trkpt><trkpt lat="42.3096812" lon="13.7464658"><ele>516.0</ele><time>2026-05-03T10:10:33.009Z</time></trkpt><trkpt lat="42.3097835" lon="13.746568"><ele>516.0</ele><time>2026-05-03T10:10:35.009Z</time></trkpt><trkpt lat="42.3098369" lon="13.7466167"><ele>516.0</ele><time>2026-05-03T10:10:36.009Z</time></trkpt><trkpt lat="42.3098979" lon="13.7466535"><ele>516.0</ele><time>2026-05-03T10:10:37.009Z</time></trkpt><trkpt lat="42.3100091" lon="13.7467292"><ele>516.0</ele><time>2026-05-03T10:10:39.01Z</time></trkpt><trkpt lat="42.3100651" lon="13.7467692"><ele>516.0</ele><time>2026-05-03T10:10:40.009Z</time></trkpt><trkpt lat="42.3101712" lon="13.7468364"><ele>516.0</ele><time>2026-05-03T10:10:42.009Z</time></trkpt><trkpt lat="42.3102667" lon="13.7468911"><ele>511.8</ele><time>2026-05-03T10:10:44.01Z</time></trkpt><trkpt lat="42.3103609" lon="13.7469388"><ele>507.6</ele><time>2026-05-03T10:10:46.009Z</time></trkpt><trkpt lat="42.3104536" lon="13.7469792"><ele>503.4</ele><time>2026-05-03T10:10:48.01Z</time></trkpt><trkpt lat="42.3105451" lon="13.7470285"><ele>499.2</ele><time>2026-05-03T10:10:50.01Z</time></trkpt><trkpt lat="42.3106388" lon="13.7470791"><ele>495.0</ele><time>2026-05-03T10:10:52.01Z</time></trkpt><trkpt lat="42.3107339" lon="13.747129"><ele>495.0</ele><time>2026-05-03T10:10:54.009Z</time></trkpt><trkpt lat="42.3108294" lon="13.7471788"><ele>495.0</ele><time>2026-05-03T10:10:56.01Z</time></trkpt><trkpt lat="42.3109247" lon="13.747227"><ele>495.0</ele><time>2026-05-03T10:10:58.01Z</time></trkpt><trkpt lat="42.3110154" lon="13.7472715"><ele>495.0</ele><time>2026-05-03T10:11:00.01Z</time></trkpt><trkpt lat="42.3111077" lon="13.7473176"><ele>495.0</ele><time>2026-05-03T10:11:02.009Z</time></trkpt><trkpt lat="42.3112084" lon="13.7473622"><ele>495.0</ele><time>2026-05-03T10:11:04.009Z</time></trkpt><trkpt lat="42.3113212" lon="13.7474202"><ele>495.0</ele><time>2026-05-03T10:11:06.01Z</time></trkpt><trkpt lat="42.3113818" lon="13.7474501"><ele>495.0</ele><time>2026-05-03T10:11:07.009Z</time></trkpt><trkpt lat="42.3114407" lon="13.7474815"><ele>495.0</ele><time>2026-05-03T10:11:08.009Z</time></trkpt><trkpt lat="42.311503" lon="13.7475097"><ele>495.0</ele><time>2026-05-03T10:11:09.009Z</time></trkpt><trkpt lat="42.3115615" lon="13.7475412"><ele>495.0</ele><time>2026-05-03T10:11:10.009Z</time></trkpt><trkpt lat="42.3116783" lon="13.747601"><ele>496.42857142857133</ele><time>2026-05-03T10:11:12.009Z</time></trkpt><trkpt lat="42.311736" lon="13.7476356"><ele>497.85714285714283</ele><time>2026-05-03T10:11:13.01Z</time></trkpt><trkpt lat="42.3117981" lon="13.747667"><ele>499.2857142857142</ele><time>2026-05-03T10:11:14.01Z</time></trkpt><trkpt lat="42.3118619" lon="13.7476983"><ele>500.71428571428567</ele><time>2026-05-03T10:11:15.009Z</time></trkpt><trkpt lat="42.3119242" lon="13.7477333"><ele>502.1428571428571</ele><time>2026-05-03T10:11:16.01Z</time></trkpt><trkpt lat="42.3119901" lon="13.7477653"><ele>503.57142857142856</ele><time>2026-05-03T10:11:17.01Z</time></trkpt><trkpt lat="42.3120549" lon="13.747796"><ele>505.0</ele><time>2026-05-03T10:11:18.01Z</time></trkpt><trkpt lat="42.3121226" lon="13.7478271"><ele>500.1666666666667</ele><time>2026-05-03T10:11:19.01Z</time></trkpt><trkpt lat="42.3121844" lon="13.7478576"><ele>495.33333333333337</ele><time>2026-05-03T10:11:20.009Z</time></trkpt><trkpt lat="42.3122463" lon="13.7478837"><ele>490.5</ele><time>2026-05-03T10:11:21.01Z</time></trkpt><trkpt lat="42.3123058" lon="13.7479129"><ele>485.66666666666663</ele><time>2026-05-03T10:11:22.009Z</time></trkpt><trkpt lat="42.3124284" lon="13.7479748"><ele>480.8333333333333</ele><time>2026-05-03T10:11:24.009Z</time></trkpt><trkpt lat="42.3124946" lon="13.7480079"><ele>476.0</ele><time>2026-05-03T10:11:25.01Z</time></trkpt><trkpt lat="42.3125626" lon="13.7480426"><ele>475.7142857142857</ele><time>2026-05-03T10:11:26.01Z</time></trkpt><trkpt lat="42.312625" lon="13.7480771"><ele>475.42857142857144</ele><time>2026-05-03T10:11:27.01Z</time></trkpt><trkpt lat="42.3126876" lon="13.7481145"><ele>475.1428571428571</ele><time>2026-05-03T10:11:28.01Z</time></trkpt><trkpt lat="42.3127509" lon="13.7481536"><ele>474.85714285714283</ele><time>2026-05-03T10:11:29.009Z</time></trkpt><trkpt lat="42.3128158" lon="13.7481908"><ele>474.57142857142856</ele><time>2026-05-03T10:11:30.009Z</time></trkpt><trkpt lat="42.3128786" lon="13.7482291"><ele>474.2857142857142</ele><time>2026-05-03T10:11:31.009Z</time></trkpt><trkpt lat="42.3129387" lon="13.7482658"><ele>473.99999999999994</ele><time>2026-05-03T10:11:32.009Z</time></trkpt><trkpt lat="42.3130571" lon="13.7483301"><ele>473.71428571428567</ele><time>2026-05-03T10:11:34.01Z</time></trkpt><trkpt lat="42.313122" lon="13.7483552"><ele>473.42857142857144</ele><time>2026-05-03T10:11:35.01Z</time></trkpt><trkpt lat="42.3131895" lon="13.7483819"><ele>473.1428571428571</ele><time>2026-05-03T10:11:36.01Z</time></trkpt><trkpt lat="42.3132529" lon="13.748413"><ele>472.85714285714283</ele><time>2026-05-03T10:11:37.01Z</time></trkpt><trkpt lat="42.3133168" lon="13.748445"><ele>472.57142857142856</ele><time>2026-05-03T10:11:38.01Z</time></trkpt><trkpt lat="42.3133829" lon="13.7484814"><ele>472.2857142857143</ele><time>2026-05-03T10:11:39.009Z</time></trkpt><trkpt lat="42.3134519" lon="13.7485179"><ele>472.0</ele><time>2026-05-03T10:11:40.01Z</time></trkpt><trkpt lat="42.3135186" lon="13.7485504"><ele>468.71428571428567</ele><time>2026-05-03T10:11:41.01Z</time></trkpt><trkpt lat="42.3135853" lon="13.7485727"><ele>465.42857142857144</ele><time>2026-05-03T10:11:42.01Z</time></trkpt><trkpt lat="42.3136545" lon="13.7485885"><ele>462.1428571428571</ele><time>2026-05-03T10:11:43.01Z</time></trkpt><trkpt lat="42.3137192" lon="13.7486002"><ele>458.85714285714283</ele><time>2026-05-03T10:11:44.01Z</time></trkpt><trkpt lat="42.3137865" lon="13.7485982"><ele>455.57142857142856</ele><time>2026-05-03T10:11:45.009Z</time></trkpt><trkpt lat="42.313862" lon="13.7485964"><ele>452.2857142857143</ele><time>2026-05-03T10:11:46.009Z</time></trkpt><trkpt lat="42.313939" lon="13.7485931"><ele>449.0</ele><time>2026-05-03T10:11:47.009Z</time></trkpt><trkpt lat="42.3140201" lon="13.7485961"><ele>448.99999999999994</ele><time>2026-05-03T10:11:48.01Z</time></trkpt><trkpt lat="42.3141011" lon="13.7485991"><ele>449.0</ele><time>2026-05-03T10:11:49.009Z</time></trkpt><trkpt lat="42.3141837" lon="13.7485988"><ele>449.0</ele><time>2026-05-03T10:11:50.009Z</time></trkpt><trkpt lat="42.3142693" lon="13.7485977"><ele>449.0</ele><time>2026-05-03T10:11:51.01Z</time></trkpt><trkpt lat="42.3143539" lon="13.7486022"><ele>448.99999999999994</ele><time>2026-05-03T10:11:52.009Z</time></trkpt><trkpt lat="42.3144428" lon="13.7486036"><ele>449.0</ele><time>2026-05-03T10:11:53.01Z</time></trkpt><trkpt lat="42.3145304" lon="13.7486017"><ele>448.99999999999994</ele><time>2026-05-03T10:11:54.009Z</time></trkpt><trkpt lat="42.3146155" lon="13.7486044"><ele>449.0</ele><time>2026-05-03T10:11:55.01Z</time></trkpt><trkpt lat="42.314693" lon="13.7486072"><ele>449.0</ele><time>2026-05-03T10:11:56.01Z</time></trkpt><trkpt lat="42.3147695" lon="13.7486143"><ele>449.0</ele><time>2026-05-03T10:11:57.01Z</time></trkpt><trkpt lat="42.3148513" lon="13.7486189"><ele>448.99999999999994</ele><time>2026-05-03T10:11:58.009Z</time></trkpt><trkpt lat="42.3149431" lon="13.7486202"><ele>449.0</ele><time>2026-05-03T10:11:59.01Z</time></trkpt><trkpt lat="42.3150421" lon="13.7486251"><ele>448.8333333333333</ele><time>2026-05-03T10:12:00.009Z</time></trkpt><trkpt lat="42.3151448" lon="13.7486332"><ele>448.66666666666663</ele><time>2026-05-03T10:12:01.009Z</time></trkpt><trkpt lat="42.315237" lon="13.7486326"><ele>448.5</ele><time>2026-05-03T10:12:02.009Z</time></trkpt><trkpt lat="42.3153163" lon="13.7486246"><ele>448.33333333333337</ele><time>2026-05-03T10:12:03.009Z</time></trkpt><trkpt lat="42.3153896" lon="13.748621"><ele>448.1666666666667</ele><time>2026-05-03T10:12:04.01Z</time></trkpt><trkpt lat="42.3154634" lon="13.7486207"><ele>448.0</ele><time>2026-05-03T10:12:05.01Z</time></trkpt><trkpt lat="42.31554" lon="13.748616"><ele>448.50000000000006</ele><time>2026-05-03T10:12:06.009Z</time></trkpt><trkpt lat="42.3156223" lon="13.7486046"><ele>449.0</ele><time>2026-05-03T10:12:07.009Z</time></trkpt><trkpt lat="42.3157018" lon="13.7485988"><ele>449.5</ele><time>2026-05-03T10:12:08.009Z</time></trkpt><trkpt lat="42.3157788" lon="13.7485996"><ele>450.0</ele><time>2026-05-03T10:12:09.009Z</time></trkpt><trkpt lat="42.3158592" lon="13.7486094"><ele>450.50000000000006</ele><time>2026-05-03T10:12:10.009Z</time></trkpt><trkpt lat="42.3159447" lon="13.7486227"><ele>451.0</ele><time>2026-05-03T10:12:11.009Z</time></trkpt><trkpt lat="42.3160277" lon="13.7486338"><ele>451.0</ele><time>2026-05-03T10:12:12.01Z</time></trkpt><trkpt lat="42.3161006" lon="13.7486447"><ele>451.0</ele><time>2026-05-03T10:12:13.01Z</time></trkpt><trkpt lat="42.3161711" lon="13.7486491"><ele>451.0</ele><time>2026-05-03T10:12:14.01Z</time></trkpt><trkpt lat="42.3162437" lon="13.748656"><ele>451.0</ele><time>2026-05-03T10:12:15.01Z</time></trkpt><trkpt lat="42.3163121" lon="13.7486731"><ele>451.0</ele><time>2026-05-03T10:12:16.009Z</time></trkpt><trkpt lat="42.3163839" lon="13.7487042"><ele>451.0</ele><time>2026-05-03T10:12:17.01Z</time></trkpt><trkpt lat="42.3164513" lon="13.7487506"><ele>451.0</ele><time>2026-05-03T10:12:18.009Z</time></trkpt><trkpt lat="42.316509" lon="13.7487921"><ele>451.85714285714283</ele><time>2026-05-03T10:12:19.01Z</time></trkpt><trkpt lat="42.316561" lon="13.7488422"><ele>452.7142857142858</ele><time>2026-05-03T10:12:20.009Z</time></trkpt><trkpt lat="42.3166061" lon="13.7489017"><ele>453.5714285714286</ele><time>2026-05-03T10:12:21.009Z</time></trkpt><trkpt lat="42.3166527" lon="13.7489642"><ele>454.42857142857144</ele><time>2026-05-03T10:12:22.01Z</time></trkpt><trkpt lat="42.3167451" lon="13.7490773"><ele>455.28571428571433</ele><time>2026-05-03T10:12:24.01Z</time></trkpt><trkpt lat="42.3167901" lon="13.749142"><ele>456.1428571428572</ele><time>2026-05-03T10:12:25.01Z</time></trkpt><trkpt lat="42.3168377" lon="13.7492005"><ele>457.00000000000006</ele><time>2026-05-03T10:12:26.009Z</time></trkpt><trkpt lat="42.3169216" lon="13.7492899"><ele>457.0</ele><time>2026-05-03T10:12:28.01Z</time></trkpt><trkpt lat="42.3169998" lon="13.7493553"><ele>457.00000000000006</ele><time>2026-05-03T10:12:30.009Z</time></trkpt><trkpt lat="42.3171045" lon="13.7494232"><ele>457.00000000000006</ele><time>2026-05-03T10:12:32.01Z</time></trkpt><trkpt lat="42.3171698" lon="13.7494715"><ele>457.0</ele><time>2026-05-03T10:12:33.009Z</time></trkpt><trkpt lat="42.3172419" lon="13.74953"><ele>457.0</ele><time>2026-05-03T10:12:34.01Z</time></trkpt><trkpt lat="42.3173128" lon="13.7495921"><ele>456.20000000000005</ele><time>2026-05-03T10:12:35.01Z</time></trkpt><trkpt lat="42.3173727" lon="13.7496429"><ele>455.40000000000003</ele><time>2026-05-03T10:12:36.009Z</time></trkpt><trkpt lat="42.3174322" lon="13.7496955"><ele>454.59999999999997</ele><time>2026-05-03T10:12:37.009Z</time></trkpt><trkpt lat="42.3175305" lon="13.7497512"><ele>453.79999999999995</ele><time>2026-05-03T10:12:39.01Z</time></trkpt><trkpt lat="42.317627" lon="13.7497843"><ele>453.0</ele><time>2026-05-03T10:12:41.009Z</time></trkpt><trkpt lat="42.3177074" lon="13.7498704"><ele>453.0</ele><time>2026-05-03T10:12:43.01Z</time></trkpt><trkpt lat="42.3178047" lon="13.7499489"><ele>452.99999999999994</ele><time>2026-05-03T10:12:45.009Z</time></trkpt><trkpt lat="42.3179129" lon="13.750022"><ele>452.99999999999994</ele><time>2026-05-03T10:12:47.01Z</time></trkpt><trkpt lat="42.3179689" lon="13.750064"><ele>453.0</ele><time>2026-05-03T10:12:48.009Z</time></trkpt><trkpt lat="42.3180637" lon="13.7501279"><ele>453.0</ele><time>2026-05-03T10:12:50.01Z</time></trkpt><trkpt lat="42.3181271" lon="13.7501534"><ele>452.59999999999997</ele><time>2026-05-03T10:12:52.009Z</time></trkpt><trkpt lat="42.3181848" lon="13.7502301"><ele>452.19999999999993</ele><time>2026-05-03T10:12:56.01Z</time></trkpt><trkpt lat="42.3181227" lon="13.7503038"><ele>451.8</ele><time>2026-05-03T10:12:59.015Z</time></trkpt><trkpt lat="42.3180781" lon="13.7504285"><ele>451.4</ele><time>2026-05-03T10:13:01.01Z</time></trkpt><trkpt lat="42.3179989" lon="13.7505287"><ele>451.0</ele><time>2026-05-03T10:13:03.009Z</time></trkpt><trkpt lat="42.3179369" lon="13.750648"><ele>449.4</ele><time>2026-05-03T10:13:05.009Z</time></trkpt><trkpt lat="42.3178851" lon="13.7507847"><ele>447.8</ele><time>2026-05-03T10:13:07.009Z</time></trkpt><trkpt lat="42.3178211" lon="13.7509147"><ele>446.19999999999993</ele><time>2026-05-03T10:13:09.009Z</time></trkpt><trkpt lat="42.3177501" lon="13.7510572"><ele>444.59999999999997</ele><time>2026-05-03T10:13:11.01Z</time></trkpt><trkpt lat="42.3177148" lon="13.7511327"><ele>443.0</ele><time>2026-05-03T10:13:12.01Z</time></trkpt><trkpt lat="42.3176663" lon="13.7512796"><ele>441.79999999999995</ele><time>2026-05-03T10:13:14.01Z</time></trkpt><trkpt lat="42.3176436" lon="13.7513864"><ele>440.59999999999997</ele><time>2026-05-03T10:13:16.009Z</time></trkpt><trkpt lat="42.3176325" lon="13.7515488"><ele>439.40000000000003</ele><time>2026-05-03T10:13:26.009Z</time></trkpt><trkpt lat="42.3176974" lon="13.7515778"><ele>438.20000000000005</ele><time>2026-05-03T10:13:28.01Z</time></trkpt><trkpt lat="42.3177904" lon="13.7515895"><ele>437.0</ele><time>2026-05-03T10:14:16.01Z</time></trkpt><trkpt lat="42.3179046" lon="13.7515627"><ele>437.0</ele><time>2026-05-03T10:14:18.009Z</time></trkpt><trkpt lat="42.3180385" lon="13.7515083"><ele>437.00000000000006</ele><time>2026-05-03T10:14:20.01Z</time></trkpt><trkpt lat="42.3181155" lon="13.7514705"><ele>437.00000000000006</ele><time>2026-05-03T10:14:21.01Z</time></trkpt><trkpt lat="42.3181988" lon="13.7514278"><ele>437.0</ele><time>2026-05-03T10:14:22.009Z</time></trkpt><trkpt lat="42.3182854" lon="13.7513867"><ele>437.0</ele><time>2026-05-03T10:14:23.01Z</time></trkpt><trkpt lat="42.3183673" lon="13.7513481"><ele>437.6</ele><time>2026-05-03T10:14:24.009Z</time></trkpt><trkpt lat="42.3184653" lon="13.7513205"><ele>438.20000000000005</ele><time>2026-05-03T10:14:25.009Z</time></trkpt><trkpt lat="42.3185719" lon="13.7512941"><ele>438.8</ele><time>2026-05-03T10:14:26.01Z</time></trkpt><trkpt lat="42.3186787" lon="13.7512712"><ele>439.4</ele><time>2026-05-03T10:14:27.01Z</time></trkpt><trkpt lat="42.3187787" lon="13.7512458"><ele>440.0</ele><time>2026-05-03T10:14:28.01Z</time></trkpt><trkpt lat="42.318876" lon="13.751221"><ele>441.2</ele><time>2026-05-03T10:14:29.01Z</time></trkpt><trkpt lat="42.3189717" lon="13.7512167"><ele>442.4</ele><time>2026-05-03T10:14:30.01Z</time></trkpt><trkpt lat="42.3190665" lon="13.751233"><ele>443.6</ele><time>2026-05-03T10:14:31.01Z</time></trkpt><trkpt lat="42.3191646" lon="13.7512607"><ele>444.8</ele><time>2026-05-03T10:14:32.009Z</time></trkpt><trkpt lat="42.3192614" lon="13.7513068"><ele>446.0</ele><time>2026-05-03T10:14:33.009Z</time></trkpt><trkpt lat="42.3193524" lon="13.7513725"><ele>446.0</ele><time>2026-05-03T10:14:34.01Z</time></trkpt><trkpt lat="42.3194346" lon="13.7514508"><ele>446.0</ele><time>2026-05-03T10:14:35.01Z</time></trkpt><trkpt lat="42.3195205" lon="13.7515306"><ele>446.0</ele><time>2026-05-03T10:14:36.01Z</time></trkpt><trkpt lat="42.3196032" lon="13.7516138"><ele>446.0</ele><time>2026-05-03T10:14:37.01Z</time></trkpt><trkpt lat="42.3196835" lon="13.7516933"><ele>446.0</ele><time>2026-05-03T10:14:38.01Z</time></trkpt><trkpt lat="42.3197655" lon="13.7517704"><ele>446.20000000000005</ele><time>2026-05-03T10:14:39.01Z</time></trkpt><trkpt lat="42.3198445" lon="13.7518533"><ele>446.40000000000003</ele><time>2026-05-03T10:14:40.009Z</time></trkpt><trkpt lat="42.319928" lon="13.7519351"><ele>446.6</ele><time>2026-05-03T10:14:41.01Z</time></trkpt><trkpt lat="42.320012" lon="13.7520142"><ele>446.8</ele><time>2026-05-03T10:14:42.009Z</time></trkpt><trkpt lat="42.3201046" lon="13.7520941"><ele>447.0</ele><time>2026-05-03T10:14:43.01Z</time></trkpt><trkpt lat="42.3201992" lon="13.7521791"><ele>447.0</ele><time>2026-05-03T10:14:44.01Z</time></trkpt><trkpt lat="42.3202924" lon="13.7522615"><ele>447.0</ele><time>2026-05-03T10:14:45.009Z</time></trkpt><trkpt lat="42.3203909" lon="13.7523366"><ele>447.0</ele><time>2026-05-03T10:14:46.009Z</time></trkpt><trkpt lat="42.3204955" lon="13.752415"><ele>447.0</ele><time>2026-05-03T10:14:47.009Z</time></trkpt><trkpt lat="42.320597" lon="13.7524933"><ele>448.5</ele><time>2026-05-03T10:14:48.01Z</time></trkpt><trkpt lat="42.320703" lon="13.752567"><ele>450.0</ele><time>2026-05-03T10:14:49.009Z</time></trkpt><trkpt lat="42.3208057" lon="13.7526388"><ele>451.5</ele><time>2026-05-03T10:14:50.01Z</time></trkpt><trkpt lat="42.3209086" lon="13.7527152"><ele>453.0</ele><time>2026-05-03T10:14:51.009Z</time></trkpt><trkpt lat="42.3210071" lon="13.7527951"><ele>453.0</ele><time>2026-05-03T10:14:52.009Z</time></trkpt><trkpt lat="42.3211066" lon="13.7528731"><ele>452.99999999999994</ele><time>2026-05-03T10:14:53.009Z</time></trkpt><trkpt lat="42.321201" lon="13.7529512"><ele>452.99999999999994</ele><time>2026-05-03T10:14:54.009Z</time></trkpt><trkpt lat="42.3212862" lon="13.7530447"><ele>453.0</ele><time>2026-05-03T10:14:55.009Z</time></trkpt><trkpt lat="42.3213502" lon="13.753158"><ele>453.0</ele><time>2026-05-03T10:14:56.01Z</time></trkpt><trkpt lat="42.3214052" lon="13.753282"><ele>454.2</ele><time>2026-05-03T10:14:57.01Z</time></trkpt><trkpt lat="42.3214562" lon="13.7534115"><ele>455.4</ele><time>2026-05-03T10:14:58.01Z</time></trkpt><trkpt lat="42.3215208" lon="13.7535384"><ele>456.59999999999997</ele><time>2026-05-03T10:14:59.009Z</time></trkpt><trkpt lat="42.3216035" lon="13.7536466"><ele>457.79999999999995</ele><time>2026-05-03T10:15:00.009Z</time></trkpt><trkpt lat="42.3216921" lon="13.7537353"><ele>459.0</ele><time>2026-05-03T10:15:01.009Z</time></trkpt><trkpt lat="42.3217873" lon="13.7538207"><ele>459.0</ele><time>2026-05-03T10:15:02.01Z</time></trkpt><trkpt lat="42.3218795" lon="13.7539248"><ele>459.0</ele><time>2026-05-03T10:15:03.01Z</time></trkpt><trkpt lat="42.3219711" lon="13.7540222"><ele>459.0</ele><time>2026-05-03T10:15:04.01Z</time></trkpt><trkpt lat="42.322073" lon="13.7541146"><ele>459.0</ele><time>2026-05-03T10:15:05.009Z</time></trkpt><trkpt lat="42.3221723" lon="13.754201"><ele>459.75</ele><time>2026-05-03T10:15:06.009Z</time></trkpt><trkpt lat="42.3222766" lon="13.7542952"><ele>460.5</ele><time>2026-05-03T10:15:07.009Z</time></trkpt><trkpt lat="42.3223813" lon="13.7543854"><ele>461.25</ele><time>2026-05-03T10:15:08.009Z</time></trkpt><trkpt lat="42.3224876" lon="13.7544692"><ele>462.0</ele><time>2026-05-03T10:15:09.01Z</time></trkpt><trkpt lat="42.322598" lon="13.7545497"><ele>462.0</ele><time>2026-05-03T10:15:10.009Z</time></trkpt><trkpt lat="42.3227053" lon="13.7546335"><ele>462.0</ele><time>2026-05-03T10:15:11.009Z</time></trkpt><trkpt lat="42.3228133" lon="13.7547241"><ele>462.0</ele><time>2026-05-03T10:15:12.009Z</time></trkpt><trkpt lat="42.3229267" lon="13.7548076"><ele>462.0</ele><time>2026-05-03T10:15:13.01Z</time></trkpt><trkpt lat="42.3230348" lon="13.7548951"><ele>462.25</ele><time>2026-05-03T10:15:14.01Z</time></trkpt><trkpt lat="42.3231385" lon="13.7549888"><ele>462.5</ele><time>2026-05-03T10:15:15.01Z</time></trkpt><trkpt lat="42.3232401" lon="13.7550712"><ele>462.75</ele><time>2026-05-03T10:15:16.01Z</time></trkpt><trkpt lat="42.3233448" lon="13.7551478"><ele>463.0</ele><time>2026-05-03T10:15:17.009Z</time></trkpt><trkpt lat="42.3234533" lon="13.7552309"><ele>463.0</ele><time>2026-05-03T10:15:18.009Z</time></trkpt><trkpt lat="42.3235654" lon="13.7553058"><ele>463.0</ele><time>2026-05-03T10:15:19.01Z</time></trkpt><trkpt lat="42.3236729" lon="13.7553664"><ele>463.0</ele><time>2026-05-03T10:15:20.01Z</time></trkpt><trkpt lat="42.3237832" lon="13.7554043"><ele>463.0</ele><time>2026-05-03T10:15:21.009Z</time></trkpt><trkpt lat="42.3238996" lon="13.7554128"><ele>465.25</ele><time>2026-05-03T10:15:22.009Z</time></trkpt><trkpt lat="42.3240119" lon="13.7553926"><ele>467.5</ele><time>2026-05-03T10:15:23.01Z</time></trkpt><trkpt lat="42.3241258" lon="13.7553649"><ele>469.75</ele><time>2026-05-03T10:15:24.01Z</time></trkpt><trkpt lat="42.3242363" lon="13.7553496"><ele>472.0</ele><time>2026-05-03T10:15:25.01Z</time></trkpt><trkpt lat="42.3243461" lon="13.7553535"><ele>472.0</ele><time>2026-05-03T10:15:26.01Z</time></trkpt><trkpt lat="42.3244592" lon="13.7553769"><ele>472.0</ele><time>2026-05-03T10:15:27.009Z</time></trkpt><trkpt lat="42.3245737" lon="13.7554063"><ele>472.0</ele><time>2026-05-03T10:15:28.01Z</time></trkpt><trkpt lat="42.3246866" lon="13.7554327"><ele>472.0</ele><time>2026-05-03T10:15:29.01Z</time></trkpt><trkpt lat="42.3248048" lon="13.7554552"><ele>473.40000000000003</ele><time>2026-05-03T10:15:30.009Z</time></trkpt><trkpt lat="42.324908" lon="13.7554746"><ele>474.80000000000007</ele><time>2026-05-03T10:15:31.01Z</time></trkpt><trkpt lat="42.3250122" lon="13.7554955"><ele>476.2</ele><time>2026-05-03T10:15:32.009Z</time></trkpt><trkpt lat="42.3251005" lon="13.7555286"><ele>477.6</ele><time>2026-05-03T10:15:33.009Z</time></trkpt><trkpt lat="42.3251768" lon="13.7555794"><ele>479.0</ele><time>2026-05-03T10:15:34.009Z</time></trkpt><trkpt lat="42.3252365" lon="13.7556685"><ele>479.0</ele><time>2026-05-03T10:15:35.01Z</time></trkpt><trkpt lat="42.3252714" lon="13.7557799"><ele>479.0</ele><time>2026-05-03T10:15:36.01Z</time></trkpt><trkpt lat="42.3252882" lon="13.7559117"><ele>479.0</ele><time>2026-05-03T10:15:37.009Z</time></trkpt><trkpt lat="42.3252942" lon="13.7560523"><ele>479.0</ele><time>2026-05-03T10:15:38.009Z</time></trkpt><trkpt lat="42.3252938" lon="13.7561978"><ele>479.0</ele><time>2026-05-03T10:15:39.009Z</time></trkpt><trkpt lat="42.325292" lon="13.7563522"><ele>478.79999999999995</ele><time>2026-05-03T10:15:40.01Z</time></trkpt><trkpt lat="42.3252755" lon="13.75649"><ele>478.59999999999997</ele><time>2026-05-03T10:15:41.009Z</time></trkpt><trkpt lat="42.3252311" lon="13.7566152"><ele>478.4</ele><time>2026-05-03T10:15:42.009Z</time></trkpt><trkpt lat="42.3251585" lon="13.7567135"><ele>478.2</ele><time>2026-05-03T10:15:43.01Z</time></trkpt><trkpt lat="42.3250729" lon="13.7567905"><ele>478.0</ele><time>2026-05-03T10:15:44.01Z</time></trkpt><trkpt lat="42.3249905" lon="13.7568708"><ele>480.0</ele><time>2026-05-03T10:15:45.01Z</time></trkpt><trkpt lat="42.3249186" lon="13.756978"><ele>481.99999999999994</ele><time>2026-05-03T10:15:46.01Z</time></trkpt><trkpt lat="42.3248658" lon="13.757109"><ele>483.99999999999994</ele><time>2026-05-03T10:15:47.01Z</time></trkpt><trkpt lat="42.3248342" lon="13.7572463"><ele>486.0</ele><time>2026-05-03T10:15:48.009Z</time></trkpt><trkpt lat="42.324822" lon="13.7573896"><ele>488.0</ele><time>2026-05-03T10:15:49.009Z</time></trkpt><trkpt lat="42.3248207" lon="13.7575339"><ele>488.0</ele><time>2026-05-03T10:15:50.009Z</time></trkpt><trkpt lat="42.3248312" lon="13.7576725"><ele>487.99999999999994</ele><time>2026-05-03T10:15:51.01Z</time></trkpt><trkpt lat="42.3248432" lon="13.7578124"><ele>487.99999999999994</ele><time>2026-05-03T10:15:52.01Z</time></trkpt><trkpt lat="42.3248594" lon="13.7579431"><ele>488.0</ele><time>2026-05-03T10:15:53.01Z</time></trkpt><trkpt lat="42.3248783" lon="13.7580821"><ele>488.0</ele><time>2026-05-03T10:15:54.009Z</time></trkpt><trkpt lat="42.3248981" lon="13.7582028"><ele>488.59999999999997</ele><time>2026-05-03T10:15:55.01Z</time></trkpt><trkpt lat="42.3249119" lon="13.7583054"><ele>489.19999999999993</ele><time>2026-05-03T10:15:56.01Z</time></trkpt><trkpt lat="42.3249326" lon="13.7584588"><ele>489.8</ele><time>2026-05-03T10:15:58.01Z</time></trkpt><trkpt lat="42.3249565" lon="13.7585856"><ele>490.4</ele><time>2026-05-03T10:16:00.01Z</time></trkpt><trkpt lat="42.3249856" lon="13.7587489"><ele>491.0</ele><time>2026-05-03T10:16:02.009Z</time></trkpt><trkpt lat="42.3249962" lon="13.7588498"><ele>490.99999999999994</ele><time>2026-05-03T10:16:03.009Z</time></trkpt><trkpt lat="42.3249931" lon="13.7589604"><ele>491.0</ele><time>2026-05-03T10:16:04.01Z</time></trkpt><trkpt lat="42.3249853" lon="13.7590833"><ele>491.0</ele><time>2026-05-03T10:16:05.01Z</time></trkpt><trkpt lat="42.3249762" lon="13.7591906"><ele>491.0</ele><time>2026-05-03T10:16:06.01Z</time></trkpt><trkpt lat="42.3249633" lon="13.7592909"><ele>490.99999999999994</ele><time>2026-05-03T10:16:07.009Z</time></trkpt><trkpt lat="42.3249609" lon="13.7593905"><ele>491.0</ele><time>2026-05-03T10:16:08.009Z</time></trkpt><trkpt lat="42.3249773" lon="13.7595302"><ele>491.57142857142856</ele><time>2026-05-03T10:16:10.009Z</time></trkpt><trkpt lat="42.3249513" lon="13.7596414"><ele>492.1428571428571</ele><time>2026-05-03T10:16:13.009Z</time></trkpt><trkpt lat="42.3249711" lon="13.7597337"><ele>492.71428571428567</ele><time>2026-05-03T10:16:16.01Z</time></trkpt><trkpt lat="42.3250295" lon="13.7596841"><ele>493.2857142857142</ele><time>2026-05-03T10:16:20.009Z</time></trkpt><trkpt lat="42.325102" lon="13.759616"><ele>493.85714285714283</ele><time>2026-05-03T10:27:03.009Z</time></trkpt><trkpt lat="42.3251634" lon="13.7595766"><ele>494.42857142857133</ele><time>2026-05-03T10:27:05.008Z</time></trkpt><trkpt lat="42.3252084" lon="13.7596433"><ele>494.99999999999994</ele><time>2026-05-03T10:27:08.008Z</time></trkpt><trkpt lat="42.3252656" lon="13.7597575"><ele>495.0</ele><time>2026-05-03T10:27:10.009Z</time></trkpt><trkpt lat="42.3253041" lon="13.7598361"><ele>495.0</ele><time>2026-05-03T10:27:11.008Z</time></trkpt><trkpt lat="42.3253403" lon="13.759912"><ele>495.0</ele><time>2026-05-03T10:27:12.009Z</time></trkpt><trkpt lat="42.3254112" lon="13.7600525"><ele>495.0</ele><time>2026-05-03T10:27:14.008Z</time></trkpt><trkpt lat="42.325456" lon="13.7601316"><ele>495.0</ele><time>2026-05-03T10:27:15.009Z</time></trkpt><trkpt lat="42.3254951" lon="13.7602047"><ele>495.0</ele><time>2026-05-03T10:27:16.009Z</time></trkpt><trkpt lat="42.3255492" lon="13.7603057"><ele>495.8333333333333</ele><time>2026-05-03T10:27:18.008Z</time></trkpt><trkpt lat="42.3255855" lon="13.7603782"><ele>496.66666666666663</ele><time>2026-05-03T10:27:20.008Z</time></trkpt><trkpt lat="42.3255287" lon="13.7604777"><ele>497.5</ele><time>2026-05-03T10:27:23.009Z</time></trkpt><trkpt lat="42.3254212" lon="13.7605103"><ele>498.3333333333333</ele><time>2026-05-03T10:27:25.008Z</time></trkpt><trkpt lat="42.3253476" lon="13.7605164"><ele>499.16666666666663</ele><time>2026-05-03T10:27:26.009Z</time></trkpt><trkpt lat="42.3252743" lon="13.7605202"><ele>500.0</ele><time>2026-05-03T10:27:27.009Z</time></trkpt><trkpt lat="42.3252008" lon="13.7605252"><ele>499.99999999999994</ele><time>2026-05-03T10:27:28.009Z</time></trkpt><trkpt lat="42.3251235" lon="13.7605202"><ele>500.0</ele><time>2026-05-03T10:27:29.009Z</time></trkpt><trkpt lat="42.3250339" lon="13.7605038"><ele>500.0</ele><time>2026-05-03T10:27:31.008Z</time></trkpt><trkpt lat="42.3249663" lon="13.7605739"><ele>500.0</ele><time>2026-05-03T10:27:48.009Z</time></trkpt><trkpt lat="42.3248828" lon="13.7606801"><ele>499.99999999999994</ele><time>2026-05-03T10:27:50.008Z</time></trkpt><trkpt lat="42.3248274" lon="13.7607412"><ele>500.0</ele><time>2026-05-03T10:27:51.008Z</time></trkpt><trkpt lat="42.3247729" lon="13.7607928"><ele>500.0</ele><time>2026-05-03T10:27:52.009Z</time></trkpt><trkpt lat="42.3247014" lon="13.7608418"><ele>500.0</ele><time>2026-05-03T10:27:53.009Z</time></trkpt><trkpt lat="42.3246127" lon="13.7608809"><ele>500.0</ele><time>2026-05-03T10:27:54.009Z</time></trkpt><trkpt lat="42.3245095" lon="13.7608858"><ele>500.0</ele><time>2026-05-03T10:27:55.009Z</time></trkpt><trkpt lat="42.3244112" lon="13.7608686"><ele>500.0</ele><time>2026-05-03T10:27:56.008Z</time></trkpt><trkpt lat="42.3243179" lon="13.7608582"><ele>499.99999999999994</ele><time>2026-05-03T10:27:57.008Z</time></trkpt><trkpt lat="42.3242315" lon="13.7608476"><ele>500.0</ele><time>2026-05-03T10:27:58.008Z</time></trkpt><trkpt lat="42.3241484" lon="13.7608381"><ele>500.0</ele><time>2026-05-03T10:27:59.008Z</time></trkpt><trkpt lat="42.3240654" lon="13.7608285"><ele>500.0</ele><time>2026-05-03T10:28:00.008Z</time></trkpt><trkpt lat="42.3239827" lon="13.7608285"><ele>499.99999999999994</ele><time>2026-05-03T10:28:01.008Z</time></trkpt><trkpt lat="42.323899" lon="13.7608347"><ele>500.0</ele><time>2026-05-03T10:28:02.008Z</time></trkpt><trkpt lat="42.3238084" lon="13.7608354"><ele>499.8333333333333</ele><time>2026-05-03T10:28:03.009Z</time></trkpt><trkpt lat="42.3237145" lon="13.7608292"><ele>499.66666666666663</ele><time>2026-05-03T10:28:04.009Z</time></trkpt><trkpt lat="42.3236224" lon="13.760825"><ele>499.5</ele><time>2026-05-03T10:28:05.008Z</time></trkpt><trkpt lat="42.3235336" lon="13.7608244"><ele>499.33333333333337</ele><time>2026-05-03T10:28:06.009Z</time></trkpt><trkpt lat="42.3234507" lon="13.7608296"><ele>499.1666666666667</ele><time>2026-05-03T10:28:07.009Z</time></trkpt><trkpt lat="42.3233682" lon="13.7608366"><ele>499.0</ele><time>2026-05-03T10:28:08.009Z</time></trkpt><trkpt lat="42.323274" lon="13.7608488"><ele>499.0</ele><time>2026-05-03T10:28:09.009Z</time></trkpt><trkpt lat="42.3231809" lon="13.7608704"><ele>499.0</ele><time>2026-05-03T10:28:10.008Z</time></trkpt><trkpt lat="42.3230828" lon="13.7609055"><ele>499.0</ele><time>2026-05-03T10:28:11.009Z</time></trkpt><trkpt lat="42.3229831" lon="13.7609548"><ele>499.0</ele><time>2026-05-03T10:28:12.008Z</time></trkpt><trkpt lat="42.3228857" lon="13.761014"><ele>499.0</ele><time>2026-05-03T10:28:13.009Z</time></trkpt><trkpt lat="42.322788" lon="13.7610889"><ele>498.5</ele><time>2026-05-03T10:28:14.009Z</time></trkpt><trkpt lat="42.3226828" lon="13.7611664"><ele>498.0</ele><time>2026-05-03T10:28:15.009Z</time></trkpt><trkpt lat="42.3225817" lon="13.7612381"><ele>497.5</ele><time>2026-05-03T10:28:16.008Z</time></trkpt><trkpt lat="42.3224777" lon="13.7613203"><ele>497.0</ele><time>2026-05-03T10:28:17.009Z</time></trkpt><trkpt lat="42.3223695" lon="13.7613932"><ele>497.0</ele><time>2026-05-03T10:28:18.009Z</time></trkpt><trkpt lat="42.32226" lon="13.7614571"><ele>497.00000000000006</ele><time>2026-05-03T10:28:19.008Z</time></trkpt><trkpt lat="42.3221552" lon="13.7615212"><ele>497.00000000000006</ele><time>2026-05-03T10:28:20.009Z</time></trkpt><trkpt lat="42.3220552" lon="13.7615836"><ele>497.0</ele><time>2026-05-03T10:28:21.009Z</time></trkpt><trkpt lat="42.3219617" lon="13.7616444"><ele>497.0</ele><time>2026-05-03T10:28:22.009Z</time></trkpt><trkpt lat="42.3218737" lon="13.7617113"><ele>494.8</ele><time>2026-05-03T10:28:23.009Z</time></trkpt><trkpt lat="42.3217917" lon="13.7617646"><ele>492.6</ele><time>2026-05-03T10:28:24.009Z</time></trkpt><trkpt lat="42.3216799" lon="13.7617991"><ele>490.40000000000003</ele><time>2026-05-03T10:28:26.008Z</time></trkpt><trkpt lat="42.3215734" lon="13.761719"><ele>488.20000000000005</ele><time>2026-05-03T10:28:28.008Z</time></trkpt><trkpt lat="42.3215177" lon="13.7616411"><ele>486.0</ele><time>2026-05-03T10:28:29.009Z</time></trkpt><trkpt lat="42.3214633" lon="13.761553"><ele>486.0</ele><time>2026-05-03T10:28:30.009Z</time></trkpt><trkpt lat="42.3214234" lon="13.7614659"><ele>486.0</ele><time>2026-05-03T10:28:31.009Z</time></trkpt><trkpt lat="42.3214047" lon="13.7613566"><ele>486.0</ele><time>2026-05-03T10:28:32.009Z</time></trkpt><trkpt lat="42.3214" lon="13.7612449"><ele>486.0</ele><time>2026-05-03T10:28:33.008Z</time></trkpt><trkpt lat="42.3213976" lon="13.7611318"><ele>486.0</ele><time>2026-05-03T10:28:34.009Z</time></trkpt><trkpt lat="42.3213816" lon="13.7610301"><ele>486.0</ele><time>2026-05-03T10:28:35.008Z</time></trkpt><trkpt lat="42.3213472" lon="13.7609323"><ele>483.3333333333333</ele><time>2026-05-03T10:28:36.009Z</time></trkpt><trkpt lat="42.3213133" lon="13.7608341"><ele>480.66666666666663</ele><time>2026-05-03T10:28:37.008Z</time></trkpt><trkpt lat="42.321283" lon="13.7607353"><ele>478.0</ele><time>2026-05-03T10:28:38.009Z</time></trkpt><trkpt lat="42.3212603" lon="13.7606412"><ele>475.3333333333333</ele><time>2026-05-03T10:28:39.009Z</time></trkpt><trkpt lat="42.3212333" lon="13.7605075"><ele>472.66666666666663</ele><time>2026-05-03T10:28:41.008Z</time></trkpt><trkpt lat="42.3212124" lon="13.7604131"><ele>470.0</ele><time>2026-05-03T10:28:44.009Z</time></trkpt><trkpt lat="42.3211281" lon="13.7604306"><ele>469.99999999999994</ele><time>2026-05-03T10:28:46.009Z</time></trkpt><trkpt lat="42.3210528" lon="13.7604718"><ele>470.0</ele><time>2026-05-03T10:28:47.008Z</time></trkpt><trkpt lat="42.3209761" lon="13.7605087"><ele>470.0</ele><time>2026-05-03T10:28:48.009Z</time></trkpt><trkpt lat="42.320896" lon="13.7605614"><ele>470.0</ele><time>2026-05-03T10:28:49.008Z</time></trkpt><trkpt lat="42.3208149" lon="13.7606118"><ele>469.99999999999994</ele><time>2026-05-03T10:28:50.009Z</time></trkpt><trkpt lat="42.3207399" lon="13.7606739"><ele>470.0</ele><time>2026-05-03T10:28:51.008Z</time></trkpt><trkpt lat="42.3206676" lon="13.7607349"><ele>469.99999999999994</ele><time>2026-05-03T10:28:52.008Z</time></trkpt><trkpt lat="42.3205918" lon="13.7607825"><ele>470.0</ele><time>2026-05-03T10:28:53.008Z</time></trkpt><trkpt lat="42.3205141" lon="13.7608334"><ele>470.0</ele><time>2026-05-03T10:28:54.009Z</time></trkpt><trkpt lat="42.32044" lon="13.760894"><ele>470.0</ele><time>2026-05-03T10:28:55.008Z</time></trkpt><trkpt lat="42.3203597" lon="13.760961"><ele>469.99999999999994</ele><time>2026-05-03T10:28:56.008Z</time></trkpt><trkpt lat="42.3202806" lon="13.7610376"><ele>470.0</ele><time>2026-05-03T10:28:57.009Z</time></trkpt><trkpt lat="42.3202057" lon="13.7611326"><ele>469.2</ele><time>2026-05-03T10:28:58.008Z</time></trkpt><trkpt lat="42.3201341" lon="13.7612449"><ele>468.4</ele><time>2026-05-03T10:28:59.008Z</time></trkpt><trkpt lat="42.3200549" lon="13.7613506"><ele>467.6</ele><time>2026-05-03T10:29:00.008Z</time></trkpt><trkpt lat="42.3199709" lon="13.7614391"><ele>466.8</ele><time>2026-05-03T10:29:01.009Z</time></trkpt><trkpt lat="42.3198863" lon="13.7615114"><ele>466.0</ele><time>2026-05-03T10:29:02.009Z</time></trkpt><trkpt lat="42.3198035" lon="13.7615845"><ele>465.6</ele><time>2026-05-03T10:29:03.008Z</time></trkpt><trkpt lat="42.3197201" lon="13.7616559"><ele>465.20000000000005</ele><time>2026-05-03T10:29:04.008Z</time></trkpt><trkpt lat="42.3196285" lon="13.7617272"><ele>464.79999999999995</ele><time>2026-05-03T10:29:05.007Z</time></trkpt><trkpt lat="42.3195343" lon="13.7617987"><ele>464.4</ele><time>2026-05-03T10:29:06.007Z</time></trkpt><trkpt lat="42.3194398" lon="13.7618742"><ele>464.0</ele><time>2026-05-03T10:29:07.007Z</time></trkpt><trkpt lat="42.319342" lon="13.7619541"><ele>464.0</ele><time>2026-05-03T10:29:08.007Z</time></trkpt><trkpt lat="42.3192321" lon="13.7620332"><ele>464.0</ele><time>2026-05-03T10:29:09.007Z</time></trkpt><trkpt lat="42.3191231" lon="13.7621157"><ele>464.0</ele><time>2026-05-03T10:29:10.008Z</time></trkpt><trkpt lat="42.3190226" lon="13.7621948"><ele>464.0</ele><time>2026-05-03T10:29:11.008Z</time></trkpt><trkpt lat="42.3189197" lon="13.7622625"><ele>461.5</ele><time>2026-05-03T10:29:12.007Z</time></trkpt><trkpt lat="42.3188182" lon="13.7623407"><ele>459.0</ele><time>2026-05-03T10:29:13.007Z</time></trkpt><trkpt lat="42.3187161" lon="13.7624359"><ele>456.5</ele><time>2026-05-03T10:29:14.007Z</time></trkpt><trkpt lat="42.3186078" lon="13.7625283"><ele>454.0</ele><time>2026-05-03T10:29:15.008Z</time></trkpt><trkpt lat="42.3185019" lon="13.7626177"><ele>454.6</ele><time>2026-05-03T10:29:16.008Z</time></trkpt><trkpt lat="42.3184034" lon="13.7627016"><ele>455.2</ele><time>2026-05-03T10:29:17.007Z</time></trkpt><trkpt lat="42.3183112" lon="13.7627838"><ele>455.80000000000007</ele><time>2026-05-03T10:29:18.008Z</time></trkpt><trkpt lat="42.3182244" lon="13.7628652"><ele>456.40000000000003</ele><time>2026-05-03T10:29:19.007Z</time></trkpt><trkpt lat="42.3181369" lon="13.7629427"><ele>457.0</ele><time>2026-05-03T10:29:20.007Z</time></trkpt><trkpt lat="42.318056" lon="13.76302"><ele>457.0</ele><time>2026-05-03T10:29:21.008Z</time></trkpt><trkpt lat="42.3179708" lon="13.7630935"><ele>457.00000000000006</ele><time>2026-05-03T10:29:22.008Z</time></trkpt><trkpt lat="42.3178782" lon="13.7631726"><ele>457.00000000000006</ele><time>2026-05-03T10:29:23.008Z</time></trkpt><trkpt lat="42.3177827" lon="13.7632515"><ele>457.0</ele><time>2026-05-03T10:29:24.008Z</time></trkpt><trkpt lat="42.3176942" lon="13.7633462"><ele>457.0</ele><time>2026-05-03T10:29:25.008Z</time></trkpt><trkpt lat="42.3176196" lon="13.7634479"><ele>457.5</ele><time>2026-05-03T10:29:26.008Z</time></trkpt><trkpt lat="42.3175511" lon="13.7635643"><ele>458.0</ele><time>2026-05-03T10:29:27.008Z</time></trkpt><trkpt lat="42.3174818" lon="13.7636936"><ele>458.5</ele><time>2026-05-03T10:29:28.007Z</time></trkpt><trkpt lat="42.3173929" lon="13.7638388"><ele>459.0</ele><time>2026-05-03T10:29:29.007Z</time></trkpt><trkpt lat="42.3173001" lon="13.7639961"><ele>457.33333333333337</ele><time>2026-05-03T10:29:30.008Z</time></trkpt><trkpt lat="42.3172073" lon="13.764162"><ele>455.6666666666667</ele><time>2026-05-03T10:29:31.007Z</time></trkpt><trkpt lat="42.3171087" lon="13.7643227"><ele>454.0</ele><time>2026-05-03T10:29:32.007Z</time></trkpt><trkpt lat="42.3170107" lon="13.7644755"><ele>454.0</ele><time>2026-05-03T10:29:33.007Z</time></trkpt><trkpt lat="42.3169134" lon="13.7646219"><ele>454.0</ele><time>2026-05-03T10:29:34.007Z</time></trkpt><trkpt lat="42.3168119" lon="13.7647614"><ele>454.0</ele><time>2026-05-03T10:29:35.008Z</time></trkpt><trkpt lat="42.3167015" lon="13.764895"><ele>454.0</ele><time>2026-05-03T10:29:36.008Z</time></trkpt><trkpt lat="42.3165757" lon="13.7650179"><ele>454.0</ele><time>2026-05-03T10:29:37.007Z</time></trkpt><trkpt lat="42.3164498" lon="13.7651326"><ele>454.0</ele><time>2026-05-03T10:29:38.008Z</time></trkpt><trkpt lat="42.316321" lon="13.7652326"><ele>454.0</ele><time>2026-05-03T10:29:39.007Z</time></trkpt><trkpt lat="42.3162006" lon="13.7653216"><ele>454.0</ele><time>2026-05-03T10:29:40.008Z</time></trkpt><trkpt lat="42.316081" lon="13.7654201"><ele>454.75</ele><time>2026-05-03T10:29:41.007Z</time></trkpt><trkpt lat="42.3159704" lon="13.7655202"><ele>455.5</ele><time>2026-05-03T10:29:42.008Z</time></trkpt><trkpt lat="42.3158795" lon="13.7656429"><ele>456.25</ele><time>2026-05-03T10:29:43.007Z</time></trkpt><trkpt lat="42.3158124" lon="13.7657681"><ele>457.0</ele><time>2026-05-03T10:29:44.008Z</time></trkpt><trkpt lat="42.3157553" lon="13.7659076"><ele>458.0</ele><time>2026-05-03T10:29:45.008Z</time></trkpt><trkpt lat="42.315694" lon="13.7660605"><ele>459.0</ele><time>2026-05-03T10:29:46.007Z</time></trkpt><trkpt lat="42.3156213" lon="13.7662153"><ele>460.0</ele><time>2026-05-03T10:29:47.007Z</time></trkpt><trkpt lat="42.315538" lon="13.7663692"><ele>461.0</ele><time>2026-05-03T10:29:48.007Z</time></trkpt><trkpt lat="42.3154421" lon="13.7665075"><ele>461.0</ele><time>2026-05-03T10:29:49.008Z</time></trkpt><trkpt lat="42.3153369" lon="13.7666256"><ele>461.0</ele><time>2026-05-03T10:29:50.007Z</time></trkpt><trkpt lat="42.3152281" lon="13.7667318"><ele>461.0</ele><time>2026-05-03T10:29:51.008Z</time></trkpt><trkpt lat="42.315114" lon="13.7668302"><ele>461.0</ele><time>2026-05-03T10:29:52.007Z</time></trkpt><trkpt lat="42.3149999" lon="13.7669366"><ele>461.75</ele><time>2026-05-03T10:29:53.008Z</time></trkpt><trkpt lat="42.3148883" lon="13.7670538"><ele>462.5</ele><time>2026-05-03T10:29:54.008Z</time></trkpt><trkpt lat="42.3147872" lon="13.7671794"><ele>463.25</ele><time>2026-05-03T10:29:55.008Z</time></trkpt><trkpt lat="42.3147017" lon="13.7673032"><ele>464.0</ele><time>2026-05-03T10:29:56.008Z</time></trkpt><trkpt lat="42.3146217" lon="13.7674164"><ele>464.0</ele><time>2026-05-03T10:29:57.008Z</time></trkpt><trkpt lat="42.3145541" lon="13.7675149"><ele>464.0</ele><time>2026-05-03T10:29:58.007Z</time></trkpt><trkpt lat="42.3145015" lon="13.767586"><ele>464.0</ele><time>2026-05-03T10:29:59.008Z</time></trkpt><trkpt lat="42.3144183" lon="13.7676503"><ele>464.0</ele><time>2026-05-03T10:30:01.007Z</time></trkpt><trkpt lat="42.3142865" lon="13.7676842"><ele>464.0</ele><time>2026-05-03T10:30:03.008Z</time></trkpt><trkpt lat="42.3142092" lon="13.7677135"><ele>464.8333333333333</ele><time>2026-05-03T10:30:04.008Z</time></trkpt><trkpt lat="42.31414" lon="13.7677565"><ele>465.66666666666663</ele><time>2026-05-03T10:30:05.008Z</time></trkpt><trkpt lat="42.3140703" lon="13.7678222"><ele>466.5</ele><time>2026-05-03T10:30:06.008Z</time></trkpt><trkpt lat="42.3140004" lon="13.7679139"><ele>467.33333333333337</ele><time>2026-05-03T10:30:07.008Z</time></trkpt><trkpt lat="42.3139444" lon="13.7680116"><ele>468.1666666666667</ele><time>2026-05-03T10:30:08.008Z</time></trkpt><trkpt lat="42.313903" lon="13.7681219"><ele>469.0</ele><time>2026-05-03T10:30:09.008Z</time></trkpt><trkpt lat="42.3138624" lon="13.7682308"><ele>464.2</ele><time>2026-05-03T10:30:10.007Z</time></trkpt><trkpt lat="42.3138205" lon="13.7683458"><ele>459.4</ele><time>2026-05-03T10:30:11.008Z</time></trkpt><trkpt lat="42.3137719" lon="13.7684602"><ele>454.6</ele><time>2026-05-03T10:30:12.007Z</time></trkpt><trkpt lat="42.3137125" lon="13.7685683"><ele>449.8</ele><time>2026-05-03T10:30:13.007Z</time></trkpt><trkpt lat="42.3136526" lon="13.7686719"><ele>445.0</ele><time>2026-05-03T10:30:14.008Z</time></trkpt><trkpt lat="42.3135967" lon="13.7687906"><ele>445.0</ele><time>2026-05-03T10:30:15.007Z</time></trkpt><trkpt lat="42.3135494" lon="13.768919"><ele>445.0</ele><time>2026-05-03T10:30:16.007Z</time></trkpt><trkpt lat="42.3135046" lon="13.7690433"><ele>445.0</ele><time>2026-05-03T10:30:17.008Z</time></trkpt><trkpt lat="42.3134524" lon="13.7691741"><ele>445.0</ele><time>2026-05-03T10:30:18.007Z</time></trkpt><trkpt lat="42.3133901" lon="13.7692982"><ele>445.0</ele><time>2026-05-03T10:30:19.008Z</time></trkpt><trkpt lat="42.3133279" lon="13.7694226"><ele>445.5</ele><time>2026-05-03T10:30:20.008Z</time></trkpt><trkpt lat="42.313261" lon="13.7695435"><ele>446.0</ele><time>2026-05-03T10:30:21.008Z</time></trkpt><trkpt lat="42.3131917" lon="13.7696615"><ele>446.5</ele><time>2026-05-03T10:30:22.008Z</time></trkpt><trkpt lat="42.3131006" lon="13.769768"><ele>447.0</ele><time>2026-05-03T10:30:23.007Z</time></trkpt><trkpt lat="42.313" lon="13.7698591"><ele>443.25</ele><time>2026-05-03T10:30:24.008Z</time></trkpt><trkpt lat="42.3128907" lon="13.7699347"><ele>439.5</ele><time>2026-05-03T10:30:25.007Z</time></trkpt><trkpt lat="42.3127801" lon="13.7699966"><ele>435.75</ele><time>2026-05-03T10:30:26.008Z</time></trkpt><trkpt lat="42.3126698" lon="13.7700598"><ele>432.0</ele><time>2026-05-03T10:30:27.007Z</time></trkpt><trkpt lat="42.3125624" lon="13.7701159"><ele>432.0</ele><time>2026-05-03T10:30:28.007Z</time></trkpt><trkpt lat="42.3124454" lon="13.770141"><ele>432.0</ele><time>2026-05-03T10:30:29.008Z</time></trkpt><trkpt lat="42.3123217" lon="13.7701659"><ele>432.0</ele><time>2026-05-03T10:30:30.008Z</time></trkpt><trkpt lat="42.3121844" lon="13.7701909"><ele>432.0</ele><time>2026-05-03T10:30:31.007Z</time></trkpt><trkpt lat="42.3120472" lon="13.7702176"><ele>433.8</ele><time>2026-05-03T10:30:32.008Z</time></trkpt><trkpt lat="42.3119259" lon="13.7702479"><ele>435.6</ele><time>2026-05-03T10:30:33.008Z</time></trkpt><trkpt lat="42.3118273" lon="13.7702686"><ele>437.40000000000003</ele><time>2026-05-03T10:30:34.008Z</time></trkpt><trkpt lat="42.3117346" lon="13.7702866"><ele>439.20000000000005</ele><time>2026-05-03T10:30:35.007Z</time></trkpt><trkpt lat="42.3116533" lon="13.770298"><ele>441.0</ele><time>2026-05-03T10:30:36.008Z</time></trkpt><trkpt lat="42.3115734" lon="13.7703458"><ele>441.0</ele><time>2026-05-03T10:30:37.008Z</time></trkpt><trkpt lat="42.3114829" lon="13.7704249"><ele>441.0</ele><time>2026-05-03T10:30:38.008Z</time></trkpt><trkpt lat="42.3113761" lon="13.7705073"><ele>441.0</ele><time>2026-05-03T10:30:39.007Z</time></trkpt><trkpt lat="42.3112645" lon="13.7705965"><ele>441.0</ele><time>2026-05-03T10:30:40.007Z</time></trkpt><trkpt lat="42.3111663" lon="13.7706855"><ele>440.3333333333333</ele><time>2026-05-03T10:30:41.007Z</time></trkpt><trkpt lat="42.3110845" lon="13.770763"><ele>439.66666666666663</ele><time>2026-05-03T10:30:42.008Z</time></trkpt><trkpt lat="42.311004" lon="13.7708168"><ele>439.0</ele><time>2026-05-03T10:30:43.007Z</time></trkpt><trkpt lat="42.3109262" lon="13.7708329"><ele>438.3333333333333</ele><time>2026-05-03T10:30:44.007Z</time></trkpt><trkpt lat="42.3108397" lon="13.7708308"><ele>437.66666666666663</ele><time>2026-05-03T10:30:45.008Z</time></trkpt><trkpt lat="42.3107525" lon="13.7708081"><ele>437.0</ele><time>2026-05-03T10:30:46.007Z</time></trkpt><trkpt lat="42.3106607" lon="13.7707932"><ele>437.0</ele><time>2026-05-03T10:30:47.007Z</time></trkpt><trkpt lat="42.3105867" lon="13.7707992"><ele>437.00000000000006</ele><time>2026-05-03T10:30:48.008Z</time></trkpt><trkpt lat="42.3105002" lon="13.7708223"><ele>437.00000000000006</ele><time>2026-05-03T10:30:49.007Z</time></trkpt><trkpt lat="42.3103984" lon="13.7708565"><ele>437.0</ele><time>2026-05-03T10:30:50.007Z</time></trkpt><trkpt lat="42.3102891" lon="13.7708887"><ele>437.0</ele><time>2026-05-03T10:30:51.008Z</time></trkpt><trkpt lat="42.31018" lon="13.7709073"><ele>436.40000000000003</ele><time>2026-05-03T10:30:52.007Z</time></trkpt><trkpt lat="42.3100756" lon="13.770921"><ele>435.80000000000007</ele><time>2026-05-03T10:30:53.007Z</time></trkpt><trkpt lat="42.3099722" lon="13.7709438"><ele>435.2</ele><time>2026-05-03T10:30:54.007Z</time></trkpt><trkpt lat="42.3098729" lon="13.7709806"><ele>434.6</ele><time>2026-05-03T10:30:55.007Z</time></trkpt><trkpt lat="42.3097867" lon="13.7710333"><ele>434.0</ele><time>2026-05-03T10:30:56.008Z</time></trkpt><trkpt lat="42.3097193" lon="13.7710901"><ele>436.0</ele><time>2026-05-03T10:30:57.007Z</time></trkpt><trkpt lat="42.3096475" lon="13.771197"><ele>438.0</ele><time>2026-05-03T10:30:59.008Z</time></trkpt><trkpt lat="42.3095947" lon="13.7713152"><ele>440.0</ele><time>2026-05-03T10:31:01.008Z</time></trkpt><trkpt lat="42.3095118" lon="13.7714227"><ele>442.0</ele><time>2026-05-03T10:31:03.008Z</time></trkpt><trkpt lat="42.3094441" lon="13.7714719"><ele>444.0</ele><time>2026-05-03T10:31:04.008Z</time></trkpt><trkpt lat="42.3093663" lon="13.7715277"><ele>444.0</ele><time>2026-05-03T10:31:05.007Z</time></trkpt><trkpt lat="42.3092903" lon="13.7715807"><ele>444.0</ele><time>2026-05-03T10:31:06.007Z</time></trkpt><trkpt lat="42.3092109" lon="13.7716216"><ele>444.0</ele><time>2026-05-03T10:31:07.008Z</time></trkpt><trkpt lat="42.3091353" lon="13.7716604"><ele>444.0</ele><time>2026-05-03T10:31:08.007Z</time></trkpt><trkpt lat="42.3090686" lon="13.7716989"><ele>444.0</ele><time>2026-05-03T10:31:09.008Z</time></trkpt><trkpt lat="42.3090081" lon="13.7717473"><ele>444.0</ele><time>2026-05-03T10:31:10.007Z</time></trkpt><trkpt lat="42.3089506" lon="13.7718107"><ele>443.8333333333333</ele><time>2026-05-03T10:31:11.008Z</time></trkpt><trkpt lat="42.3088995" lon="13.7718851"><ele>443.66666666666663</ele><time>2026-05-03T10:31:12.008Z</time></trkpt><trkpt lat="42.308841" lon="13.7719586"><ele>443.5</ele><time>2026-05-03T10:31:13.008Z</time></trkpt><trkpt lat="42.3087819" lon="13.7720324"><ele>443.3333333333333</ele><time>2026-05-03T10:31:14.008Z</time></trkpt><trkpt lat="42.3087198" lon="13.7721066"><ele>443.16666666666663</ele><time>2026-05-03T10:31:15.008Z</time></trkpt><trkpt lat="42.3086547" lon="13.7721812"><ele>443.0</ele><time>2026-05-03T10:31:16.008Z</time></trkpt><trkpt lat="42.3085853" lon="13.7722571"><ele>443.0</ele><time>2026-05-03T10:31:17.007Z</time></trkpt><trkpt lat="42.3085216" lon="13.7723292"><ele>442.99999999999994</ele><time>2026-05-03T10:31:18.007Z</time></trkpt><trkpt lat="42.3084562" lon="13.7724081"><ele>442.99999999999994</ele><time>2026-05-03T10:31:19.008Z</time></trkpt><trkpt lat="42.3083917" lon="13.7724967"><ele>443.0</ele><time>2026-05-03T10:31:20.007Z</time></trkpt><trkpt lat="42.3083273" lon="13.7725892"><ele>443.0</ele><time>2026-05-03T10:31:21.008Z</time></trkpt><trkpt lat="42.3082633" lon="13.7726842"><ele>443.8333333333333</ele><time>2026-05-03T10:31:22.007Z</time></trkpt><trkpt lat="42.3081997" lon="13.7727763"><ele>444.66666666666663</ele><time>2026-05-03T10:31:23.007Z</time></trkpt><trkpt lat="42.308132" lon="13.7728555"><ele>445.5</ele><time>2026-05-03T10:31:24.007Z</time></trkpt><trkpt lat="42.3080665" lon="13.7729275"><ele>446.33333333333337</ele><time>2026-05-03T10:31:25.007Z</time></trkpt><trkpt lat="42.3080037" lon="13.7729967"><ele>447.1666666666667</ele><time>2026-05-03T10:31:26.008Z</time></trkpt><trkpt lat="42.3079377" lon="13.7730632"><ele>448.0</ele><time>2026-05-03T10:31:27.008Z</time></trkpt><trkpt lat="42.3078696" lon="13.7731343"><ele>446.00000000000006</ele><time>2026-05-03T10:31:28.008Z</time></trkpt><trkpt lat="42.3077977" lon="13.773196"><ele>444.0</ele><time>2026-05-03T10:31:29.007Z</time></trkpt><trkpt lat="42.3077242" lon="13.7732487"><ele>442.0</ele><time>2026-05-03T10:31:30.008Z</time></trkpt><trkpt lat="42.3076553" lon="13.7733067"><ele>440.0</ele><time>2026-05-03T10:31:31.008Z</time></trkpt><trkpt lat="42.3075925" lon="13.7733719"><ele>438.00000000000006</ele><time>2026-05-03T10:31:32.007Z</time></trkpt><trkpt lat="42.3075289" lon="13.7734475"><ele>436.0</ele><time>2026-05-03T10:31:33.007Z</time></trkpt><trkpt lat="42.3074662" lon="13.7735382"><ele>436.0</ele><time>2026-05-03T10:31:34.007Z</time></trkpt><trkpt lat="42.3074" lon="13.7736228"><ele>436.0</ele><time>2026-05-03T10:31:35.008Z</time></trkpt><trkpt lat="42.3073194" lon="13.773705"><ele>436.0</ele><time>2026-05-03T10:31:36.008Z</time></trkpt><trkpt lat="42.307235" lon="13.7737775"><ele>436.0</ele><time>2026-05-03T10:31:37.007Z</time></trkpt><trkpt lat="42.3071505" lon="13.7738482"><ele>436.0</ele><time>2026-05-03T10:31:38.007Z</time></trkpt><trkpt lat="42.3070777" lon="13.7739174"><ele>434.6666666666667</ele><time>2026-05-03T10:31:39.008Z</time></trkpt><trkpt lat="42.3070154" lon="13.773996"><ele>433.33333333333337</ele><time>2026-05-03T10:31:40.008Z</time></trkpt><trkpt lat="42.3069553" lon="13.7740814"><ele>432.0</ele><time>2026-05-03T10:31:41.008Z</time></trkpt><trkpt lat="42.306896" lon="13.7741697"><ele>430.66666666666663</ele><time>2026-05-03T10:31:42.007Z</time></trkpt><trkpt lat="42.3068315" lon="13.7742596"><ele>429.3333333333333</ele><time>2026-05-03T10:31:43.007Z</time></trkpt><trkpt lat="42.3067668" lon="13.7743437"><ele>428.0</ele><time>2026-05-03T10:31:44.008Z</time></trkpt><trkpt lat="42.3067041" lon="13.7744308"><ele>428.0</ele><time>2026-05-03T10:31:45.008Z</time></trkpt><trkpt lat="42.3066423" lon="13.7745224"><ele>427.99999999999994</ele><time>2026-05-03T10:31:46.008Z</time></trkpt><trkpt lat="42.3065823" lon="13.7746234"><ele>427.99999999999994</ele><time>2026-05-03T10:31:47.008Z</time></trkpt><trkpt lat="42.3065297" lon="13.7747374"><ele>428.0</ele><time>2026-05-03T10:31:48.008Z</time></trkpt><trkpt lat="42.3064815" lon="13.7748586"><ele>428.0</ele><time>2026-05-03T10:31:49.008Z</time></trkpt><trkpt lat="42.3064302" lon="13.7749879"><ele>427.2</ele><time>2026-05-03T10:31:50.008Z</time></trkpt><trkpt lat="42.3063846" lon="13.7751275"><ele>426.4</ele><time>2026-05-03T10:31:51.007Z</time></trkpt><trkpt lat="42.3063438" lon="13.7752725"><ele>425.59999999999997</ele><time>2026-05-03T10:31:52.007Z</time></trkpt><trkpt lat="42.3063061" lon="13.7754184"><ele>424.79999999999995</ele><time>2026-05-03T10:31:53.007Z</time></trkpt><trkpt lat="42.3062728" lon="13.7755528"><ele>424.0</ele><time>2026-05-03T10:31:54.008Z</time></trkpt><trkpt lat="42.3062412" lon="13.7756863"><ele>424.0</ele><time>2026-05-03T10:31:55.007Z</time></trkpt><trkpt lat="42.3062086" lon="13.7758227"><ele>424.0</ele><time>2026-05-03T10:31:56.007Z</time></trkpt><trkpt lat="42.3061763" lon="13.7759627"><ele>424.0</ele><time>2026-05-03T10:31:57.007Z</time></trkpt><trkpt lat="42.3061456" lon="13.7761077"><ele>424.0</ele><time>2026-05-03T10:31:58.007Z</time></trkpt><trkpt lat="42.3061172" lon="13.7762487"><ele>424.0</ele><time>2026-05-03T10:31:59.008Z</time></trkpt><trkpt lat="42.306086" lon="13.7763735"><ele>423.79999999999995</ele><time>2026-05-03T10:32:00.008Z</time></trkpt><trkpt lat="42.3060582" lon="13.7764927"><ele>423.59999999999997</ele><time>2026-05-03T10:32:01.008Z</time></trkpt><trkpt lat="42.3060395" lon="13.7766074"><ele>423.4</ele><time>2026-05-03T10:32:02.007Z</time></trkpt><trkpt lat="42.3060379" lon="13.7767065"><ele>423.2</ele><time>2026-05-03T10:32:03.008Z</time></trkpt><trkpt lat="42.3060536" lon="13.7768784"><ele>423.0</ele><time>2026-05-03T10:32:05.008Z</time></trkpt><trkpt lat="42.3060818" lon="13.7769794"><ele>422.79999999999995</ele><time>2026-05-03T10:32:06.008Z</time></trkpt><trkpt lat="42.3061123" lon="13.7770802"><ele>422.6</ele><time>2026-05-03T10:32:07.007Z</time></trkpt><trkpt lat="42.306132" lon="13.7771822"><ele>422.4</ele><time>2026-05-03T10:32:08.007Z</time></trkpt><trkpt lat="42.30612" lon="13.7773432"><ele>422.20000000000005</ele><time>2026-05-03T10:32:10.008Z</time></trkpt><trkpt lat="42.3060646" lon="13.7775009"><ele>422.0</ele><time>2026-05-03T10:32:12.007Z</time></trkpt><trkpt lat="42.3060175" lon="13.7775829"><ele>421.99999999999994</ele><time>2026-05-03T10:32:13.008Z</time></trkpt><trkpt lat="42.3059681" lon="13.7776649"><ele>422.0</ele><time>2026-05-03T10:32:14.007Z</time></trkpt><trkpt lat="42.3059081" lon="13.7777358"><ele>422.0</ele><time>2026-05-03T10:32:15.007Z</time></trkpt><trkpt lat="42.3058417" lon="13.7778086"><ele>422.0</ele><time>2026-05-03T10:32:16.008Z</time></trkpt><trkpt lat="42.3057729" lon="13.7778832"><ele>421.99999999999994</ele><time>2026-05-03T10:32:17.007Z</time></trkpt><trkpt lat="42.3057034" lon="13.7779606"><ele>422.0</ele><time>2026-05-03T10:32:18.007Z</time></trkpt><trkpt lat="42.3056362" lon="13.7780335"><ele>420.49999999999994</ele><time>2026-05-03T10:32:19.008Z</time></trkpt><trkpt lat="42.3055716" lon="13.7780997"><ele>419.0</ele><time>2026-05-03T10:32:20.008Z</time></trkpt><trkpt lat="42.3055044" lon="13.7781627"><ele>417.5</ele><time>2026-05-03T10:32:21.008Z</time></trkpt><trkpt lat="42.3054397" lon="13.7782139"><ele>416.0</ele><time>2026-05-03T10:32:22.008Z</time></trkpt><trkpt lat="42.3053803" lon="13.7782691"><ele>414.49999999999994</ele><time>2026-05-03T10:32:23.007Z</time></trkpt><trkpt lat="42.3053215" lon="13.7783305"><ele>413.0</ele><time>2026-05-03T10:32:24.007Z</time></trkpt><trkpt lat="42.3052605" lon="13.7784039"><ele>412.99999999999994</ele><time>2026-05-03T10:32:25.008Z</time></trkpt><trkpt lat="42.3052014" lon="13.7784787"><ele>413.0</ele><time>2026-05-03T10:32:26.008Z</time></trkpt><trkpt lat="42.3051525" lon="13.778568"><ele>413.0</ele><time>2026-05-03T10:32:27.007Z</time></trkpt><trkpt lat="42.3051063" lon="13.7786707"><ele>413.0</ele><time>2026-05-03T10:32:28.007Z</time></trkpt><trkpt lat="42.3050652" lon="13.7787783"><ele>412.99999999999994</ele><time>2026-05-03T10:32:29.007Z</time></trkpt><trkpt lat="42.3050173" lon="13.7788814"><ele>413.0</ele><time>2026-05-03T10:32:30.007Z</time></trkpt><trkpt lat="42.3049574" lon="13.7789849"><ele>413.2</ele><time>2026-05-03T10:32:31.008Z</time></trkpt><trkpt lat="42.3048847" lon="13.7790952"><ele>413.4</ele><time>2026-05-03T10:32:32.008Z</time></trkpt><trkpt lat="42.3048112" lon="13.7792082"><ele>413.59999999999997</ele><time>2026-05-03T10:32:33.007Z</time></trkpt><trkpt lat="42.3047367" lon="13.7793156"><ele>413.79999999999995</ele><time>2026-05-03T10:32:34.008Z</time></trkpt><trkpt lat="42.3046733" lon="13.7794174"><ele>414.0</ele><time>2026-05-03T10:32:35.008Z</time></trkpt><trkpt lat="42.3046156" lon="13.7795041"><ele>412.6666666666667</ele><time>2026-05-03T10:32:36.008Z</time></trkpt><trkpt lat="42.3045545" lon="13.7795826"><ele>411.33333333333337</ele><time>2026-05-03T10:32:37.008Z</time></trkpt><trkpt lat="42.3044856" lon="13.7796381"><ele>410.0</ele><time>2026-05-03T10:32:38.008Z</time></trkpt><trkpt lat="42.3044112" lon="13.7796865"><ele>408.6666666666667</ele><time>2026-05-03T10:32:39.008Z</time></trkpt><trkpt lat="42.3043348" lon="13.77973"><ele>407.33333333333337</ele><time>2026-05-03T10:32:40.007Z</time></trkpt><trkpt lat="42.304267" lon="13.7797779"><ele>406.0</ele><time>2026-05-03T10:32:41.007Z</time></trkpt><trkpt lat="42.3041981" lon="13.7798391"><ele>406.00000000000006</ele><time>2026-05-03T10:32:42.007Z</time></trkpt><trkpt lat="42.3041286" lon="13.7799126"><ele>406.0</ele><time>2026-05-03T10:32:43.008Z</time></trkpt><trkpt lat="42.3040703" lon="13.7800084"><ele>406.0</ele><time>2026-05-03T10:32:44.008Z</time></trkpt><trkpt lat="42.3040095" lon="13.7800969"><ele>406.0</ele><time>2026-05-03T10:32:45.008Z</time></trkpt><trkpt lat="42.3039546" lon="13.7801642"><ele>406.00000000000006</ele><time>2026-05-03T10:32:46.008Z</time></trkpt><trkpt lat="42.3039009" lon="13.780221"><ele>406.0</ele><time>2026-05-03T10:32:47.008Z</time></trkpt><trkpt lat="42.3038213" lon="13.7802622"><ele>405.4</ele><time>2026-05-03T10:32:49.007Z</time></trkpt><trkpt lat="42.3037383" lon="13.7803899"><ele>404.8</ele><time>2026-05-03T10:32:52.008Z</time></trkpt><trkpt lat="42.3037009" lon="13.7804834"><ele>404.2</ele><time>2026-05-03T10:32:53.007Z</time></trkpt><trkpt lat="42.3036456" lon="13.7805992"><ele>403.59999999999997</ele><time>2026-05-03T10:32:54.008Z</time></trkpt><trkpt lat="42.3035919" lon="13.7807181"><ele>403.0</ele><time>2026-05-03T10:32:55.008Z</time></trkpt><trkpt lat="42.3035529" lon="13.7808335"><ele>403.0</ele><time>2026-05-03T10:32:56.007Z</time></trkpt><trkpt lat="42.3035148" lon="13.780927"><ele>403.0</ele><time>2026-05-03T10:32:57.007Z</time></trkpt><trkpt lat="42.3034566" lon="13.7809964"><ele>403.0</ele><time>2026-05-03T10:32:58.008Z</time></trkpt><trkpt lat="42.3033742" lon="13.7810556"><ele>403.0</ele><time>2026-05-03T10:32:59.007Z</time></trkpt><trkpt lat="42.3032747" lon="13.7811193"><ele>403.0</ele><time>2026-05-03T10:33:00.008Z</time></trkpt><trkpt lat="42.3031852" lon="13.7812124"><ele>404.0</ele><time>2026-05-03T10:33:01.008Z</time></trkpt><trkpt lat="42.303098" lon="13.7813218"><ele>405.0</ele><time>2026-05-03T10:33:02.007Z</time></trkpt><trkpt lat="42.3030151" lon="13.7814394"><ele>406.0</ele><time>2026-05-03T10:33:03.007Z</time></trkpt><trkpt lat="42.3029346" lon="13.7815622"><ele>407.0</ele><time>2026-05-03T10:33:04.008Z</time></trkpt><trkpt lat="42.3028471" lon="13.7816907"><ele>405.0</ele><time>2026-05-03T10:33:05.008Z</time></trkpt><trkpt lat="42.3027656" lon="13.7818197"><ele>403.0</ele><time>2026-05-03T10:33:06.007Z</time></trkpt><trkpt lat="42.3026831" lon="13.7819521"><ele>401.0</ele><time>2026-05-03T10:33:07.007Z</time></trkpt><trkpt lat="42.3026064" lon="13.7820823"><ele>399.0</ele><time>2026-05-03T10:33:08.007Z</time></trkpt><trkpt lat="42.302523" lon="13.7822059"><ele>399.0</ele><time>2026-05-03T10:33:09.007Z</time></trkpt><trkpt lat="42.3024303" lon="13.7822942"><ele>399.0</ele><time>2026-05-03T10:33:10.007Z</time></trkpt><trkpt lat="42.302338" lon="13.7823668"><ele>399.0</ele><time>2026-05-03T10:33:11.008Z</time></trkpt><trkpt lat="42.3022485" lon="13.7824299"><ele>399.0</ele><time>2026-05-03T10:33:12.008Z</time></trkpt><trkpt lat="42.302181" lon="13.7824584"><ele>399.0</ele><time>2026-05-03T10:33:13.008Z</time></trkpt><trkpt lat="42.3021143" lon="13.7823692"><ele>397.5</ele><time>2026-05-03T10:33:16.008Z</time></trkpt><trkpt lat="42.3021085" lon="13.7822703"><ele>396.0</ele><time>2026-05-03T10:33:17.008Z</time></trkpt><trkpt lat="42.3021033" lon="13.7821664"><ele>394.5</ele><time>2026-05-03T10:33:18.008Z</time></trkpt><trkpt lat="42.3020828" lon="13.78205"><ele>393.0</ele><time>2026-05-03T10:33:19.007Z</time></trkpt><trkpt lat="42.3020571" lon="13.7819168"><ele>391.5</ele><time>2026-05-03T10:33:20.007Z</time></trkpt><trkpt lat="42.3020358" lon="13.7817863"><ele>390.0</ele><time>2026-05-03T10:33:21.008Z</time></trkpt><trkpt lat="42.3020108" lon="13.7816509"><ele>388.5</ele><time>2026-05-03T10:33:22.008Z</time></trkpt><trkpt lat="42.3019841" lon="13.7815068"><ele>387.0</ele><time>2026-05-03T10:33:23.007Z</time></trkpt><trkpt lat="42.3019558" lon="13.7813563"><ele>385.5</ele><time>2026-05-03T10:33:24.007Z</time></trkpt><trkpt lat="42.3019344" lon="13.7812035"><ele>384.0</ele><time>2026-05-03T10:33:25.008Z</time></trkpt><trkpt lat="42.3019159" lon="13.7810504"><ele>384.0</ele><time>2026-05-03T10:33:26.008Z</time></trkpt><trkpt lat="42.3018992" lon="13.78091"><ele>384.0</ele><time>2026-05-03T10:33:27.007Z</time></trkpt><trkpt lat="42.3018831" lon="13.7807785"><ele>384.0</ele><time>2026-05-03T10:33:28.008Z</time></trkpt><trkpt lat="42.3018745" lon="13.7806485"><ele>384.0</ele><time>2026-05-03T10:33:29.008Z</time></trkpt><trkpt lat="42.3018686" lon="13.7805345"><ele>384.0</ele><time>2026-05-03T10:33:30.008Z</time></trkpt><trkpt lat="42.3018607" lon="13.7804353"><ele>384.0</ele><time>2026-05-03T10:33:31.007Z</time></trkpt><trkpt lat="42.3018708" lon="13.7803185"><ele>384.0</ele><time>2026-05-03T10:33:33.007Z</time></trkpt><trkpt lat="42.3019405" lon="13.7801995"><ele>384.0</ele><time>2026-05-03T10:33:35.008Z</time></trkpt><trkpt lat="42.3019548" lon="13.7801159"><ele>384.0</ele><time>2026-05-03T10:33:36.007Z</time></trkpt><trkpt lat="42.3019328" lon="13.7800249"><ele>384.0</ele><time>2026-05-03T10:33:37.008Z</time></trkpt><trkpt lat="42.3018805" lon="13.7798986"><ele>384.0</ele><time>2026-05-03T10:33:38.007Z</time></trkpt><trkpt lat="42.3018221" lon="13.7797554"><ele>383.5</ele><time>2026-05-03T10:33:39.008Z</time></trkpt><trkpt lat="42.3017661" lon="13.7795986"><ele>383.0</ele><time>2026-05-03T10:33:40.007Z</time></trkpt><trkpt lat="42.3017109" lon="13.7794363"><ele>382.5</ele><time>2026-05-03T10:33:41.007Z</time></trkpt><trkpt lat="42.3016624" lon="13.7792704"><ele>382.0</ele><time>2026-05-03T10:33:42.007Z</time></trkpt><trkpt lat="42.3016207" lon="13.7791022"><ele>381.25</ele><time>2026-05-03T10:33:43.007Z</time></trkpt><trkpt lat="42.3015787" lon="13.7789402"><ele>380.5</ele><time>2026-05-03T10:33:44.008Z</time></trkpt><trkpt lat="42.3015387" lon="13.7787807"><ele>379.75</ele><time>2026-05-03T10:33:45.008Z</time></trkpt><trkpt lat="42.3014992" lon="13.7786167"><ele>379.0</ele><time>2026-05-03T10:33:46.007Z</time></trkpt><trkpt lat="42.3014673" lon="13.7784613"><ele>378.0</ele><time>2026-05-03T10:33:47.008Z</time></trkpt><trkpt lat="42.3014284" lon="13.7783101"><ele>377.0</ele><time>2026-05-03T10:33:48.008Z</time></trkpt><trkpt lat="42.3013826" lon="13.778168"><ele>376.0</ele><time>2026-05-03T10:33:49.008Z</time></trkpt><trkpt lat="42.3013345" lon="13.7780299"><ele>375.0</ele><time>2026-05-03T10:33:50.008Z</time></trkpt><trkpt lat="42.3012935" lon="13.7778874"><ele>373.8</ele><time>2026-05-03T10:33:51.007Z</time></trkpt><trkpt lat="42.3012607" lon="13.7777574"><ele>372.6</ele><time>2026-05-03T10:33:52.007Z</time></trkpt><trkpt lat="42.3012362" lon="13.7776253"><ele>371.4</ele><time>2026-05-03T10:33:53.008Z</time></trkpt><trkpt lat="42.3012209" lon="13.7774981"><ele>370.2</ele><time>2026-05-03T10:33:54.008Z</time></trkpt><trkpt lat="42.3012174" lon="13.7773715"><ele>369.0</ele><time>2026-05-03T10:33:55.007Z</time></trkpt><trkpt lat="42.3012252" lon="13.777236"><ele>368.6666666666667</ele><time>2026-05-03T10:33:56.008Z</time></trkpt><trkpt lat="42.3012322" lon="13.7771021"><ele>368.3333333333333</ele><time>2026-05-03T10:33:57.007Z</time></trkpt><trkpt lat="42.3012417" lon="13.7769735"><ele>368.0</ele><time>2026-05-03T10:33:58.007Z</time></trkpt><trkpt lat="42.3012418" lon="13.7768604"><ele>367.66666666666663</ele><time>2026-05-03T10:33:59.008Z</time></trkpt><trkpt lat="42.3012218" lon="13.7767602"><ele>367.3333333333333</ele><time>2026-05-03T10:34:00.008Z</time></trkpt><trkpt lat="42.3011809" lon="13.7766603"><ele>367.0</ele><time>2026-05-03T10:34:01.008Z</time></trkpt><trkpt lat="42.3011265" lon="13.7765496"><ele>367.0</ele><time>2026-05-03T10:34:02.007Z</time></trkpt><trkpt lat="42.3010693" lon="13.7764429"><ele>367.0</ele><time>2026-05-03T10:34:03.008Z</time></trkpt><trkpt lat="42.3010034" lon="13.7763553"><ele>367.0</ele><time>2026-05-03T10:34:04.007Z</time></trkpt><trkpt lat="42.3009361" lon="13.7762785"><ele>367.0</ele><time>2026-05-03T10:34:05.008Z</time></trkpt><trkpt lat="42.3008745" lon="13.7762137"><ele>367.0</ele><time>2026-05-03T10:34:06.008Z</time></trkpt><trkpt lat="42.3008215" lon="13.7761234"><ele>367.0</ele><time>2026-05-03T10:34:08.008Z</time></trkpt><trkpt lat="42.3008389" lon="13.775984"><ele>367.5</ele><time>2026-05-03T10:34:10.008Z</time></trkpt><trkpt lat="42.3008507" lon="13.7758988"><ele>368.0</ele><time>2026-05-03T10:34:11.007Z</time></trkpt><trkpt lat="42.3008146" lon="13.7757998"><ele>368.5</ele><time>2026-05-03T10:34:13.008Z</time></trkpt><trkpt lat="42.3007536" lon="13.7757527"><ele>369.0</ele><time>2026-05-03T10:34:14.007Z</time></trkpt><trkpt lat="42.3006906" lon="13.7757054"><ele>369.5</ele><time>2026-05-03T10:34:15.007Z</time></trkpt><trkpt lat="42.3006093" lon="13.7756098"><ele>370.0</ele><time>2026-05-03T10:34:17.007Z</time></trkpt><trkpt lat="42.3005447" lon="13.7755876"><ele>368.3333333333333</ele><time>2026-05-03T10:34:18.008Z</time></trkpt><trkpt lat="42.3004837" lon="13.7755661"><ele>366.66666666666663</ele><time>2026-05-03T10:34:19.007Z</time></trkpt><trkpt lat="42.3004039" lon="13.775429"><ele>365.0</ele><time>2026-05-03T10:34:21.008Z</time></trkpt><trkpt lat="42.3003605" lon="13.775337"><ele>363.3333333333333</ele><time>2026-05-03T10:34:22.008Z</time></trkpt><trkpt lat="42.3003046" lon="13.7752617"><ele>361.6666666666667</ele><time>2026-05-03T10:34:23.008Z</time></trkpt><trkpt lat="42.3002454" lon="13.775196"><ele>360.0</ele><time>2026-05-03T10:34:24.007Z</time></trkpt><trkpt lat="42.300191" lon="13.7751363"><ele>360.0</ele><time>2026-05-03T10:34:25.008Z</time></trkpt><trkpt lat="42.300099" lon="13.7750465"><ele>360.0</ele><time>2026-05-03T10:34:27.007Z</time></trkpt><trkpt lat="42.299988" lon="13.7750456"><ele>360.0</ele><time>2026-05-03T10:34:29.008Z</time></trkpt><trkpt lat="42.2998764" lon="13.775152"><ele>360.0</ele><time>2026-05-03T10:34:31.008Z</time></trkpt><trkpt lat="42.2998102" lon="13.7752436"><ele>359.6666666666667</ele><time>2026-05-03T10:34:32.008Z</time></trkpt><trkpt lat="42.2997449" lon="13.7753205"><ele>359.3333333333333</ele><time>2026-05-03T10:34:33.007Z</time></trkpt><trkpt lat="42.2996759" lon="13.7753911"><ele>359.0</ele><time>2026-05-03T10:34:34.008Z</time></trkpt><trkpt lat="42.2996117" lon="13.7754533"><ele>358.66666666666663</ele><time>2026-05-03T10:34:35.008Z</time></trkpt><trkpt lat="42.299553" lon="13.7754963"><ele>358.3333333333333</ele><time>2026-05-03T10:34:36.007Z</time></trkpt><trkpt lat="42.299443" lon="13.7755419"><ele>358.0</ele><time>2026-05-03T10:34:38.007Z</time></trkpt><trkpt lat="42.2993331" lon="13.7754785"><ele>358.0</ele><time>2026-05-03T10:34:40.008Z</time></trkpt><trkpt lat="42.2992647" lon="13.7754181"><ele>358.0</ele><time>2026-05-03T10:34:41.007Z</time></trkpt><trkpt lat="42.2992019" lon="13.775361"><ele>358.0</ele><time>2026-05-03T10:34:42.008Z</time></trkpt><trkpt lat="42.2991456" lon="13.7753207"><ele>358.0</ele><time>2026-05-03T10:34:43.008Z</time></trkpt><trkpt lat="42.2990515" lon="13.7752772"><ele>358.0</ele><time>2026-05-03T10:34:45.008Z</time></trkpt><trkpt lat="42.298983" lon="13.775329"><ele>358.0</ele><time>2026-05-03T10:34:47.008Z</time></trkpt><trkpt lat="42.2989244" lon="13.775474"><ele>357.59999999999997</ele><time>2026-05-03T10:34:49.008Z</time></trkpt><trkpt lat="42.2988908" lon="13.7755771"><ele>357.2</ele><time>2026-05-03T10:34:50.008Z</time></trkpt><trkpt lat="42.2988551" lon="13.7756916"><ele>356.8</ele><time>2026-05-03T10:34:51.008Z</time></trkpt><trkpt lat="42.2988163" lon="13.7758202"><ele>356.4</ele><time>2026-05-03T10:34:52.007Z</time></trkpt><trkpt lat="42.2987867" lon="13.7759564"><ele>356.0</ele><time>2026-05-03T10:34:53.007Z</time></trkpt><trkpt lat="42.2987577" lon="13.7761001"><ele>356.0</ele><time>2026-05-03T10:34:54.007Z</time></trkpt><trkpt lat="42.2987306" lon="13.7762476"><ele>356.0</ele><time>2026-05-03T10:34:55.008Z</time></trkpt><trkpt lat="42.2987044" lon="13.7764011"><ele>356.0</ele><time>2026-05-03T10:34:56.008Z</time></trkpt><trkpt lat="42.2986783" lon="13.7765567"><ele>356.0</ele><time>2026-05-03T10:34:57.007Z</time></trkpt><trkpt lat="42.2986417" lon="13.776709"><ele>356.25</ele><time>2026-05-03T10:34:58.008Z</time></trkpt><trkpt lat="42.2985971" lon="13.7768566"><ele>356.5</ele><time>2026-05-03T10:34:59.008Z</time></trkpt><trkpt lat="42.2985507" lon="13.777"><ele>356.75</ele><time>2026-05-03T10:35:00.007Z</time></trkpt><trkpt lat="42.2985053" lon="13.777138"><ele>357.0</ele><time>2026-05-03T10:35:01.008Z</time></trkpt><trkpt lat="42.298464" lon="13.7772788"><ele>357.0</ele><time>2026-05-03T10:35:02.008Z</time></trkpt><trkpt lat="42.29843" lon="13.7774124"><ele>357.0</ele><time>2026-05-03T10:35:03.008Z</time></trkpt><trkpt lat="42.2984048" lon="13.7775264"><ele>357.0</ele><time>2026-05-03T10:35:04.008Z</time></trkpt><trkpt lat="42.2983857" lon="13.7776103"><ele>357.0</ele><time>2026-05-03T10:35:05.008Z</time></trkpt><trkpt lat="42.2983412" lon="13.7777196"><ele>357.0</ele><time>2026-05-03T10:35:07.007Z</time></trkpt><trkpt lat="42.2982648" lon="13.7777779"><ele>357.0</ele><time>2026-05-03T10:35:09.008Z</time></trkpt><trkpt lat="42.2982053" lon="13.7778073"><ele>357.0</ele><time>2026-05-03T10:35:10.007Z</time></trkpt><trkpt lat="42.2981432" lon="13.7778523"><ele>357.0</ele><time>2026-05-03T10:35:11.008Z</time></trkpt><trkpt lat="42.2980782" lon="13.7779149"><ele>357.0</ele><time>2026-05-03T10:35:12.007Z</time></trkpt><trkpt lat="42.2980161" lon="13.7779898"><ele>357.0</ele><time>2026-05-03T10:35:13.008Z</time></trkpt><trkpt lat="42.297952" lon="13.7780822"><ele>357.0</ele><time>2026-05-03T10:35:14.008Z</time></trkpt><trkpt lat="42.2978838" lon="13.7781848"><ele>357.0</ele><time>2026-05-03T10:35:15.008Z</time></trkpt><trkpt lat="42.2978083" lon="13.7782838"><ele>356.40000000000003</ele><time>2026-05-03T10:35:16.008Z</time></trkpt><trkpt lat="42.2977294" lon="13.7783808"><ele>355.8</ele><time>2026-05-03T10:35:17.008Z</time></trkpt><trkpt lat="42.2976525" lon="13.7784748"><ele>355.2</ele><time>2026-05-03T10:35:18.007Z</time></trkpt><trkpt lat="42.2975828" lon="13.778564"><ele>354.6</ele><time>2026-05-03T10:35:19.007Z</time></trkpt><trkpt lat="42.2975171" lon="13.7786457"><ele>354.0</ele><time>2026-05-03T10:35:20.007Z</time></trkpt><trkpt lat="42.2974621" lon="13.7787147"><ele>353.6</ele><time>2026-05-03T10:35:21.008Z</time></trkpt><trkpt lat="42.2973827" lon="13.7788013"><ele>353.2</ele><time>2026-05-03T10:35:23.007Z</time></trkpt><trkpt lat="42.2972943" lon="13.7788883"><ele>352.8</ele><time>2026-05-03T10:35:25.008Z</time></trkpt><trkpt lat="42.2972363" lon="13.7789385"><ele>352.40000000000003</ele><time>2026-05-03T10:35:26.007Z</time></trkpt><trkpt lat="42.297165" lon="13.7790032"><ele>352.0</ele><time>2026-05-03T10:35:27.008Z</time></trkpt><trkpt lat="42.2970927" lon="13.779074"><ele>351.8</ele><time>2026-05-03T10:35:28.008Z</time></trkpt><trkpt lat="42.2970152" lon="13.779141"><ele>351.6</ele><time>2026-05-03T10:35:29.008Z</time></trkpt><trkpt lat="42.2969357" lon="13.7792161"><ele>351.40000000000003</ele><time>2026-05-03T10:35:30.008Z</time></trkpt><trkpt lat="42.2968586" lon="13.7793079"><ele>351.20000000000005</ele><time>2026-05-03T10:35:31.007Z</time></trkpt><trkpt lat="42.2967844" lon="13.7793968"><ele>351.0</ele><time>2026-05-03T10:35:32.008Z</time></trkpt><trkpt lat="42.2967201" lon="13.7795057"><ele>351.0</ele><time>2026-05-03T10:35:33.008Z</time></trkpt><trkpt lat="42.2966509" lon="13.7796183"><ele>351.0</ele><time>2026-05-03T10:35:34.008Z</time></trkpt><trkpt lat="42.2965849" lon="13.7797378"><ele>351.0</ele><time>2026-05-03T10:35:35.007Z</time></trkpt><trkpt lat="42.2965147" lon="13.779858"><ele>351.0</ele><time>2026-05-03T10:35:36.008Z</time></trkpt><trkpt lat="42.2964448" lon="13.7799805"><ele>351.0</ele><time>2026-05-03T10:35:37.008Z</time></trkpt><trkpt lat="42.296369" lon="13.7800947"><ele>351.4</ele><time>2026-05-03T10:35:38.007Z</time></trkpt><trkpt lat="42.2962933" lon="13.780203"><ele>351.8</ele><time>2026-05-03T10:35:39.008Z</time></trkpt><trkpt lat="42.2962206" lon="13.7803196"><ele>352.2</ele><time>2026-05-03T10:35:40.007Z</time></trkpt><trkpt lat="42.2961554" lon="13.7804472"><ele>352.59999999999997</ele><time>2026-05-03T10:35:41.007Z</time></trkpt><trkpt lat="42.2961065" lon="13.7805728"><ele>353.0</ele><time>2026-05-03T10:35:42.008Z</time></trkpt><trkpt lat="42.2960493" lon="13.7807006"><ele>353.0</ele><time>2026-05-03T10:35:43.008Z</time></trkpt><trkpt lat="42.2959811" lon="13.7808271"><ele>353.0</ele><time>2026-05-03T10:35:44.008Z</time></trkpt><trkpt lat="42.2959068" lon="13.7809547"><ele>353.0</ele><time>2026-05-03T10:35:45.008Z</time></trkpt><trkpt lat="42.2958237" lon="13.7810872"><ele>353.0</ele><time>2026-05-03T10:35:46.007Z</time></trkpt><trkpt lat="42.2957445" lon="13.781215"><ele>352.75</ele><time>2026-05-03T10:35:47.007Z</time></trkpt><trkpt lat="42.2956662" lon="13.7813461"><ele>352.5</ele><time>2026-05-03T10:35:48.007Z</time></trkpt><trkpt lat="42.2955908" lon="13.7814633"><ele>352.25</ele><time>2026-05-03T10:35:49.007Z</time></trkpt><trkpt lat="42.2955079" lon="13.7815756"><ele>352.0</ele><time>2026-05-03T10:35:50.007Z</time></trkpt><trkpt lat="42.295418" lon="13.7816683"><ele>352.0</ele><time>2026-05-03T10:35:51.008Z</time></trkpt><trkpt lat="42.2953247" lon="13.7817576"><ele>352.0</ele><time>2026-05-03T10:35:52.008Z</time></trkpt><trkpt lat="42.2952241" lon="13.7818471"><ele>352.0</ele><time>2026-05-03T10:35:53.008Z</time></trkpt><trkpt lat="42.2951225" lon="13.7819432"><ele>352.0</ele><time>2026-05-03T10:35:54.007Z</time></trkpt><trkpt lat="42.2950238" lon="13.7820435"><ele>352.0</ele><time>2026-05-03T10:35:55.008Z</time></trkpt><trkpt lat="42.2949241" lon="13.7821463"><ele>352.0</ele><time>2026-05-03T10:35:56.008Z</time></trkpt><trkpt lat="42.294827" lon="13.782256"><ele>352.0</ele><time>2026-05-03T10:35:57.007Z</time></trkpt><trkpt lat="42.2947299" lon="13.7823669"><ele>352.0</ele><time>2026-05-03T10:35:58.007Z</time></trkpt><trkpt lat="42.294633" lon="13.7824839"><ele>351.5</ele><time>2026-05-03T10:35:59.008Z</time></trkpt><trkpt lat="42.294543" lon="13.7826019"><ele>351.0</ele><time>2026-05-03T10:36:00.008Z</time></trkpt><trkpt lat="42.2944539" lon="13.7827187"><ele>350.5</ele><time>2026-05-03T10:36:01.008Z</time></trkpt><trkpt lat="42.2943645" lon="13.7828407"><ele>350.0</ele><time>2026-05-03T10:36:02.007Z</time></trkpt><trkpt lat="42.294274" lon="13.7829655"><ele>350.0</ele><time>2026-05-03T10:36:03.008Z</time></trkpt><trkpt lat="42.2941801" lon="13.7830841"><ele>350.0</ele><time>2026-05-03T10:36:04.008Z</time></trkpt><trkpt lat="42.2940926" lon="13.7832038"><ele>350.0</ele><time>2026-05-03T10:36:05.007Z</time></trkpt><trkpt lat="42.2940097" lon="13.7833276"><ele>350.0</ele><time>2026-05-03T10:36:06.008Z</time></trkpt><trkpt lat="42.2939256" lon="13.7834538"><ele>350.2</ele><time>2026-05-03T10:36:07.008Z</time></trkpt><trkpt lat="42.2938479" lon="13.7835796"><ele>350.4</ele><time>2026-05-03T10:36:08.008Z</time></trkpt><trkpt lat="42.2937767" lon="13.7836897"><ele>350.6</ele><time>2026-05-03T10:36:09.008Z</time></trkpt><trkpt lat="42.2937044" lon="13.7837861"><ele>350.8</ele><time>2026-05-03T10:36:10.008Z</time></trkpt><trkpt lat="42.2936204" lon="13.7838867"><ele>351.0</ele><time>2026-05-03T10:36:11.007Z</time></trkpt><trkpt lat="42.2935252" lon="13.7839927"><ele>351.0</ele><time>2026-05-03T10:36:12.008Z</time></trkpt><trkpt lat="42.2934255" lon="13.784101"><ele>351.0</ele><time>2026-05-03T10:36:13.008Z</time></trkpt><trkpt lat="42.2933244" lon="13.7842055"><ele>351.0</ele><time>2026-05-03T10:36:14.008Z</time></trkpt><trkpt lat="42.2932259" lon="13.7843061"><ele>351.0</ele><time>2026-05-03T10:36:15.007Z</time></trkpt><trkpt lat="42.2931293" lon="13.7844066"><ele>351.25</ele><time>2026-05-03T10:36:16.008Z</time></trkpt><trkpt lat="42.2930291" lon="13.7844962"><ele>351.5</ele><time>2026-05-03T10:36:17.007Z</time></trkpt><trkpt lat="42.2929277" lon="13.7845778"><ele>351.75</ele><time>2026-05-03T10:36:18.008Z</time></trkpt><trkpt lat="42.2928215" lon="13.7846537"><ele>352.0</ele><time>2026-05-03T10:36:19.008Z</time></trkpt><trkpt lat="42.2927125" lon="13.7847232"><ele>352.0</ele><time>2026-05-03T10:36:20.008Z</time></trkpt><trkpt lat="42.2926012" lon="13.7847886"><ele>352.0</ele><time>2026-05-03T10:36:21.007Z</time></trkpt><trkpt lat="42.2924978" lon="13.7848531"><ele>352.0</ele><time>2026-05-03T10:36:22.008Z</time></trkpt><trkpt lat="42.2923883" lon="13.784908"><ele>352.0</ele><time>2026-05-03T10:36:23.008Z</time></trkpt><trkpt lat="42.2922744" lon="13.7849615"><ele>351.5</ele><time>2026-05-03T10:36:24.008Z</time></trkpt><trkpt lat="42.2921557" lon="13.7850092"><ele>351.0</ele><time>2026-05-03T10:36:25.007Z</time></trkpt><trkpt lat="42.2920317" lon="13.7850561"><ele>350.5</ele><time>2026-05-03T10:36:26.008Z</time></trkpt><trkpt lat="42.2919072" lon="13.7851067"><ele>350.0</ele><time>2026-05-03T10:36:27.008Z</time></trkpt><trkpt lat="42.2917868" lon="13.7851685"><ele>350.25</ele><time>2026-05-03T10:36:28.008Z</time></trkpt><trkpt lat="42.2916683" lon="13.7852447"><ele>350.5</ele><time>2026-05-03T10:36:29.008Z</time></trkpt><trkpt lat="42.2915562" lon="13.7853261"><ele>350.75</ele><time>2026-05-03T10:36:30.007Z</time></trkpt><trkpt lat="42.2914438" lon="13.785402"><ele>351.0</ele><time>2026-05-03T10:36:31.008Z</time></trkpt><trkpt lat="42.2913365" lon="13.7854702"><ele>351.0</ele><time>2026-05-03T10:36:32.007Z</time></trkpt><trkpt lat="42.2912299" lon="13.7855374"><ele>351.0</ele><time>2026-05-03T10:36:33.008Z</time></trkpt><trkpt lat="42.2911194" lon="13.785601"><ele>351.0</ele><time>2026-05-03T10:36:34.008Z</time></trkpt><trkpt lat="42.2910107" lon="13.785677"><ele>351.0</ele><time>2026-05-03T10:36:35.008Z</time></trkpt><trkpt lat="42.2909005" lon="13.7857658"><ele>351.0</ele><time>2026-05-03T10:36:36.008Z</time></trkpt><trkpt lat="42.2907862" lon="13.7858571"><ele>351.0</ele><time>2026-05-03T10:36:37.007Z</time></trkpt><trkpt lat="42.2906708" lon="13.7859513"><ele>351.0</ele><time>2026-05-03T10:36:38.008Z</time></trkpt><trkpt lat="42.2905604" lon="13.7860364"><ele>351.0</ele><time>2026-05-03T10:36:39.008Z</time></trkpt><trkpt lat="42.2904581" lon="13.7861198"><ele>351.20000000000005</ele><time>2026-05-03T10:36:40.007Z</time></trkpt><trkpt lat="42.2903632" lon="13.7862021"><ele>351.40000000000003</ele><time>2026-05-03T10:36:41.008Z</time></trkpt><trkpt lat="42.2902774" lon="13.7862766"><ele>351.6</ele><time>2026-05-03T10:36:42.008Z</time></trkpt><trkpt lat="42.2901986" lon="13.786344"><ele>351.8</ele><time>2026-05-03T10:36:43.007Z</time></trkpt><trkpt lat="42.2901186" lon="13.786414"><ele>352.0</ele><time>2026-05-03T10:36:44.008Z</time></trkpt><trkpt lat="42.2900376" lon="13.7864781"><ele>352.0</ele><time>2026-05-03T10:36:45.007Z</time></trkpt><trkpt lat="42.2899502" lon="13.7865395"><ele>352.0</ele><time>2026-05-03T10:36:46.007Z</time></trkpt><trkpt lat="42.2898649" lon="13.7866009"><ele>352.0</ele><time>2026-05-03T10:36:47.007Z</time></trkpt><trkpt lat="42.2897714" lon="13.7866705"><ele>352.0</ele><time>2026-05-03T10:36:48.008Z</time></trkpt><trkpt lat="42.2896781" lon="13.7867423"><ele>352.0</ele><time>2026-05-03T10:36:49.008Z</time></trkpt><trkpt lat="42.2895783" lon="13.7868222"><ele>352.75</ele><time>2026-05-03T10:36:50.007Z</time></trkpt><trkpt lat="42.2894754" lon="13.7869031"><ele>353.5</ele><time>2026-05-03T10:36:51.008Z</time></trkpt><trkpt lat="42.2893737" lon="13.7869834"><ele>354.25</ele><time>2026-05-03T10:36:52.007Z</time></trkpt><trkpt lat="42.2892669" lon="13.7870526"><ele>355.0</ele><time>2026-05-03T10:36:53.007Z</time></trkpt><trkpt lat="42.2891631" lon="13.7871327"><ele>355.0</ele><time>2026-05-03T10:36:54.008Z</time></trkpt><trkpt lat="42.2890625" lon="13.7872235"><ele>355.0</ele><time>2026-05-03T10:36:55.007Z</time></trkpt><trkpt lat="42.2889649" lon="13.7873207"><ele>355.0</ele><time>2026-05-03T10:36:56.007Z</time></trkpt><trkpt lat="42.2888681" lon="13.7874152"><ele>355.0</ele><time>2026-05-03T10:36:57.008Z</time></trkpt><trkpt lat="42.288766" lon="13.7875079"><ele>355.0</ele><time>2026-05-03T10:36:58.008Z</time></trkpt><trkpt lat="42.2886606" lon="13.7875977"><ele>355.0</ele><time>2026-05-03T10:36:59.007Z</time></trkpt><trkpt lat="42.2885555" lon="13.787687"><ele>355.0</ele><time>2026-05-03T10:37:00.008Z</time></trkpt><trkpt lat="42.2884513" lon="13.7877718"><ele>355.0</ele><time>2026-05-03T10:37:01.007Z</time></trkpt><trkpt lat="42.2883449" lon="13.7878525"><ele>356.0</ele><time>2026-05-03T10:37:02.008Z</time></trkpt><trkpt lat="42.2882406" lon="13.7879291"><ele>357.0</ele><time>2026-05-03T10:37:03.008Z</time></trkpt><trkpt lat="42.2881434" lon="13.7879982"><ele>358.0</ele><time>2026-05-03T10:37:04.007Z</time></trkpt><trkpt lat="42.288049" lon="13.788043"><ele>359.0</ele><time>2026-05-03T10:37:05.008Z</time></trkpt><trkpt lat="42.2879454" lon="13.7880709"><ele>360.0</ele><time>2026-05-03T10:37:06.007Z</time></trkpt><trkpt lat="42.2878448" lon="13.7880984"><ele>360.5</ele><time>2026-05-03T10:37:07.008Z</time></trkpt><trkpt lat="42.2877414" lon="13.7881373"><ele>361.0</ele><time>2026-05-03T10:37:08.007Z</time></trkpt><trkpt lat="42.287635" lon="13.7881881"><ele>361.5</ele><time>2026-05-03T10:37:09.007Z</time></trkpt><trkpt lat="42.2875238" lon="13.7882489"><ele>362.0</ele><time>2026-05-03T10:37:10.008Z</time></trkpt><trkpt lat="42.2874146" lon="13.7882964"><ele>362.0</ele><time>2026-05-03T10:37:11.007Z</time></trkpt><trkpt lat="42.2873065" lon="13.7883411"><ele>362.0</ele><time>2026-05-03T10:37:12.008Z</time></trkpt><trkpt lat="42.287213" lon="13.788393"><ele>362.0</ele><time>2026-05-03T10:37:13.007Z</time></trkpt><trkpt lat="42.2871211" lon="13.7884526"><ele>362.0</ele><time>2026-05-03T10:37:14.007Z</time></trkpt><trkpt lat="42.287032" lon="13.7885172"><ele>362.0</ele><time>2026-05-03T10:37:15.008Z</time></trkpt><trkpt lat="42.2869422" lon="13.7885826"><ele>362.0</ele><time>2026-05-03T10:37:16.008Z</time></trkpt><trkpt lat="42.2868576" lon="13.7886392"><ele>362.0</ele><time>2026-05-03T10:37:17.007Z</time></trkpt><trkpt lat="42.2867829" lon="13.7886963"><ele>362.0</ele><time>2026-05-03T10:37:18.007Z</time></trkpt><trkpt lat="42.2867225" lon="13.7887373"><ele>362.0</ele><time>2026-05-03T10:37:19.007Z</time></trkpt><trkpt lat="42.2866268" lon="13.7887859"><ele>362.0</ele><time>2026-05-03T10:37:21.008Z</time></trkpt><trkpt lat="42.2865766" lon="13.7887116"><ele>362.0</ele><time>2026-05-03T10:37:24.008Z</time></trkpt><trkpt lat="42.2865882" lon="13.7885682"><ele>361.20000000000005</ele><time>2026-05-03T10:37:26.008Z</time></trkpt><trkpt lat="42.2865847" lon="13.7884757"><ele>360.4</ele><time>2026-05-03T10:37:27.008Z</time></trkpt><trkpt lat="42.2865652" lon="13.7883541"><ele>359.6</ele><time>2026-05-03T10:37:28.007Z</time></trkpt><trkpt lat="42.2865496" lon="13.7882156"><ele>358.79999999999995</ele><time>2026-05-03T10:37:29.007Z</time></trkpt><trkpt lat="42.286536" lon="13.7880577"><ele>358.0</ele><time>2026-05-03T10:37:30.008Z</time></trkpt><trkpt lat="42.2865136" lon="13.7878742"><ele>356.3333333333333</ele><time>2026-05-03T10:37:31.008Z</time></trkpt><trkpt lat="42.2864895" lon="13.7876682"><ele>354.6666666666667</ele><time>2026-05-03T10:37:32.008Z</time></trkpt><trkpt lat="42.2864685" lon="13.787452"><ele>353.0</ele><time>2026-05-03T10:37:33.007Z</time></trkpt><trkpt lat="42.2864492" lon="13.7872325"><ele>352.0</ele><time>2026-05-03T10:37:34.008Z</time></trkpt><trkpt lat="42.2864198" lon="13.7870099"><ele>351.0</ele><time>2026-05-03T10:37:35.007Z</time></trkpt><trkpt lat="42.2863853" lon="13.7867894"><ele>350.0</ele><time>2026-05-03T10:37:36.008Z</time></trkpt><trkpt lat="42.2863534" lon="13.7865755"><ele>348.0</ele><time>2026-05-03T10:37:37.007Z</time></trkpt><trkpt lat="42.2863223" lon="13.7863632"><ele>346.0</ele><time>2026-05-03T10:37:38.007Z</time></trkpt><trkpt lat="42.2862932" lon="13.7861642"><ele>344.0</ele><time>2026-05-03T10:37:39.008Z</time></trkpt><trkpt lat="42.286267" lon="13.7859751"><ele>343.75</ele><time>2026-05-03T10:37:40.007Z</time></trkpt><trkpt lat="42.2862378" lon="13.7857985"><ele>343.5</ele><time>2026-05-03T10:37:41.007Z</time></trkpt><trkpt lat="42.286215" lon="13.7856255"><ele>343.25</ele><time>2026-05-03T10:37:42.008Z</time></trkpt><trkpt lat="42.2861964" lon="13.7854674"><ele>343.0</ele><time>2026-05-03T10:37:43.008Z</time></trkpt><trkpt lat="42.2861801" lon="13.7853047"><ele>343.0</ele><time>2026-05-03T10:37:44.008Z</time></trkpt><trkpt lat="42.2861589" lon="13.7851375"><ele>343.0</ele><time>2026-05-03T10:37:45.008Z</time></trkpt><trkpt lat="42.2861364" lon="13.784969"><ele>343.0</ele><time>2026-05-03T10:37:46.008Z</time></trkpt><trkpt lat="42.28612" lon="13.7847996"><ele>343.0</ele><time>2026-05-03T10:37:47.007Z</time></trkpt><trkpt lat="42.2860969" lon="13.7846248"><ele>343.0</ele><time>2026-05-03T10:37:48.007Z</time></trkpt><trkpt lat="42.2860752" lon="13.7844389"><ele>343.0</ele><time>2026-05-03T10:37:49.007Z</time></trkpt><trkpt lat="42.2860561" lon="13.7842508"><ele>343.0</ele><time>2026-05-03T10:37:50.008Z</time></trkpt><trkpt lat="42.2860321" lon="13.7840666"><ele>343.0</ele><time>2026-05-03T10:37:51.008Z</time></trkpt><trkpt lat="42.2860081" lon="13.7838767"><ele>343.5</ele><time>2026-05-03T10:37:52.008Z</time></trkpt><trkpt lat="42.2859884" lon="13.7836978"><ele>344.0</ele><time>2026-05-03T10:37:53.007Z</time></trkpt><trkpt lat="42.2859693" lon="13.7835192"><ele>344.5</ele><time>2026-05-03T10:37:54.007Z</time></trkpt><trkpt lat="42.2859519" lon="13.7833334"><ele>345.0</ele><time>2026-05-03T10:37:55.008Z</time></trkpt><trkpt lat="42.2859327" lon="13.7831481"><ele>345.25</ele><time>2026-05-03T10:37:56.007Z</time></trkpt><trkpt lat="42.2859117" lon="13.7829574"><ele>345.5</ele><time>2026-05-03T10:37:57.008Z</time></trkpt><trkpt lat="42.2858887" lon="13.7827684"><ele>345.75</ele><time>2026-05-03T10:37:58.008Z</time></trkpt><trkpt lat="42.2858577" lon="13.7825799"><ele>346.0</ele><time>2026-05-03T10:37:59.008Z</time></trkpt><trkpt lat="42.2858164" lon="13.7823905"><ele>345.5</ele><time>2026-05-03T10:38:00.007Z</time></trkpt><trkpt lat="42.2857594" lon="13.7822055"><ele>345.0</ele><time>2026-05-03T10:38:01.007Z</time></trkpt><trkpt lat="42.2856933" lon="13.782026"><ele>344.5</ele><time>2026-05-03T10:38:02.008Z</time></trkpt><trkpt lat="42.2856211" lon="13.7818452"><ele>344.0</ele><time>2026-05-03T10:38:03.007Z</time></trkpt><trkpt lat="42.285548" lon="13.7816628"><ele>344.0</ele><time>2026-05-03T10:38:04.007Z</time></trkpt><trkpt lat="42.2854756" lon="13.7814807"><ele>344.0</ele><time>2026-05-03T10:38:05.008Z</time></trkpt><trkpt lat="42.2854054" lon="13.7813034"><ele>344.0</ele><time>2026-05-03T10:38:06.007Z</time></trkpt><trkpt lat="42.2853311" lon="13.7811334"><ele>344.0</ele><time>2026-05-03T10:38:07.007Z</time></trkpt><trkpt lat="42.28526" lon="13.7809582"><ele>343.75</ele><time>2026-05-03T10:38:08.007Z</time></trkpt><trkpt lat="42.2851926" lon="13.7807798"><ele>343.5</ele><time>2026-05-03T10:38:09.008Z</time></trkpt><trkpt lat="42.2851205" lon="13.7806036"><ele>343.25</ele><time>2026-05-03T10:38:10.007Z</time></trkpt><trkpt lat="42.2850488" lon="13.7804225"><ele>343.0</ele><time>2026-05-03T10:38:11.008Z</time></trkpt><trkpt lat="42.2849747" lon="13.7802421"><ele>343.0</ele><time>2026-05-03T10:38:12.007Z</time></trkpt><trkpt lat="42.2849005" lon="13.7800631"><ele>343.0</ele><time>2026-05-03T10:38:13.007Z</time></trkpt><trkpt lat="42.2848261" lon="13.7798837"><ele>343.0</ele><time>2026-05-03T10:38:14.007Z</time></trkpt><trkpt lat="42.2847522" lon="13.7797009"><ele>343.0</ele><time>2026-05-03T10:38:15.008Z</time></trkpt><trkpt lat="42.2846805" lon="13.7795168"><ele>343.0</ele><time>2026-05-03T10:38:16.007Z</time></trkpt><trkpt lat="42.2846064" lon="13.7793364"><ele>343.0</ele><time>2026-05-03T10:38:17.008Z</time></trkpt><trkpt lat="42.2845318" lon="13.7791562"><ele>343.0</ele><time>2026-05-03T10:38:18.007Z</time></trkpt><trkpt lat="42.2844583" lon="13.7789758"><ele>343.0</ele><time>2026-05-03T10:38:19.007Z</time></trkpt><trkpt lat="42.2843862" lon="13.7787943"><ele>343.0</ele><time>2026-05-03T10:38:20.007Z</time></trkpt><trkpt lat="42.2843135" lon="13.7786098"><ele>343.3333333333333</ele><time>2026-05-03T10:38:21.008Z</time></trkpt><trkpt lat="42.2842389" lon="13.7784246"><ele>343.6666666666667</ele><time>2026-05-03T10:38:22.008Z</time></trkpt><trkpt lat="42.2841595" lon="13.7782412"><ele>344.0</ele><time>2026-05-03T10:38:23.008Z</time></trkpt><trkpt lat="42.2840785" lon="13.7780558"><ele>344.0</ele><time>2026-05-03T10:38:24.007Z</time></trkpt><trkpt lat="42.2840019" lon="13.7778678"><ele>344.0</ele><time>2026-05-03T10:38:25.008Z</time></trkpt><trkpt lat="42.2839247" lon="13.7776766"><ele>344.0</ele><time>2026-05-03T10:38:26.007Z</time></trkpt><trkpt lat="42.2838476" lon="13.7774874"><ele>344.33333333333337</ele><time>2026-05-03T10:38:27.008Z</time></trkpt><trkpt lat="42.2837709" lon="13.7772955"><ele>344.6666666666667</ele><time>2026-05-03T10:38:28.008Z</time></trkpt><trkpt lat="42.2836943" lon="13.777099"><ele>345.0</ele><time>2026-05-03T10:38:29.007Z</time></trkpt><trkpt lat="42.2836164" lon="13.7769087"><ele>345.0</ele><time>2026-05-03T10:38:30.007Z</time></trkpt><trkpt lat="42.2835352" lon="13.7767201"><ele>345.0</ele><time>2026-05-03T10:38:31.008Z</time></trkpt><trkpt lat="42.283456" lon="13.7765265"><ele>345.0</ele><time>2026-05-03T10:38:32.007Z</time></trkpt><trkpt lat="42.283378" lon="13.7763325"><ele>345.0</ele><time>2026-05-03T10:38:33.008Z</time></trkpt><trkpt lat="42.2833004" lon="13.776142"><ele>345.0</ele><time>2026-05-03T10:38:34.008Z</time></trkpt><trkpt lat="42.2832288" lon="13.7759592"><ele>345.0</ele><time>2026-05-03T10:38:35.008Z</time></trkpt><trkpt lat="42.2831601" lon="13.7757869"><ele>345.0</ele><time>2026-05-03T10:38:36.007Z</time></trkpt><trkpt lat="42.2830888" lon="13.7756144"><ele>345.0</ele><time>2026-05-03T10:38:37.008Z</time></trkpt><trkpt lat="42.2830182" lon="13.7754423"><ele>345.0</ele><time>2026-05-03T10:38:38.008Z</time></trkpt><trkpt lat="42.2829453" lon="13.7752798"><ele>345.0</ele><time>2026-05-03T10:38:39.007Z</time></trkpt><trkpt lat="42.2828673" lon="13.7751316"><ele>345.75</ele><time>2026-05-03T10:38:40.008Z</time></trkpt><trkpt lat="42.2827886" lon="13.7749945"><ele>346.5</ele><time>2026-05-03T10:38:41.008Z</time></trkpt><trkpt lat="42.2826934" lon="13.7748798"><ele>347.25</ele><time>2026-05-03T10:38:42.007Z</time></trkpt><trkpt lat="42.2825823" lon="13.7747826"><ele>348.0</ele><time>2026-05-03T10:38:43.007Z</time></trkpt><trkpt lat="42.2824582" lon="13.7747061"><ele>348.0</ele><time>2026-05-03T10:38:44.008Z</time></trkpt><trkpt lat="42.2823195" lon="13.7746644"><ele>348.0</ele><time>2026-05-03T10:38:45.008Z</time></trkpt><trkpt lat="42.2821776" lon="13.7746297"><ele>348.0</ele><time>2026-05-03T10:38:46.008Z</time></trkpt><trkpt lat="42.2820376" lon="13.7745991"><ele>348.0</ele><time>2026-05-03T10:38:47.008Z</time></trkpt><trkpt lat="42.2819061" lon="13.7745595"><ele>348.25</ele><time>2026-05-03T10:38:48.008Z</time></trkpt><trkpt lat="42.281778" lon="13.7745"><ele>348.5</ele><time>2026-05-03T10:38:49.007Z</time></trkpt><trkpt lat="42.2816609" lon="13.7744214"><ele>348.75</ele><time>2026-05-03T10:38:50.008Z</time></trkpt><trkpt lat="42.281551" lon="13.7743128"><ele>349.0</ele><time>2026-05-03T10:38:51.007Z</time></trkpt><trkpt lat="42.2814515" lon="13.7741936"><ele>349.5</ele><time>2026-05-03T10:38:52.007Z</time></trkpt><trkpt lat="42.2813512" lon="13.7740601"><ele>350.0</ele><time>2026-05-03T10:38:53.008Z</time></trkpt><trkpt lat="42.2812569" lon="13.7739294"><ele>350.5</ele><time>2026-05-03T10:38:54.008Z</time></trkpt><trkpt lat="42.2811678" lon="13.7738182"><ele>351.0</ele><time>2026-05-03T10:38:55.008Z</time></trkpt><trkpt lat="42.281085" lon="13.7737128"><ele>351.0</ele><time>2026-05-03T10:38:56.007Z</time></trkpt><trkpt lat="42.2809986" lon="13.7736123"><ele>351.0</ele><time>2026-05-03T10:38:57.008Z</time></trkpt><trkpt lat="42.2809186" lon="13.7734912"><ele>351.0</ele><time>2026-05-03T10:38:58.007Z</time></trkpt><trkpt lat="42.2808407" lon="13.7733502"><ele>351.0</ele><time>2026-05-03T10:38:59.007Z</time></trkpt><trkpt lat="42.2807578" lon="13.7731897"><ele>351.6666666666667</ele><time>2026-05-03T10:39:00.008Z</time></trkpt><trkpt lat="42.2806679" lon="13.7730166"><ele>352.33333333333337</ele><time>2026-05-03T10:39:01.008Z</time></trkpt><trkpt lat="42.2805706" lon="13.7728338"><ele>353.0</ele><time>2026-05-03T10:39:02.008Z</time></trkpt><trkpt lat="42.2804711" lon="13.7726429"><ele>353.5</ele><time>2026-05-03T10:39:03.007Z</time></trkpt><trkpt lat="42.2803801" lon="13.7724634"><ele>354.0</ele><time>2026-05-03T10:39:04.008Z</time></trkpt><trkpt lat="42.2802836" lon="13.7723147"><ele>354.5</ele><time>2026-05-03T10:39:05.008Z</time></trkpt><trkpt lat="42.2801702" lon="13.7722048"><ele>355.0</ele><time>2026-05-03T10:39:06.008Z</time></trkpt><trkpt lat="42.2800413" lon="13.7721053"><ele>355.0</ele><time>2026-05-03T10:39:07.007Z</time></trkpt><trkpt lat="42.279915" lon="13.7720057"><ele>355.0</ele><time>2026-05-03T10:39:08.007Z</time></trkpt><trkpt lat="42.2798016" lon="13.7718873"><ele>355.0</ele><time>2026-05-03T10:39:09.007Z</time></trkpt><trkpt lat="42.2796953" lon="13.7717424"><ele>355.0</ele><time>2026-05-03T10:39:10.008Z</time></trkpt><trkpt lat="42.279608" lon="13.7715672"><ele>355.66666666666663</ele><time>2026-05-03T10:39:11.008Z</time></trkpt><trkpt lat="42.27954" lon="13.7713655"><ele>356.3333333333333</ele><time>2026-05-03T10:39:12.008Z</time></trkpt><trkpt lat="42.2794683" lon="13.7711527"><ele>357.0</ele><time>2026-05-03T10:39:13.007Z</time></trkpt><trkpt lat="42.2793908" lon="13.7709348"><ele>357.5</ele><time>2026-05-03T10:39:14.008Z</time></trkpt><trkpt lat="42.2793196" lon="13.7707421"><ele>358.0</ele><time>2026-05-03T10:39:15.008Z</time></trkpt><trkpt lat="42.2792575" lon="13.7705698"><ele>358.5</ele><time>2026-05-03T10:39:16.008Z</time></trkpt><trkpt lat="42.2791975" lon="13.7704058"><ele>359.0</ele><time>2026-05-03T10:39:17.007Z</time></trkpt><trkpt lat="42.2791427" lon="13.7702471"><ele>359.5</ele><time>2026-05-03T10:39:18.008Z</time></trkpt><trkpt lat="42.2790861" lon="13.7700914"><ele>360.0</ele><time>2026-05-03T10:39:19.007Z</time></trkpt><trkpt lat="42.2790326" lon="13.7699388"><ele>360.5</ele><time>2026-05-03T10:39:20.008Z</time></trkpt><trkpt lat="42.2789844" lon="13.7697976"><ele>361.0</ele><time>2026-05-03T10:39:21.008Z</time></trkpt><trkpt lat="42.2789389" lon="13.7696671"><ele>360.8333333333333</ele><time>2026-05-03T10:39:22.007Z</time></trkpt><trkpt lat="42.2789004" lon="13.7695556"><ele>360.66666666666663</ele><time>2026-05-03T10:39:23.007Z</time></trkpt><trkpt lat="42.2788738" lon="13.7694716"><ele>360.5</ele><time>2026-05-03T10:39:24.007Z</time></trkpt><trkpt lat="42.2788106" lon="13.7693845"><ele>360.3333333333333</ele><time>2026-05-03T10:39:26.008Z</time></trkpt><trkpt lat="42.2787063" lon="13.7694112"><ele>360.1666666666667</ele><time>2026-05-03T10:39:28.007Z</time></trkpt><trkpt lat="42.2786435" lon="13.7694621"><ele>360.0</ele><time>2026-05-03T10:39:29.008Z</time></trkpt><trkpt lat="42.2785585" lon="13.7695395"><ele>360.0</ele><time>2026-05-03T10:39:30.008Z</time></trkpt><trkpt lat="42.2784724" lon="13.7696364"><ele>360.0</ele><time>2026-05-03T10:39:31.008Z</time></trkpt><trkpt lat="42.2783792" lon="13.7697475"><ele>360.0</ele><time>2026-05-03T10:39:32.008Z</time></trkpt><trkpt lat="42.2782753" lon="13.7698658"><ele>360.0</ele><time>2026-05-03T10:39:33.008Z</time></trkpt><trkpt lat="42.2781673" lon="13.7699857"><ele>359.5</ele><time>2026-05-03T10:39:34.007Z</time></trkpt><trkpt lat="42.2780597" lon="13.7701114"><ele>359.0</ele><time>2026-05-03T10:39:35.007Z</time></trkpt><trkpt lat="42.2779491" lon="13.77024"><ele>358.5</ele><time>2026-05-03T10:39:36.008Z</time></trkpt><trkpt lat="42.2778337" lon="13.7703641"><ele>358.0</ele><time>2026-05-03T10:39:37.008Z</time></trkpt><trkpt lat="42.2777285" lon="13.7704826"><ele>357.0</ele><time>2026-05-03T10:39:38.008Z</time></trkpt><trkpt lat="42.2776174" lon="13.7705937"><ele>356.0</ele><time>2026-05-03T10:39:39.008Z</time></trkpt><trkpt lat="42.2775034" lon="13.7706757"><ele>355.0</ele><time>2026-05-03T10:39:40.007Z</time></trkpt><trkpt lat="42.2773769" lon="13.7707156"><ele>354.0</ele><time>2026-05-03T10:39:41.008Z</time></trkpt><trkpt lat="42.2772326" lon="13.7707164"><ele>352.0</ele><time>2026-05-03T10:39:42.007Z</time></trkpt><trkpt lat="42.2770866" lon="13.7707036"><ele>350.0</ele><time>2026-05-03T10:39:43.008Z</time></trkpt><trkpt lat="42.2769325" lon="13.7706902"><ele>348.0</ele><time>2026-05-03T10:39:44.007Z</time></trkpt><trkpt lat="42.2767737" lon="13.7706769"><ele>348.0</ele><time>2026-05-03T10:39:45.007Z</time></trkpt><trkpt lat="42.276623" lon="13.7706666"><ele>348.0</ele><time>2026-05-03T10:39:46.007Z</time></trkpt><trkpt lat="42.2764771" lon="13.7706451"><ele>348.0</ele><time>2026-05-03T10:39:47.007Z</time></trkpt><trkpt lat="42.276335" lon="13.7706262"><ele>348.0</ele><time>2026-05-03T10:39:48.007Z</time></trkpt><trkpt lat="42.2761936" lon="13.7706078"><ele>347.0</ele><time>2026-05-03T10:39:49.007Z</time></trkpt><trkpt lat="42.2760544" lon="13.770583"><ele>346.0</ele><time>2026-05-03T10:39:50.007Z</time></trkpt><trkpt lat="42.2759173" lon="13.7705589"><ele>345.0</ele><time>2026-05-03T10:39:51.007Z</time></trkpt><trkpt lat="42.2757843" lon="13.7705331"><ele>344.0</ele><time>2026-05-03T10:39:52.007Z</time></trkpt><trkpt lat="42.275658" lon="13.770527"><ele>346.0</ele><time>2026-05-03T10:39:53.007Z</time></trkpt><trkpt lat="42.2755314" lon="13.7705321"><ele>348.0</ele><time>2026-05-03T10:39:54.008Z</time></trkpt><trkpt lat="42.2754093" lon="13.7705508"><ele>350.0</ele><time>2026-05-03T10:39:55.008Z</time></trkpt><trkpt lat="42.2752873" lon="13.7705919"><ele>352.0</ele><time>2026-05-03T10:39:56.008Z</time></trkpt><trkpt lat="42.2751768" lon="13.7706428"><ele>352.0</ele><time>2026-05-03T10:39:57.007Z</time></trkpt><trkpt lat="42.2750763" lon="13.7707011"><ele>352.0</ele><time>2026-05-03T10:39:58.008Z</time></trkpt><trkpt lat="42.2749965" lon="13.7707802"><ele>352.0</ele><time>2026-05-03T10:39:59.007Z</time></trkpt><trkpt lat="42.2749342" lon="13.770874"><ele>352.0</ele><time>2026-05-03T10:40:00.008Z</time></trkpt><trkpt lat="42.2748942" lon="13.7709862"><ele>352.0</ele><time>2026-05-03T10:40:01.007Z</time></trkpt><trkpt lat="42.2748661" lon="13.7711279"><ele>353.0</ele><time>2026-05-03T10:40:02.008Z</time></trkpt><trkpt lat="42.2748335" lon="13.7712702"><ele>354.0</ele><time>2026-05-03T10:40:03.008Z</time></trkpt><trkpt lat="42.2748017" lon="13.7714087"><ele>355.0</ele><time>2026-05-03T10:40:04.008Z</time></trkpt><trkpt lat="42.2747734" lon="13.7715503"><ele>356.0</ele><time>2026-05-03T10:40:05.008Z</time></trkpt><trkpt lat="42.2747429" lon="13.7716986"><ele>357.0</ele><time>2026-05-03T10:40:06.007Z</time></trkpt><trkpt lat="42.27471" lon="13.7718461"><ele>356.25</ele><time>2026-05-03T10:40:07.007Z</time></trkpt><trkpt lat="42.2746759" lon="13.7719952"><ele>355.5</ele><time>2026-05-03T10:40:08.008Z</time></trkpt><trkpt lat="42.2746434" lon="13.7721394"><ele>354.75</ele><time>2026-05-03T10:40:09.008Z</time></trkpt><trkpt lat="42.2746044" lon="13.7722863"><ele>354.0</ele><time>2026-05-03T10:40:10.008Z</time></trkpt><trkpt lat="42.2745619" lon="13.7724246"><ele>354.0</ele><time>2026-05-03T10:40:11.007Z</time></trkpt><trkpt lat="42.2745042" lon="13.7725584"><ele>354.0</ele><time>2026-05-03T10:40:12.008Z</time></trkpt><trkpt lat="42.2744274" lon="13.7726845"><ele>354.0</ele><time>2026-05-03T10:40:13.007Z</time></trkpt><trkpt lat="42.2743454" lon="13.7728078"><ele>354.0</ele><time>2026-05-03T10:40:14.008Z</time></trkpt><trkpt lat="42.2742528" lon="13.7729225"><ele>353.5</ele><time>2026-05-03T10:40:15.007Z</time></trkpt><trkpt lat="42.2741561" lon="13.7730384"><ele>353.0</ele><time>2026-05-03T10:40:16.007Z</time></trkpt><trkpt lat="42.2740612" lon="13.7731544"><ele>352.5</ele><time>2026-05-03T10:40:17.007Z</time></trkpt><trkpt lat="42.2739665" lon="13.7732691"><ele>352.0</ele><time>2026-05-03T10:40:18.007Z</time></trkpt><trkpt lat="42.2738696" lon="13.7733911"><ele>352.5</ele><time>2026-05-03T10:40:19.007Z</time></trkpt><trkpt lat="42.2737734" lon="13.7735051"><ele>353.0</ele><time>2026-05-03T10:40:20.008Z</time></trkpt><trkpt lat="42.2736755" lon="13.7736164"><ele>353.5</ele><time>2026-05-03T10:40:21.007Z</time></trkpt><trkpt lat="42.2735769" lon="13.7737305"><ele>354.0</ele><time>2026-05-03T10:40:22.007Z</time></trkpt><trkpt lat="42.2734769" lon="13.7738449"><ele>354.0</ele><time>2026-05-03T10:40:23.008Z</time></trkpt><trkpt lat="42.2733715" lon="13.7739568"><ele>354.0</ele><time>2026-05-03T10:40:24.008Z</time></trkpt><trkpt lat="42.2732698" lon="13.7740797"><ele>354.0</ele><time>2026-05-03T10:40:25.007Z</time></trkpt><trkpt lat="42.273172" lon="13.7742107"><ele>354.0</ele><time>2026-05-03T10:40:26.008Z</time></trkpt><trkpt lat="42.2730828" lon="13.7743523"><ele>354.75</ele><time>2026-05-03T10:40:27.008Z</time></trkpt><trkpt lat="42.2730038" lon="13.7744971"><ele>355.5</ele><time>2026-05-03T10:40:28.007Z</time></trkpt><trkpt lat="42.2729251" lon="13.774646"><ele>356.25</ele><time>2026-05-03T10:40:29.007Z</time></trkpt><trkpt lat="42.2728405" lon="13.7747924"><ele>357.0</ele><time>2026-05-03T10:40:30.008Z</time></trkpt><trkpt lat="42.2727517" lon="13.7749429"><ele>357.0</ele><time>2026-05-03T10:40:31.008Z</time></trkpt><trkpt lat="42.2726562" lon="13.7750969"><ele>357.0</ele><time>2026-05-03T10:40:32.007Z</time></trkpt><trkpt lat="42.2725626" lon="13.7752448"><ele>357.0</ele><time>2026-05-03T10:40:33.007Z</time></trkpt><trkpt lat="42.2724768" lon="13.7753905"><ele>357.0</ele><time>2026-05-03T10:40:34.008Z</time></trkpt><trkpt lat="42.2724054" lon="13.7755392"><ele>356.75</ele><time>2026-05-03T10:40:35.007Z</time></trkpt><trkpt lat="42.2723419" lon="13.7756863"><ele>356.5</ele><time>2026-05-03T10:40:36.008Z</time></trkpt><trkpt lat="42.2722913" lon="13.7758344"><ele>356.25</ele><time>2026-05-03T10:40:37.007Z</time></trkpt><trkpt lat="42.272263" lon="13.7759837"><ele>356.0</ele><time>2026-05-03T10:40:38.007Z</time></trkpt><trkpt lat="42.2722446" lon="13.7761541"><ele>354.75</ele><time>2026-05-03T10:40:39.008Z</time></trkpt><trkpt lat="42.2722292" lon="13.7763376"><ele>353.5</ele><time>2026-05-03T10:40:40.007Z</time></trkpt><trkpt lat="42.2722094" lon="13.7765356"><ele>352.25</ele><time>2026-05-03T10:40:41.008Z</time></trkpt><trkpt lat="42.2721841" lon="13.7767333"><ele>351.0</ele><time>2026-05-03T10:40:42.008Z</time></trkpt><trkpt lat="42.2721626" lon="13.7769315"><ele>350.25</ele><time>2026-05-03T10:40:43.008Z</time></trkpt><trkpt lat="42.2721403" lon="13.7771259"><ele>349.5</ele><time>2026-05-03T10:40:44.008Z</time></trkpt><trkpt lat="42.2721244" lon="13.7773276"><ele>348.75</ele><time>2026-05-03T10:40:45.008Z</time></trkpt><trkpt lat="42.2721049" lon="13.7775309"><ele>348.0</ele><time>2026-05-03T10:40:46.007Z</time></trkpt><trkpt lat="42.2720874" lon="13.777742"><ele>347.3333333333333</ele><time>2026-05-03T10:40:47.008Z</time></trkpt><trkpt lat="42.2720671" lon="13.7779551"><ele>346.66666666666663</ele><time>2026-05-03T10:40:48.008Z</time></trkpt><trkpt lat="42.2720473" lon="13.7781641"><ele>346.0</ele><time>2026-05-03T10:40:49.008Z</time></trkpt><trkpt lat="42.2720269" lon="13.7783745"><ele>345.0</ele><time>2026-05-03T10:40:50.008Z</time></trkpt><trkpt lat="42.2720077" lon="13.7785865"><ele>344.0</ele><time>2026-05-03T10:40:51.007Z</time></trkpt><trkpt lat="42.2719845" lon="13.7787857"><ele>343.0</ele><time>2026-05-03T10:40:52.007Z</time></trkpt><trkpt lat="42.2719634" lon="13.778977"><ele>343.0</ele><time>2026-05-03T10:40:53.008Z</time></trkpt><trkpt lat="42.2719425" lon="13.7791493"><ele>343.0</ele><time>2026-05-03T10:40:54.008Z</time></trkpt><trkpt lat="42.271919" lon="13.7793148"><ele>343.0</ele><time>2026-05-03T10:40:55.007Z</time></trkpt><trkpt lat="42.2718973" lon="13.779467"><ele>343.0</ele><time>2026-05-03T10:40:56.007Z</time></trkpt><trkpt lat="42.2718668" lon="13.7796142"><ele>342.25</ele><time>2026-05-03T10:40:57.007Z</time></trkpt><trkpt lat="42.2718201" lon="13.7797495"><ele>341.5</ele><time>2026-05-03T10:40:58.008Z</time></trkpt><trkpt lat="42.271756" lon="13.7798733"><ele>340.75</ele><time>2026-05-03T10:40:59.008Z</time></trkpt><trkpt lat="42.2716792" lon="13.780002"><ele>340.0</ele><time>2026-05-03T10:41:00.008Z</time></trkpt><trkpt lat="42.2715887" lon="13.7801363"><ele>340.25</ele><time>2026-05-03T10:41:01.007Z</time></trkpt><trkpt lat="42.2714969" lon="13.7802705"><ele>340.5</ele><time>2026-05-03T10:41:02.008Z</time></trkpt><trkpt lat="42.2714042" lon="13.780404"><ele>340.75</ele><time>2026-05-03T10:41:03.008Z</time></trkpt><trkpt lat="42.2713216" lon="13.7805287"><ele>341.0</ele><time>2026-05-03T10:41:04.008Z</time></trkpt><trkpt lat="42.2712436" lon="13.7806528"><ele>341.0</ele><time>2026-05-03T10:41:05.007Z</time></trkpt><trkpt lat="42.2711703" lon="13.7807678"><ele>341.0</ele><time>2026-05-03T10:41:06.008Z</time></trkpt><trkpt lat="42.2711072" lon="13.7808624"><ele>341.0</ele><time>2026-05-03T10:41:07.008Z</time></trkpt><trkpt lat="42.2710511" lon="13.780938"><ele>341.0</ele><time>2026-05-03T10:41:08.008Z</time></trkpt><trkpt lat="42.2709941" lon="13.7810271"><ele>341.0</ele><time>2026-05-03T10:41:10.008Z</time></trkpt><trkpt lat="42.2709117" lon="13.7811525"><ele>340.0</ele><time>2026-05-03T10:41:13.007Z</time></trkpt><trkpt lat="42.2708494" lon="13.7812402"><ele>339.0</ele><time>2026-05-03T10:41:14.008Z</time></trkpt><trkpt lat="42.2707682" lon="13.7813154"><ele>338.0</ele><time>2026-05-03T10:41:15.008Z</time></trkpt><trkpt lat="42.2706704" lon="13.7813836"><ele>337.0</ele><time>2026-05-03T10:41:16.007Z</time></trkpt><trkpt lat="42.2705531" lon="13.7814382"><ele>336.0</ele><time>2026-05-03T10:41:17.008Z</time></trkpt><trkpt lat="42.270437" lon="13.7815103"><ele>336.0</ele><time>2026-05-03T10:41:18.007Z</time></trkpt><trkpt lat="42.2703236" lon="13.7816031"><ele>336.0</ele><time>2026-05-03T10:41:19.007Z</time></trkpt><trkpt lat="42.2702076" lon="13.7816876"><ele>336.0</ele><time>2026-05-03T10:41:20.008Z</time></trkpt><trkpt lat="42.2700899" lon="13.7817746"><ele>336.0</ele><time>2026-05-03T10:41:21.008Z</time></trkpt><trkpt lat="42.2699771" lon="13.7818557"><ele>335.25</ele><time>2026-05-03T10:41:22.007Z</time></trkpt><trkpt lat="42.2698612" lon="13.7819171"><ele>334.5</ele><time>2026-05-03T10:41:23.007Z</time></trkpt><trkpt lat="42.2697473" lon="13.7819642"><ele>333.75</ele><time>2026-05-03T10:41:24.007Z</time></trkpt><trkpt lat="42.2696341" lon="13.7820004"><ele>333.0</ele><time>2026-05-03T10:41:25.008Z</time></trkpt><trkpt lat="42.2695327" lon="13.7820596"><ele>334.4</ele><time>2026-05-03T10:41:26.007Z</time></trkpt><trkpt lat="42.2694487" lon="13.7821341"><ele>335.79999999999995</ele><time>2026-05-03T10:41:27.007Z</time></trkpt><trkpt lat="42.2693911" lon="13.7822343"><ele>337.2</ele><time>2026-05-03T10:41:28.008Z</time></trkpt><trkpt lat="42.2693528" lon="13.7823434"><ele>338.6</ele><time>2026-05-03T10:41:29.008Z</time></trkpt><trkpt lat="42.2693315" lon="13.7824774"><ele>340.0</ele><time>2026-05-03T10:41:30.007Z</time></trkpt><trkpt lat="42.2693111" lon="13.7826188"><ele>339.8</ele><time>2026-05-03T10:41:31.008Z</time></trkpt><trkpt lat="42.2692895" lon="13.7827671"><ele>339.6</ele><time>2026-05-03T10:41:32.008Z</time></trkpt><trkpt lat="42.2692681" lon="13.7829136"><ele>339.4</ele><time>2026-05-03T10:41:33.008Z</time></trkpt><trkpt lat="42.269242" lon="13.7830611"><ele>339.2</ele><time>2026-05-03T10:41:34.008Z</time></trkpt><trkpt lat="42.2692131" lon="13.7832111"><ele>339.0</ele><time>2026-05-03T10:41:35.008Z</time></trkpt><trkpt lat="42.2691789" lon="13.783365"><ele>339.0</ele><time>2026-05-03T10:41:36.007Z</time></trkpt><trkpt lat="42.2691314" lon="13.7835098"><ele>339.0</ele><time>2026-05-03T10:41:37.008Z</time></trkpt><trkpt lat="42.2690728" lon="13.7836581"><ele>339.0</ele><time>2026-05-03T10:41:38.007Z</time></trkpt><trkpt lat="42.2690142" lon="13.7838014"><ele>339.0</ele><time>2026-05-03T10:41:39.008Z</time></trkpt><trkpt lat="42.2689554" lon="13.7839459"><ele>340.0</ele><time>2026-05-03T10:41:40.008Z</time></trkpt><trkpt lat="42.2688898" lon="13.7840825"><ele>341.0</ele><time>2026-05-03T10:41:41.008Z</time></trkpt><trkpt lat="42.2688191" lon="13.7842186"><ele>342.0</ele><time>2026-05-03T10:41:42.007Z</time></trkpt><trkpt lat="42.2687493" lon="13.7843473"><ele>343.0</ele><time>2026-05-03T10:41:43.008Z</time></trkpt><trkpt lat="42.2686754" lon="13.7844737"><ele>343.0</ele><time>2026-05-03T10:41:44.008Z</time></trkpt><trkpt lat="42.2685958" lon="13.7845906"><ele>343.0</ele><time>2026-05-03T10:41:45.008Z</time></trkpt><trkpt lat="42.2685125" lon="13.7847028"><ele>343.0</ele><time>2026-05-03T10:41:46.008Z</time></trkpt><trkpt lat="42.2684277" lon="13.7848083"><ele>343.0</ele><time>2026-05-03T10:41:47.008Z</time></trkpt><trkpt lat="42.2683397" lon="13.7849128"><ele>343.0</ele><time>2026-05-03T10:41:48.008Z</time></trkpt><trkpt lat="42.2682437" lon="13.7850121"><ele>343.0</ele><time>2026-05-03T10:41:49.007Z</time></trkpt><trkpt lat="42.2681505" lon="13.7851051"><ele>343.0</ele><time>2026-05-03T10:41:50.008Z</time></trkpt><trkpt lat="42.2680557" lon="13.7851971"><ele>343.0</ele><time>2026-05-03T10:41:51.008Z</time></trkpt><trkpt lat="42.2679542" lon="13.7852875"><ele>344.0</ele><time>2026-05-03T10:41:52.007Z</time></trkpt><trkpt lat="42.2678497" lon="13.7853706"><ele>345.0</ele><time>2026-05-03T10:41:53.007Z</time></trkpt><trkpt lat="42.2677429" lon="13.7854618"><ele>346.0</ele><time>2026-05-03T10:41:54.008Z</time></trkpt><trkpt lat="42.2676355" lon="13.7855714"><ele>347.0</ele><time>2026-05-03T10:41:55.007Z</time></trkpt><trkpt lat="42.2675379" lon="13.7856882"><ele>347.0</ele><time>2026-05-03T10:41:56.007Z</time></trkpt><trkpt lat="42.2674429" lon="13.7858019"><ele>347.0</ele><time>2026-05-03T10:41:57.008Z</time></trkpt><trkpt lat="42.2673435" lon="13.7859074"><ele>347.0</ele><time>2026-05-03T10:41:58.007Z</time></trkpt><trkpt lat="42.2672397" lon="13.7860105"><ele>347.0</ele><time>2026-05-03T10:41:59.008Z</time></trkpt><trkpt lat="42.2671355" lon="13.7861177"><ele>347.25</ele><time>2026-05-03T10:42:00.008Z</time></trkpt><trkpt lat="42.2670326" lon="13.7862305"><ele>347.5</ele><time>2026-05-03T10:42:01.008Z</time></trkpt><trkpt lat="42.2669332" lon="13.7863491"><ele>347.75</ele><time>2026-05-03T10:42:02.007Z</time></trkpt><trkpt lat="42.2668366" lon="13.7864901"><ele>348.0</ele><time>2026-05-03T10:42:03.007Z</time></trkpt><trkpt lat="42.2667373" lon="13.7866424"><ele>348.0</ele><time>2026-05-03T10:42:04.007Z</time></trkpt><trkpt lat="42.266636" lon="13.7867908"><ele>348.0</ele><time>2026-05-03T10:42:05.008Z</time></trkpt><trkpt lat="42.2665362" lon="13.7869471"><ele>348.0</ele><time>2026-05-03T10:42:06.008Z</time></trkpt><trkpt lat="42.2664412" lon="13.7871044"><ele>348.6666666666667</ele><time>2026-05-03T10:42:07.007Z</time></trkpt><trkpt lat="42.2663475" lon="13.7872706"><ele>349.33333333333337</ele><time>2026-05-03T10:42:08.008Z</time></trkpt><trkpt lat="42.2662617" lon="13.7874364"><ele>350.0</ele><time>2026-05-03T10:42:09.007Z</time></trkpt><trkpt lat="42.266177" lon="13.7876001"><ele>349.0</ele><time>2026-05-03T10:42:10.007Z</time></trkpt><trkpt lat="42.2660846" lon="13.7877625"><ele>348.0</ele><time>2026-05-03T10:42:11.008Z</time></trkpt><trkpt lat="42.2659899" lon="13.7879192"><ele>347.0</ele><time>2026-05-03T10:42:12.007Z</time></trkpt><trkpt lat="42.2658952" lon="13.7880791"><ele>347.0</ele><time>2026-05-03T10:42:13.008Z</time></trkpt><trkpt lat="42.2657966" lon="13.7882362"><ele>347.0</ele><time>2026-05-03T10:42:14.008Z</time></trkpt><trkpt lat="42.2657041" lon="13.7883973"><ele>347.0</ele><time>2026-05-03T10:42:15.008Z</time></trkpt><trkpt lat="42.2656083" lon="13.7885653"><ele>348.0</ele><time>2026-05-03T10:42:16.008Z</time></trkpt><trkpt lat="42.2655163" lon="13.7887349"><ele>349.0</ele><time>2026-05-03T10:42:17.007Z</time></trkpt><trkpt lat="42.2654273" lon="13.7889114"><ele>350.0</ele><time>2026-05-03T10:42:18.008Z</time></trkpt><trkpt lat="42.2653414" lon="13.7890816"><ele>350.0</ele><time>2026-05-03T10:42:19.007Z</time></trkpt><trkpt lat="42.2652658" lon="13.7892629"><ele>350.0</ele><time>2026-05-03T10:42:20.008Z</time></trkpt><trkpt lat="42.2652062" lon="13.7894564"><ele>350.0</ele><time>2026-05-03T10:42:21.008Z</time></trkpt><trkpt lat="42.2651443" lon="13.7896419"><ele>349.0</ele><time>2026-05-03T10:42:22.008Z</time></trkpt><trkpt lat="42.26508" lon="13.7898296"><ele>348.0</ele><time>2026-05-03T10:42:23.007Z</time></trkpt><trkpt lat="42.265008" lon="13.79002"><ele>347.0</ele><time>2026-05-03T10:42:24.008Z</time></trkpt><trkpt lat="42.264935" lon="13.7902145"><ele>346.33333333333337</ele><time>2026-05-03T10:42:25.008Z</time></trkpt><trkpt lat="42.2648653" lon="13.7904173"><ele>345.6666666666667</ele><time>2026-05-03T10:42:26.008Z</time></trkpt><trkpt lat="42.2647998" lon="13.790624"><ele>345.0</ele><time>2026-05-03T10:42:27.008Z</time></trkpt><trkpt lat="42.2647366" lon="13.7908379"><ele>346.3333333333333</ele><time>2026-05-03T10:42:28.008Z</time></trkpt><trkpt lat="42.2646698" lon="13.791047"><ele>347.66666666666663</ele><time>2026-05-03T10:42:29.007Z</time></trkpt><trkpt lat="42.2646048" lon="13.7912634"><ele>349.0</ele><time>2026-05-03T10:42:30.007Z</time></trkpt><trkpt lat="42.2645396" lon="13.7914702"><ele>349.0</ele><time>2026-05-03T10:42:31.007Z</time></trkpt><trkpt lat="42.2644737" lon="13.7916707"><ele>349.0</ele><time>2026-05-03T10:42:32.007Z</time></trkpt><trkpt lat="42.2644103" lon="13.7918735"><ele>349.0</ele><time>2026-05-03T10:42:33.007Z</time></trkpt><trkpt lat="42.2643527" lon="13.792082"><ele>348.0</ele><time>2026-05-03T10:42:34.007Z</time></trkpt><trkpt lat="42.2643042" lon="13.7922939"><ele>347.0</ele><time>2026-05-03T10:42:35.007Z</time></trkpt><trkpt lat="42.2642526" lon="13.792506"><ele>346.0</ele><time>2026-05-03T10:42:36.008Z</time></trkpt><trkpt lat="42.2641978" lon="13.7927152"><ele>345.3333333333333</ele><time>2026-05-03T10:42:37.007Z</time></trkpt><trkpt lat="42.2641378" lon="13.7929196"><ele>344.6666666666667</ele><time>2026-05-03T10:42:38.007Z</time></trkpt><trkpt lat="42.2640757" lon="13.7931216"><ele>344.0</ele><time>2026-05-03T10:42:39.007Z</time></trkpt><trkpt lat="42.2640101" lon="13.7933202"><ele>344.5</ele><time>2026-05-03T10:42:40.007Z</time></trkpt><trkpt lat="42.2639453" lon="13.7935087"><ele>345.0</ele><time>2026-05-03T10:42:41.007Z</time></trkpt><trkpt lat="42.2638825" lon="13.793684"><ele>345.5</ele><time>2026-05-03T10:42:42.008Z</time></trkpt><trkpt lat="42.263824" lon="13.7938614"><ele>346.0</ele><time>2026-05-03T10:42:43.007Z</time></trkpt><trkpt lat="42.2637731" lon="13.7940264"><ele>346.0</ele><time>2026-05-03T10:42:44.008Z</time></trkpt><trkpt lat="42.263717" lon="13.7941902"><ele>346.0</ele><time>2026-05-03T10:42:45.008Z</time></trkpt><trkpt lat="42.2636505" lon="13.7943501"><ele>346.0</ele><time>2026-05-03T10:42:46.008Z</time></trkpt><trkpt lat="42.2635664" lon="13.7945045"><ele>346.0</ele><time>2026-05-03T10:42:47.008Z</time></trkpt><trkpt lat="42.2634747" lon="13.794656"><ele>344.66666666666663</ele><time>2026-05-03T10:42:48.008Z</time></trkpt><trkpt lat="42.2633769" lon="13.7948134"><ele>343.3333333333333</ele><time>2026-05-03T10:42:49.008Z</time></trkpt><trkpt lat="42.2632773" lon="13.7949717"><ele>342.0</ele><time>2026-05-03T10:42:50.007Z</time></trkpt><trkpt lat="42.2631814" lon="13.7951356"><ele>343.0</ele><time>2026-05-03T10:42:51.007Z</time></trkpt><trkpt lat="42.2630895" lon="13.7952985"><ele>344.0</ele><time>2026-05-03T10:42:52.008Z</time></trkpt><trkpt lat="42.2630064" lon="13.7954507"><ele>345.0</ele><time>2026-05-03T10:42:53.008Z</time></trkpt><trkpt lat="42.2629234" lon="13.7955835"><ele>346.0</ele><time>2026-05-03T10:42:54.007Z</time></trkpt><trkpt lat="42.2628434" lon="13.7957129"><ele>346.0</ele><time>2026-05-03T10:42:55.007Z</time></trkpt><trkpt lat="42.2627696" lon="13.7958344"><ele>346.0</ele><time>2026-05-03T10:42:56.008Z</time></trkpt><trkpt lat="42.2627044" lon="13.7959386"><ele>346.0</ele><time>2026-05-03T10:42:57.008Z</time></trkpt><trkpt lat="42.2626465" lon="13.7960305"><ele>346.0</ele><time>2026-05-03T10:42:58.007Z</time></trkpt><trkpt lat="42.2626049" lon="13.7961027"><ele>346.0</ele><time>2026-05-03T10:42:59.008Z</time></trkpt><trkpt lat="42.2625628" lon="13.7961934"><ele>345.6</ele><time>2026-05-03T10:43:01.008Z</time></trkpt><trkpt lat="42.2625873" lon="13.7963028"><ele>345.20000000000005</ele><time>2026-05-03T10:43:05.007Z</time></trkpt><trkpt lat="42.2626824" lon="13.7963396"><ele>344.79999999999995</ele><time>2026-05-03T10:43:07.008Z</time></trkpt><trkpt lat="42.2627635" lon="13.7963461"><ele>344.4</ele><time>2026-05-03T10:43:08.008Z</time></trkpt><trkpt lat="42.2628562" lon="13.7963465"><ele>344.0</ele><time>2026-05-03T10:43:09.007Z</time></trkpt><trkpt lat="42.2629609" lon="13.796359"><ele>344.0</ele><time>2026-05-03T10:43:10.008Z</time></trkpt><trkpt lat="42.2630795" lon="13.7963804"><ele>344.0</ele><time>2026-05-03T10:43:11.007Z</time></trkpt><trkpt lat="42.2632133" lon="13.7964048"><ele>344.0</ele><time>2026-05-03T10:43:12.008Z</time></trkpt><trkpt lat="42.2633633" lon="13.7964358"><ele>344.0</ele><time>2026-05-03T10:43:13.007Z</time></trkpt><trkpt lat="42.2635192" lon="13.7964676"><ele>342.75</ele><time>2026-05-03T10:43:14.008Z</time></trkpt><trkpt lat="42.2636687" lon="13.7964996"><ele>341.5</ele><time>2026-05-03T10:43:15.008Z</time></trkpt><trkpt lat="42.2638044" lon="13.7965341"><ele>340.25</ele><time>2026-05-03T10:43:16.008Z</time></trkpt><trkpt lat="42.263938" lon="13.7965628"><ele>339.0</ele><time>2026-05-03T10:43:17.008Z</time></trkpt><trkpt lat="42.264063" lon="13.7965855"><ele>338.2</ele><time>2026-05-03T10:43:18.008Z</time></trkpt><trkpt lat="42.2641784" lon="13.7966078"><ele>337.4</ele><time>2026-05-03T10:43:19.007Z</time></trkpt><trkpt lat="42.2642811" lon="13.7966531"><ele>336.6</ele><time>2026-05-03T10:43:20.008Z</time></trkpt><trkpt lat="42.2643734" lon="13.7967107"><ele>335.8</ele><time>2026-05-03T10:43:21.007Z</time></trkpt><trkpt lat="42.2644533" lon="13.7967924"><ele>335.0</ele><time>2026-05-03T10:43:22.007Z</time></trkpt><trkpt lat="42.2645267" lon="13.7968768"><ele>333.6</ele><time>2026-05-03T10:43:23.007Z</time></trkpt><trkpt lat="42.2645901" lon="13.7969709"><ele>332.2</ele><time>2026-05-03T10:43:24.008Z</time></trkpt><trkpt lat="42.2646492" lon="13.7970585"><ele>330.79999999999995</ele><time>2026-05-03T10:43:25.007Z</time></trkpt><trkpt lat="42.2647019" lon="13.7971543"><ele>329.4</ele><time>2026-05-03T10:43:26.008Z</time></trkpt><trkpt lat="42.2647469" lon="13.7972642"><ele>328.0</ele><time>2026-05-03T10:43:27.008Z</time></trkpt><trkpt lat="42.264782" lon="13.7973905"><ele>328.0</ele><time>2026-05-03T10:43:28.008Z</time></trkpt><trkpt lat="42.2648057" lon="13.7975358"><ele>328.0</ele><time>2026-05-03T10:43:29.007Z</time></trkpt><trkpt lat="42.264828" lon="13.7976958"><ele>328.0</ele><time>2026-05-03T10:43:30.007Z</time></trkpt><trkpt lat="42.2648469" lon="13.7978559"><ele>328.0</ele><time>2026-05-03T10:43:31.007Z</time></trkpt><trkpt lat="42.2648605" lon="13.7980094"><ele>328.2</ele><time>2026-05-03T10:43:32.008Z</time></trkpt><trkpt lat="42.264871" lon="13.7981553"><ele>328.4</ele><time>2026-05-03T10:43:33.008Z</time></trkpt><trkpt lat="42.2648894" lon="13.7982882"><ele>328.59999999999997</ele><time>2026-05-03T10:43:34.008Z</time></trkpt><trkpt lat="42.2649184" lon="13.7984239"><ele>328.79999999999995</ele><time>2026-05-03T10:43:35.007Z</time></trkpt><trkpt lat="42.2649569" lon="13.7985438"><ele>329.0</ele><time>2026-05-03T10:43:36.008Z</time></trkpt><trkpt lat="42.264998" lon="13.7986503"><ele>329.0</ele><time>2026-05-03T10:43:37.007Z</time></trkpt><trkpt lat="42.2650308" lon="13.7987454"><ele>329.0</ele><time>2026-05-03T10:43:38.008Z</time></trkpt><trkpt lat="42.2650617" lon="13.7988311"><ele>329.0</ele><time>2026-05-03T10:43:39.008Z</time></trkpt><trkpt lat="42.265109" lon="13.7989546"><ele>329.0</ele><time>2026-05-03T10:43:41.008Z</time></trkpt><trkpt lat="42.2651315" lon="13.7990543"><ele>329.0</ele><time>2026-05-03T10:43:43.008Z</time></trkpt><trkpt lat="42.2651185" lon="13.7991433"><ele>329.0</ele><time>2026-05-03T10:43:45.007Z</time></trkpt><trkpt lat="42.2650479" lon="13.7992399"><ele>329.0</ele><time>2026-05-03T10:43:47.007Z</time></trkpt><trkpt lat="42.2649378" lon="13.7993091"><ele>329.0</ele><time>2026-05-03T10:43:49.007Z</time></trkpt><trkpt lat="42.2648659" lon="13.7993276"><ele>329.0</ele><time>2026-05-03T10:43:50.007Z</time></trkpt><trkpt lat="42.2647838" lon="13.7993269"><ele>329.0</ele><time>2026-05-03T10:43:51.007Z</time></trkpt><trkpt lat="42.2647084" lon="13.7993153"><ele>329.0</ele><time>2026-05-03T10:43:52.008Z</time></trkpt><trkpt lat="42.2646263" lon="13.7993056"><ele>329.0</ele><time>2026-05-03T10:43:53.007Z</time></trkpt><trkpt lat="42.2645412" lon="13.7993291"><ele>330.6</ele><time>2026-05-03T10:43:54.008Z</time></trkpt><trkpt lat="42.2644538" lon="13.7993743"><ele>332.2</ele><time>2026-05-03T10:43:55.007Z</time></trkpt><trkpt lat="42.264375" lon="13.7994433"><ele>333.8</ele><time>2026-05-03T10:43:56.007Z</time></trkpt><trkpt lat="42.2643076" lon="13.7995207"><ele>335.40000000000003</ele><time>2026-05-03T10:43:57.008Z</time></trkpt><trkpt lat="42.2642578" lon="13.7995848"><ele>337.0</ele><time>2026-05-03T10:43:58.008Z</time></trkpt><trkpt lat="42.2641706" lon="13.7996846"><ele>337.0</ele><time>2026-05-03T10:44:00.007Z</time></trkpt><trkpt lat="42.2640566" lon="13.7997702"><ele>337.0</ele><time>2026-05-03T10:44:02.008Z</time></trkpt><trkpt lat="42.2639827" lon="13.799814"><ele>337.0</ele><time>2026-05-03T10:44:03.007Z</time></trkpt><trkpt lat="42.2639028" lon="13.7998619"><ele>337.0</ele><time>2026-05-03T10:44:04.008Z</time></trkpt><trkpt lat="42.263817" lon="13.7999081"><ele>337.0</ele><time>2026-05-03T10:44:05.008Z</time></trkpt><trkpt lat="42.2637263" lon="13.7999573"><ele>336.5</ele><time>2026-05-03T10:44:06.007Z</time></trkpt><trkpt lat="42.2636346" lon="13.8000017"><ele>336.0</ele><time>2026-05-03T10:44:07.008Z</time></trkpt><trkpt lat="42.2635524" lon="13.8000393"><ele>335.5</ele><time>2026-05-03T10:44:08.008Z</time></trkpt><trkpt lat="42.2634732" lon="13.8000521"><ele>335.0</ele><time>2026-05-03T10:44:09.008Z</time></trkpt><trkpt lat="42.2633983" lon="13.8000659"><ele>334.5</ele><time>2026-05-03T10:44:10.008Z</time></trkpt><trkpt lat="42.2633215" lon="13.8000816"><ele>334.0</ele><time>2026-05-03T10:44:11.008Z</time></trkpt><trkpt lat="42.2632435" lon="13.8000907"><ele>334.0</ele><time>2026-05-03T10:44:12.008Z</time></trkpt><trkpt lat="42.2631646" lon="13.8000945"><ele>334.0</ele><time>2026-05-03T10:44:13.008Z</time></trkpt><trkpt lat="42.2630844" lon="13.8000841"><ele>334.0</ele><time>2026-05-03T10:44:14.007Z</time></trkpt><trkpt lat="42.2630081" lon="13.8000526"><ele>334.0</ele><time>2026-05-03T10:44:15.007Z</time></trkpt><trkpt lat="42.2629329" lon="13.8000128"><ele>334.0</ele><time>2026-05-03T10:44:16.008Z</time></trkpt><trkpt lat="42.262855" lon="13.7999713"><ele>334.0</ele><time>2026-05-03T10:44:17.008Z</time></trkpt><trkpt lat="42.262776" lon="13.7999308"><ele>333.8333333333333</ele><time>2026-05-03T10:44:18.007Z</time></trkpt><trkpt lat="42.2626891" lon="13.7998989"><ele>333.66666666666663</ele><time>2026-05-03T10:44:19.008Z</time></trkpt><trkpt lat="42.2626034" lon="13.799879"><ele>333.5</ele><time>2026-05-03T10:44:20.008Z</time></trkpt><trkpt lat="42.262518" lon="13.7998733"><ele>333.3333333333333</ele><time>2026-05-03T10:44:21.007Z</time></trkpt><trkpt lat="42.2624298" lon="13.7998639"><ele>333.1666666666667</ele><time>2026-05-03T10:44:22.007Z</time></trkpt><trkpt lat="42.2623381" lon="13.7998477"><ele>333.0</ele><time>2026-05-03T10:44:23.008Z</time></trkpt><trkpt lat="42.2622468" lon="13.7998309"><ele>332.79999999999995</ele><time>2026-05-03T10:44:24.008Z</time></trkpt><trkpt lat="42.2621492" lon="13.7998164"><ele>332.6</ele><time>2026-05-03T10:44:25.008Z</time></trkpt><trkpt lat="42.26205" lon="13.7998125"><ele>332.4</ele><time>2026-05-03T10:44:26.007Z</time></trkpt><trkpt lat="42.2619566" lon="13.7998162"><ele>332.20000000000005</ele><time>2026-05-03T10:44:27.007Z</time></trkpt><trkpt lat="42.2618683" lon="13.799825"><ele>332.0</ele><time>2026-05-03T10:44:28.007Z</time></trkpt><trkpt lat="42.2617829" lon="13.7998476"><ele>332.0</ele><time>2026-05-03T10:44:29.008Z</time></trkpt><trkpt lat="42.2617034" lon="13.7998967"><ele>332.0</ele><time>2026-05-03T10:44:30.008Z</time></trkpt><trkpt lat="42.2616228" lon="13.7999553"><ele>332.0</ele><time>2026-05-03T10:44:31.008Z</time></trkpt><trkpt lat="42.2615382" lon="13.8000233"><ele>332.0</ele><time>2026-05-03T10:44:32.007Z</time></trkpt><trkpt lat="42.2614508" lon="13.8000888"><ele>332.0</ele><time>2026-05-03T10:44:33.007Z</time></trkpt><trkpt lat="42.2613628" lon="13.8001525"><ele>332.0</ele><time>2026-05-03T10:44:34.008Z</time></trkpt><trkpt lat="42.2612818" lon="13.8002228"><ele>332.0</ele><time>2026-05-03T10:44:35.007Z</time></trkpt><trkpt lat="42.2612149" lon="13.800294"><ele>332.0</ele><time>2026-05-03T10:44:36.007Z</time></trkpt><trkpt lat="42.2611505" lon="13.8003682"><ele>332.0</ele><time>2026-05-03T10:44:37.007Z</time></trkpt><trkpt lat="42.261087" lon="13.800445"><ele>332.0</ele><time>2026-05-03T10:44:38.008Z</time></trkpt><trkpt lat="42.261031" lon="13.8005302"><ele>332.0</ele><time>2026-05-03T10:44:39.007Z</time></trkpt><trkpt lat="42.2609715" lon="13.8006126"><ele>332.0</ele><time>2026-05-03T10:44:40.008Z</time></trkpt><trkpt lat="42.2609007" lon="13.800698"><ele>332.0</ele><time>2026-05-03T10:44:41.008Z</time></trkpt><trkpt lat="42.2608268" lon="13.8007871"><ele>332.0</ele><time>2026-05-03T10:44:42.008Z</time></trkpt><trkpt lat="42.2607524" lon="13.8008683"><ele>332.0</ele><time>2026-05-03T10:44:43.008Z</time></trkpt><trkpt lat="42.260682" lon="13.8009372"><ele>332.0</ele><time>2026-05-03T10:44:44.008Z</time></trkpt><trkpt lat="42.2606085" lon="13.800999"><ele>331.8</ele><time>2026-05-03T10:44:45.007Z</time></trkpt><trkpt lat="42.2605289" lon="13.8010672"><ele>331.6</ele><time>2026-05-03T10:44:46.008Z</time></trkpt><trkpt lat="42.2604486" lon="13.8011404"><ele>331.40000000000003</ele><time>2026-05-03T10:44:47.008Z</time></trkpt><trkpt lat="42.260369" lon="13.8012145"><ele>331.20000000000005</ele><time>2026-05-03T10:44:48.007Z</time></trkpt><trkpt lat="42.2602879" lon="13.8012941"><ele>331.0</ele><time>2026-05-03T10:44:49.007Z</time></trkpt><trkpt lat="42.2602076" lon="13.8013776"><ele>331.0</ele><time>2026-05-03T10:44:50.007Z</time></trkpt><trkpt lat="42.2601293" lon="13.801466"><ele>331.0</ele><time>2026-05-03T10:44:51.007Z</time></trkpt><trkpt lat="42.2600491" lon="13.8015553"><ele>331.0</ele><time>2026-05-03T10:44:52.007Z</time></trkpt><trkpt lat="42.2599712" lon="13.8016472"><ele>331.0</ele><time>2026-05-03T10:44:53.007Z</time></trkpt><trkpt lat="42.2599026" lon="13.8017479"><ele>331.0</ele><time>2026-05-03T10:44:54.008Z</time></trkpt><trkpt lat="42.2598385" lon="13.8018521"><ele>331.8</ele><time>2026-05-03T10:44:55.008Z</time></trkpt><trkpt lat="42.2597763" lon="13.8019499"><ele>332.6</ele><time>2026-05-03T10:44:56.008Z</time></trkpt><trkpt lat="42.2597023" lon="13.802046"><ele>333.4</ele><time>2026-05-03T10:44:57.008Z</time></trkpt><trkpt lat="42.2596206" lon="13.8021259"><ele>334.2</ele><time>2026-05-03T10:44:58.007Z</time></trkpt><trkpt lat="42.2595441" lon="13.8021916"><ele>335.0</ele><time>2026-05-03T10:44:59.008Z</time></trkpt><trkpt lat="42.2594636" lon="13.8022489"><ele>335.0</ele><time>2026-05-03T10:45:00.008Z</time></trkpt><trkpt lat="42.25938" lon="13.8023063"><ele>335.0</ele><time>2026-05-03T10:45:01.007Z</time></trkpt><trkpt lat="42.2592966" lon="13.8023515"><ele>335.0</ele><time>2026-05-03T10:45:02.008Z</time></trkpt><trkpt lat="42.2592091" lon="13.8023776"><ele>335.0</ele><time>2026-05-03T10:45:03.008Z</time></trkpt><trkpt lat="42.2591228" lon="13.8023848"><ele>335.0</ele><time>2026-05-03T10:45:04.007Z</time></trkpt><trkpt lat="42.2590333" lon="13.8023853"><ele>335.0</ele><time>2026-05-03T10:45:05.007Z</time></trkpt><trkpt lat="42.2589461" lon="13.8023675"><ele>335.6</ele><time>2026-05-03T10:45:06.008Z</time></trkpt><trkpt lat="42.2588579" lon="13.8023407"><ele>336.2</ele><time>2026-05-03T10:45:07.008Z</time></trkpt><trkpt lat="42.2587609" lon="13.8023077"><ele>336.79999999999995</ele><time>2026-05-03T10:45:08.007Z</time></trkpt><trkpt lat="42.2586575" lon="13.8022627"><ele>337.4</ele><time>2026-05-03T10:45:09.008Z</time></trkpt><trkpt lat="42.2585549" lon="13.8022228"><ele>338.0</ele><time>2026-05-03T10:45:10.008Z</time></trkpt><trkpt lat="42.2584552" lon="13.8021831"><ele>338.0</ele><time>2026-05-03T10:45:11.007Z</time></trkpt><trkpt lat="42.2583654" lon="13.8021438"><ele>338.0</ele><time>2026-05-03T10:45:12.007Z</time></trkpt><trkpt lat="42.2582827" lon="13.8021042"><ele>338.0</ele><time>2026-05-03T10:45:13.008Z</time></trkpt><trkpt lat="42.2582073" lon="13.8020456"><ele>338.0</ele><time>2026-05-03T10:45:14.007Z</time></trkpt><trkpt lat="42.2581414" lon="13.8019751"><ele>338.0</ele><time>2026-05-03T10:45:15.007Z</time></trkpt><trkpt lat="42.2580845" lon="13.8018933"><ele>338.0</ele><time>2026-05-03T10:45:16.008Z</time></trkpt><trkpt lat="42.2580356" lon="13.801805"><ele>337.33333333333337</ele><time>2026-05-03T10:45:17.008Z</time></trkpt><trkpt lat="42.2579907" lon="13.8017117"><ele>336.6666666666667</ele><time>2026-05-03T10:45:18.008Z</time></trkpt><trkpt lat="42.257947" lon="13.8016141"><ele>336.0</ele><time>2026-05-03T10:45:19.007Z</time></trkpt><trkpt lat="42.2578985" lon="13.8015164"><ele>335.3333333333333</ele><time>2026-05-03T10:45:20.007Z</time></trkpt><trkpt lat="42.2578427" lon="13.8014162"><ele>334.66666666666663</ele><time>2026-05-03T10:45:21.008Z</time></trkpt><trkpt lat="42.2577834" lon="13.8013231"><ele>334.0</ele><time>2026-05-03T10:45:22.008Z</time></trkpt><trkpt lat="42.2577181" lon="13.8012528"><ele>334.0</ele><time>2026-05-03T10:45:23.007Z</time></trkpt><trkpt lat="42.257648" lon="13.8012111"><ele>334.0</ele><time>2026-05-03T10:45:24.007Z</time></trkpt><trkpt lat="42.257571" lon="13.8011897"><ele>334.0</ele><time>2026-05-03T10:45:25.006Z</time></trkpt><trkpt lat="42.2574847" lon="13.8011802"><ele>334.0</ele><time>2026-05-03T10:45:26.006Z</time></trkpt><trkpt lat="42.2574122" lon="13.8012094"><ele>334.0</ele><time>2026-05-03T10:45:27.007Z</time></trkpt><trkpt lat="42.2573363" lon="13.8012592"><ele>334.0</ele><time>2026-05-03T10:45:28.006Z</time></trkpt><trkpt lat="42.2572516" lon="13.8013275"><ele>332.6</ele><time>2026-05-03T10:45:29.007Z</time></trkpt><trkpt lat="42.257161" lon="13.8014074"><ele>331.2</ele><time>2026-05-03T10:45:30.006Z</time></trkpt><trkpt lat="42.2570678" lon="13.8014871"><ele>329.8</ele><time>2026-05-03T10:45:31.007Z</time></trkpt><trkpt lat="42.2569814" lon="13.8015715"><ele>328.40000000000003</ele><time>2026-05-03T10:45:32.006Z</time></trkpt><trkpt lat="42.2569044" lon="13.8016716"><ele>327.0</ele><time>2026-05-03T10:45:33.006Z</time></trkpt><trkpt lat="42.2568299" lon="13.8017887"><ele>328.6</ele><time>2026-05-03T10:45:34.007Z</time></trkpt><trkpt lat="42.2567603" lon="13.8019023"><ele>330.20000000000005</ele><time>2026-05-03T10:45:35.006Z</time></trkpt><trkpt lat="42.2566866" lon="13.802009"><ele>331.8</ele><time>2026-05-03T10:45:36.006Z</time></trkpt><trkpt lat="42.2566147" lon="13.8021107"><ele>333.4</ele><time>2026-05-03T10:45:37.006Z</time></trkpt><trkpt lat="42.2565388" lon="13.8022021"><ele>335.0</ele><time>2026-05-03T10:45:38.006Z</time></trkpt><trkpt lat="42.2564627" lon="13.8022773"><ele>334.0</ele><time>2026-05-03T10:45:39.007Z</time></trkpt><trkpt lat="42.256384" lon="13.8023355"><ele>333.0</ele><time>2026-05-03T10:45:40.006Z</time></trkpt><trkpt lat="42.2562997" lon="13.8023821"><ele>332.0</ele><time>2026-05-03T10:45:41.007Z</time></trkpt><trkpt lat="42.2562096" lon="13.8024202"><ele>331.0</ele><time>2026-05-03T10:45:42.006Z</time></trkpt><trkpt lat="42.2561142" lon="13.8024476"><ele>330.0</ele><time>2026-05-03T10:45:43.006Z</time></trkpt><trkpt lat="42.2560067" lon="13.8024724"><ele>330.0</ele><time>2026-05-03T10:45:44.007Z</time></trkpt><trkpt lat="42.2558974" lon="13.8025031"><ele>330.0</ele><time>2026-05-03T10:45:45.007Z</time></trkpt><trkpt lat="42.255791" lon="13.8025365"><ele>330.0</ele><time>2026-05-03T10:45:46.007Z</time></trkpt><trkpt lat="42.2556863" lon="13.8025763"><ele>330.0</ele><time>2026-05-03T10:45:47.007Z</time></trkpt><trkpt lat="42.2555841" lon="13.8026219"><ele>330.0</ele><time>2026-05-03T10:45:48.007Z</time></trkpt><trkpt lat="42.2554904" lon="13.8026738"><ele>331.0</ele><time>2026-05-03T10:45:49.006Z</time></trkpt><trkpt lat="42.2553997" lon="13.8027342"><ele>332.0</ele><time>2026-05-03T10:45:50.006Z</time></trkpt><trkpt lat="42.255306" lon="13.802798"><ele>333.0</ele><time>2026-05-03T10:45:51.007Z</time></trkpt><trkpt lat="42.2552101" lon="13.8028624"><ele>334.0</ele><time>2026-05-03T10:45:52.006Z</time></trkpt><trkpt lat="42.2551061" lon="13.8029164"><ele>335.0</ele><time>2026-05-03T10:45:53.006Z</time></trkpt><trkpt lat="42.2550037" lon="13.8029602"><ele>335.0</ele><time>2026-05-03T10:45:54.007Z</time></trkpt><trkpt lat="42.2549037" lon="13.8029943"><ele>335.0</ele><time>2026-05-03T10:45:55.006Z</time></trkpt><trkpt lat="42.2548124" lon="13.8030114"><ele>335.0</ele><time>2026-05-03T10:45:56.006Z</time></trkpt><trkpt lat="42.2547253" lon="13.8030201"><ele>335.0</ele><time>2026-05-03T10:45:57.007Z</time></trkpt><trkpt lat="42.2546359" lon="13.803012"><ele>335.0</ele><time>2026-05-03T10:45:58.007Z</time></trkpt><trkpt lat="42.2545425" lon="13.8030098"><ele>334.0</ele><time>2026-05-03T10:45:59.007Z</time></trkpt><trkpt lat="42.2544477" lon="13.8030175"><ele>333.0</ele><time>2026-05-03T10:46:00.007Z</time></trkpt><trkpt lat="42.2543525" lon="13.803049"><ele>332.0</ele><time>2026-05-03T10:46:01.007Z</time></trkpt><trkpt lat="42.2542502" lon="13.8030945"><ele>331.0</ele><time>2026-05-03T10:46:02.006Z</time></trkpt><trkpt lat="42.2541456" lon="13.8031394"><ele>330.0</ele><time>2026-05-03T10:46:03.007Z</time></trkpt><trkpt lat="42.2540358" lon="13.8031899"><ele>328.6</ele><time>2026-05-03T10:46:04.006Z</time></trkpt><trkpt lat="42.2539249" lon="13.8032429"><ele>327.2</ele><time>2026-05-03T10:46:05.007Z</time></trkpt><trkpt lat="42.2538219" lon="13.8032848"><ele>325.79999999999995</ele><time>2026-05-03T10:46:06.007Z</time></trkpt><trkpt lat="42.2537255" lon="13.8033184"><ele>324.4</ele><time>2026-05-03T10:46:07.007Z</time></trkpt><trkpt lat="42.2536336" lon="13.8033585"><ele>323.0</ele><time>2026-05-03T10:46:08.007Z</time></trkpt><trkpt lat="42.2535446" lon="13.8034079"><ele>323.0</ele><time>2026-05-03T10:46:09.007Z</time></trkpt><trkpt lat="42.2534539" lon="13.8034812"><ele>323.0</ele><time>2026-05-03T10:46:10.007Z</time></trkpt><trkpt lat="42.2533534" lon="13.8035657"><ele>323.0</ele><time>2026-05-03T10:46:11.007Z</time></trkpt><trkpt lat="42.2532582" lon="13.8036597"><ele>323.0</ele><time>2026-05-03T10:46:12.006Z</time></trkpt><trkpt lat="42.2531601" lon="13.8037522"><ele>323.79999999999995</ele><time>2026-05-03T10:46:13.006Z</time></trkpt><trkpt lat="42.2530603" lon="13.8038354"><ele>324.6</ele><time>2026-05-03T10:46:14.007Z</time></trkpt><trkpt lat="42.252965" lon="13.8039022"><ele>325.4</ele><time>2026-05-03T10:46:15.007Z</time></trkpt><trkpt lat="42.2528609" lon="13.8039553"><ele>326.20000000000005</ele><time>2026-05-03T10:46:16.007Z</time></trkpt><trkpt lat="42.2527527" lon="13.8040006"><ele>327.0</ele><time>2026-05-03T10:46:17.006Z</time></trkpt><trkpt lat="42.2526458" lon="13.8040382"><ele>327.0</ele><time>2026-05-03T10:46:18.007Z</time></trkpt><trkpt lat="42.2525387" lon="13.8040661"><ele>327.0</ele><time>2026-05-03T10:46:19.006Z</time></trkpt><trkpt lat="42.2524427" lon="13.8040831"><ele>327.0</ele><time>2026-05-03T10:46:20.006Z</time></trkpt><trkpt lat="42.2523571" lon="13.8040911"><ele>327.0</ele><time>2026-05-03T10:46:21.006Z</time></trkpt><trkpt lat="42.2522746" lon="13.8040872"><ele>327.0</ele><time>2026-05-03T10:46:22.007Z</time></trkpt><trkpt lat="42.2521849" lon="13.8040666"><ele>328.6666666666667</ele><time>2026-05-03T10:46:23.007Z</time></trkpt><trkpt lat="42.2521005" lon="13.8040484"><ele>330.3333333333333</ele><time>2026-05-03T10:46:24.007Z</time></trkpt><trkpt lat="42.2520174" lon="13.8040114"><ele>332.0</ele><time>2026-05-03T10:46:25.007Z</time></trkpt><trkpt lat="42.2519406" lon="13.8039636"><ele>333.66666666666663</ele><time>2026-05-03T10:46:26.007Z</time></trkpt><trkpt lat="42.2518677" lon="13.8038996"><ele>335.3333333333333</ele><time>2026-05-03T10:46:27.006Z</time></trkpt><trkpt lat="42.2517951" lon="13.8038248"><ele>337.0</ele><time>2026-05-03T10:46:28.007Z</time></trkpt><trkpt lat="42.2517338" lon="13.8037517"><ele>337.0</ele><time>2026-05-03T10:46:29.006Z</time></trkpt><trkpt lat="42.2516478" lon="13.8036576"><ele>337.0</ele><time>2026-05-03T10:46:31.006Z</time></trkpt><trkpt lat="42.2515812" lon="13.803603"><ele>337.0</ele><time>2026-05-03T10:46:33.006Z</time></trkpt><trkpt lat="42.2514987" lon="13.8035336"><ele>337.0</ele><time>2026-05-03T10:46:35.006Z</time></trkpt><trkpt lat="42.25144" lon="13.8034995"><ele>337.0</ele><time>2026-05-03T10:46:36.007Z</time></trkpt><trkpt lat="42.2513775" lon="13.8034688"><ele>337.0</ele><time>2026-05-03T10:46:37.007Z</time></trkpt><trkpt lat="42.2513016" lon="13.8034383"><ele>336.00000000000006</ele><time>2026-05-03T10:46:38.006Z</time></trkpt><trkpt lat="42.2512339" lon="13.803415"><ele>335.0</ele><time>2026-05-03T10:46:39.007Z</time></trkpt><trkpt lat="42.2511663" lon="13.8033931"><ele>334.0</ele><time>2026-05-03T10:46:40.007Z</time></trkpt><trkpt lat="42.2511049" lon="13.8033718"><ele>333.0</ele><time>2026-05-03T10:46:41.007Z</time></trkpt><trkpt lat="42.2510391" lon="13.8033445"><ele>332.0</ele><time>2026-05-03T10:46:42.007Z</time></trkpt><trkpt lat="42.2509697" lon="13.8033211"><ele>331.00000000000006</ele><time>2026-05-03T10:46:43.007Z</time></trkpt><trkpt lat="42.2508993" lon="13.8033141"><ele>330.0</ele><time>2026-05-03T10:46:44.006Z</time></trkpt><trkpt lat="42.2508283" lon="13.8033185"><ele>330.0</ele><time>2026-05-03T10:46:45.007Z</time></trkpt><trkpt lat="42.2507605" lon="13.8033269"><ele>330.0</ele><time>2026-05-03T10:46:46.006Z</time></trkpt><trkpt lat="42.2506889" lon="13.803339"><ele>330.0</ele><time>2026-05-03T10:46:47.006Z</time></trkpt><trkpt lat="42.2506159" lon="13.8033616"><ele>330.0</ele><time>2026-05-03T10:46:48.006Z</time></trkpt><trkpt lat="42.2505388" lon="13.8033981"><ele>330.0</ele><time>2026-05-03T10:46:49.006Z</time></trkpt><trkpt lat="42.2504644" lon="13.8034388"><ele>330.0</ele><time>2026-05-03T10:46:50.006Z</time></trkpt><trkpt lat="42.2503841" lon="13.8034923"><ele>331.2</ele><time>2026-05-03T10:46:51.007Z</time></trkpt><trkpt lat="42.2502942" lon="13.8035547"><ele>332.4</ele><time>2026-05-03T10:46:52.006Z</time></trkpt><trkpt lat="42.2502046" lon="13.8036268"><ele>333.6</ele><time>2026-05-03T10:46:53.007Z</time></trkpt><trkpt lat="42.250115" lon="13.803704"><ele>334.8</ele><time>2026-05-03T10:46:54.007Z</time></trkpt><trkpt lat="42.2500312" lon="13.8037781"><ele>336.0</ele><time>2026-05-03T10:46:55.007Z</time></trkpt><trkpt lat="42.2499502" lon="13.8038499"><ele>336.0</ele><time>2026-05-03T10:46:56.006Z</time></trkpt><trkpt lat="42.2498818" lon="13.8039247"><ele>336.0</ele><time>2026-05-03T10:46:57.007Z</time></trkpt><trkpt lat="42.2498255" lon="13.8040076"><ele>336.0</ele><time>2026-05-03T10:46:58.007Z</time></trkpt><trkpt lat="42.2497743" lon="13.8040984"><ele>336.0</ele><time>2026-05-03T10:46:59.006Z</time></trkpt><trkpt lat="42.2497272" lon="13.804203"><ele>336.0</ele><time>2026-05-03T10:47:00.007Z</time></trkpt><trkpt lat="42.2496757" lon="13.8043034"><ele>336.0</ele><time>2026-05-03T10:47:01.006Z</time></trkpt><trkpt lat="42.2496161" lon="13.8043986"><ele>336.1666666666667</ele><time>2026-05-03T10:47:02.006Z</time></trkpt><trkpt lat="42.2495548" lon="13.8044863"><ele>336.3333333333333</ele><time>2026-05-03T10:47:03.006Z</time></trkpt><trkpt lat="42.2494928" lon="13.804568"><ele>336.5</ele><time>2026-05-03T10:47:04.006Z</time></trkpt><trkpt lat="42.2494352" lon="13.8046529"><ele>336.66666666666663</ele><time>2026-05-03T10:47:05.007Z</time></trkpt><trkpt lat="42.2493782" lon="13.8047364"><ele>336.8333333333333</ele><time>2026-05-03T10:47:06.007Z</time></trkpt><trkpt lat="42.2493236" lon="13.8048163"><ele>337.0</ele><time>2026-05-03T10:47:07.007Z</time></trkpt><trkpt lat="42.2492598" lon="13.8049053"><ele>337.0</ele><time>2026-05-03T10:47:08.006Z</time></trkpt><trkpt lat="42.2491828" lon="13.8049947"><ele>337.0</ele><time>2026-05-03T10:47:09.007Z</time></trkpt><trkpt lat="42.2490998" lon="13.8050795"><ele>337.0</ele><time>2026-05-03T10:47:10.006Z</time></trkpt><trkpt lat="42.2490223" lon="13.8051399"><ele>337.0</ele><time>2026-05-03T10:47:11.007Z</time></trkpt><trkpt lat="42.2489448" lon="13.8051743"><ele>337.0</ele><time>2026-05-03T10:47:12.006Z</time></trkpt><trkpt lat="42.248865" lon="13.8051948"><ele>336.6</ele><time>2026-05-03T10:47:13.006Z</time></trkpt><trkpt lat="42.2487727" lon="13.8052138"><ele>336.20000000000005</ele><time>2026-05-03T10:47:14.007Z</time></trkpt><trkpt lat="42.2486809" lon="13.8052399"><ele>335.8</ele><time>2026-05-03T10:47:15.006Z</time></trkpt><trkpt lat="42.2485953" lon="13.8052746"><ele>335.4</ele><time>2026-05-03T10:47:16.007Z</time></trkpt><trkpt lat="42.2485154" lon="13.8053373"><ele>335.0</ele><time>2026-05-03T10:47:17.007Z</time></trkpt><trkpt lat="42.2484345" lon="13.805397"><ele>334.99999999999994</ele><time>2026-05-03T10:47:18.007Z</time></trkpt><trkpt lat="42.2483661" lon="13.8054567"><ele>335.0</ele><time>2026-05-03T10:47:19.007Z</time></trkpt><trkpt lat="42.24831" lon="13.8055233"><ele>335.0</ele><time>2026-05-03T10:47:20.006Z</time></trkpt><trkpt lat="42.2482654" lon="13.8055956"><ele>335.0</ele><time>2026-05-03T10:47:21.007Z</time></trkpt><trkpt lat="42.2482294" lon="13.805673"><ele>335.0</ele><time>2026-05-03T10:47:22.007Z</time></trkpt><trkpt lat="42.2481902" lon="13.805758"><ele>334.99999999999994</ele><time>2026-05-03T10:47:23.006Z</time></trkpt><trkpt lat="42.2481493" lon="13.8058361"><ele>335.0</ele><time>2026-05-03T10:47:24.006Z</time></trkpt><trkpt lat="42.2481021" lon="13.8059181"><ele>333.5</ele><time>2026-05-03T10:47:25.007Z</time></trkpt><trkpt lat="42.2480587" lon="13.8060081"><ele>332.0</ele><time>2026-05-03T10:47:26.006Z</time></trkpt><trkpt lat="42.2480117" lon="13.8061029"><ele>330.5</ele><time>2026-05-03T10:47:27.007Z</time></trkpt><trkpt lat="42.2479654" lon="13.8062015"><ele>329.0</ele><time>2026-05-03T10:47:28.006Z</time></trkpt><trkpt lat="42.2479179" lon="13.8062967"><ele>327.5</ele><time>2026-05-03T10:47:29.006Z</time></trkpt><trkpt lat="42.2478722" lon="13.8063894"><ele>326.0</ele><time>2026-05-03T10:47:30.007Z</time></trkpt><trkpt lat="42.2478317" lon="13.8064785"><ele>326.0</ele><time>2026-05-03T10:47:31.007Z</time></trkpt><trkpt lat="42.2478019" lon="13.8065756"><ele>326.0</ele><time>2026-05-03T10:47:32.006Z</time></trkpt><trkpt lat="42.247777" lon="13.8066731"><ele>326.0</ele><time>2026-05-03T10:47:33.006Z</time></trkpt><trkpt lat="42.2477607" lon="13.8067744"><ele>326.0</ele><time>2026-05-03T10:47:34.007Z</time></trkpt><trkpt lat="42.2477461" lon="13.8068768"><ele>326.0</ele><time>2026-05-03T10:47:35.006Z</time></trkpt><trkpt lat="42.2477273" lon="13.8069867"><ele>326.0</ele><time>2026-05-03T10:47:36.007Z</time></trkpt><trkpt lat="42.2477066" lon="13.8070894"><ele>326.33333333333337</ele><time>2026-05-03T10:47:37.006Z</time></trkpt><trkpt lat="42.2476884" lon="13.8071726"><ele>326.6666666666667</ele><time>2026-05-03T10:47:38.007Z</time></trkpt><trkpt lat="42.2476464" lon="13.8072877"><ele>327.0</ele><time>2026-05-03T10:47:40.007Z</time></trkpt><trkpt lat="42.2476026" lon="13.8073495"><ele>327.3333333333333</ele><time>2026-05-03T10:47:41.007Z</time></trkpt><trkpt lat="42.24754" lon="13.807413"><ele>327.66666666666663</ele><time>2026-05-03T10:47:42.007Z</time></trkpt><trkpt lat="42.2474667" lon="13.8074698"><ele>328.0</ele><time>2026-05-03T10:47:43.007Z</time></trkpt><trkpt lat="42.2473894" lon="13.8075183"><ele>328.0</ele><time>2026-05-03T10:47:44.006Z</time></trkpt><trkpt lat="42.2473101" lon="13.807574"><ele>328.0</ele><time>2026-05-03T10:47:45.006Z</time></trkpt><trkpt lat="42.2472356" lon="13.8076436"><ele>328.0</ele><time>2026-05-03T10:47:46.006Z</time></trkpt><trkpt lat="42.2471669" lon="13.8077202"><ele>328.0</ele><time>2026-05-03T10:47:47.006Z</time></trkpt><trkpt lat="42.2471027" lon="13.8078025"><ele>328.0</ele><time>2026-05-03T10:47:48.007Z</time></trkpt><trkpt lat="42.2470355" lon="13.807883"><ele>328.0</ele><time>2026-05-03T10:47:49.007Z</time></trkpt><trkpt lat="42.2469731" lon="13.8079715"><ele>327.5</ele><time>2026-05-03T10:47:50.007Z</time></trkpt><trkpt lat="42.2469148" lon="13.8080608"><ele>327.0</ele><time>2026-05-03T10:47:51.006Z</time></trkpt><trkpt lat="42.2468659" lon="13.808141"><ele>326.5</ele><time>2026-05-03T10:47:52.006Z</time></trkpt><trkpt lat="42.246828" lon="13.8082222"><ele>326.0</ele><time>2026-05-03T10:47:53.007Z</time></trkpt><trkpt lat="42.2468019" lon="13.8083123"><ele>325.5</ele><time>2026-05-03T10:47:54.006Z</time></trkpt><trkpt lat="42.2467827" lon="13.8084146"><ele>325.0</ele><time>2026-05-03T10:47:55.006Z</time></trkpt><trkpt lat="42.246771" lon="13.8085355"><ele>324.8</ele><time>2026-05-03T10:47:56.006Z</time></trkpt><trkpt lat="42.2467512" lon="13.8086631"><ele>324.6</ele><time>2026-05-03T10:47:57.007Z</time></trkpt><trkpt lat="42.2467273" lon="13.808795"><ele>324.4</ele><time>2026-05-03T10:47:58.006Z</time></trkpt><trkpt lat="42.2466961" lon="13.8089313"><ele>324.2</ele><time>2026-05-03T10:47:59.007Z</time></trkpt><trkpt lat="42.2466587" lon="13.8090651"><ele>324.0</ele><time>2026-05-03T10:48:00.006Z</time></trkpt><trkpt lat="42.2466173" lon="13.8092097"><ele>324.25</ele><time>2026-05-03T10:48:01.006Z</time></trkpt><trkpt lat="42.2465746" lon="13.8093612"><ele>324.5</ele><time>2026-05-03T10:48:02.007Z</time></trkpt><trkpt lat="42.2465325" lon="13.8095059"><ele>324.75</ele><time>2026-05-03T10:48:03.007Z</time></trkpt><trkpt lat="42.2464876" lon="13.8096469"><ele>325.0</ele><time>2026-05-03T10:48:04.007Z</time></trkpt><trkpt lat="42.246444" lon="13.809787"><ele>325.0</ele><time>2026-05-03T10:48:05.006Z</time></trkpt><trkpt lat="42.2464041" lon="13.809915"><ele>325.0</ele><time>2026-05-03T10:48:06.007Z</time></trkpt><trkpt lat="42.2463626" lon="13.8100256"><ele>325.0</ele><time>2026-05-03T10:48:07.006Z</time></trkpt><trkpt lat="42.2463146" lon="13.8101195"><ele>325.0</ele><time>2026-05-03T10:48:08.007Z</time></trkpt><trkpt lat="42.246253" lon="13.810207"><ele>325.0</ele><time>2026-05-03T10:48:09.007Z</time></trkpt><trkpt lat="42.2461865" lon="13.8102982"><ele>325.0</ele><time>2026-05-03T10:48:10.007Z</time></trkpt><trkpt lat="42.2461188" lon="13.8103788"><ele>325.0</ele><time>2026-05-03T10:48:11.007Z</time></trkpt><trkpt lat="42.2460467" lon="13.8104579"><ele>325.0</ele><time>2026-05-03T10:48:12.007Z</time></trkpt><trkpt lat="42.2459753" lon="13.8105424"><ele>325.0</ele><time>2026-05-03T10:48:13.007Z</time></trkpt><trkpt lat="42.2458943" lon="13.8106324"><ele>325.0</ele><time>2026-05-03T10:48:14.006Z</time></trkpt><trkpt lat="42.2458113" lon="13.8107404"><ele>325.0</ele><time>2026-05-03T10:48:15.006Z</time></trkpt><trkpt lat="42.2457233" lon="13.810859"><ele>325.0</ele><time>2026-05-03T10:48:16.006Z</time></trkpt><trkpt lat="42.2456322" lon="13.8109677"><ele>325.0</ele><time>2026-05-03T10:48:17.006Z</time></trkpt><trkpt lat="42.2455501" lon="13.8110734"><ele>325.0</ele><time>2026-05-03T10:48:18.007Z</time></trkpt><trkpt lat="42.2454658" lon="13.8111691"><ele>324.8</ele><time>2026-05-03T10:48:19.006Z</time></trkpt><trkpt lat="42.2453808" lon="13.8112561"><ele>324.6</ele><time>2026-05-03T10:48:20.007Z</time></trkpt><trkpt lat="42.2453039" lon="13.8113307"><ele>324.4</ele><time>2026-05-03T10:48:21.006Z</time></trkpt><trkpt lat="42.245233" lon="13.811414"><ele>324.2</ele><time>2026-05-03T10:48:22.007Z</time></trkpt><trkpt lat="42.2451737" lon="13.8114984"><ele>324.0</ele><time>2026-05-03T10:48:23.007Z</time></trkpt><trkpt lat="42.2451259" lon="13.8115946"><ele>324.0</ele><time>2026-05-03T10:48:24.007Z</time></trkpt><trkpt lat="42.245086" lon="13.8117016"><ele>324.0</ele><time>2026-05-03T10:48:25.007Z</time></trkpt><trkpt lat="42.2450626" lon="13.8118243"><ele>324.0</ele><time>2026-05-03T10:48:26.007Z</time></trkpt><trkpt lat="42.2450412" lon="13.8119386"><ele>324.0</ele><time>2026-05-03T10:48:27.006Z</time></trkpt><trkpt lat="42.2450206" lon="13.8120505"><ele>324.0</ele><time>2026-05-03T10:48:28.007Z</time></trkpt><trkpt lat="42.2449969" lon="13.812162"><ele>324.0</ele><time>2026-05-03T10:48:29.007Z</time></trkpt><trkpt lat="42.2449594" lon="13.8122582"><ele>323.5</ele><time>2026-05-03T10:48:30.006Z</time></trkpt><trkpt lat="42.2449129" lon="13.8123421"><ele>323.0</ele><time>2026-05-03T10:48:31.006Z</time></trkpt><trkpt lat="42.2448561" lon="13.8124139"><ele>322.5</ele><time>2026-05-03T10:48:32.007Z</time></trkpt><trkpt lat="42.2447888" lon="13.8124879"><ele>322.0</ele><time>2026-05-03T10:48:33.007Z</time></trkpt><trkpt lat="42.2447186" lon="13.8125446"><ele>321.5</ele><time>2026-05-03T10:48:34.007Z</time></trkpt><trkpt lat="42.2446438" lon="13.8125889"><ele>321.0</ele><time>2026-05-03T10:48:35.007Z</time></trkpt><trkpt lat="42.2445661" lon="13.8126133"><ele>321.0</ele><time>2026-05-03T10:48:36.007Z</time></trkpt><trkpt lat="42.2444765" lon="13.81263"><ele>321.0</ele><time>2026-05-03T10:48:37.006Z</time></trkpt><trkpt lat="42.2443823" lon="13.8126511"><ele>321.0</ele><time>2026-05-03T10:48:38.006Z</time></trkpt><trkpt lat="42.2442941" lon="13.8126831"><ele>321.0</ele><time>2026-05-03T10:48:39.006Z</time></trkpt><trkpt lat="42.2442053" lon="13.812732"><ele>321.0</ele><time>2026-05-03T10:48:40.007Z</time></trkpt><trkpt lat="42.2441206" lon="13.8127876"><ele>321.8</ele><time>2026-05-03T10:48:41.007Z</time></trkpt><trkpt lat="42.2440263" lon="13.8128446"><ele>322.6</ele><time>2026-05-03T10:48:42.007Z</time></trkpt><trkpt lat="42.2439233" lon="13.8128947"><ele>323.4</ele><time>2026-05-03T10:48:43.007Z</time></trkpt><trkpt lat="42.243816" lon="13.8129294"><ele>324.2</ele><time>2026-05-03T10:48:44.007Z</time></trkpt><trkpt lat="42.2437125" lon="13.8129681"><ele>325.0</ele><time>2026-05-03T10:48:45.007Z</time></trkpt><trkpt lat="42.2436196" lon="13.8130171"><ele>325.0</ele><time>2026-05-03T10:48:46.006Z</time></trkpt><trkpt lat="42.2435415" lon="13.8130779"><ele>325.0</ele><time>2026-05-03T10:48:47.006Z</time></trkpt><trkpt lat="42.2434637" lon="13.8131638"><ele>325.0</ele><time>2026-05-03T10:48:48.006Z</time></trkpt><trkpt lat="42.2433841" lon="13.8132583"><ele>325.0</ele><time>2026-05-03T10:48:49.006Z</time></trkpt><trkpt lat="42.2433035" lon="13.8133553"><ele>325.0</ele><time>2026-05-03T10:48:50.006Z</time></trkpt><trkpt lat="42.2432223" lon="13.8134585"><ele>324.0</ele><time>2026-05-03T10:48:51.006Z</time></trkpt><trkpt lat="42.2431478" lon="13.8135673"><ele>323.0</ele><time>2026-05-03T10:48:52.007Z</time></trkpt><trkpt lat="42.2430707" lon="13.8136662"><ele>322.0</ele><time>2026-05-03T10:48:53.007Z</time></trkpt><trkpt lat="42.2429967" lon="13.8137641"><ele>321.0</ele><time>2026-05-03T10:48:54.007Z</time></trkpt><trkpt lat="42.2429139" lon="13.8138561"><ele>320.0</ele><time>2026-05-03T10:48:55.006Z</time></trkpt><trkpt lat="42.2428216" lon="13.8139466"><ele>320.0</ele><time>2026-05-03T10:48:56.006Z</time></trkpt><trkpt lat="42.2427356" lon="13.8140407"><ele>320.0</ele><time>2026-05-03T10:48:57.007Z</time></trkpt><trkpt lat="42.2426493" lon="13.8141259"><ele>320.0</ele><time>2026-05-03T10:48:58.006Z</time></trkpt><trkpt lat="42.2425686" lon="13.8142103"><ele>320.0</ele><time>2026-05-03T10:48:59.007Z</time></trkpt><trkpt lat="42.2424857" lon="13.8142925"><ele>320.0</ele><time>2026-05-03T10:49:00.006Z</time></trkpt><trkpt lat="42.2424052" lon="13.8143698"><ele>319.83333333333337</ele><time>2026-05-03T10:49:01.007Z</time></trkpt><trkpt lat="42.2423293" lon="13.8144375"><ele>319.6666666666667</ele><time>2026-05-03T10:49:02.007Z</time></trkpt><trkpt lat="42.2422598" lon="13.8144844"><ele>319.5</ele><time>2026-05-03T10:49:03.006Z</time></trkpt><trkpt lat="42.2421364" lon="13.8145038"><ele>319.3333333333333</ele><time>2026-05-03T10:49:05.007Z</time></trkpt><trkpt lat="42.2420559" lon="13.8145118"><ele>319.16666666666663</ele><time>2026-05-03T10:49:06.007Z</time></trkpt><trkpt lat="42.2419821" lon="13.8145273"><ele>319.0</ele><time>2026-05-03T10:49:07.007Z</time></trkpt><trkpt lat="42.2418966" lon="13.8146128"><ele>319.0</ele><time>2026-05-03T10:49:09.006Z</time></trkpt><trkpt lat="42.2418598" lon="13.8147488"><ele>319.0</ele><time>2026-05-03T10:49:11.007Z</time></trkpt><trkpt lat="42.2418167" lon="13.8149241"><ele>319.0</ele><time>2026-05-03T10:49:13.007Z</time></trkpt><trkpt lat="42.2417859" lon="13.8150282"><ele>319.0</ele><time>2026-05-03T10:49:14.007Z</time></trkpt><trkpt lat="42.2417566" lon="13.8151393"><ele>319.0</ele><time>2026-05-03T10:49:15.006Z</time></trkpt><trkpt lat="42.2417223" lon="13.8152499"><ele>319.3333333333333</ele><time>2026-05-03T10:49:16.006Z</time></trkpt><trkpt lat="42.2416838" lon="13.8153677"><ele>319.66666666666663</ele><time>2026-05-03T10:49:17.006Z</time></trkpt><trkpt lat="42.2416599" lon="13.8155007"><ele>320.0</ele><time>2026-05-03T10:49:18.006Z</time></trkpt><trkpt lat="42.2416544" lon="13.8156294"><ele>320.3333333333333</ele><time>2026-05-03T10:49:19.006Z</time></trkpt><trkpt lat="42.241656" lon="13.8157414"><ele>320.6666666666667</ele><time>2026-05-03T10:49:20.006Z</time></trkpt><trkpt lat="42.2416404" lon="13.8158377"><ele>321.0</ele><time>2026-05-03T10:49:21.006Z</time></trkpt><trkpt lat="42.241596" lon="13.8159228"><ele>322.6</ele><time>2026-05-03T10:49:22.007Z</time></trkpt><trkpt lat="42.241527" lon="13.8160073"><ele>324.20000000000005</ele><time>2026-05-03T10:49:23.007Z</time></trkpt><trkpt lat="42.241451" lon="13.8160896"><ele>325.79999999999995</ele><time>2026-05-03T10:49:24.006Z</time></trkpt><trkpt lat="42.2413582" lon="13.816163"><ele>327.4</ele><time>2026-05-03T10:49:25.006Z</time></trkpt><trkpt lat="42.2412619" lon="13.8162211"><ele>329.0</ele><time>2026-05-03T10:49:26.006Z</time></trkpt><trkpt lat="42.2411737" lon="13.8162522"><ele>329.0</ele><time>2026-05-03T10:49:27.006Z</time></trkpt><trkpt lat="42.2410711" lon="13.8162723"><ele>329.0</ele><time>2026-05-03T10:49:28.006Z</time></trkpt><trkpt lat="42.2409548" lon="13.8162863"><ele>329.0</ele><time>2026-05-03T10:49:29.007Z</time></trkpt><trkpt lat="42.2408296" lon="13.8162966"><ele>329.0</ele><time>2026-05-03T10:49:30.007Z</time></trkpt><trkpt lat="42.2407057" lon="13.816302"><ele>328.5</ele><time>2026-05-03T10:49:31.007Z</time></trkpt><trkpt lat="42.2405783" lon="13.8163081"><ele>328.0</ele><time>2026-05-03T10:49:32.006Z</time></trkpt><trkpt lat="42.2404453" lon="13.8163158"><ele>327.5</ele><time>2026-05-03T10:49:33.007Z</time></trkpt><trkpt lat="42.2403168" lon="13.8163241"><ele>327.0</ele><time>2026-05-03T10:49:34.007Z</time></trkpt><trkpt lat="42.240192" lon="13.8163398"><ele>327.0</ele><time>2026-05-03T10:49:35.006Z</time></trkpt><trkpt lat="42.2400759" lon="13.8163546"><ele>327.0</ele><time>2026-05-03T10:49:36.006Z</time></trkpt><trkpt lat="42.2399683" lon="13.8163797"><ele>327.0</ele><time>2026-05-03T10:49:37.007Z</time></trkpt><trkpt lat="42.2398599" lon="13.8164284"><ele>327.0</ele><time>2026-05-03T10:49:38.007Z</time></trkpt><trkpt lat="42.2397504" lon="13.8164766"><ele>326.3333333333333</ele><time>2026-05-03T10:49:39.006Z</time></trkpt><trkpt lat="42.2396426" lon="13.8164994"><ele>325.6666666666667</ele><time>2026-05-03T10:49:40.006Z</time></trkpt><trkpt lat="42.2395541" lon="13.8165041"><ele>325.0</ele><time>2026-05-03T10:49:41.006Z</time></trkpt><trkpt lat="42.2394834" lon="13.8164981"><ele>324.33333333333337</ele><time>2026-05-03T10:49:42.007Z</time></trkpt><trkpt lat="42.2394217" lon="13.8164685"><ele>323.6666666666667</ele><time>2026-05-03T10:49:44.007Z</time></trkpt><trkpt lat="42.2393974" lon="13.8163543"><ele>323.0</ele><time>2026-05-03T10:49:48.007Z</time></trkpt><trkpt lat="42.239351" lon="13.8162637"><ele>323.0</ele><time>2026-05-03T10:49:51.007Z</time></trkpt><trkpt lat="42.2392988" lon="13.8162081"><ele>323.0</ele><time>2026-05-03T10:49:53.006Z</time></trkpt><trkpt lat="42.2392193" lon="13.8161953"><ele>323.0</ele><time>2026-05-03T10:49:55.006Z</time></trkpt><trkpt lat="42.2391261" lon="13.8161932"><ele>323.0</ele><time>2026-05-03T10:49:57.006Z</time></trkpt><trkpt lat="42.2390169" lon="13.8161561"><ele>323.0</ele><time>2026-05-03T10:49:59.006Z</time></trkpt><trkpt lat="42.2389129" lon="13.8161503"><ele>322.33333333333337</ele><time>2026-05-03T10:50:01.006Z</time></trkpt><trkpt lat="42.2388032" lon="13.8161214"><ele>321.6666666666667</ele><time>2026-05-03T10:50:03.007Z</time></trkpt><trkpt lat="42.2387371" lon="13.8160938"><ele>321.0</ele><time>2026-05-03T10:50:04.006Z</time></trkpt><trkpt lat="42.2386559" lon="13.8160805"><ele>320.3333333333333</ele><time>2026-05-03T10:50:05.007Z</time></trkpt><trkpt lat="42.2385719" lon="13.816086"><ele>319.66666666666663</ele><time>2026-05-03T10:50:06.006Z</time></trkpt><trkpt lat="42.2384812" lon="13.8161052"><ele>319.0</ele><time>2026-05-03T10:50:07.007Z</time></trkpt><trkpt lat="42.2383734" lon="13.8161508"><ele>319.0</ele><time>2026-05-03T10:50:08.007Z</time></trkpt><trkpt lat="42.238269" lon="13.8161996"><ele>319.0</ele><time>2026-05-03T10:50:09.007Z</time></trkpt><trkpt lat="42.2381712" lon="13.8162471"><ele>319.0</ele><time>2026-05-03T10:50:10.006Z</time></trkpt><trkpt lat="42.2380788" lon="13.8162901"><ele>319.0</ele><time>2026-05-03T10:50:11.006Z</time></trkpt><trkpt lat="42.2379886" lon="13.8163248"><ele>319.0</ele><time>2026-05-03T10:50:12.006Z</time></trkpt><trkpt lat="42.2379061" lon="13.8163584"><ele>319.0</ele><time>2026-05-03T10:50:13.006Z</time></trkpt><trkpt lat="42.2378257" lon="13.8164009"><ele>319.0</ele><time>2026-05-03T10:50:14.007Z</time></trkpt><trkpt lat="42.2377405" lon="13.8164532"><ele>319.0</ele><time>2026-05-03T10:50:15.006Z</time></trkpt><trkpt lat="42.2376432" lon="13.8164998"><ele>319.0</ele><time>2026-05-03T10:50:16.006Z</time></trkpt><trkpt lat="42.2375391" lon="13.816556"><ele>319.0</ele><time>2026-05-03T10:50:17.006Z</time></trkpt><trkpt lat="42.2374249" lon="13.8166106"><ele>319.0</ele><time>2026-05-03T10:50:18.006Z</time></trkpt><trkpt lat="42.23731" lon="13.816661"><ele>319.0</ele><time>2026-05-03T10:50:19.007Z</time></trkpt><trkpt lat="42.2371975" lon="13.8167011"><ele>319.0</ele><time>2026-05-03T10:50:20.007Z</time></trkpt><trkpt lat="42.2370956" lon="13.8167283"><ele>319.0</ele><time>2026-05-03T10:50:21.006Z</time></trkpt><trkpt lat="42.2370062" lon="13.8167477"><ele>319.0</ele><time>2026-05-03T10:50:22.006Z</time></trkpt><trkpt lat="42.2369192" lon="13.8167476"><ele>319.16666666666663</ele><time>2026-05-03T10:50:23.007Z</time></trkpt><trkpt lat="42.2368383" lon="13.8167381"><ele>319.3333333333333</ele><time>2026-05-03T10:50:24.007Z</time></trkpt><trkpt lat="42.2367547" lon="13.8167194"><ele>319.5</ele><time>2026-05-03T10:50:25.006Z</time></trkpt><trkpt lat="42.2366748" lon="13.8167002"><ele>319.6666666666667</ele><time>2026-05-03T10:50:26.006Z</time></trkpt><trkpt lat="42.2365991" lon="13.8166721"><ele>319.83333333333337</ele><time>2026-05-03T10:50:27.006Z</time></trkpt><trkpt lat="42.2365189" lon="13.8166283"><ele>320.0</ele><time>2026-05-03T10:50:28.007Z</time></trkpt><trkpt lat="42.2364412" lon="13.8165729"><ele>320.33333333333337</ele><time>2026-05-03T10:50:29.006Z</time></trkpt><trkpt lat="42.2363645" lon="13.816518"><ele>320.6666666666667</ele><time>2026-05-03T10:50:30.007Z</time></trkpt><trkpt lat="42.2362889" lon="13.8164645"><ele>321.0</ele><time>2026-05-03T10:50:31.007Z</time></trkpt><trkpt lat="42.2362196" lon="13.8164036"><ele>321.3333333333333</ele><time>2026-05-03T10:50:32.006Z</time></trkpt><trkpt lat="42.2361497" lon="13.8163403"><ele>321.66666666666663</ele><time>2026-05-03T10:50:33.006Z</time></trkpt><trkpt lat="42.2360843" lon="13.8162848"><ele>322.0</ele><time>2026-05-03T10:50:34.006Z</time></trkpt><trkpt lat="42.2360133" lon="13.8162469"><ele>322.0</ele><time>2026-05-03T10:50:35.007Z</time></trkpt><trkpt lat="42.2359362" lon="13.8162269"><ele>322.0</ele><time>2026-05-03T10:50:36.007Z</time></trkpt><trkpt lat="42.2358658" lon="13.816228"><ele>322.0</ele><time>2026-05-03T10:50:37.006Z</time></trkpt><trkpt lat="42.2357966" lon="13.8162346"><ele>322.0</ele><time>2026-05-03T10:50:38.006Z</time></trkpt><trkpt lat="42.235727" lon="13.8162481"><ele>322.0</ele><time>2026-05-03T10:50:39.006Z</time></trkpt><trkpt lat="42.2356558" lon="13.8162726"><ele>322.0</ele><time>2026-05-03T10:50:40.006Z</time></trkpt><trkpt lat="42.2355908" lon="13.816306"><ele>322.0</ele><time>2026-05-03T10:50:41.006Z</time></trkpt><trkpt lat="42.2355283" lon="13.8163445"><ele>321.3333333333333</ele><time>2026-05-03T10:50:42.007Z</time></trkpt><trkpt lat="42.2354721" lon="13.8163901"><ele>320.66666666666663</ele><time>2026-05-03T10:50:43.006Z</time></trkpt><trkpt lat="42.2354164" lon="13.8164404"><ele>320.0</ele><time>2026-05-03T10:50:44.007Z</time></trkpt><trkpt lat="42.2353634" lon="13.8165196"><ele>319.3333333333333</ele><time>2026-05-03T10:50:45.007Z</time></trkpt><trkpt lat="42.2353191" lon="13.816618"><ele>318.6666666666667</ele><time>2026-05-03T10:50:46.006Z</time></trkpt><trkpt lat="42.2352755" lon="13.8167175"><ele>318.0</ele><time>2026-05-03T10:50:47.007Z</time></trkpt><trkpt lat="42.235228" lon="13.8168152"><ele>318.75</ele><time>2026-05-03T10:50:48.006Z</time></trkpt><trkpt lat="42.2351769" lon="13.816922"><ele>319.5</ele><time>2026-05-03T10:50:49.006Z</time></trkpt><trkpt lat="42.2351168" lon="13.817054"><ele>320.25</ele><time>2026-05-03T10:50:50.007Z</time></trkpt><trkpt lat="42.2350497" lon="13.8171943"><ele>321.0</ele><time>2026-05-03T10:50:51.007Z</time></trkpt><trkpt lat="42.2349704" lon="13.817335"><ele>321.0</ele><time>2026-05-03T10:50:52.006Z</time></trkpt><trkpt lat="42.2348765" lon="13.8174783"><ele>321.0</ele><time>2026-05-03T10:50:53.006Z</time></trkpt><trkpt lat="42.2347747" lon="13.8176244"><ele>321.0</ele><time>2026-05-03T10:50:54.007Z</time></trkpt><trkpt lat="42.2346722" lon="13.8177721"><ele>321.0</ele><time>2026-05-03T10:50:55.007Z</time></trkpt><trkpt lat="42.2345667" lon="13.8179184"><ele>322.6666666666667</ele><time>2026-05-03T10:50:56.007Z</time></trkpt><trkpt lat="42.2344481" lon="13.8180576"><ele>324.33333333333337</ele><time>2026-05-03T10:50:57.006Z</time></trkpt><trkpt lat="42.2343122" lon="13.8181887"><ele>326.0</ele><time>2026-05-03T10:50:58.007Z</time></trkpt><trkpt lat="42.2341697" lon="13.8183036"><ele>326.0</ele><time>2026-05-03T10:50:59.007Z</time></trkpt><trkpt lat="42.2340128" lon="13.8184051"><ele>326.0</ele><time>2026-05-03T10:51:00.006Z</time></trkpt><trkpt lat="42.2338533" lon="13.8185098"><ele>326.0</ele><time>2026-05-03T10:51:01.006Z</time></trkpt><trkpt lat="42.2336881" lon="13.8186097"><ele>327.6666666666667</ele><time>2026-05-03T10:51:02.006Z</time></trkpt><trkpt lat="42.2335252" lon="13.8187051"><ele>329.3333333333333</ele><time>2026-05-03T10:51:03.007Z</time></trkpt><trkpt lat="42.2333659" lon="13.8187893"><ele>331.0</ele><time>2026-05-03T10:51:04.007Z</time></trkpt><trkpt lat="42.2332118" lon="13.818862"><ele>327.66666666666663</ele><time>2026-05-03T10:51:05.007Z</time></trkpt><trkpt lat="42.2330638" lon="13.8189281"><ele>324.3333333333333</ele><time>2026-05-03T10:51:06.007Z</time></trkpt><trkpt lat="42.2329083" lon="13.8189868"><ele>321.0</ele><time>2026-05-03T10:51:07.007Z</time></trkpt><trkpt lat="42.2327508" lon="13.8190228"><ele>321.0</ele><time>2026-05-03T10:51:08.006Z</time></trkpt><trkpt lat="42.2325864" lon="13.8190376"><ele>321.0</ele><time>2026-05-03T10:51:09.006Z</time></trkpt><trkpt lat="42.2324085" lon="13.8190402"><ele>321.0</ele><time>2026-05-03T10:51:10.007Z</time></trkpt><trkpt lat="42.2322252" lon="13.8190582"><ele>320.6666666666667</ele><time>2026-05-03T10:51:11.006Z</time></trkpt><trkpt lat="42.2320489" lon="13.8190765"><ele>320.33333333333337</ele><time>2026-05-03T10:51:12.006Z</time></trkpt><trkpt lat="42.2318828" lon="13.8191019"><ele>320.0</ele><time>2026-05-03T10:51:13.006Z</time></trkpt><trkpt lat="42.2317227" lon="13.8191469"><ele>320.0</ele><time>2026-05-03T10:51:14.007Z</time></trkpt><trkpt lat="42.2315693" lon="13.8192104"><ele>320.0</ele><time>2026-05-03T10:51:15.007Z</time></trkpt><trkpt lat="42.2314275" lon="13.8192905"><ele>320.0</ele><time>2026-05-03T10:51:16.007Z</time></trkpt><trkpt lat="42.2312912" lon="13.8193711"><ele>321.6666666666667</ele><time>2026-05-03T10:51:17.007Z</time></trkpt><trkpt lat="42.2311523" lon="13.8194528"><ele>323.3333333333333</ele><time>2026-05-03T10:51:18.007Z</time></trkpt><trkpt lat="42.2310123" lon="13.8195214"><ele>325.0</ele><time>2026-05-03T10:51:19.007Z</time></trkpt><trkpt lat="42.2308628" lon="13.8195657"><ele>325.0</ele><time>2026-05-03T10:51:20.006Z</time></trkpt><trkpt lat="42.2307221" lon="13.8195855"><ele>325.0</ele><time>2026-05-03T10:51:21.007Z</time></trkpt><trkpt lat="42.2306089" lon="13.8196045"><ele>325.0</ele><time>2026-05-03T10:51:22.006Z</time></trkpt><trkpt lat="42.2305132" lon="13.8196284"><ele>325.0</ele><time>2026-05-03T10:51:23.007Z</time></trkpt><trkpt lat="42.2304386" lon="13.8196379"><ele>325.0</ele><time>2026-05-03T10:51:24.007Z</time></trkpt><trkpt lat="42.2303744" lon="13.8196503"><ele>323.6</ele><time>2026-05-03T10:51:25.007Z</time></trkpt><trkpt lat="42.2302578" lon="13.8196706"><ele>322.2</ele><time>2026-05-03T10:51:27.007Z</time></trkpt><trkpt lat="42.230146" lon="13.8196942"><ele>320.8</ele><time>2026-05-03T10:51:29.006Z</time></trkpt><trkpt lat="42.2300428" lon="13.8197069"><ele>319.4</ele><time>2026-05-03T10:51:31.007Z</time></trkpt><trkpt lat="42.2299458" lon="13.819717"><ele>318.0</ele><time>2026-05-03T10:51:33.007Z</time></trkpt><trkpt lat="42.2298383" lon="13.8197183"><ele>318.0</ele><time>2026-05-03T10:51:35.006Z</time></trkpt><trkpt lat="42.2297206" lon="13.8197093"><ele>318.0</ele><time>2026-05-03T10:51:37.006Z</time></trkpt><trkpt lat="42.2296515" lon="13.8197102"><ele>318.0</ele><time>2026-05-03T10:51:38.006Z</time></trkpt><trkpt lat="42.229572" lon="13.8197182"><ele>318.0</ele><time>2026-05-03T10:51:39.007Z</time></trkpt><trkpt lat="42.2294907" lon="13.8197275"><ele>318.0</ele><time>2026-05-03T10:51:40.006Z</time></trkpt><trkpt lat="42.2294075" lon="13.8197293"><ele>318.0</ele><time>2026-05-03T10:51:41.006Z</time></trkpt><trkpt lat="42.2293187" lon="13.81973"><ele>318.0</ele><time>2026-05-03T10:51:42.006Z</time></trkpt><trkpt lat="42.2292178" lon="13.8197245"><ele>318.0</ele><time>2026-05-03T10:51:43.007Z</time></trkpt><trkpt lat="42.2291042" lon="13.819729"><ele>318.0</ele><time>2026-05-03T10:51:44.006Z</time></trkpt><trkpt lat="42.2289827" lon="13.8197394"><ele>318.0</ele><time>2026-05-03T10:51:45.006Z</time></trkpt><trkpt lat="42.2288579" lon="13.8197478"><ele>319.75</ele><time>2026-05-03T10:51:46.007Z</time></trkpt><trkpt lat="42.2287238" lon="13.819755"><ele>321.5</ele><time>2026-05-03T10:51:47.007Z</time></trkpt><trkpt lat="42.2285844" lon="13.8197531"><ele>323.25</ele><time>2026-05-03T10:51:48.007Z</time></trkpt><trkpt lat="42.2284517" lon="13.8197331"><ele>325.0</ele><time>2026-05-03T10:51:49.007Z</time></trkpt><trkpt lat="42.2283146" lon="13.8196978"><ele>325.0</ele><time>2026-05-03T10:51:50.007Z</time></trkpt><trkpt lat="42.2281724" lon="13.8196467"><ele>325.0</ele><time>2026-05-03T10:51:51.007Z</time></trkpt><trkpt lat="42.2280306" lon="13.8196023"><ele>325.0</ele><time>2026-05-03T10:51:52.007Z</time></trkpt><trkpt lat="42.2278851" lon="13.8195759"><ele>325.0</ele><time>2026-05-03T10:51:53.006Z</time></trkpt><trkpt lat="42.2277352" lon="13.8195683"><ele>325.0</ele><time>2026-05-03T10:51:54.006Z</time></trkpt><trkpt lat="42.227588" lon="13.819574"><ele>325.0</ele><time>2026-05-03T10:51:55.006Z</time></trkpt><trkpt lat="42.2274412" lon="13.8195872"><ele>325.0</ele><time>2026-05-03T10:51:56.007Z</time></trkpt><trkpt lat="42.2272929" lon="13.8196002"><ele>325.0</ele><time>2026-05-03T10:51:57.007Z</time></trkpt><trkpt lat="42.2271448" lon="13.8196237"><ele>324.3333333333333</ele><time>2026-05-03T10:51:58.007Z</time></trkpt><trkpt lat="42.2269954" lon="13.8196608"><ele>323.6666666666667</ele><time>2026-05-03T10:51:59.006Z</time></trkpt><trkpt lat="42.226851" lon="13.819713"><ele>323.0</ele><time>2026-05-03T10:52:00.007Z</time></trkpt><trkpt lat="42.2267128" lon="13.8197886"><ele>323.0</ele><time>2026-05-03T10:52:01.007Z</time></trkpt><trkpt lat="42.2265863" lon="13.8198841"><ele>323.0</ele><time>2026-05-03T10:52:02.006Z</time></trkpt><trkpt lat="42.2264741" lon="13.8199975"><ele>323.0</ele><time>2026-05-03T10:52:03.006Z</time></trkpt><trkpt lat="42.2263583" lon="13.8201367"><ele>323.0</ele><time>2026-05-03T10:52:04.007Z</time></trkpt><trkpt lat="42.2262438" lon="13.8203021"><ele>321.33333333333337</ele><time>2026-05-03T10:52:05.007Z</time></trkpt><trkpt lat="42.2261472" lon="13.8204844"><ele>319.6666666666667</ele><time>2026-05-03T10:52:06.007Z</time></trkpt><trkpt lat="42.2260526" lon="13.8206888"><ele>318.0</ele><time>2026-05-03T10:52:07.006Z</time></trkpt><trkpt lat="42.2259513" lon="13.82089"><ele>318.3333333333333</ele><time>2026-05-03T10:52:08.007Z</time></trkpt><trkpt lat="42.2258439" lon="13.8210649"><ele>318.66666666666663</ele><time>2026-05-03T10:52:09.006Z</time></trkpt><trkpt lat="42.2257347" lon="13.8212128"><ele>319.0</ele><time>2026-05-03T10:52:10.006Z</time></trkpt><trkpt lat="42.2256071" lon="13.8213494"><ele>319.0</ele><time>2026-05-03T10:52:11.006Z</time></trkpt><trkpt lat="42.2254697" lon="13.8214566"><ele>319.0</ele><time>2026-05-03T10:52:12.006Z</time></trkpt><trkpt lat="42.2253179" lon="13.8215464"><ele>319.0</ele><time>2026-05-03T10:52:13.007Z</time></trkpt><trkpt lat="42.2251559" lon="13.8216177"><ele>319.0</ele><time>2026-05-03T10:52:14.007Z</time></trkpt><trkpt lat="42.2249896" lon="13.8216698"><ele>319.0</ele><time>2026-05-03T10:52:15.006Z</time></trkpt><trkpt lat="42.2248273" lon="13.8217277"><ele>319.0</ele><time>2026-05-03T10:52:16.006Z</time></trkpt><trkpt lat="42.2246744" lon="13.8217857"><ele>320.3333333333333</ele><time>2026-05-03T10:52:17.006Z</time></trkpt><trkpt lat="42.2245242" lon="13.8218433"><ele>321.6666666666667</ele><time>2026-05-03T10:52:18.006Z</time></trkpt><trkpt lat="42.2243764" lon="13.8219127"><ele>323.0</ele><time>2026-05-03T10:52:19.006Z</time></trkpt><trkpt lat="42.2242377" lon="13.8219979"><ele>323.0</ele><time>2026-05-03T10:52:20.007Z</time></trkpt><trkpt lat="42.2241031" lon="13.8220994"><ele>323.0</ele><time>2026-05-03T10:52:21.007Z</time></trkpt><trkpt lat="42.2239724" lon="13.8222204"><ele>323.0</ele><time>2026-05-03T10:52:22.007Z</time></trkpt><trkpt lat="42.2238366" lon="13.8223498"><ele>322.0</ele><time>2026-05-03T10:52:23.006Z</time></trkpt><trkpt lat="42.2237002" lon="13.8224581"><ele>321.0</ele><time>2026-05-03T10:52:24.007Z</time></trkpt><trkpt lat="42.2235646" lon="13.8225569"><ele>320.0</ele><time>2026-05-03T10:52:25.007Z</time></trkpt><trkpt lat="42.2234298" lon="13.822643"><ele>322.0</ele><time>2026-05-03T10:52:26.007Z</time></trkpt><trkpt lat="42.2233001" lon="13.8226952"><ele>324.0</ele><time>2026-05-03T10:52:27.007Z</time></trkpt><trkpt lat="42.2231731" lon="13.822732"><ele>326.0</ele><time>2026-05-03T10:52:28.007Z</time></trkpt><trkpt lat="42.2230363" lon="13.8227376"><ele>328.0</ele><time>2026-05-03T10:52:29.007Z</time></trkpt><trkpt lat="42.2228906" lon="13.8227139"><ele>328.0</ele><time>2026-05-03T10:52:30.007Z</time></trkpt><trkpt lat="42.2227416" lon="13.8226738"><ele>328.0</ele><time>2026-05-03T10:52:31.006Z</time></trkpt><trkpt lat="42.2225894" lon="13.8226329"><ele>328.0</ele><time>2026-05-03T10:52:32.007Z</time></trkpt><trkpt lat="42.2224331" lon="13.8225896"><ele>327.3333333333333</ele><time>2026-05-03T10:52:33.006Z</time></trkpt><trkpt lat="42.2222714" lon="13.822547"><ele>326.6666666666667</ele><time>2026-05-03T10:52:34.006Z</time></trkpt><trkpt lat="42.2221165" lon="13.8225024"><ele>326.0</ele><time>2026-05-03T10:52:35.007Z</time></trkpt><trkpt lat="42.221965" lon="13.8224479"><ele>326.0</ele><time>2026-05-03T10:52:36.007Z</time></trkpt><trkpt lat="42.221828" lon="13.8223998"><ele>326.0</ele><time>2026-05-03T10:52:37.007Z</time></trkpt><trkpt lat="42.2217084" lon="13.8223521"><ele>326.0</ele><time>2026-05-03T10:52:38.007Z</time></trkpt><trkpt lat="42.2215962" lon="13.822312"><ele>326.0</ele><time>2026-05-03T10:52:39.007Z</time></trkpt><trkpt lat="42.2214877" lon="13.8222759"><ele>326.75</ele><time>2026-05-03T10:52:40.006Z</time></trkpt><trkpt lat="42.2213741" lon="13.822246"><ele>327.5</ele><time>2026-05-03T10:52:41.006Z</time></trkpt><trkpt lat="42.2212473" lon="13.8222316"><ele>328.25</ele><time>2026-05-03T10:52:42.007Z</time></trkpt><trkpt lat="42.2211156" lon="13.8222258"><ele>329.0</ele><time>2026-05-03T10:52:43.007Z</time></trkpt><trkpt lat="42.2209848" lon="13.8222325"><ele>329.0</ele><time>2026-05-03T10:52:44.006Z</time></trkpt><trkpt lat="42.2208614" lon="13.8222545"><ele>329.0</ele><time>2026-05-03T10:52:45.006Z</time></trkpt><trkpt lat="42.2207471" lon="13.8223251"><ele>329.0</ele><time>2026-05-03T10:52:46.007Z</time></trkpt><trkpt lat="42.2206464" lon="13.8224098"><ele>329.0</ele><time>2026-05-03T10:52:47.007Z</time></trkpt><trkpt lat="42.2205493" lon="13.8225259"><ele>327.75</ele><time>2026-05-03T10:52:48.006Z</time></trkpt><trkpt lat="42.2204429" lon="13.8226539"><ele>326.5</ele><time>2026-05-03T10:52:49.007Z</time></trkpt><trkpt lat="42.2203384" lon="13.8227914"><ele>325.25</ele><time>2026-05-03T10:52:50.007Z</time></trkpt><trkpt lat="42.2202334" lon="13.8229243"><ele>324.0</ele><time>2026-05-03T10:52:51.006Z</time></trkpt><trkpt lat="42.2201243" lon="13.8230532"><ele>324.0</ele><time>2026-05-03T10:52:52.006Z</time></trkpt><trkpt lat="42.2200224" lon="13.8231724"><ele>324.0</ele><time>2026-05-03T10:52:53.007Z</time></trkpt><trkpt lat="42.2199194" lon="13.823276"><ele>324.0</ele><time>2026-05-03T10:52:54.006Z</time></trkpt><trkpt lat="42.2198218" lon="13.8233944"><ele>324.0</ele><time>2026-05-03T10:52:55.006Z</time></trkpt><trkpt lat="42.2197264" lon="13.823508"><ele>323.25</ele><time>2026-05-03T10:52:56.007Z</time></trkpt><trkpt lat="42.2196245" lon="13.8236179"><ele>322.5</ele><time>2026-05-03T10:52:57.007Z</time></trkpt><trkpt lat="42.2195037" lon="13.8237183"><ele>321.75</ele><time>2026-05-03T10:52:58.007Z</time></trkpt><trkpt lat="42.2193672" lon="13.8238082"><ele>321.0</ele><time>2026-05-03T10:52:59.007Z</time></trkpt><trkpt lat="42.2192166" lon="13.823885"><ele>321.0</ele><time>2026-05-03T10:53:00.006Z</time></trkpt><trkpt lat="42.2190656" lon="13.8239552"><ele>321.0</ele><time>2026-05-03T10:53:01.007Z</time></trkpt><trkpt lat="42.2189269" lon="13.8240271"><ele>321.0</ele><time>2026-05-03T10:53:02.007Z</time></trkpt><trkpt lat="42.2187953" lon="13.8240954"><ele>321.0</ele><time>2026-05-03T10:53:03.006Z</time></trkpt><trkpt lat="42.2186732" lon="13.8241563"><ele>321.25</ele><time>2026-05-03T10:53:04.007Z</time></trkpt><trkpt lat="42.2185538" lon="13.8242149"><ele>321.5</ele><time>2026-05-03T10:53:05.006Z</time></trkpt><trkpt lat="42.2184362" lon="13.8242631"><ele>321.75</ele><time>2026-05-03T10:53:06.007Z</time></trkpt><trkpt lat="42.2183327" lon="13.8243113"><ele>322.0</ele><time>2026-05-03T10:53:07.006Z</time></trkpt><trkpt lat="42.2182349" lon="13.8243498"><ele>322.40000000000003</ele><time>2026-05-03T10:53:08.007Z</time></trkpt><trkpt lat="42.2181419" lon="13.8243771"><ele>322.8</ele><time>2026-05-03T10:53:09.007Z</time></trkpt><trkpt lat="42.2180509" lon="13.8243953"><ele>323.2</ele><time>2026-05-03T10:53:10.006Z</time></trkpt><trkpt lat="42.2179578" lon="13.824427"><ele>323.6</ele><time>2026-05-03T10:53:11.007Z</time></trkpt><trkpt lat="42.2178547" lon="13.8244773"><ele>324.0</ele><time>2026-05-03T10:53:12.007Z</time></trkpt><trkpt lat="42.2177513" lon="13.8245285"><ele>324.0</ele><time>2026-05-03T10:53:13.006Z</time></trkpt><trkpt lat="42.2176551" lon="13.8245771"><ele>324.0</ele><time>2026-05-03T10:53:14.007Z</time></trkpt><trkpt lat="42.2175667" lon="13.8246296"><ele>324.0</ele><time>2026-05-03T10:53:15.006Z</time></trkpt><trkpt lat="42.2174806" lon="13.8246783"><ele>324.0</ele><time>2026-05-03T10:53:16.007Z</time></trkpt><trkpt lat="42.2173999" lon="13.8247261"><ele>324.0</ele><time>2026-05-03T10:53:17.007Z</time></trkpt><trkpt lat="42.2173202" lon="13.8247684"><ele>323.6666666666667</ele><time>2026-05-03T10:53:18.007Z</time></trkpt><trkpt lat="42.2172516" lon="13.8248117"><ele>323.3333333333333</ele><time>2026-05-03T10:53:19.007Z</time></trkpt><trkpt lat="42.2171927" lon="13.8248461"><ele>323.0</ele><time>2026-05-03T10:53:20.006Z</time></trkpt><trkpt lat="42.2171108" lon="13.8248808"><ele>322.66666666666663</ele><time>2026-05-03T10:53:22.007Z</time></trkpt><trkpt lat="42.2170161" lon="13.8248535"><ele>322.3333333333333</ele><time>2026-05-03T10:53:37.007Z</time></trkpt><trkpt lat="42.2169347" lon="13.8247288"><ele>322.0</ele><time>2026-05-03T10:53:39.007Z</time></trkpt><trkpt lat="42.2168901" lon="13.8246309"><ele>322.0</ele><time>2026-05-03T10:53:40.006Z</time></trkpt><trkpt lat="42.2168486" lon="13.8245223"><ele>322.0</ele><time>2026-05-03T10:53:41.006Z</time></trkpt><trkpt lat="42.216794" lon="13.8244013"><ele>322.0</ele><time>2026-05-03T10:53:42.007Z</time></trkpt><trkpt lat="42.2167378" lon="13.8242736"><ele>322.0</ele><time>2026-05-03T10:53:43.007Z</time></trkpt><trkpt lat="42.2166845" lon="13.8241463"><ele>322.0</ele><time>2026-05-03T10:53:44.007Z</time></trkpt><trkpt lat="42.2166395" lon="13.824024"><ele>321.40000000000003</ele><time>2026-05-03T10:53:45.006Z</time></trkpt><trkpt lat="42.2165953" lon="13.8239124"><ele>320.8</ele><time>2026-05-03T10:53:46.006Z</time></trkpt><trkpt lat="42.2165466" lon="13.8238035"><ele>320.2</ele><time>2026-05-03T10:53:47.007Z</time></trkpt><trkpt lat="42.2164964" lon="13.8236891"><ele>319.6</ele><time>2026-05-03T10:53:48.006Z</time></trkpt><trkpt lat="42.2164495" lon="13.8235748"><ele>319.0</ele><time>2026-05-03T10:53:49.006Z</time></trkpt><trkpt lat="42.2164022" lon="13.8234558"><ele>317.8</ele><time>2026-05-03T10:53:50.007Z</time></trkpt><trkpt lat="42.2163496" lon="13.8233345"><ele>316.59999999999997</ele><time>2026-05-03T10:53:51.006Z</time></trkpt><trkpt lat="42.216297" lon="13.8232071"><ele>315.4</ele><time>2026-05-03T10:53:52.006Z</time></trkpt><trkpt lat="42.2162459" lon="13.823079"><ele>314.2</ele><time>2026-05-03T10:53:53.007Z</time></trkpt><trkpt lat="42.2161978" lon="13.8229605"><ele>313.0</ele><time>2026-05-03T10:53:54.006Z</time></trkpt><trkpt lat="42.216152" lon="13.8228509"><ele>313.0</ele><time>2026-05-03T10:53:55.006Z</time></trkpt><trkpt lat="42.216108" lon="13.8227443"><ele>313.0</ele><time>2026-05-03T10:53:56.007Z</time></trkpt><trkpt lat="42.2160623" lon="13.8226447"><ele>313.0</ele><time>2026-05-03T10:53:57.007Z</time></trkpt><trkpt lat="42.2160159" lon="13.8225432"><ele>313.0</ele><time>2026-05-03T10:53:58.007Z</time></trkpt><trkpt lat="42.2159591" lon="13.8224541"><ele>313.0</ele><time>2026-05-03T10:53:59.006Z</time></trkpt><trkpt lat="42.2158794" lon="13.8223814"><ele>313.0</ele><time>2026-05-03T10:54:00.006Z</time></trkpt><trkpt lat="42.2157813" lon="13.8223289"><ele>313.4</ele><time>2026-05-03T10:54:01.006Z</time></trkpt><trkpt lat="42.2156765" lon="13.822301"><ele>313.8</ele><time>2026-05-03T10:54:02.007Z</time></trkpt><trkpt lat="42.2155726" lon="13.8222984"><ele>314.2</ele><time>2026-05-03T10:54:03.007Z</time></trkpt><trkpt lat="42.2154623" lon="13.82232"><ele>314.6</ele><time>2026-05-03T10:54:04.007Z</time></trkpt><trkpt lat="42.2153526" lon="13.8223682"><ele>315.0</ele><time>2026-05-03T10:54:05.007Z</time></trkpt><trkpt lat="42.2152443" lon="13.8224332"><ele>315.5</ele><time>2026-05-03T10:54:06.007Z</time></trkpt><trkpt lat="42.2151325" lon="13.8224965"><ele>316.0</ele><time>2026-05-03T10:54:07.006Z</time></trkpt><trkpt lat="42.2150225" lon="13.8225507"><ele>316.5</ele><time>2026-05-03T10:54:08.007Z</time></trkpt><trkpt lat="42.2149162" lon="13.8226149"><ele>317.0</ele><time>2026-05-03T10:54:09.006Z</time></trkpt><trkpt lat="42.2148109" lon="13.8226751"><ele>317.0</ele><time>2026-05-03T10:54:10.006Z</time></trkpt><trkpt lat="42.2147121" lon="13.8227295"><ele>317.0</ele><time>2026-05-03T10:54:11.006Z</time></trkpt><trkpt lat="42.2146197" lon="13.8227673"><ele>317.0</ele><time>2026-05-03T10:54:12.006Z</time></trkpt><trkpt lat="42.2145303" lon="13.8227828"><ele>317.0</ele><time>2026-05-03T10:54:13.006Z</time></trkpt><trkpt lat="42.2144448" lon="13.8227621"><ele>317.0</ele><time>2026-05-03T10:54:14.007Z</time></trkpt><trkpt lat="42.2143688" lon="13.8227062"><ele>317.0</ele><time>2026-05-03T10:54:15.006Z</time></trkpt><trkpt lat="42.214288" lon="13.8226439"><ele>317.0</ele><time>2026-05-03T10:54:16.007Z</time></trkpt><trkpt lat="42.2142236" lon="13.8225721"><ele>317.0</ele><time>2026-05-03T10:54:17.006Z</time></trkpt><trkpt lat="42.214174" lon="13.8224954"><ele>317.0</ele><time>2026-05-03T10:54:18.006Z</time></trkpt><trkpt lat="42.2141304" lon="13.8224171"><ele>317.0</ele><time>2026-05-03T10:54:19.007Z</time></trkpt><trkpt lat="42.2140656" lon="13.8223037"><ele>317.0</ele><time>2026-05-03T10:54:21.007Z</time></trkpt><trkpt lat="42.2140211" lon="13.8221873"><ele>317.0</ele><time>2026-05-03T10:54:23.007Z</time></trkpt><trkpt lat="42.2139729" lon="13.8220996"><ele>317.0</ele><time>2026-05-03T10:54:26.006Z</time></trkpt><trkpt lat="42.2138858" lon="13.822075"><ele>317.0</ele><time>2026-05-03T10:54:28.006Z</time></trkpt><trkpt lat="42.2137773" lon="13.8220923"><ele>317.0</ele><time>2026-05-03T10:54:30.006Z</time></trkpt><trkpt lat="42.2137058" lon="13.8221115"><ele>317.0</ele><time>2026-05-03T10:54:31.006Z</time></trkpt><trkpt lat="42.213629" lon="13.8221425"><ele>317.0</ele><time>2026-05-03T10:54:32.007Z</time></trkpt><trkpt lat="42.21356" lon="13.8221719"><ele>317.0</ele><time>2026-05-03T10:54:33.006Z</time></trkpt><trkpt lat="42.2134932" lon="13.8222022"><ele>317.0</ele><time>2026-05-03T10:54:34.006Z</time></trkpt><trkpt lat="42.2134274" lon="13.8222281"><ele>317.0</ele><time>2026-05-03T10:54:35.007Z</time></trkpt><trkpt lat="42.2133515" lon="13.8222526"><ele>317.0</ele><time>2026-05-03T10:54:36.006Z</time></trkpt><trkpt lat="42.2132738" lon="13.822264"><ele>317.0</ele><time>2026-05-03T10:54:37.006Z</time></trkpt><trkpt lat="42.2132042" lon="13.8222695"><ele>317.0</ele><time>2026-05-03T10:54:38.007Z</time></trkpt><trkpt lat="42.2131173" lon="13.8221843"><ele>316.6</ele><time>2026-05-03T10:54:40.006Z</time></trkpt><trkpt lat="42.2131078" lon="13.822044"><ele>316.2</ele><time>2026-05-03T10:54:42.006Z</time></trkpt><trkpt lat="42.2131194" lon="13.8218675"><ele>315.8</ele><time>2026-05-03T10:54:44.007Z</time></trkpt><trkpt lat="42.2131276" lon="13.8217613"><ele>315.4</ele><time>2026-05-03T10:54:45.007Z</time></trkpt><trkpt lat="42.2131384" lon="13.8216436"><ele>315.0</ele><time>2026-05-03T10:54:46.006Z</time></trkpt><trkpt lat="42.2131516" lon="13.8215137"><ele>315.0</ele><time>2026-05-03T10:54:47.007Z</time></trkpt><trkpt lat="42.2131672" lon="13.8213809"><ele>315.0</ele><time>2026-05-03T10:54:48.007Z</time></trkpt><trkpt lat="42.2131819" lon="13.8212384"><ele>315.0</ele><time>2026-05-03T10:54:49.007Z</time></trkpt><trkpt lat="42.2131944" lon="13.8210902"><ele>315.0</ele><time>2026-05-03T10:54:50.006Z</time></trkpt><trkpt lat="42.2132016" lon="13.8209431"><ele>315.0</ele><time>2026-05-03T10:54:51.007Z</time></trkpt><trkpt lat="42.2131977" lon="13.8208102"><ele>315.0</ele><time>2026-05-03T10:54:52.007Z</time></trkpt><trkpt lat="42.2131874" lon="13.820674"><ele>315.0</ele><time>2026-05-03T10:54:53.007Z</time></trkpt><trkpt lat="42.2131749" lon="13.8205391"><ele>315.0</ele><time>2026-05-03T10:54:54.006Z</time></trkpt><trkpt lat="42.2131575" lon="13.8204076"><ele>315.0</ele><time>2026-05-03T10:54:55.007Z</time></trkpt><trkpt lat="42.2131563" lon="13.8202871"><ele>315.0</ele><time>2026-05-03T10:54:56.007Z</time></trkpt><trkpt lat="42.2131808" lon="13.8201753"><ele>315.0</ele><time>2026-05-03T10:54:57.007Z</time></trkpt><trkpt lat="42.2132325" lon="13.8200791"><ele>315.0</ele><time>2026-05-03T10:54:58.007Z</time></trkpt><trkpt lat="42.2133165" lon="13.8200349"><ele>315.0</ele><time>2026-05-03T10:54:59.006Z</time></trkpt><trkpt lat="42.2133961" lon="13.8200168"><ele>315.0</ele><time>2026-05-03T10:55:00.007Z</time></trkpt><trkpt lat="42.2134743" lon="13.8200567"><ele>315.0</ele><time>2026-05-03T10:55:01.007Z</time></trkpt><trkpt lat="42.213537" lon="13.8201448"><ele>315.0</ele><time>2026-05-03T10:55:02.006Z</time></trkpt><trkpt lat="42.2135612" lon="13.8202342"><ele>315.0</ele><time>2026-05-03T10:55:03.006Z</time></trkpt><trkpt lat="42.2135363" lon="13.8203887"><ele>315.0</ele><time>2026-05-03T10:55:05.007Z</time></trkpt><trkpt lat="42.2134299" lon="13.8204987"><ele>315.0</ele><time>2026-05-03T10:55:07.006Z</time></trkpt><trkpt lat="42.2133515" lon="13.8205614"><ele>315.0</ele><time>2026-05-03T10:55:08.006Z</time></trkpt><trkpt lat="42.213256" lon="13.8206244"><ele>315.0</ele><time>2026-05-03T10:55:09.006Z</time></trkpt><trkpt lat="42.2131532" lon="13.8207012"><ele>315.0</ele><time>2026-05-03T10:55:10.007Z</time></trkpt><trkpt lat="42.2130394" lon="13.8207868"><ele>315.0</ele><time>2026-05-03T10:55:11.006Z</time></trkpt><trkpt lat="42.2129157" lon="13.8208735"><ele>315.0</ele><time>2026-05-03T10:55:12.006Z</time></trkpt><trkpt lat="42.2127746" lon="13.8209672"><ele>315.0</ele><time>2026-05-03T10:55:13.007Z</time></trkpt><trkpt lat="42.21263" lon="13.8210594"><ele>315.0</ele><time>2026-05-03T10:55:14.006Z</time></trkpt><trkpt lat="42.2124825" lon="13.8211469"><ele>315.0</ele><time>2026-05-03T10:55:15.006Z</time></trkpt><trkpt lat="42.2123298" lon="13.8212516"><ele>315.0</ele><time>2026-05-03T10:55:16.006Z</time></trkpt><trkpt lat="42.2121802" lon="13.8213517"><ele>315.3333333333333</ele><time>2026-05-03T10:55:17.006Z</time></trkpt><trkpt lat="42.2120357" lon="13.8214467"><ele>315.66666666666663</ele><time>2026-05-03T10:55:18.007Z</time></trkpt><trkpt lat="42.2118788" lon="13.8215464"><ele>316.0</ele><time>2026-05-03T10:55:19.006Z</time></trkpt><trkpt lat="42.2117212" lon="13.8216495"><ele>316.0</ele><time>2026-05-03T10:55:20.007Z</time></trkpt><trkpt lat="42.2115595" lon="13.8217541"><ele>316.0</ele><time>2026-05-03T10:55:21.007Z</time></trkpt><trkpt lat="42.2113952" lon="13.8218631"><ele>316.0</ele><time>2026-05-03T10:55:22.006Z</time></trkpt><trkpt lat="42.2112273" lon="13.8219699"><ele>314.66666666666663</ele><time>2026-05-03T10:55:23.006Z</time></trkpt><trkpt lat="42.2110656" lon="13.8220745"><ele>313.3333333333333</ele><time>2026-05-03T10:55:24.006Z</time></trkpt><trkpt lat="42.2109042" lon="13.8221804"><ele>312.0</ele><time>2026-05-03T10:55:25.006Z</time></trkpt><trkpt lat="42.210741" lon="13.8222839"><ele>311.6666666666667</ele><time>2026-05-03T10:55:26.006Z</time></trkpt><trkpt lat="42.2105771" lon="13.8223881"><ele>311.33333333333337</ele><time>2026-05-03T10:55:27.006Z</time></trkpt><trkpt lat="42.2104165" lon="13.8224918"><ele>311.0</ele><time>2026-05-03T10:55:28.006Z</time></trkpt><trkpt lat="42.2102587" lon="13.8225955"><ele>311.0</ele><time>2026-05-03T10:55:29.007Z</time></trkpt><trkpt lat="42.210102" lon="13.8226978"><ele>311.0</ele><time>2026-05-03T10:55:30.006Z</time></trkpt><trkpt lat="42.2099534" lon="13.8227936"><ele>311.0</ele><time>2026-05-03T10:55:31.006Z</time></trkpt><trkpt lat="42.2098113" lon="13.8228843"><ele>313.0</ele><time>2026-05-03T10:55:32.007Z</time></trkpt><trkpt lat="42.2096722" lon="13.8229755"><ele>315.0</ele><time>2026-05-03T10:55:33.007Z</time></trkpt><trkpt lat="42.2095348" lon="13.8230678"><ele>317.0</ele><time>2026-05-03T10:55:34.007Z</time></trkpt><trkpt lat="42.209397" lon="13.8231604"><ele>317.0</ele><time>2026-05-03T10:55:35.006Z</time></trkpt><trkpt lat="42.2092598" lon="13.8232516"><ele>317.0</ele><time>2026-05-03T10:55:36.006Z</time></trkpt><trkpt lat="42.2091256" lon="13.8233416"><ele>317.0</ele><time>2026-05-03T10:55:37.006Z</time></trkpt><trkpt lat="42.2089906" lon="13.823444"><ele>317.6666666666667</ele><time>2026-05-03T10:55:38.006Z</time></trkpt><trkpt lat="42.2088564" lon="13.8235608"><ele>318.3333333333333</ele><time>2026-05-03T10:55:39.006Z</time></trkpt><trkpt lat="42.2087207" lon="13.8236764"><ele>319.0</ele><time>2026-05-03T10:55:40.006Z</time></trkpt><trkpt lat="42.2085848" lon="13.8237994"><ele>319.0</ele><time>2026-05-03T10:55:41.007Z</time></trkpt><trkpt lat="42.2084527" lon="13.823932"><ele>319.0</ele><time>2026-05-03T10:55:42.006Z</time></trkpt><trkpt lat="42.2083157" lon="13.8240717"><ele>319.0</ele><time>2026-05-03T10:55:43.007Z</time></trkpt><trkpt lat="42.2081785" lon="13.8242193"><ele>322.3333333333333</ele><time>2026-05-03T10:55:44.006Z</time></trkpt><trkpt lat="42.2080489" lon="13.8243772"><ele>325.6666666666667</ele><time>2026-05-03T10:55:45.007Z</time></trkpt><trkpt lat="42.2079246" lon="13.8245373"><ele>329.0</ele><time>2026-05-03T10:55:46.006Z</time></trkpt><trkpt lat="42.2078038" lon="13.8247145"><ele>329.0</ele><time>2026-05-03T10:55:47.006Z</time></trkpt><trkpt lat="42.2076889" lon="13.8249015"><ele>329.0</ele><time>2026-05-03T10:55:48.007Z</time></trkpt><trkpt lat="42.2075835" lon="13.8250975"><ele>329.0</ele><time>2026-05-03T10:55:49.007Z</time></trkpt><trkpt lat="42.2074785" lon="13.8253084"><ele>332.6666666666667</ele><time>2026-05-03T10:55:50.007Z</time></trkpt><trkpt lat="42.2073754" lon="13.8255187"><ele>336.3333333333333</ele><time>2026-05-03T10:55:51.007Z</time></trkpt><trkpt lat="42.207274" lon="13.825723"><ele>340.0</ele><time>2026-05-03T10:55:52.007Z</time></trkpt><trkpt lat="42.2071707" lon="13.8259233"><ele>331.0</ele><time>2026-05-03T10:55:53.007Z</time></trkpt><trkpt lat="42.2070573" lon="13.826118"><ele>322.0</ele><time>2026-05-03T10:55:54.006Z</time></trkpt><trkpt lat="42.2069357" lon="13.8263046"><ele>313.0</ele><time>2026-05-03T10:55:55.006Z</time></trkpt><trkpt lat="42.206806" lon="13.8264771"><ele>313.0</ele><time>2026-05-03T10:55:56.006Z</time></trkpt><trkpt lat="42.2066783" lon="13.8266376"><ele>313.0</ele><time>2026-05-03T10:55:57.006Z</time></trkpt><trkpt lat="42.2065507" lon="13.8267951"><ele>313.0</ele><time>2026-05-03T10:55:58.007Z</time></trkpt><trkpt lat="42.2064279" lon="13.8269507"><ele>316.66666666666663</ele><time>2026-05-03T10:55:59.007Z</time></trkpt><trkpt lat="42.2063082" lon="13.827115"><ele>320.3333333333333</ele><time>2026-05-03T10:56:00.007Z</time></trkpt><trkpt lat="42.2061967" lon="13.8272867"><ele>324.0</ele><time>2026-05-03T10:56:01.007Z</time></trkpt><trkpt lat="42.2060988" lon="13.8274804"><ele>317.6666666666667</ele><time>2026-05-03T10:56:02.007Z</time></trkpt><trkpt lat="42.2060106" lon="13.8276861"><ele>311.33333333333337</ele><time>2026-05-03T10:56:03.006Z</time></trkpt><trkpt lat="42.2059329" lon="13.8279103"><ele>305.0</ele><time>2026-05-03T10:56:04.006Z</time></trkpt><trkpt lat="42.2058645" lon="13.8281374"><ele>305.0</ele><time>2026-05-03T10:56:05.007Z</time></trkpt><trkpt lat="42.2058094" lon="13.8283763"><ele>305.0</ele><time>2026-05-03T10:56:06.007Z</time></trkpt><trkpt lat="42.2057669" lon="13.828624"><ele>305.0</ele><time>2026-05-03T10:56:07.007Z</time></trkpt><trkpt lat="42.2057237" lon="13.8288778"><ele>308.0</ele><time>2026-05-03T10:56:08.006Z</time></trkpt><trkpt lat="42.205677" lon="13.8291337"><ele>311.0</ele><time>2026-05-03T10:56:09.007Z</time></trkpt><trkpt lat="42.2056327" lon="13.8293889"><ele>314.0</ele><time>2026-05-03T10:56:10.007Z</time></trkpt><trkpt lat="42.2055914" lon="13.8296414"><ele>314.0</ele><time>2026-05-03T10:56:11.006Z</time></trkpt><trkpt lat="42.2055541" lon="13.8298994"><ele>314.0</ele><time>2026-05-03T10:56:12.006Z</time></trkpt><trkpt lat="42.2055151" lon="13.83015"><ele>314.0</ele><time>2026-05-03T10:56:13.007Z</time></trkpt><trkpt lat="42.2054724" lon="13.8304069"><ele>310.6666666666667</ele><time>2026-05-03T10:56:14.007Z</time></trkpt><trkpt lat="42.2054288" lon="13.8306582"><ele>307.3333333333333</ele><time>2026-05-03T10:56:15.006Z</time></trkpt><trkpt lat="42.2053826" lon="13.830909"><ele>304.0</ele><time>2026-05-03T10:56:16.006Z</time></trkpt><trkpt lat="42.2053324" lon="13.831161"><ele>301.3333333333333</ele><time>2026-05-03T10:56:17.006Z</time></trkpt><trkpt lat="42.2052782" lon="13.8314144"><ele>298.6666666666667</ele><time>2026-05-03T10:56:18.006Z</time></trkpt><trkpt lat="42.2052216" lon="13.8316723"><ele>296.0</ele><time>2026-05-03T10:56:19.007Z</time></trkpt><trkpt lat="42.2051505" lon="13.8319228"><ele>291.33333333333337</ele><time>2026-05-03T10:56:20.007Z</time></trkpt><trkpt lat="42.2050744" lon="13.8321694"><ele>286.6666666666667</ele><time>2026-05-03T10:56:21.006Z</time></trkpt><trkpt lat="42.2049881" lon="13.8324199"><ele>282.0</ele><time>2026-05-03T10:56:22.007Z</time></trkpt><trkpt lat="42.204896" lon="13.8326667"><ele>287.6666666666667</ele><time>2026-05-03T10:56:23.007Z</time></trkpt><trkpt lat="42.2048021" lon="13.8329141"><ele>293.33333333333337</ele><time>2026-05-03T10:56:24.007Z</time></trkpt><trkpt lat="42.2047051" lon="13.8331579"><ele>299.0</ele><time>2026-05-03T10:56:25.006Z</time></trkpt><trkpt lat="42.2046052" lon="13.8334028"><ele>293.33333333333337</ele><time>2026-05-03T10:56:26.006Z</time></trkpt><trkpt lat="42.2045083" lon="13.833645"><ele>287.6666666666667</ele><time>2026-05-03T10:56:27.006Z</time></trkpt><trkpt lat="42.2044101" lon="13.8338869"><ele>282.0</ele><time>2026-05-03T10:56:28.007Z</time></trkpt><trkpt lat="42.2043176" lon="13.8341271"><ele>277.0</ele><time>2026-05-03T10:56:29.007Z</time></trkpt><trkpt lat="42.2042214" lon="13.8343721"><ele>272.0</ele><time>2026-05-03T10:56:30.007Z</time></trkpt><trkpt lat="42.2041279" lon="13.834616"><ele>267.0</ele><time>2026-05-03T10:56:31.007Z</time></trkpt><trkpt lat="42.2040336" lon="13.8348612"><ele>269.6666666666667</ele><time>2026-05-03T10:56:32.006Z</time></trkpt><trkpt lat="42.2039411" lon="13.8351072"><ele>272.33333333333337</ele><time>2026-05-03T10:56:33.006Z</time></trkpt><trkpt lat="42.2038418" lon="13.835349"><ele>275.0</ele><time>2026-05-03T10:56:34.007Z</time></trkpt><trkpt lat="42.2037318" lon="13.8355818"><ele>275.0</ele><time>2026-05-03T10:56:35.007Z</time></trkpt><trkpt lat="42.2036118" lon="13.8358069"><ele>275.0</ele><time>2026-05-03T10:56:36.006Z</time></trkpt><trkpt lat="42.2034801" lon="13.8360162"><ele>275.0</ele><time>2026-05-03T10:56:37.007Z</time></trkpt><trkpt lat="42.2033392" lon="13.8362111"><ele>271.33333333333337</ele><time>2026-05-03T10:56:38.007Z</time></trkpt><trkpt lat="42.2031841" lon="13.8363894"><ele>267.6666666666667</ele><time>2026-05-03T10:56:39.006Z</time></trkpt><trkpt lat="42.2030223" lon="13.8365516"><ele>264.0</ele><time>2026-05-03T10:56:40.006Z</time></trkpt><trkpt lat="42.2028505" lon="13.8367009"><ele>260.6666666666667</ele><time>2026-05-03T10:56:41.007Z</time></trkpt><trkpt lat="42.2026759" lon="13.8368313"><ele>257.33333333333337</ele><time>2026-05-03T10:56:42.006Z</time></trkpt><trkpt lat="42.2024915" lon="13.8369394"><ele>254.0</ele><time>2026-05-03T10:56:43.007Z</time></trkpt><trkpt lat="42.2023077" lon="13.837038"><ele>254.0</ele><time>2026-05-03T10:56:44.007Z</time></trkpt><trkpt lat="42.2021165" lon="13.8371199"><ele>254.0</ele><time>2026-05-03T10:56:45.006Z</time></trkpt><trkpt lat="42.2019256" lon="13.8371832"><ele>254.0</ele><time>2026-05-03T10:56:46.006Z</time></trkpt><trkpt lat="42.2017287" lon="13.8372319"><ele>254.0</ele><time>2026-05-03T10:56:47.007Z</time></trkpt><trkpt lat="42.2015344" lon="13.8372681"><ele>254.0</ele><time>2026-05-03T10:56:48.007Z</time></trkpt><trkpt lat="42.201336" lon="13.8372935"><ele>254.0</ele><time>2026-05-03T10:56:49.006Z</time></trkpt><trkpt lat="42.2011372" lon="13.8373192"><ele>255.0</ele><time>2026-05-03T10:56:50.006Z</time></trkpt><trkpt lat="42.2009297" lon="13.8373487"><ele>256.0</ele><time>2026-05-03T10:56:51.007Z</time></trkpt><trkpt lat="42.2007145" lon="13.8373782"><ele>257.0</ele><time>2026-05-03T10:56:52.006Z</time></trkpt><trkpt lat="42.2004986" lon="13.8374112"><ele>259.0</ele><time>2026-05-03T10:56:53.006Z</time></trkpt><trkpt lat="42.2002809" lon="13.8374456"><ele>261.0</ele><time>2026-05-03T10:56:54.007Z</time></trkpt><trkpt lat="42.2000615" lon="13.8374778"><ele>263.0</ele><time>2026-05-03T10:56:55.006Z</time></trkpt><trkpt lat="42.199842" lon="13.8375085"><ele>265.0</ele><time>2026-05-03T10:56:56.007Z</time></trkpt><trkpt lat="42.1996315" lon="13.8375399"><ele>267.0</ele><time>2026-05-03T10:56:57.006Z</time></trkpt><trkpt lat="42.1994268" lon="13.8375722"><ele>269.0</ele><time>2026-05-03T10:56:58.007Z</time></trkpt><trkpt lat="42.1992205" lon="13.8375922"><ele>269.0</ele><time>2026-05-03T10:56:59.007Z</time></trkpt><trkpt lat="42.1990173" lon="13.8375915"><ele>269.0</ele><time>2026-05-03T10:57:00.007Z</time></trkpt><trkpt lat="42.1988165" lon="13.8375595"><ele>269.0</ele><time>2026-05-03T10:57:01.007Z</time></trkpt><trkpt lat="42.198616" lon="13.8375008"><ele>268.0</ele><time>2026-05-03T10:57:02.006Z</time></trkpt><trkpt lat="42.1984179" lon="13.8374481"><ele>267.0</ele><time>2026-05-03T10:57:03.007Z</time></trkpt><trkpt lat="42.1982145" lon="13.8374232"><ele>266.0</ele><time>2026-05-03T10:57:04.007Z</time></trkpt><trkpt lat="42.1979983" lon="13.8374255"><ele>265.33333333333337</ele><time>2026-05-03T10:57:05.007Z</time></trkpt><trkpt lat="42.197784" lon="13.8374581"><ele>264.6666666666667</ele><time>2026-05-03T10:57:06.006Z</time></trkpt><trkpt lat="42.197577" lon="13.8375218"><ele>264.0</ele><time>2026-05-03T10:57:07.006Z</time></trkpt><trkpt lat="42.1973764" lon="13.8376163"><ele>265.6666666666667</ele><time>2026-05-03T10:57:08.006Z</time></trkpt><trkpt lat="42.1971786" lon="13.8377218"><ele>267.33333333333337</ele><time>2026-05-03T10:57:09.007Z</time></trkpt><trkpt lat="42.1969851" lon="13.8378598"><ele>269.0</ele><time>2026-05-03T10:57:10.007Z</time></trkpt><trkpt lat="42.1968004" lon="13.8380325"><ele>269.0</ele><time>2026-05-03T10:57:11.007Z</time></trkpt><trkpt lat="42.1966334" lon="13.838217"><ele>269.0</ele><time>2026-05-03T10:57:12.007Z</time></trkpt><trkpt lat="42.1964759" lon="13.8384303"><ele>269.0</ele><time>2026-05-03T10:57:13.007Z</time></trkpt><trkpt lat="42.1963392" lon="13.8386582"><ele>273.0</ele><time>2026-05-03T10:57:14.007Z</time></trkpt><trkpt lat="42.1962305" lon="13.8389069"><ele>277.0</ele><time>2026-05-03T10:57:15.006Z</time></trkpt><trkpt lat="42.1961387" lon="13.8391774"><ele>281.0</ele><time>2026-05-03T10:57:16.007Z</time></trkpt><trkpt lat="42.1960664" lon="13.8394582"><ele>281.0</ele><time>2026-05-03T10:57:17.007Z</time></trkpt><trkpt lat="42.1960149" lon="13.8397496"><ele>281.0</ele><time>2026-05-03T10:57:18.007Z</time></trkpt><trkpt lat="42.1959838" lon="13.8400468"><ele>281.0</ele><time>2026-05-03T10:57:19.007Z</time></trkpt><trkpt lat="42.1959655" lon="13.8403533"><ele>279.0</ele><time>2026-05-03T10:57:20.007Z</time></trkpt><trkpt lat="42.1959519" lon="13.8406551"><ele>277.0</ele><time>2026-05-03T10:57:21.006Z</time></trkpt><trkpt lat="42.1959413" lon="13.8409539"><ele>275.0</ele><time>2026-05-03T10:57:22.006Z</time></trkpt><trkpt lat="42.1959162" lon="13.8412523"><ele>272.33333333333337</ele><time>2026-05-03T10:57:23.006Z</time></trkpt><trkpt lat="42.195869" lon="13.8415362"><ele>269.6666666666667</ele><time>2026-05-03T10:57:24.006Z</time></trkpt><trkpt lat="42.1958004" lon="13.8418099"><ele>267.0</ele><time>2026-05-03T10:57:25.007Z</time></trkpt><trkpt lat="42.1957076" lon="13.84206"><ele>283.6666666666667</ele><time>2026-05-03T10:57:26.006Z</time></trkpt><trkpt lat="42.195601" lon="13.8422848"><ele>300.33333333333337</ele><time>2026-05-03T10:57:27.007Z</time></trkpt><trkpt lat="42.1954863" lon="13.8424945"><ele>317.0</ele><time>2026-05-03T10:57:28.006Z</time></trkpt><trkpt lat="42.1952186" lon="13.8428796"><ele>247.0</ele><time>2026-05-03T10:57:30.007Z</time></trkpt><trkpt lat="42.1917384" lon="13.846462"><ele>247.0</ele><time>2026-05-03T10:57:51.006Z</time></trkpt><trkpt lat="42.1915752" lon="13.846605"><ele>247.0</ele><time>2026-05-03T10:57:52.006Z</time></trkpt><trkpt lat="42.1914407" lon="13.8467548"><ele>247.0</ele><time>2026-05-03T10:57:53.007Z</time></trkpt><trkpt lat="42.1913043" lon="13.8468892"><ele>246.0</ele><time>2026-05-03T10:57:54.007Z</time></trkpt><trkpt lat="42.1911809" lon="13.8470103"><ele>245.0</ele><time>2026-05-03T10:57:55.006Z</time></trkpt><trkpt lat="42.1910654" lon="13.8471485"><ele>244.0</ele><time>2026-05-03T10:57:56.006Z</time></trkpt><trkpt lat="42.1909518" lon="13.8472713"><ele>244.0</ele><time>2026-05-03T10:57:57.007Z</time></trkpt><trkpt lat="42.1908271" lon="13.8473346"><ele>244.0</ele><time>2026-05-03T10:57:58.006Z</time></trkpt><trkpt lat="42.1907202" lon="13.8474179"><ele>244.0</ele><time>2026-05-03T10:57:59.006Z</time></trkpt><trkpt lat="42.1906112" lon="13.8474851"><ele>244.0</ele><time>2026-05-03T10:58:00.006Z</time></trkpt><trkpt lat="42.1905065" lon="13.84753"><ele>244.2</ele><time>2026-05-03T10:58:01.006Z</time></trkpt><trkpt lat="42.1903991" lon="13.8475546"><ele>244.39999999999998</ele><time>2026-05-03T10:58:02.006Z</time></trkpt><trkpt lat="42.1903079" lon="13.8476039"><ele>244.6</ele><time>2026-05-03T10:58:03.007Z</time></trkpt><trkpt lat="42.1902379" lon="13.8476618"><ele>244.8</ele><time>2026-05-03T10:58:04.006Z</time></trkpt><trkpt lat="42.1901904" lon="13.8477502"><ele>245.0</ele><time>2026-05-03T10:58:05.007Z</time></trkpt><trkpt lat="42.1901631" lon="13.8478645"><ele>246.6</ele><time>2026-05-03T10:58:06.007Z</time></trkpt><trkpt lat="42.1901751" lon="13.8479738"><ele>248.2</ele><time>2026-05-03T10:58:07.006Z</time></trkpt><trkpt lat="42.1902289" lon="13.8480714"><ele>249.8</ele><time>2026-05-03T10:58:08.006Z</time></trkpt><trkpt lat="42.1903077" lon="13.8481493"><ele>251.4</ele><time>2026-05-03T10:58:09.006Z</time></trkpt><trkpt lat="42.1904115" lon="13.8482272"><ele>253.0</ele><time>2026-05-03T10:58:10.007Z</time></trkpt><trkpt lat="42.1905085" lon="13.8483373"><ele>253.0</ele><time>2026-05-03T10:58:11.007Z</time></trkpt><trkpt lat="42.1905931" lon="13.8484552"><ele>253.0</ele><time>2026-05-03T10:58:12.006Z</time></trkpt><trkpt lat="42.190673" lon="13.8485906"><ele>253.0</ele><time>2026-05-03T10:58:13.007Z</time></trkpt><trkpt lat="42.1907513" lon="13.8487357"><ele>253.0</ele><time>2026-05-03T10:58:14.006Z</time></trkpt><trkpt lat="42.1908249" lon="13.8488766"><ele>251.5</ele><time>2026-05-03T10:58:15.006Z</time></trkpt><trkpt lat="42.1908923" lon="13.8490122"><ele>250.0</ele><time>2026-05-03T10:58:16.007Z</time></trkpt><trkpt lat="42.1909557" lon="13.8491464"><ele>248.5</ele><time>2026-05-03T10:58:17.007Z</time></trkpt><trkpt lat="42.1910194" lon="13.8492757"><ele>247.0</ele><time>2026-05-03T10:58:18.006Z</time></trkpt><trkpt lat="42.1910796" lon="13.8493962"><ele>252.75</ele><time>2026-05-03T10:58:19.006Z</time></trkpt><trkpt lat="42.1911394" lon="13.8495114"><ele>258.5</ele><time>2026-05-03T10:58:20.006Z</time></trkpt><trkpt lat="42.1912105" lon="13.8496284"><ele>264.25</ele><time>2026-05-03T10:58:21.007Z</time></trkpt><trkpt lat="42.1912908" lon="13.8497655"><ele>270.0</ele><time>2026-05-03T10:58:22.007Z</time></trkpt><trkpt lat="42.1913751" lon="13.84991"><ele>270.0</ele><time>2026-05-03T10:58:23.007Z</time></trkpt><trkpt lat="42.1914673" lon="13.8500643"><ele>270.0</ele><time>2026-05-03T10:58:24.006Z</time></trkpt><trkpt lat="42.1915702" lon="13.8502151"><ele>270.0</ele><time>2026-05-03T10:58:25.006Z</time></trkpt><trkpt lat="42.1916817" lon="13.8503628"><ele>267.3333333333333</ele><time>2026-05-03T10:58:26.007Z</time></trkpt><trkpt lat="42.1918039" lon="13.8505085"><ele>264.66666666666663</ele><time>2026-05-03T10:58:27.006Z</time></trkpt><trkpt lat="42.191928" lon="13.8506544"><ele>262.0</ele><time>2026-05-03T10:58:28.007Z</time></trkpt><trkpt lat="42.1920476" lon="13.8507934"><ele>262.0</ele><time>2026-05-03T10:58:29.006Z</time></trkpt><trkpt lat="42.1921678" lon="13.8509082"><ele>262.0</ele><time>2026-05-03T10:58:30.007Z</time></trkpt><trkpt lat="42.1922941" lon="13.8510156"><ele>262.0</ele><time>2026-05-03T10:58:31.007Z</time></trkpt><trkpt lat="42.1924212" lon="13.8511288"><ele>262.0</ele><time>2026-05-03T10:58:32.007Z</time></trkpt><trkpt lat="42.1925505" lon="13.8512499"><ele>262.3333333333333</ele><time>2026-05-03T10:58:33.007Z</time></trkpt><trkpt lat="42.1926718" lon="13.8513822"><ele>262.6666666666667</ele><time>2026-05-03T10:58:34.007Z</time></trkpt><trkpt lat="42.1927924" lon="13.8515252"><ele>263.0</ele><time>2026-05-03T10:58:35.006Z</time></trkpt><trkpt lat="42.1929221" lon="13.8516613"><ele>263.0</ele><time>2026-05-03T10:58:36.006Z</time></trkpt><trkpt lat="42.1930626" lon="13.8517893"><ele>263.0</ele><time>2026-05-03T10:58:37.007Z</time></trkpt><trkpt lat="42.1932154" lon="13.8518919"><ele>263.0</ele><time>2026-05-03T10:58:38.007Z</time></trkpt><trkpt lat="42.1933852" lon="13.8519615"><ele>268.33333333333337</ele><time>2026-05-03T10:58:39.007Z</time></trkpt><trkpt lat="42.1935653" lon="13.8519974"><ele>273.6666666666667</ele><time>2026-05-03T10:58:40.006Z</time></trkpt><trkpt lat="42.1937498" lon="13.8520246"><ele>279.0</ele><time>2026-05-03T10:58:41.007Z</time></trkpt><trkpt lat="42.1939358" lon="13.852051"><ele>272.3333333333333</ele><time>2026-05-03T10:58:42.007Z</time></trkpt><trkpt lat="42.1941191" lon="13.8520833"><ele>265.66666666666663</ele><time>2026-05-03T10:58:43.007Z</time></trkpt><trkpt lat="42.1942927" lon="13.8521157"><ele>259.0</ele><time>2026-05-03T10:58:44.007Z</time></trkpt><trkpt lat="42.1944641" lon="13.8521588"><ele>259.0</ele><time>2026-05-03T10:58:45.007Z</time></trkpt><trkpt lat="42.1946354" lon="13.8522273"><ele>259.0</ele><time>2026-05-03T10:58:46.007Z</time></trkpt><trkpt lat="42.1947946" lon="13.8523366"><ele>259.0</ele><time>2026-05-03T10:58:47.006Z</time></trkpt><trkpt lat="42.1949368" lon="13.8524741"><ele>261.0</ele><time>2026-05-03T10:58:48.007Z</time></trkpt><trkpt lat="42.1950631" lon="13.8526355"><ele>263.0</ele><time>2026-05-03T10:58:49.006Z</time></trkpt><trkpt lat="42.1951706" lon="13.8528052"><ele>265.0</ele><time>2026-05-03T10:58:50.007Z</time></trkpt><trkpt lat="42.1952637" lon="13.8529999"><ele>265.0</ele><time>2026-05-03T10:58:51.006Z</time></trkpt><trkpt lat="42.1953394" lon="13.8531988"><ele>265.0</ele><time>2026-05-03T10:58:52.006Z</time></trkpt><trkpt lat="42.1954059" lon="13.8534042"><ele>265.0</ele><time>2026-05-03T10:58:53.007Z</time></trkpt><trkpt lat="42.1954761" lon="13.8536107"><ele>270.0</ele><time>2026-05-03T10:58:54.006Z</time></trkpt><trkpt lat="42.1955486" lon="13.8538222"><ele>275.0</ele><time>2026-05-03T10:58:55.007Z</time></trkpt><trkpt lat="42.1956174" lon="13.854026"><ele>280.0</ele><time>2026-05-03T10:58:56.007Z</time></trkpt><trkpt lat="42.1956754" lon="13.8542252"><ele>269.66666666666663</ele><time>2026-05-03T10:58:57.006Z</time></trkpt><trkpt lat="42.1957317" lon="13.8544213"><ele>259.3333333333333</ele><time>2026-05-03T10:58:58.007Z</time></trkpt><trkpt lat="42.1957853" lon="13.8546197"><ele>249.0</ele><time>2026-05-03T10:58:59.006Z</time></trkpt><trkpt lat="42.1958339" lon="13.8548232"><ele>249.0</ele><time>2026-05-03T10:59:00.007Z</time></trkpt><trkpt lat="42.1958672" lon="13.855038"><ele>249.0</ele><time>2026-05-03T10:59:01.006Z</time></trkpt><trkpt lat="42.1958749" lon="13.8552687"><ele>249.0</ele><time>2026-05-03T10:59:02.007Z</time></trkpt><trkpt lat="42.1958649" lon="13.8555183"><ele>249.0</ele><time>2026-05-03T10:59:03.007Z</time></trkpt><trkpt lat="42.1958498" lon="13.8557829"><ele>249.0</ele><time>2026-05-03T10:59:04.006Z</time></trkpt><trkpt lat="42.1958418" lon="13.8560497"><ele>249.0</ele><time>2026-05-03T10:59:05.007Z</time></trkpt><trkpt lat="42.1958303" lon="13.8563173"><ele>248.66666666666669</ele><time>2026-05-03T10:59:06.006Z</time></trkpt><trkpt lat="42.1958135" lon="13.8565819"><ele>248.33333333333334</ele><time>2026-05-03T10:59:07.006Z</time></trkpt><trkpt lat="42.1957984" lon="13.8568458"><ele>248.0</ele><time>2026-05-03T10:59:08.006Z</time></trkpt><trkpt lat="42.1957879" lon="13.8571138"><ele>248.0</ele><time>2026-05-03T10:59:09.007Z</time></trkpt><trkpt lat="42.1957714" lon="13.8573834"><ele>248.0</ele><time>2026-05-03T10:59:10.007Z</time></trkpt><trkpt lat="42.1957488" lon="13.8576606"><ele>248.0</ele><time>2026-05-03T10:59:11.006Z</time></trkpt><trkpt lat="42.1957203" lon="13.8579349"><ele>247.0</ele><time>2026-05-03T10:59:12.007Z</time></trkpt><trkpt lat="42.1956946" lon="13.8582094"><ele>246.0</ele><time>2026-05-03T10:59:13.007Z</time></trkpt><trkpt lat="42.1956664" lon="13.8584775"><ele>245.0</ele><time>2026-05-03T10:59:14.006Z</time></trkpt><trkpt lat="42.1956299" lon="13.8587384"><ele>255.33333333333334</ele><time>2026-05-03T10:59:15.006Z</time></trkpt><trkpt lat="42.1955906" lon="13.8589897"><ele>265.6666666666667</ele><time>2026-05-03T10:59:16.007Z</time></trkpt><trkpt lat="42.1955582" lon="13.8592279"><ele>276.0</ele><time>2026-05-03T10:59:17.007Z</time></trkpt><trkpt lat="42.1955359" lon="13.8594603"><ele>276.0</ele><time>2026-05-03T10:59:18.006Z</time></trkpt><trkpt lat="42.1955228" lon="13.8596946"><ele>276.0</ele><time>2026-05-03T10:59:19.007Z</time></trkpt><trkpt lat="42.1955124" lon="13.8599303"><ele>276.0</ele><time>2026-05-03T10:59:20.006Z</time></trkpt><trkpt lat="42.1954982" lon="13.8601624"><ele>275.5</ele><time>2026-05-03T10:59:21.006Z</time></trkpt><trkpt lat="42.1954877" lon="13.8603844"><ele>275.0</ele><time>2026-05-03T10:59:22.006Z</time></trkpt><trkpt lat="42.1954789" lon="13.8605877"><ele>274.5</ele><time>2026-05-03T10:59:23.007Z</time></trkpt><trkpt lat="42.1954706" lon="13.8607611"><ele>274.0</ele><time>2026-05-03T10:59:24.007Z</time></trkpt><trkpt lat="42.1954735" lon="13.8609288"><ele>273.8</ele><time>2026-05-03T10:59:25.007Z</time></trkpt><trkpt lat="42.1954788" lon="13.8610866"><ele>273.59999999999997</ele><time>2026-05-03T10:59:26.006Z</time></trkpt><trkpt lat="42.1954849" lon="13.8612371"><ele>273.4</ele><time>2026-05-03T10:59:27.006Z</time></trkpt><trkpt lat="42.1954958" lon="13.8613842"><ele>273.2</ele><time>2026-05-03T10:59:28.007Z</time></trkpt><trkpt lat="42.1955083" lon="13.8615074"><ele>273.0</ele><time>2026-05-03T10:59:29.007Z</time></trkpt><trkpt lat="42.1955221" lon="13.8616194"><ele>273.0</ele><time>2026-05-03T10:59:30.006Z</time></trkpt><trkpt lat="42.1955301" lon="13.8617305"><ele>273.0</ele><time>2026-05-03T10:59:31.006Z</time></trkpt><trkpt lat="42.1955227" lon="13.8618378"><ele>273.0</ele><time>2026-05-03T10:59:32.007Z</time></trkpt><trkpt lat="42.1955178" lon="13.8619359"><ele>273.0</ele><time>2026-05-03T10:59:33.007Z</time></trkpt><trkpt lat="42.1955335" lon="13.862051"><ele>273.0</ele><time>2026-05-03T10:59:34.006Z</time></trkpt><trkpt lat="42.1955613" lon="13.8621806"><ele>273.0</ele><time>2026-05-03T10:59:35.006Z</time></trkpt><trkpt lat="42.1955877" lon="13.8623433"><ele>275.3333333333333</ele><time>2026-05-03T10:59:36.007Z</time></trkpt><trkpt lat="42.195624" lon="13.8625372"><ele>277.66666666666663</ele><time>2026-05-03T10:59:37.006Z</time></trkpt><trkpt lat="42.1956713" lon="13.8627325"><ele>280.0</ele><time>2026-05-03T10:59:38.007Z</time></trkpt><trkpt lat="42.1957332" lon="13.8629339"><ele>274.0</ele><time>2026-05-03T10:59:39.007Z</time></trkpt><trkpt lat="42.1958024" lon="13.8631239"><ele>268.0</ele><time>2026-05-03T10:59:40.006Z</time></trkpt><trkpt lat="42.1958761" lon="13.8633039"><ele>262.0</ele><time>2026-05-03T10:59:41.006Z</time></trkpt><trkpt lat="42.1959498" lon="13.8634971"><ele>262.0</ele><time>2026-05-03T10:59:42.006Z</time></trkpt><trkpt lat="42.1960304" lon="13.8637019"><ele>262.0</ele><time>2026-05-03T10:59:43.006Z</time></trkpt><trkpt lat="42.196116" lon="13.8639121"><ele>262.0</ele><time>2026-05-03T10:59:44.006Z</time></trkpt><trkpt lat="42.1961949" lon="13.8641171"><ele>267.0</ele><time>2026-05-03T10:59:45.006Z</time></trkpt><trkpt lat="42.1962729" lon="13.8643265"><ele>272.0</ele><time>2026-05-03T10:59:46.006Z</time></trkpt><trkpt lat="42.1963517" lon="13.8645477"><ele>277.0</ele><time>2026-05-03T10:59:47.006Z</time></trkpt><trkpt lat="42.1964305" lon="13.8647721"><ele>266.3333333333333</ele><time>2026-05-03T10:59:48.007Z</time></trkpt><trkpt lat="42.1965095" lon="13.8649971"><ele>255.66666666666669</ele><time>2026-05-03T10:59:49.006Z</time></trkpt><trkpt lat="42.1965899" lon="13.8652257"><ele>245.0</ele><time>2026-05-03T10:59:50.006Z</time></trkpt><trkpt lat="42.1966687" lon="13.8654598"><ele>245.0</ele><time>2026-05-03T10:59:51.007Z</time></trkpt><trkpt lat="42.1967406" lon="13.8656993"><ele>245.0</ele><time>2026-05-03T10:59:52.007Z</time></trkpt><trkpt lat="42.1968063" lon="13.8659483"><ele>245.0</ele><time>2026-05-03T10:59:53.007Z</time></trkpt><trkpt lat="42.1968641" lon="13.8661969"><ele>248.33333333333334</ele><time>2026-05-03T10:59:54.007Z</time></trkpt><trkpt lat="42.1969195" lon="13.8664448"><ele>251.66666666666669</ele><time>2026-05-03T10:59:55.007Z</time></trkpt><trkpt lat="42.1969772" lon="13.8666954"><ele>255.0</ele><time>2026-05-03T10:59:56.007Z</time></trkpt><trkpt lat="42.1970361" lon="13.8669479"><ele>257.6666666666667</ele><time>2026-05-03T10:59:57.007Z</time></trkpt><trkpt lat="42.1970946" lon="13.8671999"><ele>260.33333333333337</ele><time>2026-05-03T10:59:58.006Z</time></trkpt><trkpt lat="42.1971474" lon="13.8674492"><ele>263.0</ele><time>2026-05-03T10:59:59.006Z</time></trkpt><trkpt lat="42.1971975" lon="13.867696"><ele>264.0</ele><time>2026-05-03T11:00:00.007Z</time></trkpt><trkpt lat="42.1972522" lon="13.8679428"><ele>265.0</ele><time>2026-05-03T11:00:01.006Z</time></trkpt><trkpt lat="42.1973064" lon="13.8681895"><ele>266.0</ele><time>2026-05-03T11:00:02.007Z</time></trkpt><trkpt lat="42.1973498" lon="13.868441"><ele>257.0</ele><time>2026-05-03T11:00:03.006Z</time></trkpt><trkpt lat="42.1973799" lon="13.8687055"><ele>248.0</ele><time>2026-05-03T11:00:04.006Z</time></trkpt><trkpt lat="42.1974097" lon="13.8689793"><ele>239.0</ele><time>2026-05-03T11:00:05.007Z</time></trkpt><trkpt lat="42.1974403" lon="13.8692573"><ele>238.33333333333334</ele><time>2026-05-03T11:00:06.007Z</time></trkpt><trkpt lat="42.1974744" lon="13.869538"><ele>237.66666666666669</ele><time>2026-05-03T11:00:07.006Z</time></trkpt><trkpt lat="42.1975068" lon="13.8698225"><ele>237.0</ele><time>2026-05-03T11:00:08.006Z</time></trkpt><trkpt lat="42.1975354" lon="13.8701087"><ele>237.0</ele><time>2026-05-03T11:00:09.006Z</time></trkpt><trkpt lat="42.1975679" lon="13.8703938"><ele>237.0</ele><time>2026-05-03T11:00:10.007Z</time></trkpt><trkpt lat="42.1976011" lon="13.8706787"><ele>237.0</ele><time>2026-05-03T11:00:11.007Z</time></trkpt><trkpt lat="42.1976329" lon="13.8709609"><ele>238.0</ele><time>2026-05-03T11:00:12.007Z</time></trkpt><trkpt lat="42.1976657" lon="13.8712306"><ele>239.0</ele><time>2026-05-03T11:00:13.007Z</time></trkpt><trkpt lat="42.197696" lon="13.8714996"><ele>240.0</ele><time>2026-05-03T11:00:14.007Z</time></trkpt><trkpt lat="42.1977253" lon="13.8717603"><ele>243.33333333333331</ele><time>2026-05-03T11:00:15.007Z</time></trkpt><trkpt lat="42.1977638" lon="13.8720213"><ele>246.66666666666666</ele><time>2026-05-03T11:00:16.006Z</time></trkpt><trkpt lat="42.1978031" lon="13.8722765"><ele>250.0</ele><time>2026-05-03T11:00:17.007Z</time></trkpt><trkpt lat="42.1978494" lon="13.8725366"><ele>248.66666666666666</ele><time>2026-05-03T11:00:18.006Z</time></trkpt><trkpt lat="42.1978924" lon="13.8727951"><ele>247.33333333333331</ele><time>2026-05-03T11:00:19.007Z</time></trkpt><trkpt lat="42.1979383" lon="13.8730536"><ele>246.0</ele><time>2026-05-03T11:00:20.006Z</time></trkpt><trkpt lat="42.1979808" lon="13.873307"><ele>250.66666666666669</ele><time>2026-05-03T11:00:21.007Z</time></trkpt><trkpt lat="42.1980225" lon="13.8735525"><ele>255.33333333333334</ele><time>2026-05-03T11:00:22.006Z</time></trkpt><trkpt lat="42.1980615" lon="13.873797"><ele>260.0</ele><time>2026-05-03T11:00:23.007Z</time></trkpt><trkpt lat="42.1980972" lon="13.8740436"><ele>260.6666666666667</ele><time>2026-05-03T11:00:24.007Z</time></trkpt><trkpt lat="42.1981345" lon="13.8742818"><ele>261.3333333333333</ele><time>2026-05-03T11:00:25.007Z</time></trkpt><trkpt lat="42.1981702" lon="13.8745173"><ele>262.0</ele><time>2026-05-03T11:00:26.007Z</time></trkpt><trkpt lat="42.1982045" lon="13.8747489"><ele>252.0</ele><time>2026-05-03T11:00:27.006Z</time></trkpt><trkpt lat="42.1982382" lon="13.874978"><ele>242.0</ele><time>2026-05-03T11:00:28.007Z</time></trkpt><trkpt lat="42.1982637" lon="13.8752027"><ele>232.0</ele><time>2026-05-03T11:00:29.006Z</time></trkpt><trkpt lat="42.1982629" lon="13.8754248"><ele>229.33333333333331</ele><time>2026-05-03T11:00:30.007Z</time></trkpt><trkpt lat="42.19824" lon="13.8756485"><ele>226.66666666666669</ele><time>2026-05-03T11:00:31.006Z</time></trkpt><trkpt lat="42.1981953" lon="13.8758737"><ele>224.0</ele><time>2026-05-03T11:00:32.007Z</time></trkpt><trkpt lat="42.1981399" lon="13.8761021"><ele>237.0</ele><time>2026-05-03T11:00:33.007Z</time></trkpt><trkpt lat="42.1980867" lon="13.8763389"><ele>250.0</ele><time>2026-05-03T11:00:34.006Z</time></trkpt><trkpt lat="42.1980301" lon="13.8765807"><ele>263.0</ele><time>2026-05-03T11:00:35.006Z</time></trkpt><trkpt lat="42.1979752" lon="13.8768185"><ele>263.0</ele><time>2026-05-03T11:00:36.006Z</time></trkpt><trkpt lat="42.197932" lon="13.8770517"><ele>263.0</ele><time>2026-05-03T11:00:37.007Z</time></trkpt><trkpt lat="42.1979128" lon="13.8772878"><ele>263.0</ele><time>2026-05-03T11:00:38.007Z</time></trkpt><trkpt lat="42.1979231" lon="13.8775279"><ele>264.6666666666667</ele><time>2026-05-03T11:00:39.007Z</time></trkpt><trkpt lat="42.1979708" lon="13.8777613"><ele>266.3333333333333</ele><time>2026-05-03T11:00:40.006Z</time></trkpt><trkpt lat="42.1980482" lon="13.8779956"><ele>268.0</ele><time>2026-05-03T11:00:41.007Z</time></trkpt><trkpt lat="42.1981296" lon="13.8782172"><ele>258.3333333333333</ele><time>2026-05-03T11:00:42.006Z</time></trkpt><trkpt lat="42.1982206" lon="13.8784233"><ele>248.66666666666669</ele><time>2026-05-03T11:00:43.007Z</time></trkpt><trkpt lat="42.1983283" lon="13.8786223"><ele>239.0</ele><time>2026-05-03T11:00:44.007Z</time></trkpt><trkpt lat="42.1984625" lon="13.878806"><ele>239.0</ele><time>2026-05-03T11:00:45.007Z</time></trkpt><trkpt lat="42.1986146" lon="13.8789708"><ele>239.0</ele><time>2026-05-03T11:00:46.006Z</time></trkpt><trkpt lat="42.198767" lon="13.8791322"><ele>239.0</ele><time>2026-05-03T11:00:47.006Z</time></trkpt><trkpt lat="42.1989175" lon="13.8792872"><ele>236.0</ele><time>2026-05-03T11:00:48.007Z</time></trkpt><trkpt lat="42.1990522" lon="13.879443"><ele>233.0</ele><time>2026-05-03T11:00:49.007Z</time></trkpt><trkpt lat="42.1991648" lon="13.8796313"><ele>230.0</ele><time>2026-05-03T11:00:50.007Z</time></trkpt><trkpt lat="42.1992391" lon="13.8798317"><ele>230.0</ele><time>2026-05-03T11:00:51.007Z</time></trkpt><trkpt lat="42.1992777" lon="13.8800419"><ele>230.0</ele><time>2026-05-03T11:00:52.007Z</time></trkpt><trkpt lat="42.1992907" lon="13.8802599"><ele>230.0</ele><time>2026-05-03T11:00:53.007Z</time></trkpt><trkpt lat="42.1992754" lon="13.8804831"><ele>229.0</ele><time>2026-05-03T11:00:54.006Z</time></trkpt><trkpt lat="42.1992513" lon="13.8807071"><ele>228.0</ele><time>2026-05-03T11:00:55.007Z</time></trkpt><trkpt lat="42.1992285" lon="13.8809249"><ele>227.0</ele><time>2026-05-03T11:00:56.006Z</time></trkpt><trkpt lat="42.199211" lon="13.8811296"><ele>227.0</ele><time>2026-05-03T11:00:57.007Z</time></trkpt><trkpt lat="42.1992001" lon="13.8813309"><ele>227.0</ele><time>2026-05-03T11:00:58.007Z</time></trkpt><trkpt lat="42.1992034" lon="13.8815413"><ele>227.0</ele><time>2026-05-03T11:00:59.007Z</time></trkpt><trkpt lat="42.1992386" lon="13.8817351"><ele>229.0</ele><time>2026-05-03T11:01:00.007Z</time></trkpt><trkpt lat="42.1993082" lon="13.8819259"><ele>231.0</ele><time>2026-05-03T11:01:01.006Z</time></trkpt><trkpt lat="42.1993885" lon="13.8821257"><ele>233.0</ele><time>2026-05-03T11:01:02.007Z</time></trkpt><trkpt lat="42.1994608" lon="13.8823242"><ele>233.0</ele><time>2026-05-03T11:01:03.006Z</time></trkpt><trkpt lat="42.1995224" lon="13.8825237"><ele>233.0</ele><time>2026-05-03T11:01:04.007Z</time></trkpt><trkpt lat="42.1995783" lon="13.882724"><ele>233.0</ele><time>2026-05-03T11:01:05.007Z</time></trkpt><trkpt lat="42.1996529" lon="13.8829132"><ele>227.33333333333334</ele><time>2026-05-03T11:01:06.007Z</time></trkpt><trkpt lat="42.1997542" lon="13.883085"><ele>221.66666666666669</ele><time>2026-05-03T11:01:07.007Z</time></trkpt><trkpt lat="42.199871" lon="13.8832433"><ele>216.0</ele><time>2026-05-03T11:01:08.006Z</time></trkpt><trkpt lat="42.1999868" lon="13.8833983"><ele>223.66666666666669</ele><time>2026-05-03T11:01:09.006Z</time></trkpt><trkpt lat="42.2000908" lon="13.8835462"><ele>231.33333333333334</ele><time>2026-05-03T11:01:10.007Z</time></trkpt><trkpt lat="42.2001956" lon="13.8836812"><ele>239.0</ele><time>2026-05-03T11:01:11.006Z</time></trkpt><trkpt lat="42.2003063" lon="13.8838313"><ele>239.0</ele><time>2026-05-03T11:01:12.007Z</time></trkpt><trkpt lat="42.2004091" lon="13.8839998"><ele>239.0</ele><time>2026-05-03T11:01:13.007Z</time></trkpt><trkpt lat="42.2004948" lon="13.884194"><ele>239.0</ele><time>2026-05-03T11:01:14.006Z</time></trkpt><trkpt lat="42.2005595" lon="13.8844082"><ele>243.66666666666669</ele><time>2026-05-03T11:01:15.007Z</time></trkpt><trkpt lat="42.2006108" lon="13.8846412"><ele>248.33333333333331</ele><time>2026-05-03T11:01:16.006Z</time></trkpt><trkpt lat="42.2006695" lon="13.8848724"><ele>253.0</ele><time>2026-05-03T11:01:17.007Z</time></trkpt><trkpt lat="42.2007535" lon="13.8850921"><ele>247.0</ele><time>2026-05-03T11:01:18.007Z</time></trkpt><trkpt lat="42.2008543" lon="13.8852991"><ele>241.0</ele><time>2026-05-03T11:01:19.006Z</time></trkpt><trkpt lat="42.2009789" lon="13.8854807"><ele>235.0</ele><time>2026-05-03T11:01:20.006Z</time></trkpt><trkpt lat="42.2011208" lon="13.8856449"><ele>235.0</ele><time>2026-05-03T11:01:21.007Z</time></trkpt><trkpt lat="42.201269" lon="13.8858015"><ele>235.0</ele><time>2026-05-03T11:01:22.006Z</time></trkpt><trkpt lat="42.2014169" lon="13.8859516"><ele>235.0</ele><time>2026-05-03T11:01:23.007Z</time></trkpt><trkpt lat="42.2015637" lon="13.8860964"><ele>233.0</ele><time>2026-05-03T11:01:24.006Z</time></trkpt><trkpt lat="42.2017059" lon="13.8862441"><ele>231.0</ele><time>2026-05-03T11:01:25.007Z</time></trkpt><trkpt lat="42.2018529" lon="13.8863955"><ele>229.0</ele><time>2026-05-03T11:01:26.007Z</time></trkpt><trkpt lat="42.2019956" lon="13.8865408"><ele>229.0</ele><time>2026-05-03T11:01:27.007Z</time></trkpt><trkpt lat="42.2021361" lon="13.8866887"><ele>229.0</ele><time>2026-05-03T11:01:28.007Z</time></trkpt><trkpt lat="42.2022742" lon="13.8868341"><ele>229.0</ele><time>2026-05-03T11:01:29.007Z</time></trkpt><trkpt lat="42.2024101" lon="13.8869733"><ele>226.33333333333331</ele><time>2026-05-03T11:01:30.006Z</time></trkpt><trkpt lat="42.2025466" lon="13.8871118"><ele>223.66666666666669</ele><time>2026-05-03T11:01:31.006Z</time></trkpt><trkpt lat="42.2026752" lon="13.8872408"><ele>221.0</ele><time>2026-05-03T11:01:32.006Z</time></trkpt><trkpt lat="42.2027891" lon="13.8873618"><ele>221.0</ele><time>2026-05-03T11:01:33.006Z</time></trkpt><trkpt lat="42.2028928" lon="13.8874644"><ele>221.00000000000003</ele><time>2026-05-03T11:01:34.007Z</time></trkpt><trkpt lat="42.202984" lon="13.8875572"><ele>221.00000000000003</ele><time>2026-05-03T11:01:35.007Z</time></trkpt><trkpt lat="42.2030514" lon="13.8876329"><ele>221.0</ele><time>2026-05-03T11:01:36.006Z</time></trkpt><trkpt lat="42.2031055" lon="13.8876927"><ele>221.0</ele><time>2026-05-03T11:01:37.006Z</time></trkpt><trkpt lat="42.2031967" lon="13.8877802"><ele>221.00000000000003</ele><time>2026-05-03T11:01:39.006Z</time></trkpt><trkpt lat="42.2032499" lon="13.8878382"><ele>221.0</ele><time>2026-05-03T11:01:42.007Z</time></trkpt><trkpt lat="42.2032139" lon="13.8877069"><ele>221.0</ele><time>2026-05-03T11:01:54.006Z</time></trkpt><trkpt lat="42.2031527" lon="13.8876491"><ele>221.0</ele><time>2026-05-03T11:01:55.007Z</time></trkpt><trkpt lat="42.2030822" lon="13.8875854"><ele>221.00000000000003</ele><time>2026-05-03T11:01:56.007Z</time></trkpt><trkpt lat="42.2030066" lon="13.8875052"><ele>221.0</ele><time>2026-05-03T11:01:57.007Z</time></trkpt><trkpt lat="42.2029178" lon="13.8874109"><ele>221.0</ele><time>2026-05-03T11:01:58.006Z</time></trkpt><trkpt lat="42.2028146" lon="13.8873121"><ele>221.0</ele><time>2026-05-03T11:01:59.006Z</time></trkpt><trkpt lat="42.2027049" lon="13.887205"><ele>221.0</ele><time>2026-05-03T11:02:00.007Z</time></trkpt><trkpt lat="42.2025897" lon="13.8870952"><ele>221.0</ele><time>2026-05-03T11:02:01.007Z</time></trkpt><trkpt lat="42.20248" lon="13.886985"><ele>221.0</ele><time>2026-05-03T11:02:02.007Z</time></trkpt><trkpt lat="42.2023788" lon="13.8868838"><ele>221.00000000000003</ele><time>2026-05-03T11:02:03.007Z</time></trkpt><trkpt lat="42.2022868" lon="13.8867944"><ele>221.00000000000003</ele><time>2026-05-03T11:02:04.006Z</time></trkpt><trkpt lat="42.2022097" lon="13.8867193"><ele>221.0</ele><time>2026-05-03T11:02:05.006Z</time></trkpt><trkpt lat="42.2021517" lon="13.8866651"><ele>221.0</ele><time>2026-05-03T11:02:06.006Z</time></trkpt><trkpt lat="42.2020798" lon="13.8866483"><ele>221.00000000000003</ele><time>2026-05-03T11:02:08.007Z</time></trkpt><trkpt lat="42.2020556" lon="13.8867291"><ele>221.0</ele><time>2026-05-03T11:02:11.006Z</time></trkpt><trkpt lat="42.2021089" lon="13.8867813"><ele>221.0</ele><time>2026-05-03T11:02:13.006Z</time></trkpt><trkpt lat="42.2021963" lon="13.8868505"><ele>221.0</ele><time>2026-05-03T11:02:15.007Z</time></trkpt><trkpt lat="42.2022769" lon="13.8869767"><ele>221.00000000000003</ele><time>2026-05-03T11:02:17.007Z</time></trkpt><trkpt lat="42.2023221" lon="13.8870511"><ele>221.0</ele><time>2026-05-03T11:02:18.007Z</time></trkpt><trkpt lat="42.2023744" lon="13.8871305"><ele>221.00000000000003</ele><time>2026-05-03T11:02:19.007Z</time></trkpt><trkpt lat="42.2024306" lon="13.8872169"><ele>221.0</ele><time>2026-05-03T11:02:20.007Z</time></trkpt><trkpt lat="42.2024864" lon="13.8873061"><ele>221.0</ele><time>2026-05-03T11:02:21.006Z</time></trkpt><trkpt lat="42.202538" lon="13.8873854"><ele>221.0</ele><time>2026-05-03T11:02:22.006Z</time></trkpt><trkpt lat="42.2025886" lon="13.8874588"><ele>221.00000000000003</ele><time>2026-05-03T11:02:23.006Z</time></trkpt><trkpt lat="42.2026363" lon="13.8875278"><ele>221.0</ele><time>2026-05-03T11:02:24.007Z</time></trkpt><trkpt lat="42.2027051" lon="13.8876631"><ele>224.33333333333334</ele><time>2026-05-03T11:02:26.006Z</time></trkpt><trkpt lat="42.2027753" lon="13.8877924"><ele>227.66666666666669</ele><time>2026-05-03T11:02:28.007Z</time></trkpt><trkpt lat="42.202817" lon="13.8878593"><ele>231.0</ele><time>2026-05-03T11:02:29.006Z</time></trkpt><trkpt lat="42.2028532" lon="13.8879289"><ele>234.33333333333331</ele><time>2026-05-03T11:02:30.007Z</time></trkpt><trkpt lat="42.202892" lon="13.8879963"><ele>237.66666666666666</ele><time>2026-05-03T11:02:31.006Z</time></trkpt><trkpt lat="42.202975" lon="13.8881238"><ele>241.0</ele><time>2026-05-03T11:02:33.007Z</time></trkpt><trkpt lat="42.2030126" lon="13.8881931"><ele>241.0</ele><time>2026-05-03T11:02:34.007Z</time></trkpt><trkpt lat="42.2030521" lon="13.8882605"><ele>241.00000000000003</ele><time>2026-05-03T11:02:35.006Z</time></trkpt><trkpt lat="42.2030947" lon="13.8883357"><ele>241.0</ele><time>2026-05-03T11:02:36.006Z</time></trkpt><trkpt lat="42.2031401" lon="13.8884069"><ele>241.0</ele><time>2026-05-03T11:02:37.006Z</time></trkpt><trkpt lat="42.2031872" lon="13.8884769"><ele>241.00000000000003</ele><time>2026-05-03T11:02:38.006Z</time></trkpt><trkpt lat="42.2032353" lon="13.8885454"><ele>241.0</ele><time>2026-05-03T11:02:39.007Z</time></trkpt><trkpt lat="42.2032845" lon="13.8886126"><ele>241.0</ele><time>2026-05-03T11:02:40.006Z</time></trkpt><trkpt lat="42.2033576" lon="13.8887203"><ele>241.4</ele><time>2026-05-03T11:02:42.006Z</time></trkpt><trkpt lat="42.2034113" lon="13.8888069"><ele>241.8</ele><time>2026-05-03T11:02:51.006Z</time></trkpt><trkpt lat="42.2034672" lon="13.888899"><ele>242.20000000000002</ele><time>2026-05-03T11:02:53.007Z</time></trkpt><trkpt lat="42.2035338" lon="13.8889953"><ele>242.60000000000002</ele><time>2026-05-03T11:02:55.007Z</time></trkpt><trkpt lat="42.2036017" lon="13.8890984"><ele>243.0</ele><time>2026-05-03T11:02:57.006Z</time></trkpt><trkpt lat="42.2036766" lon="13.8891892"><ele>244.4</ele><time>2026-05-03T11:02:59.006Z</time></trkpt><trkpt lat="42.2037508" lon="13.8893035"><ele>245.8</ele><time>2026-05-03T11:03:01.007Z</time></trkpt><trkpt lat="42.203829" lon="13.8894302"><ele>247.2</ele><time>2026-05-03T11:03:03.006Z</time></trkpt><trkpt lat="42.2038948" lon="13.8895383"><ele>248.6</ele><time>2026-05-03T11:03:05.006Z</time></trkpt><trkpt lat="42.2039525" lon="13.8896393"><ele>250.0</ele><time>2026-05-03T11:03:07.007Z</time></trkpt><trkpt lat="42.2040121" lon="13.8897466"><ele>245.6</ele><time>2026-05-03T11:03:09.007Z</time></trkpt><trkpt lat="42.204077" lon="13.8898512"><ele>241.2</ele><time>2026-05-03T11:03:11.007Z</time></trkpt><trkpt lat="42.204151" lon="13.8899549"><ele>236.8</ele><time>2026-05-03T11:03:13.006Z</time></trkpt><trkpt lat="42.204232" lon="13.8900241"><ele>232.4</ele><time>2026-05-03T11:03:15.007Z</time></trkpt><trkpt lat="42.2043203" lon="13.8900979"><ele>228.0</ele><time>2026-05-03T11:03:17.007Z</time></trkpt><trkpt lat="42.2043804" lon="13.8902254"><ele>228.0</ele><time>2026-05-03T11:03:19.006Z</time></trkpt><trkpt lat="42.2044112" lon="13.8903134"><ele>227.99999999999997</ele><time>2026-05-03T11:03:20.007Z</time></trkpt><trkpt lat="42.2044396" lon="13.8903894"><ele>228.0</ele><time>2026-05-03T11:03:21.007Z</time></trkpt><trkpt lat="42.2044736" lon="13.8904624"><ele>228.0</ele><time>2026-05-03T11:03:22.006Z</time></trkpt><trkpt lat="42.2045169" lon="13.8905336"><ele>227.99999999999997</ele><time>2026-05-03T11:03:23.006Z</time></trkpt><trkpt lat="42.2045673" lon="13.8906131"><ele>228.0</ele><time>2026-05-03T11:03:24.006Z</time></trkpt><trkpt lat="42.2046211" lon="13.8906914"><ele>228.0</ele><time>2026-05-03T11:03:25.007Z</time></trkpt><trkpt lat="42.2046742" lon="13.8907733"><ele>228.0</ele><time>2026-05-03T11:03:26.007Z</time></trkpt><trkpt lat="42.20473" lon="13.8908592"><ele>228.0</ele><time>2026-05-03T11:03:27.006Z</time></trkpt><trkpt lat="42.2047883" lon="13.8909441"><ele>228.0</ele><time>2026-05-03T11:03:28.007Z</time></trkpt><trkpt lat="42.2048415" lon="13.8910307"><ele>228.0</ele><time>2026-05-03T11:03:29.007Z</time></trkpt><trkpt lat="42.2048961" lon="13.8911151"><ele>228.0</ele><time>2026-05-03T11:03:30.007Z</time></trkpt><trkpt lat="42.2049473" lon="13.8911955"><ele>228.0</ele><time>2026-05-03T11:03:31.007Z</time></trkpt><trkpt lat="42.2049953" lon="13.8912662"><ele>227.7142857142857</ele><time>2026-05-03T11:03:32.006Z</time></trkpt><trkpt lat="42.2050444" lon="13.8913267"><ele>227.4285714285714</ele><time>2026-05-03T11:03:33.007Z</time></trkpt><trkpt lat="42.2050907" lon="13.8913886"><ele>227.14285714285714</ele><time>2026-05-03T11:03:34.007Z</time></trkpt><trkpt lat="42.2051364" lon="13.8914534"><ele>226.85714285714283</ele><time>2026-05-03T11:03:35.006Z</time></trkpt><trkpt lat="42.2052187" lon="13.8915666"><ele>226.57142857142856</ele><time>2026-05-03T11:03:37.006Z</time></trkpt><trkpt lat="42.2052626" lon="13.891628"><ele>226.28571428571428</ele><time>2026-05-03T11:03:38.007Z</time></trkpt><trkpt lat="42.2053074" lon="13.8916895"><ele>226.0</ele><time>2026-05-03T11:03:39.007Z</time></trkpt><trkpt lat="42.2053575" lon="13.8917635"><ele>226.0</ele><time>2026-05-03T11:03:40.007Z</time></trkpt><trkpt lat="42.2054056" lon="13.8918341"><ele>226.0</ele><time>2026-05-03T11:03:41.007Z</time></trkpt><trkpt lat="42.2054534" lon="13.8919018"><ele>226.0</ele><time>2026-05-03T11:03:42.006Z</time></trkpt><trkpt lat="42.2055013" lon="13.8919698"><ele>226.0</ele><time>2026-05-03T11:03:43.007Z</time></trkpt><trkpt lat="42.2055525" lon="13.8920351"><ele>226.0</ele><time>2026-05-03T11:03:44.007Z</time></trkpt><trkpt lat="42.205603" lon="13.8921083"><ele>226.0</ele><time>2026-05-03T11:03:45.007Z</time></trkpt><trkpt lat="42.2056548" lon="13.8921833"><ele>226.0</ele><time>2026-05-03T11:03:46.006Z</time></trkpt><trkpt lat="42.2057144" lon="13.8922593"><ele>225.99999999999997</ele><time>2026-05-03T11:03:47.006Z</time></trkpt><trkpt lat="42.2057798" lon="13.8923369"><ele>226.0</ele><time>2026-05-03T11:03:48.006Z</time></trkpt><trkpt lat="42.2058394" lon="13.8924137"><ele>226.0</ele><time>2026-05-03T11:03:49.006Z</time></trkpt><trkpt lat="42.2058914" lon="13.8924843"><ele>226.0</ele><time>2026-05-03T11:03:50.006Z</time></trkpt><trkpt lat="42.2059468" lon="13.8925505"><ele>225.99999999999997</ele><time>2026-05-03T11:03:51.007Z</time></trkpt><trkpt lat="42.2060005" lon="13.892627"><ele>226.0</ele><time>2026-05-03T11:03:52.007Z</time></trkpt><trkpt lat="42.2060593" lon="13.8927119"><ele>228.42857142857144</ele><time>2026-05-03T11:03:53.006Z</time></trkpt><trkpt lat="42.2061153" lon="13.8927911"><ele>230.85714285714283</ele><time>2026-05-03T11:03:54.007Z</time></trkpt><trkpt lat="42.2061728" lon="13.8928624"><ele>233.28571428571428</ele><time>2026-05-03T11:03:55.007Z</time></trkpt><trkpt lat="42.206225" lon="13.8929317"><ele>235.71428571428572</ele><time>2026-05-03T11:03:56.006Z</time></trkpt><trkpt lat="42.2062744" lon="13.8930008"><ele>238.14285714285717</ele><time>2026-05-03T11:03:57.007Z</time></trkpt><trkpt lat="42.2063235" lon="13.8930761"><ele>240.57142857142856</ele><time>2026-05-03T11:03:58.006Z</time></trkpt><trkpt lat="42.2063737" lon="13.8931438"><ele>243.0</ele><time>2026-05-03T11:03:59.007Z</time></trkpt><trkpt lat="42.2064173" lon="13.893221"><ele>243.0</ele><time>2026-05-03T11:04:00.007Z</time></trkpt><trkpt lat="42.2064556" lon="13.8932943"><ele>243.0</ele><time>2026-05-03T11:04:01.007Z</time></trkpt><trkpt lat="42.2064976" lon="13.8933592"><ele>243.0</ele><time>2026-05-03T11:04:02.007Z</time></trkpt><trkpt lat="42.2065862" lon="13.893472"><ele>243.0</ele><time>2026-05-03T11:04:04.006Z</time></trkpt><trkpt lat="42.2066278" lon="13.8935363"><ele>243.0</ele><time>2026-05-03T11:04:05.006Z</time></trkpt><trkpt lat="42.2066731" lon="13.8936095"><ele>243.0</ele><time>2026-05-03T11:04:06.006Z</time></trkpt><trkpt lat="42.2067311" lon="13.893686"><ele>241.60000000000002</ele><time>2026-05-03T11:04:07.007Z</time></trkpt><trkpt lat="42.2067929" lon="13.8937745"><ele>240.20000000000002</ele><time>2026-05-03T11:04:08.007Z</time></trkpt><trkpt lat="42.2068578" lon="13.8938672"><ele>238.8</ele><time>2026-05-03T11:04:09.006Z</time></trkpt><trkpt lat="42.2069164" lon="13.8939699"><ele>237.4</ele><time>2026-05-03T11:04:10.007Z</time></trkpt><trkpt lat="42.2069736" lon="13.8940712"><ele>236.0</ele><time>2026-05-03T11:04:11.006Z</time></trkpt><trkpt lat="42.207035" lon="13.8941594"><ele>236.00000000000003</ele><time>2026-05-03T11:04:12.006Z</time></trkpt><trkpt lat="42.2070953" lon="13.8942475"><ele>236.0</ele><time>2026-05-03T11:04:13.006Z</time></trkpt><trkpt lat="42.2071531" lon="13.8943336"><ele>236.0</ele><time>2026-05-03T11:04:14.007Z</time></trkpt><trkpt lat="42.2072079" lon="13.8944102"><ele>236.0</ele><time>2026-05-03T11:04:15.007Z</time></trkpt><trkpt lat="42.2072612" lon="13.8944807"><ele>236.00000000000003</ele><time>2026-05-03T11:04:16.007Z</time></trkpt><trkpt lat="42.2073083" lon="13.8945535"><ele>236.0</ele><time>2026-05-03T11:04:17.006Z</time></trkpt><trkpt lat="42.2073543" lon="13.894636"><ele>235.16666666666669</ele><time>2026-05-03T11:04:18.006Z</time></trkpt><trkpt lat="42.2074014" lon="13.8947205"><ele>234.33333333333334</ele><time>2026-05-03T11:04:19.007Z</time></trkpt><trkpt lat="42.2074553" lon="13.8948029"><ele>233.5</ele><time>2026-05-03T11:04:20.007Z</time></trkpt><trkpt lat="42.2075201" lon="13.8948871"><ele>232.66666666666669</ele><time>2026-05-03T11:04:21.007Z</time></trkpt><trkpt lat="42.2075843" lon="13.8949789"><ele>231.83333333333334</ele><time>2026-05-03T11:04:22.007Z</time></trkpt><trkpt lat="42.207637" lon="13.8950659"><ele>231.0</ele><time>2026-05-03T11:04:23.007Z</time></trkpt><trkpt lat="42.2076917" lon="13.8951764"><ele>231.0</ele><time>2026-05-03T11:04:25.007Z</time></trkpt><trkpt lat="42.2076931" lon="13.8952709"><ele>231.00000000000003</ele><time>2026-05-03T11:04:27.006Z</time></trkpt><trkpt lat="42.2076827" lon="13.8954287"><ele>231.00000000000003</ele><time>2026-05-03T11:04:29.007Z</time></trkpt><trkpt lat="42.2077165" lon="13.8955287"><ele>231.0</ele><time>2026-05-03T11:04:30.007Z</time></trkpt><trkpt lat="42.2077537" lon="13.8956545"><ele>231.0</ele><time>2026-05-03T11:04:31.007Z</time></trkpt><trkpt lat="42.2077884" lon="13.8957847"><ele>231.0</ele><time>2026-05-03T11:04:32.007Z</time></trkpt><trkpt lat="42.2078159" lon="13.8959014"><ele>231.0</ele><time>2026-05-03T11:04:33.007Z</time></trkpt><trkpt lat="42.207844" lon="13.8960085"><ele>231.0</ele><time>2026-05-03T11:04:34.007Z</time></trkpt><trkpt lat="42.2078716" lon="13.8961146"><ele>231.0</ele><time>2026-05-03T11:04:35.007Z</time></trkpt><trkpt lat="42.2078952" lon="13.8962279"><ele>231.0</ele><time>2026-05-03T11:04:36.007Z</time></trkpt><trkpt lat="42.2079206" lon="13.8963421"><ele>231.0</ele><time>2026-05-03T11:04:37.006Z</time></trkpt><trkpt lat="42.2079469" lon="13.8964562"><ele>232.4</ele><time>2026-05-03T11:04:38.007Z</time></trkpt><trkpt lat="42.2079764" lon="13.8965747"><ele>233.8</ele><time>2026-05-03T11:04:39.007Z</time></trkpt><trkpt lat="42.2080027" lon="13.896707"><ele>235.20000000000002</ele><time>2026-05-03T11:04:40.006Z</time></trkpt><trkpt lat="42.2080361" lon="13.8968404"><ele>236.60000000000002</ele><time>2026-05-03T11:04:41.006Z</time></trkpt><trkpt lat="42.2080747" lon="13.8969809"><ele>238.0</ele><time>2026-05-03T11:04:42.007Z</time></trkpt><trkpt lat="42.2081142" lon="13.8971291"><ele>238.5</ele><time>2026-05-03T11:04:43.006Z</time></trkpt><trkpt lat="42.2081605" lon="13.8972825"><ele>239.0</ele><time>2026-05-03T11:04:44.007Z</time></trkpt><trkpt lat="42.2082049" lon="13.8974472"><ele>239.5</ele><time>2026-05-03T11:04:45.007Z</time></trkpt><trkpt lat="42.2082464" lon="13.8976135"><ele>240.0</ele><time>2026-05-03T11:04:46.006Z</time></trkpt><trkpt lat="42.2082823" lon="13.8977645"><ele>241.6</ele><time>2026-05-03T11:04:47.007Z</time></trkpt><trkpt lat="42.2083146" lon="13.8978902"><ele>243.2</ele><time>2026-05-03T11:04:48.007Z</time></trkpt><trkpt lat="42.2083417" lon="13.8979953"><ele>244.8</ele><time>2026-05-03T11:04:49.007Z</time></trkpt><trkpt lat="42.2083748" lon="13.8981228"><ele>246.4</ele><time>2026-05-03T11:04:51.006Z</time></trkpt><trkpt lat="42.2084067" lon="13.8982656"><ele>248.0</ele><time>2026-05-03T11:04:53.006Z</time></trkpt><trkpt lat="42.2084243" lon="13.89837"><ele>248.83333333333334</ele><time>2026-05-03T11:04:54.007Z</time></trkpt><trkpt lat="42.2084375" lon="13.8984968"><ele>249.66666666666669</ele><time>2026-05-03T11:04:55.007Z</time></trkpt><trkpt lat="42.2084547" lon="13.8986273"><ele>250.5</ele><time>2026-05-03T11:04:56.007Z</time></trkpt><trkpt lat="42.2084731" lon="13.8987427"><ele>251.33333333333331</ele><time>2026-05-03T11:04:57.006Z</time></trkpt><trkpt lat="42.2084859" lon="13.8988414"><ele>252.16666666666666</ele><time>2026-05-03T11:04:58.006Z</time></trkpt><trkpt lat="42.2084975" lon="13.8989611"><ele>253.0</ele><time>2026-05-03T11:05:00.007Z</time></trkpt><trkpt lat="42.2084781" lon="13.8987943"><ele>253.0</ele><time>2026-05-03T11:05:26.005Z</time></trkpt><trkpt lat="42.2084577" lon="13.8986874"><ele>253.0</ele><time>2026-05-03T11:05:27.006Z</time></trkpt><trkpt lat="42.2084432" lon="13.8985558"><ele>253.0</ele><time>2026-05-03T11:05:28.005Z</time></trkpt><trkpt lat="42.208428" lon="13.8984189"><ele>253.0</ele><time>2026-05-03T11:05:29.006Z</time></trkpt><trkpt lat="42.2084011" lon="13.8982661"><ele>253.0</ele><time>2026-05-03T11:05:30.005Z</time></trkpt><trkpt lat="42.2083709" lon="13.8981206"><ele>251.75</ele><time>2026-05-03T11:05:31.006Z</time></trkpt><trkpt lat="42.2083371" lon="13.8979703"><ele>250.5</ele><time>2026-05-03T11:05:32.006Z</time></trkpt><trkpt lat="42.208296" lon="13.8978071"><ele>249.25</ele><time>2026-05-03T11:05:33.005Z</time></trkpt><trkpt lat="42.2082569" lon="13.8976508"><ele>248.0</ele><time>2026-05-03T11:05:34.006Z</time></trkpt><trkpt lat="42.2082119" lon="13.8974948"><ele>247.25</ele><time>2026-05-03T11:05:35.006Z</time></trkpt><trkpt lat="42.2081684" lon="13.8973445"><ele>246.5</ele><time>2026-05-03T11:05:36.005Z</time></trkpt><trkpt lat="42.2081261" lon="13.8971928"><ele>245.75</ele><time>2026-05-03T11:05:37.005Z</time></trkpt><trkpt lat="42.208083" lon="13.8970373"><ele>245.0</ele><time>2026-05-03T11:05:38.006Z</time></trkpt><trkpt lat="42.2080451" lon="13.8968801"><ele>243.6</ele><time>2026-05-03T11:05:39.005Z</time></trkpt><trkpt lat="42.2080091" lon="13.8967251"><ele>242.2</ele><time>2026-05-03T11:05:40.005Z</time></trkpt><trkpt lat="42.2079783" lon="13.8965777"><ele>240.8</ele><time>2026-05-03T11:05:41.005Z</time></trkpt><trkpt lat="42.2079468" lon="13.896441"><ele>239.4</ele><time>2026-05-03T11:05:42.005Z</time></trkpt><trkpt lat="42.2079143" lon="13.8963145"><ele>238.0</ele><time>2026-05-03T11:05:43.005Z</time></trkpt><trkpt lat="42.2078853" lon="13.8961926"><ele>238.0</ele><time>2026-05-03T11:05:44.005Z</time></trkpt><trkpt lat="42.2078608" lon="13.8960777"><ele>238.0</ele><time>2026-05-03T11:05:45.005Z</time></trkpt><trkpt lat="42.2078301" lon="13.8959604"><ele>238.0</ele><time>2026-05-03T11:05:46.005Z</time></trkpt><trkpt lat="42.2077967" lon="13.8958362"><ele>238.0</ele><time>2026-05-03T11:05:47.005Z</time></trkpt><trkpt lat="42.2077622" lon="13.895711"><ele>238.0</ele><time>2026-05-03T11:05:48.006Z</time></trkpt><trkpt lat="42.2077342" lon="13.8955961"><ele>236.60000000000002</ele><time>2026-05-03T11:05:49.005Z</time></trkpt><trkpt lat="42.2077097" lon="13.8954976"><ele>235.20000000000002</ele><time>2026-05-03T11:05:50.006Z</time></trkpt><trkpt lat="42.2076896" lon="13.8953599"><ele>233.8</ele><time>2026-05-03T11:05:52.005Z</time></trkpt><trkpt lat="42.2077643" lon="13.8953188"><ele>232.4</ele><time>2026-05-03T11:05:55.005Z</time></trkpt><trkpt lat="42.2078412" lon="13.8953869"><ele>231.0</ele><time>2026-05-03T11:05:57.005Z</time></trkpt><trkpt lat="42.2079209" lon="13.8954857"><ele>231.0</ele><time>2026-05-03T11:05:59.006Z</time></trkpt><trkpt lat="42.2080094" lon="13.8956132"><ele>231.0</ele><time>2026-05-03T11:06:01.006Z</time></trkpt><trkpt lat="42.208052" lon="13.8956807"><ele>231.0</ele><time>2026-05-03T11:06:02.005Z</time></trkpt><trkpt lat="42.2080942" lon="13.8957554"><ele>231.0</ele><time>2026-05-03T11:06:03.006Z</time></trkpt><trkpt lat="42.2081407" lon="13.895828"><ele>231.0</ele><time>2026-05-03T11:06:04.005Z</time></trkpt><trkpt lat="42.2081894" lon="13.8958926"><ele>231.0</ele><time>2026-05-03T11:06:05.006Z</time></trkpt><trkpt lat="42.2082403" lon="13.8959572"><ele>230.83333333333334</ele><time>2026-05-03T11:06:06.006Z</time></trkpt><trkpt lat="42.2082896" lon="13.8960251"><ele>230.66666666666669</ele><time>2026-05-03T11:06:07.005Z</time></trkpt><trkpt lat="42.2083379" lon="13.8961009"><ele>230.5</ele><time>2026-05-03T11:06:08.005Z</time></trkpt><trkpt lat="42.2083859" lon="13.8961687"><ele>230.33333333333334</ele><time>2026-05-03T11:06:09.005Z</time></trkpt><trkpt lat="42.2084372" lon="13.8962273"><ele>230.16666666666669</ele><time>2026-05-03T11:06:10.006Z</time></trkpt><trkpt lat="42.208519" lon="13.896301"><ele>230.0</ele><time>2026-05-03T11:06:12.005Z</time></trkpt><trkpt lat="42.2085756" lon="13.8963735"><ele>230.0</ele><time>2026-05-03T11:06:14.006Z</time></trkpt><trkpt lat="42.2086394" lon="13.8964873"><ele>230.0</ele><time>2026-05-03T11:06:16.006Z</time></trkpt><trkpt lat="42.208705" lon="13.8966008"><ele>230.0</ele><time>2026-05-03T11:06:18.006Z</time></trkpt><trkpt lat="42.2087756" lon="13.8967213"><ele>230.0</ele><time>2026-05-03T11:06:20.006Z</time></trkpt><trkpt lat="42.2088183" lon="13.8967903"><ele>230.0</ele><time>2026-05-03T11:06:21.006Z</time></trkpt><trkpt lat="42.2088589" lon="13.8968722"><ele>230.83333333333334</ele><time>2026-05-03T11:06:22.006Z</time></trkpt><trkpt lat="42.2089048" lon="13.8969474"><ele>231.66666666666669</ele><time>2026-05-03T11:06:23.006Z</time></trkpt><trkpt lat="42.2089482" lon="13.8970117"><ele>232.5</ele><time>2026-05-03T11:06:24.005Z</time></trkpt><trkpt lat="42.2090017" lon="13.8970821"><ele>233.33333333333331</ele><time>2026-05-03T11:06:25.005Z</time></trkpt><trkpt lat="42.209057" lon="13.897157"><ele>234.16666666666666</ele><time>2026-05-03T11:06:26.006Z</time></trkpt><trkpt lat="42.2091152" lon="13.8972421"><ele>235.0</ele><time>2026-05-03T11:06:27.006Z</time></trkpt><trkpt lat="42.2091762" lon="13.897337"><ele>235.0</ele><time>2026-05-03T11:06:28.005Z</time></trkpt><trkpt lat="42.2092434" lon="13.8974369"><ele>235.0</ele><time>2026-05-03T11:06:29.006Z</time></trkpt><trkpt lat="42.2093073" lon="13.8975414"><ele>235.0</ele><time>2026-05-03T11:06:30.006Z</time></trkpt><trkpt lat="42.2093698" lon="13.8976365"><ele>235.0</ele><time>2026-05-03T11:06:31.006Z</time></trkpt><trkpt lat="42.2094315" lon="13.8977281"><ele>235.0</ele><time>2026-05-03T11:06:32.005Z</time></trkpt><trkpt lat="42.2094906" lon="13.8978192"><ele>235.83333333333331</ele><time>2026-05-03T11:06:33.006Z</time></trkpt><trkpt lat="42.2095421" lon="13.8979057"><ele>236.66666666666666</ele><time>2026-05-03T11:06:34.005Z</time></trkpt><trkpt lat="42.209578" lon="13.8979875"><ele>237.5</ele><time>2026-05-03T11:06:35.005Z</time></trkpt><trkpt lat="42.2095965" lon="13.8980758"><ele>238.33333333333331</ele><time>2026-05-03T11:06:36.005Z</time></trkpt><trkpt lat="42.2096178" lon="13.8981605"><ele>239.16666666666666</ele><time>2026-05-03T11:06:37.006Z</time></trkpt><trkpt lat="42.2096874" lon="13.8982763"><ele>240.0</ele><time>2026-05-03T11:06:39.005Z</time></trkpt><trkpt lat="42.209781" lon="13.898306"><ele>239.16666666666666</ele><time>2026-05-03T11:06:41.005Z</time></trkpt><trkpt lat="42.2098751" lon="13.898321"><ele>238.33333333333331</ele><time>2026-05-03T11:06:43.005Z</time></trkpt><trkpt lat="42.2099316" lon="13.8984057"><ele>237.5</ele><time>2026-05-03T11:06:45.006Z</time></trkpt><trkpt lat="42.2099759" lon="13.8984832"><ele>236.66666666666666</ele><time>2026-05-03T11:06:46.005Z</time></trkpt><trkpt lat="42.2100138" lon="13.8985702"><ele>235.83333333333331</ele><time>2026-05-03T11:06:47.006Z</time></trkpt><trkpt lat="42.2100617" lon="13.8986421"><ele>235.0</ele><time>2026-05-03T11:06:48.006Z</time></trkpt><trkpt lat="42.2101109" lon="13.8987092"><ele>235.0</ele><time>2026-05-03T11:06:49.006Z</time></trkpt><trkpt lat="42.2101526" lon="13.898778"><ele>234.99999999999997</ele><time>2026-05-03T11:06:50.006Z</time></trkpt><trkpt lat="42.2101967" lon="13.8988553"><ele>235.0</ele><time>2026-05-03T11:06:51.006Z</time></trkpt><trkpt lat="42.2102427" lon="13.8989243"><ele>235.0</ele><time>2026-05-03T11:06:52.005Z</time></trkpt><trkpt lat="42.2103085" lon="13.8990183"><ele>234.99999999999997</ele><time>2026-05-03T11:08:05.006Z</time></trkpt><trkpt lat="42.210354" lon="13.8990919"><ele>235.0</ele><time>2026-05-03T11:08:08.006Z</time></trkpt><trkpt lat="42.2103974" lon="13.8991537"><ele>235.0</ele><time>2026-05-03T11:08:18.006Z</time></trkpt><trkpt lat="42.2104551" lon="13.8992476"><ele>235.4</ele><time>2026-05-03T11:08:20.006Z</time></trkpt><trkpt lat="42.2105131" lon="13.8993415"><ele>235.8</ele><time>2026-05-03T11:08:22.005Z</time></trkpt><trkpt lat="42.2105659" lon="13.8994661"><ele>236.2</ele><time>2026-05-03T11:08:24.005Z</time></trkpt><trkpt lat="42.2106056" lon="13.8995752"><ele>236.6</ele><time>2026-05-03T11:08:26.006Z</time></trkpt><trkpt lat="42.2106601" lon="13.899667"><ele>237.0</ele><time>2026-05-03T11:08:28.005Z</time></trkpt><trkpt lat="42.2107266" lon="13.8997903"><ele>235.4285714285714</ele><time>2026-05-03T11:08:30.006Z</time></trkpt><trkpt lat="42.2107615" lon="13.8998655"><ele>233.85714285714283</ele><time>2026-05-03T11:08:31.006Z</time></trkpt><trkpt lat="42.2107956" lon="13.8999451"><ele>232.28571428571428</ele><time>2026-05-03T11:08:32.006Z</time></trkpt><trkpt lat="42.2108377" lon="13.9000183"><ele>230.7142857142857</ele><time>2026-05-03T11:08:33.005Z</time></trkpt><trkpt lat="42.2108886" lon="13.9000897"><ele>229.1428571428571</ele><time>2026-05-03T11:08:34.005Z</time></trkpt><trkpt lat="42.2109361" lon="13.9001645"><ele>227.57142857142858</ele><time>2026-05-03T11:08:35.005Z</time></trkpt><trkpt lat="42.2109872" lon="13.9002307"><ele>226.0</ele><time>2026-05-03T11:08:36.005Z</time></trkpt><trkpt lat="42.2110379" lon="13.9002867"><ele>226.0</ele><time>2026-05-03T11:08:37.006Z</time></trkpt><trkpt lat="42.2111148" lon="13.9003968"><ele>226.00000000000003</ele><time>2026-05-03T11:08:39.005Z</time></trkpt><trkpt lat="42.2111753" lon="13.9005201"><ele>226.00000000000003</ele><time>2026-05-03T11:08:41.006Z</time></trkpt><trkpt lat="42.2112384" lon="13.9006358"><ele>226.0</ele><time>2026-05-03T11:08:43.005Z</time></trkpt><trkpt lat="42.2113036" lon="13.9006763"><ele>226.0</ele><time>2026-05-03T11:08:45.006Z</time></trkpt><trkpt lat="42.211389" lon="13.9006614"><ele>226.0</ele><time>2026-05-03T11:08:47.006Z</time></trkpt><trkpt lat="42.2114779" lon="13.9006149"><ele>226.00000000000003</ele><time>2026-05-03T11:08:49.006Z</time></trkpt><trkpt lat="42.2115509" lon="13.9004661"><ele>226.00000000000003</ele><time>2026-05-03T11:11:38.004Z</time></trkpt><trkpt lat="42.2115766" lon="13.9005679"><ele>226.0</ele><time>2026-05-03T11:11:40.005Z</time></trkpt><trkpt lat="42.2116128" lon="13.9007227"><ele>226.0</ele><time>2026-05-03T11:11:42.005Z</time></trkpt><trkpt lat="42.2116412" lon="13.9008031"><ele>225.66666666666666</ele><time>2026-05-03T11:11:43.004Z</time></trkpt><trkpt lat="42.2116916" lon="13.9009558"><ele>225.33333333333331</ele><time>2026-05-03T11:11:45.004Z</time></trkpt><trkpt lat="42.2117175" lon="13.9010428"><ele>225.0</ele><time>2026-05-03T11:11:46.005Z</time></trkpt><trkpt lat="42.2117552" lon="13.901138"><ele>224.66666666666669</ele><time>2026-05-03T11:11:47.005Z</time></trkpt><trkpt lat="42.2117987" lon="13.9012313"><ele>224.33333333333334</ele><time>2026-05-03T11:11:48.005Z</time></trkpt><trkpt lat="42.2118488" lon="13.9013174"><ele>224.0</ele><time>2026-05-03T11:11:49.005Z</time></trkpt><trkpt lat="42.2119043" lon="13.9013976"><ele>224.00000000000003</ele><time>2026-05-03T11:11:50.005Z</time></trkpt><trkpt lat="42.2119638" lon="13.901464"><ele>224.0</ele><time>2026-05-03T11:11:51.004Z</time></trkpt><trkpt lat="42.2120315" lon="13.9015262"><ele>224.0</ele><time>2026-05-03T11:11:52.004Z</time></trkpt><trkpt lat="42.2121032" lon="13.9015897"><ele>224.0</ele><time>2026-05-03T11:11:53.005Z</time></trkpt><trkpt lat="42.2121726" lon="13.9016578"><ele>224.00000000000003</ele><time>2026-05-03T11:11:54.004Z</time></trkpt><trkpt lat="42.2122402" lon="13.9017257"><ele>224.0</ele><time>2026-05-03T11:11:55.004Z</time></trkpt><trkpt lat="42.2123128" lon="13.9017877"><ele>222.79999999999998</ele><time>2026-05-03T11:11:56.005Z</time></trkpt><trkpt lat="42.212386" lon="13.9018552"><ele>221.59999999999997</ele><time>2026-05-03T11:11:57.005Z</time></trkpt><trkpt lat="42.2124634" lon="13.9019182"><ele>220.4</ele><time>2026-05-03T11:11:58.004Z</time></trkpt><trkpt lat="42.2125422" lon="13.9019866"><ele>219.2</ele><time>2026-05-03T11:11:59.005Z</time></trkpt><trkpt lat="42.2126212" lon="13.9020528"><ele>218.0</ele><time>2026-05-03T11:12:00.004Z</time></trkpt><trkpt lat="42.212698" lon="13.9021244"><ele>218.0</ele><time>2026-05-03T11:12:01.005Z</time></trkpt><trkpt lat="42.2127759" lon="13.9021943"><ele>218.0</ele><time>2026-05-03T11:12:02.004Z</time></trkpt><trkpt lat="42.2128566" lon="13.9022662"><ele>218.0</ele><time>2026-05-03T11:12:03.004Z</time></trkpt><trkpt lat="42.2129389" lon="13.9023332"><ele>218.0</ele><time>2026-05-03T11:12:04.005Z</time></trkpt><trkpt lat="42.2130203" lon="13.9023989"><ele>218.0</ele><time>2026-05-03T11:12:05.004Z</time></trkpt><trkpt lat="42.2131037" lon="13.9024654"><ele>217.66666666666669</ele><time>2026-05-03T11:12:06.006Z</time></trkpt><trkpt lat="42.2131863" lon="13.9025394"><ele>217.33333333333334</ele><time>2026-05-03T11:12:07.006Z</time></trkpt><trkpt lat="42.2132631" lon="13.9026145"><ele>217.0</ele><time>2026-05-03T11:12:08.006Z</time></trkpt><trkpt lat="42.213335" lon="13.902685"><ele>216.66666666666669</ele><time>2026-05-03T11:12:09.006Z</time></trkpt><trkpt lat="42.2134034" lon="13.9027453"><ele>216.33333333333334</ele><time>2026-05-03T11:12:10.005Z</time></trkpt><trkpt lat="42.2134676" lon="13.902803"><ele>216.0</ele><time>2026-05-03T11:12:11.006Z</time></trkpt><trkpt lat="42.2135197" lon="13.9028562"><ele>216.0</ele><time>2026-05-03T11:12:12.006Z</time></trkpt><trkpt lat="42.213586" lon="13.9029252"><ele>216.0</ele><time>2026-05-03T11:12:14.005Z</time></trkpt><trkpt lat="42.2136746" lon="13.9029915"><ele>216.0</ele><time>2026-05-03T11:12:58.005Z</time></trkpt><trkpt lat="42.2137604" lon="13.9030527"><ele>216.0</ele><time>2026-05-03T11:12:59.005Z</time></trkpt><trkpt lat="42.2138283" lon="13.9031073"><ele>216.0</ele><time>2026-05-03T11:13:00.006Z</time></trkpt><trkpt lat="42.2138997" lon="13.9031695"><ele>216.0</ele><time>2026-05-03T11:13:01.006Z</time></trkpt><trkpt lat="42.2139691" lon="13.9032323"><ele>216.16666666666666</ele><time>2026-05-03T11:13:02.006Z</time></trkpt><trkpt lat="42.2140352" lon="13.9032908"><ele>216.33333333333331</ele><time>2026-05-03T11:13:03.005Z</time></trkpt><trkpt lat="42.2141064" lon="13.9033494"><ele>216.5</ele><time>2026-05-03T11:13:04.005Z</time></trkpt><trkpt lat="42.2141828" lon="13.903414"><ele>216.66666666666666</ele><time>2026-05-03T11:13:05.006Z</time></trkpt><trkpt lat="42.2142608" lon="13.9034836"><ele>216.83333333333331</ele><time>2026-05-03T11:13:06.005Z</time></trkpt><trkpt lat="42.2143428" lon="13.903554"><ele>217.0</ele><time>2026-05-03T11:13:07.006Z</time></trkpt><trkpt lat="42.2144269" lon="13.9036269"><ele>217.0</ele><time>2026-05-03T11:13:08.005Z</time></trkpt><trkpt lat="42.2145118" lon="13.9037042"><ele>217.0</ele><time>2026-05-03T11:13:09.006Z</time></trkpt><trkpt lat="42.2145978" lon="13.903781"><ele>217.0</ele><time>2026-05-03T11:13:10.005Z</time></trkpt><trkpt lat="42.2146837" lon="13.9038559"><ele>217.0</ele><time>2026-05-03T11:13:11.005Z</time></trkpt><trkpt lat="42.2147698" lon="13.9039339"><ele>217.0</ele><time>2026-05-03T11:13:12.006Z</time></trkpt><trkpt lat="42.2148584" lon="13.9040081"><ele>216.8</ele><time>2026-05-03T11:13:13.006Z</time></trkpt><trkpt lat="42.2149452" lon="13.904078"><ele>216.6</ele><time>2026-05-03T11:13:14.006Z</time></trkpt><trkpt lat="42.2150318" lon="13.904148"><ele>216.40000000000003</ele><time>2026-05-03T11:13:15.006Z</time></trkpt><trkpt lat="42.21512" lon="13.9042117"><ele>216.20000000000002</ele><time>2026-05-03T11:13:16.005Z</time></trkpt><trkpt lat="42.2152089" lon="13.9042733"><ele>216.0</ele><time>2026-05-03T11:13:17.006Z</time></trkpt><trkpt lat="42.2153012" lon="13.904338"><ele>216.60000000000002</ele><time>2026-05-03T11:13:18.005Z</time></trkpt><trkpt lat="42.2153949" lon="13.904404"><ele>217.20000000000002</ele><time>2026-05-03T11:13:19.006Z</time></trkpt><trkpt lat="42.2154851" lon="13.9044643"><ele>217.79999999999998</ele><time>2026-05-03T11:13:20.005Z</time></trkpt><trkpt lat="42.215582" lon="13.9045224"><ele>218.39999999999998</ele><time>2026-05-03T11:13:21.006Z</time></trkpt><trkpt lat="42.2156822" lon="13.9045887"><ele>219.0</ele><time>2026-05-03T11:13:22.005Z</time></trkpt><trkpt lat="42.2157846" lon="13.9046569"><ele>219.0</ele><time>2026-05-03T11:13:23.006Z</time></trkpt><trkpt lat="42.2158873" lon="13.9047242"><ele>219.0</ele><time>2026-05-03T11:13:24.006Z</time></trkpt><trkpt lat="42.2159886" lon="13.9047917"><ele>219.0</ele><time>2026-05-03T11:13:25.006Z</time></trkpt><trkpt lat="42.2160931" lon="13.9048589"><ele>219.0</ele><time>2026-05-03T11:13:26.005Z</time></trkpt><trkpt lat="42.2161962" lon="13.9049278"><ele>219.0</ele><time>2026-05-03T11:13:27.006Z</time></trkpt><trkpt lat="42.2162974" lon="13.9049959"><ele>219.0</ele><time>2026-05-03T11:13:28.006Z</time></trkpt><trkpt lat="42.216397" lon="13.9050656"><ele>219.0</ele><time>2026-05-03T11:13:29.006Z</time></trkpt><trkpt lat="42.216497" lon="13.9051343"><ele>219.0</ele><time>2026-05-03T11:13:30.005Z</time></trkpt><trkpt lat="42.2165999" lon="13.9052029"><ele>219.25</ele><time>2026-05-03T11:13:31.006Z</time></trkpt><trkpt lat="42.2167015" lon="13.9052745"><ele>219.5</ele><time>2026-05-03T11:13:32.006Z</time></trkpt><trkpt lat="42.2168084" lon="13.905347"><ele>219.75</ele><time>2026-05-03T11:13:33.006Z</time></trkpt><trkpt lat="42.2169175" lon="13.9054174"><ele>220.0</ele><time>2026-05-03T11:13:34.006Z</time></trkpt><trkpt lat="42.2170293" lon="13.9054845"><ele>220.0</ele><time>2026-05-03T11:13:35.005Z</time></trkpt><trkpt lat="42.2171413" lon="13.9055556"><ele>220.0</ele><time>2026-05-03T11:13:36.006Z</time></trkpt><trkpt lat="42.2172557" lon="13.9056287"><ele>220.0</ele><time>2026-05-03T11:13:37.006Z</time></trkpt><trkpt lat="42.2173715" lon="13.905701"><ele>220.0</ele><time>2026-05-03T11:13:38.006Z</time></trkpt><trkpt lat="42.2174845" lon="13.9057798"><ele>218.75</ele><time>2026-05-03T11:13:39.006Z</time></trkpt><trkpt lat="42.2175946" lon="13.9058649"><ele>217.5</ele><time>2026-05-03T11:13:40.006Z</time></trkpt><trkpt lat="42.2177024" lon="13.9059562"><ele>216.25</ele><time>2026-05-03T11:13:41.005Z</time></trkpt><trkpt lat="42.2178047" lon="13.9060607"><ele>215.0</ele><time>2026-05-03T11:13:42.006Z</time></trkpt><trkpt lat="42.2179047" lon="13.9061723"><ele>215.5</ele><time>2026-05-03T11:13:43.006Z</time></trkpt><trkpt lat="42.2180002" lon="13.9062914"><ele>216.0</ele><time>2026-05-03T11:13:44.006Z</time></trkpt><trkpt lat="42.218094" lon="13.9064069"><ele>216.5</ele><time>2026-05-03T11:13:45.006Z</time></trkpt><trkpt lat="42.2181886" lon="13.9065254"><ele>217.0</ele><time>2026-05-03T11:13:46.006Z</time></trkpt><trkpt lat="42.218281" lon="13.9066457"><ele>219.0</ele><time>2026-05-03T11:13:47.006Z</time></trkpt><trkpt lat="42.2183734" lon="13.9067698"><ele>221.0</ele><time>2026-05-03T11:13:48.006Z</time></trkpt><trkpt lat="42.218463" lon="13.9068899"><ele>223.0</ele><time>2026-05-03T11:13:49.005Z</time></trkpt><trkpt lat="42.218554" lon="13.9070116"><ele>225.0</ele><time>2026-05-03T11:13:50.006Z</time></trkpt><trkpt lat="42.2186468" lon="13.9071377"><ele>225.0</ele><time>2026-05-03T11:13:51.006Z</time></trkpt><trkpt lat="42.2187423" lon="13.907265"><ele>225.0</ele><time>2026-05-03T11:13:52.005Z</time></trkpt><trkpt lat="42.2188425" lon="13.9073926"><ele>225.0</ele><time>2026-05-03T11:13:53.006Z</time></trkpt><trkpt lat="42.2189394" lon="13.9075267"><ele>225.0</ele><time>2026-05-03T11:13:54.006Z</time></trkpt><trkpt lat="42.2190335" lon="13.9076572"><ele>224.5</ele><time>2026-05-03T11:13:55.006Z</time></trkpt><trkpt lat="42.2191293" lon="13.9077884"><ele>224.0</ele><time>2026-05-03T11:13:56.005Z</time></trkpt><trkpt lat="42.2192278" lon="13.9079239"><ele>223.5</ele><time>2026-05-03T11:13:57.005Z</time></trkpt><trkpt lat="42.2193291" lon="13.9080556"><ele>223.0</ele><time>2026-05-03T11:13:58.005Z</time></trkpt><trkpt lat="42.2194311" lon="13.9081875"><ele>223.0</ele><time>2026-05-03T11:13:59.005Z</time></trkpt><trkpt lat="42.2195333" lon="13.9083194"><ele>223.0</ele><time>2026-05-03T11:14:00.006Z</time></trkpt><trkpt lat="42.2196354" lon="13.908456"><ele>223.0</ele><time>2026-05-03T11:14:01.005Z</time></trkpt><trkpt lat="42.2197405" lon="13.9085863"><ele>223.0</ele><time>2026-05-03T11:14:02.005Z</time></trkpt><trkpt lat="42.2198424" lon="13.9087219"><ele>223.25</ele><time>2026-05-03T11:14:03.006Z</time></trkpt><trkpt lat="42.2199449" lon="13.908857"><ele>223.5</ele><time>2026-05-03T11:14:04.006Z</time></trkpt><trkpt lat="42.2200497" lon="13.9089948"><ele>223.75</ele><time>2026-05-03T11:14:05.005Z</time></trkpt><trkpt lat="42.2201543" lon="13.9091304"><ele>224.0</ele><time>2026-05-03T11:14:06.006Z</time></trkpt><trkpt lat="42.2202551" lon="13.9092621"><ele>224.0</ele><time>2026-05-03T11:14:07.006Z</time></trkpt><trkpt lat="42.2203611" lon="13.9093949"><ele>224.0</ele><time>2026-05-03T11:14:08.005Z</time></trkpt><trkpt lat="42.220464" lon="13.9095326"><ele>224.0</ele><time>2026-05-03T11:14:09.006Z</time></trkpt><trkpt lat="42.2205641" lon="13.9096694"><ele>224.0</ele><time>2026-05-03T11:14:10.006Z</time></trkpt><trkpt lat="42.2206634" lon="13.9098122"><ele>223.0</ele><time>2026-05-03T11:14:11.005Z</time></trkpt><trkpt lat="42.2207663" lon="13.9099449"><ele>222.0</ele><time>2026-05-03T11:14:12.005Z</time></trkpt><trkpt lat="42.2208718" lon="13.9100788"><ele>221.0</ele><time>2026-05-03T11:14:13.005Z</time></trkpt><trkpt lat="42.2209766" lon="13.9102053"><ele>220.0</ele><time>2026-05-03T11:14:14.005Z</time></trkpt><trkpt lat="42.2210851" lon="13.9103326"><ele>220.0</ele><time>2026-05-03T11:14:15.005Z</time></trkpt><trkpt lat="42.2211857" lon="13.9104685"><ele>220.0</ele><time>2026-05-03T11:14:16.006Z</time></trkpt><trkpt lat="42.2212836" lon="13.9106041"><ele>220.0</ele><time>2026-05-03T11:14:17.005Z</time></trkpt><trkpt lat="42.2213835" lon="13.9107375"><ele>220.0</ele><time>2026-05-03T11:14:18.005Z</time></trkpt><trkpt lat="42.2214843" lon="13.9108666"><ele>219.25</ele><time>2026-05-03T11:14:19.006Z</time></trkpt><trkpt lat="42.22158" lon="13.9110054"><ele>218.5</ele><time>2026-05-03T11:14:20.005Z</time></trkpt><trkpt lat="42.2216824" lon="13.9111371"><ele>217.75</ele><time>2026-05-03T11:14:21.005Z</time></trkpt><trkpt lat="42.2217848" lon="13.9112749"><ele>217.0</ele><time>2026-05-03T11:14:22.006Z</time></trkpt><trkpt lat="42.2218818" lon="13.9114215"><ele>217.0</ele><time>2026-05-03T11:14:23.006Z</time></trkpt><trkpt lat="42.2219755" lon="13.9115661"><ele>217.0</ele><time>2026-05-03T11:14:24.005Z</time></trkpt><trkpt lat="42.2220689" lon="13.9117181"><ele>217.0</ele><time>2026-05-03T11:14:25.005Z</time></trkpt><trkpt lat="42.2221575" lon="13.9118718"><ele>217.0</ele><time>2026-05-03T11:14:26.006Z</time></trkpt><trkpt lat="42.2222441" lon="13.9120352"><ele>216.5</ele><time>2026-05-03T11:14:27.005Z</time></trkpt><trkpt lat="42.222325" lon="13.9121997"><ele>216.0</ele><time>2026-05-03T11:14:28.006Z</time></trkpt><trkpt lat="42.2224" lon="13.9123644"><ele>215.5</ele><time>2026-05-03T11:14:29.005Z</time></trkpt><trkpt lat="42.2224698" lon="13.9125385"><ele>215.0</ele><time>2026-05-03T11:14:30.005Z</time></trkpt><trkpt lat="42.2225277" lon="13.9127124"><ele>216.0</ele><time>2026-05-03T11:14:31.006Z</time></trkpt><trkpt lat="42.2225773" lon="13.9128881"><ele>217.0</ele><time>2026-05-03T11:14:32.006Z</time></trkpt><trkpt lat="42.2226235" lon="13.9130648"><ele>218.0</ele><time>2026-05-03T11:14:33.006Z</time></trkpt><trkpt lat="42.2226733" lon="13.9132378"><ele>219.0</ele><time>2026-05-03T11:14:34.005Z</time></trkpt><trkpt lat="42.2227365" lon="13.9134011"><ele>221.25</ele><time>2026-05-03T11:14:35.005Z</time></trkpt><trkpt lat="42.2228136" lon="13.9135472"><ele>223.5</ele><time>2026-05-03T11:14:36.005Z</time></trkpt><trkpt lat="42.2229111" lon="13.9136786"><ele>225.75</ele><time>2026-05-03T11:14:37.005Z</time></trkpt><trkpt lat="42.2230112" lon="13.9137942"><ele>228.0</ele><time>2026-05-03T11:14:38.005Z</time></trkpt><trkpt lat="42.223125" lon="13.9139001"><ele>229.5</ele><time>2026-05-03T11:14:39.005Z</time></trkpt><trkpt lat="42.2232435" lon="13.9140023"><ele>231.0</ele><time>2026-05-03T11:14:40.006Z</time></trkpt><trkpt lat="42.2233584" lon="13.914104"><ele>232.5</ele><time>2026-05-03T11:14:41.005Z</time></trkpt><trkpt lat="42.2234723" lon="13.9142073"><ele>234.0</ele><time>2026-05-03T11:14:42.006Z</time></trkpt><trkpt lat="42.2235871" lon="13.9143106"><ele>234.0</ele><time>2026-05-03T11:14:43.005Z</time></trkpt><trkpt lat="42.2237064" lon="13.914417"><ele>234.0</ele><time>2026-05-03T11:14:44.005Z</time></trkpt><trkpt lat="42.2238259" lon="13.9145211"><ele>234.0</ele><time>2026-05-03T11:14:45.006Z</time></trkpt><trkpt lat="42.2239423" lon="13.9146327"><ele>234.0</ele><time>2026-05-03T11:14:46.006Z</time></trkpt><trkpt lat="42.2240467" lon="13.9147613"><ele>232.25</ele><time>2026-05-03T11:14:47.005Z</time></trkpt><trkpt lat="42.2241469" lon="13.914901"><ele>230.5</ele><time>2026-05-03T11:14:48.006Z</time></trkpt><trkpt lat="42.2242448" lon="13.9150394"><ele>228.75</ele><time>2026-05-03T11:14:49.006Z</time></trkpt><trkpt lat="42.2243448" lon="13.9151804"><ele>227.0</ele><time>2026-05-03T11:14:50.005Z</time></trkpt><trkpt lat="42.2244472" lon="13.915321"><ele>227.0</ele><time>2026-05-03T11:14:51.006Z</time></trkpt><trkpt lat="42.2245483" lon="13.9154631"><ele>227.0</ele><time>2026-05-03T11:14:52.005Z</time></trkpt><trkpt lat="42.224647" lon="13.9156105"><ele>227.0</ele><time>2026-05-03T11:14:53.006Z</time></trkpt><trkpt lat="42.2247374" lon="13.9157724"><ele>227.0</ele><time>2026-05-03T11:14:54.006Z</time></trkpt><trkpt lat="42.224819" lon="13.9159376"><ele>223.25</ele><time>2026-05-03T11:14:55.006Z</time></trkpt><trkpt lat="42.2248967" lon="13.9161065"><ele>219.5</ele><time>2026-05-03T11:14:56.005Z</time></trkpt><trkpt lat="42.2249781" lon="13.9162764"><ele>215.75</ele><time>2026-05-03T11:14:57.006Z</time></trkpt><trkpt lat="42.225051" lon="13.9164449"><ele>212.0</ele><time>2026-05-03T11:14:58.006Z</time></trkpt><trkpt lat="42.2251174" lon="13.9166186"><ele>212.0</ele><time>2026-05-03T11:14:59.005Z</time></trkpt><trkpt lat="42.2251746" lon="13.9168001"><ele>212.0</ele><time>2026-05-03T11:15:00.006Z</time></trkpt><trkpt lat="42.2252208" lon="13.9169817"><ele>212.0</ele><time>2026-05-03T11:15:01.006Z</time></trkpt><trkpt lat="42.2252647" lon="13.9171645"><ele>212.0</ele><time>2026-05-03T11:15:02.005Z</time></trkpt><trkpt lat="42.2253035" lon="13.917346"><ele>212.0</ele><time>2026-05-03T11:15:03.005Z</time></trkpt><trkpt lat="42.2253391" lon="13.9175286"><ele>212.0</ele><time>2026-05-03T11:15:04.005Z</time></trkpt><trkpt lat="42.2253764" lon="13.9177099"><ele>212.0</ele><time>2026-05-03T11:15:05.005Z</time></trkpt><trkpt lat="42.2254101" lon="13.9178893"><ele>212.0</ele><time>2026-05-03T11:15:06.006Z</time></trkpt><trkpt lat="42.2254439" lon="13.9180642"><ele>211.5</ele><time>2026-05-03T11:15:07.005Z</time></trkpt><trkpt lat="42.2254823" lon="13.9182373"><ele>211.0</ele><time>2026-05-03T11:15:08.005Z</time></trkpt><trkpt lat="42.2255196" lon="13.9184058"><ele>210.5</ele><time>2026-05-03T11:15:09.005Z</time></trkpt><trkpt lat="42.225552" lon="13.9185744"><ele>210.0</ele><time>2026-05-03T11:15:10.006Z</time></trkpt><trkpt lat="42.2255838" lon="13.9187497"><ele>210.0</ele><time>2026-05-03T11:15:11.006Z</time></trkpt><trkpt lat="42.2256229" lon="13.9189213"><ele>210.0</ele><time>2026-05-03T11:15:12.005Z</time></trkpt><trkpt lat="42.2256611" lon="13.9191003"><ele>210.0</ele><time>2026-05-03T11:15:13.005Z</time></trkpt><trkpt lat="42.2256979" lon="13.9192803"><ele>210.0</ele><time>2026-05-03T11:15:14.005Z</time></trkpt><trkpt lat="42.2257354" lon="13.9194606"><ele>209.75</ele><time>2026-05-03T11:15:15.005Z</time></trkpt><trkpt lat="42.2257745" lon="13.9196435"><ele>209.5</ele><time>2026-05-03T11:15:16.005Z</time></trkpt><trkpt lat="42.2258116" lon="13.9198232"><ele>209.25</ele><time>2026-05-03T11:15:17.006Z</time></trkpt><trkpt lat="42.2258523" lon="13.920003"><ele>209.0</ele><time>2026-05-03T11:15:18.006Z</time></trkpt><trkpt lat="42.2258926" lon="13.9201804"><ele>209.0</ele><time>2026-05-03T11:15:19.006Z</time></trkpt><trkpt lat="42.2259316" lon="13.9203594"><ele>209.0</ele><time>2026-05-03T11:15:20.006Z</time></trkpt><trkpt lat="42.2259697" lon="13.9205369"><ele>209.0</ele><time>2026-05-03T11:15:21.005Z</time></trkpt><trkpt lat="42.2260091" lon="13.9207098"><ele>209.0</ele><time>2026-05-03T11:15:22.006Z</time></trkpt><trkpt lat="42.226044" lon="13.9208916"><ele>209.75</ele><time>2026-05-03T11:15:23.006Z</time></trkpt><trkpt lat="42.2260749" lon="13.9210778"><ele>210.5</ele><time>2026-05-03T11:15:24.006Z</time></trkpt><trkpt lat="42.2260926" lon="13.9212719"><ele>211.25</ele><time>2026-05-03T11:15:25.005Z</time></trkpt><trkpt lat="42.2260961" lon="13.9214644"><ele>212.0</ele><time>2026-05-03T11:15:26.006Z</time></trkpt><trkpt lat="42.2260946" lon="13.9216518"><ele>211.75</ele><time>2026-05-03T11:15:27.006Z</time></trkpt><trkpt lat="42.2260863" lon="13.9218495"><ele>211.5</ele><time>2026-05-03T11:15:28.006Z</time></trkpt><trkpt lat="42.2260831" lon="13.9220433"><ele>211.25</ele><time>2026-05-03T11:15:29.006Z</time></trkpt><trkpt lat="42.2260774" lon="13.9222393"><ele>211.0</ele><time>2026-05-03T11:15:30.006Z</time></trkpt><trkpt lat="42.2260699" lon="13.9224306"><ele>210.25</ele><time>2026-05-03T11:15:31.006Z</time></trkpt><trkpt lat="42.2260653" lon="13.9226232"><ele>209.5</ele><time>2026-05-03T11:15:32.005Z</time></trkpt><trkpt lat="42.226062" lon="13.9228142"><ele>208.75</ele><time>2026-05-03T11:15:33.005Z</time></trkpt><trkpt lat="42.2260583" lon="13.9230036"><ele>208.0</ele><time>2026-05-03T11:15:34.006Z</time></trkpt><trkpt lat="42.2260555" lon="13.9231942"><ele>208.0</ele><time>2026-05-03T11:15:35.005Z</time></trkpt><trkpt lat="42.226055" lon="13.9233882"><ele>208.0</ele><time>2026-05-03T11:15:36.005Z</time></trkpt><trkpt lat="42.2260468" lon="13.9235841"><ele>208.0</ele><time>2026-05-03T11:15:37.005Z</time></trkpt><trkpt lat="42.2260374" lon="13.9237808"><ele>208.0</ele><time>2026-05-03T11:15:38.005Z</time></trkpt><trkpt lat="42.2260326" lon="13.9239754"><ele>208.0</ele><time>2026-05-03T11:15:39.006Z</time></trkpt><trkpt lat="42.2260297" lon="13.924174"><ele>208.0</ele><time>2026-05-03T11:15:40.006Z</time></trkpt><trkpt lat="42.2260232" lon="13.924371"><ele>208.0</ele><time>2026-05-03T11:15:41.005Z</time></trkpt><trkpt lat="42.2260197" lon="13.9245707"><ele>208.0</ele><time>2026-05-03T11:15:42.005Z</time></trkpt><trkpt lat="42.2260133" lon="13.9247673"><ele>208.0</ele><time>2026-05-03T11:15:43.006Z</time></trkpt><trkpt lat="42.2260102" lon="13.9249578"><ele>208.0</ele><time>2026-05-03T11:15:44.005Z</time></trkpt><trkpt lat="42.2260075" lon="13.9251414"><ele>208.0</ele><time>2026-05-03T11:15:45.006Z</time></trkpt><trkpt lat="42.2260064" lon="13.9253126"><ele>208.0</ele><time>2026-05-03T11:15:46.005Z</time></trkpt><trkpt lat="42.2260065" lon="13.9254747"><ele>208.2</ele><time>2026-05-03T11:15:47.005Z</time></trkpt><trkpt lat="42.2260024" lon="13.9256323"><ele>208.4</ele><time>2026-05-03T11:15:48.005Z</time></trkpt><trkpt lat="42.226" lon="13.9257757"><ele>208.6</ele><time>2026-05-03T11:15:49.005Z</time></trkpt><trkpt lat="42.2259993" lon="13.9259135"><ele>208.79999999999998</ele><time>2026-05-03T11:15:50.006Z</time></trkpt><trkpt lat="42.2259925" lon="13.9260411"><ele>209.0</ele><time>2026-05-03T11:15:51.006Z</time></trkpt><trkpt lat="42.2259661" lon="13.92616"><ele>208.66666666666669</ele><time>2026-05-03T11:15:52.006Z</time></trkpt><trkpt lat="42.2259124" lon="13.9262554"><ele>208.33333333333334</ele><time>2026-05-03T11:15:53.005Z</time></trkpt><trkpt lat="42.2258583" lon="13.9263466"><ele>208.0</ele><time>2026-05-03T11:15:54.005Z</time></trkpt><trkpt lat="42.2258207" lon="13.9264413"><ele>207.66666666666669</ele><time>2026-05-03T11:15:55.005Z</time></trkpt><trkpt lat="42.225816" lon="13.9265451"><ele>207.33333333333334</ele><time>2026-05-03T11:15:56.005Z</time></trkpt><trkpt lat="42.2258323" lon="13.9266433"><ele>207.0</ele><time>2026-05-03T11:15:57.005Z</time></trkpt><trkpt lat="42.2258809" lon="13.9267205"><ele>207.0</ele><time>2026-05-03T11:15:58.006Z</time></trkpt><trkpt lat="42.2259453" lon="13.926776"><ele>207.0</ele><time>2026-05-03T11:15:59.005Z</time></trkpt><trkpt lat="42.2260164" lon="13.9267822"><ele>207.0</ele><time>2026-05-03T11:16:00.005Z</time></trkpt><trkpt lat="42.2260886" lon="13.9267596"><ele>207.0</ele><time>2026-05-03T11:16:01.006Z</time></trkpt><trkpt lat="42.2261706" lon="13.9267295"><ele>207.0</ele><time>2026-05-03T11:16:02.006Z</time></trkpt><trkpt lat="42.2262622" lon="13.9267043"><ele>207.0</ele><time>2026-05-03T11:16:03.006Z</time></trkpt><trkpt lat="42.2263691" lon="13.9266958"><ele>206.25</ele><time>2026-05-03T11:16:04.006Z</time></trkpt><trkpt lat="42.226481" lon="13.9266921"><ele>205.5</ele><time>2026-05-03T11:16:05.006Z</time></trkpt><trkpt lat="42.2265933" lon="13.9266993"><ele>204.75</ele><time>2026-05-03T11:16:06.006Z</time></trkpt><trkpt lat="42.2267116" lon="13.9267042"><ele>204.0</ele><time>2026-05-03T11:16:07.006Z</time></trkpt><trkpt lat="42.2268349" lon="13.9267071"><ele>204.0</ele><time>2026-05-03T11:16:08.006Z</time></trkpt><trkpt lat="42.2269616" lon="13.9267045"><ele>204.0</ele><time>2026-05-03T11:16:09.006Z</time></trkpt><trkpt lat="42.2270859" lon="13.9267102"><ele>204.0</ele><time>2026-05-03T11:16:10.006Z</time></trkpt><trkpt lat="42.2272105" lon="13.92672"><ele>204.0</ele><time>2026-05-03T11:16:11.006Z</time></trkpt><trkpt lat="42.2273369" lon="13.9267355"><ele>203.25</ele><time>2026-05-03T11:16:12.006Z</time></trkpt><trkpt lat="42.2274629" lon="13.9267647"><ele>202.5</ele><time>2026-05-03T11:16:13.005Z</time></trkpt><trkpt lat="42.2275878" lon="13.9268091"><ele>201.75</ele><time>2026-05-03T11:16:14.006Z</time></trkpt><trkpt lat="42.2277109" lon="13.926873"><ele>201.0</ele><time>2026-05-03T11:16:15.005Z</time></trkpt><trkpt lat="42.22783" lon="13.9269452"><ele>201.0</ele><time>2026-05-03T11:16:16.005Z</time></trkpt><trkpt lat="42.2279432" lon="13.9270254"><ele>201.0</ele><time>2026-05-03T11:16:17.006Z</time></trkpt><trkpt lat="42.2280575" lon="13.927098"><ele>201.0</ele><time>2026-05-03T11:16:18.006Z</time></trkpt><trkpt lat="42.2281753" lon="13.9271625"><ele>201.0</ele><time>2026-05-03T11:16:19.005Z</time></trkpt><trkpt lat="42.2282936" lon="13.9272277"><ele>201.25</ele><time>2026-05-03T11:16:20.006Z</time></trkpt><trkpt lat="42.2284166" lon="13.9272691"><ele>201.5</ele><time>2026-05-03T11:16:21.005Z</time></trkpt><trkpt lat="42.2285446" lon="13.9272912"><ele>201.75</ele><time>2026-05-03T11:16:22.005Z</time></trkpt><trkpt lat="42.2286745" lon="13.9273016"><ele>202.0</ele><time>2026-05-03T11:16:23.006Z</time></trkpt><trkpt lat="42.2288082" lon="13.9273126"><ele>202.0</ele><time>2026-05-03T11:16:24.006Z</time></trkpt><trkpt lat="42.2289472" lon="13.9273177"><ele>202.0</ele><time>2026-05-03T11:16:25.006Z</time></trkpt><trkpt lat="42.2290812" lon="13.9273202"><ele>202.0</ele><time>2026-05-03T11:16:26.005Z</time></trkpt><trkpt lat="42.2292231" lon="13.9273218"><ele>202.0</ele><time>2026-05-03T11:16:27.006Z</time></trkpt><trkpt lat="42.2293627" lon="13.9273336"><ele>201.75</ele><time>2026-05-03T11:16:28.005Z</time></trkpt><trkpt lat="42.2295041" lon="13.9273424"><ele>201.5</ele><time>2026-05-03T11:16:29.006Z</time></trkpt><trkpt lat="42.2296434" lon="13.9273464"><ele>201.25</ele><time>2026-05-03T11:16:30.006Z</time></trkpt><trkpt lat="42.2297825" lon="13.927353"><ele>201.0</ele><time>2026-05-03T11:16:31.005Z</time></trkpt><trkpt lat="42.2299235" lon="13.9273489"><ele>200.5</ele><time>2026-05-03T11:16:32.006Z</time></trkpt><trkpt lat="42.2300636" lon="13.927353"><ele>200.0</ele><time>2026-05-03T11:16:33.005Z</time></trkpt><trkpt lat="42.2302054" lon="13.9273523"><ele>199.5</ele><time>2026-05-03T11:16:34.006Z</time></trkpt><trkpt lat="42.2303516" lon="13.9273556"><ele>199.0</ele><time>2026-05-03T11:16:35.006Z</time></trkpt><trkpt lat="42.2304951" lon="13.92736"><ele>198.25</ele><time>2026-05-03T11:16:36.006Z</time></trkpt><trkpt lat="42.2306412" lon="13.9273652"><ele>197.5</ele><time>2026-05-03T11:16:37.006Z</time></trkpt><trkpt lat="42.2307907" lon="13.9273648"><ele>196.75</ele><time>2026-05-03T11:16:38.006Z</time></trkpt><trkpt lat="42.2309391" lon="13.9273727"><ele>196.0</ele><time>2026-05-03T11:16:39.005Z</time></trkpt><trkpt lat="42.231086" lon="13.9273792"><ele>196.0</ele><time>2026-05-03T11:16:40.005Z</time></trkpt><trkpt lat="42.2312376" lon="13.927383"><ele>196.0</ele><time>2026-05-03T11:16:41.005Z</time></trkpt><trkpt lat="42.2313865" lon="13.9273875"><ele>196.0</ele><time>2026-05-03T11:16:42.006Z</time></trkpt><trkpt lat="42.2315339" lon="13.927392"><ele>196.0</ele><time>2026-05-03T11:16:43.006Z</time></trkpt><trkpt lat="42.2316821" lon="13.927392"><ele>196.5</ele><time>2026-05-03T11:16:44.006Z</time></trkpt><trkpt lat="42.2318257" lon="13.9273786"><ele>197.0</ele><time>2026-05-03T11:16:45.006Z</time></trkpt><trkpt lat="42.2319687" lon="13.9273453"><ele>197.5</ele><time>2026-05-03T11:16:46.005Z</time></trkpt><trkpt lat="42.2321001" lon="13.9272837"><ele>198.0</ele><time>2026-05-03T11:16:47.006Z</time></trkpt><trkpt lat="42.2322324" lon="13.9272054"><ele>196.5</ele><time>2026-05-03T11:16:48.005Z</time></trkpt><trkpt lat="42.2323503" lon="13.9271013"><ele>195.0</ele><time>2026-05-03T11:16:49.006Z</time></trkpt><trkpt lat="42.2324593" lon="13.9269681"><ele>193.5</ele><time>2026-05-03T11:16:50.005Z</time></trkpt><trkpt lat="42.2325583" lon="13.9268239"><ele>192.0</ele><time>2026-05-03T11:16:51.005Z</time></trkpt><trkpt lat="42.232651" lon="13.9266702"><ele>192.0</ele><time>2026-05-03T11:16:52.006Z</time></trkpt><trkpt lat="42.2327407" lon="13.9265107"><ele>192.0</ele><time>2026-05-03T11:16:53.005Z</time></trkpt><trkpt lat="42.2328336" lon="13.9263502"><ele>192.0</ele><time>2026-05-03T11:16:54.005Z</time></trkpt><trkpt lat="42.2329288" lon="13.9261963"><ele>192.0</ele><time>2026-05-03T11:16:55.006Z</time></trkpt><trkpt lat="42.2330219" lon="13.926042"><ele>190.25</ele><time>2026-05-03T11:16:56.005Z</time></trkpt><trkpt lat="42.2331115" lon="13.9258835"><ele>188.5</ele><time>2026-05-03T11:16:57.005Z</time></trkpt><trkpt lat="42.2332042" lon="13.9257259"><ele>186.75</ele><time>2026-05-03T11:16:58.005Z</time></trkpt><trkpt lat="42.2332957" lon="13.925573"><ele>185.0</ele><time>2026-05-03T11:16:59.005Z</time></trkpt><trkpt lat="42.2333889" lon="13.9254196"><ele>185.0</ele><time>2026-05-03T11:17:00.005Z</time></trkpt><trkpt lat="42.2334806" lon="13.9252675"><ele>185.0</ele><time>2026-05-03T11:17:01.005Z</time></trkpt><trkpt lat="42.2335775" lon="13.9251272"><ele>185.0</ele><time>2026-05-03T11:17:02.005Z</time></trkpt><trkpt lat="42.2336847" lon="13.9250128"><ele>185.0</ele><time>2026-05-03T11:17:03.006Z</time></trkpt><trkpt lat="42.2338072" lon="13.9249325"><ele>187.5</ele><time>2026-05-03T11:17:04.005Z</time></trkpt><trkpt lat="42.2339385" lon="13.9248902"><ele>190.0</ele><time>2026-05-03T11:17:05.005Z</time></trkpt><trkpt lat="42.2340657" lon="13.9248853"><ele>192.5</ele><time>2026-05-03T11:17:06.006Z</time></trkpt><trkpt lat="42.2341902" lon="13.9249189"><ele>195.0</ele><time>2026-05-03T11:17:07.006Z</time></trkpt><trkpt lat="42.2343082" lon="13.9249883"><ele>194.5</ele><time>2026-05-03T11:17:08.005Z</time></trkpt><trkpt lat="42.2344108" lon="13.9250939"><ele>194.0</ele><time>2026-05-03T11:17:09.006Z</time></trkpt><trkpt lat="42.2344996" lon="13.9252246"><ele>193.5</ele><time>2026-05-03T11:17:10.005Z</time></trkpt><trkpt lat="42.2345663" lon="13.9253649"><ele>193.0</ele><time>2026-05-03T11:17:11.005Z</time></trkpt><trkpt lat="42.2346071" lon="13.9255198"><ele>193.0</ele><time>2026-05-03T11:17:12.006Z</time></trkpt><trkpt lat="42.2346274" lon="13.9256845"><ele>193.0</ele><time>2026-05-03T11:17:13.006Z</time></trkpt><trkpt lat="42.2346407" lon="13.9258537"><ele>193.0</ele><time>2026-05-03T11:17:14.006Z</time></trkpt><trkpt lat="42.2346516" lon="13.9260269"><ele>193.0</ele><time>2026-05-03T11:17:15.006Z</time></trkpt><trkpt lat="42.2346624" lon="13.9262052"><ele>191.5</ele><time>2026-05-03T11:17:16.006Z</time></trkpt><trkpt lat="42.2346776" lon="13.926386"><ele>190.0</ele><time>2026-05-03T11:17:17.005Z</time></trkpt><trkpt lat="42.2346881" lon="13.9265661"><ele>188.5</ele><time>2026-05-03T11:17:18.005Z</time></trkpt><trkpt lat="42.234701" lon="13.9267488"><ele>187.0</ele><time>2026-05-03T11:17:19.005Z</time></trkpt><trkpt lat="42.2347086" lon="13.9269301"><ele>187.0</ele><time>2026-05-03T11:17:20.005Z</time></trkpt><trkpt lat="42.2347205" lon="13.9271097"><ele>187.0</ele><time>2026-05-03T11:17:21.005Z</time></trkpt><trkpt lat="42.2347381" lon="13.927288"><ele>187.0</ele><time>2026-05-03T11:17:22.005Z</time></trkpt><trkpt lat="42.2347544" lon="13.9274678"><ele>187.0</ele><time>2026-05-03T11:17:23.005Z</time></trkpt><trkpt lat="42.2347729" lon="13.927645"><ele>188.75</ele><time>2026-05-03T11:17:24.005Z</time></trkpt><trkpt lat="42.2347926" lon="13.9278258"><ele>190.5</ele><time>2026-05-03T11:17:25.004Z</time></trkpt><trkpt lat="42.2348165" lon="13.9280036"><ele>192.25</ele><time>2026-05-03T11:17:26.004Z</time></trkpt><trkpt lat="42.2348397" lon="13.9281738"><ele>194.0</ele><time>2026-05-03T11:17:27.004Z</time></trkpt><trkpt lat="42.2348663" lon="13.9283411"><ele>194.2</ele><time>2026-05-03T11:17:28.005Z</time></trkpt><trkpt lat="42.234891" lon="13.9284969"><ele>194.39999999999998</ele><time>2026-05-03T11:17:29.005Z</time></trkpt><trkpt lat="42.2349116" lon="13.9286478"><ele>194.6</ele><time>2026-05-03T11:17:30.004Z</time></trkpt><trkpt lat="42.2349362" lon="13.9287894"><ele>194.8</ele><time>2026-05-03T11:17:31.005Z</time></trkpt><trkpt lat="42.2349656" lon="13.9289226"><ele>195.0</ele><time>2026-05-03T11:17:32.004Z</time></trkpt><trkpt lat="42.2350123" lon="13.9290343"><ele>195.0</ele><time>2026-05-03T11:17:33.004Z</time></trkpt><trkpt lat="42.2350657" lon="13.9291291"><ele>195.0</ele><time>2026-05-03T11:17:34.004Z</time></trkpt><trkpt lat="42.2351418" lon="13.9291913"><ele>195.0</ele><time>2026-05-03T11:17:35.004Z</time></trkpt><trkpt lat="42.235229" lon="13.9292304"><ele>195.0</ele><time>2026-05-03T11:17:36.005Z</time></trkpt><trkpt lat="42.2353215" lon="13.929235"><ele>195.0</ele><time>2026-05-03T11:17:37.005Z</time></trkpt><trkpt lat="42.235424" lon="13.9292174"><ele>195.0</ele><time>2026-05-03T11:17:38.005Z</time></trkpt><trkpt lat="42.2355343" lon="13.9291997"><ele>195.0</ele><time>2026-05-03T11:17:39.004Z</time></trkpt><trkpt lat="42.2356468" lon="13.9291682"><ele>195.0</ele><time>2026-05-03T11:17:40.005Z</time></trkpt><trkpt lat="42.2357705" lon="13.9291404"><ele>195.0</ele><time>2026-05-03T11:17:41.004Z</time></trkpt><trkpt lat="42.2358872" lon="13.9291137"><ele>194.33333333333334</ele><time>2026-05-03T11:17:42.004Z</time></trkpt><trkpt lat="42.2359875" lon="13.9291006"><ele>193.66666666666666</ele><time>2026-05-03T11:17:43.005Z</time></trkpt><trkpt lat="42.2360741" lon="13.9290889"><ele>193.0</ele><time>2026-05-03T11:17:44.004Z</time></trkpt><trkpt lat="42.2361441" lon="13.929087"><ele>192.33333333333331</ele><time>2026-05-03T11:17:45.005Z</time></trkpt><trkpt lat="42.2362367" lon="13.9290877"><ele>191.66666666666666</ele><time>2026-05-03T11:17:47.005Z</time></trkpt><trkpt lat="42.2363162" lon="13.929089"><ele>191.0</ele><time>2026-05-03T11:17:50.004Z</time></trkpt><trkpt lat="42.2364059" lon="13.929064"><ele>190.83333333333331</ele><time>2026-05-03T11:17:53.004Z</time></trkpt><trkpt lat="42.236498" lon="13.9290385"><ele>190.66666666666666</ele><time>2026-05-03T11:17:55.004Z</time></trkpt><trkpt lat="42.2366128" lon="13.92904"><ele>190.5</ele><time>2026-05-03T11:17:57.004Z</time></trkpt><trkpt lat="42.2366858" lon="13.9290365"><ele>190.33333333333334</ele><time>2026-05-03T11:17:58.004Z</time></trkpt><trkpt lat="42.2367686" lon="13.9290393"><ele>190.16666666666669</ele><time>2026-05-03T11:17:59.004Z</time></trkpt><trkpt lat="42.2368531" lon="13.9290375"><ele>190.0</ele><time>2026-05-03T11:18:00.004Z</time></trkpt><trkpt lat="42.2369448" lon="13.9290262"><ele>190.0</ele><time>2026-05-03T11:18:01.005Z</time></trkpt><trkpt lat="42.2370384" lon="13.9290201"><ele>190.0</ele><time>2026-05-03T11:18:02.004Z</time></trkpt><trkpt lat="42.2371259" lon="13.9290153"><ele>190.0</ele><time>2026-05-03T11:18:03.004Z</time></trkpt><trkpt lat="42.237204" lon="13.9289964"><ele>190.0</ele><time>2026-05-03T11:18:04.005Z</time></trkpt><trkpt lat="42.237271" lon="13.9289775"><ele>190.0</ele><time>2026-05-03T11:18:05.004Z</time></trkpt><trkpt lat="42.237344" lon="13.9289523"><ele>190.0</ele><time>2026-05-03T11:18:06.005Z</time></trkpt><trkpt lat="42.2374168" lon="13.9289309"><ele>189.83333333333334</ele><time>2026-05-03T11:18:07.005Z</time></trkpt><trkpt lat="42.2374943" lon="13.9289004"><ele>189.66666666666669</ele><time>2026-05-03T11:18:08.005Z</time></trkpt><trkpt lat="42.2375689" lon="13.9288771"><ele>189.5</ele><time>2026-05-03T11:18:09.005Z</time></trkpt><trkpt lat="42.237645" lon="13.9288472"><ele>189.33333333333334</ele><time>2026-05-03T11:18:10.004Z</time></trkpt><trkpt lat="42.2377138" lon="13.9288195"><ele>189.16666666666666</ele><time>2026-05-03T11:18:11.004Z</time></trkpt><trkpt lat="42.2377999" lon="13.9287873"><ele>189.0</ele><time>2026-05-03T11:18:13.005Z</time></trkpt><trkpt lat="42.2377496" lon="13.9287242"><ele>189.0</ele><time>2026-05-03T11:18:18.004Z</time></trkpt><trkpt lat="42.2376547" lon="13.9287695"><ele>189.0</ele><time>2026-05-03T11:18:20.005Z</time></trkpt><trkpt lat="42.2375894" lon="13.9287959"><ele>189.0</ele><time>2026-05-03T11:18:21.004Z</time></trkpt><trkpt lat="42.2375154" lon="13.9288236"><ele>189.0</ele><time>2026-05-03T11:18:22.005Z</time></trkpt><trkpt lat="42.2374294" lon="13.9288573"><ele>189.0</ele><time>2026-05-03T11:18:23.005Z</time></trkpt><trkpt lat="42.237347" lon="13.9288848"><ele>189.0</ele><time>2026-05-03T11:18:24.004Z</time></trkpt><trkpt lat="42.237253" lon="13.9289153"><ele>189.2</ele><time>2026-05-03T11:18:25.005Z</time></trkpt><trkpt lat="42.2371504" lon="13.9289405"><ele>189.39999999999998</ele><time>2026-05-03T11:18:26.005Z</time></trkpt><trkpt lat="42.2370409" lon="13.9289536"><ele>189.6</ele><time>2026-05-03T11:18:27.005Z</time></trkpt><trkpt lat="42.2369312" lon="13.9289585"><ele>189.8</ele><time>2026-05-03T11:18:28.005Z</time></trkpt><trkpt lat="42.236821" lon="13.9289657"><ele>190.0</ele><time>2026-05-03T11:18:29.005Z</time></trkpt><trkpt lat="42.2367094" lon="13.9289682"><ele>190.0</ele><time>2026-05-03T11:18:30.005Z</time></trkpt><trkpt lat="42.2365893" lon="13.9289679"><ele>190.0</ele><time>2026-05-03T11:18:31.005Z</time></trkpt><trkpt lat="42.2364709" lon="13.9289712"><ele>190.0</ele><time>2026-05-03T11:18:32.004Z</time></trkpt><trkpt lat="42.2363481" lon="13.9289833"><ele>190.0</ele><time>2026-05-03T11:18:33.004Z</time></trkpt><trkpt lat="42.2362256" lon="13.9289963"><ele>190.25</ele><time>2026-05-03T11:18:34.004Z</time></trkpt><trkpt lat="42.2361082" lon="13.929022"><ele>190.5</ele><time>2026-05-03T11:18:35.005Z</time></trkpt><trkpt lat="42.2359894" lon="13.9290512"><ele>190.75</ele><time>2026-05-03T11:18:36.005Z</time></trkpt><trkpt lat="42.2358704" lon="13.9290738"><ele>191.0</ele><time>2026-05-03T11:18:37.005Z</time></trkpt><trkpt lat="42.235755" lon="13.9291022"><ele>191.0</ele><time>2026-05-03T11:18:38.005Z</time></trkpt><trkpt lat="42.2356408" lon="13.929134"><ele>191.0</ele><time>2026-05-03T11:18:39.004Z</time></trkpt><trkpt lat="42.2355284" lon="13.9291574"><ele>191.0</ele><time>2026-05-03T11:18:40.005Z</time></trkpt><trkpt lat="42.2354229" lon="13.9291921"><ele>191.0</ele><time>2026-05-03T11:18:41.004Z</time></trkpt><trkpt lat="42.2353226" lon="13.9292132"><ele>191.0</ele><time>2026-05-03T11:18:42.005Z</time></trkpt><trkpt lat="42.235224" lon="13.9291817"><ele>191.8</ele><time>2026-05-03T11:18:43.005Z</time></trkpt><trkpt lat="42.235139" lon="13.9291298"><ele>192.60000000000002</ele><time>2026-05-03T11:18:44.005Z</time></trkpt><trkpt lat="42.2350696" lon="13.9290448"><ele>193.4</ele><time>2026-05-03T11:18:45.005Z</time></trkpt><trkpt lat="42.2350185" lon="13.928948"><ele>194.2</ele><time>2026-05-03T11:18:46.005Z</time></trkpt><trkpt lat="42.2349896" lon="13.9288273"><ele>195.0</ele><time>2026-05-03T11:18:47.006Z</time></trkpt><trkpt lat="42.2349669" lon="13.9286989"><ele>195.0</ele><time>2026-05-03T11:18:48.005Z</time></trkpt><trkpt lat="42.2349431" lon="13.9285538"><ele>195.0</ele><time>2026-05-03T11:18:49.005Z</time></trkpt><trkpt lat="42.234914" lon="13.9283971"><ele>195.0</ele><time>2026-05-03T11:18:50.006Z</time></trkpt><trkpt lat="42.234882" lon="13.9282388"><ele>195.0</ele><time>2026-05-03T11:18:51.006Z</time></trkpt><trkpt lat="42.2348588" lon="13.928075"><ele>195.0</ele><time>2026-05-03T11:18:52.006Z</time></trkpt><trkpt lat="42.2348316" lon="13.9279052"><ele>195.0</ele><time>2026-05-03T11:18:53.006Z</time></trkpt><trkpt lat="42.2348079" lon="13.9277441"><ele>195.0</ele><time>2026-05-03T11:18:54.006Z</time></trkpt><trkpt lat="42.2347943" lon="13.9275866"><ele>195.0</ele><time>2026-05-03T11:18:55.005Z</time></trkpt><trkpt lat="42.2347884" lon="13.9274428"><ele>193.0</ele><time>2026-05-03T11:18:56.006Z</time></trkpt><trkpt lat="42.2347829" lon="13.9272953"><ele>191.0</ele><time>2026-05-03T11:18:57.005Z</time></trkpt><trkpt lat="42.2347733" lon="13.9271448"><ele>189.0</ele><time>2026-05-03T11:18:58.006Z</time></trkpt><trkpt lat="42.2347619" lon="13.9269913"><ele>187.0</ele><time>2026-05-03T11:18:59.006Z</time></trkpt><trkpt lat="42.2347465" lon="13.9268207"><ele>186.5</ele><time>2026-05-03T11:19:00.005Z</time></trkpt><trkpt lat="42.2347358" lon="13.9266506"><ele>186.0</ele><time>2026-05-03T11:19:01.006Z</time></trkpt><trkpt lat="42.234726" lon="13.926471"><ele>185.5</ele><time>2026-05-03T11:19:02.006Z</time></trkpt><trkpt lat="42.2347145" lon="13.9262916"><ele>185.0</ele><time>2026-05-03T11:19:03.006Z</time></trkpt><trkpt lat="42.2347058" lon="13.9261118"><ele>185.0</ele><time>2026-05-03T11:19:04.006Z</time></trkpt><trkpt lat="42.2346983" lon="13.9259394"><ele>185.0</ele><time>2026-05-03T11:19:05.006Z</time></trkpt><trkpt lat="42.2346842" lon="13.9257646"><ele>185.0</ele><time>2026-05-03T11:19:06.006Z</time></trkpt><trkpt lat="42.2346632" lon="13.9255955"><ele>185.0</ele><time>2026-05-03T11:19:07.005Z</time></trkpt><trkpt lat="42.2346288" lon="13.9254279"><ele>187.0</ele><time>2026-05-03T11:19:08.005Z</time></trkpt><trkpt lat="42.2345758" lon="13.9252742"><ele>189.0</ele><time>2026-05-03T11:19:09.005Z</time></trkpt><trkpt lat="42.2345045" lon="13.925138"><ele>191.0</ele><time>2026-05-03T11:19:10.006Z</time></trkpt><trkpt lat="42.2344083" lon="13.9250253"><ele>193.0</ele><time>2026-05-03T11:19:11.005Z</time></trkpt><trkpt lat="42.2343038" lon="13.9249375"><ele>193.5</ele><time>2026-05-03T11:19:12.006Z</time></trkpt><trkpt lat="42.2341944" lon="13.9248654"><ele>194.0</ele><time>2026-05-03T11:19:13.005Z</time></trkpt><trkpt lat="42.2340753" lon="13.9248392"><ele>194.5</ele><time>2026-05-03T11:19:14.005Z</time></trkpt><trkpt lat="42.2339538" lon="13.9248333"><ele>195.0</ele><time>2026-05-03T11:19:15.006Z</time></trkpt><trkpt lat="42.2338353" lon="13.9248783"><ele>195.0</ele><time>2026-05-03T11:19:16.006Z</time></trkpt><trkpt lat="42.2337183" lon="13.9249423"><ele>195.0</ele><time>2026-05-03T11:19:17.006Z</time></trkpt><trkpt lat="42.2336109" lon="13.9250277"><ele>195.0</ele><time>2026-05-03T11:19:18.005Z</time></trkpt><trkpt lat="42.2335137" lon="13.9251366"><ele>195.0</ele><time>2026-05-03T11:19:19.006Z</time></trkpt><trkpt lat="42.233431" lon="13.9252616"><ele>192.5</ele><time>2026-05-03T11:19:20.005Z</time></trkpt><trkpt lat="42.2333516" lon="13.9253942"><ele>190.0</ele><time>2026-05-03T11:19:21.006Z</time></trkpt><trkpt lat="42.2332691" lon="13.9255384"><ele>187.5</ele><time>2026-05-03T11:19:22.006Z</time></trkpt><trkpt lat="42.2331913" lon="13.9256804"><ele>185.0</ele><time>2026-05-03T11:19:23.006Z</time></trkpt><trkpt lat="42.2331056" lon="13.9258247"><ele>186.75</ele><time>2026-05-03T11:19:24.006Z</time></trkpt><trkpt lat="42.2330141" lon="13.9259684"><ele>188.5</ele><time>2026-05-03T11:19:25.006Z</time></trkpt><trkpt lat="42.2329234" lon="13.9261098"><ele>190.25</ele><time>2026-05-03T11:19:26.006Z</time></trkpt><trkpt lat="42.2328414" lon="13.9262587"><ele>192.0</ele><time>2026-05-03T11:19:27.005Z</time></trkpt><trkpt lat="42.2327567" lon="13.9263997"><ele>192.0</ele><time>2026-05-03T11:19:28.005Z</time></trkpt><trkpt lat="42.2326702" lon="13.9265439"><ele>192.0</ele><time>2026-05-03T11:19:29.006Z</time></trkpt><trkpt lat="42.2325851" lon="13.9266934"><ele>192.0</ele><time>2026-05-03T11:19:30.005Z</time></trkpt><trkpt lat="42.2324993" lon="13.9268346"><ele>192.0</ele><time>2026-05-03T11:19:31.006Z</time></trkpt><trkpt lat="42.2324059" lon="13.9269657"><ele>193.5</ele><time>2026-05-03T11:19:32.006Z</time></trkpt><trkpt lat="42.2322995" lon="13.9270857"><ele>195.0</ele><time>2026-05-03T11:19:33.005Z</time></trkpt><trkpt lat="42.2321849" lon="13.9271874"><ele>196.5</ele><time>2026-05-03T11:19:34.006Z</time></trkpt><trkpt lat="42.232057" lon="13.927262"><ele>198.0</ele><time>2026-05-03T11:19:35.005Z</time></trkpt><trkpt lat="42.2319199" lon="13.9273086"><ele>198.0</ele><time>2026-05-03T11:19:36.006Z</time></trkpt><trkpt lat="42.2317803" lon="13.9273298"><ele>198.0</ele><time>2026-05-03T11:19:37.006Z</time></trkpt><trkpt lat="42.2316367" lon="13.9273379"><ele>198.0</ele><time>2026-05-03T11:19:38.006Z</time></trkpt><trkpt lat="42.2314853" lon="13.927337"><ele>198.0</ele><time>2026-05-03T11:19:39.006Z</time></trkpt><trkpt lat="42.2313361" lon="13.9273352"><ele>197.5</ele><time>2026-05-03T11:19:40.005Z</time></trkpt><trkpt lat="42.2311812" lon="13.9273272"><ele>197.0</ele><time>2026-05-03T11:19:41.006Z</time></trkpt><trkpt lat="42.2310331" lon="13.927322"><ele>196.5</ele><time>2026-05-03T11:19:42.006Z</time></trkpt><trkpt lat="42.2308891" lon="13.9273191"><ele>196.0</ele><time>2026-05-03T11:19:43.006Z</time></trkpt><trkpt lat="42.2307435" lon="13.9273204"><ele>196.75</ele><time>2026-05-03T11:19:44.005Z</time></trkpt><trkpt lat="42.2305974" lon="13.9273173"><ele>197.5</ele><time>2026-05-03T11:19:45.005Z</time></trkpt><trkpt lat="42.2304461" lon="13.9273148"><ele>198.25</ele><time>2026-05-03T11:19:46.006Z</time></trkpt><trkpt lat="42.2302946" lon="13.9273117"><ele>199.0</ele><time>2026-05-03T11:19:47.005Z</time></trkpt><trkpt lat="42.2301376" lon="13.9273098"><ele>199.0</ele><time>2026-05-03T11:19:48.006Z</time></trkpt><trkpt lat="42.2299832" lon="13.9273047"><ele>199.0</ele><time>2026-05-03T11:19:49.006Z</time></trkpt><trkpt lat="42.2298246" lon="13.9273006"><ele>199.0</ele><time>2026-05-03T11:19:50.006Z</time></trkpt><trkpt lat="42.2296717" lon="13.9273048"><ele>199.66666666666666</ele><time>2026-05-03T11:19:51.005Z</time></trkpt><trkpt lat="42.2295121" lon="13.9273033"><ele>200.33333333333331</ele><time>2026-05-03T11:19:52.005Z</time></trkpt><trkpt lat="42.229354" lon="13.9272999"><ele>201.0</ele><time>2026-05-03T11:19:53.006Z</time></trkpt><trkpt lat="42.2292017" lon="13.9272889"><ele>201.0</ele><time>2026-05-03T11:19:54.006Z</time></trkpt><trkpt lat="42.2290518" lon="13.927278"><ele>201.0</ele><time>2026-05-03T11:19:55.006Z</time></trkpt><trkpt lat="42.2289076" lon="13.9272732"><ele>201.0</ele><time>2026-05-03T11:19:56.006Z</time></trkpt><trkpt lat="42.228766" lon="13.9272655"><ele>201.0</ele><time>2026-05-03T11:19:57.006Z</time></trkpt><trkpt lat="42.2286201" lon="13.927247"><ele>201.0</ele><time>2026-05-03T11:19:58.006Z</time></trkpt><trkpt lat="42.2284761" lon="13.9272157"><ele>201.0</ele><time>2026-05-03T11:19:59.005Z</time></trkpt><trkpt lat="42.2283421" lon="13.9271619"><ele>201.0</ele><time>2026-05-03T11:20:00.005Z</time></trkpt><trkpt lat="42.2282108" lon="13.9270918"><ele>201.0</ele><time>2026-05-03T11:20:01.006Z</time></trkpt><trkpt lat="42.2280803" lon="13.9270103"><ele>201.0</ele><time>2026-05-03T11:20:02.006Z</time></trkpt><trkpt lat="42.227953" lon="13.9269234"><ele>201.0</ele><time>2026-05-03T11:20:03.005Z</time></trkpt><trkpt lat="42.2278227" lon="13.9268319"><ele>201.0</ele><time>2026-05-03T11:20:04.006Z</time></trkpt><trkpt lat="42.2276919" lon="13.9267627"><ele>201.0</ele><time>2026-05-03T11:20:05.006Z</time></trkpt><trkpt lat="42.2275608" lon="13.9267095"><ele>201.5</ele><time>2026-05-03T11:20:06.006Z</time></trkpt><trkpt lat="42.2274234" lon="13.9266748"><ele>202.0</ele><time>2026-05-03T11:20:07.006Z</time></trkpt><trkpt lat="42.2272826" lon="13.9266598"><ele>202.5</ele><time>2026-05-03T11:20:08.005Z</time></trkpt><trkpt lat="42.2271449" lon="13.9266524"><ele>203.0</ele><time>2026-05-03T11:20:09.005Z</time></trkpt><trkpt lat="42.2270086" lon="13.9266445"><ele>203.25</ele><time>2026-05-03T11:20:10.005Z</time></trkpt><trkpt lat="42.2268788" lon="13.9266474"><ele>203.5</ele><time>2026-05-03T11:20:11.006Z</time></trkpt><trkpt lat="42.2267574" lon="13.9266445"><ele>203.75</ele><time>2026-05-03T11:20:12.006Z</time></trkpt><trkpt lat="42.2266417" lon="13.9266401"><ele>204.0</ele><time>2026-05-03T11:20:13.006Z</time></trkpt><trkpt lat="42.2265364" lon="13.9266321"><ele>204.5</ele><time>2026-05-03T11:20:14.005Z</time></trkpt><trkpt lat="42.226438" lon="13.9266227"><ele>205.0</ele><time>2026-05-03T11:20:15.005Z</time></trkpt><trkpt lat="42.2263528" lon="13.9266038"><ele>205.5</ele><time>2026-05-03T11:20:16.005Z</time></trkpt><trkpt lat="42.2262828" lon="13.9265796"><ele>206.0</ele><time>2026-05-03T11:20:17.005Z</time></trkpt><trkpt lat="42.2262271" lon="13.9265162"><ele>206.5</ele><time>2026-05-03T11:20:18.005Z</time></trkpt><trkpt lat="42.2261916" lon="13.9264374"><ele>207.0</ele><time>2026-05-03T11:20:19.005Z</time></trkpt><trkpt lat="42.2261441" lon="13.9263615"><ele>207.0</ele><time>2026-05-03T11:20:20.005Z</time></trkpt><trkpt lat="42.2260899" lon="13.926315"><ele>207.0</ele><time>2026-05-03T11:20:21.006Z</time></trkpt><trkpt lat="42.2260254" lon="13.9262862"><ele>207.0</ele><time>2026-05-03T11:20:22.005Z</time></trkpt><trkpt lat="42.2259069" lon="13.9263303"><ele>207.0</ele><time>2026-05-03T11:20:24.006Z</time></trkpt><trkpt lat="42.2258557" lon="13.926385"><ele>207.0</ele><time>2026-05-03T11:20:25.006Z</time></trkpt><trkpt lat="42.2258091" lon="13.9264561"><ele>207.0</ele><time>2026-05-03T11:20:26.006Z</time></trkpt><trkpt lat="42.2257665" lon="13.9265335"><ele>207.0</ele><time>2026-05-03T11:20:27.006Z</time></trkpt><trkpt lat="42.2256968" lon="13.9266357"><ele>207.0</ele><time>2026-05-03T11:20:29.005Z</time></trkpt><trkpt lat="42.2256453" lon="13.9267304"><ele>207.0</ele><time>2026-05-03T11:20:31.006Z</time></trkpt><trkpt lat="42.2256267" lon="13.9268146"><ele>207.0</ele><time>2026-05-03T11:20:33.006Z</time></trkpt><trkpt lat="42.225705" lon="13.9268311"><ele>207.0</ele><time>2026-05-03T11:21:38.006Z</time></trkpt><trkpt lat="42.2257623" lon="13.9267937"><ele>207.0</ele><time>2026-05-03T11:21:41.006Z</time></trkpt><trkpt lat="42.2256845" lon="13.9267941"><ele>207.0</ele><time>2026-05-03T11:21:44.005Z</time></trkpt><trkpt lat="42.225635" lon="13.9267348"><ele>207.0</ele><time>2026-05-03T11:21:47.005Z</time></trkpt><trkpt lat="42.2257157" lon="13.926711"><ele>207.0</ele><time>2026-05-03T11:21:49.005Z</time></trkpt><trkpt lat="42.225817" lon="13.9267588"><ele>207.0</ele><time>2026-05-03T11:21:51.005Z</time></trkpt><trkpt lat="42.225918" lon="13.9268752"><ele>207.0</ele><time>2026-05-03T11:21:53.006Z</time></trkpt><trkpt lat="42.2259578" lon="13.9269656"><ele>206.5</ele><time>2026-05-03T11:21:54.005Z</time></trkpt><trkpt lat="42.2259611" lon="13.92707"><ele>206.0</ele><time>2026-05-03T11:21:55.005Z</time></trkpt><trkpt lat="42.2259481" lon="13.9271779"><ele>205.5</ele><time>2026-05-03T11:21:56.006Z</time></trkpt><trkpt lat="42.2259389" lon="13.9272943"><ele>205.0</ele><time>2026-05-03T11:21:57.006Z</time></trkpt><trkpt lat="42.2259339" lon="13.9274227"><ele>204.5</ele><time>2026-05-03T11:21:58.006Z</time></trkpt><trkpt lat="42.22593" lon="13.9275637"><ele>204.0</ele><time>2026-05-03T11:21:59.005Z</time></trkpt><trkpt lat="42.225933" lon="13.9277063"><ele>203.2</ele><time>2026-05-03T11:22:00.006Z</time></trkpt><trkpt lat="42.2259363" lon="13.9278472"><ele>202.39999999999998</ele><time>2026-05-03T11:22:01.006Z</time></trkpt><trkpt lat="42.2259319" lon="13.927991"><ele>201.6</ele><time>2026-05-03T11:22:02.006Z</time></trkpt><trkpt lat="42.2259287" lon="13.9281414"><ele>200.8</ele><time>2026-05-03T11:22:03.005Z</time></trkpt><trkpt lat="42.2259284" lon="13.9282982"><ele>200.0</ele><time>2026-05-03T11:22:04.006Z</time></trkpt><trkpt lat="42.2259252" lon="13.9284613"><ele>200.0</ele><time>2026-05-03T11:22:05.005Z</time></trkpt><trkpt lat="42.2259183" lon="13.928632"><ele>200.0</ele><time>2026-05-03T11:22:06.006Z</time></trkpt><trkpt lat="42.2259148" lon="13.9287969"><ele>200.0</ele><time>2026-05-03T11:22:07.006Z</time></trkpt><trkpt lat="42.2259093" lon="13.9289684"><ele>200.0</ele><time>2026-05-03T11:22:08.005Z</time></trkpt><trkpt lat="42.2259021" lon="13.9291331"><ele>199.5</ele><time>2026-05-03T11:22:09.006Z</time></trkpt><trkpt lat="42.2258995" lon="13.9293021"><ele>199.0</ele><time>2026-05-03T11:22:10.006Z</time></trkpt><trkpt lat="42.2258968" lon="13.9294735"><ele>198.5</ele><time>2026-05-03T11:22:11.006Z</time></trkpt><trkpt lat="42.2258954" lon="13.9296495"><ele>198.0</ele><time>2026-05-03T11:22:12.005Z</time></trkpt><trkpt lat="42.2258903" lon="13.9298276"><ele>198.0</ele><time>2026-05-03T11:22:13.005Z</time></trkpt><trkpt lat="42.2258842" lon="13.9300049"><ele>198.0</ele><time>2026-05-03T11:22:14.005Z</time></trkpt><trkpt lat="42.225877" lon="13.9301879"><ele>198.0</ele><time>2026-05-03T11:22:15.005Z</time></trkpt><trkpt lat="42.2258725" lon="13.9303749"><ele>198.0</ele><time>2026-05-03T11:22:16.006Z</time></trkpt><trkpt lat="42.2258713" lon="13.9305634"><ele>197.0</ele><time>2026-05-03T11:22:17.006Z</time></trkpt><trkpt lat="42.2258692" lon="13.9307518"><ele>196.0</ele><time>2026-05-03T11:22:18.006Z</time></trkpt><trkpt lat="42.2258633" lon="13.9309421"><ele>195.0</ele><time>2026-05-03T11:22:19.006Z</time></trkpt><trkpt lat="42.2258592" lon="13.9311346"><ele>194.0</ele><time>2026-05-03T11:22:20.006Z</time></trkpt><trkpt lat="42.2258551" lon="13.9313295"><ele>193.25</ele><time>2026-05-03T11:22:21.005Z</time></trkpt><trkpt lat="42.2258498" lon="13.931522"><ele>192.5</ele><time>2026-05-03T11:22:22.006Z</time></trkpt><trkpt lat="42.225844" lon="13.9317135"><ele>191.75</ele><time>2026-05-03T11:22:23.005Z</time></trkpt><trkpt lat="42.2258405" lon="13.9319099"><ele>191.0</ele><time>2026-05-03T11:22:24.005Z</time></trkpt><trkpt lat="42.2258353" lon="13.9321023"><ele>191.0</ele><time>2026-05-03T11:22:25.006Z</time></trkpt><trkpt lat="42.2258314" lon="13.9322924"><ele>191.0</ele><time>2026-05-03T11:22:26.006Z</time></trkpt><trkpt lat="42.2258268" lon="13.9324848"><ele>191.0</ele><time>2026-05-03T11:22:27.005Z</time></trkpt><trkpt lat="42.2258253" lon="13.9326756"><ele>191.0</ele><time>2026-05-03T11:22:28.005Z</time></trkpt><trkpt lat="42.2258206" lon="13.9328684"><ele>191.5</ele><time>2026-05-03T11:22:29.005Z</time></trkpt><trkpt lat="42.2258151" lon="13.9330669"><ele>192.0</ele><time>2026-05-03T11:22:30.005Z</time></trkpt><trkpt lat="42.2258119" lon="13.9332633"><ele>192.5</ele><time>2026-05-03T11:22:31.006Z</time></trkpt><trkpt lat="42.225808" lon="13.9334614"><ele>193.0</ele><time>2026-05-03T11:22:32.006Z</time></trkpt><trkpt lat="42.225802" lon="13.9336577"><ele>193.0</ele><time>2026-05-03T11:22:33.006Z</time></trkpt><trkpt lat="42.2257966" lon="13.9338571"><ele>193.0</ele><time>2026-05-03T11:22:34.005Z</time></trkpt><trkpt lat="42.2257946" lon="13.9340574"><ele>193.0</ele><time>2026-05-03T11:22:35.006Z</time></trkpt><trkpt lat="42.2257883" lon="13.9342579"><ele>193.0</ele><time>2026-05-03T11:22:36.006Z</time></trkpt><trkpt lat="42.2257807" lon="13.9344639"><ele>192.66666666666666</ele><time>2026-05-03T11:22:37.005Z</time></trkpt><trkpt lat="42.2257706" lon="13.9346737"><ele>192.33333333333331</ele><time>2026-05-03T11:22:38.006Z</time></trkpt><trkpt lat="42.2257687" lon="13.9348796"><ele>192.0</ele><time>2026-05-03T11:22:39.005Z</time></trkpt><trkpt lat="42.225767" lon="13.9350915"><ele>193.0</ele><time>2026-05-03T11:22:40.005Z</time></trkpt><trkpt lat="42.2257612" lon="13.9353051"><ele>194.0</ele><time>2026-05-03T11:22:41.006Z</time></trkpt><trkpt lat="42.2257561" lon="13.9355191"><ele>195.0</ele><time>2026-05-03T11:22:42.006Z</time></trkpt><trkpt lat="42.2257536" lon="13.9357318"><ele>194.66666666666669</ele><time>2026-05-03T11:22:43.005Z</time></trkpt><trkpt lat="42.2257523" lon="13.9359438"><ele>194.33333333333334</ele><time>2026-05-03T11:22:44.006Z</time></trkpt><trkpt lat="42.2257488" lon="13.9361566"><ele>194.0</ele><time>2026-05-03T11:22:45.006Z</time></trkpt><trkpt lat="42.225745" lon="13.93637"><ele>194.0</ele><time>2026-05-03T11:22:46.006Z</time></trkpt><trkpt lat="42.2257389" lon="13.9365845"><ele>194.0</ele><time>2026-05-03T11:22:47.005Z</time></trkpt><trkpt lat="42.2257307" lon="13.9367962"><ele>194.0</ele><time>2026-05-03T11:22:48.006Z</time></trkpt><trkpt lat="42.2257281" lon="13.9370083"><ele>194.0</ele><time>2026-05-03T11:22:49.005Z</time></trkpt><trkpt lat="42.2257254" lon="13.9372191"><ele>194.0</ele><time>2026-05-03T11:22:50.006Z</time></trkpt><trkpt lat="42.2257223" lon="13.9374329"><ele>194.0</ele><time>2026-05-03T11:22:51.006Z</time></trkpt><trkpt lat="42.2257178" lon="13.9376486"><ele>194.33333333333334</ele><time>2026-05-03T11:22:52.005Z</time></trkpt><trkpt lat="42.2257106" lon="13.9378632"><ele>194.66666666666669</ele><time>2026-05-03T11:22:53.005Z</time></trkpt><trkpt lat="42.2257035" lon="13.9380839"><ele>195.0</ele><time>2026-05-03T11:22:54.006Z</time></trkpt><trkpt lat="42.2257031" lon="13.9383054"><ele>195.33333333333331</ele><time>2026-05-03T11:22:55.005Z</time></trkpt><trkpt lat="42.225702" lon="13.9385276"><ele>195.66666666666666</ele><time>2026-05-03T11:22:56.005Z</time></trkpt><trkpt lat="42.2256958" lon="13.9387513"><ele>196.0</ele><time>2026-05-03T11:22:57.006Z</time></trkpt><trkpt lat="42.2256879" lon="13.9389757"><ele>196.0</ele><time>2026-05-03T11:22:58.005Z</time></trkpt><trkpt lat="42.2256838" lon="13.9392044"><ele>196.0</ele><time>2026-05-03T11:22:59.006Z</time></trkpt><trkpt lat="42.2256769" lon="13.9394377"><ele>196.0</ele><time>2026-05-03T11:23:00.006Z</time></trkpt><trkpt lat="42.2256729" lon="13.9396684"><ele>195.66666666666666</ele><time>2026-05-03T11:23:01.006Z</time></trkpt><trkpt lat="42.2256683" lon="13.9398947"><ele>195.33333333333331</ele><time>2026-05-03T11:23:02.006Z</time></trkpt><trkpt lat="42.2256624" lon="13.9401188"><ele>195.0</ele><time>2026-05-03T11:23:03.005Z</time></trkpt><trkpt lat="42.2256639" lon="13.9403411"><ele>194.66666666666669</ele><time>2026-05-03T11:23:04.006Z</time></trkpt><trkpt lat="42.2256782" lon="13.9405625"><ele>194.33333333333334</ele><time>2026-05-03T11:23:05.006Z</time></trkpt><trkpt lat="42.2257074" lon="13.9407836"><ele>194.0</ele><time>2026-05-03T11:23:06.006Z</time></trkpt><trkpt lat="42.225751" lon="13.9409956"><ele>194.66666666666669</ele><time>2026-05-03T11:23:07.005Z</time></trkpt><trkpt lat="42.2258061" lon="13.9412067"><ele>195.33333333333331</ele><time>2026-05-03T11:23:08.006Z</time></trkpt><trkpt lat="42.2258607" lon="13.9414185"><ele>196.0</ele><time>2026-05-03T11:23:09.006Z</time></trkpt><trkpt lat="42.2259167" lon="13.941624"><ele>195.0</ele><time>2026-05-03T11:23:10.005Z</time></trkpt><trkpt lat="42.2259745" lon="13.941832"><ele>194.0</ele><time>2026-05-03T11:23:11.006Z</time></trkpt><trkpt lat="42.2260331" lon="13.9420399"><ele>193.0</ele><time>2026-05-03T11:23:12.006Z</time></trkpt><trkpt lat="42.2260913" lon="13.9422445"><ele>193.0</ele><time>2026-05-03T11:23:13.005Z</time></trkpt><trkpt lat="42.2261527" lon="13.9424529"><ele>193.0</ele><time>2026-05-03T11:23:14.006Z</time></trkpt><trkpt lat="42.2262073" lon="13.9426651"><ele>193.0</ele><time>2026-05-03T11:23:15.006Z</time></trkpt><trkpt lat="42.2262634" lon="13.9428748"><ele>193.0</ele><time>2026-05-03T11:23:16.006Z</time></trkpt><trkpt lat="42.2263241" lon="13.9430841"><ele>193.0</ele><time>2026-05-03T11:23:17.006Z</time></trkpt><trkpt lat="42.2263832" lon="13.9432951"><ele>193.0</ele><time>2026-05-03T11:23:18.006Z</time></trkpt><trkpt lat="42.2264479" lon="13.9435016"><ele>194.0</ele><time>2026-05-03T11:23:19.005Z</time></trkpt><trkpt lat="42.2265095" lon="13.9437103"><ele>195.0</ele><time>2026-05-03T11:23:20.006Z</time></trkpt><trkpt lat="42.2265719" lon="13.9439162"><ele>196.0</ele><time>2026-05-03T11:23:21.005Z</time></trkpt><trkpt lat="42.226628" lon="13.9441192"><ele>196.66666666666666</ele><time>2026-05-03T11:23:22.005Z</time></trkpt><trkpt lat="42.2266869" lon="13.9443246"><ele>197.33333333333331</ele><time>2026-05-03T11:23:23.006Z</time></trkpt><trkpt lat="42.2267461" lon="13.9445278"><ele>198.0</ele><time>2026-05-03T11:23:24.006Z</time></trkpt><trkpt lat="42.2268041" lon="13.9447335"><ele>198.0</ele><time>2026-05-03T11:23:25.006Z</time></trkpt><trkpt lat="42.2268666" lon="13.9449393"><ele>198.0</ele><time>2026-05-03T11:23:26.005Z</time></trkpt><trkpt lat="42.2269247" lon="13.9451417"><ele>198.0</ele><time>2026-05-03T11:23:27.006Z</time></trkpt><trkpt lat="42.2269821" lon="13.9453461"><ele>198.0</ele><time>2026-05-03T11:23:28.006Z</time></trkpt><trkpt lat="42.2270369" lon="13.9455486"><ele>198.0</ele><time>2026-05-03T11:23:29.005Z</time></trkpt><trkpt lat="42.2270954" lon="13.9457488"><ele>198.0</ele><time>2026-05-03T11:23:30.006Z</time></trkpt><trkpt lat="42.2271573" lon="13.94595"><ele>198.66666666666669</ele><time>2026-05-03T11:23:31.005Z</time></trkpt><trkpt lat="42.2272196" lon="13.9461579"><ele>199.33333333333334</ele><time>2026-05-03T11:23:32.006Z</time></trkpt><trkpt lat="42.2272784" lon="13.9463598"><ele>200.0</ele><time>2026-05-03T11:23:33.006Z</time></trkpt><trkpt lat="42.2273426" lon="13.9465655"><ele>201.33333333333334</ele><time>2026-05-03T11:23:34.006Z</time></trkpt><trkpt lat="42.2274049" lon="13.9467688"><ele>202.66666666666669</ele><time>2026-05-03T11:23:35.006Z</time></trkpt><trkpt lat="42.2274621" lon="13.9469746"><ele>204.0</ele><time>2026-05-03T11:23:36.006Z</time></trkpt><trkpt lat="42.227523" lon="13.9471868"><ele>204.0</ele><time>2026-05-03T11:23:37.006Z</time></trkpt><trkpt lat="42.2275849" lon="13.9473957"><ele>204.0</ele><time>2026-05-03T11:23:38.006Z</time></trkpt><trkpt lat="42.2276451" lon="13.9476051"><ele>204.0</ele><time>2026-05-03T11:23:39.006Z</time></trkpt><trkpt lat="42.2277078" lon="13.9478086"><ele>205.0</ele><time>2026-05-03T11:23:40.005Z</time></trkpt><trkpt lat="42.2277725" lon="13.9480032"><ele>206.0</ele><time>2026-05-03T11:23:41.005Z</time></trkpt><trkpt lat="42.2278543" lon="13.9481719"><ele>207.0</ele><time>2026-05-03T11:23:42.006Z</time></trkpt><trkpt lat="42.2279612" lon="13.9483228"><ele>207.66666666666669</ele><time>2026-05-03T11:23:43.005Z</time></trkpt><trkpt lat="42.2280826" lon="13.9484558"><ele>208.33333333333334</ele><time>2026-05-03T11:23:44.006Z</time></trkpt><trkpt lat="42.2282098" lon="13.9485776"><ele>209.0</ele><time>2026-05-03T11:23:45.006Z</time></trkpt><trkpt lat="42.2283355" lon="13.9487007"><ele>209.33333333333334</ele><time>2026-05-03T11:23:46.006Z</time></trkpt><trkpt lat="42.2284684" lon="13.9488188"><ele>209.66666666666669</ele><time>2026-05-03T11:23:47.005Z</time></trkpt><trkpt lat="42.2285981" lon="13.9489395"><ele>210.0</ele><time>2026-05-03T11:23:48.006Z</time></trkpt><trkpt lat="42.2287311" lon="13.9490597"><ele>210.0</ele><time>2026-05-03T11:23:49.006Z</time></trkpt><trkpt lat="42.2288577" lon="13.9491887"><ele>210.0</ele><time>2026-05-03T11:23:50.005Z</time></trkpt><trkpt lat="42.2289871" lon="13.949315"><ele>210.0</ele><time>2026-05-03T11:23:51.006Z</time></trkpt><trkpt lat="42.2291172" lon="13.9494436"><ele>213.33333333333331</ele><time>2026-05-03T11:23:52.006Z</time></trkpt><trkpt lat="42.2292489" lon="13.9495694"><ele>216.66666666666666</ele><time>2026-05-03T11:23:53.005Z</time></trkpt><trkpt lat="42.2293854" lon="13.9496869"><ele>220.0</ele><time>2026-05-03T11:23:54.005Z</time></trkpt><trkpt lat="42.2295163" lon="13.9498065"><ele>220.0</ele><time>2026-05-03T11:23:55.005Z</time></trkpt><trkpt lat="42.2296576" lon="13.949922"><ele>220.0</ele><time>2026-05-03T11:23:56.005Z</time></trkpt><trkpt lat="42.229803" lon="13.9500014"><ele>220.0</ele><time>2026-05-03T11:23:57.005Z</time></trkpt><trkpt lat="42.2299519" lon="13.950057"><ele>223.0</ele><time>2026-05-03T11:23:58.005Z</time></trkpt><trkpt lat="42.2301066" lon="13.9500978"><ele>226.0</ele><time>2026-05-03T11:23:59.006Z</time></trkpt><trkpt lat="42.2302641" lon="13.9501258"><ele>229.0</ele><time>2026-05-03T11:24:00.005Z</time></trkpt><trkpt lat="42.2304108" lon="13.9501584"><ele>229.0</ele><time>2026-05-03T11:24:01.006Z</time></trkpt><trkpt lat="42.2305594" lon="13.9501879"><ele>229.0</ele><time>2026-05-03T11:24:02.005Z</time></trkpt><trkpt lat="42.2307144" lon="13.95022"><ele>229.0</ele><time>2026-05-03T11:24:03.005Z</time></trkpt><trkpt lat="42.2308744" lon="13.9502558"><ele>233.0</ele><time>2026-05-03T11:24:04.005Z</time></trkpt><trkpt lat="42.2310398" lon="13.9502965"><ele>237.0</ele><time>2026-05-03T11:24:05.006Z</time></trkpt><trkpt lat="42.231211" lon="13.9503499"><ele>241.0</ele><time>2026-05-03T11:24:06.005Z</time></trkpt><trkpt lat="42.2313897" lon="13.9504034"><ele>242.0</ele><time>2026-05-03T11:24:07.006Z</time></trkpt><trkpt lat="42.231575" lon="13.9504597"><ele>243.0</ele><time>2026-05-03T11:24:08.006Z</time></trkpt><trkpt lat="42.231767" lon="13.9505136"><ele>244.0</ele><time>2026-05-03T11:24:09.005Z</time></trkpt><trkpt lat="42.2319533" lon="13.9505656"><ele>244.0</ele><time>2026-05-03T11:24:10.006Z</time></trkpt><trkpt lat="42.2321324" lon="13.950615"><ele>244.0</ele><time>2026-05-03T11:24:11.006Z</time></trkpt><trkpt lat="42.232309" lon="13.9506711"><ele>244.0</ele><time>2026-05-03T11:24:12.006Z</time></trkpt><trkpt lat="42.2324804" lon="13.9507232"><ele>244.33333333333331</ele><time>2026-05-03T11:24:13.006Z</time></trkpt><trkpt lat="42.2326535" lon="13.9507821"><ele>244.66666666666669</ele><time>2026-05-03T11:24:14.006Z</time></trkpt><trkpt lat="42.2328185" lon="13.950838"><ele>245.0</ele><time>2026-05-03T11:24:15.006Z</time></trkpt><trkpt lat="42.2329756" lon="13.9508847"><ele>244.0</ele><time>2026-05-03T11:24:16.006Z</time></trkpt><trkpt lat="42.2331285" lon="13.9509276"><ele>243.0</ele><time>2026-05-03T11:24:17.005Z</time></trkpt><trkpt lat="42.2332807" lon="13.9509755"><ele>242.0</ele><time>2026-05-03T11:24:18.005Z</time></trkpt><trkpt lat="42.2334375" lon="13.951032"><ele>242.0</ele><time>2026-05-03T11:24:19.005Z</time></trkpt><trkpt lat="42.2335952" lon="13.9510845"><ele>242.0</ele><time>2026-05-03T11:24:20.006Z</time></trkpt><trkpt lat="42.2337577" lon="13.951135"><ele>242.0</ele><time>2026-05-03T11:24:21.005Z</time></trkpt><trkpt lat="42.2339204" lon="13.9511846"><ele>239.0</ele><time>2026-05-03T11:24:22.005Z</time></trkpt><trkpt lat="42.2340845" lon="13.951229"><ele>236.0</ele><time>2026-05-03T11:24:23.006Z</time></trkpt><trkpt lat="42.2342509" lon="13.9512815"><ele>233.0</ele><time>2026-05-03T11:24:24.006Z</time></trkpt><trkpt lat="42.2344138" lon="13.9513313"><ele>233.0</ele><time>2026-05-03T11:24:25.005Z</time></trkpt><trkpt lat="42.2345786" lon="13.9513895"><ele>233.0</ele><time>2026-05-03T11:24:26.005Z</time></trkpt><trkpt lat="42.2347418" lon="13.9514433"><ele>233.0</ele><time>2026-05-03T11:24:27.005Z</time></trkpt><trkpt lat="42.2349075" lon="13.9514959"><ele>231.0</ele><time>2026-05-03T11:24:28.005Z</time></trkpt><trkpt lat="42.2350689" lon="13.951548"><ele>229.0</ele><time>2026-05-03T11:24:29.005Z</time></trkpt><trkpt lat="42.2352292" lon="13.9515999"><ele>227.0</ele><time>2026-05-03T11:24:30.005Z</time></trkpt><trkpt lat="42.2353871" lon="13.9516686"><ele>225.66666666666669</ele><time>2026-05-03T11:24:31.006Z</time></trkpt><trkpt lat="42.2355393" lon="13.9517633"><ele>224.33333333333331</ele><time>2026-05-03T11:24:32.005Z</time></trkpt><trkpt lat="42.23568" lon="13.9518869"><ele>223.0</ele><time>2026-05-03T11:24:33.005Z</time></trkpt><trkpt lat="42.2358014" lon="13.9520367"><ele>223.0</ele><time>2026-05-03T11:24:34.006Z</time></trkpt><trkpt lat="42.2359182" lon="13.9522013"><ele>223.0</ele><time>2026-05-03T11:24:35.006Z</time></trkpt><trkpt lat="42.2360345" lon="13.9523618"><ele>223.0</ele><time>2026-05-03T11:24:36.005Z</time></trkpt><trkpt lat="42.2361498" lon="13.9525086"><ele>224.66666666666666</ele><time>2026-05-03T11:24:37.006Z</time></trkpt><trkpt lat="42.2362704" lon="13.9526279"><ele>226.33333333333331</ele><time>2026-05-03T11:24:38.006Z</time></trkpt><trkpt lat="42.2364082" lon="13.9527119"><ele>228.0</ele><time>2026-05-03T11:24:39.005Z</time></trkpt><trkpt lat="42.2365602" lon="13.9527729"><ele>228.0</ele><time>2026-05-03T11:24:40.006Z</time></trkpt><trkpt lat="42.2367223" lon="13.9528282"><ele>228.0</ele><time>2026-05-03T11:24:41.005Z</time></trkpt><trkpt lat="42.2368832" lon="13.9528823"><ele>228.0</ele><time>2026-05-03T11:24:42.006Z</time></trkpt><trkpt lat="42.2370498" lon="13.952929"><ele>228.0</ele><time>2026-05-03T11:24:43.005Z</time></trkpt><trkpt lat="42.2372186" lon="13.9529767"><ele>228.0</ele><time>2026-05-03T11:24:44.005Z</time></trkpt><trkpt lat="42.2373838" lon="13.953022"><ele>228.0</ele><time>2026-05-03T11:24:45.006Z</time></trkpt><trkpt lat="42.2375453" lon="13.9530779"><ele>224.33333333333331</ele><time>2026-05-03T11:24:46.006Z</time></trkpt><trkpt lat="42.2377036" lon="13.9531323"><ele>220.66666666666666</ele><time>2026-05-03T11:24:47.005Z</time></trkpt><trkpt lat="42.2378643" lon="13.9531903"><ele>217.0</ele><time>2026-05-03T11:24:48.006Z</time></trkpt><trkpt lat="42.2380213" lon="13.9532445"><ele>217.25</ele><time>2026-05-03T11:24:49.005Z</time></trkpt><trkpt lat="42.2381676" lon="13.9532892"><ele>217.5</ele><time>2026-05-03T11:24:50.005Z</time></trkpt><trkpt lat="42.238309" lon="13.9533255"><ele>217.75</ele><time>2026-05-03T11:24:51.006Z</time></trkpt><trkpt lat="42.2384461" lon="13.9533537"><ele>218.0</ele><time>2026-05-03T11:24:52.006Z</time></trkpt><trkpt lat="42.2385841" lon="13.9533553"><ele>218.0</ele><time>2026-05-03T11:24:53.005Z</time></trkpt><trkpt lat="42.2387267" lon="13.953325"><ele>218.0</ele><time>2026-05-03T11:24:54.005Z</time></trkpt><trkpt lat="42.2388576" lon="13.9532758"><ele>218.0</ele><time>2026-05-03T11:24:55.005Z</time></trkpt><trkpt lat="42.2389813" lon="13.953196"><ele>218.0</ele><time>2026-05-03T11:24:56.006Z</time></trkpt><trkpt lat="42.2390888" lon="13.9530832"><ele>217.25</ele><time>2026-05-03T11:24:57.005Z</time></trkpt><trkpt lat="42.2391779" lon="13.9529648"><ele>216.5</ele><time>2026-05-03T11:24:58.006Z</time></trkpt><trkpt lat="42.2392502" lon="13.9528306"><ele>215.75</ele><time>2026-05-03T11:24:59.006Z</time></trkpt><trkpt lat="42.2393071" lon="13.9526903"><ele>215.0</ele><time>2026-05-03T11:25:00.006Z</time></trkpt><trkpt lat="42.239352" lon="13.9525479"><ele>213.5</ele><time>2026-05-03T11:25:01.006Z</time></trkpt><trkpt lat="42.2393737" lon="13.9523971"><ele>212.0</ele><time>2026-05-03T11:25:02.005Z</time></trkpt><trkpt lat="42.2393904" lon="13.9522425"><ele>210.5</ele><time>2026-05-03T11:25:03.006Z</time></trkpt><trkpt lat="42.2394066" lon="13.952084"><ele>209.0</ele><time>2026-05-03T11:25:04.005Z</time></trkpt><trkpt lat="42.2394219" lon="13.9519253"><ele>209.0</ele><time>2026-05-03T11:25:05.005Z</time></trkpt><trkpt lat="42.2394441" lon="13.9517696"><ele>209.0</ele><time>2026-05-03T11:25:06.005Z</time></trkpt><trkpt lat="42.2394691" lon="13.951618"><ele>209.0</ele><time>2026-05-03T11:25:07.006Z</time></trkpt><trkpt lat="42.2394925" lon="13.9514755"><ele>209.0</ele><time>2026-05-03T11:25:08.006Z</time></trkpt><trkpt lat="42.2395123" lon="13.9513389"><ele>209.0</ele><time>2026-05-03T11:25:09.006Z</time></trkpt><trkpt lat="42.2395388" lon="13.9512113"><ele>207.6</ele><time>2026-05-03T11:25:10.006Z</time></trkpt><trkpt lat="42.2395858" lon="13.9510953"><ele>206.2</ele><time>2026-05-03T11:25:11.006Z</time></trkpt><trkpt lat="42.2396651" lon="13.9510021"><ele>204.79999999999998</ele><time>2026-05-03T11:25:12.006Z</time></trkpt><trkpt lat="42.2397559" lon="13.9509199"><ele>203.39999999999998</ele><time>2026-05-03T11:25:13.006Z</time></trkpt><trkpt lat="42.2398487" lon="13.9508516"><ele>202.0</ele><time>2026-05-03T11:25:14.005Z</time></trkpt><trkpt lat="42.2399452" lon="13.9507966"><ele>200.5</ele><time>2026-05-03T11:25:15.005Z</time></trkpt><trkpt lat="42.2400452" lon="13.9507512"><ele>199.0</ele><time>2026-05-03T11:25:16.006Z</time></trkpt><trkpt lat="42.2401544" lon="13.9507182"><ele>197.5</ele><time>2026-05-03T11:25:17.006Z</time></trkpt><trkpt lat="42.2402789" lon="13.9507013"><ele>196.0</ele><time>2026-05-03T11:25:18.005Z</time></trkpt><trkpt lat="42.2404074" lon="13.9507133"><ele>196.0</ele><time>2026-05-03T11:25:19.006Z</time></trkpt><trkpt lat="42.2405479" lon="13.9507407"><ele>196.0</ele><time>2026-05-03T11:25:20.006Z</time></trkpt><trkpt lat="42.2406894" lon="13.950779"><ele>196.0</ele><time>2026-05-03T11:25:21.006Z</time></trkpt><trkpt lat="42.2408315" lon="13.9508204"><ele>196.0</ele><time>2026-05-03T11:25:22.005Z</time></trkpt><trkpt lat="42.2409786" lon="13.950873"><ele>195.0</ele><time>2026-05-03T11:25:23.005Z</time></trkpt><trkpt lat="42.2411215" lon="13.9509241"><ele>194.0</ele><time>2026-05-03T11:25:24.006Z</time></trkpt><trkpt lat="42.2412665" lon="13.9509714"><ele>193.0</ele><time>2026-05-03T11:25:25.005Z</time></trkpt><trkpt lat="42.2414126" lon="13.9510166"><ele>192.0</ele><time>2026-05-03T11:25:26.005Z</time></trkpt><trkpt lat="42.2415645" lon="13.9510653"><ele>192.0</ele><time>2026-05-03T11:25:27.004Z</time></trkpt><trkpt lat="42.2417179" lon="13.9511146"><ele>192.0</ele><time>2026-05-03T11:25:28.004Z</time></trkpt><trkpt lat="42.2418667" lon="13.9511592"><ele>192.0</ele><time>2026-05-03T11:25:29.005Z</time></trkpt><trkpt lat="42.2420125" lon="13.951196"><ele>192.0</ele><time>2026-05-03T11:25:30.005Z</time></trkpt><trkpt lat="42.2421595" lon="13.9512307"><ele>192.0</ele><time>2026-05-03T11:25:31.004Z</time></trkpt><trkpt lat="42.2423127" lon="13.951251"><ele>192.0</ele><time>2026-05-03T11:25:32.004Z</time></trkpt><trkpt lat="42.2424625" lon="13.9512474"><ele>189.66666666666666</ele><time>2026-05-03T11:25:33.004Z</time></trkpt><trkpt lat="42.2426135" lon="13.9512214"><ele>187.33333333333331</ele><time>2026-05-03T11:25:34.004Z</time></trkpt><trkpt lat="42.2427654" lon="13.9511652"><ele>185.0</ele><time>2026-05-03T11:25:35.005Z</time></trkpt><trkpt lat="42.2429159" lon="13.9511013"><ele>185.0</ele><time>2026-05-03T11:25:36.004Z</time></trkpt><trkpt lat="42.2430654" lon="13.951038"><ele>185.0</ele><time>2026-05-03T11:25:37.005Z</time></trkpt><trkpt lat="42.2432172" lon="13.9509734"><ele>185.0</ele><time>2026-05-03T11:25:38.005Z</time></trkpt><trkpt lat="42.2433621" lon="13.9509055"><ele>180.66666666666666</ele><time>2026-05-03T11:25:39.004Z</time></trkpt><trkpt lat="42.2435092" lon="13.9508384"><ele>176.33333333333334</ele><time>2026-05-03T11:25:40.005Z</time></trkpt><trkpt lat="42.24365" lon="13.9507769"><ele>172.0</ele><time>2026-05-03T11:25:41.005Z</time></trkpt><trkpt lat="42.243794" lon="13.9507193"><ele>172.0</ele><time>2026-05-03T11:25:42.005Z</time></trkpt><trkpt lat="42.2439403" lon="13.9506789"><ele>172.0</ele><time>2026-05-03T11:25:43.005Z</time></trkpt><trkpt lat="42.244091" lon="13.9506441"><ele>172.0</ele><time>2026-05-03T11:25:44.005Z</time></trkpt><trkpt lat="42.2442502" lon="13.950635"><ele>170.66666666666669</ele><time>2026-05-03T11:25:45.005Z</time></trkpt><trkpt lat="42.2444081" lon="13.9506375"><ele>169.33333333333334</ele><time>2026-05-03T11:25:46.005Z</time></trkpt><trkpt lat="42.2445646" lon="13.9506372"><ele>168.0</ele><time>2026-05-03T11:25:47.004Z</time></trkpt><trkpt lat="42.2447215" lon="13.9506329"><ele>165.66666666666666</ele><time>2026-05-03T11:25:48.004Z</time></trkpt><trkpt lat="42.2448754" lon="13.9506369"><ele>163.33333333333331</ele><time>2026-05-03T11:25:49.005Z</time></trkpt><trkpt lat="42.2450325" lon="13.9506597"><ele>161.0</ele><time>2026-05-03T11:25:50.005Z</time></trkpt><trkpt lat="42.2451843" lon="13.95071"><ele>161.0</ele><time>2026-05-03T11:25:51.005Z</time></trkpt><trkpt lat="42.2453387" lon="13.9507819"><ele>161.0</ele><time>2026-05-03T11:25:52.004Z</time></trkpt><trkpt lat="42.2454835" lon="13.950868"><ele>161.0</ele><time>2026-05-03T11:25:53.005Z</time></trkpt><trkpt lat="42.2456288" lon="13.9509455"><ele>159.25</ele><time>2026-05-03T11:25:54.005Z</time></trkpt><trkpt lat="42.2457684" lon="13.9510292"><ele>157.5</ele><time>2026-05-03T11:25:55.005Z</time></trkpt><trkpt lat="42.2458895" lon="13.9511388"><ele>155.75</ele><time>2026-05-03T11:25:56.005Z</time></trkpt><trkpt lat="42.2459945" lon="13.951281"><ele>154.0</ele><time>2026-05-03T11:25:57.004Z</time></trkpt><trkpt lat="42.2461009" lon="13.9514377"><ele>154.0</ele><time>2026-05-03T11:25:58.004Z</time></trkpt><trkpt lat="42.2462075" lon="13.9515954"><ele>154.0</ele><time>2026-05-03T11:25:59.005Z</time></trkpt><trkpt lat="42.2463159" lon="13.9517445"><ele>154.0</ele><time>2026-05-03T11:26:00.004Z</time></trkpt><trkpt lat="42.2464228" lon="13.9518804"><ele>151.75</ele><time>2026-05-03T11:26:01.004Z</time></trkpt><trkpt lat="42.2465449" lon="13.9519924"><ele>149.5</ele><time>2026-05-03T11:26:02.005Z</time></trkpt><trkpt lat="42.2466785" lon="13.9520683"><ele>147.25</ele><time>2026-05-03T11:26:03.005Z</time></trkpt><trkpt lat="42.2468287" lon="13.9520989"><ele>145.0</ele><time>2026-05-03T11:26:04.004Z</time></trkpt><trkpt lat="42.2469911" lon="13.9520984"><ele>145.0</ele><time>2026-05-03T11:26:05.005Z</time></trkpt><trkpt lat="42.2471562" lon="13.9520856"><ele>145.0</ele><time>2026-05-03T11:26:06.005Z</time></trkpt><trkpt lat="42.2473205" lon="13.9520665"><ele>145.0</ele><time>2026-05-03T11:26:07.005Z</time></trkpt><trkpt lat="42.247486" lon="13.9520469"><ele>143.33333333333334</ele><time>2026-05-03T11:26:08.005Z</time></trkpt><trkpt lat="42.2476577" lon="13.9520294"><ele>141.66666666666666</ele><time>2026-05-03T11:26:09.005Z</time></trkpt><trkpt lat="42.2478317" lon="13.9520133"><ele>140.0</ele><time>2026-05-03T11:26:10.005Z</time></trkpt><trkpt lat="42.2480072" lon="13.9519944"><ele>139.33333333333331</ele><time>2026-05-03T11:26:11.005Z</time></trkpt><trkpt lat="42.2481742" lon="13.9519739"><ele>138.66666666666666</ele><time>2026-05-03T11:26:12.005Z</time></trkpt><trkpt lat="42.2483417" lon="13.9519549"><ele>138.0</ele><time>2026-05-03T11:26:13.004Z</time></trkpt><trkpt lat="42.2485043" lon="13.9519434"><ele>138.0</ele><time>2026-05-03T11:26:14.005Z</time></trkpt><trkpt lat="42.2486662" lon="13.9519315"><ele>138.0</ele><time>2026-05-03T11:26:15.005Z</time></trkpt><trkpt lat="42.2488304" lon="13.9519177"><ele>138.0</ele><time>2026-05-03T11:26:16.005Z</time></trkpt><trkpt lat="42.248994" lon="13.951898"><ele>139.0</ele><time>2026-05-03T11:26:17.005Z</time></trkpt><trkpt lat="42.2491585" lon="13.9518813"><ele>140.0</ele><time>2026-05-03T11:26:18.005Z</time></trkpt><trkpt lat="42.2493247" lon="13.9518613"><ele>141.0</ele><time>2026-05-03T11:26:19.005Z</time></trkpt><trkpt lat="42.2494897" lon="13.951844"><ele>141.0</ele><time>2026-05-03T11:26:20.004Z</time></trkpt><trkpt lat="42.2496586" lon="13.9518262"><ele>141.0</ele><time>2026-05-03T11:26:21.005Z</time></trkpt><trkpt lat="42.2498295" lon="13.9518064"><ele>141.0</ele><time>2026-05-03T11:26:22.004Z</time></trkpt><trkpt lat="42.2499951" lon="13.9517926"><ele>140.0</ele><time>2026-05-03T11:26:23.005Z</time></trkpt><trkpt lat="42.2501556" lon="13.9517787"><ele>139.0</ele><time>2026-05-03T11:26:24.004Z</time></trkpt><trkpt lat="42.2503137" lon="13.9517665"><ele>138.0</ele><time>2026-05-03T11:26:25.004Z</time></trkpt><trkpt lat="42.2504545" lon="13.951744"><ele>138.0</ele><time>2026-05-03T11:26:26.004Z</time></trkpt><trkpt lat="42.2505825" lon="13.951729"><ele>138.0</ele><time>2026-05-03T11:26:27.005Z</time></trkpt><trkpt lat="42.2507003" lon="13.9517223"><ele>138.0</ele><time>2026-05-03T11:26:28.005Z</time></trkpt><trkpt lat="42.2508126" lon="13.9517065"><ele>138.0</ele><time>2026-05-03T11:26:29.005Z</time></trkpt><trkpt lat="42.2509141" lon="13.9516912"><ele>138.0</ele><time>2026-05-03T11:26:30.004Z</time></trkpt><trkpt lat="42.2510176" lon="13.9516767"><ele>138.0</ele><time>2026-05-03T11:26:31.004Z</time></trkpt><trkpt lat="42.2511191" lon="13.951674"><ele>138.0</ele><time>2026-05-03T11:26:32.004Z</time></trkpt><trkpt lat="42.2512257" lon="13.9516789"><ele>138.0</ele><time>2026-05-03T11:26:33.005Z</time></trkpt><trkpt lat="42.2513367" lon="13.9516964"><ele>138.0</ele><time>2026-05-03T11:26:34.004Z</time></trkpt><trkpt lat="42.2514395" lon="13.9517247"><ele>137.0</ele><time>2026-05-03T11:26:35.004Z</time></trkpt><trkpt lat="42.2515335" lon="13.9517486"><ele>136.0</ele><time>2026-05-03T11:26:36.004Z</time></trkpt><trkpt lat="42.2516256" lon="13.9517679"><ele>135.0</ele><time>2026-05-03T11:26:37.005Z</time></trkpt><trkpt lat="42.2517152" lon="13.9517821"><ele>134.0</ele><time>2026-05-03T11:26:38.004Z</time></trkpt><trkpt lat="42.2517997" lon="13.951802"><ele>133.0</ele><time>2026-05-03T11:26:39.004Z</time></trkpt><trkpt lat="42.2518747" lon="13.9518287"><ele>132.0</ele><time>2026-05-03T11:26:40.005Z</time></trkpt><trkpt lat="42.2519861" lon="13.9518592"><ele>132.0</ele><time>2026-05-03T11:26:42.005Z</time></trkpt><trkpt lat="42.2520536" lon="13.9518693"><ele>132.0</ele><time>2026-05-03T11:26:44.005Z</time></trkpt><trkpt lat="42.2521674" lon="13.951852"><ele>132.0</ele><time>2026-05-03T11:27:50.004Z</time></trkpt><trkpt lat="42.2522394" lon="13.9518458"><ele>132.0</ele><time>2026-05-03T11:27:51.004Z</time></trkpt><trkpt lat="42.2523247" lon="13.9518501"><ele>132.0</ele><time>2026-05-03T11:27:52.004Z</time></trkpt><trkpt lat="42.2524147" lon="13.9518693"><ele>132.0</ele><time>2026-05-03T11:27:53.005Z</time></trkpt><trkpt lat="42.2525027" lon="13.9518917"><ele>131.4</ele><time>2026-05-03T11:27:54.005Z</time></trkpt><trkpt lat="42.2525965" lon="13.9519078"><ele>130.79999999999998</ele><time>2026-05-03T11:27:55.005Z</time></trkpt><trkpt lat="42.2526957" lon="13.9519273"><ele>130.2</ele><time>2026-05-03T11:27:56.004Z</time></trkpt><trkpt lat="42.2527944" lon="13.9519468"><ele>129.6</ele><time>2026-05-03T11:27:57.005Z</time></trkpt><trkpt lat="42.2528961" lon="13.9519679"><ele>129.0</ele><time>2026-05-03T11:27:58.005Z</time></trkpt><trkpt lat="42.253" lon="13.9519934"><ele>129.0</ele><time>2026-05-03T11:27:59.005Z</time></trkpt><trkpt lat="42.2531034" lon="13.9520148"><ele>129.0</ele><time>2026-05-03T11:28:00.005Z</time></trkpt><trkpt lat="42.2532093" lon="13.9520394"><ele>129.0</ele><time>2026-05-03T11:28:01.005Z</time></trkpt><trkpt lat="42.2533169" lon="13.9520582"><ele>129.0</ele><time>2026-05-03T11:28:02.004Z</time></trkpt><trkpt lat="42.253428" lon="13.9520642"><ele>129.0</ele><time>2026-05-03T11:28:03.005Z</time></trkpt><trkpt lat="42.2535442" lon="13.9520449"><ele>129.5</ele><time>2026-05-03T11:28:04.005Z</time></trkpt><trkpt lat="42.2536644" lon="13.9520023"><ele>130.0</ele><time>2026-05-03T11:28:05.004Z</time></trkpt><trkpt lat="42.2537853" lon="13.9519523"><ele>130.5</ele><time>2026-05-03T11:28:06.004Z</time></trkpt><trkpt lat="42.2539063" lon="13.9518952"><ele>131.0</ele><time>2026-05-03T11:28:07.004Z</time></trkpt><trkpt lat="42.2540305" lon="13.9518407"><ele>132.25</ele><time>2026-05-03T11:28:08.005Z</time></trkpt><trkpt lat="42.25416" lon="13.9517955"><ele>133.5</ele><time>2026-05-03T11:28:09.005Z</time></trkpt><trkpt lat="42.2542957" lon="13.9517616"><ele>134.75</ele><time>2026-05-03T11:28:10.004Z</time></trkpt><trkpt lat="42.2544284" lon="13.9517222"><ele>136.0</ele><time>2026-05-03T11:28:11.005Z</time></trkpt><trkpt lat="42.2545576" lon="13.9516896"><ele>136.0</ele><time>2026-05-03T11:28:12.004Z</time></trkpt><trkpt lat="42.2546868" lon="13.9516546"><ele>136.0</ele><time>2026-05-03T11:28:13.004Z</time></trkpt><trkpt lat="42.2548245" lon="13.9516131"><ele>136.0</ele><time>2026-05-03T11:28:14.005Z</time></trkpt><trkpt lat="42.2549639" lon="13.9515708"><ele>136.0</ele><time>2026-05-03T11:28:15.005Z</time></trkpt><trkpt lat="42.2551014" lon="13.9515338"><ele>137.25</ele><time>2026-05-03T11:28:16.004Z</time></trkpt><trkpt lat="42.2552424" lon="13.951494"><ele>138.5</ele><time>2026-05-03T11:28:17.005Z</time></trkpt><trkpt lat="42.2553876" lon="13.9514517"><ele>139.75</ele><time>2026-05-03T11:28:18.005Z</time></trkpt><trkpt lat="42.2555308" lon="13.9514108"><ele>141.0</ele><time>2026-05-03T11:28:19.004Z</time></trkpt><trkpt lat="42.2556767" lon="13.9513689"><ele>141.66666666666666</ele><time>2026-05-03T11:28:20.004Z</time></trkpt><trkpt lat="42.2558269" lon="13.9513229"><ele>142.33333333333331</ele><time>2026-05-03T11:28:21.004Z</time></trkpt><trkpt lat="42.2559781" lon="13.9512778"><ele>143.0</ele><time>2026-05-03T11:28:22.005Z</time></trkpt><trkpt lat="42.2561312" lon="13.9512322"><ele>143.0</ele><time>2026-05-03T11:28:23.005Z</time></trkpt><trkpt lat="42.25628" lon="13.95119"><ele>143.0</ele><time>2026-05-03T11:28:24.004Z</time></trkpt><trkpt lat="42.25643" lon="13.9511508"><ele>143.0</ele><time>2026-05-03T11:28:25.004Z</time></trkpt><trkpt lat="42.2565821" lon="13.9511291"><ele>143.33333333333331</ele><time>2026-05-03T11:28:26.004Z</time></trkpt><trkpt lat="42.2567339" lon="13.9511219"><ele>143.66666666666666</ele><time>2026-05-03T11:28:27.005Z</time></trkpt><trkpt lat="42.2568873" lon="13.9511294"><ele>144.0</ele><time>2026-05-03T11:28:28.005Z</time></trkpt><trkpt lat="42.2570417" lon="13.9511448"><ele>144.0</ele><time>2026-05-03T11:28:29.004Z</time></trkpt><trkpt lat="42.257199" lon="13.95116"><ele>144.0</ele><time>2026-05-03T11:28:30.004Z</time></trkpt><trkpt lat="42.2573568" lon="13.951167"><ele>144.0</ele><time>2026-05-03T11:28:31.004Z</time></trkpt><trkpt lat="42.2575072" lon="13.9511701"><ele>143.75</ele><time>2026-05-03T11:28:32.005Z</time></trkpt><trkpt lat="42.2576517" lon="13.9511772"><ele>143.5</ele><time>2026-05-03T11:28:33.004Z</time></trkpt><trkpt lat="42.2577969" lon="13.9511832"><ele>143.25</ele><time>2026-05-03T11:28:34.005Z</time></trkpt><trkpt lat="42.2579438" lon="13.9511971"><ele>143.0</ele><time>2026-05-03T11:28:35.004Z</time></trkpt><trkpt lat="42.2580931" lon="13.9512306"><ele>143.66666666666666</ele><time>2026-05-03T11:28:36.005Z</time></trkpt><trkpt lat="42.2582476" lon="13.9512687"><ele>144.33333333333334</ele><time>2026-05-03T11:28:37.004Z</time></trkpt><trkpt lat="42.2584" lon="13.9513206"><ele>145.0</ele><time>2026-05-03T11:28:38.005Z</time></trkpt><trkpt lat="42.2585524" lon="13.9513797"><ele>145.0</ele><time>2026-05-03T11:28:39.004Z</time></trkpt><trkpt lat="42.2586987" lon="13.9514444"><ele>145.0</ele><time>2026-05-03T11:28:40.005Z</time></trkpt><trkpt lat="42.2588436" lon="13.9515188"><ele>145.0</ele><time>2026-05-03T11:28:41.005Z</time></trkpt><trkpt lat="42.2589901" lon="13.9516016"><ele>146.0</ele><time>2026-05-03T11:28:42.004Z</time></trkpt><trkpt lat="42.259131" lon="13.9516947"><ele>147.0</ele><time>2026-05-03T11:28:43.005Z</time></trkpt><trkpt lat="42.2592625" lon="13.9517965"><ele>148.0</ele><time>2026-05-03T11:28:44.004Z</time></trkpt><trkpt lat="42.2593909" lon="13.9519028"><ele>148.0</ele><time>2026-05-03T11:28:45.005Z</time></trkpt><trkpt lat="42.2595177" lon="13.9520251"><ele>148.0</ele><time>2026-05-03T11:28:46.004Z</time></trkpt><trkpt lat="42.2596414" lon="13.9521625"><ele>148.0</ele><time>2026-05-03T11:28:47.004Z</time></trkpt><trkpt lat="42.2597611" lon="13.9522949"><ele>147.66666666666669</ele><time>2026-05-03T11:28:48.004Z</time></trkpt><trkpt lat="42.2598753" lon="13.9524426"><ele>147.33333333333334</ele><time>2026-05-03T11:28:49.005Z</time></trkpt><trkpt lat="42.259981" lon="13.9525956"><ele>147.0</ele><time>2026-05-03T11:28:50.005Z</time></trkpt><trkpt lat="42.2600871" lon="13.9527525"><ele>147.0</ele><time>2026-05-03T11:28:51.005Z</time></trkpt><trkpt lat="42.2601885" lon="13.952918"><ele>147.0</ele><time>2026-05-03T11:28:52.005Z</time></trkpt><trkpt lat="42.2602834" lon="13.9530967"><ele>147.0</ele><time>2026-05-03T11:28:53.005Z</time></trkpt><trkpt lat="42.2603711" lon="13.9532787"><ele>149.0</ele><time>2026-05-03T11:28:54.004Z</time></trkpt><trkpt lat="42.2604539" lon="13.9534693"><ele>151.0</ele><time>2026-05-03T11:28:55.004Z</time></trkpt><trkpt lat="42.2605282" lon="13.9536623"><ele>153.0</ele><time>2026-05-03T11:28:56.005Z</time></trkpt><trkpt lat="42.2605903" lon="13.953858"><ele>148.0</ele><time>2026-05-03T11:28:57.005Z</time></trkpt><trkpt lat="42.2606436" lon="13.9540674"><ele>143.0</ele><time>2026-05-03T11:28:58.004Z</time></trkpt><trkpt lat="42.2606865" lon="13.9542793"><ele>138.0</ele><time>2026-05-03T11:28:59.005Z</time></trkpt><trkpt lat="42.2607356" lon="13.9544936"><ele>138.0</ele><time>2026-05-03T11:29:00.005Z</time></trkpt><trkpt lat="42.2607796" lon="13.9547081"><ele>138.0</ele><time>2026-05-03T11:29:01.005Z</time></trkpt><trkpt lat="42.260825" lon="13.954924"><ele>138.0</ele><time>2026-05-03T11:29:02.004Z</time></trkpt><trkpt lat="42.2608697" lon="13.9551403"><ele>138.0</ele><time>2026-05-03T11:29:03.004Z</time></trkpt><trkpt lat="42.2609176" lon="13.9553557"><ele>138.0</ele><time>2026-05-03T11:29:04.004Z</time></trkpt><trkpt lat="42.2609618" lon="13.9555734"><ele>138.0</ele><time>2026-05-03T11:29:05.005Z</time></trkpt><trkpt lat="42.261008" lon="13.9557899"><ele>138.66666666666666</ele><time>2026-05-03T11:29:06.005Z</time></trkpt><trkpt lat="42.2610526" lon="13.9560058"><ele>139.33333333333331</ele><time>2026-05-03T11:29:07.005Z</time></trkpt><trkpt lat="42.2610977" lon="13.956222"><ele>140.0</ele><time>2026-05-03T11:29:08.005Z</time></trkpt><trkpt lat="42.2611421" lon="13.9564368"><ele>140.0</ele><time>2026-05-03T11:29:09.005Z</time></trkpt><trkpt lat="42.2611952" lon="13.9566488"><ele>140.0</ele><time>2026-05-03T11:29:10.004Z</time></trkpt><trkpt lat="42.2612605" lon="13.9568565"><ele>140.0</ele><time>2026-05-03T11:29:11.005Z</time></trkpt><trkpt lat="42.2613294" lon="13.957063"><ele>140.33333333333331</ele><time>2026-05-03T11:29:12.004Z</time></trkpt><trkpt lat="42.2614057" lon="13.9572692"><ele>140.66666666666666</ele><time>2026-05-03T11:29:13.004Z</time></trkpt><trkpt lat="42.2614835" lon="13.9574787"><ele>141.0</ele><time>2026-05-03T11:29:14.004Z</time></trkpt><trkpt lat="42.2615629" lon="13.9576846"><ele>141.0</ele><time>2026-05-03T11:29:15.005Z</time></trkpt><trkpt lat="42.2616414" lon="13.9578938"><ele>141.0</ele><time>2026-05-03T11:29:16.004Z</time></trkpt><trkpt lat="42.2617172" lon="13.9581023"><ele>141.0</ele><time>2026-05-03T11:29:17.004Z</time></trkpt><trkpt lat="42.2617953" lon="13.9583106"><ele>142.33333333333334</ele><time>2026-05-03T11:29:18.004Z</time></trkpt><trkpt lat="42.2618745" lon="13.9585159"><ele>143.66666666666669</ele><time>2026-05-03T11:29:19.005Z</time></trkpt><trkpt lat="42.2619445" lon="13.9587242"><ele>145.0</ele><time>2026-05-03T11:29:20.004Z</time></trkpt><trkpt lat="42.2620078" lon="13.9589345"><ele>145.0</ele><time>2026-05-03T11:29:21.004Z</time></trkpt><trkpt lat="42.2620545" lon="13.9591476"><ele>145.0</ele><time>2026-05-03T11:29:22.004Z</time></trkpt><trkpt lat="42.2620887" lon="13.9593674"><ele>145.0</ele><time>2026-05-03T11:29:23.005Z</time></trkpt><trkpt lat="42.2621177" lon="13.959588"><ele>145.66666666666669</ele><time>2026-05-03T11:29:24.005Z</time></trkpt><trkpt lat="42.2621404" lon="13.9598093"><ele>146.33333333333334</ele><time>2026-05-03T11:29:25.005Z</time></trkpt><trkpt lat="42.2621696" lon="13.9600317"><ele>147.0</ele><time>2026-05-03T11:29:26.005Z</time></trkpt><trkpt lat="42.2621981" lon="13.9602559"><ele>148.33333333333334</ele><time>2026-05-03T11:29:27.005Z</time></trkpt><trkpt lat="42.2622284" lon="13.9604743"><ele>149.66666666666669</ele><time>2026-05-03T11:29:28.005Z</time></trkpt><trkpt lat="42.2622574" lon="13.9606901"><ele>151.0</ele><time>2026-05-03T11:29:29.004Z</time></trkpt><trkpt lat="42.262288" lon="13.9609027"><ele>145.66666666666669</ele><time>2026-05-03T11:29:30.004Z</time></trkpt><trkpt lat="42.2623174" lon="13.9611186"><ele>140.33333333333334</ele><time>2026-05-03T11:29:31.005Z</time></trkpt><trkpt lat="42.2623501" lon="13.9613272"><ele>135.0</ele><time>2026-05-03T11:29:32.005Z</time></trkpt><trkpt lat="42.2623826" lon="13.9615375"><ele>135.33333333333334</ele><time>2026-05-03T11:29:33.004Z</time></trkpt><trkpt lat="42.2624107" lon="13.9617515"><ele>135.66666666666669</ele><time>2026-05-03T11:29:34.005Z</time></trkpt><trkpt lat="42.2624389" lon="13.9619611"><ele>136.0</ele><time>2026-05-03T11:29:35.004Z</time></trkpt><trkpt lat="42.2624655" lon="13.9621721"><ele>136.0</ele><time>2026-05-03T11:29:36.005Z</time></trkpt><trkpt lat="42.2624965" lon="13.9623791"><ele>136.0</ele><time>2026-05-03T11:29:37.005Z</time></trkpt><trkpt lat="42.2625379" lon="13.962588"><ele>136.0</ele><time>2026-05-03T11:29:38.004Z</time></trkpt><trkpt lat="42.2625918" lon="13.9627828"><ele>137.0</ele><time>2026-05-03T11:29:39.004Z</time></trkpt><trkpt lat="42.2626659" lon="13.9629714"><ele>138.0</ele><time>2026-05-03T11:29:40.004Z</time></trkpt><trkpt lat="42.2627561" lon="13.9631539"><ele>139.0</ele><time>2026-05-03T11:29:41.004Z</time></trkpt><trkpt lat="42.2628606" lon="13.9633236"><ele>138.0</ele><time>2026-05-03T11:29:42.005Z</time></trkpt><trkpt lat="42.2629709" lon="13.9634855"><ele>137.0</ele><time>2026-05-03T11:29:43.004Z</time></trkpt><trkpt lat="42.2630825" lon="13.9636424"><ele>136.0</ele><time>2026-05-03T11:29:44.005Z</time></trkpt><trkpt lat="42.2631986" lon="13.9638045"><ele>136.0</ele><time>2026-05-03T11:29:45.005Z</time></trkpt><trkpt lat="42.2633224" lon="13.9639546"><ele>136.0</ele><time>2026-05-03T11:29:46.004Z</time></trkpt><trkpt lat="42.2634432" lon="13.9641135"><ele>136.0</ele><time>2026-05-03T11:29:47.004Z</time></trkpt><trkpt lat="42.2635532" lon="13.9642813"><ele>139.0</ele><time>2026-05-03T11:29:48.004Z</time></trkpt><trkpt lat="42.2636672" lon="13.9644503"><ele>142.0</ele><time>2026-05-03T11:29:49.004Z</time></trkpt><trkpt lat="42.2637772" lon="13.9646113"><ele>145.0</ele><time>2026-05-03T11:29:50.005Z</time></trkpt><trkpt lat="42.2638892" lon="13.9647744"><ele>144.33333333333334</ele><time>2026-05-03T11:29:51.005Z</time></trkpt><trkpt lat="42.2640002" lon="13.9649326"><ele>143.66666666666666</ele><time>2026-05-03T11:29:52.005Z</time></trkpt><trkpt lat="42.264116" lon="13.9650892"><ele>143.0</ele><time>2026-05-03T11:29:53.004Z</time></trkpt><trkpt lat="42.264229" lon="13.9652457"><ele>143.0</ele><time>2026-05-03T11:29:54.005Z</time></trkpt><trkpt lat="42.2643388" lon="13.9654"><ele>143.0</ele><time>2026-05-03T11:29:55.005Z</time></trkpt><trkpt lat="42.2644404" lon="13.9655707"><ele>143.0</ele><time>2026-05-03T11:29:56.005Z</time></trkpt><trkpt lat="42.2645318" lon="13.9657475"><ele>144.0</ele><time>2026-05-03T11:29:57.005Z</time></trkpt><trkpt lat="42.2646011" lon="13.9659421"><ele>145.0</ele><time>2026-05-03T11:29:58.005Z</time></trkpt><trkpt lat="42.2646605" lon="13.9661472"><ele>146.0</ele><time>2026-05-03T11:29:59.004Z</time></trkpt><trkpt lat="42.2647139" lon="13.9663559"><ele>146.0</ele><time>2026-05-03T11:30:00.005Z</time></trkpt><trkpt lat="42.2647662" lon="13.9665555"><ele>146.0</ele><time>2026-05-03T11:30:01.005Z</time></trkpt><trkpt lat="42.2648166" lon="13.9667598"><ele>146.0</ele><time>2026-05-03T11:30:02.005Z</time></trkpt><trkpt lat="42.2648649" lon="13.9669656"><ele>144.33333333333331</ele><time>2026-05-03T11:30:03.004Z</time></trkpt><trkpt lat="42.2649114" lon="13.9671718"><ele>142.66666666666666</ele><time>2026-05-03T11:30:04.005Z</time></trkpt><trkpt lat="42.2649624" lon="13.967377"><ele>141.0</ele><time>2026-05-03T11:30:05.005Z</time></trkpt><trkpt lat="42.2650123" lon="13.9675854"><ele>141.0</ele><time>2026-05-03T11:30:06.004Z</time></trkpt><trkpt lat="42.2650591" lon="13.9677883"><ele>141.0</ele><time>2026-05-03T11:30:07.004Z</time></trkpt><trkpt lat="42.2651134" lon="13.9679901"><ele>141.0</ele><time>2026-05-03T11:30:08.004Z</time></trkpt><trkpt lat="42.2651666" lon="13.968192"><ele>143.33333333333334</ele><time>2026-05-03T11:30:09.005Z</time></trkpt><trkpt lat="42.2652186" lon="13.968388"><ele>145.66666666666669</ele><time>2026-05-03T11:30:10.005Z</time></trkpt><trkpt lat="42.2652749" lon="13.9685851"><ele>148.0</ele><time>2026-05-03T11:30:11.004Z</time></trkpt><trkpt lat="42.2653418" lon="13.9687795"><ele>148.0</ele><time>2026-05-03T11:30:12.005Z</time></trkpt><trkpt lat="42.2654095" lon="13.968973"><ele>148.0</ele><time>2026-05-03T11:30:13.005Z</time></trkpt><trkpt lat="42.2654722" lon="13.9691762"><ele>148.0</ele><time>2026-05-03T11:30:14.004Z</time></trkpt><trkpt lat="42.2655324" lon="13.9693747"><ele>146.33333333333334</ele><time>2026-05-03T11:30:15.005Z</time></trkpt><trkpt lat="42.2655995" lon="13.9695676"><ele>144.66666666666666</ele><time>2026-05-03T11:30:16.004Z</time></trkpt><trkpt lat="42.2656495" lon="13.9697731"><ele>143.0</ele><time>2026-05-03T11:30:17.004Z</time></trkpt><trkpt lat="42.2657007" lon="13.9699774"><ele>143.33333333333331</ele><time>2026-05-03T11:30:18.005Z</time></trkpt><trkpt lat="42.2657405" lon="13.9701875"><ele>143.66666666666666</ele><time>2026-05-03T11:30:19.004Z</time></trkpt><trkpt lat="42.2657847" lon="13.9703903"><ele>144.0</ele><time>2026-05-03T11:30:20.004Z</time></trkpt><trkpt lat="42.2658138" lon="13.9706008"><ele>144.0</ele><time>2026-05-03T11:30:21.004Z</time></trkpt><trkpt lat="42.265826" lon="13.9708126"><ele>144.0</ele><time>2026-05-03T11:30:22.004Z</time></trkpt><trkpt lat="42.2658201" lon="13.9710264"><ele>144.0</ele><time>2026-05-03T11:30:23.005Z</time></trkpt><trkpt lat="42.2657925" lon="13.9712445"><ele>143.66666666666666</ele><time>2026-05-03T11:30:24.005Z</time></trkpt><trkpt lat="42.2657675" lon="13.9714669"><ele>143.33333333333331</ele><time>2026-05-03T11:30:25.005Z</time></trkpt><trkpt lat="42.2657379" lon="13.9716873"><ele>143.0</ele><time>2026-05-03T11:30:26.005Z</time></trkpt><trkpt lat="42.265712" lon="13.9719108"><ele>142.33333333333331</ele><time>2026-05-03T11:30:27.005Z</time></trkpt><trkpt lat="42.2656901" lon="13.9721344"><ele>141.66666666666666</ele><time>2026-05-03T11:30:28.005Z</time></trkpt><trkpt lat="42.2656659" lon="13.9723572"><ele>141.0</ele><time>2026-05-03T11:30:29.004Z</time></trkpt><trkpt lat="42.2656394" lon="13.972573"><ele>141.0</ele><time>2026-05-03T11:30:30.005Z</time></trkpt><trkpt lat="42.2656376" lon="13.9727948"><ele>141.0</ele><time>2026-05-03T11:30:31.005Z</time></trkpt><trkpt lat="42.265636" lon="13.9730166"><ele>141.0</ele><time>2026-05-03T11:30:32.004Z</time></trkpt><trkpt lat="42.2656422" lon="13.9732345"><ele>142.0</ele><time>2026-05-03T11:30:33.005Z</time></trkpt><trkpt lat="42.2656728" lon="13.9734555"><ele>143.0</ele><time>2026-05-03T11:30:34.005Z</time></trkpt><trkpt lat="42.2657225" lon="13.9736677"><ele>144.0</ele><time>2026-05-03T11:30:35.004Z</time></trkpt><trkpt lat="42.2657789" lon="13.973875"><ele>144.0</ele><time>2026-05-03T11:30:36.004Z</time></trkpt><trkpt lat="42.2658517" lon="13.9740779"><ele>144.0</ele><time>2026-05-03T11:30:37.004Z</time></trkpt><trkpt lat="42.2659306" lon="13.9742771"><ele>144.0</ele><time>2026-05-03T11:30:38.004Z</time></trkpt><trkpt lat="42.2660071" lon="13.9744746"><ele>147.0</ele><time>2026-05-03T11:30:39.005Z</time></trkpt><trkpt lat="42.2660851" lon="13.9746759"><ele>150.0</ele><time>2026-05-03T11:30:40.004Z</time></trkpt><trkpt lat="42.2661619" lon="13.9748758"><ele>153.0</ele><time>2026-05-03T11:30:41.005Z</time></trkpt><trkpt lat="42.266244" lon="13.97507"><ele>152.33333333333334</ele><time>2026-05-03T11:30:42.004Z</time></trkpt><trkpt lat="42.2663211" lon="13.9752555"><ele>151.66666666666669</ele><time>2026-05-03T11:30:43.005Z</time></trkpt><trkpt lat="42.2663925" lon="13.9754437"><ele>151.0</ele><time>2026-05-03T11:30:44.005Z</time></trkpt><trkpt lat="42.2664522" lon="13.9756388"><ele>151.0</ele><time>2026-05-03T11:30:45.005Z</time></trkpt><trkpt lat="42.2664972" lon="13.9758455"><ele>151.0</ele><time>2026-05-03T11:30:46.005Z</time></trkpt><trkpt lat="42.2665164" lon="13.9760509"><ele>151.0</ele><time>2026-05-03T11:30:47.005Z</time></trkpt><trkpt lat="42.2665185" lon="13.976264"><ele>151.66666666666669</ele><time>2026-05-03T11:30:48.004Z</time></trkpt><trkpt lat="42.2665135" lon="13.9764831"><ele>152.33333333333334</ele><time>2026-05-03T11:30:49.004Z</time></trkpt><trkpt lat="42.2665186" lon="13.9767015"><ele>153.0</ele><time>2026-05-03T11:30:50.004Z</time></trkpt><trkpt lat="42.2665256" lon="13.9769272"><ele>154.0</ele><time>2026-05-03T11:30:51.005Z</time></trkpt><trkpt lat="42.2665336" lon="13.9771519"><ele>155.0</ele><time>2026-05-03T11:30:52.005Z</time></trkpt><trkpt lat="42.2665445" lon="13.9773803"><ele>156.0</ele><time>2026-05-03T11:30:53.004Z</time></trkpt><trkpt lat="42.2665505" lon="13.9776089"><ele>156.0</ele><time>2026-05-03T11:30:54.005Z</time></trkpt><trkpt lat="42.266562" lon="13.9778348"><ele>156.0</ele><time>2026-05-03T11:30:55.005Z</time></trkpt><trkpt lat="42.2665737" lon="13.9780601"><ele>156.0</ele><time>2026-05-03T11:30:56.005Z</time></trkpt><trkpt lat="42.2665883" lon="13.978291"><ele>156.66666666666666</ele><time>2026-05-03T11:30:57.005Z</time></trkpt><trkpt lat="42.2666012" lon="13.9785193"><ele>157.33333333333331</ele><time>2026-05-03T11:30:58.005Z</time></trkpt><trkpt lat="42.2666155" lon="13.9787505"><ele>158.0</ele><time>2026-05-03T11:30:59.005Z</time></trkpt><trkpt lat="42.2666306" lon="13.978985"><ele>159.0</ele><time>2026-05-03T11:31:00.005Z</time></trkpt><trkpt lat="42.2666452" lon="13.9792237"><ele>160.0</ele><time>2026-05-03T11:31:01.005Z</time></trkpt><trkpt lat="42.2666555" lon="13.9794607"><ele>161.0</ele><time>2026-05-03T11:31:02.004Z</time></trkpt><trkpt lat="42.266673" lon="13.9796921"><ele>161.0</ele><time>2026-05-03T11:31:03.005Z</time></trkpt><trkpt lat="42.2666917" lon="13.9799233"><ele>161.0</ele><time>2026-05-03T11:31:04.004Z</time></trkpt><trkpt lat="42.2667036" lon="13.9801582"><ele>161.0</ele><time>2026-05-03T11:31:05.005Z</time></trkpt><trkpt lat="42.2667146" lon="13.9803901"><ele>161.66666666666666</ele><time>2026-05-03T11:31:06.005Z</time></trkpt><trkpt lat="42.2667252" lon="13.9806245"><ele>162.33333333333334</ele><time>2026-05-03T11:31:07.004Z</time></trkpt><trkpt lat="42.2667413" lon="13.9808603"><ele>163.0</ele><time>2026-05-03T11:31:08.005Z</time></trkpt><trkpt lat="42.2667554" lon="13.9810947"><ele>163.33333333333334</ele><time>2026-05-03T11:31:09.004Z</time></trkpt><trkpt lat="42.2667662" lon="13.9813312"><ele>163.66666666666666</ele><time>2026-05-03T11:31:10.005Z</time></trkpt><trkpt lat="42.2667787" lon="13.981568"><ele>164.0</ele><time>2026-05-03T11:31:11.005Z</time></trkpt><trkpt lat="42.2667936" lon="13.9818041"><ele>163.33333333333331</ele><time>2026-05-03T11:31:12.004Z</time></trkpt><trkpt lat="42.2668064" lon="13.9820419"><ele>162.66666666666666</ele><time>2026-05-03T11:31:13.004Z</time></trkpt><trkpt lat="42.2668189" lon="13.9822761"><ele>162.0</ele><time>2026-05-03T11:31:14.005Z</time></trkpt><trkpt lat="42.2668305" lon="13.9825117"><ele>162.0</ele><time>2026-05-03T11:31:15.005Z</time></trkpt><trkpt lat="42.2668442" lon="13.9827445"><ele>162.0</ele><time>2026-05-03T11:31:16.005Z</time></trkpt><trkpt lat="42.2668573" lon="13.9829777"><ele>162.0</ele><time>2026-05-03T11:31:17.004Z</time></trkpt><trkpt lat="42.2668705" lon="13.9832105"><ele>162.66666666666666</ele><time>2026-05-03T11:31:18.005Z</time></trkpt><trkpt lat="42.2668824" lon="13.9834434"><ele>163.33333333333331</ele><time>2026-05-03T11:31:19.004Z</time></trkpt><trkpt lat="42.2668988" lon="13.9836751"><ele>164.0</ele><time>2026-05-03T11:31:20.004Z</time></trkpt><trkpt lat="42.2669187" lon="13.9839104"><ele>164.0</ele><time>2026-05-03T11:31:21.004Z</time></trkpt><trkpt lat="42.266943" lon="13.984143"><ele>164.0</ele><time>2026-05-03T11:31:22.004Z</time></trkpt><trkpt lat="42.2669719" lon="13.9843766"><ele>164.0</ele><time>2026-05-03T11:31:23.004Z</time></trkpt><trkpt lat="42.2670046" lon="13.9846165"><ele>162.33333333333331</ele><time>2026-05-03T11:31:24.005Z</time></trkpt><trkpt lat="42.2670317" lon="13.9848463"><ele>160.66666666666666</ele><time>2026-05-03T11:31:25.004Z</time></trkpt><trkpt lat="42.2670541" lon="13.9850725"><ele>159.0</ele><time>2026-05-03T11:31:26.004Z</time></trkpt><trkpt lat="42.2670681" lon="13.9852932"><ele>157.0</ele><time>2026-05-03T11:31:27.005Z</time></trkpt><trkpt lat="42.2670674" lon="13.9855277"><ele>155.0</ele><time>2026-05-03T11:31:28.005Z</time></trkpt><trkpt lat="42.2670563" lon="13.9857615"><ele>153.0</ele><time>2026-05-03T11:31:29.005Z</time></trkpt><trkpt lat="42.267034" lon="13.9860011"><ele>151.33333333333334</ele><time>2026-05-03T11:31:30.005Z</time></trkpt><trkpt lat="42.2670017" lon="13.9862319"><ele>149.66666666666669</ele><time>2026-05-03T11:31:31.004Z</time></trkpt><trkpt lat="42.2669568" lon="13.9864644"><ele>148.0</ele><time>2026-05-03T11:31:32.004Z</time></trkpt><trkpt lat="42.2669108" lon="13.9866977"><ele>146.0</ele><time>2026-05-03T11:31:33.005Z</time></trkpt><trkpt lat="42.2668588" lon="13.9869277"><ele>144.0</ele><time>2026-05-03T11:31:34.005Z</time></trkpt><trkpt lat="42.2668104" lon="13.9871609"><ele>142.0</ele><time>2026-05-03T11:31:35.004Z</time></trkpt><trkpt lat="42.2667646" lon="13.9873908"><ele>140.33333333333334</ele><time>2026-05-03T11:31:36.005Z</time></trkpt><trkpt lat="42.2667137" lon="13.9876125"><ele>138.66666666666666</ele><time>2026-05-03T11:31:37.005Z</time></trkpt><trkpt lat="42.2666606" lon="13.9878348"><ele>137.0</ele><time>2026-05-03T11:31:38.005Z</time></trkpt><trkpt lat="42.2666092" lon="13.9880562"><ele>137.0</ele><time>2026-05-03T11:31:39.004Z</time></trkpt><trkpt lat="42.2665729" lon="13.9882819"><ele>137.0</ele><time>2026-05-03T11:31:40.004Z</time></trkpt><trkpt lat="42.2665509" lon="13.9885088"><ele>137.0</ele><time>2026-05-03T11:31:41.005Z</time></trkpt><trkpt lat="42.2665518" lon="13.9887375"><ele>135.33333333333331</ele><time>2026-05-03T11:31:42.004Z</time></trkpt><trkpt lat="42.266566" lon="13.9889683"><ele>133.66666666666666</ele><time>2026-05-03T11:31:43.004Z</time></trkpt><trkpt lat="42.2665938" lon="13.9891956"><ele>132.0</ele><time>2026-05-03T11:31:44.004Z</time></trkpt><trkpt lat="42.2666289" lon="13.9894208"><ele>132.0</ele><time>2026-05-03T11:31:45.005Z</time></trkpt><trkpt lat="42.2666653" lon="13.9896373"><ele>132.0</ele><time>2026-05-03T11:31:46.005Z</time></trkpt><trkpt lat="42.2667048" lon="13.9898531"><ele>132.0</ele><time>2026-05-03T11:31:47.005Z</time></trkpt><trkpt lat="42.2667439" lon="13.9900636"><ele>131.66666666666666</ele><time>2026-05-03T11:31:48.004Z</time></trkpt><trkpt lat="42.2667756" lon="13.9902736"><ele>131.33333333333331</ele><time>2026-05-03T11:31:49.004Z</time></trkpt><trkpt lat="42.266802" lon="13.9904851"><ele>131.0</ele><time>2026-05-03T11:31:50.004Z</time></trkpt><trkpt lat="42.2668156" lon="13.9906994"><ele>129.0</ele><time>2026-05-03T11:31:51.005Z</time></trkpt><trkpt lat="42.266809" lon="13.9909178"><ele>127.0</ele><time>2026-05-03T11:31:52.004Z</time></trkpt><trkpt lat="42.2667887" lon="13.9911337"><ele>125.0</ele><time>2026-05-03T11:31:53.005Z</time></trkpt><trkpt lat="42.2667558" lon="13.99135"><ele>125.0</ele><time>2026-05-03T11:31:54.005Z</time></trkpt><trkpt lat="42.2667256" lon="13.9915665"><ele>125.0</ele><time>2026-05-03T11:31:55.004Z</time></trkpt><trkpt lat="42.2666887" lon="13.9917878"><ele>125.0</ele><time>2026-05-03T11:31:56.005Z</time></trkpt><trkpt lat="42.2666499" lon="13.9920122"><ele>123.33333333333333</ele><time>2026-05-03T11:31:57.004Z</time></trkpt><trkpt lat="42.2666082" lon="13.9922345"><ele>121.66666666666666</ele><time>2026-05-03T11:31:58.004Z</time></trkpt><trkpt lat="42.2665713" lon="13.9924549"><ele>120.0</ele><time>2026-05-03T11:31:59.004Z</time></trkpt><trkpt lat="42.2665363" lon="13.9926737"><ele>119.33333333333334</ele><time>2026-05-03T11:32:00.005Z</time></trkpt><trkpt lat="42.2665034" lon="13.9928855"><ele>118.66666666666667</ele><time>2026-05-03T11:32:01.005Z</time></trkpt><trkpt lat="42.266471" lon="13.9930953"><ele>118.0</ele><time>2026-05-03T11:32:02.004Z</time></trkpt><trkpt lat="42.2664346" lon="13.9933023"><ele>122.0</ele><time>2026-05-03T11:32:03.005Z</time></trkpt><trkpt lat="42.2663977" lon="13.9934986"><ele>126.0</ele><time>2026-05-03T11:32:04.005Z</time></trkpt><trkpt lat="42.2663561" lon="13.9936921"><ele>130.0</ele><time>2026-05-03T11:32:05.005Z</time></trkpt><trkpt lat="42.2663227" lon="13.9938911"><ele>130.0</ele><time>2026-05-03T11:32:06.005Z</time></trkpt><trkpt lat="42.2662938" lon="13.9940793"><ele>130.0</ele><time>2026-05-03T11:32:07.005Z</time></trkpt><trkpt lat="42.2662668" lon="13.9942551"><ele>130.0</ele><time>2026-05-03T11:32:08.004Z</time></trkpt><trkpt lat="42.2662377" lon="13.9944184"><ele>130.0</ele><time>2026-05-03T11:32:09.004Z</time></trkpt><trkpt lat="42.2662081" lon="13.9945743"><ele>128.8</ele><time>2026-05-03T11:32:10.004Z</time></trkpt><trkpt lat="42.2661769" lon="13.9947151"><ele>127.6</ele><time>2026-05-03T11:32:11.004Z</time></trkpt><trkpt lat="42.2661405" lon="13.9948352"><ele>126.4</ele><time>2026-05-03T11:32:12.005Z</time></trkpt><trkpt lat="42.2660937" lon="13.9949408"><ele>125.2</ele><time>2026-05-03T11:32:13.004Z</time></trkpt><trkpt lat="42.2660416" lon="13.9950409"><ele>124.0</ele><time>2026-05-03T11:32:14.005Z</time></trkpt><trkpt lat="42.2659959" lon="13.9951317"><ele>123.6</ele><time>2026-05-03T11:32:15.004Z</time></trkpt><trkpt lat="42.2659787" lon="13.99523"><ele>123.2</ele><time>2026-05-03T11:32:16.005Z</time></trkpt><trkpt lat="42.2659847" lon="13.9953372"><ele>122.79999999999998</ele><time>2026-05-03T11:32:17.004Z</time></trkpt><trkpt lat="42.2659974" lon="13.9954608"><ele>122.39999999999999</ele><time>2026-05-03T11:32:18.004Z</time></trkpt><trkpt lat="42.2660067" lon="13.9955991"><ele>122.0</ele><time>2026-05-03T11:32:19.004Z</time></trkpt><trkpt lat="42.2659926" lon="13.9957515"><ele>121.5</ele><time>2026-05-03T11:32:20.004Z</time></trkpt><trkpt lat="42.2659782" lon="13.995907"><ele>121.0</ele><time>2026-05-03T11:32:21.005Z</time></trkpt><trkpt lat="42.265963" lon="13.9960754"><ele>120.5</ele><time>2026-05-03T11:32:22.005Z</time></trkpt><trkpt lat="42.2659345" lon="13.9962472"><ele>120.0</ele><time>2026-05-03T11:32:23.005Z</time></trkpt><trkpt lat="42.2659065" lon="13.9964285"><ele>120.0</ele><time>2026-05-03T11:32:24.005Z</time></trkpt><trkpt lat="42.2658807" lon="13.9965892"><ele>120.0</ele><time>2026-05-03T11:32:25.004Z</time></trkpt><trkpt lat="42.2658675" lon="13.9967041"><ele>120.0</ele><time>2026-05-03T11:32:26.005Z</time></trkpt><trkpt lat="42.2658454" lon="13.9968283"><ele>120.0</ele><time>2026-05-03T11:32:28.005Z</time></trkpt><trkpt lat="42.2658209" lon="13.9969493"><ele>120.0</ele><time>2026-05-03T11:33:21.004Z</time></trkpt><trkpt lat="42.2657987" lon="13.9970465"><ele>120.0</ele><time>2026-05-03T11:33:22.004Z</time></trkpt><trkpt lat="42.2657838" lon="13.9971515"><ele>120.0</ele><time>2026-05-03T11:33:23.004Z</time></trkpt><trkpt lat="42.265761" lon="13.9972675"><ele>120.0</ele><time>2026-05-03T11:33:24.004Z</time></trkpt><trkpt lat="42.2657392" lon="13.9973954"><ele>120.0</ele><time>2026-05-03T11:33:25.005Z</time></trkpt><trkpt lat="42.2657148" lon="13.9975242"><ele>120.0</ele><time>2026-05-03T11:33:26.004Z</time></trkpt><trkpt lat="42.2656897" lon="13.9976679"><ele>119.5</ele><time>2026-05-03T11:33:27.005Z</time></trkpt><trkpt lat="42.2656543" lon="13.9978145"><ele>119.0</ele><time>2026-05-03T11:33:28.004Z</time></trkpt><trkpt lat="42.265612" lon="13.9979585"><ele>118.5</ele><time>2026-05-03T11:33:29.005Z</time></trkpt><trkpt lat="42.2655602" lon="13.9981069"><ele>118.0</ele><time>2026-05-03T11:33:30.004Z</time></trkpt><trkpt lat="42.2654958" lon="13.9982603"><ele>117.75</ele><time>2026-05-03T11:33:31.005Z</time></trkpt><trkpt lat="42.2654209" lon="13.9984028"><ele>117.5</ele><time>2026-05-03T11:33:32.005Z</time></trkpt><trkpt lat="42.2653425" lon="13.9985343"><ele>117.25</ele><time>2026-05-03T11:33:33.005Z</time></trkpt><trkpt lat="42.2652612" lon="13.9986634"><ele>117.0</ele><time>2026-05-03T11:33:34.004Z</time></trkpt><trkpt lat="42.2651658" lon="13.9987879"><ele>117.0</ele><time>2026-05-03T11:33:35.004Z</time></trkpt><trkpt lat="42.2650557" lon="13.9989076"><ele>117.0</ele><time>2026-05-03T11:33:36.005Z</time></trkpt><trkpt lat="42.2649409" lon="13.9990252"><ele>117.0</ele><time>2026-05-03T11:33:37.005Z</time></trkpt><trkpt lat="42.2648237" lon="13.9991419"><ele>117.0</ele><time>2026-05-03T11:33:38.005Z</time></trkpt><trkpt lat="42.2647076" lon="13.9992585"><ele>117.33333333333334</ele><time>2026-05-03T11:33:39.005Z</time></trkpt><trkpt lat="42.2645902" lon="13.9993784"><ele>117.66666666666667</ele><time>2026-05-03T11:33:40.004Z</time></trkpt><trkpt lat="42.264467" lon="13.999498"><ele>118.0</ele><time>2026-05-03T11:33:41.005Z</time></trkpt><trkpt lat="42.264345" lon="13.9996201"><ele>118.0</ele><time>2026-05-03T11:33:42.004Z</time></trkpt><trkpt lat="42.2642275" lon="13.9997431"><ele>118.0</ele><time>2026-05-03T11:33:43.005Z</time></trkpt><trkpt lat="42.2641077" lon="13.9998692"><ele>118.0</ele><time>2026-05-03T11:33:44.004Z</time></trkpt><trkpt lat="42.2639916" lon="13.999987"><ele>118.0</ele><time>2026-05-03T11:33:45.004Z</time></trkpt><trkpt lat="42.2638735" lon="14.0001106"><ele>119.25</ele><time>2026-05-03T11:33:46.004Z</time></trkpt><trkpt lat="42.2637566" lon="14.0002277"><ele>120.5</ele><time>2026-05-03T11:33:47.005Z</time></trkpt><trkpt lat="42.2636433" lon="14.0003432"><ele>121.75</ele><time>2026-05-03T11:33:48.005Z</time></trkpt><trkpt lat="42.2635324" lon="14.0004686"><ele>123.0</ele><time>2026-05-03T11:33:49.004Z</time></trkpt><trkpt lat="42.2634293" lon="14.0006015"><ele>123.0</ele><time>2026-05-03T11:33:50.004Z</time></trkpt><trkpt lat="42.2633375" lon="14.0007504"><ele>123.0</ele><time>2026-05-03T11:33:51.004Z</time></trkpt><trkpt lat="42.2632719" lon="14.0009184"><ele>123.0</ele><time>2026-05-03T11:33:52.005Z</time></trkpt><trkpt lat="42.2632204" lon="14.0011005"><ele>123.0</ele><time>2026-05-03T11:33:53.004Z</time></trkpt><trkpt lat="42.2631913" lon="14.0012885"><ele>120.66666666666666</ele><time>2026-05-03T11:33:54.005Z</time></trkpt><trkpt lat="42.2631851" lon="14.001492"><ele>118.33333333333333</ele><time>2026-05-03T11:33:55.005Z</time></trkpt><trkpt lat="42.2631952" lon="14.001692"><ele>116.0</ele><time>2026-05-03T11:33:56.005Z</time></trkpt><trkpt lat="42.2632361" lon="14.0018921"><ele>114.33333333333333</ele><time>2026-05-03T11:33:57.004Z</time></trkpt><trkpt lat="42.263297" lon="14.002085"><ele>112.66666666666666</ele><time>2026-05-03T11:33:58.005Z</time></trkpt><trkpt lat="42.2633736" lon="14.0022732"><ele>111.0</ele><time>2026-05-03T11:33:59.004Z</time></trkpt><trkpt lat="42.2634538" lon="14.0024484"><ele>110.5</ele><time>2026-05-03T11:34:00.005Z</time></trkpt><trkpt lat="42.2635352" lon="14.0026116"><ele>110.0</ele><time>2026-05-03T11:34:01.005Z</time></trkpt><trkpt lat="42.26361" lon="14.0027688"><ele>109.5</ele><time>2026-05-03T11:34:02.005Z</time></trkpt><trkpt lat="42.2636814" lon="14.0029201"><ele>109.0</ele><time>2026-05-03T11:34:03.005Z</time></trkpt><trkpt lat="42.2637479" lon="14.0030688"><ele>109.0</ele><time>2026-05-03T11:34:04.005Z</time></trkpt><trkpt lat="42.263811" lon="14.0032138"><ele>109.0</ele><time>2026-05-03T11:34:05.004Z</time></trkpt><trkpt lat="42.263865" lon="14.003341"><ele>109.0</ele><time>2026-05-03T11:34:06.004Z</time></trkpt><trkpt lat="42.2639029" lon="14.0034606"><ele>109.0</ele><time>2026-05-03T11:34:07.004Z</time></trkpt><trkpt lat="42.2639288" lon="14.0035681"><ele>109.0</ele><time>2026-05-03T11:34:08.004Z</time></trkpt><trkpt lat="42.2639407" lon="14.0036717"><ele>109.00000000000001</ele><time>2026-05-03T11:34:09.005Z</time></trkpt><trkpt lat="42.2639378" lon="14.0037753"><ele>109.0</ele><time>2026-05-03T11:34:10.004Z</time></trkpt><trkpt lat="42.2639289" lon="14.0038786"><ele>109.0</ele><time>2026-05-03T11:34:11.005Z</time></trkpt><trkpt lat="42.2639349" lon="14.0039677"><ele>109.0</ele><time>2026-05-03T11:34:12.004Z</time></trkpt><trkpt lat="42.2639653" lon="14.0040447"><ele>109.00000000000001</ele><time>2026-05-03T11:34:13.004Z</time></trkpt><trkpt lat="42.2640692" lon="14.0041415"><ele>109.0</ele><time>2026-05-03T11:34:15.005Z</time></trkpt><trkpt lat="42.2641467" lon="14.0042096"><ele>109.2</ele><time>2026-05-03T11:34:16.004Z</time></trkpt><trkpt lat="42.2642137" lon="14.0042847"><ele>109.4</ele><time>2026-05-03T11:34:17.005Z</time></trkpt><trkpt lat="42.2642784" lon="14.0043822"><ele>109.6</ele><time>2026-05-03T11:34:18.005Z</time></trkpt><trkpt lat="42.2643442" lon="14.0044975"><ele>109.8</ele><time>2026-05-03T11:34:19.004Z</time></trkpt><trkpt lat="42.264402" lon="14.0046138"><ele>110.0</ele><time>2026-05-03T11:34:20.004Z</time></trkpt><trkpt lat="42.2644607" lon="14.0047432"><ele>110.0</ele><time>2026-05-03T11:34:21.005Z</time></trkpt><trkpt lat="42.2645211" lon="14.0048771"><ele>110.0</ele><time>2026-05-03T11:34:22.004Z</time></trkpt><trkpt lat="42.2645846" lon="14.0050182"><ele>110.0</ele><time>2026-05-03T11:34:23.004Z</time></trkpt><trkpt lat="42.2646477" lon="14.0051607"><ele>110.0</ele><time>2026-05-03T11:34:24.005Z</time></trkpt><trkpt lat="42.2647148" lon="14.0053016"><ele>108.75</ele><time>2026-05-03T11:34:25.004Z</time></trkpt><trkpt lat="42.2647838" lon="14.0054461"><ele>107.5</ele><time>2026-05-03T11:34:26.004Z</time></trkpt><trkpt lat="42.2648523" lon="14.0055892"><ele>106.25</ele><time>2026-05-03T11:34:27.004Z</time></trkpt><trkpt lat="42.2649167" lon="14.0057342"><ele>105.0</ele><time>2026-05-03T11:34:28.005Z</time></trkpt><trkpt lat="42.2649782" lon="14.0058777"><ele>104.25</ele><time>2026-05-03T11:34:29.005Z</time></trkpt><trkpt lat="42.2650445" lon="14.0060233"><ele>103.5</ele><time>2026-05-03T11:34:30.005Z</time></trkpt><trkpt lat="42.2651152" lon="14.0061682"><ele>102.75</ele><time>2026-05-03T11:34:31.005Z</time></trkpt><trkpt lat="42.265176" lon="14.0063159"><ele>102.0</ele><time>2026-05-03T11:34:32.005Z</time></trkpt><trkpt lat="42.2652325" lon="14.0064751"><ele>102.0</ele><time>2026-05-03T11:34:33.004Z</time></trkpt><trkpt lat="42.2652978" lon="14.0066304"><ele>102.0</ele><time>2026-05-03T11:34:34.004Z</time></trkpt><trkpt lat="42.2653631" lon="14.0067872"><ele>102.0</ele><time>2026-05-03T11:34:35.004Z</time></trkpt><trkpt lat="42.265432" lon="14.0069489"><ele>102.0</ele><time>2026-05-03T11:34:36.005Z</time></trkpt><trkpt lat="42.265504" lon="14.0071088"><ele>102.0</ele><time>2026-05-03T11:34:37.005Z</time></trkpt><trkpt lat="42.2655762" lon="14.0072699"><ele>102.0</ele><time>2026-05-03T11:34:38.004Z</time></trkpt><trkpt lat="42.265658" lon="14.0074286"><ele>102.0</ele><time>2026-05-03T11:34:39.004Z</time></trkpt><trkpt lat="42.2657545" lon="14.0075829"><ele>102.0</ele><time>2026-05-03T11:34:40.005Z</time></trkpt><trkpt lat="42.2658607" lon="14.0077263"><ele>101.75</ele><time>2026-05-03T11:34:41.005Z</time></trkpt><trkpt lat="42.2659737" lon="14.0078625"><ele>101.5</ele><time>2026-05-03T11:34:42.005Z</time></trkpt><trkpt lat="42.2660901" lon="14.0079987"><ele>101.25</ele><time>2026-05-03T11:34:43.004Z</time></trkpt><trkpt lat="42.2661981" lon="14.0081145"><ele>101.0</ele><time>2026-05-03T11:34:44.005Z</time></trkpt><trkpt lat="42.2663046" lon="14.00823"><ele>100.5</ele><time>2026-05-03T11:34:45.005Z</time></trkpt><trkpt lat="42.266413" lon="14.0083648"><ele>100.0</ele><time>2026-05-03T11:34:46.005Z</time></trkpt><trkpt lat="42.2665101" lon="14.0085117"><ele>99.5</ele><time>2026-05-03T11:34:47.004Z</time></trkpt><trkpt lat="42.2665967" lon="14.0086788"><ele>99.0</ele><time>2026-05-03T11:34:48.005Z</time></trkpt><trkpt lat="42.2666772" lon="14.0088542"><ele>99.0</ele><time>2026-05-03T11:34:49.004Z</time></trkpt><trkpt lat="42.2667612" lon="14.0090259"><ele>99.0</ele><time>2026-05-03T11:34:50.005Z</time></trkpt><trkpt lat="42.2668394" lon="14.0091799"><ele>99.0</ele><time>2026-05-03T11:34:51.004Z</time></trkpt><trkpt lat="42.2669059" lon="14.009326"><ele>99.0</ele><time>2026-05-03T11:34:52.004Z</time></trkpt><trkpt lat="42.2669702" lon="14.0094685"><ele>99.2</ele><time>2026-05-03T11:34:53.005Z</time></trkpt><trkpt lat="42.2670329" lon="14.0096034"><ele>99.4</ele><time>2026-05-03T11:34:54.005Z</time></trkpt><trkpt lat="42.2670884" lon="14.0097307"><ele>99.6</ele><time>2026-05-03T11:34:55.004Z</time></trkpt><trkpt lat="42.2671414" lon="14.0098532"><ele>99.8</ele><time>2026-05-03T11:34:56.005Z</time></trkpt><trkpt lat="42.2671824" lon="14.0099673"><ele>100.0</ele><time>2026-05-03T11:34:57.005Z</time></trkpt><trkpt lat="42.2672063" lon="14.010077"><ele>100.00000000000001</ele><time>2026-05-03T11:34:58.004Z</time></trkpt><trkpt lat="42.2672157" lon="14.0101812"><ele>100.0</ele><time>2026-05-03T11:34:59.004Z</time></trkpt><trkpt lat="42.2672167" lon="14.0102772"><ele>100.0</ele><time>2026-05-03T11:35:00.004Z</time></trkpt><trkpt lat="42.2672394" lon="14.010374"><ele>100.0</ele><time>2026-05-03T11:35:01.005Z</time></trkpt><trkpt lat="42.2672867" lon="14.0104487"><ele>100.00000000000001</ele><time>2026-05-03T11:35:02.004Z</time></trkpt><trkpt lat="42.2673556" lon="14.0105184"><ele>100.0</ele><time>2026-05-03T11:35:03.004Z</time></trkpt><trkpt lat="42.267433" lon="14.0106038"><ele>99.25</ele><time>2026-05-03T11:35:04.004Z</time></trkpt><trkpt lat="42.2675074" lon="14.0107117"><ele>98.5</ele><time>2026-05-03T11:35:05.004Z</time></trkpt><trkpt lat="42.2675789" lon="14.010847"><ele>97.75</ele><time>2026-05-03T11:35:06.005Z</time></trkpt><trkpt lat="42.2676486" lon="14.0109929"><ele>97.0</ele><time>2026-05-03T11:35:07.004Z</time></trkpt><trkpt lat="42.2677076" lon="14.0111441"><ele>97.0</ele><time>2026-05-03T11:35:08.005Z</time></trkpt><trkpt lat="42.2677835" lon="14.0113057"><ele>97.0</ele><time>2026-05-03T11:35:09.005Z</time></trkpt><trkpt lat="42.2678566" lon="14.0114793"><ele>97.0</ele><time>2026-05-03T11:35:10.005Z</time></trkpt><trkpt lat="42.2679279" lon="14.0116477"><ele>97.0</ele><time>2026-05-03T11:35:11.005Z</time></trkpt><trkpt lat="42.2680056" lon="14.0118184"><ele>96.66666666666667</ele><time>2026-05-03T11:35:12.005Z</time></trkpt><trkpt lat="42.2680839" lon="14.0119911"><ele>96.33333333333334</ele><time>2026-05-03T11:35:13.004Z</time></trkpt><trkpt lat="42.2681608" lon="14.0121652"><ele>96.0</ele><time>2026-05-03T11:35:14.005Z</time></trkpt><trkpt lat="42.2682384" lon="14.0123443"><ele>93.66666666666667</ele><time>2026-05-03T11:35:15.005Z</time></trkpt><trkpt lat="42.2683157" lon="14.0125237"><ele>91.33333333333334</ele><time>2026-05-03T11:35:16.005Z</time></trkpt><trkpt lat="42.2683945" lon="14.0126943"><ele>89.0</ele><time>2026-05-03T11:35:17.004Z</time></trkpt><trkpt lat="42.2684751" lon="14.0128693"><ele>89.0</ele><time>2026-05-03T11:35:18.005Z</time></trkpt><trkpt lat="42.2685508" lon="14.0130457"><ele>89.0</ele><time>2026-05-03T11:35:19.005Z</time></trkpt><trkpt lat="42.2686211" lon="14.0132187"><ele>89.0</ele><time>2026-05-03T11:35:20.004Z</time></trkpt><trkpt lat="42.2686984" lon="14.0133908"><ele>89.0</ele><time>2026-05-03T11:35:21.005Z</time></trkpt><trkpt lat="42.2687722" lon="14.0135604"><ele>88.75</ele><time>2026-05-03T11:35:22.004Z</time></trkpt><trkpt lat="42.2688447" lon="14.0137252"><ele>88.5</ele><time>2026-05-03T11:35:23.005Z</time></trkpt><trkpt lat="42.2689123" lon="14.0138808"><ele>88.25</ele><time>2026-05-03T11:35:24.004Z</time></trkpt><trkpt lat="42.2689801" lon="14.0140303"><ele>88.0</ele><time>2026-05-03T11:35:25.004Z</time></trkpt><trkpt lat="42.2690552" lon="14.0141581"><ele>87.60000000000001</ele><time>2026-05-03T11:35:26.004Z</time></trkpt><trkpt lat="42.2691338" lon="14.0142774"><ele>87.2</ele><time>2026-05-03T11:35:27.004Z</time></trkpt><trkpt lat="42.2692021" lon="14.0143811"><ele>86.8</ele><time>2026-05-03T11:35:28.004Z</time></trkpt><trkpt lat="42.2692638" lon="14.0144892"><ele>86.4</ele><time>2026-05-03T11:35:29.005Z</time></trkpt><trkpt lat="42.2693079" lon="14.014591"><ele>86.0</ele><time>2026-05-03T11:35:30.005Z</time></trkpt><trkpt lat="42.2693384" lon="14.0146869"><ele>86.0</ele><time>2026-05-03T11:35:31.005Z</time></trkpt><trkpt lat="42.2693688" lon="14.0147718"><ele>86.0</ele><time>2026-05-03T11:35:32.005Z</time></trkpt><trkpt lat="42.2694044" lon="14.0148442"><ele>86.0</ele><time>2026-05-03T11:35:33.004Z</time></trkpt><trkpt lat="42.269482" lon="14.0149555"><ele>86.0</ele><time>2026-05-03T11:35:35.005Z</time></trkpt><trkpt lat="42.2695173" lon="14.0150271"><ele>86.0</ele><time>2026-05-03T11:35:36.005Z</time></trkpt><trkpt lat="42.2695479" lon="14.0151192"><ele>86.0</ele><time>2026-05-03T11:35:37.005Z</time></trkpt><trkpt lat="42.2695752" lon="14.0152344"><ele>86.25</ele><time>2026-05-03T11:35:38.005Z</time></trkpt><trkpt lat="42.2696117" lon="14.0153591"><ele>86.5</ele><time>2026-05-03T11:35:39.005Z</time></trkpt><trkpt lat="42.2696639" lon="14.0154978"><ele>86.75</ele><time>2026-05-03T11:35:40.004Z</time></trkpt><trkpt lat="42.2697248" lon="14.0156426"><ele>87.0</ele><time>2026-05-03T11:35:41.005Z</time></trkpt><trkpt lat="42.2697879" lon="14.0157894"><ele>86.75</ele><time>2026-05-03T11:35:42.005Z</time></trkpt><trkpt lat="42.2698599" lon="14.0159486"><ele>86.5</ele><time>2026-05-03T11:35:43.004Z</time></trkpt><trkpt lat="42.2699302" lon="14.0161081"><ele>86.25</ele><time>2026-05-03T11:35:44.005Z</time></trkpt><trkpt lat="42.269998" lon="14.0162602"><ele>86.0</ele><time>2026-05-03T11:35:45.005Z</time></trkpt><trkpt lat="42.2700718" lon="14.0164212"><ele>86.0</ele><time>2026-05-03T11:35:46.005Z</time></trkpt><trkpt lat="42.2701453" lon="14.0165922"><ele>86.0</ele><time>2026-05-03T11:35:47.004Z</time></trkpt><trkpt lat="42.2702215" lon="14.0167646"><ele>86.0</ele><time>2026-05-03T11:35:48.004Z</time></trkpt><trkpt lat="42.2703001" lon="14.0169409"><ele>86.0</ele><time>2026-05-03T11:35:49.005Z</time></trkpt><trkpt lat="42.2703797" lon="14.0171198"><ele>86.0</ele><time>2026-05-03T11:35:50.005Z</time></trkpt><trkpt lat="42.2704578" lon="14.0173031"><ele>86.0</ele><time>2026-05-03T11:35:51.005Z</time></trkpt><trkpt lat="42.2705344" lon="14.0174837"><ele>86.0</ele><time>2026-05-03T11:35:52.005Z</time></trkpt><trkpt lat="42.2706152" lon="14.0176655"><ele>86.0</ele><time>2026-05-03T11:35:53.004Z</time></trkpt><trkpt lat="42.2706979" lon="14.0178472"><ele>86.0</ele><time>2026-05-03T11:35:54.005Z</time></trkpt><trkpt lat="42.2707799" lon="14.0180324"><ele>86.0</ele><time>2026-05-03T11:35:55.004Z</time></trkpt><trkpt lat="42.2708647" lon="14.0182201"><ele>87.33333333333334</ele><time>2026-05-03T11:35:56.005Z</time></trkpt><trkpt lat="42.2709483" lon="14.0184079"><ele>88.66666666666667</ele><time>2026-05-03T11:35:57.004Z</time></trkpt><trkpt lat="42.2710368" lon="14.0185866"><ele>90.0</ele><time>2026-05-03T11:35:58.005Z</time></trkpt><trkpt lat="42.2711293" lon="14.0187621"><ele>90.0</ele><time>2026-05-03T11:35:59.005Z</time></trkpt><trkpt lat="42.2712327" lon="14.0189329"><ele>90.0</ele><time>2026-05-03T11:36:00.004Z</time></trkpt><trkpt lat="42.2713428" lon="14.0190937"><ele>90.0</ele><time>2026-05-03T11:36:01.004Z</time></trkpt><trkpt lat="42.2714619" lon="14.0192504"><ele>90.66666666666667</ele><time>2026-05-03T11:36:02.005Z</time></trkpt><trkpt lat="42.2715826" lon="14.0194089"><ele>91.33333333333334</ele><time>2026-05-03T11:36:03.005Z</time></trkpt><trkpt lat="42.2717088" lon="14.0195608"><ele>92.0</ele><time>2026-05-03T11:36:04.005Z</time></trkpt><trkpt lat="42.2718454" lon="14.0197075"><ele>92.0</ele><time>2026-05-03T11:36:05.005Z</time></trkpt><trkpt lat="42.2719871" lon="14.0198475"><ele>92.0</ele><time>2026-05-03T11:36:06.005Z</time></trkpt><trkpt lat="42.2721224" lon="14.0199779"><ele>92.0</ele><time>2026-05-03T11:36:07.005Z</time></trkpt><trkpt lat="42.2722641" lon="14.0200969"><ele>91.66666666666667</ele><time>2026-05-03T11:36:08.005Z</time></trkpt><trkpt lat="42.2724138" lon="14.0202021"><ele>91.33333333333333</ele><time>2026-05-03T11:36:09.004Z</time></trkpt><trkpt lat="42.2725668" lon="14.0202934"><ele>91.0</ele><time>2026-05-03T11:36:10.005Z</time></trkpt><trkpt lat="42.2727246" lon="14.0203762"><ele>91.0</ele><time>2026-05-03T11:36:11.005Z</time></trkpt><trkpt lat="42.2728846" lon="14.0204487"><ele>91.0</ele><time>2026-05-03T11:36:12.004Z</time></trkpt><trkpt lat="42.2730465" lon="14.0205166"><ele>91.0</ele><time>2026-05-03T11:36:13.004Z</time></trkpt><trkpt lat="42.2732102" lon="14.0205739"><ele>89.33333333333333</ele><time>2026-05-03T11:36:14.004Z</time></trkpt><trkpt lat="42.2733738" lon="14.0206171"><ele>87.66666666666667</ele><time>2026-05-03T11:36:15.005Z</time></trkpt><trkpt lat="42.273543" lon="14.0206544"><ele>86.0</ele><time>2026-05-03T11:36:16.005Z</time></trkpt><trkpt lat="42.2737122" lon="14.020685"><ele>86.0</ele><time>2026-05-03T11:36:17.005Z</time></trkpt><trkpt lat="42.2738791" lon="14.0207023"><ele>86.0</ele><time>2026-05-03T11:36:18.005Z</time></trkpt><trkpt lat="42.2740489" lon="14.0207082"><ele>86.0</ele><time>2026-05-03T11:36:19.004Z</time></trkpt><trkpt lat="42.2742187" lon="14.0207088"><ele>85.33333333333334</ele><time>2026-05-03T11:36:20.005Z</time></trkpt><trkpt lat="42.2743908" lon="14.0207048"><ele>84.66666666666667</ele><time>2026-05-03T11:36:21.004Z</time></trkpt><trkpt lat="42.2745626" lon="14.0207004"><ele>84.0</ele><time>2026-05-03T11:36:22.004Z</time></trkpt><trkpt lat="42.2747367" lon="14.0206959"><ele>83.0</ele><time>2026-05-03T11:36:23.005Z</time></trkpt><trkpt lat="42.2749129" lon="14.0206899"><ele>82.0</ele><time>2026-05-03T11:36:24.004Z</time></trkpt><trkpt lat="42.2750894" lon="14.0206858"><ele>81.0</ele><time>2026-05-03T11:36:25.005Z</time></trkpt><trkpt lat="42.2752629" lon="14.0206779"><ele>81.0</ele><time>2026-05-03T11:36:26.004Z</time></trkpt><trkpt lat="42.2754436" lon="14.020673"><ele>81.0</ele><time>2026-05-03T11:36:27.004Z</time></trkpt><trkpt lat="42.2756267" lon="14.0206775"><ele>81.0</ele><time>2026-05-03T11:36:28.004Z</time></trkpt><trkpt lat="42.275807" lon="14.0206929"><ele>81.33333333333333</ele><time>2026-05-03T11:36:29.004Z</time></trkpt><trkpt lat="42.2759899" lon="14.0207183"><ele>81.66666666666666</ele><time>2026-05-03T11:36:30.005Z</time></trkpt><trkpt lat="42.276175" lon="14.0207424"><ele>82.0</ele><time>2026-05-03T11:36:31.004Z</time></trkpt><trkpt lat="42.2763549" lon="14.0207765"><ele>82.66666666666666</ele><time>2026-05-03T11:36:32.004Z</time></trkpt><trkpt lat="42.2765359" lon="14.0208129"><ele>83.33333333333333</ele><time>2026-05-03T11:36:33.004Z</time></trkpt><trkpt lat="42.2767178" lon="14.0208617"><ele>84.0</ele><time>2026-05-03T11:36:34.004Z</time></trkpt><trkpt lat="42.276891" lon="14.0209103"><ele>84.66666666666667</ele><time>2026-05-03T11:36:35.004Z</time></trkpt><trkpt lat="42.2770712" lon="14.0209698"><ele>85.33333333333334</ele><time>2026-05-03T11:36:36.005Z</time></trkpt><trkpt lat="42.2772447" lon="14.0210356"><ele>86.0</ele><time>2026-05-03T11:36:37.005Z</time></trkpt><trkpt lat="42.2774166" lon="14.0211141"><ele>84.66666666666667</ele><time>2026-05-03T11:36:38.005Z</time></trkpt><trkpt lat="42.2775893" lon="14.0211982"><ele>83.33333333333333</ele><time>2026-05-03T11:36:39.005Z</time></trkpt><trkpt lat="42.2777543" lon="14.0212887"><ele>82.0</ele><time>2026-05-03T11:36:40.005Z</time></trkpt><trkpt lat="42.2779201" lon="14.0213858"><ele>82.0</ele><time>2026-05-03T11:36:41.005Z</time></trkpt><trkpt lat="42.2780848" lon="14.0214837"><ele>82.0</ele><time>2026-05-03T11:36:42.004Z</time></trkpt><trkpt lat="42.2782477" lon="14.0215861"><ele>82.0</ele><time>2026-05-03T11:36:43.004Z</time></trkpt><trkpt lat="42.2784105" lon="14.0216889"><ele>81.0</ele><time>2026-05-03T11:36:44.005Z</time></trkpt><trkpt lat="42.2785716" lon="14.0217917"><ele>80.0</ele><time>2026-05-03T11:36:45.005Z</time></trkpt><trkpt lat="42.2787375" lon="14.0218972"><ele>79.0</ele><time>2026-05-03T11:36:46.005Z</time></trkpt><trkpt lat="42.2789006" lon="14.0219958"><ele>79.33333333333333</ele><time>2026-05-03T11:36:47.004Z</time></trkpt><trkpt lat="42.2790637" lon="14.0220978"><ele>79.66666666666667</ele><time>2026-05-03T11:36:48.004Z</time></trkpt><trkpt lat="42.2792213" lon="14.0221988"><ele>80.0</ele><time>2026-05-03T11:36:49.005Z</time></trkpt><trkpt lat="42.2793789" lon="14.022298"><ele>80.0</ele><time>2026-05-03T11:36:50.005Z</time></trkpt><trkpt lat="42.2795379" lon="14.0224008"><ele>80.0</ele><time>2026-05-03T11:36:51.004Z</time></trkpt><trkpt lat="42.2796962" lon="14.0224963"><ele>80.0</ele><time>2026-05-03T11:36:52.005Z</time></trkpt><trkpt lat="42.2798521" lon="14.0225943"><ele>81.0</ele><time>2026-05-03T11:36:53.005Z</time></trkpt><trkpt lat="42.2800112" lon="14.0226938"><ele>82.0</ele><time>2026-05-03T11:36:54.005Z</time></trkpt><trkpt lat="42.2801722" lon="14.0227971"><ele>83.0</ele><time>2026-05-03T11:36:55.005Z</time></trkpt><trkpt lat="42.2803357" lon="14.0228985"><ele>83.0</ele><time>2026-05-03T11:36:56.005Z</time></trkpt><trkpt lat="42.2804976" lon="14.0229986"><ele>83.0</ele><time>2026-05-03T11:36:57.005Z</time></trkpt><trkpt lat="42.2806605" lon="14.0230973"><ele>83.0</ele><time>2026-05-03T11:36:58.005Z</time></trkpt><trkpt lat="42.2808235" lon="14.0231996"><ele>83.66666666666667</ele><time>2026-05-03T11:36:59.005Z</time></trkpt><trkpt lat="42.280986" lon="14.0233023"><ele>84.33333333333333</ele><time>2026-05-03T11:37:00.005Z</time></trkpt><trkpt lat="42.2811513" lon="14.0234123"><ele>85.0</ele><time>2026-05-03T11:37:01.005Z</time></trkpt><trkpt lat="42.2813159" lon="14.0235287"><ele>87.66666666666666</ele><time>2026-05-03T11:37:02.005Z</time></trkpt><trkpt lat="42.2814802" lon="14.023645"><ele>90.33333333333333</ele><time>2026-05-03T11:37:03.005Z</time></trkpt><trkpt lat="42.2816436" lon="14.0237693"><ele>93.0</ele><time>2026-05-03T11:37:04.005Z</time></trkpt><trkpt lat="42.2818013" lon="14.0238999"><ele>93.0</ele><time>2026-05-03T11:37:05.003Z</time></trkpt><trkpt lat="42.281962" lon="14.024031"><ele>93.0</ele><time>2026-05-03T11:37:06.003Z</time></trkpt><trkpt lat="42.2821163" lon="14.0241661"><ele>93.0</ele><time>2026-05-03T11:37:07.003Z</time></trkpt><trkpt lat="42.2822683" lon="14.0243057"><ele>95.0</ele><time>2026-05-03T11:37:08.003Z</time></trkpt><trkpt lat="42.2824195" lon="14.0244544"><ele>97.0</ele><time>2026-05-03T11:37:09.003Z</time></trkpt><trkpt lat="42.2825608" lon="14.0246151"><ele>99.0</ele><time>2026-05-03T11:37:10.003Z</time></trkpt><trkpt lat="42.2826963" lon="14.024788"><ele>99.0</ele><time>2026-05-03T11:37:11.003Z</time></trkpt><trkpt lat="42.28283" lon="14.0249608"><ele>99.0</ele><time>2026-05-03T11:37:12.004Z</time></trkpt><trkpt lat="42.2829671" lon="14.0251304"><ele>99.0</ele><time>2026-05-03T11:37:13.003Z</time></trkpt><trkpt lat="42.2830962" lon="14.025314"><ele>100.66666666666666</ele><time>2026-05-03T11:37:14.003Z</time></trkpt><trkpt lat="42.2832198" lon="14.0255004"><ele>102.33333333333333</ele><time>2026-05-03T11:37:15.003Z</time></trkpt><trkpt lat="42.2833429" lon="14.0256952"><ele>104.0</ele><time>2026-05-03T11:37:16.004Z</time></trkpt><trkpt lat="42.2834595" lon="14.0258925"><ele>104.0</ele><time>2026-05-03T11:37:17.003Z</time></trkpt><trkpt lat="42.2835706" lon="14.0260996"><ele>104.0</ele><time>2026-05-03T11:37:18.003Z</time></trkpt><trkpt lat="42.283677" lon="14.0263025"><ele>104.0</ele><time>2026-05-03T11:37:19.003Z</time></trkpt><trkpt lat="42.2837778" lon="14.0265163"><ele>106.33333333333333</ele><time>2026-05-03T11:37:20.003Z</time></trkpt><trkpt lat="42.2838767" lon="14.0267287"><ele>108.66666666666666</ele><time>2026-05-03T11:37:21.003Z</time></trkpt><trkpt lat="42.2839722" lon="14.0269489"><ele>111.0</ele><time>2026-05-03T11:37:22.004Z</time></trkpt><trkpt lat="42.2840661" lon="14.0271639"><ele>106.0</ele><time>2026-05-03T11:37:23.004Z</time></trkpt><trkpt lat="42.2841545" lon="14.0273869"><ele>101.0</ele><time>2026-05-03T11:37:24.004Z</time></trkpt><trkpt lat="42.2842427" lon="14.0276089"><ele>96.0</ele><time>2026-05-03T11:37:25.004Z</time></trkpt><trkpt lat="42.2843296" lon="14.0278341"><ele>96.0</ele><time>2026-05-03T11:37:26.004Z</time></trkpt><trkpt lat="42.2844185" lon="14.0280623"><ele>96.0</ele><time>2026-05-03T11:37:27.004Z</time></trkpt><trkpt lat="42.2845012" lon="14.0282919"><ele>96.0</ele><time>2026-05-03T11:37:28.004Z</time></trkpt><trkpt lat="42.2845804" lon="14.0285235"><ele>95.66666666666667</ele><time>2026-05-03T11:37:29.003Z</time></trkpt><trkpt lat="42.2846644" lon="14.0287532"><ele>95.33333333333334</ele><time>2026-05-03T11:37:30.004Z</time></trkpt><trkpt lat="42.2847507" lon="14.028984"><ele>95.0</ele><time>2026-05-03T11:37:31.003Z</time></trkpt><trkpt lat="42.2848334" lon="14.0292138"><ele>91.0</ele><time>2026-05-03T11:37:32.004Z</time></trkpt><trkpt lat="42.284917" lon="14.0294447"><ele>87.0</ele><time>2026-05-03T11:37:33.004Z</time></trkpt><trkpt lat="42.2850055" lon="14.0296609"><ele>83.0</ele><time>2026-05-03T11:37:34.004Z</time></trkpt><trkpt lat="42.2850895" lon="14.0298854"><ele>85.66666666666667</ele><time>2026-05-03T11:37:35.003Z</time></trkpt><trkpt lat="42.2851752" lon="14.0301084"><ele>88.33333333333333</ele><time>2026-05-03T11:37:36.004Z</time></trkpt><trkpt lat="42.285255" lon="14.0303301"><ele>91.0</ele><time>2026-05-03T11:37:37.004Z</time></trkpt><trkpt lat="42.2853345" lon="14.0305541"><ele>91.0</ele><time>2026-05-03T11:37:38.004Z</time></trkpt><trkpt lat="42.285414" lon="14.0307735"><ele>91.0</ele><time>2026-05-03T11:37:39.003Z</time></trkpt><trkpt lat="42.285494" lon="14.0309949"><ele>91.0</ele><time>2026-05-03T11:37:40.004Z</time></trkpt><trkpt lat="42.2855788" lon="14.0312106"><ele>88.33333333333333</ele><time>2026-05-03T11:37:41.003Z</time></trkpt><trkpt lat="42.2856601" lon="14.0314209"><ele>85.66666666666667</ele><time>2026-05-03T11:37:42.003Z</time></trkpt><trkpt lat="42.2857507" lon="14.0316209"><ele>83.0</ele><time>2026-05-03T11:37:43.003Z</time></trkpt><trkpt lat="42.2858491" lon="14.0318179"><ele>83.0</ele><time>2026-05-03T11:37:44.003Z</time></trkpt><trkpt lat="42.285961" lon="14.0319967"><ele>83.0</ele><time>2026-05-03T11:37:45.003Z</time></trkpt><trkpt lat="42.2860799" lon="14.0321655"><ele>83.0</ele><time>2026-05-03T11:37:46.003Z</time></trkpt><trkpt lat="42.2862176" lon="14.0323192"><ele>83.0</ele><time>2026-05-03T11:37:47.004Z</time></trkpt><trkpt lat="42.2863547" lon="14.0324689"><ele>83.0</ele><time>2026-05-03T11:37:48.004Z</time></trkpt><trkpt lat="42.2864944" lon="14.0326202"><ele>83.0</ele><time>2026-05-03T11:37:49.003Z</time></trkpt><trkpt lat="42.2866349" lon="14.0327732"><ele>82.0</ele><time>2026-05-03T11:37:50.003Z</time></trkpt><trkpt lat="42.2867756" lon="14.0329259"><ele>81.0</ele><time>2026-05-03T11:37:51.003Z</time></trkpt><trkpt lat="42.2869158" lon="14.0330804"><ele>80.0</ele><time>2026-05-03T11:37:52.004Z</time></trkpt><trkpt lat="42.2870538" lon="14.0332383"><ele>80.33333333333334</ele><time>2026-05-03T11:37:53.003Z</time></trkpt><trkpt lat="42.287191" lon="14.0333938"><ele>80.66666666666667</ele><time>2026-05-03T11:37:54.004Z</time></trkpt><trkpt lat="42.2873333" lon="14.0335461"><ele>81.0</ele><time>2026-05-03T11:37:55.004Z</time></trkpt><trkpt lat="42.287476" lon="14.0337005"><ele>79.0</ele><time>2026-05-03T11:37:56.003Z</time></trkpt><trkpt lat="42.2876227" lon="14.0338532"><ele>77.0</ele><time>2026-05-03T11:37:57.004Z</time></trkpt><trkpt lat="42.2877686" lon="14.034006"><ele>75.0</ele><time>2026-05-03T11:37:58.003Z</time></trkpt><trkpt lat="42.2879106" lon="14.034161"><ele>75.0</ele><time>2026-05-03T11:37:59.003Z</time></trkpt><trkpt lat="42.2880494" lon="14.0343133"><ele>75.0</ele><time>2026-05-03T11:38:00.003Z</time></trkpt><trkpt lat="42.2881908" lon="14.0344674"><ele>75.0</ele><time>2026-05-03T11:38:01.004Z</time></trkpt><trkpt lat="42.2883337" lon="14.0346214"><ele>75.0</ele><time>2026-05-03T11:38:02.003Z</time></trkpt><trkpt lat="42.2884741" lon="14.0347789"><ele>75.0</ele><time>2026-05-03T11:38:03.003Z</time></trkpt><trkpt lat="42.2886146" lon="14.0349351"><ele>75.0</ele><time>2026-05-03T11:38:04.004Z</time></trkpt><trkpt lat="42.288759" lon="14.0350924"><ele>75.33333333333333</ele><time>2026-05-03T11:38:05.003Z</time></trkpt><trkpt lat="42.2889057" lon="14.0352499"><ele>75.66666666666666</ele><time>2026-05-03T11:38:06.004Z</time></trkpt><trkpt lat="42.2890532" lon="14.0354058"><ele>76.0</ele><time>2026-05-03T11:38:07.004Z</time></trkpt><trkpt lat="42.2892011" lon="14.0355596"><ele>75.33333333333333</ele><time>2026-05-03T11:38:08.004Z</time></trkpt><trkpt lat="42.2893459" lon="14.0357166"><ele>74.66666666666667</ele><time>2026-05-03T11:38:09.004Z</time></trkpt><trkpt lat="42.2894903" lon="14.0358706"><ele>74.0</ele><time>2026-05-03T11:38:10.004Z</time></trkpt><trkpt lat="42.2896354" lon="14.0360336"><ele>74.33333333333334</ele><time>2026-05-03T11:38:11.004Z</time></trkpt><trkpt lat="42.2897797" lon="14.0361897"><ele>74.66666666666667</ele><time>2026-05-03T11:38:12.003Z</time></trkpt><trkpt lat="42.2899252" lon="14.0363432"><ele>75.0</ele><time>2026-05-03T11:38:13.004Z</time></trkpt><trkpt lat="42.2900722" lon="14.0364939"><ele>80.0</ele><time>2026-05-03T11:38:14.004Z</time></trkpt><trkpt lat="42.290216" lon="14.0366494"><ele>85.0</ele><time>2026-05-03T11:38:15.003Z</time></trkpt><trkpt lat="42.2903586" lon="14.0368058"><ele>90.0</ele><time>2026-05-03T11:38:16.004Z</time></trkpt><trkpt lat="42.2905026" lon="14.0369567"><ele>85.33333333333333</ele><time>2026-05-03T11:38:17.004Z</time></trkpt><trkpt lat="42.2906461" lon="14.0371117"><ele>80.66666666666666</ele><time>2026-05-03T11:38:18.004Z</time></trkpt><trkpt lat="42.2907858" lon="14.0372618"><ele>76.0</ele><time>2026-05-03T11:38:19.003Z</time></trkpt><trkpt lat="42.2909259" lon="14.0374167"><ele>80.33333333333333</ele><time>2026-05-03T11:38:20.004Z</time></trkpt><trkpt lat="42.2910713" lon="14.0375667"><ele>84.66666666666667</ele><time>2026-05-03T11:38:21.004Z</time></trkpt><trkpt lat="42.2912185" lon="14.0377104"><ele>89.0</ele><time>2026-05-03T11:38:22.003Z</time></trkpt><trkpt lat="42.2913742" lon="14.0378466"><ele>85.33333333333334</ele><time>2026-05-03T11:38:23.004Z</time></trkpt><trkpt lat="42.2915345" lon="14.0379738"><ele>81.66666666666667</ele><time>2026-05-03T11:38:24.003Z</time></trkpt><trkpt lat="42.2916974" lon="14.0380975"><ele>78.0</ele><time>2026-05-03T11:38:25.004Z</time></trkpt><trkpt lat="42.2918573" lon="14.0382262"><ele>75.66666666666667</ele><time>2026-05-03T11:38:26.004Z</time></trkpt><trkpt lat="42.2920247" lon="14.038351"><ele>73.33333333333334</ele><time>2026-05-03T11:38:27.004Z</time></trkpt><trkpt lat="42.292191" lon="14.0384638"><ele>71.0</ele><time>2026-05-03T11:38:28.003Z</time></trkpt><trkpt lat="42.2923512" lon="14.0385771"><ele>71.0</ele><time>2026-05-03T11:38:29.003Z</time></trkpt><trkpt lat="42.2925112" lon="14.0386899"><ele>71.0</ele><time>2026-05-03T11:38:30.004Z</time></trkpt><trkpt lat="42.2926691" lon="14.0388045"><ele>71.0</ele><time>2026-05-03T11:38:31.004Z</time></trkpt><trkpt lat="42.2928276" lon="14.0389243"><ele>71.0</ele><time>2026-05-03T11:38:32.003Z</time></trkpt><trkpt lat="42.2929842" lon="14.0390432"><ele>71.0</ele><time>2026-05-03T11:38:33.004Z</time></trkpt><trkpt lat="42.2931385" lon="14.0391616"><ele>71.0</ele><time>2026-05-03T11:38:34.004Z</time></trkpt><trkpt lat="42.2932957" lon="14.0392759"><ele>71.66666666666667</ele><time>2026-05-03T11:38:35.003Z</time></trkpt><trkpt lat="42.2934497" lon="14.0393864"><ele>72.33333333333333</ele><time>2026-05-03T11:38:36.003Z</time></trkpt><trkpt lat="42.2936003" lon="14.0394935"><ele>73.0</ele><time>2026-05-03T11:38:37.004Z</time></trkpt><trkpt lat="42.2937472" lon="14.0395943"><ele>73.0</ele><time>2026-05-03T11:38:38.004Z</time></trkpt><trkpt lat="42.2938862" lon="14.0396822"><ele>73.0</ele><time>2026-05-03T11:38:39.004Z</time></trkpt><trkpt lat="42.2940143" lon="14.0397697"><ele>73.0</ele><time>2026-05-03T11:38:40.004Z</time></trkpt><trkpt lat="42.2941328" lon="14.0398477"><ele>73.0</ele><time>2026-05-03T11:38:41.004Z</time></trkpt><trkpt lat="42.2942303" lon="14.0399206"><ele>73.0</ele><time>2026-05-03T11:38:42.003Z</time></trkpt><trkpt lat="42.2943166" lon="14.0399925"><ele>73.0</ele><time>2026-05-03T11:38:43.003Z</time></trkpt><trkpt lat="42.2943847" lon="14.0400726"><ele>73.0</ele><time>2026-05-03T11:38:44.004Z</time></trkpt><trkpt lat="42.2944346" lon="14.0401565"><ele>73.0</ele><time>2026-05-03T11:38:45.003Z</time></trkpt><trkpt lat="42.2944915" lon="14.0402284"><ele>73.0</ele><time>2026-05-03T11:38:46.003Z</time></trkpt><trkpt lat="42.2945628" lon="14.0402635"><ele>73.0</ele><time>2026-05-03T11:38:47.004Z</time></trkpt><trkpt lat="42.2946535" lon="14.0402763"><ele>73.0</ele><time>2026-05-03T11:38:48.004Z</time></trkpt><trkpt lat="42.2947639" lon="14.0402818"><ele>73.0</ele><time>2026-05-03T11:38:49.005Z</time></trkpt><trkpt lat="42.2948776" lon="14.0403176"><ele>73.0</ele><time>2026-05-03T11:38:50.005Z</time></trkpt><trkpt lat="42.2949988" lon="14.0403836"><ele>73.0</ele><time>2026-05-03T11:38:51.005Z</time></trkpt><trkpt lat="42.2951166" lon="14.0404548"><ele>73.0</ele><time>2026-05-03T11:38:52.005Z</time></trkpt><trkpt lat="42.2952398" lon="14.0405344"><ele>73.0</ele><time>2026-05-03T11:38:53.004Z</time></trkpt><trkpt lat="42.2953753" lon="14.0406184"><ele>73.0</ele><time>2026-05-03T11:38:54.004Z</time></trkpt><trkpt lat="42.2955209" lon="14.0407104"><ele>73.0</ele><time>2026-05-03T11:38:55.005Z</time></trkpt><trkpt lat="42.2956629" lon="14.040798"><ele>74.0</ele><time>2026-05-03T11:38:56.004Z</time></trkpt><trkpt lat="42.2958022" lon="14.0408811"><ele>75.0</ele><time>2026-05-03T11:38:57.004Z</time></trkpt><trkpt lat="42.2959464" lon="14.0409715"><ele>76.0</ele><time>2026-05-03T11:38:58.004Z</time></trkpt><trkpt lat="42.2961012" lon="14.0410658"><ele>76.0</ele><time>2026-05-03T11:38:59.005Z</time></trkpt><trkpt lat="42.296258" lon="14.0411572"><ele>76.0</ele><time>2026-05-03T11:39:00.005Z</time></trkpt><trkpt lat="42.2964095" lon="14.0412477"><ele>76.0</ele><time>2026-05-03T11:39:01.004Z</time></trkpt><trkpt lat="42.2965601" lon="14.0413488"><ele>77.0</ele><time>2026-05-03T11:39:02.004Z</time></trkpt><trkpt lat="42.2967051" lon="14.0414658"><ele>78.0</ele><time>2026-05-03T11:39:03.005Z</time></trkpt><trkpt lat="42.2968379" lon="14.0415978"><ele>79.0</ele><time>2026-05-03T11:39:04.005Z</time></trkpt><trkpt lat="42.2969646" lon="14.0417471"><ele>79.0</ele><time>2026-05-03T11:39:05.004Z</time></trkpt><trkpt lat="42.2970834" lon="14.041914"><ele>79.0</ele><time>2026-05-03T11:39:06.004Z</time></trkpt><trkpt lat="42.2971895" lon="14.0420923"><ele>79.0</ele><time>2026-05-03T11:39:07.004Z</time></trkpt><trkpt lat="42.2972863" lon="14.0422882"><ele>81.66666666666666</ele><time>2026-05-03T11:39:08.005Z</time></trkpt><trkpt lat="42.2973701" lon="14.0424928"><ele>84.33333333333333</ele><time>2026-05-03T11:39:09.004Z</time></trkpt><trkpt lat="42.2974294" lon="14.0427145"><ele>87.0</ele><time>2026-05-03T11:39:10.004Z</time></trkpt><trkpt lat="42.2974812" lon="14.0429406"><ele>87.0</ele><time>2026-05-03T11:39:11.004Z</time></trkpt><trkpt lat="42.29753" lon="14.0431707"><ele>87.0</ele><time>2026-05-03T11:39:12.004Z</time></trkpt><trkpt lat="42.2975792" lon="14.0433999"><ele>87.0</ele><time>2026-05-03T11:39:13.005Z</time></trkpt><trkpt lat="42.2976309" lon="14.0436318"><ele>87.0</ele><time>2026-05-03T11:39:14.004Z</time></trkpt><trkpt lat="42.2976823" lon="14.0438668"><ele>87.0</ele><time>2026-05-03T11:39:15.005Z</time></trkpt><trkpt lat="42.2977301" lon="14.0440931"><ele>87.0</ele><time>2026-05-03T11:39:16.005Z</time></trkpt><trkpt lat="42.2977795" lon="14.0443156"><ele>87.0</ele><time>2026-05-03T11:39:17.005Z</time></trkpt><trkpt lat="42.2978328" lon="14.0445347"><ele>87.0</ele><time>2026-05-03T11:39:18.004Z</time></trkpt><trkpt lat="42.2979" lon="14.0447458"><ele>87.0</ele><time>2026-05-03T11:39:19.004Z</time></trkpt><trkpt lat="42.297981" lon="14.0449503"><ele>87.66666666666667</ele><time>2026-05-03T11:39:20.004Z</time></trkpt><trkpt lat="42.2980729" lon="14.0451588"><ele>88.33333333333334</ele><time>2026-05-03T11:39:21.005Z</time></trkpt><trkpt lat="42.2981697" lon="14.0453618"><ele>89.0</ele><time>2026-05-03T11:39:22.005Z</time></trkpt><trkpt lat="42.2982692" lon="14.0455619"><ele>86.0</ele><time>2026-05-03T11:39:23.004Z</time></trkpt><trkpt lat="42.2983617" lon="14.0457663"><ele>83.0</ele><time>2026-05-03T11:39:24.005Z</time></trkpt><trkpt lat="42.2984574" lon="14.0459666"><ele>80.0</ele><time>2026-05-03T11:39:25.005Z</time></trkpt><trkpt lat="42.298555" lon="14.0461628"><ele>80.0</ele><time>2026-05-03T11:39:26.004Z</time></trkpt><trkpt lat="42.2986545" lon="14.0463589"><ele>80.0</ele><time>2026-05-03T11:39:27.004Z</time></trkpt><trkpt lat="42.2987514" lon="14.0465555"><ele>80.0</ele><time>2026-05-03T11:39:28.005Z</time></trkpt><trkpt lat="42.2988461" lon="14.0467542"><ele>78.0</ele><time>2026-05-03T11:39:29.004Z</time></trkpt><trkpt lat="42.298938" lon="14.046959"><ele>76.0</ele><time>2026-05-03T11:39:30.004Z</time></trkpt><trkpt lat="42.2990345" lon="14.0471599"><ele>74.0</ele><time>2026-05-03T11:39:31.005Z</time></trkpt><trkpt lat="42.2991295" lon="14.0473576"><ele>75.33333333333334</ele><time>2026-05-03T11:39:32.005Z</time></trkpt><trkpt lat="42.2992252" lon="14.0475575"><ele>76.66666666666667</ele><time>2026-05-03T11:39:33.005Z</time></trkpt><trkpt lat="42.299319" lon="14.0477608"><ele>78.0</ele><time>2026-05-03T11:39:34.004Z</time></trkpt><trkpt lat="42.2994174" lon="14.047966"><ele>78.0</ele><time>2026-05-03T11:39:35.004Z</time></trkpt><trkpt lat="42.2995138" lon="14.048166"><ele>78.0</ele><time>2026-05-03T11:39:36.005Z</time></trkpt><trkpt lat="42.2996063" lon="14.0483634"><ele>78.0</ele><time>2026-05-03T11:39:37.004Z</time></trkpt><trkpt lat="42.2997001" lon="14.0485603"><ele>76.33333333333333</ele><time>2026-05-03T11:39:38.005Z</time></trkpt><trkpt lat="42.2997934" lon="14.0487585"><ele>74.66666666666666</ele><time>2026-05-03T11:39:39.005Z</time></trkpt><trkpt lat="42.2998921" lon="14.0489519"><ele>73.0</ele><time>2026-05-03T11:39:40.005Z</time></trkpt><trkpt lat="42.2999944" lon="14.0491421"><ele>73.0</ele><time>2026-05-03T11:39:41.004Z</time></trkpt><trkpt lat="42.3001102" lon="14.0493263"><ele>73.0</ele><time>2026-05-03T11:39:42.004Z</time></trkpt><trkpt lat="42.3002316" lon="14.0494958"><ele>73.0</ele><time>2026-05-03T11:39:43.004Z</time></trkpt><trkpt lat="42.3003638" lon="14.0496578"><ele>73.0</ele><time>2026-05-03T11:39:44.004Z</time></trkpt><trkpt lat="42.3005061" lon="14.0498087"><ele>73.0</ele><time>2026-05-03T11:39:45.005Z</time></trkpt><trkpt lat="42.3006503" lon="14.0499563"><ele>73.0</ele><time>2026-05-03T11:39:46.005Z</time></trkpt><trkpt lat="42.3007979" lon="14.050101"><ele>72.0</ele><time>2026-05-03T11:39:47.005Z</time></trkpt><trkpt lat="42.3009444" lon="14.0502447"><ele>71.0</ele><time>2026-05-03T11:39:48.005Z</time></trkpt><trkpt lat="42.3010918" lon="14.0503874"><ele>70.0</ele><time>2026-05-03T11:39:49.005Z</time></trkpt><trkpt lat="42.3012359" lon="14.0505354"><ele>70.0</ele><time>2026-05-03T11:39:50.004Z</time></trkpt><trkpt lat="42.3013816" lon="14.0506823"><ele>70.0</ele><time>2026-05-03T11:39:51.005Z</time></trkpt><trkpt lat="42.3015296" lon="14.0508238"><ele>70.0</ele><time>2026-05-03T11:39:52.005Z</time></trkpt><trkpt lat="42.3016792" lon="14.0509748"><ele>68.0</ele><time>2026-05-03T11:39:53.005Z</time></trkpt><trkpt lat="42.3018276" lon="14.051122"><ele>66.0</ele><time>2026-05-03T11:39:54.004Z</time></trkpt><trkpt lat="42.3019793" lon="14.05127"><ele>64.0</ele><time>2026-05-03T11:39:55.004Z</time></trkpt><trkpt lat="42.3021341" lon="14.0514132"><ele>63.666666666666664</ele><time>2026-05-03T11:39:56.004Z</time></trkpt><trkpt lat="42.3022887" lon="14.0515625"><ele>63.33333333333333</ele><time>2026-05-03T11:39:57.004Z</time></trkpt><trkpt lat="42.3024424" lon="14.0517179"><ele>63.0</ele><time>2026-05-03T11:39:58.005Z</time></trkpt><trkpt lat="42.3025959" lon="14.0518719"><ele>63.0</ele><time>2026-05-03T11:39:59.005Z</time></trkpt><trkpt lat="42.3027468" lon="14.0520109"><ele>63.0</ele><time>2026-05-03T11:40:00.004Z</time></trkpt><trkpt lat="42.3028886" lon="14.0521512"><ele>63.0</ele><time>2026-05-03T11:40:01.005Z</time></trkpt><trkpt lat="42.3030229" lon="14.0522898"><ele>63.0</ele><time>2026-05-03T11:40:02.004Z</time></trkpt><trkpt lat="42.3031548" lon="14.0524219"><ele>63.0</ele><time>2026-05-03T11:40:03.005Z</time></trkpt><trkpt lat="42.3032821" lon="14.0525446"><ele>63.0</ele><time>2026-05-03T11:40:04.005Z</time></trkpt><trkpt lat="42.3034053" lon="14.0526627"><ele>63.0</ele><time>2026-05-03T11:40:05.004Z</time></trkpt><trkpt lat="42.303531" lon="14.0527871"><ele>63.0</ele><time>2026-05-03T11:40:06.005Z</time></trkpt><trkpt lat="42.3036648" lon="14.0529162"><ele>63.0</ele><time>2026-05-03T11:40:07.005Z</time></trkpt><trkpt lat="42.3037991" lon="14.0530498"><ele>62.66666666666667</ele><time>2026-05-03T11:40:08.004Z</time></trkpt><trkpt lat="42.3039323" lon="14.0531819"><ele>62.333333333333336</ele><time>2026-05-03T11:40:09.005Z</time></trkpt><trkpt lat="42.3040662" lon="14.0533193"><ele>62.0</ele><time>2026-05-03T11:40:10.005Z</time></trkpt><trkpt lat="42.3042023" lon="14.0534537"><ele>61.66666666666667</ele><time>2026-05-03T11:40:11.004Z</time></trkpt><trkpt lat="42.3043362" lon="14.0535853"><ele>61.33333333333333</ele><time>2026-05-03T11:40:12.004Z</time></trkpt><trkpt lat="42.304472" lon="14.0537157"><ele>61.0</ele><time>2026-05-03T11:40:13.005Z</time></trkpt><trkpt lat="42.3046099" lon="14.0538424"><ele>61.0</ele><time>2026-05-03T11:40:14.005Z</time></trkpt><trkpt lat="42.3047538" lon="14.0539656"><ele>61.0</ele><time>2026-05-03T11:40:15.005Z</time></trkpt><trkpt lat="42.3049049" lon="14.054079"><ele>61.0</ele><time>2026-05-03T11:40:16.004Z</time></trkpt><trkpt lat="42.3050592" lon="14.054183"><ele>61.0</ele><time>2026-05-03T11:40:17.004Z</time></trkpt><trkpt lat="42.305218" lon="14.054285"><ele>61.0</ele><time>2026-05-03T11:40:18.004Z</time></trkpt><trkpt lat="42.3053773" lon="14.054385"><ele>61.0</ele><time>2026-05-03T11:40:19.005Z</time></trkpt><trkpt lat="42.3055439" lon="14.054479"><ele>61.666666666666664</ele><time>2026-05-03T11:40:20.005Z</time></trkpt><trkpt lat="42.3057106" lon="14.0545725"><ele>62.33333333333333</ele><time>2026-05-03T11:40:21.005Z</time></trkpt><trkpt lat="42.3058742" lon="14.0546691"><ele>63.0</ele><time>2026-05-03T11:40:22.004Z</time></trkpt><trkpt lat="42.3060356" lon="14.0547677"><ele>63.0</ele><time>2026-05-03T11:40:23.004Z</time></trkpt><trkpt lat="42.3061952" lon="14.0548654"><ele>63.0</ele><time>2026-05-03T11:40:24.005Z</time></trkpt><trkpt lat="42.3063566" lon="14.054958"><ele>63.0</ele><time>2026-05-03T11:40:25.004Z</time></trkpt><trkpt lat="42.3065185" lon="14.055054"><ele>62.33333333333333</ele><time>2026-05-03T11:40:26.004Z</time></trkpt><trkpt lat="42.3066833" lon="14.0551484"><ele>61.666666666666664</ele><time>2026-05-03T11:40:27.005Z</time></trkpt><trkpt lat="42.3068482" lon="14.0552411"><ele>61.0</ele><time>2026-05-03T11:40:28.005Z</time></trkpt><trkpt lat="42.3070147" lon="14.0553369"><ele>61.0</ele><time>2026-05-03T11:40:29.004Z</time></trkpt><trkpt lat="42.3071853" lon="14.0554357"><ele>61.0</ele><time>2026-05-03T11:40:30.005Z</time></trkpt><trkpt lat="42.3073519" lon="14.0555377"><ele>61.0</ele><time>2026-05-03T11:40:31.004Z</time></trkpt><trkpt lat="42.3075201" lon="14.0556382"><ele>61.33333333333333</ele><time>2026-05-03T11:40:32.005Z</time></trkpt><trkpt lat="42.307688" lon="14.0557362"><ele>61.66666666666667</ele><time>2026-05-03T11:40:33.004Z</time></trkpt><trkpt lat="42.3078605" lon="14.0558338"><ele>62.0</ele><time>2026-05-03T11:40:34.004Z</time></trkpt><trkpt lat="42.3080333" lon="14.0559289"><ele>62.333333333333336</ele><time>2026-05-03T11:40:35.005Z</time></trkpt><trkpt lat="42.3082034" lon="14.0560202"><ele>62.66666666666667</ele><time>2026-05-03T11:40:36.004Z</time></trkpt><trkpt lat="42.3083693" lon="14.0561197"><ele>63.0</ele><time>2026-05-03T11:40:37.004Z</time></trkpt><trkpt lat="42.3085346" lon="14.0562233"><ele>63.0</ele><time>2026-05-03T11:40:38.005Z</time></trkpt><trkpt lat="42.3086976" lon="14.0563362"><ele>63.0</ele><time>2026-05-03T11:40:39.004Z</time></trkpt><trkpt lat="42.308855" lon="14.0564557"><ele>63.0</ele><time>2026-05-03T11:40:40.004Z</time></trkpt><trkpt lat="42.3090048" lon="14.0565982"><ele>63.33333333333333</ele><time>2026-05-03T11:40:41.005Z</time></trkpt><trkpt lat="42.3091493" lon="14.0567605"><ele>63.666666666666664</ele><time>2026-05-03T11:40:42.005Z</time></trkpt><trkpt lat="42.3092764" lon="14.0569379"><ele>64.0</ele><time>2026-05-03T11:40:43.004Z</time></trkpt><trkpt lat="42.3093949" lon="14.0571318"><ele>64.0</ele><time>2026-05-03T11:40:44.004Z</time></trkpt><trkpt lat="42.3095021" lon="14.0573411"><ele>64.0</ele><time>2026-05-03T11:40:45.004Z</time></trkpt><trkpt lat="42.3096094" lon="14.0575379"><ele>64.0</ele><time>2026-05-03T11:40:46.004Z</time></trkpt><trkpt lat="42.309721" lon="14.0577418"><ele>64.0</ele><time>2026-05-03T11:40:47.005Z</time></trkpt><trkpt lat="42.3098332" lon="14.0579366"><ele>64.0</ele><time>2026-05-03T11:40:48.005Z</time></trkpt><trkpt lat="42.3099441" lon="14.0581389"><ele>64.0</ele><time>2026-05-03T11:40:49.004Z</time></trkpt><trkpt lat="42.310055" lon="14.0583382"><ele>65.0</ele><time>2026-05-03T11:40:50.005Z</time></trkpt><trkpt lat="42.3101623" lon="14.0585336"><ele>66.0</ele><time>2026-05-03T11:40:51.005Z</time></trkpt><trkpt lat="42.3102697" lon="14.0587271"><ele>67.0</ele><time>2026-05-03T11:40:52.004Z</time></trkpt><trkpt lat="42.3103782" lon="14.058919"><ele>67.0</ele><time>2026-05-03T11:40:53.005Z</time></trkpt><trkpt lat="42.3104844" lon="14.0591147"><ele>67.0</ele><time>2026-05-03T11:40:54.004Z</time></trkpt><trkpt lat="42.3105854" lon="14.0593086"><ele>67.0</ele><time>2026-05-03T11:40:55.004Z</time></trkpt><trkpt lat="42.3106895" lon="14.0595021"><ele>67.0</ele><time>2026-05-03T11:40:56.005Z</time></trkpt><trkpt lat="42.3107948" lon="14.0596932"><ele>67.0</ele><time>2026-05-03T11:40:57.005Z</time></trkpt><trkpt lat="42.3109039" lon="14.059887"><ele>67.0</ele><time>2026-05-03T11:40:58.005Z</time></trkpt><trkpt lat="42.3110125" lon="14.0600836"><ele>67.33333333333333</ele><time>2026-05-03T11:40:59.004Z</time></trkpt><trkpt lat="42.3111203" lon="14.0602816"><ele>67.66666666666667</ele><time>2026-05-03T11:41:00.005Z</time></trkpt><trkpt lat="42.3112293" lon="14.0604799"><ele>68.0</ele><time>2026-05-03T11:41:01.004Z</time></trkpt><trkpt lat="42.3113397" lon="14.0606769"><ele>67.33333333333334</ele><time>2026-05-03T11:41:02.005Z</time></trkpt><trkpt lat="42.3114463" lon="14.0608741"><ele>66.66666666666667</ele><time>2026-05-03T11:41:03.005Z</time></trkpt><trkpt lat="42.3115536" lon="14.0610722"><ele>66.0</ele><time>2026-05-03T11:41:04.004Z</time></trkpt><trkpt lat="42.3116631" lon="14.0612715"><ele>66.0</ele><time>2026-05-03T11:41:05.004Z</time></trkpt><trkpt lat="42.3117739" lon="14.0614699"><ele>66.0</ele><time>2026-05-03T11:41:06.005Z</time></trkpt><trkpt lat="42.3118854" lon="14.0616695"><ele>66.0</ele><time>2026-05-03T11:41:07.005Z</time></trkpt><trkpt lat="42.3119967" lon="14.0618705"><ele>65.66666666666667</ele><time>2026-05-03T11:41:08.004Z</time></trkpt><trkpt lat="42.312106" lon="14.0620651"><ele>65.33333333333334</ele><time>2026-05-03T11:41:09.005Z</time></trkpt><trkpt lat="42.3122147" lon="14.0622651"><ele>65.0</ele><time>2026-05-03T11:41:10.004Z</time></trkpt><trkpt lat="42.3123231" lon="14.0624661"><ele>65.0</ele><time>2026-05-03T11:41:11.005Z</time></trkpt><trkpt lat="42.312435" lon="14.0626652"><ele>65.0</ele><time>2026-05-03T11:41:12.005Z</time></trkpt><trkpt lat="42.3125475" lon="14.0628643"><ele>65.0</ele><time>2026-05-03T11:41:13.004Z</time></trkpt><trkpt lat="42.3126551" lon="14.0630633"><ele>65.0</ele><time>2026-05-03T11:41:14.005Z</time></trkpt><trkpt lat="42.3127639" lon="14.0632629"><ele>65.0</ele><time>2026-05-03T11:41:15.005Z</time></trkpt><trkpt lat="42.3128684" lon="14.0634601"><ele>65.0</ele><time>2026-05-03T11:41:16.005Z</time></trkpt><trkpt lat="42.3129699" lon="14.0636607"><ele>65.33333333333334</ele><time>2026-05-03T11:41:17.005Z</time></trkpt><trkpt lat="42.313069" lon="14.0638679"><ele>65.66666666666667</ele><time>2026-05-03T11:41:18.005Z</time></trkpt><trkpt lat="42.3131535" lon="14.0640841"><ele>66.0</ele><time>2026-05-03T11:41:19.005Z</time></trkpt><trkpt lat="42.3132281" lon="14.0643086"><ele>66.66666666666667</ele><time>2026-05-03T11:41:20.005Z</time></trkpt><trkpt lat="42.3132948" lon="14.0645361"><ele>67.33333333333334</ele><time>2026-05-03T11:41:21.005Z</time></trkpt><trkpt lat="42.3133569" lon="14.0647722"><ele>68.0</ele><time>2026-05-03T11:41:22.004Z</time></trkpt><trkpt lat="42.3134106" lon="14.0650142"><ele>68.33333333333334</ele><time>2026-05-03T11:41:23.004Z</time></trkpt><trkpt lat="42.3134537" lon="14.0652552"><ele>68.66666666666667</ele><time>2026-05-03T11:41:24.004Z</time></trkpt><trkpt lat="42.3134851" lon="14.0654974"><ele>69.0</ele><time>2026-05-03T11:41:25.005Z</time></trkpt><trkpt lat="42.3135142" lon="14.0657414"><ele>68.33333333333333</ele><time>2026-05-03T11:41:26.005Z</time></trkpt><trkpt lat="42.3135375" lon="14.0659839"><ele>67.66666666666666</ele><time>2026-05-03T11:41:27.004Z</time></trkpt><trkpt lat="42.3135574" lon="14.066224"><ele>67.0</ele><time>2026-05-03T11:41:28.005Z</time></trkpt><trkpt lat="42.313578" lon="14.0664547"><ele>67.0</ele><time>2026-05-03T11:41:29.004Z</time></trkpt><trkpt lat="42.3135989" lon="14.066671"><ele>67.0</ele><time>2026-05-03T11:41:30.004Z</time></trkpt><trkpt lat="42.3136194" lon="14.0668813"><ele>67.0</ele><time>2026-05-03T11:41:31.004Z</time></trkpt><trkpt lat="42.3136409" lon="14.0670931"><ele>67.0</ele><time>2026-05-03T11:41:32.004Z</time></trkpt><trkpt lat="42.3136598" lon="14.0673087"><ele>67.0</ele><time>2026-05-03T11:41:33.004Z</time></trkpt><trkpt lat="42.3136798" lon="14.0675237"><ele>67.0</ele><time>2026-05-03T11:41:34.005Z</time></trkpt><trkpt lat="42.3136963" lon="14.0677429"><ele>67.0</ele><time>2026-05-03T11:41:35.004Z</time></trkpt><trkpt lat="42.3137182" lon="14.0679627"><ele>67.0</ele><time>2026-05-03T11:41:36.004Z</time></trkpt><trkpt lat="42.3137389" lon="14.0681838"><ele>67.0</ele><time>2026-05-03T11:41:37.005Z</time></trkpt><trkpt lat="42.3137572" lon="14.0684089"><ele>66.66666666666666</ele><time>2026-05-03T11:41:38.004Z</time></trkpt><trkpt lat="42.3137785" lon="14.0686342"><ele>66.33333333333333</ele><time>2026-05-03T11:41:39.005Z</time></trkpt><trkpt lat="42.3137994" lon="14.068863"><ele>66.0</ele><time>2026-05-03T11:41:40.004Z</time></trkpt><trkpt lat="42.3138208" lon="14.0690941"><ele>66.33333333333333</ele><time>2026-05-03T11:41:41.005Z</time></trkpt><trkpt lat="42.3138444" lon="14.0693226"><ele>66.66666666666666</ele><time>2026-05-03T11:41:42.004Z</time></trkpt><trkpt lat="42.3138702" lon="14.0695485"><ele>67.0</ele><time>2026-05-03T11:41:43.004Z</time></trkpt><trkpt lat="42.3138898" lon="14.0697783"><ele>66.66666666666666</ele><time>2026-05-03T11:41:44.005Z</time></trkpt><trkpt lat="42.3139086" lon="14.0700079"><ele>66.33333333333333</ele><time>2026-05-03T11:41:45.004Z</time></trkpt><trkpt lat="42.3139276" lon="14.0702294"><ele>66.0</ele><time>2026-05-03T11:41:46.005Z</time></trkpt><trkpt lat="42.3139491" lon="14.0704312"><ele>66.0</ele><time>2026-05-03T11:41:47.004Z</time></trkpt><trkpt lat="42.3139658" lon="14.0706221"><ele>66.0</ele><time>2026-05-03T11:41:48.004Z</time></trkpt><trkpt lat="42.3139843" lon="14.0708029"><ele>66.0</ele><time>2026-05-03T11:41:49.005Z</time></trkpt><trkpt lat="42.3139993" lon="14.0709868"><ele>66.0</ele><time>2026-05-03T11:41:50.005Z</time></trkpt><trkpt lat="42.314017" lon="14.0711764"><ele>66.33333333333333</ele><time>2026-05-03T11:41:51.005Z</time></trkpt><trkpt lat="42.3140391" lon="14.0713758"><ele>66.66666666666666</ele><time>2026-05-03T11:41:52.004Z</time></trkpt><trkpt lat="42.3140581" lon="14.0715842"><ele>67.0</ele><time>2026-05-03T11:41:53.004Z</time></trkpt><trkpt lat="42.3140753" lon="14.0717942"><ele>67.33333333333333</ele><time>2026-05-03T11:41:54.005Z</time></trkpt><trkpt lat="42.3140955" lon="14.0720132"><ele>67.66666666666667</ele><time>2026-05-03T11:41:55.005Z</time></trkpt><trkpt lat="42.3141167" lon="14.0722347"><ele>68.0</ele><time>2026-05-03T11:41:56.005Z</time></trkpt><trkpt lat="42.3141381" lon="14.0724589"><ele>68.0</ele><time>2026-05-03T11:41:57.004Z</time></trkpt><trkpt lat="42.3141559" lon="14.0726776"><ele>68.0</ele><time>2026-05-03T11:41:58.005Z</time></trkpt><trkpt lat="42.3141756" lon="14.0728957"><ele>68.0</ele><time>2026-05-03T11:41:59.004Z</time></trkpt><trkpt lat="42.3141948" lon="14.073109"><ele>67.66666666666667</ele><time>2026-05-03T11:42:00.004Z</time></trkpt><trkpt lat="42.3142118" lon="14.0733205"><ele>67.33333333333333</ele><time>2026-05-03T11:42:01.005Z</time></trkpt><trkpt lat="42.3142319" lon="14.0735175"><ele>67.0</ele><time>2026-05-03T11:42:02.005Z</time></trkpt><trkpt lat="42.31425" lon="14.0737138"><ele>67.0</ele><time>2026-05-03T11:42:03.005Z</time></trkpt><trkpt lat="42.3142647" lon="14.0738953"><ele>67.0</ele><time>2026-05-03T11:42:04.005Z</time></trkpt><trkpt lat="42.3142866" lon="14.074067"><ele>67.0</ele><time>2026-05-03T11:42:05.004Z</time></trkpt><trkpt lat="42.3143114" lon="14.0742301"><ele>67.0</ele><time>2026-05-03T11:42:06.005Z</time></trkpt><trkpt lat="42.3143449" lon="14.0743785"><ele>67.16666666666666</ele><time>2026-05-03T11:42:07.005Z</time></trkpt><trkpt lat="42.3143816" lon="14.0745098"><ele>67.33333333333333</ele><time>2026-05-03T11:42:08.004Z</time></trkpt><trkpt lat="42.3144305" lon="14.0746238"><ele>67.5</ele><time>2026-05-03T11:42:09.004Z</time></trkpt><trkpt lat="42.3144775" lon="14.074718"><ele>67.66666666666667</ele><time>2026-05-03T11:42:10.005Z</time></trkpt><trkpt lat="42.3145197" lon="14.0747982"><ele>67.83333333333334</ele><time>2026-05-03T11:42:11.004Z</time></trkpt><trkpt lat="42.3145614" lon="14.0748732"><ele>68.0</ele><time>2026-05-03T11:42:12.004Z</time></trkpt><trkpt lat="42.3146046" lon="14.0750257"><ele>68.0</ele><time>2026-05-03T11:42:14.004Z</time></trkpt><trkpt lat="42.3145911" lon="14.0751682"><ele>68.0</ele><time>2026-05-03T11:42:16.005Z</time></trkpt><trkpt lat="42.3146169" lon="14.0753536"><ele>68.0</ele><time>2026-05-03T11:42:18.004Z</time></trkpt><trkpt lat="42.3146513" lon="14.0754594"><ele>68.0</ele><time>2026-05-03T11:42:19.004Z</time></trkpt><trkpt lat="42.3146943" lon="14.075556"><ele>68.0</ele><time>2026-05-03T11:42:20.005Z</time></trkpt><trkpt lat="42.3147351" lon="14.0756612"><ele>68.2</ele><time>2026-05-03T11:42:21.004Z</time></trkpt><trkpt lat="42.3147838" lon="14.0757696"><ele>68.4</ele><time>2026-05-03T11:42:22.005Z</time></trkpt><trkpt lat="42.3148354" lon="14.0758793"><ele>68.60000000000001</ele><time>2026-05-03T11:42:23.004Z</time></trkpt><trkpt lat="42.3148904" lon="14.0759919"><ele>68.8</ele><time>2026-05-03T11:42:24.005Z</time></trkpt><trkpt lat="42.3149453" lon="14.0761072"><ele>69.0</ele><time>2026-05-03T11:42:25.004Z</time></trkpt><trkpt lat="42.3150061" lon="14.0762211"><ele>69.0</ele><time>2026-05-03T11:42:26.004Z</time></trkpt><trkpt lat="42.3150649" lon="14.0763461"><ele>69.0</ele><time>2026-05-03T11:42:27.004Z</time></trkpt><trkpt lat="42.3151255" lon="14.0764741"><ele>69.0</ele><time>2026-05-03T11:42:28.004Z</time></trkpt><trkpt lat="42.3151914" lon="14.0766032"><ele>69.0</ele><time>2026-05-03T11:42:29.005Z</time></trkpt><trkpt lat="42.3152519" lon="14.0767356"><ele>69.0</ele><time>2026-05-03T11:42:30.005Z</time></trkpt><trkpt lat="42.3153162" lon="14.0768714"><ele>69.0</ele><time>2026-05-03T11:42:31.005Z</time></trkpt><trkpt lat="42.315384" lon="14.0770099"><ele>69.0</ele><time>2026-05-03T11:42:32.004Z</time></trkpt><trkpt lat="42.3154503" lon="14.0771517"><ele>69.0</ele><time>2026-05-03T11:42:33.004Z</time></trkpt><trkpt lat="42.3155121" lon="14.0772889"><ele>68.75</ele><time>2026-05-03T11:42:34.004Z</time></trkpt><trkpt lat="42.3155789" lon="14.0774322"><ele>68.5</ele><time>2026-05-03T11:42:35.005Z</time></trkpt><trkpt lat="42.3156492" lon="14.0775699"><ele>68.25</ele><time>2026-05-03T11:42:36.005Z</time></trkpt><trkpt lat="42.3157171" lon="14.077708"><ele>68.0</ele><time>2026-05-03T11:42:37.005Z</time></trkpt><trkpt lat="42.3157866" lon="14.077849"><ele>68.0</ele><time>2026-05-03T11:42:38.004Z</time></trkpt><trkpt lat="42.3158545" lon="14.0779952"><ele>68.0</ele><time>2026-05-03T11:42:39.005Z</time></trkpt><trkpt lat="42.3159193" lon="14.0781362"><ele>68.0</ele><time>2026-05-03T11:42:40.004Z</time></trkpt><trkpt lat="42.3159877" lon="14.0782767"><ele>68.0</ele><time>2026-05-03T11:42:41.004Z</time></trkpt><trkpt lat="42.3160551" lon="14.0784197"><ele>68.0</ele><time>2026-05-03T11:42:42.005Z</time></trkpt><trkpt lat="42.3161212" lon="14.0785606"><ele>68.0</ele><time>2026-05-03T11:42:43.004Z</time></trkpt><trkpt lat="42.3161896" lon="14.0787037"><ele>68.0</ele><time>2026-05-03T11:42:44.004Z</time></trkpt><trkpt lat="42.3162568" lon="14.0788427"><ele>68.0</ele><time>2026-05-03T11:42:45.005Z</time></trkpt><trkpt lat="42.3163246" lon="14.0789804"><ele>67.75</ele><time>2026-05-03T11:42:46.005Z</time></trkpt><trkpt lat="42.3163936" lon="14.0791259"><ele>67.5</ele><time>2026-05-03T11:42:47.005Z</time></trkpt><trkpt lat="42.3164648" lon="14.0792761"><ele>67.25</ele><time>2026-05-03T11:42:48.005Z</time></trkpt><trkpt lat="42.3165375" lon="14.0794258"><ele>67.0</ele><time>2026-05-03T11:42:49.005Z</time></trkpt><trkpt lat="42.316608" lon="14.0795729"><ele>67.0</ele><time>2026-05-03T11:42:50.004Z</time></trkpt><trkpt lat="42.3166748" lon="14.0797096"><ele>67.0</ele><time>2026-05-03T11:42:51.004Z</time></trkpt><trkpt lat="42.3167299" lon="14.0798263"><ele>67.0</ele><time>2026-05-03T11:42:52.004Z</time></trkpt><trkpt lat="42.3167704" lon="14.0799163"><ele>67.0</ele><time>2026-05-03T11:42:53.004Z</time></trkpt><trkpt lat="42.3168259" lon="14.0800282"><ele>67.0</ele><time>2026-05-03T11:42:55.005Z</time></trkpt><trkpt lat="42.316881" lon="14.0801498"><ele>67.0</ele><time>2026-05-03T11:42:57.005Z</time></trkpt><trkpt lat="42.316951" lon="14.0802969"><ele>67.0</ele><time>2026-05-03T11:42:59.005Z</time></trkpt><trkpt lat="42.3169961" lon="14.0803918"><ele>67.0</ele><time>2026-05-03T11:43:00.005Z</time></trkpt><trkpt lat="42.3170469" lon="14.0804864"><ele>67.0</ele><time>2026-05-03T11:43:01.004Z</time></trkpt><trkpt lat="42.3170999" lon="14.0805912"><ele>67.0</ele><time>2026-05-03T11:43:02.005Z</time></trkpt><trkpt lat="42.3171533" lon="14.0807098"><ele>66.8</ele><time>2026-05-03T11:43:03.005Z</time></trkpt><trkpt lat="42.3172097" lon="14.0808323"><ele>66.6</ele><time>2026-05-03T11:43:04.005Z</time></trkpt><trkpt lat="42.3172685" lon="14.080952"><ele>66.39999999999999</ele><time>2026-05-03T11:43:05.005Z</time></trkpt><trkpt lat="42.3173313" lon="14.0810757"><ele>66.2</ele><time>2026-05-03T11:43:06.004Z</time></trkpt><trkpt lat="42.3173907" lon="14.0812027"><ele>66.0</ele><time>2026-05-03T11:43:07.005Z</time></trkpt><trkpt lat="42.3174531" lon="14.0813323"><ele>65.8</ele><time>2026-05-03T11:43:08.004Z</time></trkpt><trkpt lat="42.3175127" lon="14.0814635"><ele>65.6</ele><time>2026-05-03T11:43:09.005Z</time></trkpt><trkpt lat="42.3175743" lon="14.0815869"><ele>65.4</ele><time>2026-05-03T11:43:10.004Z</time></trkpt><trkpt lat="42.3176372" lon="14.0817132"><ele>65.2</ele><time>2026-05-03T11:43:11.004Z</time></trkpt><trkpt lat="42.3176971" lon="14.0818417"><ele>65.0</ele><time>2026-05-03T11:43:12.005Z</time></trkpt><trkpt lat="42.3177582" lon="14.0819783"><ele>64.75</ele><time>2026-05-03T11:43:13.004Z</time></trkpt><trkpt lat="42.3178265" lon="14.082104"><ele>64.5</ele><time>2026-05-03T11:43:14.004Z</time></trkpt><trkpt lat="42.3178938" lon="14.0822395"><ele>64.25</ele><time>2026-05-03T11:43:15.005Z</time></trkpt><trkpt lat="42.3179602" lon="14.0823797"><ele>64.0</ele><time>2026-05-03T11:43:16.004Z</time></trkpt><trkpt lat="42.3180264" lon="14.0825239"><ele>64.0</ele><time>2026-05-03T11:43:17.004Z</time></trkpt><trkpt lat="42.3180926" lon="14.0826685"><ele>64.0</ele><time>2026-05-03T11:43:18.005Z</time></trkpt><trkpt lat="42.3181629" lon="14.0828159"><ele>64.0</ele><time>2026-05-03T11:43:19.005Z</time></trkpt><trkpt lat="42.3182341" lon="14.0829635"><ele>64.0</ele><time>2026-05-03T11:43:20.004Z</time></trkpt><trkpt lat="42.3183049" lon="14.0831157"><ele>63.75</ele><time>2026-05-03T11:43:21.004Z</time></trkpt><trkpt lat="42.3183806" lon="14.0832761"><ele>63.5</ele><time>2026-05-03T11:43:22.005Z</time></trkpt><trkpt lat="42.3184596" lon="14.0834398"><ele>63.25</ele><time>2026-05-03T11:43:23.004Z</time></trkpt><trkpt lat="42.318541" lon="14.0836022"><ele>63.0</ele><time>2026-05-03T11:43:24.005Z</time></trkpt><trkpt lat="42.3186249" lon="14.0837632"><ele>63.0</ele><time>2026-05-03T11:43:25.004Z</time></trkpt><trkpt lat="42.318705" lon="14.0839313"><ele>63.0</ele><time>2026-05-03T11:43:26.004Z</time></trkpt><trkpt lat="42.3187855" lon="14.0840974"><ele>63.0</ele><time>2026-05-03T11:43:27.005Z</time></trkpt><trkpt lat="42.3188658" lon="14.0842664"><ele>63.0</ele><time>2026-05-03T11:43:28.004Z</time></trkpt><trkpt lat="42.3189434" lon="14.0844355"><ele>63.0</ele><time>2026-05-03T11:43:29.005Z</time></trkpt><trkpt lat="42.3190187" lon="14.0845955"><ele>63.0</ele><time>2026-05-03T11:43:30.005Z</time></trkpt><trkpt lat="42.3190958" lon="14.0847601"><ele>63.0</ele><time>2026-05-03T11:43:31.004Z</time></trkpt><trkpt lat="42.3191752" lon="14.084927"><ele>63.0</ele><time>2026-05-03T11:43:32.004Z</time></trkpt><trkpt lat="42.3192562" lon="14.0850969"><ele>62.66666666666667</ele><time>2026-05-03T11:43:33.005Z</time></trkpt><trkpt lat="42.3193387" lon="14.0852647"><ele>62.333333333333336</ele><time>2026-05-03T11:43:34.005Z</time></trkpt><trkpt lat="42.3194196" lon="14.0854344"><ele>62.0</ele><time>2026-05-03T11:43:35.005Z</time></trkpt><trkpt lat="42.3195079" lon="14.085607"><ele>61.66666666666667</ele><time>2026-05-03T11:43:36.004Z</time></trkpt><trkpt lat="42.3195938" lon="14.0857794"><ele>61.33333333333333</ele><time>2026-05-03T11:43:37.005Z</time></trkpt><trkpt lat="42.3196788" lon="14.0859584"><ele>61.0</ele><time>2026-05-03T11:43:38.005Z</time></trkpt><trkpt lat="42.3197617" lon="14.0861324"><ele>61.0</ele><time>2026-05-03T11:43:39.004Z</time></trkpt><trkpt lat="42.3198372" lon="14.0863054"><ele>61.0</ele><time>2026-05-03T11:43:40.004Z</time></trkpt><trkpt lat="42.319922" lon="14.0864783"><ele>61.0</ele><time>2026-05-03T11:43:41.005Z</time></trkpt><trkpt lat="42.3200023" lon="14.0866526"><ele>61.0</ele><time>2026-05-03T11:43:42.004Z</time></trkpt><trkpt lat="42.3200867" lon="14.0868281"><ele>61.0</ele><time>2026-05-03T11:43:43.004Z</time></trkpt><trkpt lat="42.3201693" lon="14.0870008"><ele>61.0</ele><time>2026-05-03T11:43:44.005Z</time></trkpt><trkpt lat="42.3202549" lon="14.0871734"><ele>61.0</ele><time>2026-05-03T11:43:45.004Z</time></trkpt><trkpt lat="42.3203377" lon="14.0873492"><ele>61.0</ele><time>2026-05-03T11:43:46.004Z</time></trkpt><trkpt lat="42.3204226" lon="14.0875256"><ele>61.0</ele><time>2026-05-03T11:43:47.005Z</time></trkpt><trkpt lat="42.3205037" lon="14.0876973"><ele>60.666666666666664</ele><time>2026-05-03T11:43:48.005Z</time></trkpt><trkpt lat="42.3205871" lon="14.08787"><ele>60.33333333333333</ele><time>2026-05-03T11:43:49.005Z</time></trkpt><trkpt lat="42.3206713" lon="14.0880434"><ele>60.0</ele><time>2026-05-03T11:43:50.004Z</time></trkpt><trkpt lat="42.3207578" lon="14.0882174"><ele>60.0</ele><time>2026-05-03T11:43:51.004Z</time></trkpt><trkpt lat="42.3208415" lon="14.0883866"><ele>60.0</ele><time>2026-05-03T11:43:52.005Z</time></trkpt><trkpt lat="42.3209264" lon="14.0885665"><ele>60.0</ele><time>2026-05-03T11:43:53.005Z</time></trkpt><trkpt lat="42.3210142" lon="14.0887456"><ele>60.0</ele><time>2026-05-03T11:43:54.005Z</time></trkpt><trkpt lat="42.3210932" lon="14.0889232"><ele>60.0</ele><time>2026-05-03T11:43:55.004Z</time></trkpt><trkpt lat="42.3211817" lon="14.0891006"><ele>60.0</ele><time>2026-05-03T11:43:56.004Z</time></trkpt><trkpt lat="42.3212639" lon="14.0892731"><ele>59.66666666666667</ele><time>2026-05-03T11:43:57.005Z</time></trkpt><trkpt lat="42.3213479" lon="14.0894453"><ele>59.333333333333336</ele><time>2026-05-03T11:43:58.004Z</time></trkpt><trkpt lat="42.3214277" lon="14.0896154"><ele>59.0</ele><time>2026-05-03T11:43:59.005Z</time></trkpt><trkpt lat="42.3215109" lon="14.0897884"><ele>58.75</ele><time>2026-05-03T11:44:00.005Z</time></trkpt><trkpt lat="42.3215947" lon="14.0899605"><ele>58.5</ele><time>2026-05-03T11:44:01.005Z</time></trkpt><trkpt lat="42.3216772" lon="14.0901319"><ele>58.25</ele><time>2026-05-03T11:44:02.005Z</time></trkpt><trkpt lat="42.3217508" lon="14.0902938"><ele>58.0</ele><time>2026-05-03T11:44:03.004Z</time></trkpt><trkpt lat="42.3218187" lon="14.0904441"><ele>58.0</ele><time>2026-05-03T11:44:04.004Z</time></trkpt><trkpt lat="42.3218872" lon="14.0905821"><ele>58.0</ele><time>2026-05-03T11:44:05.004Z</time></trkpt><trkpt lat="42.3219504" lon="14.0907218"><ele>58.0</ele><time>2026-05-03T11:44:06.004Z</time></trkpt><trkpt lat="42.3220166" lon="14.0908604"><ele>58.0</ele><time>2026-05-03T11:44:07.005Z</time></trkpt><trkpt lat="42.3220827" lon="14.0910053"><ele>58.0</ele><time>2026-05-03T11:44:08.005Z</time></trkpt><trkpt lat="42.3221541" lon="14.0911508"><ele>58.0</ele><time>2026-05-03T11:44:09.005Z</time></trkpt><trkpt lat="42.3222276" lon="14.0913004"><ele>58.0</ele><time>2026-05-03T11:44:10.005Z</time></trkpt><trkpt lat="42.3222951" lon="14.0914442"><ele>58.0</ele><time>2026-05-03T11:44:11.005Z</time></trkpt><trkpt lat="42.3223633" lon="14.0915869"><ele>58.25</ele><time>2026-05-03T11:44:12.005Z</time></trkpt><trkpt lat="42.3224339" lon="14.09173"><ele>58.5</ele><time>2026-05-03T11:44:13.004Z</time></trkpt><trkpt lat="42.3224997" lon="14.0918737"><ele>58.75</ele><time>2026-05-03T11:44:14.004Z</time></trkpt><trkpt lat="42.3225627" lon="14.0920101"><ele>59.0</ele><time>2026-05-03T11:44:15.005Z</time></trkpt><trkpt lat="42.3226211" lon="14.0921391"><ele>59.0</ele><time>2026-05-03T11:44:16.004Z</time></trkpt><trkpt lat="42.3226883" lon="14.0922678"><ele>59.0</ele><time>2026-05-03T11:44:17.005Z</time></trkpt><trkpt lat="42.3227547" lon="14.0924019"><ele>59.0</ele><time>2026-05-03T11:44:18.005Z</time></trkpt><trkpt lat="42.3228227" lon="14.0925376"><ele>59.0</ele><time>2026-05-03T11:44:19.004Z</time></trkpt><trkpt lat="42.3228892" lon="14.092673"><ele>58.75</ele><time>2026-05-03T11:44:20.004Z</time></trkpt><trkpt lat="42.3229555" lon="14.0928169"><ele>58.5</ele><time>2026-05-03T11:44:21.004Z</time></trkpt><trkpt lat="42.3230228" lon="14.0929568"><ele>58.25</ele><time>2026-05-03T11:44:22.005Z</time></trkpt><trkpt lat="42.3230898" lon="14.0930993"><ele>58.0</ele><time>2026-05-03T11:44:23.005Z</time></trkpt><trkpt lat="42.3231585" lon="14.0932378"><ele>58.0</ele><time>2026-05-03T11:44:24.005Z</time></trkpt><trkpt lat="42.3232269" lon="14.0933779"><ele>58.0</ele><time>2026-05-03T11:44:25.004Z</time></trkpt><trkpt lat="42.3232935" lon="14.0935174"><ele>58.0</ele><time>2026-05-03T11:44:26.005Z</time></trkpt><trkpt lat="42.3233624" lon="14.0936563"><ele>58.0</ele><time>2026-05-03T11:44:27.005Z</time></trkpt><trkpt lat="42.3234258" lon="14.0937983"><ele>58.0</ele><time>2026-05-03T11:44:28.004Z</time></trkpt><trkpt lat="42.3234839" lon="14.0939475"><ele>58.0</ele><time>2026-05-03T11:44:29.005Z</time></trkpt><trkpt lat="42.3235369" lon="14.0941052"><ele>58.0</ele><time>2026-05-03T11:44:30.004Z</time></trkpt><trkpt lat="42.3235864" lon="14.0942661"><ele>58.0</ele><time>2026-05-03T11:44:31.004Z</time></trkpt><trkpt lat="42.3236268" lon="14.094431"><ele>58.0</ele><time>2026-05-03T11:44:32.004Z</time></trkpt><trkpt lat="42.3236563" lon="14.0946047"><ele>58.0</ele><time>2026-05-03T11:44:33.005Z</time></trkpt><trkpt lat="42.3236951" lon="14.0947783"><ele>58.0</ele><time>2026-05-03T11:44:34.005Z</time></trkpt><trkpt lat="42.3237318" lon="14.0949536"><ele>58.0</ele><time>2026-05-03T11:44:35.005Z</time></trkpt><trkpt lat="42.323769" lon="14.0951339"><ele>58.0</ele><time>2026-05-03T11:44:36.005Z</time></trkpt><trkpt lat="42.323805" lon="14.0953146"><ele>58.0</ele><time>2026-05-03T11:44:37.004Z</time></trkpt><trkpt lat="42.3238416" lon="14.0954982"><ele>58.0</ele><time>2026-05-03T11:44:38.004Z</time></trkpt><trkpt lat="42.3238745" lon="14.0956758"><ele>58.0</ele><time>2026-05-03T11:44:39.005Z</time></trkpt><trkpt lat="42.3239071" lon="14.0958497"><ele>58.0</ele><time>2026-05-03T11:44:40.005Z</time></trkpt><trkpt lat="42.3239439" lon="14.096026"><ele>58.0</ele><time>2026-05-03T11:44:41.004Z</time></trkpt><trkpt lat="42.3239865" lon="14.0962015"><ele>58.0</ele><time>2026-05-03T11:44:42.004Z</time></trkpt><trkpt lat="42.3240202" lon="14.0963807"><ele>58.0</ele><time>2026-05-03T11:44:43.004Z</time></trkpt><trkpt lat="42.3240602" lon="14.0965581"><ele>58.0</ele><time>2026-05-03T11:44:44.005Z</time></trkpt><trkpt lat="42.3240977" lon="14.0967406"><ele>58.0</ele><time>2026-05-03T11:44:45.005Z</time></trkpt><trkpt lat="42.3241329" lon="14.0969232"><ele>58.0</ele><time>2026-05-03T11:44:46.005Z</time></trkpt><trkpt lat="42.3241655" lon="14.0971054"><ele>58.0</ele><time>2026-05-03T11:44:47.004Z</time></trkpt><trkpt lat="42.3242002" lon="14.0972873"><ele>57.75</ele><time>2026-05-03T11:44:48.004Z</time></trkpt><trkpt lat="42.3242413" lon="14.097464"><ele>57.5</ele><time>2026-05-03T11:44:49.005Z</time></trkpt><trkpt lat="42.3242913" lon="14.0976466"><ele>57.25</ele><time>2026-05-03T11:44:50.004Z</time></trkpt><trkpt lat="42.3243479" lon="14.09782"><ele>57.0</ele><time>2026-05-03T11:44:51.005Z</time></trkpt><trkpt lat="42.324416" lon="14.097989"><ele>57.0</ele><time>2026-05-03T11:44:52.005Z</time></trkpt><trkpt lat="42.3244919" lon="14.0981531"><ele>57.0</ele><time>2026-05-03T11:44:53.004Z</time></trkpt><trkpt lat="42.3245786" lon="14.0983113"><ele>57.0</ele><time>2026-05-03T11:44:54.005Z</time></trkpt><trkpt lat="42.3246631" lon="14.0984569"><ele>57.0</ele><time>2026-05-03T11:44:55.005Z</time></trkpt><trkpt lat="42.3247461" lon="14.098591"><ele>56.75</ele><time>2026-05-03T11:44:56.005Z</time></trkpt><trkpt lat="42.3248294" lon="14.0987195"><ele>56.5</ele><time>2026-05-03T11:44:57.005Z</time></trkpt><trkpt lat="42.3249151" lon="14.0988496"><ele>56.25</ele><time>2026-05-03T11:44:58.005Z</time></trkpt><trkpt lat="42.324997" lon="14.098983"><ele>56.0</ele><time>2026-05-03T11:44:59.004Z</time></trkpt><trkpt lat="42.3250812" lon="14.0991149"><ele>56.0</ele><time>2026-05-03T11:45:00.004Z</time></trkpt><trkpt lat="42.3251686" lon="14.0992579"><ele>56.0</ele><time>2026-05-03T11:45:01.005Z</time></trkpt><trkpt lat="42.3252551" lon="14.099394"><ele>56.0</ele><time>2026-05-03T11:45:02.005Z</time></trkpt><trkpt lat="42.3253403" lon="14.0995326"><ele>56.0</ele><time>2026-05-03T11:45:03.005Z</time></trkpt><trkpt lat="42.3254267" lon="14.0996705"><ele>56.0</ele><time>2026-05-03T11:45:04.005Z</time></trkpt><trkpt lat="42.3255118" lon="14.0998104"><ele>56.0</ele><time>2026-05-03T11:45:05.004Z</time></trkpt><trkpt lat="42.3255956" lon="14.0999493"><ele>56.0</ele><time>2026-05-03T11:45:06.005Z</time></trkpt><trkpt lat="42.3256755" lon="14.1000814"><ele>56.0</ele><time>2026-05-03T11:45:07.004Z</time></trkpt><trkpt lat="42.325754" lon="14.1002063"><ele>55.8</ele><time>2026-05-03T11:45:08.004Z</time></trkpt><trkpt lat="42.3258268" lon="14.1003258"><ele>55.599999999999994</ele><time>2026-05-03T11:45:09.004Z</time></trkpt><trkpt lat="42.3258992" lon="14.1004388"><ele>55.4</ele><time>2026-05-03T11:45:10.005Z</time></trkpt><trkpt lat="42.3259679" lon="14.1005488"><ele>55.2</ele><time>2026-05-03T11:45:11.004Z</time></trkpt><trkpt lat="42.3260227" lon="14.1006553"><ele>55.0</ele><time>2026-05-03T11:45:12.005Z</time></trkpt><trkpt lat="42.3260657" lon="14.1007512"><ele>54.99999999999999</ele><time>2026-05-03T11:45:13.005Z</time></trkpt><trkpt lat="42.3260923" lon="14.1008472"><ele>55.0</ele><time>2026-05-03T11:45:14.004Z</time></trkpt><trkpt lat="42.3261065" lon="14.1009431"><ele>55.0</ele><time>2026-05-03T11:45:15.005Z</time></trkpt><trkpt lat="42.326121" lon="14.1010464"><ele>55.0</ele><time>2026-05-03T11:45:16.005Z</time></trkpt><trkpt lat="42.3261557" lon="14.101134"><ele>54.99999999999999</ele><time>2026-05-03T11:45:17.005Z</time></trkpt><trkpt lat="42.3262654" lon="14.1012219"><ele>55.0</ele><time>2026-05-03T11:45:19.005Z</time></trkpt><trkpt lat="42.3263421" lon="14.1012541"><ele>55.0</ele><time>2026-05-03T11:45:20.005Z</time></trkpt><trkpt lat="42.3264203" lon="14.1013106"><ele>55.0</ele><time>2026-05-03T11:45:21.004Z</time></trkpt><trkpt lat="42.326501" lon="14.1013894"><ele>55.0</ele><time>2026-05-03T11:45:22.005Z</time></trkpt><trkpt lat="42.3265639" lon="14.1014879"><ele>55.0</ele><time>2026-05-03T11:45:23.005Z</time></trkpt><trkpt lat="42.3266292" lon="14.1015985"><ele>55.0</ele><time>2026-05-03T11:45:24.005Z</time></trkpt><trkpt lat="42.3266934" lon="14.1017056"><ele>55.0</ele><time>2026-05-03T11:45:25.005Z</time></trkpt><trkpt lat="42.3267599" lon="14.1018214"><ele>55.0</ele><time>2026-05-03T11:45:26.004Z</time></trkpt><trkpt lat="42.3268372" lon="14.1019395"><ele>55.0</ele><time>2026-05-03T11:45:27.005Z</time></trkpt><trkpt lat="42.3269149" lon="14.10207"><ele>55.0</ele><time>2026-05-03T11:45:28.005Z</time></trkpt><trkpt lat="42.3269941" lon="14.1022088"><ele>55.0</ele><time>2026-05-03T11:45:29.004Z</time></trkpt><trkpt lat="42.3270701" lon="14.1023566"><ele>55.0</ele><time>2026-05-03T11:45:30.003Z</time></trkpt><trkpt lat="42.3271388" lon="14.1025168"><ele>55.0</ele><time>2026-05-03T11:45:31.003Z</time></trkpt><trkpt lat="42.3272025" lon="14.102688"><ele>55.0</ele><time>2026-05-03T11:45:32.003Z</time></trkpt><trkpt lat="42.3272613" lon="14.1028596"><ele>53.5</ele><time>2026-05-03T11:45:33.004Z</time></trkpt><trkpt lat="42.3273129" lon="14.1030347"><ele>52.0</ele><time>2026-05-03T11:45:34.003Z</time></trkpt><trkpt lat="42.3273668" lon="14.1032113"><ele>50.5</ele><time>2026-05-03T11:45:35.004Z</time></trkpt><trkpt lat="42.3274177" lon="14.1033826"><ele>49.0</ele><time>2026-05-03T11:45:36.004Z</time></trkpt><trkpt lat="42.3274711" lon="14.1035554"><ele>49.0</ele><time>2026-05-03T11:45:37.003Z</time></trkpt><trkpt lat="42.3275244" lon="14.1037211"><ele>49.0</ele><time>2026-05-03T11:45:38.004Z</time></trkpt><trkpt lat="42.3275803" lon="14.1038857"><ele>49.0</ele><time>2026-05-03T11:45:39.003Z</time></trkpt><trkpt lat="42.3276361" lon="14.1040511"><ele>49.0</ele><time>2026-05-03T11:45:40.004Z</time></trkpt><trkpt lat="42.3276898" lon="14.1042176"><ele>48.5</ele><time>2026-05-03T11:45:41.004Z</time></trkpt><trkpt lat="42.3277471" lon="14.1043817"><ele>48.0</ele><time>2026-05-03T11:45:42.003Z</time></trkpt><trkpt lat="42.3277998" lon="14.1045489"><ele>47.5</ele><time>2026-05-03T11:45:43.003Z</time></trkpt><trkpt lat="42.3278505" lon="14.104717"><ele>47.0</ele><time>2026-05-03T11:45:44.004Z</time></trkpt><trkpt lat="42.3279042" lon="14.1048843"><ele>46.75</ele><time>2026-05-03T11:45:45.004Z</time></trkpt><trkpt lat="42.3279505" lon="14.1050472"><ele>46.5</ele><time>2026-05-03T11:45:46.003Z</time></trkpt><trkpt lat="42.3279969" lon="14.1052054"><ele>46.25</ele><time>2026-05-03T11:45:47.004Z</time></trkpt><trkpt lat="42.3280428" lon="14.1053627"><ele>46.0</ele><time>2026-05-03T11:45:48.004Z</time></trkpt><trkpt lat="42.3280928" lon="14.1055309"><ele>46.0</ele><time>2026-05-03T11:45:49.003Z</time></trkpt><trkpt lat="42.3281406" lon="14.1056863"><ele>46.0</ele><time>2026-05-03T11:45:50.003Z</time></trkpt><trkpt lat="42.3281939" lon="14.1058414"><ele>46.0</ele><time>2026-05-03T11:45:51.003Z</time></trkpt><trkpt lat="42.328248" lon="14.1059893"><ele>46.0</ele><time>2026-05-03T11:45:52.003Z</time></trkpt><trkpt lat="42.3282922" lon="14.1061245"><ele>46.0</ele><time>2026-05-03T11:45:53.004Z</time></trkpt><trkpt lat="42.3283293" lon="14.106258"><ele>46.0</ele><time>2026-05-03T11:45:54.003Z</time></trkpt><trkpt lat="42.3283697" lon="14.1063904"><ele>46.0</ele><time>2026-05-03T11:45:55.004Z</time></trkpt><trkpt lat="42.3284095" lon="14.1065197"><ele>46.0</ele><time>2026-05-03T11:45:56.004Z</time></trkpt><trkpt lat="42.3284502" lon="14.1066502"><ele>46.0</ele><time>2026-05-03T11:45:57.003Z</time></trkpt><trkpt lat="42.3284921" lon="14.1067794"><ele>46.0</ele><time>2026-05-03T11:45:58.003Z</time></trkpt><trkpt lat="42.3285354" lon="14.1069134"><ele>46.0</ele><time>2026-05-03T11:45:59.004Z</time></trkpt><trkpt lat="42.3285792" lon="14.1070468"><ele>46.0</ele><time>2026-05-03T11:46:00.003Z</time></trkpt><trkpt lat="42.3286248" lon="14.1071926"><ele>46.0</ele><time>2026-05-03T11:46:01.004Z</time></trkpt><trkpt lat="42.328671" lon="14.1073317"><ele>46.0</ele><time>2026-05-03T11:46:02.004Z</time></trkpt><trkpt lat="42.3287194" lon="14.1074763"><ele>46.0</ele><time>2026-05-03T11:46:03.003Z</time></trkpt><trkpt lat="42.3287683" lon="14.1076202"><ele>46.0</ele><time>2026-05-03T11:46:04.004Z</time></trkpt><trkpt lat="42.3288133" lon="14.1077722"><ele>46.0</ele><time>2026-05-03T11:46:05.003Z</time></trkpt><trkpt lat="42.3288596" lon="14.1079305"><ele>46.0</ele><time>2026-05-03T11:46:06.004Z</time></trkpt><trkpt lat="42.328917" lon="14.1080901"><ele>44.75</ele><time>2026-05-03T11:46:07.004Z</time></trkpt><trkpt lat="42.3289657" lon="14.1082473"><ele>43.5</ele><time>2026-05-03T11:46:08.004Z</time></trkpt><trkpt lat="42.3290069" lon="14.1084033"><ele>42.25</ele><time>2026-05-03T11:46:09.004Z</time></trkpt><trkpt lat="42.3290567" lon="14.1085614"><ele>41.0</ele><time>2026-05-03T11:46:10.004Z</time></trkpt><trkpt lat="42.3291052" lon="14.1087209"><ele>41.0</ele><time>2026-05-03T11:46:11.004Z</time></trkpt><trkpt lat="42.3291553" lon="14.1088714"><ele>41.0</ele><time>2026-05-03T11:46:12.004Z</time></trkpt><trkpt lat="42.3292037" lon="14.1090251"><ele>41.0</ele><time>2026-05-03T11:46:13.004Z</time></trkpt><trkpt lat="42.3292504" lon="14.1091737"><ele>41.0</ele><time>2026-05-03T11:46:14.004Z</time></trkpt><trkpt lat="42.3292992" lon="14.10933"><ele>41.5</ele><time>2026-05-03T11:46:15.004Z</time></trkpt><trkpt lat="42.3293517" lon="14.1094853"><ele>42.0</ele><time>2026-05-03T11:46:16.004Z</time></trkpt><trkpt lat="42.3294019" lon="14.109645"><ele>42.5</ele><time>2026-05-03T11:46:17.003Z</time></trkpt><trkpt lat="42.3294503" lon="14.1098034"><ele>43.0</ele><time>2026-05-03T11:46:18.004Z</time></trkpt><trkpt lat="42.3295045" lon="14.1099583"><ele>43.25</ele><time>2026-05-03T11:46:19.003Z</time></trkpt><trkpt lat="42.3295576" lon="14.110123"><ele>43.5</ele><time>2026-05-03T11:46:20.004Z</time></trkpt><trkpt lat="42.3295982" lon="14.1102851"><ele>43.75</ele><time>2026-05-03T11:46:21.004Z</time></trkpt><trkpt lat="42.3296463" lon="14.1104459"><ele>44.0</ele><time>2026-05-03T11:46:22.004Z</time></trkpt><trkpt lat="42.329696" lon="14.110609"><ele>43.5</ele><time>2026-05-03T11:46:23.003Z</time></trkpt><trkpt lat="42.3297521" lon="14.1107671"><ele>43.0</ele><time>2026-05-03T11:46:24.004Z</time></trkpt><trkpt lat="42.3298062" lon="14.1109264"><ele>42.5</ele><time>2026-05-03T11:46:25.004Z</time></trkpt><trkpt lat="42.3298582" lon="14.1110879"><ele>42.0</ele><time>2026-05-03T11:46:26.003Z</time></trkpt><trkpt lat="42.329912" lon="14.1112521"><ele>42.0</ele><time>2026-05-03T11:46:27.004Z</time></trkpt><trkpt lat="42.3299639" lon="14.1114179"><ele>42.0</ele><time>2026-05-03T11:46:28.004Z</time></trkpt><trkpt lat="42.3300129" lon="14.1115763"><ele>42.0</ele><time>2026-05-03T11:46:29.004Z</time></trkpt><trkpt lat="42.3300584" lon="14.1117361"><ele>42.0</ele><time>2026-05-03T11:46:30.003Z</time></trkpt><trkpt lat="42.330104" lon="14.1118911"><ele>42.25</ele><time>2026-05-03T11:46:31.004Z</time></trkpt><trkpt lat="42.3301505" lon="14.1120504"><ele>42.5</ele><time>2026-05-03T11:46:32.003Z</time></trkpt><trkpt lat="42.3301975" lon="14.1122058"><ele>42.75</ele><time>2026-05-03T11:46:33.003Z</time></trkpt><trkpt lat="42.3302493" lon="14.1123587"><ele>43.0</ele><time>2026-05-03T11:46:34.004Z</time></trkpt><trkpt lat="42.3302974" lon="14.112507"><ele>43.0</ele><time>2026-05-03T11:46:35.003Z</time></trkpt><trkpt lat="42.3303456" lon="14.1126434"><ele>43.0</ele><time>2026-05-03T11:46:36.003Z</time></trkpt><trkpt lat="42.3303836" lon="14.1127806"><ele>43.0</ele><time>2026-05-03T11:46:37.003Z</time></trkpt><trkpt lat="42.3304091" lon="14.1129188"><ele>43.0</ele><time>2026-05-03T11:46:38.004Z</time></trkpt><trkpt lat="42.3304153" lon="14.1130494"><ele>43.0</ele><time>2026-05-03T11:46:39.004Z</time></trkpt><trkpt lat="42.3304304" lon="14.1131668"><ele>43.0</ele><time>2026-05-03T11:46:40.003Z</time></trkpt><trkpt lat="42.3304697" lon="14.1132604"><ele>43.0</ele><time>2026-05-03T11:46:41.004Z</time></trkpt><trkpt lat="42.3305351" lon="14.1133361"><ele>43.0</ele><time>2026-05-03T11:46:42.004Z</time></trkpt><trkpt lat="42.3305932" lon="14.1134262"><ele>43.0</ele><time>2026-05-03T11:46:43.004Z</time></trkpt><trkpt lat="42.3306326" lon="14.1135553"><ele>43.0</ele><time>2026-05-03T11:46:44.004Z</time></trkpt><trkpt lat="42.3306717" lon="14.1136958"><ele>41.75</ele><time>2026-05-03T11:46:45.004Z</time></trkpt><trkpt lat="42.3307166" lon="14.1138456"><ele>40.5</ele><time>2026-05-03T11:46:46.004Z</time></trkpt><trkpt lat="42.3307671" lon="14.1139988"><ele>39.25</ele><time>2026-05-03T11:46:47.003Z</time></trkpt><trkpt lat="42.330823" lon="14.1141597"><ele>38.0</ele><time>2026-05-03T11:46:48.003Z</time></trkpt><trkpt lat="42.3308776" lon="14.1143229"><ele>38.0</ele><time>2026-05-03T11:46:49.004Z</time></trkpt><trkpt lat="42.33093" lon="14.1144937"><ele>38.0</ele><time>2026-05-03T11:46:50.004Z</time></trkpt><trkpt lat="42.3309912" lon="14.1146604"><ele>38.0</ele><time>2026-05-03T11:46:51.004Z</time></trkpt><trkpt lat="42.3310513" lon="14.1148279"><ele>38.0</ele><time>2026-05-03T11:46:52.003Z</time></trkpt><trkpt lat="42.3311081" lon="14.1149984"><ele>38.0</ele><time>2026-05-03T11:46:53.003Z</time></trkpt><trkpt lat="42.3311659" lon="14.1151648"><ele>38.0</ele><time>2026-05-03T11:46:54.003Z</time></trkpt><trkpt lat="42.3312146" lon="14.1153326"><ele>38.0</ele><time>2026-05-03T11:46:55.003Z</time></trkpt><trkpt lat="42.3312611" lon="14.115489"><ele>38.0</ele><time>2026-05-03T11:46:56.004Z</time></trkpt><trkpt lat="42.3313017" lon="14.1156519"><ele>38.0</ele><time>2026-05-03T11:46:57.004Z</time></trkpt><trkpt lat="42.3313475" lon="14.1158206"><ele>38.0</ele><time>2026-05-03T11:46:58.003Z</time></trkpt><trkpt lat="42.3313989" lon="14.1159836"><ele>38.0</ele><time>2026-05-03T11:46:59.004Z</time></trkpt><trkpt lat="42.3314517" lon="14.1161501"><ele>38.0</ele><time>2026-05-03T11:47:00.004Z</time></trkpt><trkpt lat="42.3314987" lon="14.1163102"><ele>38.0</ele><time>2026-05-03T11:47:01.004Z</time></trkpt><trkpt lat="42.3315452" lon="14.1164688"><ele>38.0</ele><time>2026-05-03T11:47:02.004Z</time></trkpt><trkpt lat="42.3315975" lon="14.1166259"><ele>38.0</ele><time>2026-05-03T11:47:03.003Z</time></trkpt><trkpt lat="42.3316466" lon="14.1167928"><ele>38.0</ele><time>2026-05-03T11:47:04.003Z</time></trkpt><trkpt lat="42.3316955" lon="14.11696"><ele>38.0</ele><time>2026-05-03T11:47:05.003Z</time></trkpt><trkpt lat="42.3317441" lon="14.1171229"><ele>38.0</ele><time>2026-05-03T11:47:06.004Z</time></trkpt><trkpt lat="42.3317993" lon="14.117284"><ele>38.0</ele><time>2026-05-03T11:47:07.004Z</time></trkpt><trkpt lat="42.3318522" lon="14.1174471"><ele>38.0</ele><time>2026-05-03T11:47:08.003Z</time></trkpt><trkpt lat="42.331903" lon="14.1176106"><ele>38.5</ele><time>2026-05-03T11:47:09.004Z</time></trkpt><trkpt lat="42.3319538" lon="14.1177714"><ele>39.0</ele><time>2026-05-03T11:47:10.004Z</time></trkpt><trkpt lat="42.3320074" lon="14.1179346"><ele>39.5</ele><time>2026-05-03T11:47:11.004Z</time></trkpt><trkpt lat="42.3320582" lon="14.1180924"><ele>40.0</ele><time>2026-05-03T11:47:12.004Z</time></trkpt><trkpt lat="42.3321101" lon="14.1182542"><ele>40.0</ele><time>2026-05-03T11:47:13.003Z</time></trkpt><trkpt lat="42.33216" lon="14.1184199"><ele>40.0</ele><time>2026-05-03T11:47:14.004Z</time></trkpt><trkpt lat="42.3322079" lon="14.1185811"><ele>40.0</ele><time>2026-05-03T11:47:15.004Z</time></trkpt><trkpt lat="42.3322574" lon="14.1187374"><ele>40.0</ele><time>2026-05-03T11:47:16.004Z</time></trkpt><trkpt lat="42.3323054" lon="14.1188915"><ele>39.5</ele><time>2026-05-03T11:47:17.004Z</time></trkpt><trkpt lat="42.3323531" lon="14.1190392"><ele>39.0</ele><time>2026-05-03T11:47:18.004Z</time></trkpt><trkpt lat="42.3324043" lon="14.1191949"><ele>38.5</ele><time>2026-05-03T11:47:19.004Z</time></trkpt><trkpt lat="42.3324574" lon="14.1193523"><ele>38.0</ele><time>2026-05-03T11:47:20.004Z</time></trkpt><trkpt lat="42.3325053" lon="14.1195108"><ele>37.75</ele><time>2026-05-03T11:47:21.003Z</time></trkpt><trkpt lat="42.3325565" lon="14.1196751"><ele>37.5</ele><time>2026-05-03T11:47:22.004Z</time></trkpt><trkpt lat="42.3326045" lon="14.1198421"><ele>37.25</ele><time>2026-05-03T11:47:23.003Z</time></trkpt><trkpt lat="42.3326563" lon="14.1200099"><ele>37.0</ele><time>2026-05-03T11:47:24.004Z</time></trkpt><trkpt lat="42.3327079" lon="14.1201772"><ele>37.75</ele><time>2026-05-03T11:47:25.003Z</time></trkpt><trkpt lat="42.3327644" lon="14.1203476"><ele>38.5</ele><time>2026-05-03T11:47:26.003Z</time></trkpt><trkpt lat="42.3328173" lon="14.1205195"><ele>39.25</ele><time>2026-05-03T11:47:27.004Z</time></trkpt><trkpt lat="42.3328746" lon="14.1206889"><ele>40.0</ele><time>2026-05-03T11:47:28.003Z</time></trkpt><trkpt lat="42.3329331" lon="14.1208623"><ele>40.0</ele><time>2026-05-03T11:47:29.003Z</time></trkpt><trkpt lat="42.3329842" lon="14.1210364"><ele>40.0</ele><time>2026-05-03T11:47:30.003Z</time></trkpt><trkpt lat="42.3330376" lon="14.1212122"><ele>40.0</ele><time>2026-05-03T11:47:31.003Z</time></trkpt><trkpt lat="42.3330931" lon="14.121391"><ele>40.0</ele><time>2026-05-03T11:47:32.004Z</time></trkpt><trkpt lat="42.3331517" lon="14.1215705"><ele>40.5</ele><time>2026-05-03T11:47:33.003Z</time></trkpt><trkpt lat="42.3332153" lon="14.1217507"><ele>41.0</ele><time>2026-05-03T11:47:34.004Z</time></trkpt><trkpt lat="42.3332766" lon="14.1219299"><ele>41.5</ele><time>2026-05-03T11:47:35.003Z</time></trkpt><trkpt lat="42.3333334" lon="14.1221079"><ele>42.0</ele><time>2026-05-03T11:47:36.004Z</time></trkpt><trkpt lat="42.3333805" lon="14.1222812"><ele>42.5</ele><time>2026-05-03T11:47:37.004Z</time></trkpt><trkpt lat="42.3334343" lon="14.1224527"><ele>43.0</ele><time>2026-05-03T11:47:38.004Z</time></trkpt><trkpt lat="42.3334896" lon="14.1226251"><ele>43.5</ele><time>2026-05-03T11:47:39.003Z</time></trkpt><trkpt lat="42.333543" lon="14.1227907"><ele>44.0</ele><time>2026-05-03T11:47:40.003Z</time></trkpt><trkpt lat="42.3335931" lon="14.1229531"><ele>44.0</ele><time>2026-05-03T11:47:41.003Z</time></trkpt><trkpt lat="42.3336407" lon="14.1231172"><ele>44.0</ele><time>2026-05-03T11:47:42.004Z</time></trkpt><trkpt lat="42.3336898" lon="14.1232861"><ele>44.0</ele><time>2026-05-03T11:47:43.004Z</time></trkpt><trkpt lat="42.3337431" lon="14.1234454"><ele>44.0</ele><time>2026-05-03T11:47:44.003Z</time></trkpt><trkpt lat="42.3337926" lon="14.1236001"><ele>43.75</ele><time>2026-05-03T11:47:45.003Z</time></trkpt><trkpt lat="42.3338417" lon="14.1237616"><ele>43.5</ele><time>2026-05-03T11:47:46.004Z</time></trkpt><trkpt lat="42.3338956" lon="14.1239262"><ele>43.25</ele><time>2026-05-03T11:47:47.003Z</time></trkpt><trkpt lat="42.3339496" lon="14.1240991"><ele>43.0</ele><time>2026-05-03T11:47:48.003Z</time></trkpt><trkpt lat="42.3340015" lon="14.1242741"><ele>43.0</ele><time>2026-05-03T11:47:49.003Z</time></trkpt><trkpt lat="42.3340564" lon="14.1244455"><ele>43.0</ele><time>2026-05-03T11:47:50.003Z</time></trkpt><trkpt lat="42.3341136" lon="14.12462"><ele>43.0</ele><time>2026-05-03T11:47:51.003Z</time></trkpt><trkpt lat="42.3341718" lon="14.1248023"><ele>43.0</ele><time>2026-05-03T11:47:52.004Z</time></trkpt><trkpt lat="42.3342288" lon="14.1249816"><ele>43.0</ele><time>2026-05-03T11:47:53.004Z</time></trkpt><trkpt lat="42.3342875" lon="14.1251605"><ele>43.0</ele><time>2026-05-03T11:47:54.003Z</time></trkpt><trkpt lat="42.3343387" lon="14.1253372"><ele>43.0</ele><time>2026-05-03T11:47:55.003Z</time></trkpt><trkpt lat="42.3343938" lon="14.1255142"><ele>43.0</ele><time>2026-05-03T11:47:56.003Z</time></trkpt><trkpt lat="42.334453" lon="14.1256902"><ele>43.5</ele><time>2026-05-03T11:47:57.003Z</time></trkpt><trkpt lat="42.3345084" lon="14.1258681"><ele>44.0</ele><time>2026-05-03T11:47:58.004Z</time></trkpt><trkpt lat="42.3345632" lon="14.1260471"><ele>44.5</ele><time>2026-05-03T11:47:59.003Z</time></trkpt><trkpt lat="42.3346257" lon="14.1262243"><ele>45.0</ele><time>2026-05-03T11:48:00.004Z</time></trkpt><trkpt lat="42.3346868" lon="14.1264028"><ele>45.25</ele><time>2026-05-03T11:48:01.004Z</time></trkpt><trkpt lat="42.3347397" lon="14.1265786"><ele>45.5</ele><time>2026-05-03T11:48:02.004Z</time></trkpt><trkpt lat="42.334793" lon="14.1267528"><ele>45.75</ele><time>2026-05-03T11:48:03.004Z</time></trkpt><trkpt lat="42.3348472" lon="14.1269256"><ele>46.0</ele><time>2026-05-03T11:48:04.003Z</time></trkpt><trkpt lat="42.3349026" lon="14.1270991"><ele>46.0</ele><time>2026-05-03T11:48:05.003Z</time></trkpt><trkpt lat="42.334955" lon="14.1272712"><ele>46.0</ele><time>2026-05-03T11:48:06.004Z</time></trkpt><trkpt lat="42.335014" lon="14.1274505"><ele>46.0</ele><time>2026-05-03T11:48:07.004Z</time></trkpt><trkpt lat="42.3350756" lon="14.1276355"><ele>46.0</ele><time>2026-05-03T11:48:08.003Z</time></trkpt><trkpt lat="42.3351367" lon="14.1278269"><ele>46.66666666666667</ele><time>2026-05-03T11:48:09.003Z</time></trkpt><trkpt lat="42.3351923" lon="14.1280138"><ele>47.333333333333336</ele><time>2026-05-03T11:48:10.003Z</time></trkpt><trkpt lat="42.3352492" lon="14.1282113"><ele>48.0</ele><time>2026-05-03T11:48:11.003Z</time></trkpt><trkpt lat="42.3353088" lon="14.1284062"><ele>48.33333333333333</ele><time>2026-05-03T11:48:12.004Z</time></trkpt><trkpt lat="42.3353729" lon="14.1286014"><ele>48.666666666666664</ele><time>2026-05-03T11:48:13.003Z</time></trkpt><trkpt lat="42.3354333" lon="14.1287944"><ele>49.0</ele><time>2026-05-03T11:48:14.004Z</time></trkpt><trkpt lat="42.3354965" lon="14.1289899"><ele>49.33333333333333</ele><time>2026-05-03T11:48:15.003Z</time></trkpt><trkpt lat="42.3355524" lon="14.1291773"><ele>49.66666666666667</ele><time>2026-05-03T11:48:16.003Z</time></trkpt><trkpt lat="42.3356104" lon="14.1293687"><ele>50.0</ele><time>2026-05-03T11:48:17.004Z</time></trkpt><trkpt lat="42.3356733" lon="14.1295647"><ele>50.0</ele><time>2026-05-03T11:48:18.004Z</time></trkpt><trkpt lat="42.3357353" lon="14.1297687"><ele>50.0</ele><time>2026-05-03T11:48:19.004Z</time></trkpt><trkpt lat="42.3358011" lon="14.1299709"><ele>50.0</ele><time>2026-05-03T11:48:20.003Z</time></trkpt><trkpt lat="42.3358658" lon="14.1301722"><ele>50.66666666666667</ele><time>2026-05-03T11:48:21.004Z</time></trkpt><trkpt lat="42.3359294" lon="14.1303746"><ele>51.33333333333333</ele><time>2026-05-03T11:48:22.003Z</time></trkpt><trkpt lat="42.3359958" lon="14.1305737"><ele>52.0</ele><time>2026-05-03T11:48:23.004Z</time></trkpt><trkpt lat="42.3360636" lon="14.130776"><ele>52.0</ele><time>2026-05-03T11:48:24.004Z</time></trkpt><trkpt lat="42.3361299" lon="14.1309874"><ele>52.0</ele><time>2026-05-03T11:48:25.003Z</time></trkpt><trkpt lat="42.3361963" lon="14.1311908"><ele>52.0</ele><time>2026-05-03T11:48:26.003Z</time></trkpt><trkpt lat="42.3362596" lon="14.1313929"><ele>52.0</ele><time>2026-05-03T11:48:27.003Z</time></trkpt><trkpt lat="42.3363191" lon="14.1315875"><ele>52.0</ele><time>2026-05-03T11:48:28.004Z</time></trkpt><trkpt lat="42.3363817" lon="14.1317747"><ele>52.0</ele><time>2026-05-03T11:48:29.004Z</time></trkpt><trkpt lat="42.3364561" lon="14.1319561"><ele>52.0</ele><time>2026-05-03T11:48:30.003Z</time></trkpt><trkpt lat="42.3365455" lon="14.132129"><ele>52.0</ele><time>2026-05-03T11:48:31.004Z</time></trkpt><trkpt lat="42.3366483" lon="14.1322917"><ele>52.0</ele><time>2026-05-03T11:48:32.004Z</time></trkpt><trkpt lat="42.3367619" lon="14.1324414"><ele>52.666666666666664</ele><time>2026-05-03T11:48:33.004Z</time></trkpt><trkpt lat="42.3368913" lon="14.1325821"><ele>53.33333333333333</ele><time>2026-05-03T11:48:34.003Z</time></trkpt><trkpt lat="42.3370291" lon="14.1327041"><ele>54.0</ele><time>2026-05-03T11:48:35.003Z</time></trkpt><trkpt lat="42.3371822" lon="14.1328041"><ele>54.33333333333333</ele><time>2026-05-03T11:48:36.003Z</time></trkpt><trkpt lat="42.3373393" lon="14.1328747"><ele>54.666666666666664</ele><time>2026-05-03T11:48:37.003Z</time></trkpt><trkpt lat="42.3374913" lon="14.132935"><ele>55.0</ele><time>2026-05-03T11:48:38.004Z</time></trkpt><trkpt lat="42.3376388" lon="14.1329745"><ele>55.0</ele><time>2026-05-03T11:48:39.003Z</time></trkpt><trkpt lat="42.3377774" lon="14.1330208"><ele>55.0</ele><time>2026-05-03T11:48:40.003Z</time></trkpt><trkpt lat="42.3379031" lon="14.1330609"><ele>55.0</ele><time>2026-05-03T11:48:41.004Z</time></trkpt><trkpt lat="42.3380177" lon="14.1330991"><ele>55.0</ele><time>2026-05-03T11:48:42.003Z</time></trkpt><trkpt lat="42.3381202" lon="14.1331219"><ele>55.0</ele><time>2026-05-03T11:48:43.003Z</time></trkpt><trkpt lat="42.338209" lon="14.1331516"><ele>55.0</ele><time>2026-05-03T11:48:44.004Z</time></trkpt><trkpt lat="42.3383003" lon="14.1331783"><ele>55.0</ele><time>2026-05-03T11:48:45.004Z</time></trkpt><trkpt lat="42.3383911" lon="14.133208"><ele>55.0</ele><time>2026-05-03T11:48:46.003Z</time></trkpt><trkpt lat="42.3384864" lon="14.1332371"><ele>55.0</ele><time>2026-05-03T11:48:47.004Z</time></trkpt><trkpt lat="42.3385846" lon="14.1332697"><ele>55.0</ele><time>2026-05-03T11:48:48.003Z</time></trkpt><trkpt lat="42.3386846" lon="14.133301"><ele>55.0</ele><time>2026-05-03T11:48:49.004Z</time></trkpt><trkpt lat="42.3387929" lon="14.1333386"><ele>55.0</ele><time>2026-05-03T11:48:50.004Z</time></trkpt><trkpt lat="42.3389031" lon="14.1333691"><ele>55.0</ele><time>2026-05-03T11:48:51.004Z</time></trkpt><trkpt lat="42.3390104" lon="14.1333996"><ele>55.0</ele><time>2026-05-03T11:48:52.004Z</time></trkpt><trkpt lat="42.3391241" lon="14.1334299"><ele>55.25</ele><time>2026-05-03T11:48:53.003Z</time></trkpt><trkpt lat="42.3392372" lon="14.1334652"><ele>55.5</ele><time>2026-05-03T11:48:54.004Z</time></trkpt><trkpt lat="42.33935" lon="14.1335003"><ele>55.75</ele><time>2026-05-03T11:48:55.004Z</time></trkpt><trkpt lat="42.3394628" lon="14.1335372"><ele>56.0</ele><time>2026-05-03T11:48:56.004Z</time></trkpt><trkpt lat="42.3395764" lon="14.1335727"><ele>56.0</ele><time>2026-05-03T11:48:57.004Z</time></trkpt><trkpt lat="42.33969" lon="14.1336039"><ele>55.99999999999999</ele><time>2026-05-03T11:48:58.004Z</time></trkpt><trkpt lat="42.339799" lon="14.1336419"><ele>55.99999999999999</ele><time>2026-05-03T11:48:59.003Z</time></trkpt><trkpt lat="42.3399035" lon="14.133675"><ele>56.0</ele><time>2026-05-03T11:49:00.004Z</time></trkpt><trkpt lat="42.3399982" lon="14.1337111"><ele>56.0</ele><time>2026-05-03T11:49:01.004Z</time></trkpt><trkpt lat="42.34009" lon="14.1337354"><ele>55.833333333333336</ele><time>2026-05-03T11:49:02.003Z</time></trkpt><trkpt lat="42.3401772" lon="14.1337651"><ele>55.66666666666667</ele><time>2026-05-03T11:49:03.004Z</time></trkpt><trkpt lat="42.3402463" lon="14.1337891"><ele>55.5</ele><time>2026-05-03T11:49:04.003Z</time></trkpt><trkpt lat="42.3403386" lon="14.1338254"><ele>55.33333333333333</ele><time>2026-05-03T11:49:06.004Z</time></trkpt><trkpt lat="42.3403945" lon="14.1338763"><ele>55.166666666666664</ele><time>2026-05-03T11:49:08.004Z</time></trkpt><trkpt lat="42.340472" lon="14.1339664"><ele>55.0</ele><time>2026-05-03T11:49:10.004Z</time></trkpt><trkpt lat="42.3405291" lon="14.1340026"><ele>54.666666666666664</ele><time>2026-05-03T11:49:11.004Z</time></trkpt><trkpt lat="42.3406283" lon="14.1339808"><ele>54.33333333333333</ele><time>2026-05-03T11:49:13.004Z</time></trkpt><trkpt lat="42.3406773" lon="14.1338962"><ele>54.0</ele><time>2026-05-03T11:49:15.004Z</time></trkpt><trkpt lat="42.3406822" lon="14.1337852"><ele>53.66666666666667</ele><time>2026-05-03T11:49:17.003Z</time></trkpt><trkpt lat="42.3406565" lon="14.1336347"><ele>53.333333333333336</ele><time>2026-05-03T11:49:19.003Z</time></trkpt><trkpt lat="42.3406577" lon="14.1335472"><ele>53.0</ele><time>2026-05-03T11:49:20.004Z</time></trkpt><trkpt lat="42.3406781" lon="14.1334575"><ele>53.00000000000001</ele><time>2026-05-03T11:49:21.004Z</time></trkpt><trkpt lat="42.340718" lon="14.133362"><ele>53.0</ele><time>2026-05-03T11:49:22.004Z</time></trkpt><trkpt lat="42.3407709" lon="14.1332641"><ele>53.0</ele><time>2026-05-03T11:49:23.004Z</time></trkpt><trkpt lat="42.34082" lon="14.1331707"><ele>53.0</ele><time>2026-05-03T11:49:24.004Z</time></trkpt><trkpt lat="42.3408663" lon="14.1330907"><ele>53.00000000000001</ele><time>2026-05-03T11:49:25.004Z</time></trkpt><trkpt lat="42.3409082" lon="14.1330094"><ele>53.0</ele><time>2026-05-03T11:49:26.003Z</time></trkpt><trkpt lat="42.3409533" lon="14.1329308"><ele>52.66666666666667</ele><time>2026-05-03T11:49:27.003Z</time></trkpt><trkpt lat="42.341" lon="14.1328524"><ele>52.333333333333336</ele><time>2026-05-03T11:49:28.004Z</time></trkpt><trkpt lat="42.3410486" lon="14.1327735"><ele>52.0</ele><time>2026-05-03T11:49:29.003Z</time></trkpt><trkpt lat="42.3410995" lon="14.1326942"><ele>51.66666666666667</ele><time>2026-05-03T11:49:30.004Z</time></trkpt><trkpt lat="42.3411576" lon="14.1326173"><ele>51.333333333333336</ele><time>2026-05-03T11:49:31.004Z</time></trkpt><trkpt lat="42.3412163" lon="14.1325414"><ele>51.0</ele><time>2026-05-03T11:49:32.003Z</time></trkpt><trkpt lat="42.3412767" lon="14.1324707"><ele>51.0</ele><time>2026-05-03T11:49:33.004Z</time></trkpt><trkpt lat="42.341347" lon="14.1324117"><ele>51.0</ele><time>2026-05-03T11:49:34.003Z</time></trkpt><trkpt lat="42.3414209" lon="14.1323686"><ele>51.0</ele><time>2026-05-03T11:49:35.004Z</time></trkpt><trkpt lat="42.341495" lon="14.1323326"><ele>51.0</ele><time>2026-05-03T11:49:36.004Z</time></trkpt><trkpt lat="42.3415815" lon="14.1323292"><ele>51.0</ele><time>2026-05-03T11:49:37.004Z</time></trkpt><trkpt lat="42.3416782" lon="14.1323454"><ele>51.0</ele><time>2026-05-03T11:49:38.003Z</time></trkpt><trkpt lat="42.3417728" lon="14.1323777"><ele>50.4</ele><time>2026-05-03T11:49:39.004Z</time></trkpt><trkpt lat="42.34187" lon="14.1324128"><ele>49.8</ele><time>2026-05-03T11:49:40.004Z</time></trkpt><trkpt lat="42.3419775" lon="14.1324518"><ele>49.199999999999996</ele><time>2026-05-03T11:49:41.003Z</time></trkpt><trkpt lat="42.3420937" lon="14.1324886"><ele>48.599999999999994</ele><time>2026-05-03T11:49:42.004Z</time></trkpt><trkpt lat="42.3422052" lon="14.1325282"><ele>48.0</ele><time>2026-05-03T11:49:43.004Z</time></trkpt><trkpt lat="42.3423064" lon="14.1325691"><ele>48.0</ele><time>2026-05-03T11:49:44.004Z</time></trkpt><trkpt lat="42.3424106" lon="14.1326134"><ele>48.0</ele><time>2026-05-03T11:49:45.004Z</time></trkpt><trkpt lat="42.3425175" lon="14.1326632"><ele>48.0</ele><time>2026-05-03T11:49:46.003Z</time></trkpt><trkpt lat="42.3426221" lon="14.132725"><ele>48.0</ele><time>2026-05-03T11:49:47.003Z</time></trkpt><trkpt lat="42.3427228" lon="14.1327952"><ele>48.0</ele><time>2026-05-03T11:49:48.003Z</time></trkpt><trkpt lat="42.3428202" lon="14.1328695"><ele>48.0</ele><time>2026-05-03T11:49:49.004Z</time></trkpt><trkpt lat="42.3429216" lon="14.132955"><ele>48.0</ele><time>2026-05-03T11:49:50.003Z</time></trkpt><trkpt lat="42.3430333" lon="14.1330418"><ele>48.0</ele><time>2026-05-03T11:49:51.003Z</time></trkpt><trkpt lat="42.3431524" lon="14.1331309"><ele>48.25</ele><time>2026-05-03T11:49:52.004Z</time></trkpt><trkpt lat="42.3432768" lon="14.1332288"><ele>48.5</ele><time>2026-05-03T11:49:53.003Z</time></trkpt><trkpt lat="42.3433987" lon="14.1333208"><ele>48.75</ele><time>2026-05-03T11:49:54.003Z</time></trkpt><trkpt lat="42.3435244" lon="14.1334143"><ele>49.0</ele><time>2026-05-03T11:49:55.004Z</time></trkpt><trkpt lat="42.3436585" lon="14.1335132"><ele>49.0</ele><time>2026-05-03T11:49:56.004Z</time></trkpt><trkpt lat="42.3438055" lon="14.1336069"><ele>49.0</ele><time>2026-05-03T11:49:57.003Z</time></trkpt><trkpt lat="42.3439551" lon="14.1336974"><ele>49.0</ele><time>2026-05-03T11:49:58.004Z</time></trkpt><trkpt lat="42.3441169" lon="14.1337804"><ele>49.0</ele><time>2026-05-03T11:49:59.004Z</time></trkpt><trkpt lat="42.3442732" lon="14.1338476"><ele>49.0</ele><time>2026-05-03T11:50:00.003Z</time></trkpt><trkpt lat="42.3444332" lon="14.1339138"><ele>49.0</ele><time>2026-05-03T11:50:01.003Z</time></trkpt><trkpt lat="42.3446003" lon="14.1339806"><ele>48.666666666666664</ele><time>2026-05-03T11:50:02.003Z</time></trkpt><trkpt lat="42.3447715" lon="14.1340354"><ele>48.33333333333333</ele><time>2026-05-03T11:50:03.004Z</time></trkpt><trkpt lat="42.3449486" lon="14.1340825"><ele>48.0</ele><time>2026-05-03T11:50:04.003Z</time></trkpt><trkpt lat="42.3451256" lon="14.1341167"><ele>48.0</ele><time>2026-05-03T11:50:05.004Z</time></trkpt><trkpt lat="42.3453042" lon="14.1341482"><ele>48.0</ele><time>2026-05-03T11:50:06.004Z</time></trkpt><trkpt lat="42.3454858" lon="14.1341648"><ele>48.0</ele><time>2026-05-03T11:50:07.004Z</time></trkpt><trkpt lat="42.34567" lon="14.1341711"><ele>48.0</ele><time>2026-05-03T11:50:08.004Z</time></trkpt><trkpt lat="42.3458623" lon="14.1341685"><ele>48.0</ele><time>2026-05-03T11:50:09.003Z</time></trkpt><trkpt lat="42.3460511" lon="14.1341603"><ele>48.0</ele><time>2026-05-03T11:50:10.004Z</time></trkpt><trkpt lat="42.3462385" lon="14.134142"><ele>48.0</ele><time>2026-05-03T11:50:11.004Z</time></trkpt><trkpt lat="42.3464328" lon="14.1341098"><ele>48.0</ele><time>2026-05-03T11:50:12.004Z</time></trkpt><trkpt lat="42.3466266" lon="14.1340683"><ele>48.0</ele><time>2026-05-03T11:50:13.004Z</time></trkpt><trkpt lat="42.3468168" lon="14.1340171"><ele>47.0</ele><time>2026-05-03T11:50:14.004Z</time></trkpt><trkpt lat="42.347002" lon="14.1339584"><ele>46.0</ele><time>2026-05-03T11:50:15.003Z</time></trkpt><trkpt lat="42.3471832" lon="14.1338907"><ele>45.0</ele><time>2026-05-03T11:50:16.003Z</time></trkpt><trkpt lat="42.3473652" lon="14.1338288"><ele>45.0</ele><time>2026-05-03T11:50:17.004Z</time></trkpt><trkpt lat="42.3475454" lon="14.1337688"><ele>45.0</ele><time>2026-05-03T11:50:18.003Z</time></trkpt><trkpt lat="42.3477239" lon="14.1337121"><ele>45.0</ele><time>2026-05-03T11:50:19.004Z</time></trkpt><trkpt lat="42.3479071" lon="14.1336486"><ele>45.0</ele><time>2026-05-03T11:50:20.003Z</time></trkpt><trkpt lat="42.3480904" lon="14.1335867"><ele>45.0</ele><time>2026-05-03T11:50:21.004Z</time></trkpt><trkpt lat="42.348269" lon="14.1335227"><ele>45.0</ele><time>2026-05-03T11:50:22.004Z</time></trkpt><trkpt lat="42.348447" lon="14.1334624"><ele>45.0</ele><time>2026-05-03T11:50:23.004Z</time></trkpt><trkpt lat="42.3486227" lon="14.1334067"><ele>45.0</ele><time>2026-05-03T11:50:24.003Z</time></trkpt><trkpt lat="42.3487992" lon="14.133353"><ele>45.0</ele><time>2026-05-03T11:50:25.003Z</time></trkpt><trkpt lat="42.3489771" lon="14.1333027"><ele>44.666666666666664</ele><time>2026-05-03T11:50:26.004Z</time></trkpt><trkpt lat="42.3491539" lon="14.1332502"><ele>44.33333333333333</ele><time>2026-05-03T11:50:27.004Z</time></trkpt><trkpt lat="42.3493284" lon="14.1332071"><ele>44.0</ele><time>2026-05-03T11:50:28.004Z</time></trkpt><trkpt lat="42.3495027" lon="14.1331599"><ele>43.0</ele><time>2026-05-03T11:50:29.004Z</time></trkpt><trkpt lat="42.3496793" lon="14.1331175"><ele>42.0</ele><time>2026-05-03T11:50:30.003Z</time></trkpt><trkpt lat="42.3498583" lon="14.1330867"><ele>41.0</ele><time>2026-05-03T11:50:31.003Z</time></trkpt><trkpt lat="42.3500336" lon="14.1330553"><ele>39.666666666666664</ele><time>2026-05-03T11:50:32.003Z</time></trkpt><trkpt lat="42.3502121" lon="14.1330243"><ele>38.333333333333336</ele><time>2026-05-03T11:50:33.004Z</time></trkpt><trkpt lat="42.3503888" lon="14.1329919"><ele>37.0</ele><time>2026-05-03T11:50:34.004Z</time></trkpt><trkpt lat="42.3505694" lon="14.1329644"><ele>37.0</ele><time>2026-05-03T11:50:35.004Z</time></trkpt><trkpt lat="42.350754" lon="14.1329381"><ele>37.0</ele><time>2026-05-03T11:50:36.003Z</time></trkpt><trkpt lat="42.3509346" lon="14.1329112"><ele>37.0</ele><time>2026-05-03T11:50:37.003Z</time></trkpt><trkpt lat="42.3511195" lon="14.1328771"><ele>37.0</ele><time>2026-05-03T11:50:38.003Z</time></trkpt><trkpt lat="42.3513053" lon="14.1328445"><ele>37.0</ele><time>2026-05-03T11:50:39.003Z</time></trkpt><trkpt lat="42.3514922" lon="14.1328112"><ele>37.0</ele><time>2026-05-03T11:50:40.004Z</time></trkpt><trkpt lat="42.3516828" lon="14.1327781"><ele>37.66666666666667</ele><time>2026-05-03T11:50:41.004Z</time></trkpt><trkpt lat="42.3518701" lon="14.1327591"><ele>38.333333333333336</ele><time>2026-05-03T11:50:42.004Z</time></trkpt><trkpt lat="42.3520574" lon="14.1327377"><ele>39.0</ele><time>2026-05-03T11:50:43.004Z</time></trkpt><trkpt lat="42.3522478" lon="14.132712"><ele>40.0</ele><time>2026-05-03T11:50:44.004Z</time></trkpt><trkpt lat="42.3524367" lon="14.1326773"><ele>41.0</ele><time>2026-05-03T11:50:45.003Z</time></trkpt><trkpt lat="42.3526262" lon="14.1326445"><ele>42.0</ele><time>2026-05-03T11:50:46.004Z</time></trkpt><trkpt lat="42.3528116" lon="14.1326148"><ele>42.0</ele><time>2026-05-03T11:50:47.003Z</time></trkpt><trkpt lat="42.3529994" lon="14.1325849"><ele>42.0</ele><time>2026-05-03T11:50:48.004Z</time></trkpt><trkpt lat="42.3531868" lon="14.1325549"><ele>42.0</ele><time>2026-05-03T11:50:49.003Z</time></trkpt><trkpt lat="42.3533718" lon="14.1325217"><ele>42.333333333333336</ele><time>2026-05-03T11:50:50.004Z</time></trkpt><trkpt lat="42.3535606" lon="14.1324892"><ele>42.66666666666667</ele><time>2026-05-03T11:50:51.003Z</time></trkpt><trkpt lat="42.3537466" lon="14.132464"><ele>43.0</ele><time>2026-05-03T11:50:52.004Z</time></trkpt><trkpt lat="42.3539297" lon="14.1324351"><ele>43.333333333333336</ele><time>2026-05-03T11:50:53.004Z</time></trkpt><trkpt lat="42.3541139" lon="14.1324005"><ele>43.666666666666664</ele><time>2026-05-03T11:50:54.003Z</time></trkpt><trkpt lat="42.3542987" lon="14.1323724"><ele>44.0</ele><time>2026-05-03T11:50:55.004Z</time></trkpt><trkpt lat="42.3544819" lon="14.1323451"><ele>43.666666666666664</ele><time>2026-05-03T11:50:56.003Z</time></trkpt><trkpt lat="42.3546659" lon="14.1323161"><ele>43.333333333333336</ele><time>2026-05-03T11:50:57.004Z</time></trkpt><trkpt lat="42.3548519" lon="14.1322893"><ele>43.0</ele><time>2026-05-03T11:50:58.004Z</time></trkpt><trkpt lat="42.3550357" lon="14.1322623"><ele>43.0</ele><time>2026-05-03T11:50:59.004Z</time></trkpt><trkpt lat="42.355223" lon="14.1322332"><ele>43.0</ele><time>2026-05-03T11:51:00.003Z</time></trkpt><trkpt lat="42.3554064" lon="14.1321998"><ele>43.0</ele><time>2026-05-03T11:51:01.003Z</time></trkpt><trkpt lat="42.3555911" lon="14.1321683"><ele>43.0</ele><time>2026-05-03T11:51:02.004Z</time></trkpt><trkpt lat="42.355776" lon="14.1321439"><ele>43.0</ele><time>2026-05-03T11:51:03.004Z</time></trkpt><trkpt lat="42.3559614" lon="14.1321171"><ele>43.0</ele><time>2026-05-03T11:51:04.004Z</time></trkpt><trkpt lat="42.3561487" lon="14.132086"><ele>43.0</ele><time>2026-05-03T11:51:05.004Z</time></trkpt><trkpt lat="42.3563377" lon="14.1320532"><ele>43.0</ele><time>2026-05-03T11:51:06.003Z</time></trkpt><trkpt lat="42.3565233" lon="14.1320229"><ele>43.0</ele><time>2026-05-03T11:51:07.003Z</time></trkpt><trkpt lat="42.3567098" lon="14.1319939"><ele>42.66666666666667</ele><time>2026-05-03T11:51:08.003Z</time></trkpt><trkpt lat="42.3568978" lon="14.1319632"><ele>42.333333333333336</ele><time>2026-05-03T11:51:09.003Z</time></trkpt><trkpt lat="42.3570872" lon="14.1319303"><ele>42.0</ele><time>2026-05-03T11:51:10.004Z</time></trkpt><trkpt lat="42.3572761" lon="14.1318982"><ele>42.0</ele><time>2026-05-03T11:51:11.003Z</time></trkpt><trkpt lat="42.3574683" lon="14.1318725"><ele>42.0</ele><time>2026-05-03T11:51:12.003Z</time></trkpt><trkpt lat="42.3576582" lon="14.1318475"><ele>42.0</ele><time>2026-05-03T11:51:13.003Z</time></trkpt><trkpt lat="42.3578524" lon="14.1318241"><ele>41.666666666666664</ele><time>2026-05-03T11:51:14.003Z</time></trkpt><trkpt lat="42.3580491" lon="14.1318038"><ele>41.33333333333333</ele><time>2026-05-03T11:51:15.004Z</time></trkpt><trkpt lat="42.3582441" lon="14.1317823"><ele>41.0</ele><time>2026-05-03T11:51:16.004Z</time></trkpt><trkpt lat="42.3584392" lon="14.1317748"><ele>41.0</ele><time>2026-05-03T11:51:17.003Z</time></trkpt><trkpt lat="42.3586374" lon="14.1317677"><ele>41.0</ele><time>2026-05-03T11:51:18.003Z</time></trkpt><trkpt lat="42.3588274" lon="14.1317254"><ele>41.0</ele><time>2026-05-03T11:51:19.003Z</time></trkpt><trkpt lat="42.3590197" lon="14.1317146"><ele>41.0</ele><time>2026-05-03T11:51:20.004Z</time></trkpt><trkpt lat="42.3592188" lon="14.1317135"><ele>41.0</ele><time>2026-05-03T11:51:21.003Z</time></trkpt><trkpt lat="42.359418" lon="14.1317259"><ele>41.0</ele><time>2026-05-03T11:51:22.003Z</time></trkpt><trkpt lat="42.3596141" lon="14.1317427"><ele>41.0</ele><time>2026-05-03T11:51:23.004Z</time></trkpt><trkpt lat="42.3598063" lon="14.1317705"><ele>41.0</ele><time>2026-05-03T11:51:24.004Z</time></trkpt><trkpt lat="42.3599947" lon="14.1318018"><ele>41.0</ele><time>2026-05-03T11:51:25.003Z</time></trkpt><trkpt lat="42.360191" lon="14.1318415"><ele>41.0</ele><time>2026-05-03T11:51:26.003Z</time></trkpt><trkpt lat="42.3603896" lon="14.1318631"><ele>41.0</ele><time>2026-05-03T11:51:27.003Z</time></trkpt><trkpt lat="42.3605754" lon="14.1318846"><ele>41.0</ele><time>2026-05-03T11:51:28.004Z</time></trkpt><trkpt lat="42.360747" lon="14.1318986"><ele>40.666666666666664</ele><time>2026-05-03T11:51:29.004Z</time></trkpt><trkpt lat="42.3609609" lon="14.1320027"><ele>40.333333333333336</ele><time>2026-05-03T11:51:30.003Z</time></trkpt><trkpt lat="42.3611703" lon="14.1320949"><ele>40.0</ele><time>2026-05-03T11:51:31.003Z</time></trkpt><trkpt lat="42.3613689" lon="14.1321695"><ele>39.333333333333336</ele><time>2026-05-03T11:51:32.004Z</time></trkpt><trkpt lat="42.3615672" lon="14.1322297"><ele>38.666666666666664</ele><time>2026-05-03T11:51:33.003Z</time></trkpt><trkpt lat="42.3617605" lon="14.1322918"><ele>38.0</ele><time>2026-05-03T11:51:34.004Z</time></trkpt><trkpt lat="42.3619514" lon="14.1323487"><ele>38.33333333333333</ele><time>2026-05-03T11:51:35.003Z</time></trkpt><trkpt lat="42.3621447" lon="14.1324067"><ele>38.666666666666664</ele><time>2026-05-03T11:51:36.004Z</time></trkpt><trkpt lat="42.3623302" lon="14.1324671"><ele>39.0</ele><time>2026-05-03T11:51:37.004Z</time></trkpt><trkpt lat="42.3625151" lon="14.1325254"><ele>39.333333333333336</ele><time>2026-05-03T11:51:38.004Z</time></trkpt><trkpt lat="42.3626983" lon="14.132586"><ele>39.66666666666667</ele><time>2026-05-03T11:51:39.004Z</time></trkpt><trkpt lat="42.362885" lon="14.1326433"><ele>40.0</ele><time>2026-05-03T11:51:40.003Z</time></trkpt><trkpt lat="42.3630729" lon="14.1327035"><ele>40.333333333333336</ele><time>2026-05-03T11:51:41.004Z</time></trkpt><trkpt lat="42.3632582" lon="14.1327585"><ele>40.666666666666664</ele><time>2026-05-03T11:51:42.003Z</time></trkpt><trkpt lat="42.3634444" lon="14.1328158"><ele>41.0</ele><time>2026-05-03T11:51:43.003Z</time></trkpt><trkpt lat="42.3636343" lon="14.1328759"><ele>41.0</ele><time>2026-05-03T11:51:44.003Z</time></trkpt><trkpt lat="42.3638257" lon="14.1329351"><ele>41.0</ele><time>2026-05-03T11:51:45.004Z</time></trkpt><trkpt lat="42.3640155" lon="14.1329967"><ele>41.0</ele><time>2026-05-03T11:51:46.004Z</time></trkpt><trkpt lat="42.3642083" lon="14.133057"><ele>40.33333333333333</ele><time>2026-05-03T11:51:47.003Z</time></trkpt><trkpt lat="42.3643999" lon="14.1331191"><ele>39.666666666666664</ele><time>2026-05-03T11:51:48.004Z</time></trkpt><trkpt lat="42.3645895" lon="14.1331768"><ele>39.0</ele><time>2026-05-03T11:51:49.004Z</time></trkpt><trkpt lat="42.3647795" lon="14.133231"><ele>38.666666666666664</ele><time>2026-05-03T11:51:50.003Z</time></trkpt><trkpt lat="42.364974" lon="14.1332926"><ele>38.33333333333333</ele><time>2026-05-03T11:51:51.004Z</time></trkpt><trkpt lat="42.3651647" lon="14.1333542"><ele>38.0</ele><time>2026-05-03T11:51:52.003Z</time></trkpt><trkpt lat="42.3653602" lon="14.1334163"><ele>37.33333333333333</ele><time>2026-05-03T11:51:53.004Z</time></trkpt><trkpt lat="42.3655557" lon="14.133473"><ele>36.666666666666664</ele><time>2026-05-03T11:51:54.004Z</time></trkpt><trkpt lat="42.3657452" lon="14.1335352"><ele>36.0</ele><time>2026-05-03T11:51:55.003Z</time></trkpt><trkpt lat="42.3659381" lon="14.1335946"><ele>36.0</ele><time>2026-05-03T11:51:56.003Z</time></trkpt><trkpt lat="42.3661333" lon="14.1336526"><ele>36.0</ele><time>2026-05-03T11:51:57.004Z</time></trkpt><trkpt lat="42.3663238" lon="14.1337114"><ele>36.0</ele><time>2026-05-03T11:51:58.004Z</time></trkpt><trkpt lat="42.3665124" lon="14.133766"><ele>35.666666666666664</ele><time>2026-05-03T11:51:59.004Z</time></trkpt><trkpt lat="42.3667017" lon="14.1338226"><ele>35.33333333333333</ele><time>2026-05-03T11:52:00.004Z</time></trkpt><trkpt lat="42.3668885" lon="14.1338807"><ele>35.0</ele><time>2026-05-03T11:52:01.003Z</time></trkpt><trkpt lat="42.367076" lon="14.133941"><ele>34.666666666666664</ele><time>2026-05-03T11:52:02.003Z</time></trkpt><trkpt lat="42.3672655" lon="14.1340008"><ele>34.333333333333336</ele><time>2026-05-03T11:52:03.004Z</time></trkpt><trkpt lat="42.3674526" lon="14.1340586"><ele>34.0</ele><time>2026-05-03T11:52:04.003Z</time></trkpt><trkpt lat="42.3676452" lon="14.1341143"><ele>34.0</ele><time>2026-05-03T11:52:05.004Z</time></trkpt><trkpt lat="42.367835" lon="14.1341743"><ele>34.0</ele><time>2026-05-03T11:52:06.003Z</time></trkpt><trkpt lat="42.3680247" lon="14.1342311"><ele>34.0</ele><time>2026-05-03T11:52:07.003Z</time></trkpt><trkpt lat="42.3682131" lon="14.1342898"><ele>34.0</ele><time>2026-05-03T11:52:08.004Z</time></trkpt><trkpt lat="42.3684072" lon="14.1343479"><ele>34.0</ele><time>2026-05-03T11:52:09.004Z</time></trkpt><trkpt lat="42.3685997" lon="14.1344073"><ele>34.0</ele><time>2026-05-03T11:52:10.004Z</time></trkpt><trkpt lat="42.368789" lon="14.1344657"><ele>32.66666666666667</ele><time>2026-05-03T11:52:11.004Z</time></trkpt><trkpt lat="42.3689825" lon="14.1345244"><ele>31.333333333333336</ele><time>2026-05-03T11:52:12.003Z</time></trkpt><trkpt lat="42.3691695" lon="14.1345819"><ele>30.0</ele><time>2026-05-03T11:52:13.004Z</time></trkpt><trkpt lat="42.3693519" lon="14.1346352"><ele>30.0</ele><time>2026-05-03T11:52:14.004Z</time></trkpt><trkpt lat="42.3695344" lon="14.13469"><ele>30.0</ele><time>2026-05-03T11:52:15.004Z</time></trkpt><trkpt lat="42.3697177" lon="14.1347538"><ele>30.0</ele><time>2026-05-03T11:52:16.004Z</time></trkpt><trkpt lat="42.3699047" lon="14.1348154"><ele>30.333333333333336</ele><time>2026-05-03T11:52:17.004Z</time></trkpt><trkpt lat="42.3700936" lon="14.1348714"><ele>30.666666666666668</ele><time>2026-05-03T11:52:18.004Z</time></trkpt><trkpt lat="42.3702837" lon="14.1349289"><ele>31.0</ele><time>2026-05-03T11:52:19.004Z</time></trkpt><trkpt lat="42.3704734" lon="14.1349867"><ele>30.666666666666668</ele><time>2026-05-03T11:52:20.003Z</time></trkpt><trkpt lat="42.3706612" lon="14.1350482"><ele>30.333333333333336</ele><time>2026-05-03T11:52:21.003Z</time></trkpt><trkpt lat="42.3708491" lon="14.1351093"><ele>30.0</ele><time>2026-05-03T11:52:22.004Z</time></trkpt><trkpt lat="42.3710408" lon="14.1351668"><ele>30.0</ele><time>2026-05-03T11:52:23.004Z</time></trkpt><trkpt lat="42.3712317" lon="14.1352206"><ele>30.0</ele><time>2026-05-03T11:52:24.004Z</time></trkpt><trkpt lat="42.3714211" lon="14.1352791"><ele>30.0</ele><time>2026-05-03T11:52:25.003Z</time></trkpt><trkpt lat="42.3716109" lon="14.1353373"><ele>30.333333333333336</ele><time>2026-05-03T11:52:26.003Z</time></trkpt><trkpt lat="42.3717972" lon="14.1353988"><ele>30.666666666666668</ele><time>2026-05-03T11:52:27.004Z</time></trkpt><trkpt lat="42.3719869" lon="14.1354552"><ele>31.0</ele><time>2026-05-03T11:52:28.004Z</time></trkpt><trkpt lat="42.3721777" lon="14.1355123"><ele>31.0</ele><time>2026-05-03T11:52:29.004Z</time></trkpt><trkpt lat="42.372365" lon="14.1355739"><ele>31.0</ele><time>2026-05-03T11:52:30.003Z</time></trkpt><trkpt lat="42.3725534" lon="14.1356345"><ele>31.0</ele><time>2026-05-03T11:52:31.004Z</time></trkpt><trkpt lat="42.3727399" lon="14.1356986"><ele>31.666666666666668</ele><time>2026-05-03T11:52:32.004Z</time></trkpt><trkpt lat="42.3729234" lon="14.1357536"><ele>32.333333333333336</ele><time>2026-05-03T11:52:33.004Z</time></trkpt><trkpt lat="42.373111" lon="14.1358076"><ele>33.0</ele><time>2026-05-03T11:52:34.004Z</time></trkpt><trkpt lat="42.3732972" lon="14.1358627"><ele>33.333333333333336</ele><time>2026-05-03T11:52:35.003Z</time></trkpt><trkpt lat="42.3734831" lon="14.1359173"><ele>33.66666666666667</ele><time>2026-05-03T11:52:36.004Z</time></trkpt><trkpt lat="42.373668" lon="14.1359746"><ele>34.0</ele><time>2026-05-03T11:52:37.003Z</time></trkpt><trkpt lat="42.373856" lon="14.1360327"><ele>33.333333333333336</ele><time>2026-05-03T11:52:38.003Z</time></trkpt><trkpt lat="42.3740449" lon="14.1360958"><ele>32.666666666666664</ele><time>2026-05-03T11:52:39.004Z</time></trkpt><trkpt lat="42.3742346" lon="14.1361523"><ele>32.0</ele><time>2026-05-03T11:52:40.004Z</time></trkpt><trkpt lat="42.3744205" lon="14.136206"><ele>32.0</ele><time>2026-05-03T11:52:41.004Z</time></trkpt><trkpt lat="42.3746081" lon="14.1362677"><ele>32.0</ele><time>2026-05-03T11:52:42.004Z</time></trkpt><trkpt lat="42.3747955" lon="14.1363255"><ele>32.0</ele><time>2026-05-03T11:52:43.004Z</time></trkpt><trkpt lat="42.3749802" lon="14.1363835"><ele>32.0</ele><time>2026-05-03T11:52:44.003Z</time></trkpt><trkpt lat="42.3751605" lon="14.1364426"><ele>32.0</ele><time>2026-05-03T11:52:45.004Z</time></trkpt><trkpt lat="42.3753425" lon="14.1364985"><ele>32.0</ele><time>2026-05-03T11:52:46.004Z</time></trkpt><trkpt lat="42.3755278" lon="14.1365531"><ele>31.666666666666664</ele><time>2026-05-03T11:52:47.003Z</time></trkpt><trkpt lat="42.375713" lon="14.1366104"><ele>31.333333333333336</ele><time>2026-05-03T11:52:48.003Z</time></trkpt><trkpt lat="42.3758979" lon="14.1366646"><ele>31.0</ele><time>2026-05-03T11:52:49.004Z</time></trkpt><trkpt lat="42.376084" lon="14.136724"><ele>31.0</ele><time>2026-05-03T11:52:50.003Z</time></trkpt><trkpt lat="42.3762663" lon="14.1367846"><ele>31.0</ele><time>2026-05-03T11:52:51.003Z</time></trkpt><trkpt lat="42.3764535" lon="14.1368423"><ele>31.0</ele><time>2026-05-03T11:52:52.003Z</time></trkpt><trkpt lat="42.3766384" lon="14.1369"><ele>31.0</ele><time>2026-05-03T11:52:53.003Z</time></trkpt><trkpt lat="42.3768234" lon="14.1369542"><ele>31.0</ele><time>2026-05-03T11:52:54.004Z</time></trkpt><trkpt lat="42.3770096" lon="14.1370142"><ele>31.0</ele><time>2026-05-03T11:52:55.004Z</time></trkpt><trkpt lat="42.3771997" lon="14.1370728"><ele>31.0</ele><time>2026-05-03T11:52:56.004Z</time></trkpt><trkpt lat="42.3773875" lon="14.1371274"><ele>31.0</ele><time>2026-05-03T11:52:57.003Z</time></trkpt><trkpt lat="42.3775732" lon="14.1371834"><ele>31.0</ele><time>2026-05-03T11:52:58.003Z</time></trkpt><trkpt lat="42.3777608" lon="14.1372382"><ele>31.0</ele><time>2026-05-03T11:52:59.004Z</time></trkpt><trkpt lat="42.3779438" lon="14.1372992"><ele>31.0</ele><time>2026-05-03T11:53:00.004Z</time></trkpt><trkpt lat="42.3781311" lon="14.1373674"><ele>31.0</ele><time>2026-05-03T11:53:01.003Z</time></trkpt><trkpt lat="42.3783141" lon="14.1374454"><ele>31.333333333333336</ele><time>2026-05-03T11:53:02.004Z</time></trkpt><trkpt lat="42.378492" lon="14.1375428"><ele>31.666666666666664</ele><time>2026-05-03T11:53:03.004Z</time></trkpt><trkpt lat="42.3786676" lon="14.1376407"><ele>32.0</ele><time>2026-05-03T11:53:04.003Z</time></trkpt><trkpt lat="42.3788366" lon="14.1377486"><ele>32.0</ele><time>2026-05-03T11:53:05.004Z</time></trkpt><trkpt lat="42.3790089" lon="14.1378712"><ele>32.0</ele><time>2026-05-03T11:53:06.003Z</time></trkpt><trkpt lat="42.3791746" lon="14.1380052"><ele>32.0</ele><time>2026-05-03T11:53:07.004Z</time></trkpt><trkpt lat="42.3793336" lon="14.1381558"><ele>32.0</ele><time>2026-05-03T11:53:08.004Z</time></trkpt><trkpt lat="42.3794855" lon="14.1383197"><ele>32.0</ele><time>2026-05-03T11:53:09.003Z</time></trkpt><trkpt lat="42.3796321" lon="14.1384894"><ele>32.0</ele><time>2026-05-03T11:53:10.003Z</time></trkpt><trkpt lat="42.3797755" lon="14.138665"><ele>32.0</ele><time>2026-05-03T11:53:11.004Z</time></trkpt><trkpt lat="42.3799101" lon="14.1388536"><ele>32.0</ele><time>2026-05-03T11:53:12.004Z</time></trkpt><trkpt lat="42.3800396" lon="14.1390482"><ele>32.0</ele><time>2026-05-03T11:53:13.004Z</time></trkpt><trkpt lat="42.3801607" lon="14.1392489"><ele>31.666666666666664</ele><time>2026-05-03T11:53:14.003Z</time></trkpt><trkpt lat="42.3802753" lon="14.139461"><ele>31.333333333333336</ele><time>2026-05-03T11:53:15.003Z</time></trkpt><trkpt lat="42.3803801" lon="14.1396806"><ele>31.0</ele><time>2026-05-03T11:53:16.004Z</time></trkpt><trkpt lat="42.3804763" lon="14.1399102"><ele>31.0</ele><time>2026-05-03T11:53:17.003Z</time></trkpt><trkpt lat="42.3805641" lon="14.1401398"><ele>31.0</ele><time>2026-05-03T11:53:18.003Z</time></trkpt><trkpt lat="42.3806431" lon="14.1403777"><ele>31.0</ele><time>2026-05-03T11:53:19.003Z</time></trkpt><trkpt lat="42.3807136" lon="14.1406204"><ele>30.333333333333336</ele><time>2026-05-03T11:53:20.003Z</time></trkpt><trkpt lat="42.3807737" lon="14.1408667"><ele>29.666666666666664</ele><time>2026-05-03T11:53:21.004Z</time></trkpt><trkpt lat="42.3808312" lon="14.141117"><ele>29.0</ele><time>2026-05-03T11:53:22.004Z</time></trkpt><trkpt lat="42.3808731" lon="14.1413805"><ele>29.666666666666664</ele><time>2026-05-03T11:53:23.003Z</time></trkpt><trkpt lat="42.3809032" lon="14.1416441"><ele>30.333333333333336</ele><time>2026-05-03T11:53:24.004Z</time></trkpt><trkpt lat="42.3809284" lon="14.1419122"><ele>31.0</ele><time>2026-05-03T11:53:25.004Z</time></trkpt><trkpt lat="42.3809507" lon="14.1421796"><ele>31.0</ele><time>2026-05-03T11:53:26.004Z</time></trkpt><trkpt lat="42.3809662" lon="14.1424443"><ele>31.0</ele><time>2026-05-03T11:53:27.004Z</time></trkpt><trkpt lat="42.3809817" lon="14.1427081"><ele>31.0</ele><time>2026-05-03T11:53:28.004Z</time></trkpt><trkpt lat="42.380988" lon="14.1429718"><ele>30.666666666666668</ele><time>2026-05-03T11:53:29.003Z</time></trkpt><trkpt lat="42.3809967" lon="14.1432323"><ele>30.333333333333336</ele><time>2026-05-03T11:53:30.004Z</time></trkpt><trkpt lat="42.3810042" lon="14.1435013"><ele>30.0</ele><time>2026-05-03T11:53:31.004Z</time></trkpt><trkpt lat="42.3810123" lon="14.1437656"><ele>30.0</ele><time>2026-05-03T11:53:32.003Z</time></trkpt><trkpt lat="42.3810181" lon="14.1440325"><ele>30.0</ele><time>2026-05-03T11:53:33.003Z</time></trkpt><trkpt lat="42.3810233" lon="14.1442981"><ele>30.0</ele><time>2026-05-03T11:53:34.004Z</time></trkpt><trkpt lat="42.3810293" lon="14.1445608"><ele>30.0</ele><time>2026-05-03T11:53:35.004Z</time></trkpt><trkpt lat="42.3810368" lon="14.144823"><ele>30.0</ele><time>2026-05-03T11:53:36.003Z</time></trkpt><trkpt lat="42.3810428" lon="14.1450867"><ele>30.0</ele><time>2026-05-03T11:53:37.003Z</time></trkpt><trkpt lat="42.3810493" lon="14.1453472"><ele>30.0</ele><time>2026-05-03T11:53:38.003Z</time></trkpt><trkpt lat="42.3810549" lon="14.1456113"><ele>30.0</ele><time>2026-05-03T11:53:39.002Z</time></trkpt><trkpt lat="42.3810615" lon="14.1458713"><ele>30.0</ele><time>2026-05-03T11:53:40.002Z</time></trkpt><trkpt lat="42.3810702" lon="14.1461335"><ele>29.666666666666664</ele><time>2026-05-03T11:53:41.003Z</time></trkpt><trkpt lat="42.3810837" lon="14.1463955"><ele>29.333333333333332</ele><time>2026-05-03T11:53:42.003Z</time></trkpt><trkpt lat="42.3810997" lon="14.1466498"><ele>29.0</ele><time>2026-05-03T11:53:43.002Z</time></trkpt><trkpt lat="42.3811213" lon="14.1469034"><ele>29.666666666666664</ele><time>2026-05-03T11:53:44.003Z</time></trkpt><trkpt lat="42.3811464" lon="14.1471529"><ele>30.333333333333336</ele><time>2026-05-03T11:53:45.003Z</time></trkpt><trkpt lat="42.3811812" lon="14.1474068"><ele>31.0</ele><time>2026-05-03T11:53:46.002Z</time></trkpt><trkpt lat="42.3812207" lon="14.1476545"><ele>31.333333333333336</ele><time>2026-05-03T11:53:47.003Z</time></trkpt><trkpt lat="42.3812733" lon="14.1478958"><ele>31.666666666666664</ele><time>2026-05-03T11:53:48.002Z</time></trkpt><trkpt lat="42.3813269" lon="14.1481423"><ele>32.0</ele><time>2026-05-03T11:53:49.002Z</time></trkpt><trkpt lat="42.3813881" lon="14.1483811"><ele>31.666666666666664</ele><time>2026-05-03T11:53:50.002Z</time></trkpt><trkpt lat="42.381458" lon="14.1486195"><ele>31.333333333333336</ele><time>2026-05-03T11:53:51.003Z</time></trkpt><trkpt lat="42.3815369" lon="14.1488509"><ele>31.0</ele><time>2026-05-03T11:53:52.003Z</time></trkpt><trkpt lat="42.3816209" lon="14.1490762"><ele>31.0</ele><time>2026-05-03T11:53:53.003Z</time></trkpt><trkpt lat="42.3817131" lon="14.1492951"><ele>31.0</ele><time>2026-05-03T11:53:54.003Z</time></trkpt><trkpt lat="42.3818201" lon="14.1495061"><ele>31.0</ele><time>2026-05-03T11:53:55.003Z</time></trkpt><trkpt lat="42.3819309" lon="14.1497108"><ele>31.333333333333336</ele><time>2026-05-03T11:53:56.003Z</time></trkpt><trkpt lat="42.3820491" lon="14.1499088"><ele>31.666666666666664</ele><time>2026-05-03T11:53:57.002Z</time></trkpt><trkpt lat="42.3821735" lon="14.1500994"><ele>32.0</ele><time>2026-05-03T11:53:58.002Z</time></trkpt><trkpt lat="42.382304" lon="14.1502791"><ele>32.0</ele><time>2026-05-03T11:53:59.002Z</time></trkpt><trkpt lat="42.3824417" lon="14.1504538"><ele>32.0</ele><time>2026-05-03T11:54:00.003Z</time></trkpt><trkpt lat="42.3825855" lon="14.1506194"><ele>32.0</ele><time>2026-05-03T11:54:01.003Z</time></trkpt><trkpt lat="42.3827359" lon="14.1507733"><ele>32.0</ele><time>2026-05-03T11:54:02.002Z</time></trkpt><trkpt lat="42.3828905" lon="14.1509275"><ele>32.0</ele><time>2026-05-03T11:54:03.003Z</time></trkpt><trkpt lat="42.3830434" lon="14.1510789"><ele>32.0</ele><time>2026-05-03T11:54:04.003Z</time></trkpt><trkpt lat="42.3831996" lon="14.151229"><ele>32.666666666666664</ele><time>2026-05-03T11:54:05.002Z</time></trkpt><trkpt lat="42.3833594" lon="14.1513747"><ele>33.333333333333336</ele><time>2026-05-03T11:54:06.002Z</time></trkpt><trkpt lat="42.3835166" lon="14.1515185"><ele>34.0</ele><time>2026-05-03T11:54:07.003Z</time></trkpt><trkpt lat="42.3836737" lon="14.1516633"><ele>34.0</ele><time>2026-05-03T11:54:08.003Z</time></trkpt><trkpt lat="42.3838305" lon="14.1518022"><ele>34.0</ele><time>2026-05-03T11:54:09.003Z</time></trkpt><trkpt lat="42.3839905" lon="14.1519432"><ele>34.0</ele><time>2026-05-03T11:54:10.003Z</time></trkpt><trkpt lat="42.3841531" lon="14.1520704"><ele>34.0</ele><time>2026-05-03T11:54:11.003Z</time></trkpt><trkpt lat="42.3843157" lon="14.1521916"><ele>34.0</ele><time>2026-05-03T11:54:12.002Z</time></trkpt><trkpt lat="42.3844826" lon="14.1523096"><ele>34.0</ele><time>2026-05-03T11:54:13.002Z</time></trkpt><trkpt lat="42.384651" lon="14.1524227"><ele>34.0</ele><time>2026-05-03T11:54:14.002Z</time></trkpt><trkpt lat="42.3848246" lon="14.1525288"><ele>34.0</ele><time>2026-05-03T11:54:15.002Z</time></trkpt><trkpt lat="42.3849986" lon="14.1526235"><ele>34.0</ele><time>2026-05-03T11:54:16.003Z</time></trkpt><trkpt lat="42.385175" lon="14.1527179"><ele>34.0</ele><time>2026-05-03T11:54:17.003Z</time></trkpt><trkpt lat="42.3853525" lon="14.1528065"><ele>34.0</ele><time>2026-05-03T11:54:18.003Z</time></trkpt><trkpt lat="42.3855306" lon="14.1528884"><ele>34.0</ele><time>2026-05-03T11:54:19.002Z</time></trkpt><trkpt lat="42.3857105" lon="14.1529697"><ele>32.0</ele><time>2026-05-03T11:54:20.003Z</time></trkpt><trkpt lat="42.3858936" lon="14.1530435"><ele>30.0</ele><time>2026-05-03T11:54:21.003Z</time></trkpt><trkpt lat="42.3860739" lon="14.1531142"><ele>28.0</ele><time>2026-05-03T11:54:22.003Z</time></trkpt><trkpt lat="42.3862565" lon="14.1531776"><ele>29.333333333333336</ele><time>2026-05-03T11:54:23.002Z</time></trkpt><trkpt lat="42.3864376" lon="14.1532382"><ele>30.666666666666664</ele><time>2026-05-03T11:54:24.002Z</time></trkpt><trkpt lat="42.3866155" lon="14.1533"><ele>32.0</ele><time>2026-05-03T11:54:25.002Z</time></trkpt><trkpt lat="42.3867938" lon="14.1533583"><ele>32.0</ele><time>2026-05-03T11:54:26.002Z</time></trkpt><trkpt lat="42.386972" lon="14.1534239"><ele>32.0</ele><time>2026-05-03T11:54:27.003Z</time></trkpt><trkpt lat="42.3871471" lon="14.1534827"><ele>32.0</ele><time>2026-05-03T11:54:28.003Z</time></trkpt><trkpt lat="42.3873242" lon="14.1535435"><ele>31.0</ele><time>2026-05-03T11:54:29.003Z</time></trkpt><trkpt lat="42.3875052" lon="14.1536011"><ele>30.0</ele><time>2026-05-03T11:54:30.003Z</time></trkpt><trkpt lat="42.3876858" lon="14.153659"><ele>29.0</ele><time>2026-05-03T11:54:31.002Z</time></trkpt><trkpt lat="42.3878681" lon="14.1537203"><ele>28.333333333333332</ele><time>2026-05-03T11:54:32.002Z</time></trkpt><trkpt lat="42.3880479" lon="14.1537819"><ele>27.666666666666664</ele><time>2026-05-03T11:54:33.003Z</time></trkpt><trkpt lat="42.3882269" lon="14.1538482"><ele>27.0</ele><time>2026-05-03T11:54:34.002Z</time></trkpt><trkpt lat="42.3884086" lon="14.1539135"><ele>27.0</ele><time>2026-05-03T11:54:35.003Z</time></trkpt><trkpt lat="42.3885897" lon="14.153979"><ele>27.0</ele><time>2026-05-03T11:54:36.002Z</time></trkpt><trkpt lat="42.3887717" lon="14.1540509"><ele>27.0</ele><time>2026-05-03T11:54:37.002Z</time></trkpt><trkpt lat="42.3889515" lon="14.1541339"><ele>27.666666666666664</ele><time>2026-05-03T11:54:38.002Z</time></trkpt><trkpt lat="42.3891292" lon="14.1542275"><ele>28.333333333333332</ele><time>2026-05-03T11:54:39.002Z</time></trkpt><trkpt lat="42.3893032" lon="14.1543338"><ele>29.0</ele><time>2026-05-03T11:54:40.003Z</time></trkpt><trkpt lat="42.3894754" lon="14.154448"><ele>29.0</ele><time>2026-05-03T11:54:41.003Z</time></trkpt><trkpt lat="42.3896461" lon="14.154566"><ele>29.0</ele><time>2026-05-03T11:54:42.002Z</time></trkpt><trkpt lat="42.3898154" lon="14.154691"><ele>29.0</ele><time>2026-05-03T11:54:43.003Z</time></trkpt><trkpt lat="42.3899787" lon="14.1548235"><ele>28.666666666666664</ele><time>2026-05-03T11:54:44.002Z</time></trkpt><trkpt lat="42.3901388" lon="14.1549676"><ele>28.333333333333336</ele><time>2026-05-03T11:54:45.003Z</time></trkpt><trkpt lat="42.3902965" lon="14.155123"><ele>28.0</ele><time>2026-05-03T11:54:46.002Z</time></trkpt><trkpt lat="42.3904497" lon="14.1552774"><ele>26.666666666666668</ele><time>2026-05-03T11:54:47.003Z</time></trkpt><trkpt lat="42.3906008" lon="14.1554313"><ele>25.333333333333336</ele><time>2026-05-03T11:54:48.003Z</time></trkpt><trkpt lat="42.3907511" lon="14.1555955"><ele>24.0</ele><time>2026-05-03T11:54:49.003Z</time></trkpt><trkpt lat="42.3908996" lon="14.1557592"><ele>24.0</ele><time>2026-05-03T11:54:50.002Z</time></trkpt><trkpt lat="42.3910502" lon="14.1559144"><ele>24.0</ele><time>2026-05-03T11:54:51.002Z</time></trkpt><trkpt lat="42.3912015" lon="14.1560741"><ele>24.0</ele><time>2026-05-03T11:54:52.002Z</time></trkpt><trkpt lat="42.3913545" lon="14.1562345"><ele>22.333333333333332</ele><time>2026-05-03T11:54:53.003Z</time></trkpt><trkpt lat="42.3915026" lon="14.1564009"><ele>20.666666666666664</ele><time>2026-05-03T11:54:54.002Z</time></trkpt><trkpt lat="42.3916511" lon="14.1565626"><ele>19.0</ele><time>2026-05-03T11:54:55.003Z</time></trkpt><trkpt lat="42.3918035" lon="14.1567281"><ele>19.0</ele><time>2026-05-03T11:54:56.002Z</time></trkpt><trkpt lat="42.3919557" lon="14.1568922"><ele>19.0</ele><time>2026-05-03T11:54:57.002Z</time></trkpt><trkpt lat="42.3921072" lon="14.1570534"><ele>19.0</ele><time>2026-05-03T11:54:58.002Z</time></trkpt><trkpt lat="42.3922553" lon="14.1572177"><ele>18.666666666666664</ele><time>2026-05-03T11:54:59.003Z</time></trkpt><trkpt lat="42.3924032" lon="14.1573831"><ele>18.333333333333332</ele><time>2026-05-03T11:55:00.003Z</time></trkpt><trkpt lat="42.3925527" lon="14.1575416"><ele>18.0</ele><time>2026-05-03T11:55:01.003Z</time></trkpt><trkpt lat="42.3927053" lon="14.1576954"><ele>18.0</ele><time>2026-05-03T11:55:02.003Z</time></trkpt><trkpt lat="42.3928555" lon="14.1578564"><ele>18.0</ele><time>2026-05-03T11:55:03.003Z</time></trkpt><trkpt lat="42.3930046" lon="14.1580146"><ele>18.0</ele><time>2026-05-03T11:55:04.003Z</time></trkpt><trkpt lat="42.3931508" lon="14.1581781"><ele>19.0</ele><time>2026-05-03T11:55:05.003Z</time></trkpt><trkpt lat="42.3932959" lon="14.1583423"><ele>20.0</ele><time>2026-05-03T11:55:06.002Z</time></trkpt><trkpt lat="42.393441" lon="14.1585"><ele>21.0</ele><time>2026-05-03T11:55:07.002Z</time></trkpt><trkpt lat="42.393584" lon="14.1586619"><ele>21.0</ele><time>2026-05-03T11:55:08.002Z</time></trkpt><trkpt lat="42.3937305" lon="14.1588186"><ele>21.0</ele><time>2026-05-03T11:55:09.002Z</time></trkpt><trkpt lat="42.3938741" lon="14.1589784"><ele>21.0</ele><time>2026-05-03T11:55:10.003Z</time></trkpt><trkpt lat="42.3940188" lon="14.1591366"><ele>22.666666666666664</ele><time>2026-05-03T11:55:11.003Z</time></trkpt><trkpt lat="42.3941616" lon="14.159295"><ele>24.333333333333332</ele><time>2026-05-03T11:55:12.003Z</time></trkpt><trkpt lat="42.3943088" lon="14.1594509"><ele>26.0</ele><time>2026-05-03T11:55:13.002Z</time></trkpt><trkpt lat="42.3944583" lon="14.1596051"><ele>26.0</ele><time>2026-05-03T11:55:14.003Z</time></trkpt><trkpt lat="42.3946062" lon="14.1597664"><ele>26.0</ele><time>2026-05-03T11:55:15.002Z</time></trkpt><trkpt lat="42.3947526" lon="14.1599298"><ele>26.0</ele><time>2026-05-03T11:55:16.002Z</time></trkpt><trkpt lat="42.3948996" lon="14.1600946"><ele>25.666666666666664</ele><time>2026-05-03T11:55:17.003Z</time></trkpt><trkpt lat="42.3950501" lon="14.1602555"><ele>25.333333333333336</ele><time>2026-05-03T11:55:18.003Z</time></trkpt><trkpt lat="42.3952023" lon="14.1604168"><ele>25.0</ele><time>2026-05-03T11:55:19.003Z</time></trkpt><trkpt lat="42.3953507" lon="14.1605786"><ele>25.666666666666668</ele><time>2026-05-03T11:55:20.003Z</time></trkpt><trkpt lat="42.3955064" lon="14.1607331"><ele>26.333333333333336</ele><time>2026-05-03T11:55:21.003Z</time></trkpt><trkpt lat="42.395665" lon="14.1608766"><ele>27.0</ele><time>2026-05-03T11:55:22.003Z</time></trkpt><trkpt lat="42.395825" lon="14.1610289"><ele>27.0</ele><time>2026-05-03T11:55:23.002Z</time></trkpt><trkpt lat="42.3959929" lon="14.1611755"><ele>27.0</ele><time>2026-05-03T11:55:24.003Z</time></trkpt><trkpt lat="42.3961614" lon="14.1613143"><ele>27.0</ele><time>2026-05-03T11:55:25.003Z</time></trkpt><trkpt lat="42.3963287" lon="14.1614483"><ele>26.0</ele><time>2026-05-03T11:55:26.003Z</time></trkpt><trkpt lat="42.3964976" lon="14.161581"><ele>25.0</ele><time>2026-05-03T11:55:27.003Z</time></trkpt><trkpt lat="42.396669" lon="14.1617061"><ele>24.0</ele><time>2026-05-03T11:55:28.002Z</time></trkpt><trkpt lat="42.396842" lon="14.1618271"><ele>24.0</ele><time>2026-05-03T11:55:29.003Z</time></trkpt><trkpt lat="42.3970166" lon="14.1619429"><ele>24.0</ele><time>2026-05-03T11:55:30.003Z</time></trkpt><trkpt lat="42.397193" lon="14.1620573"><ele>24.0</ele><time>2026-05-03T11:55:31.002Z</time></trkpt><trkpt lat="42.3973689" lon="14.1621693"><ele>23.333333333333332</ele><time>2026-05-03T11:55:32.002Z</time></trkpt><trkpt lat="42.3975438" lon="14.1622769"><ele>22.666666666666664</ele><time>2026-05-03T11:55:33.003Z</time></trkpt><trkpt lat="42.3977203" lon="14.162385"><ele>22.0</ele><time>2026-05-03T11:55:34.003Z</time></trkpt><trkpt lat="42.3978947" lon="14.1624967"><ele>21.666666666666664</ele><time>2026-05-03T11:55:35.002Z</time></trkpt><trkpt lat="42.3980692" lon="14.1626093"><ele>21.333333333333332</ele><time>2026-05-03T11:55:36.003Z</time></trkpt><trkpt lat="42.3982449" lon="14.1627234"><ele>21.0</ele><time>2026-05-03T11:55:37.003Z</time></trkpt><trkpt lat="42.3984166" lon="14.1628388"><ele>21.0</ele><time>2026-05-03T11:55:38.002Z</time></trkpt><trkpt lat="42.3985858" lon="14.1629409"><ele>21.0</ele><time>2026-05-03T11:55:39.003Z</time></trkpt><trkpt lat="42.3987596" lon="14.163043"><ele>21.0</ele><time>2026-05-03T11:55:40.002Z</time></trkpt><trkpt lat="42.3989324" lon="14.1631483"><ele>22.0</ele><time>2026-05-03T11:55:41.002Z</time></trkpt><trkpt lat="42.3991031" lon="14.1632617"><ele>23.0</ele><time>2026-05-03T11:55:42.003Z</time></trkpt><trkpt lat="42.3992817" lon="14.1633707"><ele>24.0</ele><time>2026-05-03T11:55:43.002Z</time></trkpt><trkpt lat="42.3994566" lon="14.1634757"><ele>24.0</ele><time>2026-05-03T11:55:44.002Z</time></trkpt><trkpt lat="42.399632" lon="14.1635843"><ele>24.0</ele><time>2026-05-03T11:55:45.003Z</time></trkpt><trkpt lat="42.3998095" lon="14.1636949"><ele>24.0</ele><time>2026-05-03T11:55:46.002Z</time></trkpt><trkpt lat="42.3999836" lon="14.1638023"><ele>24.0</ele><time>2026-05-03T11:55:47.003Z</time></trkpt><trkpt lat="42.4001594" lon="14.1639025"><ele>24.0</ele><time>2026-05-03T11:55:48.003Z</time></trkpt><trkpt lat="42.4003356" lon="14.1639958"><ele>24.0</ele><time>2026-05-03T11:55:49.002Z</time></trkpt><trkpt lat="42.4005163" lon="14.1640768"><ele>24.0</ele><time>2026-05-03T11:55:50.003Z</time></trkpt><trkpt lat="42.4006984" lon="14.1641495"><ele>24.0</ele><time>2026-05-03T11:55:51.003Z</time></trkpt><trkpt lat="42.4008825" lon="14.1642085"><ele>24.0</ele><time>2026-05-03T11:55:52.003Z</time></trkpt><trkpt lat="42.4010711" lon="14.1642543"><ele>24.0</ele><time>2026-05-03T11:55:53.003Z</time></trkpt><trkpt lat="42.4012595" lon="14.16429"><ele>24.0</ele><time>2026-05-03T11:55:54.003Z</time></trkpt><trkpt lat="42.4014488" lon="14.1643103"><ele>24.0</ele><time>2026-05-03T11:55:55.003Z</time></trkpt><trkpt lat="42.4016386" lon="14.1643215"><ele>24.0</ele><time>2026-05-03T11:55:56.003Z</time></trkpt><trkpt lat="42.4018316" lon="14.1643122"><ele>24.0</ele><time>2026-05-03T11:55:57.003Z</time></trkpt><trkpt lat="42.4020191" lon="14.1642921"><ele>24.0</ele><time>2026-05-03T11:55:58.003Z</time></trkpt><trkpt lat="42.4022118" lon="14.1642638"><ele>23.333333333333332</ele><time>2026-05-03T11:55:59.003Z</time></trkpt><trkpt lat="42.402395" lon="14.1642203"><ele>22.666666666666664</ele><time>2026-05-03T11:56:00.003Z</time></trkpt><trkpt lat="42.402582" lon="14.1641588"><ele>22.0</ele><time>2026-05-03T11:56:01.002Z</time></trkpt><trkpt lat="42.4027657" lon="14.164082"><ele>22.0</ele><time>2026-05-03T11:56:02.002Z</time></trkpt><trkpt lat="42.4029507" lon="14.1639951"><ele>22.0</ele><time>2026-05-03T11:56:03.003Z</time></trkpt><trkpt lat="42.4031318" lon="14.1639002"><ele>22.0</ele><time>2026-05-03T11:56:04.003Z</time></trkpt><trkpt lat="42.4033111" lon="14.1637976"><ele>22.333333333333332</ele><time>2026-05-03T11:56:05.003Z</time></trkpt><trkpt lat="42.4034932" lon="14.1636922"><ele>22.666666666666668</ele><time>2026-05-03T11:56:06.002Z</time></trkpt><trkpt lat="42.4036743" lon="14.1635824"><ele>23.0</ele><time>2026-05-03T11:56:07.003Z</time></trkpt><trkpt lat="42.4038546" lon="14.1634704"><ele>23.333333333333336</ele><time>2026-05-03T11:56:08.002Z</time></trkpt><trkpt lat="42.4040354" lon="14.1633609"><ele>23.666666666666668</ele><time>2026-05-03T11:56:09.003Z</time></trkpt><trkpt lat="42.4042135" lon="14.1632531"><ele>24.0</ele><time>2026-05-03T11:56:10.003Z</time></trkpt><trkpt lat="42.4043912" lon="14.1631423"><ele>23.333333333333332</ele><time>2026-05-03T11:56:11.003Z</time></trkpt><trkpt lat="42.4045656" lon="14.1630287"><ele>22.666666666666664</ele><time>2026-05-03T11:56:12.002Z</time></trkpt><trkpt lat="42.4047422" lon="14.162922"><ele>22.0</ele><time>2026-05-03T11:56:13.003Z</time></trkpt><trkpt lat="42.4049185" lon="14.1628146"><ele>21.666666666666664</ele><time>2026-05-03T11:56:14.002Z</time></trkpt><trkpt lat="42.4050924" lon="14.1627031"><ele>21.333333333333332</ele><time>2026-05-03T11:56:15.002Z</time></trkpt><trkpt lat="42.4052677" lon="14.1625943"><ele>21.0</ele><time>2026-05-03T11:56:16.002Z</time></trkpt><trkpt lat="42.4054415" lon="14.1624943"><ele>21.0</ele><time>2026-05-03T11:56:17.003Z</time></trkpt><trkpt lat="42.4056173" lon="14.1624032"><ele>21.0</ele><time>2026-05-03T11:56:18.002Z</time></trkpt><trkpt lat="42.405799" lon="14.1623201"><ele>21.0</ele><time>2026-05-03T11:56:19.003Z</time></trkpt><trkpt lat="42.4059768" lon="14.1622471"><ele>21.333333333333332</ele><time>2026-05-03T11:56:20.002Z</time></trkpt><trkpt lat="42.4061639" lon="14.1621795"><ele>21.666666666666664</ele><time>2026-05-03T11:56:21.002Z</time></trkpt><trkpt lat="42.4063515" lon="14.1621206"><ele>22.0</ele><time>2026-05-03T11:56:22.003Z</time></trkpt><trkpt lat="42.4065417" lon="14.1620736"><ele>22.0</ele><time>2026-05-03T11:56:23.003Z</time></trkpt><trkpt lat="42.4067335" lon="14.1620361"><ele>22.0</ele><time>2026-05-03T11:56:24.002Z</time></trkpt><trkpt lat="42.4069258" lon="14.1620084"><ele>22.0</ele><time>2026-05-03T11:56:25.003Z</time></trkpt><trkpt lat="42.4071171" lon="14.1619869"><ele>22.0</ele><time>2026-05-03T11:56:26.002Z</time></trkpt><trkpt lat="42.4073095" lon="14.1619785"><ele>22.0</ele><time>2026-05-03T11:56:27.002Z</time></trkpt><trkpt lat="42.4075008" lon="14.1619774"><ele>22.0</ele><time>2026-05-03T11:56:28.003Z</time></trkpt><trkpt lat="42.4076929" lon="14.1619846"><ele>22.0</ele><time>2026-05-03T11:56:29.002Z</time></trkpt><trkpt lat="42.4078855" lon="14.1619961"><ele>22.0</ele><time>2026-05-03T11:56:30.003Z</time></trkpt><trkpt lat="42.4080795" lon="14.1620212"><ele>22.0</ele><time>2026-05-03T11:56:31.003Z</time></trkpt><trkpt lat="42.4082635" lon="14.162056"><ele>22.333333333333332</ele><time>2026-05-03T11:56:32.002Z</time></trkpt><trkpt lat="42.4084495" lon="14.1621039"><ele>22.666666666666668</ele><time>2026-05-03T11:56:33.003Z</time></trkpt><trkpt lat="42.4086371" lon="14.1621595"><ele>23.0</ele><time>2026-05-03T11:56:34.003Z</time></trkpt><trkpt lat="42.4088252" lon="14.1622184"><ele>22.333333333333336</ele><time>2026-05-03T11:56:35.002Z</time></trkpt><trkpt lat="42.4090074" lon="14.1622833"><ele>21.666666666666668</ele><time>2026-05-03T11:56:36.003Z</time></trkpt><trkpt lat="42.4091901" lon="14.1623645"><ele>21.0</ele><time>2026-05-03T11:56:37.002Z</time></trkpt><trkpt lat="42.4093665" lon="14.1624603"><ele>21.0</ele><time>2026-05-03T11:56:38.002Z</time></trkpt><trkpt lat="42.4095486" lon="14.1625619"><ele>21.0</ele><time>2026-05-03T11:56:39.003Z</time></trkpt><trkpt lat="42.409724" lon="14.1626693"><ele>21.0</ele><time>2026-05-03T11:56:40.002Z</time></trkpt><trkpt lat="42.4098989" lon="14.1627787"><ele>21.0</ele><time>2026-05-03T11:56:41.003Z</time></trkpt><trkpt lat="42.4100695" lon="14.162888"><ele>21.0</ele><time>2026-05-03T11:56:42.002Z</time></trkpt><trkpt lat="42.410244" lon="14.1629917"><ele>21.0</ele><time>2026-05-03T11:56:43.002Z</time></trkpt><trkpt lat="42.4104139" lon="14.1631019"><ele>20.0</ele><time>2026-05-03T11:56:44.003Z</time></trkpt><trkpt lat="42.4105819" lon="14.1632134"><ele>19.0</ele><time>2026-05-03T11:56:45.003Z</time></trkpt><trkpt lat="42.410755" lon="14.1633141"><ele>18.0</ele><time>2026-05-03T11:56:46.003Z</time></trkpt><trkpt lat="42.4109278" lon="14.1634182"><ele>18.0</ele><time>2026-05-03T11:56:47.002Z</time></trkpt><trkpt lat="42.4111004" lon="14.1635226"><ele>18.0</ele><time>2026-05-03T11:56:48.002Z</time></trkpt><trkpt lat="42.4112732" lon="14.1636286"><ele>18.0</ele><time>2026-05-03T11:56:49.003Z</time></trkpt><trkpt lat="42.4114442" lon="14.16374"><ele>18.0</ele><time>2026-05-03T11:56:50.003Z</time></trkpt><trkpt lat="42.4116162" lon="14.1638494"><ele>18.0</ele><time>2026-05-03T11:56:51.002Z</time></trkpt><trkpt lat="42.4117875" lon="14.1639598"><ele>18.0</ele><time>2026-05-03T11:56:52.003Z</time></trkpt><trkpt lat="42.4119599" lon="14.1640694"><ele>17.666666666666668</ele><time>2026-05-03T11:56:53.003Z</time></trkpt><trkpt lat="42.4121367" lon="14.1641761"><ele>17.333333333333336</ele><time>2026-05-03T11:56:54.003Z</time></trkpt><trkpt lat="42.4123123" lon="14.1642859"><ele>17.0</ele><time>2026-05-03T11:56:55.003Z</time></trkpt><trkpt lat="42.412489" lon="14.164397"><ele>17.0</ele><time>2026-05-03T11:56:56.003Z</time></trkpt><trkpt lat="42.4126629" lon="14.1645091"><ele>17.0</ele><time>2026-05-03T11:56:57.002Z</time></trkpt><trkpt lat="42.4128333" lon="14.1646246"><ele>17.0</ele><time>2026-05-03T11:56:58.003Z</time></trkpt><trkpt lat="42.4130042" lon="14.1647404"><ele>17.0</ele><time>2026-05-03T11:56:59.003Z</time></trkpt><trkpt lat="42.4131782" lon="14.1648593"><ele>17.0</ele><time>2026-05-03T11:57:00.003Z</time></trkpt><trkpt lat="42.413351" lon="14.1649747"><ele>17.0</ele><time>2026-05-03T11:57:01.003Z</time></trkpt><trkpt lat="42.4135231" lon="14.1650901"><ele>17.0</ele><time>2026-05-03T11:57:02.003Z</time></trkpt><trkpt lat="42.4136976" lon="14.1652092"><ele>17.0</ele><time>2026-05-03T11:57:03.003Z</time></trkpt><trkpt lat="42.4138714" lon="14.1653263"><ele>17.0</ele><time>2026-05-03T11:57:04.003Z</time></trkpt><trkpt lat="42.4140441" lon="14.165448"><ele>17.666666666666668</ele><time>2026-05-03T11:57:05.003Z</time></trkpt><trkpt lat="42.4142173" lon="14.1655693"><ele>18.333333333333332</ele><time>2026-05-03T11:57:06.002Z</time></trkpt><trkpt lat="42.4143917" lon="14.1656899"><ele>19.0</ele><time>2026-05-03T11:57:07.003Z</time></trkpt><trkpt lat="42.4145665" lon="14.1658128"><ele>18.666666666666664</ele><time>2026-05-03T11:57:08.002Z</time></trkpt><trkpt lat="42.4147365" lon="14.1659384"><ele>18.333333333333332</ele><time>2026-05-03T11:57:09.003Z</time></trkpt><trkpt lat="42.4149065" lon="14.1660577"><ele>18.0</ele><time>2026-05-03T11:57:10.002Z</time></trkpt><trkpt lat="42.4150777" lon="14.1661672"><ele>18.0</ele><time>2026-05-03T11:57:11.002Z</time></trkpt><trkpt lat="42.4152485" lon="14.1662806"><ele>18.0</ele><time>2026-05-03T11:57:12.002Z</time></trkpt><trkpt lat="42.4154189" lon="14.1663988"><ele>18.0</ele><time>2026-05-03T11:57:13.002Z</time></trkpt><trkpt lat="42.4155893" lon="14.166513"><ele>17.0</ele><time>2026-05-03T11:57:14.003Z</time></trkpt><trkpt lat="42.4157606" lon="14.1666326"><ele>16.0</ele><time>2026-05-03T11:57:15.002Z</time></trkpt><trkpt lat="42.4159276" lon="14.1667547"><ele>15.0</ele><time>2026-05-03T11:57:16.003Z</time></trkpt><trkpt lat="42.4160955" lon="14.1668712"><ele>15.0</ele><time>2026-05-03T11:57:17.003Z</time></trkpt><trkpt lat="42.4162644" lon="14.1669873"><ele>15.0</ele><time>2026-05-03T11:57:18.003Z</time></trkpt><trkpt lat="42.4164325" lon="14.1671067"><ele>15.0</ele><time>2026-05-03T11:57:19.003Z</time></trkpt><trkpt lat="42.4166018" lon="14.1672242"><ele>15.333333333333332</ele><time>2026-05-03T11:57:20.002Z</time></trkpt><trkpt lat="42.4167749" lon="14.1673409"><ele>15.666666666666666</ele><time>2026-05-03T11:57:21.002Z</time></trkpt><trkpt lat="42.416947" lon="14.1674589"><ele>16.0</ele><time>2026-05-03T11:57:22.003Z</time></trkpt><trkpt lat="42.417119" lon="14.1675741"><ele>16.666666666666664</ele><time>2026-05-03T11:57:23.002Z</time></trkpt><trkpt lat="42.4172881" lon="14.1676941"><ele>17.333333333333332</ele><time>2026-05-03T11:57:24.002Z</time></trkpt><trkpt lat="42.4174616" lon="14.1678126"><ele>18.0</ele><time>2026-05-03T11:57:25.003Z</time></trkpt><trkpt lat="42.417634" lon="14.1679273"><ele>18.0</ele><time>2026-05-03T11:57:26.003Z</time></trkpt><trkpt lat="42.4178047" lon="14.1680501"><ele>18.0</ele><time>2026-05-03T11:57:27.002Z</time></trkpt><trkpt lat="42.4179803" lon="14.1681709"><ele>18.0</ele><time>2026-05-03T11:57:28.002Z</time></trkpt><trkpt lat="42.4181547" lon="14.1682903"><ele>17.666666666666668</ele><time>2026-05-03T11:57:29.003Z</time></trkpt><trkpt lat="42.4183339" lon="14.168412"><ele>17.333333333333336</ele><time>2026-05-03T11:57:30.002Z</time></trkpt><trkpt lat="42.4185086" lon="14.1685339"><ele>17.0</ele><time>2026-05-03T11:57:31.003Z</time></trkpt><trkpt lat="42.4186824" lon="14.1686576"><ele>17.0</ele><time>2026-05-03T11:57:32.002Z</time></trkpt><trkpt lat="42.4188558" lon="14.1687791"><ele>17.0</ele><time>2026-05-03T11:57:33.003Z</time></trkpt><trkpt lat="42.4190304" lon="14.1688981"><ele>17.0</ele><time>2026-05-03T11:57:34.002Z</time></trkpt><trkpt lat="42.4192037" lon="14.1690134"><ele>16.0</ele><time>2026-05-03T11:57:35.002Z</time></trkpt><trkpt lat="42.419377" lon="14.1691353"><ele>15.0</ele><time>2026-05-03T11:57:36.002Z</time></trkpt><trkpt lat="42.4195468" lon="14.1692578"><ele>14.0</ele><time>2026-05-03T11:57:37.003Z</time></trkpt><trkpt lat="42.4197164" lon="14.1693781"><ele>14.0</ele><time>2026-05-03T11:57:38.003Z</time></trkpt><trkpt lat="42.4198881" lon="14.1694928"><ele>14.0</ele><time>2026-05-03T11:57:39.003Z</time></trkpt><trkpt lat="42.42006" lon="14.1696075"><ele>14.0</ele><time>2026-05-03T11:57:40.003Z</time></trkpt><trkpt lat="42.4202302" lon="14.169723"><ele>14.0</ele><time>2026-05-03T11:57:41.002Z</time></trkpt><trkpt lat="42.4204046" lon="14.1698379"><ele>14.0</ele><time>2026-05-03T11:57:42.002Z</time></trkpt><trkpt lat="42.4205748" lon="14.169959"><ele>14.0</ele><time>2026-05-03T11:57:43.002Z</time></trkpt><trkpt lat="42.4207464" lon="14.1700759"><ele>15.0</ele><time>2026-05-03T11:57:44.002Z</time></trkpt><trkpt lat="42.4209168" lon="14.1701979"><ele>16.0</ele><time>2026-05-03T11:57:45.002Z</time></trkpt><trkpt lat="42.421088" lon="14.1703153"><ele>17.0</ele><time>2026-05-03T11:57:46.003Z</time></trkpt><trkpt lat="42.4212605" lon="14.1704349"><ele>17.0</ele><time>2026-05-03T11:57:47.003Z</time></trkpt><trkpt lat="42.4214299" lon="14.1705494"><ele>17.0</ele><time>2026-05-03T11:57:48.002Z</time></trkpt><trkpt lat="42.4215999" lon="14.1706706"><ele>17.0</ele><time>2026-05-03T11:57:49.002Z</time></trkpt><trkpt lat="42.4217687" lon="14.1707854"><ele>17.0</ele><time>2026-05-03T11:57:50.003Z</time></trkpt><trkpt lat="42.4219349" lon="14.1709011"><ele>17.0</ele><time>2026-05-03T11:57:51.002Z</time></trkpt><trkpt lat="42.4221012" lon="14.1710206"><ele>17.0</ele><time>2026-05-03T11:57:52.002Z</time></trkpt><trkpt lat="42.4222685" lon="14.1711371"><ele>18.0</ele><time>2026-05-03T11:57:53.003Z</time></trkpt><trkpt lat="42.422433" lon="14.171261"><ele>19.0</ele><time>2026-05-03T11:57:54.002Z</time></trkpt><trkpt lat="42.4226014" lon="14.171389"><ele>20.0</ele><time>2026-05-03T11:57:55.003Z</time></trkpt><trkpt lat="42.4227666" lon="14.1715215"><ele>19.0</ele><time>2026-05-03T11:57:56.003Z</time></trkpt><trkpt lat="42.4229314" lon="14.1716561"><ele>18.0</ele><time>2026-05-03T11:57:57.003Z</time></trkpt><trkpt lat="42.4230966" lon="14.1717949"><ele>17.0</ele><time>2026-05-03T11:57:58.003Z</time></trkpt><trkpt lat="42.4232614" lon="14.1719345"><ele>16.666666666666668</ele><time>2026-05-03T11:57:59.003Z</time></trkpt><trkpt lat="42.4234246" lon="14.1720852"><ele>16.333333333333332</ele><time>2026-05-03T11:58:00.003Z</time></trkpt><trkpt lat="42.4235859" lon="14.1722361"><ele>16.0</ele><time>2026-05-03T11:58:01.003Z</time></trkpt><trkpt lat="42.4237416" lon="14.1723945"><ele>15.333333333333332</ele><time>2026-05-03T11:58:02.002Z</time></trkpt><trkpt lat="42.4238998" lon="14.1725528"><ele>14.666666666666668</ele><time>2026-05-03T11:58:03.003Z</time></trkpt><trkpt lat="42.4240522" lon="14.1727124"><ele>14.0</ele><time>2026-05-03T11:58:04.003Z</time></trkpt><trkpt lat="42.4242018" lon="14.1728747"><ele>14.0</ele><time>2026-05-03T11:58:05.003Z</time></trkpt><trkpt lat="42.4243531" lon="14.1730341"><ele>14.0</ele><time>2026-05-03T11:58:06.002Z</time></trkpt><trkpt lat="42.4245033" lon="14.1731942"><ele>14.0</ele><time>2026-05-03T11:58:07.003Z</time></trkpt><trkpt lat="42.4246522" lon="14.1733536"><ele>14.333333333333334</ele><time>2026-05-03T11:58:08.003Z</time></trkpt><trkpt lat="42.4248043" lon="14.173515"><ele>14.666666666666668</ele><time>2026-05-03T11:58:09.003Z</time></trkpt><trkpt lat="42.4249586" lon="14.1736694"><ele>15.0</ele><time>2026-05-03T11:58:10.003Z</time></trkpt><trkpt lat="42.4251125" lon="14.173829"><ele>15.0</ele><time>2026-05-03T11:58:11.002Z</time></trkpt><trkpt lat="42.4252664" lon="14.1739881"><ele>15.0</ele><time>2026-05-03T11:58:12.003Z</time></trkpt><trkpt lat="42.4254235" lon="14.1741406"><ele>15.0</ele><time>2026-05-03T11:58:13.003Z</time></trkpt><trkpt lat="42.42558" lon="14.1742975"><ele>15.0</ele><time>2026-05-03T11:58:14.003Z</time></trkpt><trkpt lat="42.4257363" lon="14.174456"><ele>15.0</ele><time>2026-05-03T11:58:15.003Z</time></trkpt><trkpt lat="42.425894" lon="14.1746126"><ele>15.0</ele><time>2026-05-03T11:58:16.002Z</time></trkpt><trkpt lat="42.4260547" lon="14.1747701"><ele>14.666666666666668</ele><time>2026-05-03T11:58:17.003Z</time></trkpt><trkpt lat="42.4262098" lon="14.1749268"><ele>14.333333333333334</ele><time>2026-05-03T11:58:18.003Z</time></trkpt><trkpt lat="42.4263641" lon="14.1750799"><ele>14.0</ele><time>2026-05-03T11:58:19.003Z</time></trkpt><trkpt lat="42.4265202" lon="14.1752351"><ele>13.666666666666668</ele><time>2026-05-03T11:58:20.002Z</time></trkpt><trkpt lat="42.4266789" lon="14.1753823"><ele>13.333333333333332</ele><time>2026-05-03T11:58:21.003Z</time></trkpt><trkpt lat="42.4268365" lon="14.1755359"><ele>13.0</ele><time>2026-05-03T11:58:22.002Z</time></trkpt><trkpt lat="42.4269922" lon="14.1756906"><ele>13.666666666666666</ele><time>2026-05-03T11:58:23.002Z</time></trkpt><trkpt lat="42.4271458" lon="14.1758439"><ele>14.333333333333332</ele><time>2026-05-03T11:58:24.003Z</time></trkpt><trkpt lat="42.4273011" lon="14.1759948"><ele>15.0</ele><time>2026-05-03T11:58:25.003Z</time></trkpt><trkpt lat="42.4274539" lon="14.1761487"><ele>15.0</ele><time>2026-05-03T11:58:26.002Z</time></trkpt><trkpt lat="42.4276082" lon="14.1762995"><ele>15.0</ele><time>2026-05-03T11:58:27.003Z</time></trkpt><trkpt lat="42.4277614" lon="14.1764526"><ele>15.0</ele><time>2026-05-03T11:58:28.002Z</time></trkpt><trkpt lat="42.4279175" lon="14.1766037"><ele>14.333333333333332</ele><time>2026-05-03T11:58:29.003Z</time></trkpt><trkpt lat="42.4280754" lon="14.1767539"><ele>13.666666666666666</ele><time>2026-05-03T11:58:30.002Z</time></trkpt><trkpt lat="42.4282357" lon="14.1769002"><ele>13.0</ele><time>2026-05-03T11:58:31.003Z</time></trkpt><trkpt lat="42.4283993" lon="14.1770435"><ele>13.0</ele><time>2026-05-03T11:58:32.002Z</time></trkpt><trkpt lat="42.428563" lon="14.1771852"><ele>13.0</ele><time>2026-05-03T11:58:33.002Z</time></trkpt><trkpt lat="42.428729" lon="14.177318"><ele>13.0</ele><time>2026-05-03T11:58:34.002Z</time></trkpt><trkpt lat="42.4288968" lon="14.1774489"><ele>12.666666666666666</ele><time>2026-05-03T11:58:35.002Z</time></trkpt><trkpt lat="42.4290696" lon="14.1775723"><ele>12.333333333333332</ele><time>2026-05-03T11:58:36.002Z</time></trkpt><trkpt lat="42.429242" lon="14.177694"><ele>12.0</ele><time>2026-05-03T11:58:37.002Z</time></trkpt><trkpt lat="42.4294164" lon="14.1778057"><ele>12.0</ele><time>2026-05-03T11:58:38.003Z</time></trkpt><trkpt lat="42.4295922" lon="14.1779136"><ele>12.0</ele><time>2026-05-03T11:58:39.002Z</time></trkpt><trkpt lat="42.4297683" lon="14.178019"><ele>12.0</ele><time>2026-05-03T11:58:40.002Z</time></trkpt><trkpt lat="42.4299458" lon="14.1781157"><ele>11.333333333333334</ele><time>2026-05-03T11:58:41.003Z</time></trkpt><trkpt lat="42.4301245" lon="14.1782101"><ele>10.666666666666668</ele><time>2026-05-03T11:58:42.003Z</time></trkpt><trkpt lat="42.4302996" lon="14.178302"><ele>10.0</ele><time>2026-05-03T11:58:43.002Z</time></trkpt><trkpt lat="42.4304766" lon="14.1783871"><ele>10.0</ele><time>2026-05-03T11:58:44.003Z</time></trkpt><trkpt lat="42.4306508" lon="14.1784768"><ele>10.0</ele><time>2026-05-03T11:58:45.002Z</time></trkpt><trkpt lat="42.4308295" lon="14.1785701"><ele>10.0</ele><time>2026-05-03T11:58:46.002Z</time></trkpt><trkpt lat="42.4310043" lon="14.1786638"><ele>10.0</ele><time>2026-05-03T11:58:47.002Z</time></trkpt><trkpt lat="42.4311832" lon="14.1787506"><ele>10.0</ele><time>2026-05-03T11:58:48.002Z</time></trkpt><trkpt lat="42.4313562" lon="14.1788392"><ele>10.0</ele><time>2026-05-03T11:58:49.002Z</time></trkpt><trkpt lat="42.4315294" lon="14.1789295"><ele>10.333333333333334</ele><time>2026-05-03T11:58:50.004Z</time></trkpt><trkpt lat="42.4317021" lon="14.1790204"><ele>10.666666666666666</ele><time>2026-05-03T11:58:51.004Z</time></trkpt><trkpt lat="42.4318695" lon="14.1791093"><ele>11.0</ele><time>2026-05-03T11:58:52.004Z</time></trkpt><trkpt lat="42.4320411" lon="14.1791991"><ele>11.0</ele><time>2026-05-03T11:58:53.003Z</time></trkpt><trkpt lat="42.4322107" lon="14.1792915"><ele>11.0</ele><time>2026-05-03T11:58:54.004Z</time></trkpt><trkpt lat="42.4323825" lon="14.179392"><ele>11.0</ele><time>2026-05-03T11:58:55.003Z</time></trkpt><trkpt lat="42.4325563" lon="14.1794959"><ele>11.0</ele><time>2026-05-03T11:58:56.004Z</time></trkpt><trkpt lat="42.4327302" lon="14.1795953"><ele>11.0</ele><time>2026-05-03T11:58:57.004Z</time></trkpt><trkpt lat="42.4329014" lon="14.1797014"><ele>11.0</ele><time>2026-05-03T11:58:58.004Z</time></trkpt><trkpt lat="42.4330691" lon="14.1798155"><ele>10.666666666666666</ele><time>2026-05-03T11:58:59.003Z</time></trkpt><trkpt lat="42.433236" lon="14.1799342"><ele>10.333333333333334</ele><time>2026-05-03T11:59:00.004Z</time></trkpt><trkpt lat="42.4334051" lon="14.1800524"><ele>10.0</ele><time>2026-05-03T11:59:01.003Z</time></trkpt><trkpt lat="42.4335731" lon="14.1801779"><ele>10.0</ele><time>2026-05-03T11:59:02.003Z</time></trkpt><trkpt lat="42.4337373" lon="14.1803075"><ele>10.0</ele><time>2026-05-03T11:59:03.004Z</time></trkpt><trkpt lat="42.4339047" lon="14.180433"><ele>10.0</ele><time>2026-05-03T11:59:04.003Z</time></trkpt><trkpt lat="42.434072" lon="14.1805632"><ele>10.333333333333334</ele><time>2026-05-03T11:59:05.003Z</time></trkpt><trkpt lat="42.4342427" lon="14.1806907"><ele>10.666666666666666</ele><time>2026-05-03T11:59:06.003Z</time></trkpt><trkpt lat="42.4344157" lon="14.1808214"><ele>11.0</ele><time>2026-05-03T11:59:07.003Z</time></trkpt><trkpt lat="42.4345878" lon="14.180947"><ele>11.0</ele><time>2026-05-03T11:59:08.003Z</time></trkpt><trkpt lat="42.4347592" lon="14.1810814"><ele>11.0</ele><time>2026-05-03T11:59:09.003Z</time></trkpt><trkpt lat="42.4349303" lon="14.1812168"><ele>11.0</ele><time>2026-05-03T11:59:10.004Z</time></trkpt><trkpt lat="42.4351025" lon="14.1813512"><ele>11.0</ele><time>2026-05-03T11:59:11.003Z</time></trkpt><trkpt lat="42.4352754" lon="14.1814852"><ele>11.0</ele><time>2026-05-03T11:59:12.004Z</time></trkpt><trkpt lat="42.435447" lon="14.1816167"><ele>11.0</ele><time>2026-05-03T11:59:13.004Z</time></trkpt><trkpt lat="42.4356193" lon="14.1817498"><ele>10.666666666666666</ele><time>2026-05-03T11:59:14.003Z</time></trkpt><trkpt lat="42.4357898" lon="14.1818794"><ele>10.333333333333334</ele><time>2026-05-03T11:59:15.004Z</time></trkpt><trkpt lat="42.4359605" lon="14.1820096"><ele>10.0</ele><time>2026-05-03T11:59:16.003Z</time></trkpt><trkpt lat="42.4361324" lon="14.1821446"><ele>10.0</ele><time>2026-05-03T11:59:17.004Z</time></trkpt><trkpt lat="42.4363029" lon="14.1822777"><ele>10.0</ele><time>2026-05-03T11:59:18.003Z</time></trkpt><trkpt lat="42.4364755" lon="14.1824071"><ele>10.0</ele><time>2026-05-03T11:59:19.003Z</time></trkpt><trkpt lat="42.4366455" lon="14.1825343"><ele>10.333333333333334</ele><time>2026-05-03T11:59:20.004Z</time></trkpt><trkpt lat="42.4368133" lon="14.182663"><ele>10.666666666666666</ele><time>2026-05-03T11:59:21.004Z</time></trkpt><trkpt lat="42.4369796" lon="14.1827898"><ele>11.0</ele><time>2026-05-03T11:59:22.004Z</time></trkpt><trkpt lat="42.4371482" lon="14.1829187"><ele>11.0</ele><time>2026-05-03T11:59:23.003Z</time></trkpt><trkpt lat="42.437315" lon="14.1830473"><ele>11.0</ele><time>2026-05-03T11:59:24.004Z</time></trkpt><trkpt lat="42.4374763" lon="14.1831748"><ele>11.0</ele><time>2026-05-03T11:59:25.003Z</time></trkpt><trkpt lat="42.4376403" lon="14.1832948"><ele>11.0</ele><time>2026-05-03T11:59:26.004Z</time></trkpt><trkpt lat="42.437803" lon="14.1834192"><ele>11.0</ele><time>2026-05-03T11:59:27.003Z</time></trkpt><trkpt lat="42.4379635" lon="14.1835439"><ele>11.0</ele><time>2026-05-03T11:59:28.003Z</time></trkpt><trkpt lat="42.4381239" lon="14.1836692"><ele>11.333333333333332</ele><time>2026-05-03T11:59:29.003Z</time></trkpt><trkpt lat="42.4382872" lon="14.1837903"><ele>11.666666666666666</ele><time>2026-05-03T11:59:30.003Z</time></trkpt><trkpt lat="42.4384485" lon="14.1839141"><ele>12.0</ele><time>2026-05-03T11:59:31.003Z</time></trkpt><trkpt lat="42.4386106" lon="14.184035"><ele>12.0</ele><time>2026-05-03T11:59:32.004Z</time></trkpt><trkpt lat="42.4387728" lon="14.1841617"><ele>12.0</ele><time>2026-05-03T11:59:33.004Z</time></trkpt><trkpt lat="42.4389334" lon="14.1842887"><ele>12.0</ele><time>2026-05-03T11:59:34.004Z</time></trkpt><trkpt lat="42.4390945" lon="14.1844139"><ele>12.0</ele><time>2026-05-03T11:59:35.004Z</time></trkpt><trkpt lat="42.439255" lon="14.184536"><ele>12.0</ele><time>2026-05-03T11:59:36.003Z</time></trkpt><trkpt lat="42.4394179" lon="14.18466"><ele>12.0</ele><time>2026-05-03T11:59:37.004Z</time></trkpt><trkpt lat="42.4395809" lon="14.1847903"><ele>11.666666666666666</ele><time>2026-05-03T11:59:38.003Z</time></trkpt><trkpt lat="42.4397444" lon="14.1849191"><ele>11.333333333333332</ele><time>2026-05-03T11:59:39.003Z</time></trkpt><trkpt lat="42.4399092" lon="14.1850428"><ele>11.0</ele><time>2026-05-03T11:59:40.003Z</time></trkpt><trkpt lat="42.4400723" lon="14.1851666"><ele>11.0</ele><time>2026-05-03T11:59:41.004Z</time></trkpt><trkpt lat="42.4402383" lon="14.1852909"><ele>11.0</ele><time>2026-05-03T11:59:42.004Z</time></trkpt><trkpt lat="42.4404023" lon="14.1854168"><ele>11.0</ele><time>2026-05-03T11:59:43.003Z</time></trkpt><trkpt lat="42.4405653" lon="14.1855422"><ele>11.0</ele><time>2026-05-03T11:59:44.004Z</time></trkpt><trkpt lat="42.4407275" lon="14.1856654"><ele>11.0</ele><time>2026-05-03T11:59:45.004Z</time></trkpt><trkpt lat="42.4408891" lon="14.185788"><ele>11.0</ele><time>2026-05-03T11:59:46.004Z</time></trkpt><trkpt lat="42.4410496" lon="14.1859088"><ele>11.0</ele><time>2026-05-03T11:59:47.004Z</time></trkpt><trkpt lat="42.4412108" lon="14.1860303"><ele>11.0</ele><time>2026-05-03T11:59:48.003Z</time></trkpt><trkpt lat="42.4413725" lon="14.1861575"><ele>11.0</ele><time>2026-05-03T11:59:49.004Z</time></trkpt><trkpt lat="42.4415327" lon="14.1862837"><ele>11.333333333333332</ele><time>2026-05-03T11:59:50.004Z</time></trkpt><trkpt lat="42.4416944" lon="14.1864039"><ele>11.666666666666666</ele><time>2026-05-03T11:59:51.004Z</time></trkpt><trkpt lat="42.4418509" lon="14.1865255"><ele>12.0</ele><time>2026-05-03T11:59:52.003Z</time></trkpt><trkpt lat="42.4420082" lon="14.1866494"><ele>11.666666666666666</ele><time>2026-05-03T11:59:53.003Z</time></trkpt><trkpt lat="42.4421632" lon="14.1867739"><ele>11.333333333333332</ele><time>2026-05-03T11:59:54.004Z</time></trkpt><trkpt lat="42.4423201" lon="14.1868958"><ele>11.0</ele><time>2026-05-03T11:59:55.004Z</time></trkpt><trkpt lat="42.4424821" lon="14.1870141"><ele>11.0</ele><time>2026-05-03T11:59:56.004Z</time></trkpt><trkpt lat="42.4426365" lon="14.1871314"><ele>11.0</ele><time>2026-05-03T11:59:57.004Z</time></trkpt><trkpt lat="42.442789" lon="14.1872479"><ele>11.0</ele><time>2026-05-03T11:59:58.004Z</time></trkpt><trkpt lat="42.4429406" lon="14.187362"><ele>11.0</ele><time>2026-05-03T11:59:59.004Z</time></trkpt><trkpt lat="42.4430908" lon="14.1874796"><ele>11.0</ele><time>2026-05-03T12:00:00.004Z</time></trkpt><trkpt lat="42.4432402" lon="14.1875953"><ele>11.0</ele><time>2026-05-03T12:00:01.003Z</time></trkpt><trkpt lat="42.4433873" lon="14.1877074"><ele>11.0</ele><time>2026-05-03T12:00:02.004Z</time></trkpt><trkpt lat="42.443528" lon="14.1878186"><ele>11.0</ele><time>2026-05-03T12:00:03.004Z</time></trkpt><trkpt lat="42.4436629" lon="14.1879282"><ele>11.0</ele><time>2026-05-03T12:00:04.003Z</time></trkpt><trkpt lat="42.4437878" lon="14.1880291"><ele>10.75</ele><time>2026-05-03T12:00:05.003Z</time></trkpt><trkpt lat="42.4439091" lon="14.1881296"><ele>10.5</ele><time>2026-05-03T12:00:06.004Z</time></trkpt><trkpt lat="42.444023" lon="14.1882253"><ele>10.25</ele><time>2026-05-03T12:00:07.003Z</time></trkpt><trkpt lat="42.4441287" lon="14.1883125"><ele>10.0</ele><time>2026-05-03T12:00:08.003Z</time></trkpt><trkpt lat="42.4442291" lon="14.1884033"><ele>9.8</ele><time>2026-05-03T12:00:09.003Z</time></trkpt><trkpt lat="42.4443179" lon="14.1884927"><ele>9.6</ele><time>2026-05-03T12:00:10.003Z</time></trkpt><trkpt lat="42.4444009" lon="14.1885808"><ele>9.4</ele><time>2026-05-03T12:00:11.003Z</time></trkpt><trkpt lat="42.4444787" lon="14.1886732"><ele>9.2</ele><time>2026-05-03T12:00:12.004Z</time></trkpt><trkpt lat="42.4445508" lon="14.1887581"><ele>9.0</ele><time>2026-05-03T12:00:13.003Z</time></trkpt><trkpt lat="42.4446231" lon="14.1888445"><ele>9.6</ele><time>2026-05-03T12:00:14.003Z</time></trkpt><trkpt lat="42.4446935" lon="14.188937"><ele>10.2</ele><time>2026-05-03T12:00:15.003Z</time></trkpt><trkpt lat="42.4447583" lon="14.1890433"><ele>10.799999999999999</ele><time>2026-05-03T12:00:16.004Z</time></trkpt><trkpt lat="42.4448118" lon="14.1891552"><ele>11.4</ele><time>2026-05-03T12:00:17.003Z</time></trkpt><trkpt lat="42.4448505" lon="14.1892759"><ele>12.0</ele><time>2026-05-03T12:00:18.003Z</time></trkpt><trkpt lat="42.444869" lon="14.1894023"><ele>12.0</ele><time>2026-05-03T12:00:19.003Z</time></trkpt><trkpt lat="42.444862" lon="14.189526"><ele>12.0</ele><time>2026-05-03T12:00:20.004Z</time></trkpt><trkpt lat="42.4448365" lon="14.1896458"><ele>12.0</ele><time>2026-05-03T12:00:21.004Z</time></trkpt><trkpt lat="42.4447916" lon="14.1897645"><ele>12.0</ele><time>2026-05-03T12:00:22.004Z</time></trkpt><trkpt lat="42.4447312" lon="14.1898747"><ele>12.0</ele><time>2026-05-03T12:00:23.004Z</time></trkpt><trkpt lat="42.4446668" lon="14.189979"><ele>12.0</ele><time>2026-05-03T12:00:24.003Z</time></trkpt><trkpt lat="42.4445992" lon="14.190084"><ele>12.0</ele><time>2026-05-03T12:00:25.004Z</time></trkpt><trkpt lat="42.444532" lon="14.1901936"><ele>12.0</ele><time>2026-05-03T12:00:26.003Z</time></trkpt><trkpt lat="42.4444695" lon="14.1903011"><ele>12.0</ele><time>2026-05-03T12:00:27.004Z</time></trkpt><trkpt lat="42.4444043" lon="14.1904103"><ele>12.0</ele><time>2026-05-03T12:00:28.003Z</time></trkpt><trkpt lat="42.4443338" lon="14.1905208"><ele>12.0</ele><time>2026-05-03T12:00:29.004Z</time></trkpt><trkpt lat="42.4442626" lon="14.1906405"><ele>12.0</ele><time>2026-05-03T12:00:30.004Z</time></trkpt><trkpt lat="42.4441941" lon="14.1907655"><ele>12.0</ele><time>2026-05-03T12:00:31.004Z</time></trkpt><trkpt lat="42.4441284" lon="14.1908962"><ele>12.0</ele><time>2026-05-03T12:00:32.004Z</time></trkpt><trkpt lat="42.4440641" lon="14.1910295"><ele>12.0</ele><time>2026-05-03T12:00:33.004Z</time></trkpt><trkpt lat="42.4439974" lon="14.1911563"><ele>12.0</ele><time>2026-05-03T12:00:34.004Z</time></trkpt><trkpt lat="42.4439321" lon="14.1912718"><ele>12.0</ele><time>2026-05-03T12:00:35.004Z</time></trkpt><trkpt lat="42.4438647" lon="14.1913697"><ele>12.0</ele><time>2026-05-03T12:00:36.004Z</time></trkpt><trkpt lat="42.4438028" lon="14.1914697"><ele>12.0</ele><time>2026-05-03T12:00:37.003Z</time></trkpt><trkpt lat="42.4437409" lon="14.1915797"><ele>11.4</ele><time>2026-05-03T12:00:38.004Z</time></trkpt><trkpt lat="42.4436703" lon="14.1916899"><ele>10.799999999999999</ele><time>2026-05-03T12:00:39.004Z</time></trkpt><trkpt lat="42.4436025" lon="14.1918041"><ele>10.2</ele><time>2026-05-03T12:00:40.004Z</time></trkpt><trkpt lat="42.4435349" lon="14.1919152"><ele>9.6</ele><time>2026-05-03T12:00:41.004Z</time></trkpt><trkpt lat="42.4434669" lon="14.1920297"><ele>9.0</ele><time>2026-05-03T12:00:42.004Z</time></trkpt><trkpt lat="42.4434033" lon="14.1921483"><ele>9.0</ele><time>2026-05-03T12:00:43.004Z</time></trkpt><trkpt lat="42.4433343" lon="14.1922617"><ele>9.0</ele><time>2026-05-03T12:00:44.003Z</time></trkpt><trkpt lat="42.4432638" lon="14.1923705"><ele>9.0</ele><time>2026-05-03T12:00:45.004Z</time></trkpt><trkpt lat="42.4431939" lon="14.1924782"><ele>9.0</ele><time>2026-05-03T12:00:46.004Z</time></trkpt><trkpt lat="42.443126" lon="14.1925866"><ele>9.0</ele><time>2026-05-03T12:00:47.003Z</time></trkpt><trkpt lat="42.4430601" lon="14.1926958"><ele>9.0</ele><time>2026-05-03T12:00:48.004Z</time></trkpt><trkpt lat="42.4429984" lon="14.1928046"><ele>9.0</ele><time>2026-05-03T12:00:49.004Z</time></trkpt><trkpt lat="42.4429328" lon="14.1929128"><ele>9.0</ele><time>2026-05-03T12:00:50.004Z</time></trkpt><trkpt lat="42.4428638" lon="14.1930181"><ele>9.0</ele><time>2026-05-03T12:00:51.003Z</time></trkpt><trkpt lat="42.4427983" lon="14.1931235"><ele>9.0</ele><time>2026-05-03T12:00:52.003Z</time></trkpt><trkpt lat="42.4427305" lon="14.1932255"><ele>9.6</ele><time>2026-05-03T12:00:53.003Z</time></trkpt><trkpt lat="42.4426583" lon="14.1933241"><ele>10.2</ele><time>2026-05-03T12:00:54.004Z</time></trkpt><trkpt lat="42.4425793" lon="14.1934241"><ele>10.799999999999999</ele><time>2026-05-03T12:00:55.004Z</time></trkpt><trkpt lat="42.4424961" lon="14.1935194"><ele>11.4</ele><time>2026-05-03T12:00:56.003Z</time></trkpt><trkpt lat="42.4424088" lon="14.1936083"><ele>12.0</ele><time>2026-05-03T12:00:57.004Z</time></trkpt><trkpt lat="42.4423169" lon="14.193692"><ele>12.0</ele><time>2026-05-03T12:00:58.003Z</time></trkpt><trkpt lat="42.4422105" lon="14.1937796"><ele>12.0</ele><time>2026-05-03T12:00:59.003Z</time></trkpt><trkpt lat="42.4420955" lon="14.1938529"><ele>12.0</ele><time>2026-05-03T12:01:00.004Z</time></trkpt><trkpt lat="42.4419707" lon="14.1939203"><ele>12.0</ele><time>2026-05-03T12:01:01.003Z</time></trkpt><trkpt lat="42.4418514" lon="14.1939796"><ele>11.0</ele><time>2026-05-03T12:01:02.003Z</time></trkpt><trkpt lat="42.441729" lon="14.1940293"><ele>10.0</ele><time>2026-05-03T12:01:03.003Z</time></trkpt><trkpt lat="42.4416068" lon="14.1940704"><ele>9.0</ele><time>2026-05-03T12:01:04.004Z</time></trkpt><trkpt lat="42.4414836" lon="14.1941017"><ele>8.0</ele><time>2026-05-03T12:01:05.003Z</time></trkpt><trkpt lat="42.4413589" lon="14.1941206"><ele>8.0</ele><time>2026-05-03T12:01:06.004Z</time></trkpt><trkpt lat="42.4412376" lon="14.194133"><ele>8.0</ele><time>2026-05-03T12:01:07.003Z</time></trkpt><trkpt lat="42.4411203" lon="14.1941444"><ele>8.0</ele><time>2026-05-03T12:01:08.004Z</time></trkpt><trkpt lat="42.4410029" lon="14.1941538"><ele>8.0</ele><time>2026-05-03T12:01:09.004Z</time></trkpt><trkpt lat="42.4408814" lon="14.1941642"><ele>8.0</ele><time>2026-05-03T12:01:10.004Z</time></trkpt><trkpt lat="42.4407603" lon="14.194175"><ele>8.0</ele><time>2026-05-03T12:01:11.004Z</time></trkpt><trkpt lat="42.4406392" lon="14.1941862"><ele>8.0</ele><time>2026-05-03T12:01:12.004Z</time></trkpt><trkpt lat="42.4405124" lon="14.1941933"><ele>8.0</ele><time>2026-05-03T12:01:13.004Z</time></trkpt><trkpt lat="42.4403865" lon="14.1941965"><ele>8.0</ele><time>2026-05-03T12:01:14.003Z</time></trkpt><trkpt lat="42.4402618" lon="14.1942017"><ele>8.0</ele><time>2026-05-03T12:01:15.004Z</time></trkpt><trkpt lat="42.4401355" lon="14.1942003"><ele>8.0</ele><time>2026-05-03T12:01:16.004Z</time></trkpt><trkpt lat="42.4400083" lon="14.1941987"><ele>8.0</ele><time>2026-05-03T12:01:17.004Z</time></trkpt><trkpt lat="42.4398873" lon="14.1941969"><ele>8.0</ele><time>2026-05-03T12:01:18.004Z</time></trkpt><trkpt lat="42.4397773" lon="14.1942038"><ele>8.0</ele><time>2026-05-03T12:01:19.003Z</time></trkpt><trkpt lat="42.439672" lon="14.1942301"><ele>8.0</ele><time>2026-05-03T12:01:20.004Z</time></trkpt><trkpt lat="42.4395791" lon="14.1942674"><ele>8.0</ele><time>2026-05-03T12:01:21.004Z</time></trkpt><trkpt lat="42.4394914" lon="14.1943292"><ele>8.0</ele><time>2026-05-03T12:01:22.004Z</time></trkpt><trkpt lat="42.4394123" lon="14.1944158"><ele>8.200000000000001</ele><time>2026-05-03T12:01:23.004Z</time></trkpt><trkpt lat="42.4393399" lon="14.1945295"><ele>8.4</ele><time>2026-05-03T12:01:24.004Z</time></trkpt><trkpt lat="42.4392818" lon="14.19467"><ele>8.600000000000001</ele><time>2026-05-03T12:01:25.004Z</time></trkpt><trkpt lat="42.4392399" lon="14.194814"><ele>8.8</ele><time>2026-05-03T12:01:26.004Z</time></trkpt><trkpt lat="42.439212" lon="14.1949508"><ele>9.0</ele><time>2026-05-03T12:01:27.003Z</time></trkpt><trkpt lat="42.4391816" lon="14.1950776"><ele>9.166666666666666</ele><time>2026-05-03T12:01:28.003Z</time></trkpt><trkpt lat="42.4391482" lon="14.1951938"><ele>9.333333333333334</ele><time>2026-05-03T12:01:29.004Z</time></trkpt><trkpt lat="42.4391098" lon="14.1952957"><ele>9.5</ele><time>2026-05-03T12:01:30.003Z</time></trkpt><trkpt lat="42.4390694" lon="14.195391"><ele>9.666666666666668</ele><time>2026-05-03T12:01:31.004Z</time></trkpt><trkpt lat="42.4390156" lon="14.1954857"><ele>9.833333333333334</ele><time>2026-05-03T12:01:32.004Z</time></trkpt><trkpt lat="42.4389583" lon="14.1955764"><ele>10.0</ele><time>2026-05-03T12:01:33.004Z</time></trkpt><trkpt lat="42.438913" lon="14.1956718"><ele>10.0</ele><time>2026-05-03T12:01:34.003Z</time></trkpt><trkpt lat="42.4388892" lon="14.1957759"><ele>10.0</ele><time>2026-05-03T12:01:35.004Z</time></trkpt><trkpt lat="42.4388983" lon="14.1958713"><ele>10.0</ele><time>2026-05-03T12:01:36.003Z</time></trkpt><trkpt lat="42.438926" lon="14.1959526"><ele>10.0</ele><time>2026-05-03T12:01:37.003Z</time></trkpt><trkpt lat="42.4389868" lon="14.1960091"><ele>10.0</ele><time>2026-05-03T12:01:38.004Z</time></trkpt><trkpt lat="42.439057" lon="14.1960465"><ele>10.0</ele><time>2026-05-03T12:01:39.003Z</time></trkpt><trkpt lat="42.4391226" lon="14.1960202"><ele>10.0</ele><time>2026-05-03T12:01:40.004Z</time></trkpt><trkpt lat="42.4391793" lon="14.1959678"><ele>10.0</ele><time>2026-05-03T12:01:41.004Z</time></trkpt><trkpt lat="42.4392259" lon="14.195892"><ele>10.0</ele><time>2026-05-03T12:01:42.004Z</time></trkpt><trkpt lat="42.4392465" lon="14.1957967"><ele>10.0</ele><time>2026-05-03T12:01:43.003Z</time></trkpt><trkpt lat="42.4392378" lon="14.1956821"><ele>10.0</ele><time>2026-05-03T12:01:44.003Z</time></trkpt><trkpt lat="42.4392225" lon="14.1955592"><ele>10.0</ele><time>2026-05-03T12:01:45.003Z</time></trkpt><trkpt lat="42.4392155" lon="14.1954222"><ele>10.0</ele><time>2026-05-03T12:01:46.004Z</time></trkpt><trkpt lat="42.4392207" lon="14.1952741"><ele>10.0</ele><time>2026-05-03T12:01:47.004Z</time></trkpt><trkpt lat="42.4392337" lon="14.1951129"><ele>10.0</ele><time>2026-05-03T12:01:48.004Z</time></trkpt><trkpt lat="42.4392652" lon="14.1949444"><ele>10.0</ele><time>2026-05-03T12:01:49.004Z</time></trkpt><trkpt lat="42.4393102" lon="14.1947876"><ele>10.0</ele><time>2026-05-03T12:01:50.004Z</time></trkpt><trkpt lat="42.4393638" lon="14.1946397"><ele>9.75</ele><time>2026-05-03T12:01:51.003Z</time></trkpt><trkpt lat="42.4394324" lon="14.1945087"><ele>9.5</ele><time>2026-05-03T12:01:52.003Z</time></trkpt><trkpt lat="42.4395279" lon="14.1944047"><ele>9.25</ele><time>2026-05-03T12:01:53.004Z</time></trkpt><trkpt lat="42.4396465" lon="14.1943294"><ele>9.0</ele><time>2026-05-03T12:01:54.003Z</time></trkpt><trkpt lat="42.4397602" lon="14.1943025"><ele>8.75</ele><time>2026-05-03T12:01:55.004Z</time></trkpt><trkpt lat="42.4398921" lon="14.194298"><ele>8.5</ele><time>2026-05-03T12:01:56.004Z</time></trkpt><trkpt lat="42.4400305" lon="14.1943016"><ele>8.25</ele><time>2026-05-03T12:01:57.003Z</time></trkpt><trkpt lat="42.4401731" lon="14.1943053"><ele>8.0</ele><time>2026-05-03T12:01:58.004Z</time></trkpt><trkpt lat="42.4403112" lon="14.1943057"><ele>8.0</ele><time>2026-05-03T12:01:59.004Z</time></trkpt><trkpt lat="42.4404482" lon="14.1943015"><ele>8.0</ele><time>2026-05-03T12:02:00.003Z</time></trkpt><trkpt lat="42.4405913" lon="14.1942941"><ele>8.0</ele><time>2026-05-03T12:02:01.003Z</time></trkpt><trkpt lat="42.4407356" lon="14.1942838"><ele>8.0</ele><time>2026-05-03T12:02:02.004Z</time></trkpt><trkpt lat="42.440876" lon="14.1942789"><ele>8.0</ele><time>2026-05-03T12:02:03.004Z</time></trkpt><trkpt lat="42.4410096" lon="14.1942786"><ele>8.0</ele><time>2026-05-03T12:02:04.003Z</time></trkpt><trkpt lat="42.4411317" lon="14.19429"><ele>8.0</ele><time>2026-05-03T12:02:05.003Z</time></trkpt><trkpt lat="42.4412362" lon="14.1943154"><ele>8.0</ele><time>2026-05-03T12:02:06.003Z</time></trkpt><trkpt lat="42.4413389" lon="14.1943411"><ele>8.0</ele><time>2026-05-03T12:02:07.004Z</time></trkpt><trkpt lat="42.4414459" lon="14.1943835"><ele>8.0</ele><time>2026-05-03T12:02:08.004Z</time></trkpt><trkpt lat="42.4415563" lon="14.1944552"><ele>8.0</ele><time>2026-05-03T12:02:09.004Z</time></trkpt><trkpt lat="42.4416586" lon="14.1945502"><ele>8.0</ele><time>2026-05-03T12:02:10.003Z</time></trkpt><trkpt lat="42.44176" lon="14.1946601"><ele>8.0</ele><time>2026-05-03T12:02:11.004Z</time></trkpt><trkpt lat="42.4418681" lon="14.1947827"><ele>8.0</ele><time>2026-05-03T12:02:12.004Z</time></trkpt><trkpt lat="42.4419869" lon="14.194913"><ele>8.0</ele><time>2026-05-03T12:02:13.003Z</time></trkpt><trkpt lat="42.4421058" lon="14.1950529"><ele>7.5</ele><time>2026-05-03T12:02:14.004Z</time></trkpt><trkpt lat="42.4422264" lon="14.1951784"><ele>7.0</ele><time>2026-05-03T12:02:15.003Z</time></trkpt><trkpt lat="42.4423413" lon="14.1952846"><ele>6.5</ele><time>2026-05-03T12:02:16.004Z</time></trkpt><trkpt lat="42.4424548" lon="14.1953637"><ele>6.0</ele><time>2026-05-03T12:02:17.004Z</time></trkpt><trkpt lat="42.4425826" lon="14.1954074"><ele>6.0</ele><time>2026-05-03T12:02:18.004Z</time></trkpt><trkpt lat="42.4427063" lon="14.1954227"><ele>6.0</ele><time>2026-05-03T12:02:19.003Z</time></trkpt><trkpt lat="42.4428379" lon="14.195381"><ele>6.0</ele><time>2026-05-03T12:02:20.004Z</time></trkpt><trkpt lat="42.4429536" lon="14.1953066"><ele>6.0</ele><time>2026-05-03T12:02:21.003Z</time></trkpt><trkpt lat="42.443059" lon="14.1951974"><ele>6.25</ele><time>2026-05-03T12:02:22.003Z</time></trkpt><trkpt lat="42.4431374" lon="14.1950427"><ele>6.5</ele><time>2026-05-03T12:02:23.004Z</time></trkpt><trkpt lat="42.4431713" lon="14.1948746"><ele>6.75</ele><time>2026-05-03T12:02:24.003Z</time></trkpt><trkpt lat="42.4431807" lon="14.1946985"><ele>7.0</ele><time>2026-05-03T12:02:25.004Z</time></trkpt><trkpt lat="42.4431606" lon="14.1945204"><ele>7.25</ele><time>2026-05-03T12:02:26.003Z</time></trkpt><trkpt lat="42.4431131" lon="14.1943473"><ele>7.5</ele><time>2026-05-03T12:02:27.004Z</time></trkpt><trkpt lat="42.4430595" lon="14.1941758"><ele>7.75</ele><time>2026-05-03T12:02:28.004Z</time></trkpt><trkpt lat="42.4430187" lon="14.1940012"><ele>8.0</ele><time>2026-05-03T12:02:29.004Z</time></trkpt><trkpt lat="42.4430001" lon="14.1938079"><ele>8.0</ele><time>2026-05-03T12:02:30.004Z</time></trkpt><trkpt lat="42.4429972" lon="14.1936114"><ele>8.0</ele><time>2026-05-03T12:02:31.004Z</time></trkpt><trkpt lat="42.4430062" lon="14.193418"><ele>8.0</ele><time>2026-05-03T12:02:32.003Z</time></trkpt><trkpt lat="42.4430406" lon="14.1932356"><ele>8.0</ele><time>2026-05-03T12:02:33.003Z</time></trkpt><trkpt lat="42.4431038" lon="14.1930594"><ele>8.25</ele><time>2026-05-03T12:02:34.003Z</time></trkpt><trkpt lat="42.4431806" lon="14.1928953"><ele>8.5</ele><time>2026-05-03T12:02:35.004Z</time></trkpt><trkpt lat="42.4432708" lon="14.1927354"><ele>8.75</ele><time>2026-05-03T12:02:36.004Z</time></trkpt><trkpt lat="42.4433656" lon="14.192579"><ele>9.0</ele><time>2026-05-03T12:02:37.004Z</time></trkpt><trkpt lat="42.4434581" lon="14.1924265"><ele>9.0</ele><time>2026-05-03T12:02:38.003Z</time></trkpt><trkpt lat="42.4435475" lon="14.192267"><ele>9.0</ele><time>2026-05-03T12:02:39.004Z</time></trkpt><trkpt lat="42.4436358" lon="14.1921027"><ele>9.0</ele><time>2026-05-03T12:02:40.003Z</time></trkpt><trkpt lat="42.4437307" lon="14.1919297"><ele>9.333333333333334</ele><time>2026-05-03T12:02:41.003Z</time></trkpt><trkpt lat="42.4438331" lon="14.1917522"><ele>9.666666666666668</ele><time>2026-05-03T12:02:42.003Z</time></trkpt><trkpt lat="42.4439427" lon="14.1915657"><ele>10.0</ele><time>2026-05-03T12:02:43.003Z</time></trkpt><trkpt lat="42.4440633" lon="14.1913678"><ele>10.666666666666668</ele><time>2026-05-03T12:02:44.003Z</time></trkpt><trkpt lat="42.4441911" lon="14.1911612"><ele>11.333333333333334</ele><time>2026-05-03T12:02:45.003Z</time></trkpt><trkpt lat="42.4443196" lon="14.1909436"><ele>12.0</ele><time>2026-05-03T12:02:46.004Z</time></trkpt><trkpt lat="42.4444458" lon="14.1907312"><ele>12.0</ele><time>2026-05-03T12:02:47.004Z</time></trkpt><trkpt lat="42.4445793" lon="14.1905233"><ele>12.0</ele><time>2026-05-03T12:02:48.003Z</time></trkpt><trkpt lat="42.4447092" lon="14.1903125"><ele>12.0</ele><time>2026-05-03T12:02:49.003Z</time></trkpt><trkpt lat="42.4448307" lon="14.1901132"><ele>12.0</ele><time>2026-05-03T12:02:50.003Z</time></trkpt><trkpt lat="42.4449434" lon="14.1899161"><ele>12.0</ele><time>2026-05-03T12:02:51.003Z</time></trkpt><trkpt lat="42.4450594" lon="14.1897275"><ele>12.0</ele><time>2026-05-03T12:02:52.003Z</time></trkpt><trkpt lat="42.4451712" lon="14.1895466"><ele>12.333333333333332</ele><time>2026-05-03T12:02:53.004Z</time></trkpt><trkpt lat="42.4452829" lon="14.1893603"><ele>12.666666666666666</ele><time>2026-05-03T12:02:54.003Z</time></trkpt><trkpt lat="42.4453955" lon="14.1891736"><ele>13.0</ele><time>2026-05-03T12:02:55.004Z</time></trkpt><trkpt lat="42.4455094" lon="14.1889879"><ele>13.0</ele><time>2026-05-03T12:02:56.004Z</time></trkpt><trkpt lat="42.4456226" lon="14.1888005"><ele>13.0</ele><time>2026-05-03T12:02:57.004Z</time></trkpt><trkpt lat="42.4457394" lon="14.1886113"><ele>13.0</ele><time>2026-05-03T12:02:58.003Z</time></trkpt><trkpt lat="42.4458541" lon="14.1884264"><ele>13.0</ele><time>2026-05-03T12:02:59.003Z</time></trkpt><trkpt lat="42.4459696" lon="14.1882363"><ele>13.0</ele><time>2026-05-03T12:03:00.004Z</time></trkpt><trkpt lat="42.4460856" lon="14.1880479"><ele>13.0</ele><time>2026-05-03T12:03:01.004Z</time></trkpt><trkpt lat="42.4462004" lon="14.1878617"><ele>12.666666666666666</ele><time>2026-05-03T12:03:02.004Z</time></trkpt><trkpt lat="42.4463149" lon="14.187671"><ele>12.333333333333332</ele><time>2026-05-03T12:03:03.003Z</time></trkpt><trkpt lat="42.4464257" lon="14.1874841"><ele>12.0</ele><time>2026-05-03T12:03:04.004Z</time></trkpt><trkpt lat="42.4465359" lon="14.1872998"><ele>11.333333333333334</ele><time>2026-05-03T12:03:05.004Z</time></trkpt><trkpt lat="42.4466541" lon="14.1871093"><ele>10.666666666666668</ele><time>2026-05-03T12:03:06.003Z</time></trkpt><trkpt lat="42.4467694" lon="14.1869151"><ele>10.0</ele><time>2026-05-03T12:03:07.004Z</time></trkpt><trkpt lat="42.4468844" lon="14.18672"><ele>10.0</ele><time>2026-05-03T12:03:08.003Z</time></trkpt><trkpt lat="42.4469981" lon="14.1865215"><ele>10.0</ele><time>2026-05-03T12:03:09.003Z</time></trkpt><trkpt lat="42.4471141" lon="14.1863223"><ele>10.0</ele><time>2026-05-03T12:03:10.004Z</time></trkpt><trkpt lat="42.4472294" lon="14.1861259"><ele>11.0</ele><time>2026-05-03T12:03:11.003Z</time></trkpt><trkpt lat="42.4473419" lon="14.1859386"><ele>12.0</ele><time>2026-05-03T12:03:12.004Z</time></trkpt><trkpt lat="42.4474582" lon="14.1857467"><ele>13.0</ele><time>2026-05-03T12:03:13.003Z</time></trkpt><trkpt lat="42.4475751" lon="14.1855586"><ele>13.333333333333332</ele><time>2026-05-03T12:03:14.003Z</time></trkpt><trkpt lat="42.4476884" lon="14.1853692"><ele>13.666666666666668</ele><time>2026-05-03T12:03:15.004Z</time></trkpt><trkpt lat="42.4478022" lon="14.1851817"><ele>14.0</ele><time>2026-05-03T12:03:16.004Z</time></trkpt><trkpt lat="42.4479155" lon="14.1849932"><ele>13.666666666666668</ele><time>2026-05-03T12:03:17.004Z</time></trkpt><trkpt lat="42.448031" lon="14.1848014"><ele>13.333333333333332</ele><time>2026-05-03T12:03:18.004Z</time></trkpt><trkpt lat="42.4481439" lon="14.1846099"><ele>13.0</ele><time>2026-05-03T12:03:19.003Z</time></trkpt><trkpt lat="42.4482569" lon="14.1844213"><ele>13.0</ele><time>2026-05-03T12:03:20.004Z</time></trkpt><trkpt lat="42.4483715" lon="14.184231"><ele>13.0</ele><time>2026-05-03T12:03:21.004Z</time></trkpt><trkpt lat="42.4484841" lon="14.1840413"><ele>13.0</ele><time>2026-05-03T12:03:22.004Z</time></trkpt><trkpt lat="42.4486001" lon="14.1838468"><ele>13.0</ele><time>2026-05-03T12:03:23.003Z</time></trkpt><trkpt lat="42.4487145" lon="14.183658"><ele>13.0</ele><time>2026-05-03T12:03:24.003Z</time></trkpt><trkpt lat="42.4488306" lon="14.1834665"><ele>13.0</ele><time>2026-05-03T12:03:25.004Z</time></trkpt><trkpt lat="42.4489518" lon="14.1832817"><ele>14.0</ele><time>2026-05-03T12:03:26.003Z</time></trkpt><trkpt lat="42.4490732" lon="14.183103"><ele>15.0</ele><time>2026-05-03T12:03:27.003Z</time></trkpt><trkpt lat="42.4491954" lon="14.1829288"><ele>16.0</ele><time>2026-05-03T12:03:28.003Z</time></trkpt><trkpt lat="42.4493209" lon="14.1827542"><ele>16.0</ele><time>2026-05-03T12:03:29.003Z</time></trkpt><trkpt lat="42.4494517" lon="14.1825836"><ele>16.0</ele><time>2026-05-03T12:03:30.004Z</time></trkpt><trkpt lat="42.4495856" lon="14.1824196"><ele>16.0</ele><time>2026-05-03T12:03:31.004Z</time></trkpt><trkpt lat="42.4497248" lon="14.1822514"><ele>16.666666666666664</ele><time>2026-05-03T12:03:32.004Z</time></trkpt><trkpt lat="42.4498648" lon="14.1820891"><ele>17.333333333333332</ele><time>2026-05-03T12:03:33.004Z</time></trkpt><trkpt lat="42.4500081" lon="14.18193"><ele>18.0</ele><time>2026-05-03T12:03:34.003Z</time></trkpt><trkpt lat="42.4501586" lon="14.1817771"><ele>18.0</ele><time>2026-05-03T12:03:35.003Z</time></trkpt><trkpt lat="42.4503134" lon="14.1816308"><ele>18.0</ele><time>2026-05-03T12:03:36.003Z</time></trkpt><trkpt lat="42.4504718" lon="14.1814831"><ele>18.0</ele><time>2026-05-03T12:03:37.003Z</time></trkpt><trkpt lat="42.4506332" lon="14.1813361"><ele>18.333333333333332</ele><time>2026-05-03T12:03:38.004Z</time></trkpt><trkpt lat="42.4508027" lon="14.1811921"><ele>18.666666666666664</ele><time>2026-05-03T12:03:39.004Z</time></trkpt><trkpt lat="42.4509735" lon="14.1810519"><ele>19.0</ele><time>2026-05-03T12:03:40.004Z</time></trkpt><trkpt lat="42.4511456" lon="14.1809109"><ele>18.666666666666664</ele><time>2026-05-03T12:03:41.004Z</time></trkpt><trkpt lat="42.4513128" lon="14.1807675"><ele>18.333333333333332</ele><time>2026-05-03T12:03:42.004Z</time></trkpt><trkpt lat="42.4514781" lon="14.1806148"><ele>18.0</ele><time>2026-05-03T12:03:43.004Z</time></trkpt><trkpt lat="42.4516411" lon="14.1804515"><ele>19.333333333333332</ele><time>2026-05-03T12:03:44.004Z</time></trkpt><trkpt lat="42.4517998" lon="14.1802832"><ele>20.666666666666664</ele><time>2026-05-03T12:03:45.003Z</time></trkpt><trkpt lat="42.4519518" lon="14.1801063"><ele>22.0</ele><time>2026-05-03T12:03:46.003Z</time></trkpt><trkpt lat="42.4521009" lon="14.1799199"><ele>23.333333333333332</ele><time>2026-05-03T12:03:47.003Z</time></trkpt><trkpt lat="42.4522447" lon="14.1797281"><ele>24.666666666666664</ele><time>2026-05-03T12:03:48.003Z</time></trkpt><trkpt lat="42.452381" lon="14.1795317"><ele>26.0</ele><time>2026-05-03T12:03:49.003Z</time></trkpt><trkpt lat="42.4525078" lon="14.179326"><ele>26.0</ele><time>2026-05-03T12:03:50.003Z</time></trkpt><trkpt lat="42.4526302" lon="14.1791198"><ele>26.0</ele><time>2026-05-03T12:03:51.004Z</time></trkpt><trkpt lat="42.4527468" lon="14.1789119"><ele>26.0</ele><time>2026-05-03T12:03:52.003Z</time></trkpt><trkpt lat="42.4528578" lon="14.1786984"><ele>27.333333333333332</ele><time>2026-05-03T12:03:53.003Z</time></trkpt><trkpt lat="42.4529646" lon="14.1784822"><ele>28.666666666666664</ele><time>2026-05-03T12:03:54.003Z</time></trkpt><trkpt lat="42.4530652" lon="14.1782583"><ele>30.0</ele><time>2026-05-03T12:03:55.003Z</time></trkpt><trkpt lat="42.4531678" lon="14.1780308"><ele>31.666666666666664</ele><time>2026-05-03T12:03:56.003Z</time></trkpt><trkpt lat="42.4532715" lon="14.1778083"><ele>33.33333333333333</ele><time>2026-05-03T12:03:57.004Z</time></trkpt><trkpt lat="42.4533723" lon="14.1775851"><ele>35.0</ele><time>2026-05-03T12:03:58.003Z</time></trkpt><trkpt lat="42.4534687" lon="14.1773586"><ele>34.33333333333333</ele><time>2026-05-03T12:03:59.004Z</time></trkpt><trkpt lat="42.4535702" lon="14.1771388"><ele>33.666666666666664</ele><time>2026-05-03T12:04:00.004Z</time></trkpt><trkpt lat="42.4536782" lon="14.1769223"><ele>33.0</ele><time>2026-05-03T12:04:01.003Z</time></trkpt><trkpt lat="42.4537908" lon="14.1767064"><ele>35.0</ele><time>2026-05-03T12:04:02.004Z</time></trkpt><trkpt lat="42.4539056" lon="14.1764956"><ele>37.0</ele><time>2026-05-03T12:04:03.004Z</time></trkpt><trkpt lat="42.4540255" lon="14.1762955"><ele>39.0</ele><time>2026-05-03T12:04:04.004Z</time></trkpt><trkpt lat="42.4541527" lon="14.1760974"><ele>39.0</ele><time>2026-05-03T12:04:05.003Z</time></trkpt><trkpt lat="42.4542821" lon="14.1759054"><ele>39.0</ele><time>2026-05-03T12:04:06.003Z</time></trkpt><trkpt lat="42.4544222" lon="14.1757226"><ele>39.0</ele><time>2026-05-03T12:04:07.003Z</time></trkpt><trkpt lat="42.4545687" lon="14.1755422"><ele>40.666666666666664</ele><time>2026-05-03T12:04:08.003Z</time></trkpt><trkpt lat="42.4547175" lon="14.1753673"><ele>42.33333333333333</ele><time>2026-05-03T12:04:09.003Z</time></trkpt><trkpt lat="42.4548715" lon="14.1752032"><ele>44.0</ele><time>2026-05-03T12:04:10.003Z</time></trkpt><trkpt lat="42.4550344" lon="14.1750467"><ele>44.0</ele><time>2026-05-03T12:04:11.003Z</time></trkpt><trkpt lat="42.4552037" lon="14.1748965"><ele>44.0</ele><time>2026-05-03T12:04:12.003Z</time></trkpt><trkpt lat="42.4553781" lon="14.1747535"><ele>44.0</ele><time>2026-05-03T12:04:13.003Z</time></trkpt><trkpt lat="42.4555512" lon="14.1746219"><ele>45.33333333333333</ele><time>2026-05-03T12:04:14.003Z</time></trkpt><trkpt lat="42.4557297" lon="14.1745073"><ele>46.666666666666664</ele><time>2026-05-03T12:04:15.004Z</time></trkpt><trkpt lat="42.455909" lon="14.1743961"><ele>48.0</ele><time>2026-05-03T12:04:16.004Z</time></trkpt><trkpt lat="42.4560917" lon="14.1742977"><ele>48.0</ele><time>2026-05-03T12:04:17.004Z</time></trkpt><trkpt lat="42.4562787" lon="14.174207"><ele>48.0</ele><time>2026-05-03T12:04:18.003Z</time></trkpt><trkpt lat="42.4564705" lon="14.1741199"><ele>48.0</ele><time>2026-05-03T12:04:19.003Z</time></trkpt><trkpt lat="42.456658" lon="14.1740502"><ele>50.0</ele><time>2026-05-03T12:04:20.003Z</time></trkpt><trkpt lat="42.4568509" lon="14.1739853"><ele>52.0</ele><time>2026-05-03T12:04:21.003Z</time></trkpt><trkpt lat="42.457046" lon="14.1739323"><ele>54.0</ele><time>2026-05-03T12:04:22.003Z</time></trkpt><trkpt lat="42.4572444" lon="14.1738927"><ele>54.33333333333333</ele><time>2026-05-03T12:04:23.003Z</time></trkpt><trkpt lat="42.4574421" lon="14.1738551"><ele>54.666666666666664</ele><time>2026-05-03T12:04:24.003Z</time></trkpt><trkpt lat="42.4576418" lon="14.1738408"><ele>55.0</ele><time>2026-05-03T12:04:25.004Z</time></trkpt><trkpt lat="42.4578405" lon="14.1738286"><ele>56.0</ele><time>2026-05-03T12:04:26.003Z</time></trkpt><trkpt lat="42.458046" lon="14.173825"><ele>57.0</ele><time>2026-05-03T12:04:27.003Z</time></trkpt><trkpt lat="42.4582495" lon="14.173831"><ele>58.0</ele><time>2026-05-03T12:04:28.003Z</time></trkpt><trkpt lat="42.4584553" lon="14.1738431"><ele>58.0</ele><time>2026-05-03T12:04:29.003Z</time></trkpt><trkpt lat="42.4586637" lon="14.173864"><ele>58.0</ele><time>2026-05-03T12:04:30.003Z</time></trkpt><trkpt lat="42.4588674" lon="14.1738926"><ele>58.0</ele><time>2026-05-03T12:04:31.004Z</time></trkpt><trkpt lat="42.4590756" lon="14.173919"><ele>57.666666666666664</ele><time>2026-05-03T12:04:32.003Z</time></trkpt><trkpt lat="42.4592839" lon="14.1739457"><ele>57.33333333333333</ele><time>2026-05-03T12:04:33.003Z</time></trkpt><trkpt lat="42.4594962" lon="14.1739683"><ele>57.0</ele><time>2026-05-03T12:04:34.004Z</time></trkpt><trkpt lat="42.4597041" lon="14.1739937"><ele>57.0</ele><time>2026-05-03T12:04:35.003Z</time></trkpt><trkpt lat="42.4599199" lon="14.1740079"><ele>57.0</ele><time>2026-05-03T12:04:36.003Z</time></trkpt><trkpt lat="42.4601344" lon="14.1740102"><ele>57.0</ele><time>2026-05-03T12:04:37.003Z</time></trkpt><trkpt lat="42.4603403" lon="14.1739934"><ele>53.333333333333336</ele><time>2026-05-03T12:04:38.003Z</time></trkpt><trkpt lat="42.4605558" lon="14.1739803"><ele>49.66666666666667</ele><time>2026-05-03T12:04:39.003Z</time></trkpt><trkpt lat="42.4607678" lon="14.173962"><ele>46.0</ele><time>2026-05-03T12:04:40.003Z</time></trkpt><trkpt lat="42.4609759" lon="14.1739358"><ele>46.0</ele><time>2026-05-03T12:04:41.003Z</time></trkpt><trkpt lat="42.4611817" lon="14.1738945"><ele>46.0</ele><time>2026-05-03T12:04:42.003Z</time></trkpt><trkpt lat="42.4613869" lon="14.1738424"><ele>46.0</ele><time>2026-05-03T12:04:43.004Z</time></trkpt><trkpt lat="42.4615913" lon="14.1737754"><ele>41.66666666666667</ele><time>2026-05-03T12:04:44.003Z</time></trkpt><trkpt lat="42.4617931" lon="14.1737031"><ele>37.333333333333336</ele><time>2026-05-03T12:04:45.003Z</time></trkpt><trkpt lat="42.4619939" lon="14.1736198"><ele>33.0</ele><time>2026-05-03T12:04:46.003Z</time></trkpt><trkpt lat="42.4621904" lon="14.1735238"><ele>31.666666666666664</ele><time>2026-05-03T12:04:47.003Z</time></trkpt><trkpt lat="42.4623869" lon="14.1734215"><ele>30.333333333333332</ele><time>2026-05-03T12:04:48.003Z</time></trkpt><trkpt lat="42.4625742" lon="14.1733068"><ele>29.0</ele><time>2026-05-03T12:04:49.003Z</time></trkpt><trkpt lat="42.4627598" lon="14.1731805"><ele>29.0</ele><time>2026-05-03T12:04:50.004Z</time></trkpt><trkpt lat="42.4629415" lon="14.1730488"><ele>29.0</ele><time>2026-05-03T12:04:51.003Z</time></trkpt><trkpt lat="42.4631194" lon="14.1729069"><ele>29.0</ele><time>2026-05-03T12:04:52.004Z</time></trkpt><trkpt lat="42.4632925" lon="14.1727585"><ele>29.0</ele><time>2026-05-03T12:04:53.004Z</time></trkpt><trkpt lat="42.4634626" lon="14.1725929"><ele>29.0</ele><time>2026-05-03T12:04:54.004Z</time></trkpt><trkpt lat="42.4636294" lon="14.1724254"><ele>29.0</ele><time>2026-05-03T12:04:55.004Z</time></trkpt><trkpt lat="42.4637911" lon="14.1722476"><ele>30.0</ele><time>2026-05-03T12:04:56.003Z</time></trkpt><trkpt lat="42.4639455" lon="14.1720594"><ele>31.0</ele><time>2026-05-03T12:04:57.004Z</time></trkpt><trkpt lat="42.4640985" lon="14.1718626"><ele>32.0</ele><time>2026-05-03T12:04:58.003Z</time></trkpt><trkpt lat="42.4642447" lon="14.1716571"><ele>32.0</ele><time>2026-05-03T12:04:59.004Z</time></trkpt><trkpt lat="42.4643823" lon="14.1714477"><ele>32.0</ele><time>2026-05-03T12:05:00.003Z</time></trkpt><trkpt lat="42.4645172" lon="14.1712284"><ele>32.0</ele><time>2026-05-03T12:05:01.004Z</time></trkpt><trkpt lat="42.4646439" lon="14.1709976"><ele>32.0</ele><time>2026-05-03T12:05:02.003Z</time></trkpt><trkpt lat="42.4647651" lon="14.1707675"><ele>32.0</ele><time>2026-05-03T12:05:03.003Z</time></trkpt><trkpt lat="42.4648813" lon="14.1705327"><ele>32.0</ele><time>2026-05-03T12:05:04.003Z</time></trkpt><trkpt lat="42.4649861" lon="14.1702988"><ele>32.666666666666664</ele><time>2026-05-03T12:05:05.003Z</time></trkpt><trkpt lat="42.4650934" lon="14.1700601"><ele>33.333333333333336</ele><time>2026-05-03T12:05:06.004Z</time></trkpt><trkpt lat="42.4652016" lon="14.1698184"><ele>34.0</ele><time>2026-05-03T12:05:07.004Z</time></trkpt><trkpt lat="42.4653077" lon="14.1695734"><ele>34.66666666666667</ele><time>2026-05-03T12:05:08.004Z</time></trkpt><trkpt lat="42.465408" lon="14.1693238"><ele>35.333333333333336</ele><time>2026-05-03T12:05:09.003Z</time></trkpt><trkpt lat="42.4655125" lon="14.169091"><ele>36.0</ele><time>2026-05-03T12:05:10.004Z</time></trkpt><trkpt lat="42.4656314" lon="14.1688604"><ele>36.666666666666664</ele><time>2026-05-03T12:05:11.004Z</time></trkpt><trkpt lat="42.4657533" lon="14.1686402"><ele>37.33333333333333</ele><time>2026-05-03T12:05:12.004Z</time></trkpt><trkpt lat="42.4658782" lon="14.1684207"><ele>38.0</ele><time>2026-05-03T12:05:13.003Z</time></trkpt><trkpt lat="42.4660102" lon="14.1682069"><ele>37.666666666666664</ele><time>2026-05-03T12:05:14.004Z</time></trkpt><trkpt lat="42.4661489" lon="14.1680101"><ele>37.333333333333336</ele><time>2026-05-03T12:05:15.004Z</time></trkpt><trkpt lat="42.4662974" lon="14.1678182"><ele>37.0</ele><time>2026-05-03T12:05:16.004Z</time></trkpt><trkpt lat="42.4664485" lon="14.1676417"><ele>38.0</ele><time>2026-05-03T12:05:17.004Z</time></trkpt><trkpt lat="42.4666116" lon="14.1674791"><ele>39.0</ele><time>2026-05-03T12:05:18.004Z</time></trkpt><trkpt lat="42.4667803" lon="14.167328"><ele>40.0</ele><time>2026-05-03T12:05:19.004Z</time></trkpt><trkpt lat="42.4669561" lon="14.1671873"><ele>43.333333333333336</ele><time>2026-05-03T12:05:20.003Z</time></trkpt><trkpt lat="42.4671337" lon="14.1670613"><ele>46.66666666666667</ele><time>2026-05-03T12:05:21.003Z</time></trkpt><trkpt lat="42.467312" lon="14.1669506"><ele>50.0</ele><time>2026-05-03T12:05:22.003Z</time></trkpt><trkpt lat="42.4674912" lon="14.166846"><ele>50.0</ele><time>2026-05-03T12:05:23.004Z</time></trkpt><trkpt lat="42.4676746" lon="14.1667624"><ele>50.0</ele><time>2026-05-03T12:05:24.003Z</time></trkpt><trkpt lat="42.4678662" lon="14.1667031"><ele>50.0</ele><time>2026-05-03T12:05:25.004Z</time></trkpt><trkpt lat="42.4680555" lon="14.1666551"><ele>50.66666666666667</ele><time>2026-05-03T12:05:26.003Z</time></trkpt><trkpt lat="42.4682519" lon="14.1666297"><ele>51.33333333333333</ele><time>2026-05-03T12:05:27.004Z</time></trkpt><trkpt lat="42.4684491" lon="14.1666158"><ele>52.0</ele><time>2026-05-03T12:05:28.003Z</time></trkpt><trkpt lat="42.4686442" lon="14.1666052"><ele>53.0</ele><time>2026-05-03T12:05:29.004Z</time></trkpt><trkpt lat="42.4688373" lon="14.1666072"><ele>54.0</ele><time>2026-05-03T12:05:30.003Z</time></trkpt><trkpt lat="42.4690302" lon="14.1666254"><ele>55.0</ele><time>2026-05-03T12:05:31.003Z</time></trkpt><trkpt lat="42.4692245" lon="14.166657"><ele>55.0</ele><time>2026-05-03T12:05:32.002Z</time></trkpt><trkpt lat="42.4694162" lon="14.1666984"><ele>55.0</ele><time>2026-05-03T12:05:33.002Z</time></trkpt><trkpt lat="42.4696057" lon="14.1667428"><ele>55.0</ele><time>2026-05-03T12:05:34.003Z</time></trkpt><trkpt lat="42.4697996" lon="14.1667943"><ele>57.0</ele><time>2026-05-03T12:05:35.003Z</time></trkpt><trkpt lat="42.4699934" lon="14.1668469"><ele>59.0</ele><time>2026-05-03T12:05:36.002Z</time></trkpt><trkpt lat="42.4701872" lon="14.1669067"><ele>61.0</ele><time>2026-05-03T12:05:37.003Z</time></trkpt><trkpt lat="42.4703845" lon="14.1669632"><ele>63.666666666666664</ele><time>2026-05-03T12:05:38.002Z</time></trkpt><trkpt lat="42.470585" lon="14.1670202"><ele>66.33333333333333</ele><time>2026-05-03T12:05:39.002Z</time></trkpt><trkpt lat="42.470782" lon="14.1670733"><ele>69.0</ele><time>2026-05-03T12:05:40.002Z</time></trkpt><trkpt lat="42.47098" lon="14.1671258"><ele>69.0</ele><time>2026-05-03T12:05:41.002Z</time></trkpt><trkpt lat="42.4711808" lon="14.1671707"><ele>69.0</ele><time>2026-05-03T12:05:42.003Z</time></trkpt><trkpt lat="42.4713782" lon="14.1672139"><ele>69.0</ele><time>2026-05-03T12:05:43.003Z</time></trkpt><trkpt lat="42.4715751" lon="14.167245"><ele>71.0</ele><time>2026-05-03T12:05:44.002Z</time></trkpt><trkpt lat="42.4717727" lon="14.1672677"><ele>73.0</ele><time>2026-05-03T12:05:45.003Z</time></trkpt><trkpt lat="42.4719668" lon="14.1672906"><ele>75.0</ele><time>2026-05-03T12:05:46.002Z</time></trkpt><trkpt lat="42.4723598" lon="14.1673158"><ele>75.0</ele><time>2026-05-03T12:05:48.003Z</time></trkpt><trkpt lat="42.4846032" lon="14.165673"><ele>75.0</ele><time>2026-05-03T12:06:48.003Z</time></trkpt><trkpt lat="42.4847927" lon="14.1655662"><ele>75.0</ele><time>2026-05-03T12:06:49.003Z</time></trkpt><trkpt lat="42.4849947" lon="14.1655209"><ele>75.0</ele><time>2026-05-03T12:06:50.003Z</time></trkpt><trkpt lat="42.4851773" lon="14.1654705"><ele>75.0</ele><time>2026-05-03T12:06:51.003Z</time></trkpt><trkpt lat="42.4853336" lon="14.1654013"><ele>75.0</ele><time>2026-05-03T12:06:52.003Z</time></trkpt><trkpt lat="42.4854833" lon="14.1653326"><ele>75.0</ele><time>2026-05-03T12:06:53.003Z</time></trkpt><trkpt lat="42.4856238" lon="14.1652412"><ele>70.66666666666667</ele><time>2026-05-03T12:06:54.003Z</time></trkpt><trkpt lat="42.4857648" lon="14.1651537"><ele>66.33333333333334</ele><time>2026-05-03T12:06:55.002Z</time></trkpt><trkpt lat="42.4859127" lon="14.1650664"><ele>62.0</ele><time>2026-05-03T12:06:56.002Z</time></trkpt><trkpt lat="42.4860586" lon="14.1649728"><ele>62.0</ele><time>2026-05-03T12:06:57.002Z</time></trkpt><trkpt lat="42.4862069" lon="14.1648734"><ele>62.0</ele><time>2026-05-03T12:06:58.003Z</time></trkpt><trkpt lat="42.4863581" lon="14.1647679"><ele>62.0</ele><time>2026-05-03T12:06:59.002Z</time></trkpt><trkpt lat="42.4865153" lon="14.1646646"><ele>58.66666666666667</ele><time>2026-05-03T12:07:00.002Z</time></trkpt><trkpt lat="42.4866774" lon="14.1645713"><ele>55.33333333333333</ele><time>2026-05-03T12:07:01.002Z</time></trkpt><trkpt lat="42.4868414" lon="14.1644751"><ele>52.0</ele><time>2026-05-03T12:07:02.003Z</time></trkpt><trkpt lat="42.487004" lon="14.1643835"><ele>48.0</ele><time>2026-05-03T12:07:03.003Z</time></trkpt><trkpt lat="42.4871693" lon="14.1642965"><ele>44.0</ele><time>2026-05-03T12:07:04.003Z</time></trkpt><trkpt lat="42.4873346" lon="14.1642182"><ele>40.0</ele><time>2026-05-03T12:07:05.003Z</time></trkpt><trkpt lat="42.4874983" lon="14.1641357"><ele>40.0</ele><time>2026-05-03T12:07:06.003Z</time></trkpt><trkpt lat="42.4876634" lon="14.164051"><ele>40.0</ele><time>2026-05-03T12:07:07.003Z</time></trkpt><trkpt lat="42.487829" lon="14.1639504"><ele>40.0</ele><time>2026-05-03T12:07:08.002Z</time></trkpt><trkpt lat="42.4879919" lon="14.1638589"><ele>44.0</ele><time>2026-05-03T12:07:09.002Z</time></trkpt><trkpt lat="42.4881554" lon="14.1637629"><ele>48.0</ele><time>2026-05-03T12:07:10.002Z</time></trkpt><trkpt lat="42.4883165" lon="14.1636651"><ele>52.0</ele><time>2026-05-03T12:07:11.003Z</time></trkpt><trkpt lat="42.4884626" lon="14.1635773"><ele>52.0</ele><time>2026-05-03T12:07:12.002Z</time></trkpt><trkpt lat="42.4887415" lon="14.1633973"><ele>52.0</ele><time>2026-05-03T12:07:14.002Z</time></trkpt><trkpt lat="42.4984575" lon="14.1461564"><ele>51.33333333333333</ele><time>2026-05-03T12:08:53.002Z</time></trkpt><trkpt lat="42.4985245" lon="14.1459267"><ele>50.66666666666667</ele><time>2026-05-03T12:08:54.002Z</time></trkpt><trkpt lat="42.4985641" lon="14.1457146"><ele>50.0</ele><time>2026-05-03T12:08:55.002Z</time></trkpt><trkpt lat="42.4986099" lon="14.1454969"><ele>50.0</ele><time>2026-05-03T12:08:56.003Z</time></trkpt><trkpt lat="42.4986521" lon="14.1452807"><ele>50.0</ele><time>2026-05-03T12:08:57.002Z</time></trkpt><trkpt lat="42.4987019" lon="14.1450645"><ele>50.0</ele><time>2026-05-03T12:08:58.002Z</time></trkpt><trkpt lat="42.4987517" lon="14.1448478"><ele>48.0</ele><time>2026-05-03T12:08:59.002Z</time></trkpt><trkpt lat="42.498804" lon="14.144623"><ele>46.0</ele><time>2026-05-03T12:09:00.002Z</time></trkpt><trkpt lat="42.4988531" lon="14.1444107"><ele>44.0</ele><time>2026-05-03T12:09:01.002Z</time></trkpt><trkpt lat="42.4988988" lon="14.1442018"><ele>42.666666666666664</ele><time>2026-05-03T12:09:02.003Z</time></trkpt><trkpt lat="42.4989301" lon="14.1439973"><ele>41.333333333333336</ele><time>2026-05-03T12:09:03.003Z</time></trkpt><trkpt lat="42.4989448" lon="14.1437884"><ele>40.0</ele><time>2026-05-03T12:09:04.003Z</time></trkpt><trkpt lat="42.4989403" lon="14.1435771"><ele>40.0</ele><time>2026-05-03T12:09:05.003Z</time></trkpt><trkpt lat="42.498914" lon="14.1433792"><ele>40.0</ele><time>2026-05-03T12:09:06.002Z</time></trkpt><trkpt lat="42.4988702" lon="14.1431939"><ele>40.0</ele><time>2026-05-03T12:09:07.002Z</time></trkpt><trkpt lat="42.4988294" lon="14.1430096"><ele>40.0</ele><time>2026-05-03T12:09:08.003Z</time></trkpt><trkpt lat="42.4987917" lon="14.1428209"><ele>39.75</ele><time>2026-05-03T12:09:09.002Z</time></trkpt><trkpt lat="42.4987648" lon="14.1426364"><ele>39.5</ele><time>2026-05-03T12:09:10.003Z</time></trkpt><trkpt lat="42.4987632" lon="14.1424466"><ele>39.25</ele><time>2026-05-03T12:09:11.003Z</time></trkpt><trkpt lat="42.4987922" lon="14.1422776"><ele>39.0</ele><time>2026-05-03T12:09:12.002Z</time></trkpt><trkpt lat="42.4988555" lon="14.1421263"><ele>40.0</ele><time>2026-05-03T12:09:13.003Z</time></trkpt><trkpt lat="42.4989234" lon="14.141976"><ele>41.0</ele><time>2026-05-03T12:09:14.002Z</time></trkpt><trkpt lat="42.4989973" lon="14.1418334"><ele>42.0</ele><time>2026-05-03T12:09:15.003Z</time></trkpt><trkpt lat="42.4990668" lon="14.1416891"><ele>43.0</ele><time>2026-05-03T12:09:16.002Z</time></trkpt><trkpt lat="42.4991397" lon="14.1415569"><ele>45.25</ele><time>2026-05-03T12:09:17.003Z</time></trkpt><trkpt lat="42.4992221" lon="14.1414361"><ele>47.5</ele><time>2026-05-03T12:09:18.003Z</time></trkpt><trkpt lat="42.4993083" lon="14.141321"><ele>49.75</ele><time>2026-05-03T12:09:19.003Z</time></trkpt><trkpt lat="42.4993929" lon="14.1412114"><ele>52.0</ele><time>2026-05-03T12:09:20.003Z</time></trkpt><trkpt lat="42.4994868" lon="14.1411072"><ele>52.0</ele><time>2026-05-03T12:09:21.003Z</time></trkpt><trkpt lat="42.4995803" lon="14.1410143"><ele>52.0</ele><time>2026-05-03T12:09:22.003Z</time></trkpt><trkpt lat="42.4996777" lon="14.1409246"><ele>52.0</ele><time>2026-05-03T12:09:23.003Z</time></trkpt><trkpt lat="42.4997739" lon="14.1408298"><ele>52.0</ele><time>2026-05-03T12:09:24.003Z</time></trkpt><trkpt lat="42.499864" lon="14.1407239"><ele>48.75</ele><time>2026-05-03T12:09:25.002Z</time></trkpt><trkpt lat="42.4999482" lon="14.1406041"><ele>45.5</ele><time>2026-05-03T12:09:26.003Z</time></trkpt><trkpt lat="42.5000299" lon="14.1404803"><ele>42.25</ele><time>2026-05-03T12:09:27.003Z</time></trkpt><trkpt lat="42.50011" lon="14.1403569"><ele>39.0</ele><time>2026-05-03T12:09:28.003Z</time></trkpt><trkpt lat="42.5001861" lon="14.1402321"><ele>39.0</ele><time>2026-05-03T12:09:29.003Z</time></trkpt><trkpt lat="42.5002622" lon="14.140107"><ele>39.0</ele><time>2026-05-03T12:09:30.003Z</time></trkpt><trkpt lat="42.5003416" lon="14.1399821"><ele>39.0</ele><time>2026-05-03T12:09:31.002Z</time></trkpt><trkpt lat="42.5004183" lon="14.139862"><ele>39.0</ele><time>2026-05-03T12:09:32.002Z</time></trkpt><trkpt lat="42.5004914" lon="14.1397476"><ele>35.75</ele><time>2026-05-03T12:09:33.002Z</time></trkpt><trkpt lat="42.5005653" lon="14.1396281"><ele>32.5</ele><time>2026-05-03T12:09:34.003Z</time></trkpt><trkpt lat="42.5006363" lon="14.1395065"><ele>29.25</ele><time>2026-05-03T12:09:35.003Z</time></trkpt><trkpt lat="42.5007047" lon="14.1393852"><ele>26.0</ele><time>2026-05-03T12:09:36.002Z</time></trkpt><trkpt lat="42.5007705" lon="14.1392677"><ele>26.0</ele><time>2026-05-03T12:09:37.003Z</time></trkpt><trkpt lat="42.5008235" lon="14.13915"><ele>26.0</ele><time>2026-05-03T12:09:38.002Z</time></trkpt><trkpt lat="42.5008737" lon="14.1390337"><ele>26.0</ele><time>2026-05-03T12:09:39.003Z</time></trkpt><trkpt lat="42.5009283" lon="14.138916"><ele>26.0</ele><time>2026-05-03T12:09:40.003Z</time></trkpt><trkpt lat="42.5009802" lon="14.138809"><ele>26.0</ele><time>2026-05-03T12:09:41.003Z</time></trkpt><trkpt lat="42.5010304" lon="14.1387092"><ele>25.0</ele><time>2026-05-03T12:09:42.002Z</time></trkpt><trkpt lat="42.5010772" lon="14.1386097"><ele>24.0</ele><time>2026-05-03T12:09:43.003Z</time></trkpt><trkpt lat="42.5011198" lon="14.1385068"><ele>23.0</ele><time>2026-05-03T12:09:44.002Z</time></trkpt><trkpt lat="42.5011634" lon="14.138396"><ele>22.0</ele><time>2026-05-03T12:09:45.003Z</time></trkpt><trkpt lat="42.5011993" lon="14.1382639"><ele>21.0</ele><time>2026-05-03T12:09:46.003Z</time></trkpt><trkpt lat="42.5012349" lon="14.1381162"><ele>19.75</ele><time>2026-05-03T12:09:47.002Z</time></trkpt><trkpt lat="42.5012743" lon="14.1379622"><ele>18.5</ele><time>2026-05-03T12:09:48.002Z</time></trkpt><trkpt lat="42.5013116" lon="14.1378094"><ele>17.25</ele><time>2026-05-03T12:09:49.002Z</time></trkpt><trkpt lat="42.5013493" lon="14.1376558"><ele>16.0</ele><time>2026-05-03T12:09:50.002Z</time></trkpt><trkpt lat="42.5013911" lon="14.1375012"><ele>15.5</ele><time>2026-05-03T12:09:51.003Z</time></trkpt><trkpt lat="42.501434" lon="14.137341"><ele>15.0</ele><time>2026-05-03T12:09:52.003Z</time></trkpt><trkpt lat="42.5014741" lon="14.1371781"><ele>14.5</ele><time>2026-05-03T12:09:53.002Z</time></trkpt><trkpt lat="42.5015145" lon="14.1370193"><ele>14.0</ele><time>2026-05-03T12:09:54.003Z</time></trkpt><trkpt lat="42.5015542" lon="14.1368586"><ele>14.0</ele><time>2026-05-03T12:09:55.003Z</time></trkpt><trkpt lat="42.5015948" lon="14.1366912"><ele>14.0</ele><time>2026-05-03T12:09:56.003Z</time></trkpt><trkpt lat="42.501638" lon="14.1365232"><ele>14.0</ele><time>2026-05-03T12:09:57.002Z</time></trkpt><trkpt lat="42.5016846" lon="14.1363531"><ele>14.0</ele><time>2026-05-03T12:09:58.002Z</time></trkpt><trkpt lat="42.5017292" lon="14.136185"><ele>14.0</ele><time>2026-05-03T12:09:59.003Z</time></trkpt><trkpt lat="42.5017731" lon="14.1360162"><ele>14.0</ele><time>2026-05-03T12:10:00.002Z</time></trkpt><trkpt lat="42.5018146" lon="14.1358505"><ele>14.0</ele><time>2026-05-03T12:10:01.002Z</time></trkpt><trkpt lat="42.5018528" lon="14.1356961"><ele>14.0</ele><time>2026-05-03T12:10:02.002Z</time></trkpt><trkpt lat="42.501891" lon="14.1355541"><ele>14.2</ele><time>2026-05-03T12:10:03.003Z</time></trkpt><trkpt lat="42.5019269" lon="14.1354193"><ele>14.399999999999999</ele><time>2026-05-03T12:10:04.003Z</time></trkpt><trkpt lat="42.5019631" lon="14.1352896"><ele>14.6</ele><time>2026-05-03T12:10:05.003Z</time></trkpt><trkpt lat="42.5019988" lon="14.1351667"><ele>14.8</ele><time>2026-05-03T12:10:06.003Z</time></trkpt><trkpt lat="42.5020372" lon="14.1350517"><ele>15.0</ele><time>2026-05-03T12:10:07.003Z</time></trkpt><trkpt lat="42.5020738" lon="14.1349537"><ele>14.8</ele><time>2026-05-03T12:10:08.003Z</time></trkpt><trkpt lat="42.5021483" lon="14.1348363"><ele>14.6</ele><time>2026-05-03T12:10:10.002Z</time></trkpt><trkpt lat="42.5022515" lon="14.1347632"><ele>14.399999999999999</ele><time>2026-05-03T12:10:12.002Z</time></trkpt><trkpt lat="42.5023204" lon="14.1347459"><ele>14.2</ele><time>2026-05-03T12:10:13.002Z</time></trkpt><trkpt lat="42.5023988" lon="14.1347483"><ele>14.0</ele><time>2026-05-03T12:10:14.002Z</time></trkpt><trkpt lat="42.5024791" lon="14.1347721"><ele>14.000000000000002</ele><time>2026-05-03T12:10:15.002Z</time></trkpt><trkpt lat="42.5025439" lon="14.1348314"><ele>14.0</ele><time>2026-05-03T12:10:16.002Z</time></trkpt><trkpt lat="42.5026179" lon="14.1349078"><ele>14.0</ele><time>2026-05-03T12:10:17.003Z</time></trkpt><trkpt lat="42.5026824" lon="14.1350011"><ele>14.0</ele><time>2026-05-03T12:10:18.003Z</time></trkpt><trkpt lat="42.5027491" lon="14.1350828"><ele>14.000000000000002</ele><time>2026-05-03T12:10:19.002Z</time></trkpt><trkpt lat="42.5028106" lon="14.1351565"><ele>14.0</ele><time>2026-05-03T12:10:20.002Z</time></trkpt><trkpt lat="42.5028665" lon="14.135228"><ele>13.666666666666668</ele><time>2026-05-03T12:10:21.003Z</time></trkpt><trkpt lat="42.5029236" lon="14.1352834"><ele>13.333333333333334</ele><time>2026-05-03T12:10:22.002Z</time></trkpt><trkpt lat="42.5029865" lon="14.1353423"><ele>13.0</ele><time>2026-05-03T12:10:23.003Z</time></trkpt><trkpt lat="42.5030533" lon="14.1354029"><ele>12.666666666666668</ele><time>2026-05-03T12:10:24.002Z</time></trkpt><trkpt lat="42.5031291" lon="14.1354669"><ele>12.333333333333334</ele><time>2026-05-03T12:10:25.003Z</time></trkpt><trkpt lat="42.5032124" lon="14.1355431"><ele>12.0</ele><time>2026-05-03T12:10:26.002Z</time></trkpt><trkpt lat="42.5032929" lon="14.1356359"><ele>12.399999999999999</ele><time>2026-05-03T12:10:27.002Z</time></trkpt><trkpt lat="42.5033735" lon="14.1357308"><ele>12.799999999999999</ele><time>2026-05-03T12:10:28.002Z</time></trkpt><trkpt lat="42.5034515" lon="14.1358199"><ele>13.2</ele><time>2026-05-03T12:10:29.003Z</time></trkpt><trkpt lat="42.503534" lon="14.1359106"><ele>13.6</ele><time>2026-05-03T12:10:30.002Z</time></trkpt><trkpt lat="42.5036201" lon="14.1360002"><ele>14.0</ele><time>2026-05-03T12:10:31.002Z</time></trkpt><trkpt lat="42.5037077" lon="14.1361021"><ele>13.0</ele><time>2026-05-03T12:10:32.003Z</time></trkpt><trkpt lat="42.5038" lon="14.1361975"><ele>12.0</ele><time>2026-05-03T12:10:33.003Z</time></trkpt><trkpt lat="42.5038942" lon="14.1362986"><ele>11.0</ele><time>2026-05-03T12:10:34.002Z</time></trkpt><trkpt lat="42.5039932" lon="14.136404"><ele>10.0</ele><time>2026-05-03T12:10:35.002Z</time></trkpt><trkpt lat="42.5040949" lon="14.1365063"><ele>10.75</ele><time>2026-05-03T12:10:36.003Z</time></trkpt><trkpt lat="42.5041898" lon="14.1366055"><ele>11.5</ele><time>2026-05-03T12:10:37.002Z</time></trkpt><trkpt lat="42.5042776" lon="14.1367093"><ele>12.25</ele><time>2026-05-03T12:10:38.002Z</time></trkpt><trkpt lat="42.5043667" lon="14.1368026"><ele>13.0</ele><time>2026-05-03T12:10:39.002Z</time></trkpt><trkpt lat="42.5044602" lon="14.1369067"><ele>13.0</ele><time>2026-05-03T12:10:40.003Z</time></trkpt><trkpt lat="42.5045532" lon="14.1370115"><ele>13.0</ele><time>2026-05-03T12:10:41.003Z</time></trkpt><trkpt lat="42.504652" lon="14.1371113"><ele>13.0</ele><time>2026-05-03T12:10:42.003Z</time></trkpt><trkpt lat="42.5047573" lon="14.1372191"><ele>13.0</ele><time>2026-05-03T12:10:43.003Z</time></trkpt><trkpt lat="42.5048575" lon="14.1373317"><ele>13.0</ele><time>2026-05-03T12:10:44.002Z</time></trkpt><trkpt lat="42.5049604" lon="14.1374452"><ele>13.0</ele><time>2026-05-03T12:10:45.003Z</time></trkpt><trkpt lat="42.5050637" lon="14.1375566"><ele>13.0</ele><time>2026-05-03T12:10:46.003Z</time></trkpt><trkpt lat="42.5051667" lon="14.1376697"><ele>13.0</ele><time>2026-05-03T12:10:47.003Z</time></trkpt><trkpt lat="42.5052686" lon="14.1377806"><ele>13.0</ele><time>2026-05-03T12:10:48.003Z</time></trkpt><trkpt lat="42.5053693" lon="14.1378868"><ele>13.0</ele><time>2026-05-03T12:10:49.003Z</time></trkpt><trkpt lat="42.5054656" lon="14.1379907"><ele>13.0</ele><time>2026-05-03T12:10:50.002Z</time></trkpt><trkpt lat="42.5055642" lon="14.1381038"><ele>13.0</ele><time>2026-05-03T12:10:51.002Z</time></trkpt><trkpt lat="42.5056612" lon="14.1382114"><ele>12.5</ele><time>2026-05-03T12:10:52.002Z</time></trkpt><trkpt lat="42.5057603" lon="14.1383209"><ele>12.0</ele><time>2026-05-03T12:10:53.002Z</time></trkpt><trkpt lat="42.5058605" lon="14.1384385"><ele>11.5</ele><time>2026-05-03T12:10:54.003Z</time></trkpt><trkpt lat="42.5059575" lon="14.1385485"><ele>11.0</ele><time>2026-05-03T12:10:55.003Z</time></trkpt><trkpt lat="42.5060604" lon="14.1386552"><ele>11.0</ele><time>2026-05-03T12:10:56.002Z</time></trkpt><trkpt lat="42.5061611" lon="14.1387613"><ele>11.0</ele><time>2026-05-03T12:10:57.002Z</time></trkpt><trkpt lat="42.5062637" lon="14.1388703"><ele>11.0</ele><time>2026-05-03T12:10:58.003Z</time></trkpt><trkpt lat="42.5063639" lon="14.1389805"><ele>11.0</ele><time>2026-05-03T12:10:59.003Z</time></trkpt><trkpt lat="42.506465" lon="14.1390821"><ele>10.5</ele><time>2026-05-03T12:11:00.003Z</time></trkpt><trkpt lat="42.5065683" lon="14.139189"><ele>10.0</ele><time>2026-05-03T12:11:01.003Z</time></trkpt><trkpt lat="42.50667" lon="14.1392977"><ele>9.5</ele><time>2026-05-03T12:11:02.003Z</time></trkpt><trkpt lat="42.5067687" lon="14.1394129"><ele>9.0</ele><time>2026-05-03T12:11:03.002Z</time></trkpt><trkpt lat="42.5068675" lon="14.1395222"><ele>9.0</ele><time>2026-05-03T12:11:04.003Z</time></trkpt><trkpt lat="42.5069615" lon="14.1396367"><ele>9.0</ele><time>2026-05-03T12:11:05.002Z</time></trkpt><trkpt lat="42.5070601" lon="14.1397416"><ele>9.0</ele><time>2026-05-03T12:11:06.003Z</time></trkpt><trkpt lat="42.5071483" lon="14.1398364"><ele>9.0</ele><time>2026-05-03T12:11:07.002Z</time></trkpt><trkpt lat="42.5072405" lon="14.1399282"><ele>9.0</ele><time>2026-05-03T12:11:08.002Z</time></trkpt><trkpt lat="42.5073346" lon="14.1400234"><ele>9.0</ele><time>2026-05-03T12:11:09.003Z</time></trkpt><trkpt lat="42.5074283" lon="14.1401238"><ele>9.0</ele><time>2026-05-03T12:11:10.002Z</time></trkpt><trkpt lat="42.5075179" lon="14.140223"><ele>9.0</ele><time>2026-05-03T12:11:11.003Z</time></trkpt><trkpt lat="42.5076076" lon="14.1403257"><ele>9.0</ele><time>2026-05-03T12:11:12.002Z</time></trkpt><trkpt lat="42.5076963" lon="14.1404303"><ele>9.0</ele><time>2026-05-03T12:11:13.003Z</time></trkpt><trkpt lat="42.5077843" lon="14.1405372"><ele>9.0</ele><time>2026-05-03T12:11:14.002Z</time></trkpt><trkpt lat="42.5078684" lon="14.1406341"><ele>9.0</ele><time>2026-05-03T12:11:15.002Z</time></trkpt><trkpt lat="42.5079533" lon="14.1407297"><ele>9.2</ele><time>2026-05-03T12:11:16.003Z</time></trkpt><trkpt lat="42.5080335" lon="14.1408236"><ele>9.4</ele><time>2026-05-03T12:11:17.003Z</time></trkpt><trkpt lat="42.5081177" lon="14.1409155"><ele>9.6</ele><time>2026-05-03T12:11:18.003Z</time></trkpt><trkpt lat="42.5082072" lon="14.141013"><ele>9.8</ele><time>2026-05-03T12:11:19.003Z</time></trkpt><trkpt lat="42.5082982" lon="14.1411144"><ele>10.0</ele><time>2026-05-03T12:11:20.003Z</time></trkpt><trkpt lat="42.5083914" lon="14.1412171"><ele>10.0</ele><time>2026-05-03T12:11:21.002Z</time></trkpt><trkpt lat="42.5084896" lon="14.1413171"><ele>10.0</ele><time>2026-05-03T12:11:22.002Z</time></trkpt><trkpt lat="42.5085916" lon="14.1414201"><ele>10.0</ele><time>2026-05-03T12:11:23.002Z</time></trkpt><trkpt lat="42.5086912" lon="14.1415261"><ele>10.0</ele><time>2026-05-03T12:11:24.003Z</time></trkpt><trkpt lat="42.5087931" lon="14.1416333"><ele>9.25</ele><time>2026-05-03T12:11:25.002Z</time></trkpt><trkpt lat="42.5088924" lon="14.1417352"><ele>8.5</ele><time>2026-05-03T12:11:26.003Z</time></trkpt><trkpt lat="42.5089949" lon="14.1418441"><ele>7.75</ele><time>2026-05-03T12:11:27.002Z</time></trkpt><trkpt lat="42.5090938" lon="14.1419571"><ele>7.0</ele><time>2026-05-03T12:11:28.002Z</time></trkpt><trkpt lat="42.509186" lon="14.1420629"><ele>7.0</ele><time>2026-05-03T12:11:29.003Z</time></trkpt><trkpt lat="42.5092788" lon="14.1421722"><ele>7.0</ele><time>2026-05-03T12:11:30.002Z</time></trkpt><trkpt lat="42.5093725" lon="14.1422762"><ele>7.0</ele><time>2026-05-03T12:11:31.002Z</time></trkpt><trkpt lat="42.509467" lon="14.1423823"><ele>7.0</ele><time>2026-05-03T12:11:32.002Z</time></trkpt><trkpt lat="42.5095602" lon="14.1424752"><ele>6.75</ele><time>2026-05-03T12:11:33.002Z</time></trkpt><trkpt lat="42.509654" lon="14.1425727"><ele>6.5</ele><time>2026-05-03T12:11:34.003Z</time></trkpt><trkpt lat="42.5097483" lon="14.1426737"><ele>6.25</ele><time>2026-05-03T12:11:35.002Z</time></trkpt><trkpt lat="42.5098425" lon="14.1427745"><ele>6.0</ele><time>2026-05-03T12:11:36.003Z</time></trkpt><trkpt lat="42.5099363" lon="14.1428739"><ele>6.0</ele><time>2026-05-03T12:11:37.002Z</time></trkpt><trkpt lat="42.5100311" lon="14.1429782"><ele>6.0</ele><time>2026-05-03T12:11:38.002Z</time></trkpt><trkpt lat="42.5101258" lon="14.1430891"><ele>6.0</ele><time>2026-05-03T12:11:39.002Z</time></trkpt><trkpt lat="42.5102234" lon="14.1431942"><ele>6.0</ele><time>2026-05-03T12:11:40.003Z</time></trkpt><trkpt lat="42.5103221" lon="14.1432966"><ele>6.0</ele><time>2026-05-03T12:11:41.003Z</time></trkpt><trkpt lat="42.5104218" lon="14.1434066"><ele>6.0</ele><time>2026-05-03T12:11:42.003Z</time></trkpt><trkpt lat="42.5105249" lon="14.1435066"><ele>6.0</ele><time>2026-05-03T12:11:43.003Z</time></trkpt><trkpt lat="42.5106263" lon="14.1436127"><ele>6.0</ele><time>2026-05-03T12:11:44.003Z</time></trkpt><trkpt lat="42.5107286" lon="14.1437156"><ele>6.0</ele><time>2026-05-03T12:11:45.002Z</time></trkpt><trkpt lat="42.5108318" lon="14.1438216"><ele>6.0</ele><time>2026-05-03T12:11:46.003Z</time></trkpt><trkpt lat="42.510934" lon="14.1439303"><ele>6.0</ele><time>2026-05-03T12:11:47.003Z</time></trkpt><trkpt lat="42.5110343" lon="14.1440392"><ele>6.0</ele><time>2026-05-03T12:11:48.002Z</time></trkpt><trkpt lat="42.511131" lon="14.1441476"><ele>6.0</ele><time>2026-05-03T12:11:49.003Z</time></trkpt><trkpt lat="42.511222" lon="14.1442467"><ele>6.0</ele><time>2026-05-03T12:11:50.003Z</time></trkpt><trkpt lat="42.5113026" lon="14.1443381"><ele>6.0</ele><time>2026-05-03T12:11:51.003Z</time></trkpt><trkpt lat="42.5113876" lon="14.1444341"><ele>6.0</ele><time>2026-05-03T12:11:52.002Z</time></trkpt><trkpt lat="42.5114739" lon="14.1445301"><ele>6.0</ele><time>2026-05-03T12:11:53.002Z</time></trkpt><trkpt lat="42.5115604" lon="14.144625"><ele>6.0</ele><time>2026-05-03T12:11:54.003Z</time></trkpt><trkpt lat="42.5116462" lon="14.1447167"><ele>6.0</ele><time>2026-05-03T12:11:55.003Z</time></trkpt><trkpt lat="42.5117263" lon="14.1447998"><ele>6.0</ele><time>2026-05-03T12:11:56.003Z</time></trkpt><trkpt lat="42.511802" lon="14.1448812"><ele>6.0</ele><time>2026-05-03T12:11:57.003Z</time></trkpt><trkpt lat="42.5118714" lon="14.1449566"><ele>6.0</ele><time>2026-05-03T12:11:58.002Z</time></trkpt><trkpt lat="42.51194" lon="14.1450355"><ele>5.833333333333333</ele><time>2026-05-03T12:11:59.002Z</time></trkpt><trkpt lat="42.5120051" lon="14.1451089"><ele>5.666666666666667</ele><time>2026-05-03T12:12:00.003Z</time></trkpt><trkpt lat="42.5120598" lon="14.1451791"><ele>5.5</ele><time>2026-05-03T12:12:01.003Z</time></trkpt><trkpt lat="42.5121083" lon="14.1452517"><ele>5.333333333333334</ele><time>2026-05-03T12:12:02.002Z</time></trkpt><trkpt lat="42.512144" lon="14.1453294"><ele>5.166666666666667</ele><time>2026-05-03T12:12:03.003Z</time></trkpt><trkpt lat="42.5121983" lon="14.1454772"><ele>5.0</ele><time>2026-05-03T12:12:05.002Z</time></trkpt><trkpt lat="42.5122492" lon="14.1455383"><ele>4.833333333333334</ele><time>2026-05-03T12:12:06.003Z</time></trkpt><trkpt lat="42.5123152" lon="14.1455775"><ele>4.666666666666667</ele><time>2026-05-03T12:12:07.003Z</time></trkpt><trkpt lat="42.5123879" lon="14.1455948"><ele>4.5</ele><time>2026-05-03T12:12:08.002Z</time></trkpt><trkpt lat="42.5124695" lon="14.145623"><ele>4.333333333333333</ele><time>2026-05-03T12:12:09.003Z</time></trkpt><trkpt lat="42.5125509" lon="14.1456937"><ele>4.166666666666666</ele><time>2026-05-03T12:12:10.002Z</time></trkpt><trkpt lat="42.5126338" lon="14.1457853"><ele>4.0</ele><time>2026-05-03T12:12:11.002Z</time></trkpt><trkpt lat="42.5127159" lon="14.1458774"><ele>4.0</ele><time>2026-05-03T12:12:12.002Z</time></trkpt><trkpt lat="42.5127931" lon="14.1459735"><ele>4.0</ele><time>2026-05-03T12:12:13.002Z</time></trkpt><trkpt lat="42.5128735" lon="14.1460598"><ele>4.0</ele><time>2026-05-03T12:12:14.003Z</time></trkpt><trkpt lat="42.5129575" lon="14.1461497"><ele>4.0</ele><time>2026-05-03T12:12:15.002Z</time></trkpt><trkpt lat="42.5130456" lon="14.146253"><ele>4.0</ele><time>2026-05-03T12:12:16.003Z</time></trkpt><trkpt lat="42.5131398" lon="14.1463541"><ele>4.0</ele><time>2026-05-03T12:12:17.002Z</time></trkpt><trkpt lat="42.513233" lon="14.1464606"><ele>4.0</ele><time>2026-05-03T12:12:18.002Z</time></trkpt><trkpt lat="42.5133334" lon="14.1465678"><ele>4.0</ele><time>2026-05-03T12:12:19.003Z</time></trkpt><trkpt lat="42.5134315" lon="14.1466711"><ele>4.0</ele><time>2026-05-03T12:12:20.003Z</time></trkpt><trkpt lat="42.5135281" lon="14.1467787"><ele>4.0</ele><time>2026-05-03T12:12:21.003Z</time></trkpt><trkpt lat="42.5136247" lon="14.1468844"><ele>4.0</ele><time>2026-05-03T12:12:22.003Z</time></trkpt><trkpt lat="42.5137172" lon="14.1469907"><ele>4.0</ele><time>2026-05-03T12:12:23.002Z</time></trkpt><trkpt lat="42.5138066" lon="14.1471011"><ele>4.0</ele><time>2026-05-03T12:12:24.003Z</time></trkpt><trkpt lat="42.5138976" lon="14.147206"><ele>4.0</ele><time>2026-05-03T12:12:25.003Z</time></trkpt><trkpt lat="42.5139874" lon="14.1473078"><ele>4.0</ele><time>2026-05-03T12:12:26.003Z</time></trkpt><trkpt lat="42.5140771" lon="14.1474009"><ele>4.0</ele><time>2026-05-03T12:12:27.003Z</time></trkpt><trkpt lat="42.5141623" lon="14.1474985"><ele>4.0</ele><time>2026-05-03T12:12:28.003Z</time></trkpt><trkpt lat="42.5142537" lon="14.1475932"><ele>4.0</ele><time>2026-05-03T12:12:29.003Z</time></trkpt><trkpt lat="42.5143464" lon="14.1476927"><ele>4.0</ele><time>2026-05-03T12:12:30.002Z</time></trkpt><trkpt lat="42.5144368" lon="14.147791"><ele>4.0</ele><time>2026-05-03T12:12:31.003Z</time></trkpt><trkpt lat="42.5145292" lon="14.1478928"><ele>4.0</ele><time>2026-05-03T12:12:32.003Z</time></trkpt><trkpt lat="42.5146259" lon="14.1479961"><ele>4.0</ele><time>2026-05-03T12:12:33.003Z</time></trkpt><trkpt lat="42.514717" lon="14.1481037"><ele>4.0</ele><time>2026-05-03T12:12:34.002Z</time></trkpt><trkpt lat="42.5148098" lon="14.1482115"><ele>4.0</ele><time>2026-05-03T12:12:35.003Z</time></trkpt><trkpt lat="42.5149033" lon="14.1483138"><ele>4.0</ele><time>2026-05-03T12:12:36.003Z</time></trkpt><trkpt lat="42.5150001" lon="14.1484147"><ele>4.25</ele><time>2026-05-03T12:12:37.002Z</time></trkpt><trkpt lat="42.5150924" lon="14.1485177"><ele>4.5</ele><time>2026-05-03T12:12:38.003Z</time></trkpt><trkpt lat="42.5151816" lon="14.1486184"><ele>4.75</ele><time>2026-05-03T12:12:39.002Z</time></trkpt><trkpt lat="42.5152757" lon="14.1487154"><ele>5.0</ele><time>2026-05-03T12:12:40.003Z</time></trkpt><trkpt lat="42.5153681" lon="14.1488125"><ele>4.8</ele><time>2026-05-03T12:12:41.002Z</time></trkpt><trkpt lat="42.5154609" lon="14.1489118"><ele>4.6</ele><time>2026-05-03T12:12:42.002Z</time></trkpt><trkpt lat="42.5155463" lon="14.1490076"><ele>4.4</ele><time>2026-05-03T12:12:43.003Z</time></trkpt><trkpt lat="42.5156305" lon="14.1490995"><ele>4.2</ele><time>2026-05-03T12:12:44.002Z</time></trkpt><trkpt lat="42.5157114" lon="14.1491861"><ele>4.0</ele><time>2026-05-03T12:12:45.002Z</time></trkpt><trkpt lat="42.5157877" lon="14.149275"><ele>4.0</ele><time>2026-05-03T12:12:46.003Z</time></trkpt><trkpt lat="42.5158608" lon="14.149371"><ele>4.0</ele><time>2026-05-03T12:12:47.002Z</time></trkpt><trkpt lat="42.5159261" lon="14.1494752"><ele>4.0</ele><time>2026-05-03T12:12:48.002Z</time></trkpt><trkpt lat="42.5159749" lon="14.1495795"><ele>4.0</ele><time>2026-05-03T12:12:49.003Z</time></trkpt><trkpt lat="42.5160163" lon="14.1496896"><ele>4.0</ele><time>2026-05-03T12:12:50.003Z</time></trkpt><trkpt lat="42.5160412" lon="14.1498045"><ele>4.166666666666666</ele><time>2026-05-03T12:12:51.003Z</time></trkpt><trkpt lat="42.5160539" lon="14.149923"><ele>4.333333333333333</ele><time>2026-05-03T12:12:52.003Z</time></trkpt><trkpt lat="42.5160577" lon="14.1500354"><ele>4.5</ele><time>2026-05-03T12:12:53.002Z</time></trkpt><trkpt lat="42.5160529" lon="14.1501335"><ele>4.666666666666667</ele><time>2026-05-03T12:12:54.002Z</time></trkpt><trkpt lat="42.5160556" lon="14.1502274"><ele>4.833333333333334</ele><time>2026-05-03T12:12:55.002Z</time></trkpt><trkpt lat="42.5160845" lon="14.1503538"><ele>5.0</ele><time>2026-05-03T12:12:57.002Z</time></trkpt><trkpt lat="42.5161572" lon="14.1503504"><ele>4.8</ele><time>2026-05-03T12:12:59.002Z</time></trkpt><trkpt lat="42.5162537" lon="14.1502492"><ele>4.6</ele><time>2026-05-03T12:13:01.003Z</time></trkpt><trkpt lat="42.5163181" lon="14.1501701"><ele>4.4</ele><time>2026-05-03T12:13:02.002Z</time></trkpt><trkpt lat="42.5163895" lon="14.1500943"><ele>4.2</ele><time>2026-05-03T12:13:03.002Z</time></trkpt><trkpt lat="42.5164626" lon="14.1500083"><ele>4.0</ele><time>2026-05-03T12:13:04.003Z</time></trkpt><trkpt lat="42.5165379" lon="14.1499174"><ele>4.2</ele><time>2026-05-03T12:13:05.003Z</time></trkpt><trkpt lat="42.5166182" lon="14.1498285"><ele>4.4</ele><time>2026-05-03T12:13:06.003Z</time></trkpt><trkpt lat="42.5167021" lon="14.1497377"><ele>4.6</ele><time>2026-05-03T12:13:07.002Z</time></trkpt><trkpt lat="42.5167863" lon="14.1496363"><ele>4.8</ele><time>2026-05-03T12:13:08.003Z</time></trkpt><trkpt lat="42.5168659" lon="14.1495352"><ele>5.0</ele><time>2026-05-03T12:13:09.003Z</time></trkpt><trkpt lat="42.5169424" lon="14.14943"><ele>5.0</ele><time>2026-05-03T12:13:10.003Z</time></trkpt><trkpt lat="42.5170166" lon="14.1493356"><ele>5.0</ele><time>2026-05-03T12:13:11.003Z</time></trkpt><trkpt lat="42.5170894" lon="14.1492445"><ele>5.0</ele><time>2026-05-03T12:13:12.003Z</time></trkpt><trkpt lat="42.5171698" lon="14.1491542"><ele>5.0</ele><time>2026-05-03T12:13:13.003Z</time></trkpt><trkpt lat="42.5172408" lon="14.1490662"><ele>5.0</ele><time>2026-05-03T12:13:14.002Z</time></trkpt><trkpt lat="42.5173096" lon="14.1489823"><ele>5.0</ele><time>2026-05-03T12:13:15.002Z</time></trkpt><trkpt lat="42.517377" lon="14.1489002"><ele>5.0</ele><time>2026-05-03T12:13:16.002Z</time></trkpt><trkpt lat="42.5174438" lon="14.1488252"><ele>5.0</ele><time>2026-05-03T12:13:17.002Z</time></trkpt><trkpt lat="42.5175102" lon="14.1487453"><ele>5.0</ele><time>2026-05-03T12:13:18.002Z</time></trkpt><trkpt lat="42.5175773" lon="14.1486667"><ele>5.0</ele><time>2026-05-03T12:13:19.002Z</time></trkpt><trkpt lat="42.5176457" lon="14.148583"><ele>5.0</ele><time>2026-05-03T12:13:20.003Z</time></trkpt><trkpt lat="42.5177175" lon="14.1484955"><ele>5.0</ele><time>2026-05-03T12:13:21.003Z</time></trkpt><trkpt lat="42.5177875" lon="14.1484063"><ele>5.0</ele><time>2026-05-03T12:13:22.003Z</time></trkpt><trkpt lat="42.5178583" lon="14.1483199"><ele>5.0</ele><time>2026-05-03T12:13:23.003Z</time></trkpt><trkpt lat="42.5179227" lon="14.1482361"><ele>5.0</ele><time>2026-05-03T12:13:24.002Z</time></trkpt><trkpt lat="42.5179914" lon="14.1481595"><ele>5.0</ele><time>2026-05-03T12:13:25.002Z</time></trkpt><trkpt lat="42.5180567" lon="14.1480771"><ele>5.0</ele><time>2026-05-03T12:13:26.003Z</time></trkpt><trkpt lat="42.5181209" lon="14.1479884"><ele>5.0</ele><time>2026-05-03T12:13:27.002Z</time></trkpt><trkpt lat="42.5181886" lon="14.1478999"><ele>5.0</ele><time>2026-05-03T12:13:28.003Z</time></trkpt><trkpt lat="42.5182607" lon="14.147812"><ele>5.0</ele><time>2026-05-03T12:13:29.003Z</time></trkpt><trkpt lat="42.518331" lon="14.1477271"><ele>5.0</ele><time>2026-05-03T12:13:30.002Z</time></trkpt><trkpt lat="42.5184059" lon="14.1476474"><ele>5.0</ele><time>2026-05-03T12:13:31.003Z</time></trkpt><trkpt lat="42.5184711" lon="14.1475682"><ele>5.0</ele><time>2026-05-03T12:13:32.003Z</time></trkpt><trkpt lat="42.5185383" lon="14.1474859"><ele>5.0</ele><time>2026-05-03T12:13:33.003Z</time></trkpt><trkpt lat="42.5186055" lon="14.1474028"><ele>5.0</ele><time>2026-05-03T12:13:34.002Z</time></trkpt><trkpt lat="42.5186723" lon="14.1473278"><ele>5.0</ele><time>2026-05-03T12:13:35.002Z</time></trkpt><trkpt lat="42.5187502" lon="14.1472757"><ele>5.0</ele><time>2026-05-03T12:13:36.003Z</time></trkpt><trkpt lat="42.5188323" lon="14.1472448"><ele>4.666666666666667</ele><time>2026-05-03T12:13:37.003Z</time></trkpt><trkpt lat="42.5189141" lon="14.1472259"><ele>4.333333333333334</ele><time>2026-05-03T12:13:38.003Z</time></trkpt><trkpt lat="42.5189908" lon="14.1472327"><ele>4.0</ele><time>2026-05-03T12:13:39.002Z</time></trkpt><trkpt lat="42.5190694" lon="14.1472346"><ele>3.666666666666667</ele><time>2026-05-03T12:13:40.002Z</time></trkpt><trkpt lat="42.5191502" lon="14.1472437"><ele>3.3333333333333335</ele><time>2026-05-03T12:13:41.003Z</time></trkpt><trkpt lat="42.519232" lon="14.1472753"><ele>3.0</ele><time>2026-05-03T12:13:42.003Z</time></trkpt><trkpt lat="42.5193201" lon="14.1473266"><ele>3.0</ele><time>2026-05-03T12:13:43.002Z</time></trkpt><trkpt lat="42.5194081" lon="14.1473675"><ele>3.0</ele><time>2026-05-03T12:13:44.003Z</time></trkpt><trkpt lat="42.5194912" lon="14.1474416"><ele>3.0</ele><time>2026-05-03T12:13:45.003Z</time></trkpt><trkpt lat="42.5195672" lon="14.147541"><ele>3.0</ele><time>2026-05-03T12:13:46.003Z</time></trkpt><trkpt lat="42.5196407" lon="14.1476546"><ele>3.0</ele><time>2026-05-03T12:13:47.002Z</time></trkpt><trkpt lat="42.5197168" lon="14.1477828"><ele>2.75</ele><time>2026-05-03T12:13:48.002Z</time></trkpt><trkpt lat="42.5197922" lon="14.1479228"><ele>2.5</ele><time>2026-05-03T12:13:49.002Z</time></trkpt><trkpt lat="42.5198654" lon="14.1480625"><ele>2.25</ele><time>2026-05-03T12:13:50.003Z</time></trkpt><trkpt lat="42.5199318" lon="14.1482154"><ele>2.0</ele><time>2026-05-03T12:13:51.002Z</time></trkpt><trkpt lat="42.519992" lon="14.1483671"><ele>2.0</ele><time>2026-05-03T12:13:52.003Z</time></trkpt><trkpt lat="42.5200504" lon="14.1485245"><ele>2.0</ele><time>2026-05-03T12:13:53.003Z</time></trkpt><trkpt lat="42.5201061" lon="14.1486869"><ele>2.0</ele><time>2026-05-03T12:13:54.003Z</time></trkpt><trkpt lat="42.5201588" lon="14.1488448"><ele>2.0</ele><time>2026-05-03T12:13:55.003Z</time></trkpt><trkpt lat="42.520213" lon="14.1489915"><ele>2.0</ele><time>2026-05-03T12:13:56.003Z</time></trkpt><trkpt lat="42.5202639" lon="14.1491463"><ele>2.0</ele><time>2026-05-03T12:13:57.003Z</time></trkpt><trkpt lat="42.5203163" lon="14.1493026"><ele>2.0</ele><time>2026-05-03T12:13:58.003Z</time></trkpt><trkpt lat="42.5203741" lon="14.1494507"><ele>2.0</ele><time>2026-05-03T12:13:59.003Z</time></trkpt><trkpt lat="42.5204321" lon="14.1496082"><ele>2.0</ele><time>2026-05-03T12:14:00.003Z</time></trkpt><trkpt lat="42.5204854" lon="14.1497596"><ele>2.0</ele><time>2026-05-03T12:14:01.003Z</time></trkpt><trkpt lat="42.5205315" lon="14.1499098"><ele>2.0</ele><time>2026-05-03T12:14:02.002Z</time></trkpt><trkpt lat="42.5205807" lon="14.1500586"><ele>2.0</ele><time>2026-05-03T12:14:03.002Z</time></trkpt><trkpt lat="42.5206335" lon="14.1502051"><ele>2.0</ele><time>2026-05-03T12:14:04.003Z</time></trkpt><trkpt lat="42.5206831" lon="14.1503507"><ele>2.0</ele><time>2026-05-03T12:14:05.002Z</time></trkpt><trkpt lat="42.5207331" lon="14.1504976"><ele>2.0</ele><time>2026-05-03T12:14:06.002Z</time></trkpt><trkpt lat="42.5207814" lon="14.1506447"><ele>2.0</ele><time>2026-05-03T12:14:07.002Z</time></trkpt><trkpt lat="42.5208338" lon="14.1507977"><ele>2.0</ele><time>2026-05-03T12:14:08.003Z</time></trkpt><trkpt lat="42.520889" lon="14.1509537"><ele>2.0</ele><time>2026-05-03T12:14:09.003Z</time></trkpt><trkpt lat="42.5209443" lon="14.1511127"><ele>2.0</ele><time>2026-05-03T12:14:10.002Z</time></trkpt><trkpt lat="42.5210003" lon="14.1512728"><ele>2.0</ele><time>2026-05-03T12:14:11.003Z</time></trkpt><trkpt lat="42.5210567" lon="14.1514315"><ele>2.0</ele><time>2026-05-03T12:14:12.003Z</time></trkpt><trkpt lat="42.5211124" lon="14.1515829"><ele>2.0</ele><time>2026-05-03T12:14:13.003Z</time></trkpt><trkpt lat="42.5211633" lon="14.1517327"><ele>2.0</ele><time>2026-05-03T12:14:14.003Z</time></trkpt><trkpt lat="42.5212074" lon="14.1518812"><ele>2.0</ele><time>2026-05-03T12:14:15.003Z</time></trkpt><trkpt lat="42.5212521" lon="14.152021"><ele>1.5</ele><time>2026-05-03T12:14:16.003Z</time></trkpt><trkpt lat="42.5213011" lon="14.1521594"><ele>1.0</ele><time>2026-05-03T12:14:17.003Z</time></trkpt><trkpt lat="42.5213476" lon="14.1523012"><ele>0.5</ele><time>2026-05-03T12:14:18.002Z</time></trkpt><trkpt lat="42.5214023" lon="14.1524487"><ele>0.0</ele><time>2026-05-03T12:14:19.003Z</time></trkpt><trkpt lat="42.5214589" lon="14.1526052"><ele>-0.25</ele><time>2026-05-03T12:14:20.003Z</time></trkpt><trkpt lat="42.5215109" lon="14.152762"><ele>-0.5</ele><time>2026-05-03T12:14:21.003Z</time></trkpt><trkpt lat="42.5215657" lon="14.1529124"><ele>-0.75</ele><time>2026-05-03T12:14:22.003Z</time></trkpt><trkpt lat="42.5216165" lon="14.1530567"><ele>-1.0</ele><time>2026-05-03T12:14:23.003Z</time></trkpt><trkpt lat="42.5216652" lon="14.153193"><ele>-0.8333333333333333</ele><time>2026-05-03T12:14:24.003Z</time></trkpt><trkpt lat="42.521711" lon="14.1533202"><ele>-0.6666666666666666</ele><time>2026-05-03T12:14:25.002Z</time></trkpt><trkpt lat="42.5217504" lon="14.1534379"><ele>-0.5</ele><time>2026-05-03T12:14:26.003Z</time></trkpt><trkpt lat="42.5217825" lon="14.1535229"><ele>-0.3333333333333333</ele><time>2026-05-03T12:14:27.003Z</time></trkpt><trkpt lat="42.5218277" lon="14.1536213"><ele>-0.16666666666666666</ele><time>2026-05-03T12:14:29.002Z</time></trkpt><trkpt lat="42.5219006" lon="14.1536814"><ele>0.0</ele><time>2026-05-03T12:14:33.003Z</time></trkpt><trkpt lat="42.5219995" lon="14.1536229"><ele>0.0</ele><time>2026-05-03T12:14:35.003Z</time></trkpt><trkpt lat="42.5220539" lon="14.1535788"><ele>0.0</ele><time>2026-05-03T12:14:36.002Z</time></trkpt><trkpt lat="42.5221466" lon="14.1535037"><ele>0.0</ele><time>2026-05-03T12:14:38.003Z</time></trkpt><trkpt lat="42.5222215" lon="14.1534418"><ele>0.0</ele><time>2026-05-03T12:14:40.002Z</time></trkpt><trkpt lat="42.522278" lon="14.1533866"><ele>0.0</ele><time>2026-05-03T12:14:43.003Z</time></trkpt><trkpt lat="42.5222942" lon="14.1533002"><ele>0.0</ele><time>2026-05-03T12:14:48.003Z</time></trkpt><trkpt lat="42.5222641" lon="14.1532212"><ele>-0.16666666666666666</ele><time>2026-05-03T12:14:50.003Z</time></trkpt><trkpt lat="42.5222194" lon="14.1531196"><ele>-0.3333333333333333</ele><time>2026-05-03T12:14:52.003Z</time></trkpt><trkpt lat="42.5221677" lon="14.1530124"><ele>-0.5</ele><time>2026-05-03T12:14:54.002Z</time></trkpt><trkpt lat="42.5221168" lon="14.1529065"><ele>-0.6666666666666666</ele><time>2026-05-03T12:14:56.003Z</time></trkpt><trkpt lat="42.5220772" lon="14.1528151"><ele>-0.8333333333333333</ele><time>2026-05-03T12:14:58.002Z</time></trkpt><trkpt lat="42.5220339" lon="14.1527249"><ele>-1.0</ele><time>2026-05-03T12:15:00.003Z</time></trkpt><trkpt lat="42.5219873" lon="14.152619"><ele>-0.9999999999999999</ele><time>2026-05-03T12:15:02.003Z</time></trkpt><trkpt lat="42.5219371" lon="14.1525423"><ele>-1.0</ele><time>2026-05-03T12:15:04.003Z</time></trkpt><trkpt lat="42.5218829" lon="14.1524768"><ele>-1.0</ele><time>2026-05-03T12:15:06.002Z</time></trkpt><trkpt lat="42.521841" lon="14.1523921"><ele>-1.0</ele><time>2026-05-03T12:15:08.003Z</time></trkpt><trkpt lat="42.5218075" lon="14.152282"><ele>-0.9999999999999999</ele><time>2026-05-03T12:15:10.003Z</time></trkpt><trkpt lat="42.5217923" lon="14.1521618"><ele>-1.0</ele><time>2026-05-03T12:15:12.002Z</time></trkpt><trkpt lat="42.5218136" lon="14.1520498"><ele>-0.8571428571428571</ele><time>2026-05-03T12:15:14.002Z</time></trkpt><trkpt lat="42.5218743" lon="14.1519965"><ele>-0.7142857142857142</ele><time>2026-05-03T12:15:16.002Z</time></trkpt><trkpt lat="42.5219332" lon="14.1520445"><ele>-0.5714285714285714</ele><time>2026-05-03T12:15:18.003Z</time></trkpt><trkpt lat="42.5219625" lon="14.1521396"><ele>-0.42857142857142855</ele><time>2026-05-03T12:15:20.002Z</time></trkpt><trkpt lat="42.5220001" lon="14.152222"><ele>-0.2857142857142857</ele><time>2026-05-03T12:15:22.002Z</time></trkpt><trkpt lat="42.5220374" lon="14.1523116"><ele>-0.14285714285714285</ele><time>2026-05-03T12:15:24.002Z</time></trkpt><trkpt lat="42.522075" lon="14.1523871"><ele>0.0</ele><time>2026-05-03T12:15:26.003Z</time></trkpt><trkpt lat="42.5221242" lon="14.1524499"><ele>0.2857142857142857</ele><time>2026-05-03T12:15:30.002Z</time></trkpt><trkpt lat="42.5222235" lon="14.152434"><ele>0.5714285714285714</ele><time>2026-05-03T12:19:46.06Z</time></trkpt><trkpt lat="42.5222835" lon="14.1524757"><ele>0.8571428571428571</ele><time>2026-05-03T12:20:09.043Z</time></trkpt><trkpt lat="42.52225" lon="14.1523982"><ele>1.1428571428571428</ele><time>2026-05-03T12:20:18.018Z</time></trkpt><trkpt lat="42.5222949" lon="14.1523351"><ele>1.4285714285714284</ele><time>2026-05-03T12:20:23.002Z</time></trkpt><trkpt lat="42.5223158" lon="14.1522517"><ele>1.7142857142857142</ele><time>2026-05-03T12:20:29.031Z</time></trkpt><trkpt lat="42.5222748" lon="14.1521824"><ele>2.0</ele><time>2026-05-03T12:20:35.04Z</time></trkpt><trkpt lat="42.5222549" lon="14.1520939"><ele>2.0</ele><time>2026-05-03T12:23:02.003Z</time></trkpt><trkpt lat="42.5222234" lon="14.1521828"><ele>1.9999999999999998</ele><time>2026-05-03T12:36:06.054Z</time></trkpt><trkpt lat="42.5221852" lon="14.1522674"><ele>2.0</ele><time>2026-05-03T12:36:14.001Z</time></trkpt><trkpt lat="42.5221906" lon="14.1523632"><ele>2.0</ele><time>2026-05-03T12:36:21.971Z</time></trkpt><trkpt lat="42.5222541" lon="14.1523702"><ele>1.9999999999999998</ele><time>2026-05-03T12:36:33.933Z</time></trkpt><trkpt lat="42.5223246" lon="14.1523669"><ele>2.0</ele><time>2026-05-03T12:36:43.002Z</time></trkpt><trkpt lat="42.5223871" lon="14.1523999"><ele>2.0</ele><time>2026-05-03T12:36:49.001Z</time></trkpt><trkpt lat="42.5224552" lon="14.152388"><ele>2.0</ele><time>2026-05-03T12:37:15.043Z</time></trkpt><trkpt lat="42.5223926" lon="14.1524005"><ele>1.9999999999999998</ele><time>2026-05-03T12:37:18.001Z</time></trkpt><trkpt lat="42.5223409" lon="14.1523471"><ele>2.0</ele><time>2026-05-03T12:37:24.002Z</time></trkpt><trkpt lat="42.5222763" lon="14.1523514"><ele>2.0</ele><time>2026-05-03T12:37:30.01Z</time></trkpt><trkpt lat="42.522218" lon="14.152405"><ele>1.9999999999999998</ele><time>2026-05-03T12:37:37.001Z</time></trkpt><trkpt lat="42.522156" lon="14.1524301"><ele>2.0</ele><time>2026-05-03T12:37:44.011Z</time></trkpt><trkpt lat="42.5220951" lon="14.1523938"><ele>2.0</ele><time>2026-05-03T12:50:54Z</time></trkpt><trkpt lat="42.5220603" lon="14.1522787"><ele>1.6666666666666665</ele><time>2026-05-03T12:50:57.016Z</time></trkpt><trkpt lat="42.5220256" lon="14.152194"><ele>1.3333333333333333</ele><time>2026-05-03T12:50:59.015Z</time></trkpt><trkpt lat="42.5219751" lon="14.1520768"><ele>1.0</ele><time>2026-05-03T12:51:02.044Z</time></trkpt><trkpt lat="42.5219315" lon="14.1519997"><ele>0.6666666666666666</ele><time>2026-05-03T12:51:04.063Z</time></trkpt><trkpt lat="42.5218405" lon="14.1519727"><ele>0.3333333333333333</ele><time>2026-05-03T12:51:07.001Z</time></trkpt><trkpt lat="42.5217816" lon="14.1520193"><ele>0.0</ele><time>2026-05-03T12:51:09.001Z</time></trkpt><trkpt lat="42.521697" lon="14.1519983"><ele>0.0</ele><time>2026-05-03T12:51:12.029Z</time></trkpt><trkpt lat="42.5216286" lon="14.151965"><ele>0.0</ele><time>2026-05-03T12:51:16.001Z</time></trkpt><trkpt lat="42.5215464" lon="14.1520217"><ele>0.0</ele><time>2026-05-03T12:51:18Z</time></trkpt><trkpt lat="42.5214805" lon="14.1520686"><ele>0.0</ele><time>2026-05-03T12:51:20Z</time></trkpt><trkpt lat="42.5214223" lon="14.1521061"><ele>0.0</ele><time>2026-05-03T12:51:22Z</time></trkpt><trkpt lat="42.5213434" lon="14.1520564"><ele>0.0</ele><time>2026-05-03T12:51:41Z</time></trkpt><trkpt lat="42.5213038" lon="14.1519685"><ele>0.0</ele><time>2026-05-03T12:51:43Z</time></trkpt><trkpt lat="42.5212582" lon="14.151833"><ele>0.0</ele><time>2026-05-03T12:51:45Z</time></trkpt><trkpt lat="42.5212117" lon="14.1516794"><ele>0.0</ele><time>2026-05-03T12:51:47.001Z</time></trkpt><trkpt lat="42.5211588" lon="14.1515292"><ele>0.0</ele><time>2026-05-03T12:51:49.001Z</time></trkpt><trkpt lat="42.5211305" lon="14.151447"><ele>0.0</ele><time>2026-05-03T12:51:50.001Z</time></trkpt><trkpt lat="42.5211028" lon="14.1513619"><ele>0.2857142857142857</ele><time>2026-05-03T12:51:51Z</time></trkpt><trkpt lat="42.5210751" lon="14.1512781"><ele>0.5714285714285714</ele><time>2026-05-03T12:51:52Z</time></trkpt><trkpt lat="42.5210416" lon="14.1511905"><ele>0.8571428571428571</ele><time>2026-05-03T12:51:53.001Z</time></trkpt><trkpt lat="42.5210068" lon="14.1511026"><ele>1.1428571428571428</ele><time>2026-05-03T12:51:54.001Z</time></trkpt><trkpt lat="42.5209764" lon="14.1510148"><ele>1.4285714285714284</ele><time>2026-05-03T12:51:55.001Z</time></trkpt><trkpt lat="42.520948" lon="14.1509277"><ele>1.7142857142857142</ele><time>2026-05-03T12:51:56.001Z</time></trkpt><trkpt lat="42.5209194" lon="14.1508372"><ele>2.0</ele><time>2026-05-03T12:51:57.001Z</time></trkpt><trkpt lat="42.5208891" lon="14.1507515"><ele>2.142857142857143</ele><time>2026-05-03T12:51:58Z</time></trkpt><trkpt lat="42.5208581" lon="14.1506625"><ele>2.2857142857142856</ele><time>2026-05-03T12:51:59Z</time></trkpt><trkpt lat="42.5208265" lon="14.1505791"><ele>2.4285714285714284</ele><time>2026-05-03T12:52:00.001Z</time></trkpt><trkpt lat="42.5207957" lon="14.1504918"><ele>2.571428571428571</ele><time>2026-05-03T12:52:01.001Z</time></trkpt><trkpt lat="42.5207682" lon="14.1504009"><ele>2.7142857142857144</ele><time>2026-05-03T12:52:02.001Z</time></trkpt><trkpt lat="42.5207396" lon="14.1503044"><ele>2.8571428571428568</ele><time>2026-05-03T12:52:03.001Z</time></trkpt><trkpt lat="42.5207037" lon="14.1502119"><ele>3.0</ele><time>2026-05-03T12:52:04.001Z</time></trkpt><trkpt lat="42.5206689" lon="14.1501184"><ele>3.0</ele><time>2026-05-03T12:52:05.001Z</time></trkpt><trkpt lat="42.5206334" lon="14.1500151"><ele>3.0</ele><time>2026-05-03T12:52:06.001Z</time></trkpt><trkpt lat="42.5205983" lon="14.1499097"><ele>3.0</ele><time>2026-05-03T12:52:07.001Z</time></trkpt><trkpt lat="42.52056" lon="14.1498039"><ele>3.0</ele><time>2026-05-03T12:52:08.001Z</time></trkpt><trkpt lat="42.5205187" lon="14.1496929"><ele>3.0</ele><time>2026-05-03T12:52:09Z</time></trkpt><trkpt lat="42.5204779" lon="14.1495793"><ele>3.0</ele><time>2026-05-03T12:52:10Z</time></trkpt><trkpt lat="42.5204391" lon="14.1494633"><ele>2.8</ele><time>2026-05-03T12:52:11Z</time></trkpt><trkpt lat="42.5204006" lon="14.1493535"><ele>2.5999999999999996</ele><time>2026-05-03T12:52:12Z</time></trkpt><trkpt lat="42.5203647" lon="14.1492417"><ele>2.4000000000000004</ele><time>2026-05-03T12:52:13.001Z</time></trkpt><trkpt lat="42.5203277" lon="14.1491274"><ele>2.2</ele><time>2026-05-03T12:52:14.001Z</time></trkpt><trkpt lat="42.5202909" lon="14.1490116"><ele>2.0</ele><time>2026-05-03T12:52:15.001Z</time></trkpt><trkpt lat="42.5202569" lon="14.1489011"><ele>1.9999999999999998</ele><time>2026-05-03T12:52:16.001Z</time></trkpt><trkpt lat="42.5202223" lon="14.148791"><ele>2.0</ele><time>2026-05-03T12:52:17.001Z</time></trkpt><trkpt lat="42.5201849" lon="14.1486851"><ele>2.0</ele><time>2026-05-03T12:52:18.001Z</time></trkpt><trkpt lat="42.520147" lon="14.1485863"><ele>2.0</ele><time>2026-05-03T12:52:19.001Z</time></trkpt><trkpt lat="42.5201137" lon="14.148485"><ele>1.9999999999999998</ele><time>2026-05-03T12:52:20.001Z</time></trkpt><trkpt lat="42.5200769" lon="14.1483857"><ele>2.0</ele><time>2026-05-03T12:52:21.001Z</time></trkpt><trkpt lat="42.5200386" lon="14.1482868"><ele>1.6666666666666665</ele><time>2026-05-03T12:52:22.001Z</time></trkpt><trkpt lat="42.5199945" lon="14.1481871"><ele>1.3333333333333333</ele><time>2026-05-03T12:52:23Z</time></trkpt><trkpt lat="42.5199517" lon="14.1480882"><ele>1.0</ele><time>2026-05-03T12:52:24.001Z</time></trkpt><trkpt lat="42.5199007" lon="14.1479947"><ele>0.6666666666666666</ele><time>2026-05-03T12:52:25.001Z</time></trkpt><trkpt lat="42.5198501" lon="14.147905"><ele>0.3333333333333333</ele><time>2026-05-03T12:52:26.001Z</time></trkpt><trkpt lat="42.5197977" lon="14.1478202"><ele>0.0</ele><time>2026-05-03T12:52:27.001Z</time></trkpt><trkpt lat="42.5197459" lon="14.1477352"><ele>0.0</ele><time>2026-05-03T12:52:28.001Z</time></trkpt><trkpt lat="42.5196954" lon="14.147657"><ele>0.0</ele><time>2026-05-03T12:52:29Z</time></trkpt><trkpt lat="42.5196454" lon="14.147582"><ele>0.0</ele><time>2026-05-03T12:52:30.001Z</time></trkpt><trkpt lat="42.5196037" lon="14.1475113"><ele>0.0</ele><time>2026-05-03T12:52:31Z</time></trkpt><trkpt lat="42.5195374" lon="14.1473891"><ele>0.0</ele><time>2026-05-03T12:52:33.001Z</time></trkpt><trkpt lat="42.5194945" lon="14.1472457"><ele>0.0</ele><time>2026-05-03T12:52:35.001Z</time></trkpt><trkpt lat="42.5194782" lon="14.1470856"><ele>0.5</ele><time>2026-05-03T12:52:37.001Z</time></trkpt><trkpt lat="42.5194729" lon="14.1469729"><ele>1.0</ele><time>2026-05-03T12:52:38Z</time></trkpt><trkpt lat="42.5194441" lon="14.146874"><ele>1.5</ele><time>2026-05-03T12:52:39.001Z</time></trkpt><trkpt lat="42.519453" lon="14.1467697"><ele>2.0</ele><time>2026-05-03T12:52:41.001Z</time></trkpt><trkpt lat="42.5194815" lon="14.1466579"><ele>2.5</ele><time>2026-05-03T12:52:44Z</time></trkpt><trkpt lat="42.5194937" lon="14.1465713"><ele>3.0</ele><time>2026-05-03T12:52:46Z</time></trkpt><trkpt lat="42.5195139" lon="14.1464779"><ele>3.0</ele><time>2026-05-03T12:52:48.001Z</time></trkpt><trkpt lat="42.5195374" lon="14.1463817"><ele>3.0</ele><time>2026-05-03T12:52:50.001Z</time></trkpt><trkpt lat="42.5195737" lon="14.1462799"><ele>3.0</ele><time>2026-05-03T12:52:52.001Z</time></trkpt><trkpt lat="42.5196247" lon="14.146183"><ele>3.0</ele><time>2026-05-03T12:52:54Z</time></trkpt><trkpt lat="42.5196961" lon="14.1460901"><ele>3.0</ele><time>2026-05-03T12:52:56Z</time></trkpt><trkpt lat="42.5197847" lon="14.1459796"><ele>3.0</ele><time>2026-05-03T12:52:58.001Z</time></trkpt><trkpt lat="42.5198445" lon="14.1459066"><ele>3.0</ele><time>2026-05-03T12:52:59.001Z</time></trkpt><trkpt lat="42.5199098" lon="14.1458258"><ele>3.0</ele><time>2026-05-03T12:53:00.001Z</time></trkpt><trkpt lat="42.5199775" lon="14.1457483"><ele>3.0</ele><time>2026-05-03T12:53:01Z</time></trkpt><trkpt lat="42.5200465" lon="14.145661"><ele>3.0</ele><time>2026-05-03T12:53:02Z</time></trkpt><trkpt lat="42.5201238" lon="14.145572"><ele>2.8</ele><time>2026-05-03T12:53:03.001Z</time></trkpt><trkpt lat="42.5202002" lon="14.1454809"><ele>2.5999999999999996</ele><time>2026-05-03T12:53:04.001Z</time></trkpt><trkpt lat="42.5202792" lon="14.1453912"><ele>2.4000000000000004</ele><time>2026-05-03T12:53:05.001Z</time></trkpt><trkpt lat="42.5203584" lon="14.1452952"><ele>2.2</ele><time>2026-05-03T12:53:06Z</time></trkpt><trkpt lat="42.5204354" lon="14.1451954"><ele>2.0</ele><time>2026-05-03T12:53:07Z</time></trkpt><trkpt lat="42.5205118" lon="14.1450979"><ele>1.8</ele><time>2026-05-03T12:53:08Z</time></trkpt><trkpt lat="42.5205927" lon="14.1450059"><ele>1.6</ele><time>2026-05-03T12:53:09.001Z</time></trkpt><trkpt lat="42.5206745" lon="14.144913"><ele>1.4000000000000001</ele><time>2026-05-03T12:53:10.001Z</time></trkpt><trkpt lat="42.5207473" lon="14.1448226"><ele>1.2000000000000002</ele><time>2026-05-03T12:53:11.001Z</time></trkpt><trkpt lat="42.5208208" lon="14.1447293"><ele>1.0</ele><time>2026-05-03T12:53:12.001Z</time></trkpt><trkpt lat="42.5208982" lon="14.144629"><ele>1.75</ele><time>2026-05-03T12:53:13Z</time></trkpt><trkpt lat="42.520979" lon="14.1445291"><ele>2.5</ele><time>2026-05-03T12:53:14.001Z</time></trkpt><trkpt lat="42.521065" lon="14.1444235"><ele>3.25</ele><time>2026-05-03T12:53:15.001Z</time></trkpt><trkpt lat="42.5211532" lon="14.1443173"><ele>4.0</ele><time>2026-05-03T12:53:16.001Z</time></trkpt><trkpt lat="42.5212406" lon="14.1442149"><ele>4.25</ele><time>2026-05-03T12:53:17.001Z</time></trkpt><trkpt lat="42.5213282" lon="14.1441072"><ele>4.5</ele><time>2026-05-03T12:53:18.001Z</time></trkpt><trkpt lat="42.521422" lon="14.1440032"><ele>4.75</ele><time>2026-05-03T12:53:19.001Z</time></trkpt><trkpt lat="42.5215154" lon="14.1438954"><ele>5.0</ele><time>2026-05-03T12:53:20.001Z</time></trkpt><trkpt lat="42.5216081" lon="14.1437859"><ele>5.0</ele><time>2026-05-03T12:53:21Z</time></trkpt><trkpt lat="42.5217003" lon="14.1436704"><ele>5.0</ele><time>2026-05-03T12:53:22.001Z</time></trkpt><trkpt lat="42.5217847" lon="14.1435549"><ele>5.0</ele><time>2026-05-03T12:53:23.001Z</time></trkpt><trkpt lat="42.5218705" lon="14.1434409"><ele>5.0</ele><time>2026-05-03T12:53:24Z</time></trkpt><trkpt lat="42.5219637" lon="14.1433343"><ele>5.0</ele><time>2026-05-03T12:53:25.001Z</time></trkpt><trkpt lat="42.5220544" lon="14.1432285"><ele>5.0</ele><time>2026-05-03T12:53:26Z</time></trkpt><trkpt lat="42.5221421" lon="14.1431236"><ele>5.0</ele><time>2026-05-03T12:53:27.001Z</time></trkpt><trkpt lat="42.5222304" lon="14.1430191"><ele>5.0</ele><time>2026-05-03T12:53:28Z</time></trkpt><trkpt lat="42.5223151" lon="14.1429151"><ele>4.666666666666667</ele><time>2026-05-03T12:53:29Z</time></trkpt><trkpt lat="42.5223929" lon="14.1428177"><ele>4.333333333333334</ele><time>2026-05-03T12:53:30.001Z</time></trkpt><trkpt lat="42.5224649" lon="14.1427272"><ele>4.0</ele><time>2026-05-03T12:53:31.001Z</time></trkpt><trkpt lat="42.522532" lon="14.1426489"><ele>3.666666666666667</ele><time>2026-05-03T12:53:32.001Z</time></trkpt><trkpt lat="42.5225928" lon="14.1425787"><ele>3.3333333333333335</ele><time>2026-05-03T12:53:33.001Z</time></trkpt><trkpt lat="42.5226476" lon="14.1425127"><ele>3.0</ele><time>2026-05-03T12:53:34.001Z</time></trkpt><trkpt lat="42.5227228" lon="14.1424282"><ele>3.1428571428571423</ele><time>2026-05-03T12:53:36.001Z</time></trkpt><trkpt lat="42.522782" lon="14.142375"><ele>3.2857142857142856</ele><time>2026-05-03T12:53:49.001Z</time></trkpt><trkpt lat="42.5228564" lon="14.1423179"><ele>3.4285714285714284</ele><time>2026-05-03T12:53:51.001Z</time></trkpt><trkpt lat="42.5229304" lon="14.1422828"><ele>3.571428571428571</ele><time>2026-05-03T12:53:53.001Z</time></trkpt><trkpt lat="42.5229917" lon="14.1422526"><ele>3.714285714285714</ele><time>2026-05-03T12:53:55Z</time></trkpt><trkpt lat="42.5230587" lon="14.1422126"><ele>3.8571428571428568</ele><time>2026-05-03T12:53:58.001Z</time></trkpt><trkpt lat="42.5231237" lon="14.1421713"><ele>4.0</ele><time>2026-05-03T12:54:02.001Z</time></trkpt><trkpt lat="42.5231673" lon="14.1421071"><ele>3.9999999999999996</ele><time>2026-05-03T12:54:04Z</time></trkpt><trkpt lat="42.5231502" lon="14.1420016"><ele>4.0</ele><time>2026-05-03T12:54:06Z</time></trkpt><trkpt lat="42.5231129" lon="14.1419313"><ele>4.0</ele><time>2026-05-03T12:54:08.001Z</time></trkpt><trkpt lat="42.5230446" lon="14.1419434"><ele>4.0</ele><time>2026-05-03T12:54:11Z</time></trkpt><trkpt lat="42.5229408" lon="14.1418945"><ele>3.9999999999999996</ele><time>2026-05-03T12:54:14.001Z</time></trkpt><trkpt lat="42.5228687" lon="14.1418129"><ele>4.0</ele><time>2026-05-03T12:54:16Z</time></trkpt><trkpt lat="42.5227869" lon="14.1417203"><ele>4.0</ele><time>2026-05-03T12:54:18.001Z</time></trkpt><trkpt lat="42.5227181" lon="14.1415982"><ele>4.0</ele><time>2026-05-03T12:54:20Z</time></trkpt><trkpt lat="42.5226736" lon="14.1415035"><ele>4.0</ele><time>2026-05-03T12:54:21.001Z</time></trkpt><trkpt lat="42.5226128" lon="14.1414003"><ele>4.0</ele><time>2026-05-03T12:54:22Z</time></trkpt><trkpt lat="42.5225426" lon="14.1412788"><ele>4.0</ele><time>2026-05-03T12:54:23Z</time></trkpt><trkpt lat="42.5224789" lon="14.1411508"><ele>4.0</ele><time>2026-05-03T12:54:24Z</time></trkpt><trkpt lat="42.522416" lon="14.1410246"><ele>4.0</ele><time>2026-05-03T12:54:25.001Z</time></trkpt><trkpt lat="42.5223619" lon="14.1409146"><ele>4.0</ele><time>2026-05-03T12:54:26.001Z</time></trkpt><trkpt lat="42.522312" lon="14.1408156"><ele>4.0</ele><time>2026-05-03T12:54:27Z</time></trkpt><trkpt lat="42.5222591" lon="14.1407121"><ele>4.0</ele><time>2026-05-03T12:54:28.001Z</time></trkpt><trkpt lat="42.5222032" lon="14.1406032"><ele>4.0</ele><time>2026-05-03T12:54:29Z</time></trkpt><trkpt lat="42.5221539" lon="14.1404867"><ele>4.0</ele><time>2026-05-03T12:54:30.001Z</time></trkpt><trkpt lat="42.5220995" lon="14.1403764"><ele>4.0</ele><time>2026-05-03T12:54:31.001Z</time></trkpt><trkpt lat="42.52205" lon="14.1402617"><ele>4.0</ele><time>2026-05-03T12:54:32Z</time></trkpt><trkpt lat="42.5220032" lon="14.1401373"><ele>4.0</ele><time>2026-05-03T12:54:33.001Z</time></trkpt><trkpt lat="42.521952" lon="14.1400181"><ele>3.9999999999999996</ele><time>2026-05-03T12:54:34.001Z</time></trkpt><trkpt lat="42.5219081" lon="14.1399016"><ele>4.0</ele><time>2026-05-03T12:54:35.001Z</time></trkpt><trkpt lat="42.5218731" lon="14.1397872"><ele>4.0</ele><time>2026-05-03T12:54:36.001Z</time></trkpt><trkpt lat="42.5218435" lon="14.1396816"><ele>4.0</ele><time>2026-05-03T12:54:37.001Z</time></trkpt><trkpt lat="42.5218086" lon="14.1395845"><ele>3.9999999999999996</ele><time>2026-05-03T12:54:38.001Z</time></trkpt><trkpt lat="42.5217746" lon="14.1394832"><ele>4.0</ele><time>2026-05-03T12:54:39.001Z</time></trkpt><trkpt lat="42.5217338" lon="14.1393794"><ele>3.9999999999999996</ele><time>2026-05-03T12:54:40Z</time></trkpt><trkpt lat="42.521694" lon="14.1392728"><ele>4.0</ele><time>2026-05-03T12:54:41Z</time></trkpt><trkpt lat="42.5216561" lon="14.1391627"><ele>4.0</ele><time>2026-05-03T12:54:42Z</time></trkpt><trkpt lat="42.5216172" lon="14.1390508"><ele>4.0</ele><time>2026-05-03T12:54:43.001Z</time></trkpt><trkpt lat="42.5215781" lon="14.1389447"><ele>3.9999999999999996</ele><time>2026-05-03T12:54:44.001Z</time></trkpt><trkpt lat="42.5215406" lon="14.138842"><ele>4.0</ele><time>2026-05-03T12:54:45.001Z</time></trkpt><trkpt lat="42.5215057" lon="14.1387395"><ele>4.166666666666666</ele><time>2026-05-03T12:54:46.001Z</time></trkpt><trkpt lat="42.5214664" lon="14.1386399"><ele>4.333333333333333</ele><time>2026-05-03T12:54:47.001Z</time></trkpt><trkpt lat="42.5214315" lon="14.1385368"><ele>4.5</ele><time>2026-05-03T12:54:48Z</time></trkpt><trkpt lat="42.5213941" lon="14.1384229"><ele>4.666666666666667</ele><time>2026-05-03T12:54:49Z</time></trkpt><trkpt lat="42.5213578" lon="14.1383163"><ele>4.833333333333334</ele><time>2026-05-03T12:54:50Z</time></trkpt><trkpt lat="42.5213159" lon="14.1382152"><ele>5.0</ele><time>2026-05-03T12:54:51Z</time></trkpt><trkpt lat="42.5212754" lon="14.138126"><ele>5.166666666666667</ele><time>2026-05-03T12:54:52Z</time></trkpt><trkpt lat="42.5212372" lon="14.1380522"><ele>5.333333333333334</ele><time>2026-05-03T12:54:53Z</time></trkpt><trkpt lat="42.5211984" lon="14.1379831"><ele>5.5</ele><time>2026-05-03T12:54:54Z</time></trkpt><trkpt lat="42.5211568" lon="14.137918"><ele>5.666666666666667</ele><time>2026-05-03T12:54:55.001Z</time></trkpt><trkpt lat="42.5210775" lon="14.1378199"><ele>5.833333333333333</ele><time>2026-05-03T12:54:57.001Z</time></trkpt><trkpt lat="42.5209791" lon="14.1377221"><ele>6.0</ele><time>2026-05-03T12:54:59.001Z</time></trkpt><trkpt lat="42.5209204" lon="14.1376579"><ele>5.833333333333333</ele><time>2026-05-03T12:55:00.001Z</time></trkpt><trkpt lat="42.5208666" lon="14.1375967"><ele>5.666666666666667</ele><time>2026-05-03T12:55:01Z</time></trkpt><trkpt lat="42.5207757" lon="14.1375052"><ele>5.5</ele><time>2026-05-03T12:55:03.001Z</time></trkpt><trkpt lat="42.5206815" lon="14.1374123"><ele>5.333333333333334</ele><time>2026-05-03T12:55:05.001Z</time></trkpt><trkpt lat="42.5206268" lon="14.1373505"><ele>5.166666666666667</ele><time>2026-05-03T12:55:06.001Z</time></trkpt><trkpt lat="42.520567" lon="14.137282"><ele>5.0</ele><time>2026-05-03T12:55:07.001Z</time></trkpt><trkpt lat="42.5205069" lon="14.1372002"><ele>5.0</ele><time>2026-05-03T12:55:08.001Z</time></trkpt><trkpt lat="42.5204395" lon="14.1371242"><ele>5.0</ele><time>2026-05-03T12:55:09Z</time></trkpt><trkpt lat="42.5203656" lon="14.1370396"><ele>5.0</ele><time>2026-05-03T12:55:10.001Z</time></trkpt><trkpt lat="42.5202852" lon="14.1369543"><ele>5.0</ele><time>2026-05-03T12:55:11.001Z</time></trkpt><trkpt lat="42.5202112" lon="14.1368774"><ele>5.0</ele><time>2026-05-03T12:55:12.001Z</time></trkpt><trkpt lat="42.520138" lon="14.1368103"><ele>5.4</ele><time>2026-05-03T12:55:13Z</time></trkpt><trkpt lat="42.520086" lon="14.1367352"><ele>5.8</ele><time>2026-05-03T12:55:14Z</time></trkpt><trkpt lat="42.5200287" lon="14.136638"><ele>6.199999999999999</ele><time>2026-05-03T12:55:16Z</time></trkpt><trkpt lat="42.5199784" lon="14.1365232"><ele>6.6</ele><time>2026-05-03T12:55:18.999Z</time></trkpt><trkpt lat="42.5199277" lon="14.1363875"><ele>7.0</ele><time>2026-05-03T12:55:20.999Z</time></trkpt><trkpt lat="42.5198446" lon="14.1362734"><ele>7.0</ele><time>2026-05-03T12:55:23Z</time></trkpt><trkpt lat="42.5197265" lon="14.1362619"><ele>6.999999999999999</ele><time>2026-05-03T12:55:24.999Z</time></trkpt><trkpt lat="42.5196348" lon="14.1363563"><ele>6.999999999999999</ele><time>2026-05-03T12:55:27Z</time></trkpt><trkpt lat="42.519623" lon="14.1364447"><ele>7.0</ele><time>2026-05-03T12:55:27.999Z</time></trkpt><trkpt lat="42.519627" lon="14.136533"><ele>7.0</ele><time>2026-05-03T12:55:28.999Z</time></trkpt><trkpt lat="42.5196987" lon="14.1366615"><ele>7.000000000000001</ele><time>2026-05-03T12:55:31Z</time></trkpt><trkpt lat="42.5197545" lon="14.1367039"><ele>7.0</ele><time>2026-05-03T12:55:31.999Z</time></trkpt><trkpt lat="42.519882" lon="14.1367548"><ele>7.0</ele><time>2026-05-03T12:55:34Z</time></trkpt><trkpt lat="42.5199452" lon="14.1367617"><ele>7.0</ele><time>2026-05-03T12:55:34.999Z</time></trkpt><trkpt lat="42.5200111" lon="14.1367878"><ele>7.000000000000001</ele><time>2026-05-03T12:55:35.999Z</time></trkpt><trkpt lat="42.5200684" lon="14.1368532"><ele>7.0</ele><time>2026-05-03T12:55:37Z</time></trkpt><trkpt lat="42.5201342" lon="14.1369211"><ele>7.000000000000001</ele><time>2026-05-03T12:55:38Z</time></trkpt><trkpt lat="42.5201913" lon="14.1369958"><ele>7.0</ele><time>2026-05-03T12:55:38.999Z</time></trkpt><trkpt lat="42.5202537" lon="14.1370631"><ele>7.0</ele><time>2026-05-03T12:55:40Z</time></trkpt><trkpt lat="42.52032" lon="14.1371384"><ele>7.0</ele><time>2026-05-03T12:55:40.999Z</time></trkpt><trkpt lat="42.5203884" lon="14.1372098"><ele>7.000000000000001</ele><time>2026-05-03T12:55:41.999Z</time></trkpt><trkpt lat="42.5204613" lon="14.1372909"><ele>7.0</ele><time>2026-05-03T12:55:43Z</time></trkpt><trkpt lat="42.520538" lon="14.13737"><ele>6.3999999999999995</ele><time>2026-05-03T12:55:44Z</time></trkpt><trkpt lat="42.5206152" lon="14.1374466"><ele>5.799999999999999</ele><time>2026-05-03T12:55:45Z</time></trkpt><trkpt lat="42.5206869" lon="14.1375221"><ele>5.2</ele><time>2026-05-03T12:55:46Z</time></trkpt><trkpt lat="42.5207519" lon="14.1375955"><ele>4.6</ele><time>2026-05-03T12:55:46.999Z</time></trkpt><trkpt lat="42.5208104" lon="14.1376567"><ele>4.0</ele><time>2026-05-03T12:55:47.999Z</time></trkpt><trkpt lat="42.5208916" lon="14.1377609"><ele>3.9999999999999996</ele><time>2026-05-03T12:55:50Z</time></trkpt><trkpt lat="42.5208982" lon="14.1378479"><ele>4.0</ele><time>2026-05-03T12:55:51.999Z</time></trkpt><trkpt lat="42.5208278" lon="14.1378798"><ele>4.0</ele><time>2026-05-03T12:55:55Z</time></trkpt><trkpt lat="42.5207689" lon="14.1377935"><ele>4.0</ele><time>2026-05-03T12:55:56.999Z</time></trkpt><trkpt lat="42.5206767" lon="14.1376973"><ele>3.9999999999999996</ele><time>2026-05-03T12:55:59Z</time></trkpt><trkpt lat="42.5205934" lon="14.1376244"><ele>4.0</ele><time>2026-05-03T12:56:00.999Z</time></trkpt><trkpt lat="42.5205397" lon="14.1375335"><ele>3.9999999999999996</ele><time>2026-05-03T12:56:02.999Z</time></trkpt><trkpt lat="42.5204499" lon="14.1375463"><ele>4.0</ele><time>2026-05-03T12:56:06Z</time></trkpt><trkpt lat="42.5203755" lon="14.1376195"><ele>4.0</ele><time>2026-05-03T12:56:09Z</time></trkpt><trkpt lat="42.5203222" lon="14.1376809"><ele>4.0</ele><time>2026-05-03T12:56:11Z</time></trkpt><trkpt lat="42.5203466" lon="14.13779"><ele>3.9999999999999996</ele><time>2026-05-03T12:56:14Z</time></trkpt><trkpt lat="42.5204095" lon="14.1378203"><ele>4.0</ele><time>2026-05-03T12:56:16.037Z</time></trkpt><trkpt lat="42.5204748" lon="14.1378566"><ele>3.9999999999999996</ele><time>2026-05-03T12:56:19.976Z</time></trkpt><trkpt lat="42.5205189" lon="14.1379243"><ele>4.0</ele><time>2026-05-03T12:56:27Z</time></trkpt><trkpt lat="42.5204194" lon="14.1377893"><ele>4.0</ele><time>2026-05-03T13:05:43Z</time></trkpt><trkpt lat="42.5204858" lon="14.1377058"><ele>4.0</ele><time>2026-05-03T13:36:43.012Z</time></trkpt><trkpt lat="42.5205379" lon="14.1376462"><ele>3.9999999999999996</ele><time>2026-05-03T13:36:49.043Z</time></trkpt><trkpt lat="42.5206047" lon="14.1376722"><ele>4.0</ele><time>2026-05-03T13:37:01.995Z</time></trkpt><trkpt lat="42.5206613" lon="14.137725"><ele>4.0</ele><time>2026-05-03T13:37:07.021Z</time></trkpt><trkpt lat="42.5207191" lon="14.1377825"><ele>3.9999999999999996</ele><time>2026-05-03T13:37:13.013Z</time></trkpt><trkpt lat="42.5207791" lon="14.137825"><ele>4.0</ele><time>2026-05-03T13:37:20Z</time></trkpt><trkpt lat="42.520751" lon="14.1379047"><ele>4.0</ele><time>2026-05-03T13:37:29.024Z</time></trkpt><trkpt lat="42.5206787" lon="14.1378886"><ele>3.9999999999999996</ele><time>2026-05-03T13:38:01.442Z</time></trkpt><trkpt lat="42.5206748" lon="14.1377538"><ele>4.0</ele><time>2026-05-03T13:44:42.009Z</time></trkpt><trkpt lat="42.5206343" lon="14.1378269"><ele>4.0</ele><time>2026-05-03T13:44:52.999Z</time></trkpt><trkpt lat="42.5206604" lon="14.1379091"><ele>3.9999999999999996</ele><time>2026-05-03T13:45:37.898Z</time></trkpt><trkpt lat="42.5206022" lon="14.1378765"><ele>4.0</ele><time>2026-05-03T13:46:07.999Z</time></trkpt><trkpt lat="42.5206649" lon="14.1379132"><ele>4.0</ele><time>2026-05-03T13:46:21.999Z</time></trkpt><trkpt lat="42.5207063" lon="14.1380097"><ele>4.0</ele><time>2026-05-03T13:46:46.578Z</time></trkpt><trkpt lat="42.5206053" lon="14.1378781"><ele>3.9999999999999996</ele><time>2026-05-03T13:46:58Z</time></trkpt><trkpt lat="42.5206249" lon="14.1377963"><ele>4.0</ele><time>2026-05-03T13:47:24Z</time></trkpt><trkpt lat="42.5205978" lon="14.1377167"><ele>3.9999999999999996</ele><time>2026-05-03T13:47:30.928Z</time></trkpt><trkpt lat="42.5205577" lon="14.1376378"><ele>4.0</ele><time>2026-05-03T13:47:37.911Z</time></trkpt><trkpt lat="42.5205026" lon="14.1375904"><ele>4.0</ele><time>2026-05-03T13:47:48.994Z</time></trkpt><trkpt lat="42.5204518" lon="14.1376612"><ele>4.0</ele><time>2026-05-03T13:47:59.017Z</time></trkpt><trkpt lat="42.5204452" lon="14.1377642"><ele>3.9999999999999996</ele><time>2026-05-03T13:48:13Z</time></trkpt><trkpt lat="42.520502" lon="14.1376638"><ele>4.0</ele><time>2026-05-03T13:50:15Z</time></trkpt><trkpt lat="42.5205195" lon="14.1375691"><ele>4.0</ele><time>2026-05-03T13:50:25.024Z</time></trkpt><trkpt lat="42.5205655" lon="14.1374802"><ele>3.9999999999999996</ele><time>2026-05-03T13:50:28.04Z</time></trkpt><trkpt lat="42.5206039" lon="14.1375728"><ele>4.0</ele><time>2026-05-03T13:50:31.999Z</time></trkpt><trkpt lat="42.5206407" lon="14.1376536"><ele>4.0</ele><time>2026-05-03T13:50:33.999Z</time></trkpt><trkpt lat="42.5206898" lon="14.1377206"><ele>3.9999999999999996</ele><time>2026-05-03T13:50:36Z</time></trkpt><trkpt lat="42.5207368" lon="14.1377849"><ele>4.0</ele><time>2026-05-03T13:50:38Z</time></trkpt><trkpt lat="42.5207817" lon="14.1378523"><ele>4.0</ele><time>2026-05-03T13:50:39.999Z</time></trkpt><trkpt lat="42.5208289" lon="14.1379116"><ele>4.0</ele><time>2026-05-03T13:50:45Z</time></trkpt><trkpt lat="42.5208881" lon="14.137949"><ele>3.9999999999999996</ele><time>2026-05-03T13:51:08.999Z</time></trkpt><trkpt lat="42.5209481" lon="14.1379099"><ele>4.0</ele><time>2026-05-03T13:51:13Z</time></trkpt><trkpt lat="42.5210124" lon="14.1378838"><ele>4.0</ele><time>2026-05-03T13:51:29Z</time></trkpt><trkpt lat="42.5210707" lon="14.1379278"><ele>3.9999999999999996</ele><time>2026-05-03T13:51:33Z</time></trkpt><trkpt lat="42.5211419" lon="14.1380083"><ele>4.0</ele><time>2026-05-03T13:51:35.999Z</time></trkpt><trkpt lat="42.5211861" lon="14.1380706"><ele>4.0</ele><time>2026-05-03T13:51:37.999Z</time></trkpt><trkpt lat="42.5212344" lon="14.138152"><ele>4.2</ele><time>2026-05-03T13:51:40Z</time></trkpt><trkpt lat="42.5212798" lon="14.1382473"><ele>4.4</ele><time>2026-05-03T13:51:41.999Z</time></trkpt><trkpt lat="42.5213347" lon="14.1383622"><ele>4.6</ele><time>2026-05-03T13:51:43.999Z</time></trkpt><trkpt lat="42.5213815" lon="14.1384759"><ele>4.8</ele><time>2026-05-03T13:51:46Z</time></trkpt><trkpt lat="42.5214205" lon="14.1386019"><ele>5.0</ele><time>2026-05-03T13:51:48Z</time></trkpt><trkpt lat="42.5214664" lon="14.1387063"><ele>5.0</ele><time>2026-05-03T13:51:49.999Z</time></trkpt><trkpt lat="42.5215189" lon="14.1388009"><ele>5.0</ele><time>2026-05-03T13:51:52Z</time></trkpt><trkpt lat="42.5215806" lon="14.1388673"><ele>5.0</ele><time>2026-05-03T13:51:54Z</time></trkpt><trkpt lat="42.5216439" lon="14.1388947"><ele>5.0</ele><time>2026-05-03T13:51:55.999Z</time></trkpt><trkpt lat="42.5216918" lon="14.1389556"><ele>5.0</ele><time>2026-05-03T13:51:59Z</time></trkpt><trkpt lat="42.5217072" lon="14.1390554"><ele>5.0</ele><time>2026-05-03T13:52:01.999Z</time></trkpt><trkpt lat="42.5217448" lon="14.1391404"><ele>5.0</ele><time>2026-05-03T13:52:04.999Z</time></trkpt><trkpt lat="42.5217855" lon="14.1392217"><ele>4.0</ele><time>2026-05-03T13:52:07.999Z</time></trkpt><trkpt lat="42.5218505" lon="14.139228"><ele>4.0</ele><time>2026-05-03T13:52:11Z</time></trkpt><trkpt lat="42.5218743" lon="14.1391454"><ele>4.0</ele><time>2026-05-03T13:52:14Z</time></trkpt><trkpt lat="42.5218577" lon="14.1390481"><ele>5.0</ele><time>2026-05-03T13:52:18Z</time></trkpt><trkpt lat="42.5218215" lon="14.1389662"><ele>5.0</ele><time>2026-05-03T13:52:24.997Z</time></trkpt><trkpt lat="42.5217883" lon="14.1388932"><ele>5.0</ele><time>2026-05-03T13:53:00.996Z</time></trkpt><trkpt lat="42.5217411" lon="14.1388362"><ele>5.0</ele><time>2026-05-03T13:55:27.996Z</time></trkpt></trkseg></trk></gpx>